<?xml version='1.0' encoding='UTF-8'?><gpx version="1.1" creator="JPX - https://github.com/jenetics/jpx" xmlns="http://www.topografix.com/GPX/1/1"><trk><trkseg><trkpt lat="43.5763659" lon="11.5120753"><ele>133.0</ele><time>2026-04-18T07:10:39.685Z</time></trkpt><trkpt lat="43.5764173" lon="11.5119755"><ele>133.0</ele><time>2026-04-18T07:10:42.685Z</time></trkpt><trkpt lat="43.5763404" lon="11.5119276"><ele>133.0</ele><time>2026-04-18T07:10:46.685Z</time></trkpt><trkpt lat="43.5762218" lon="11.5120247"><ele>133.0</ele><time>2026-04-18T07:10:48.685Z</time></trkpt><trkpt lat="43.5761664" lon="11.5120947"><ele>133.0</ele><time>2026-04-18T07:10:49.685Z</time></trkpt><trkpt lat="43.5761042" lon="11.5121607"><ele>133.0</ele><time>2026-04-18T07:10:50.685Z</time></trkpt><trkpt lat="43.5760413" lon="11.5122452"><ele>133.0</ele><time>2026-04-18T07:10:51.685Z</time></trkpt><trkpt lat="43.5759737" lon="11.5123478"><ele>133.0</ele><time>2026-04-18T07:10:52.686Z</time></trkpt><trkpt lat="43.5759063" lon="11.512446"><ele>133.0</ele><time>2026-04-18T07:10:53.685Z</time></trkpt><trkpt lat="43.5758375" lon="11.5125397"><ele>133.0</ele><time>2026-04-18T07:10:54.685Z</time></trkpt><trkpt lat="43.5757673" lon="11.5126395"><ele>133.0</ele><time>2026-04-18T07:10:55.685Z</time></trkpt><trkpt lat="43.5756968" lon="11.5127427"><ele>133.0</ele><time>2026-04-18T07:10:56.685Z</time></trkpt><trkpt lat="43.5756219" lon="11.5128548"><ele>133.0</ele><time>2026-04-18T07:10:57.685Z</time></trkpt><trkpt lat="43.5755384" lon="11.5129549"><ele>133.0</ele><time>2026-04-18T07:10:58.686Z</time></trkpt><trkpt lat="43.5754488" lon="11.5130618"><ele>133.0</ele><time>2026-04-18T07:10:59.686Z</time></trkpt><trkpt lat="43.575358" lon="11.5131674"><ele>133.5</ele><time>2026-04-18T07:11:00.685Z</time></trkpt><trkpt lat="43.575264" lon="11.5132755"><ele>134.0</ele><time>2026-04-18T07:11:01.685Z</time></trkpt><trkpt lat="43.5751674" lon="11.5133898"><ele>134.5</ele><time>2026-04-18T07:11:02.685Z</time></trkpt><trkpt lat="43.57508" lon="11.5134987"><ele>135.0</ele><time>2026-04-18T07:11:03.685Z</time></trkpt><trkpt lat="43.5749983" lon="11.5135928"><ele>135.0</ele><time>2026-04-18T07:11:04.685Z</time></trkpt><trkpt lat="43.574918" lon="11.5136861"><ele>135.0</ele><time>2026-04-18T07:11:05.685Z</time></trkpt><trkpt lat="43.5748413" lon="11.5137835"><ele>135.0</ele><time>2026-04-18T07:11:06.685Z</time></trkpt><trkpt lat="43.574753" lon="11.5138875"><ele>135.0</ele><time>2026-04-18T07:11:07.685Z</time></trkpt><trkpt lat="43.5746571" lon="11.5139964"><ele>135.0</ele><time>2026-04-18T07:11:08.685Z</time></trkpt><trkpt lat="43.5745717" lon="11.5141094"><ele>135.0</ele><time>2026-04-18T07:11:09.686Z</time></trkpt><trkpt lat="43.5744882" lon="11.5142311"><ele>135.0</ele><time>2026-04-18T07:11:10.685Z</time></trkpt><trkpt lat="43.574397" lon="11.5143573"><ele>135.0</ele><time>2026-04-18T07:11:11.685Z</time></trkpt><trkpt lat="43.5743176" lon="11.5144854"><ele>135.0</ele><time>2026-04-18T07:11:12.685Z</time></trkpt><trkpt lat="43.574248" lon="11.5146179"><ele>135.0</ele><time>2026-04-18T07:11:13.685Z</time></trkpt><trkpt lat="43.5741747" lon="11.5147621"><ele>135.0</ele><time>2026-04-18T07:11:14.685Z</time></trkpt><trkpt lat="43.574103" lon="11.514896"><ele>135.0</ele><time>2026-04-18T07:11:15.686Z</time></trkpt><trkpt lat="43.5740415" lon="11.5150405"><ele>135.0</ele><time>2026-04-18T07:11:16.685Z</time></trkpt><trkpt lat="43.5739886" lon="11.5151803"><ele>135.0</ele><time>2026-04-18T07:11:17.685Z</time></trkpt><trkpt lat="43.5739466" lon="11.5153328"><ele>135.0</ele><time>2026-04-18T07:11:18.685Z</time></trkpt><trkpt lat="43.5739042" lon="11.5154734"><ele>135.0</ele><time>2026-04-18T07:11:19.685Z</time></trkpt><trkpt lat="43.5738727" lon="11.5156166"><ele>135.0</ele><time>2026-04-18T07:11:20.685Z</time></trkpt><trkpt lat="43.5738414" lon="11.5157585"><ele>135.0</ele><time>2026-04-18T07:11:21.685Z</time></trkpt><trkpt lat="43.5738119" lon="11.5158957"><ele>135.0</ele><time>2026-04-18T07:11:22.686Z</time></trkpt><trkpt lat="43.5737808" lon="11.5160168"><ele>135.0</ele><time>2026-04-18T07:11:23.685Z</time></trkpt><trkpt lat="43.5737467" lon="11.5161254"><ele>135.0</ele><time>2026-04-18T07:11:24.685Z</time></trkpt><trkpt lat="43.5737101" lon="11.5162151"><ele>135.0</ele><time>2026-04-18T07:11:25.685Z</time></trkpt><trkpt lat="43.5736627" lon="11.5162729"><ele>135.0</ele><time>2026-04-18T07:11:26.685Z</time></trkpt><trkpt lat="43.5735889" lon="11.516304"><ele>135.0</ele><time>2026-04-18T07:11:27.685Z</time></trkpt><trkpt lat="43.5734957" lon="11.5162999"><ele>134.8</ele><time>2026-04-18T07:11:28.686Z</time></trkpt><trkpt lat="43.5734061" lon="11.51626"><ele>134.6</ele><time>2026-04-18T07:11:29.686Z</time></trkpt><trkpt lat="43.573305" lon="11.5161886"><ele>134.4</ele><time>2026-04-18T07:11:30.686Z</time></trkpt><trkpt lat="43.5732114" lon="11.5161086"><ele>134.2</ele><time>2026-04-18T07:11:31.686Z</time></trkpt><trkpt lat="43.5731101" lon="11.5160089"><ele>134.0</ele><time>2026-04-18T07:11:32.685Z</time></trkpt><trkpt lat="43.5730026" lon="11.5158832"><ele>134.0</ele><time>2026-04-18T07:11:33.686Z</time></trkpt><trkpt lat="43.5728903" lon="11.5157572"><ele>134.0</ele><time>2026-04-18T07:11:34.686Z</time></trkpt><trkpt lat="43.5728073" lon="11.5155945"><ele>134.0</ele><time>2026-04-18T07:11:35.686Z</time></trkpt><trkpt lat="43.5727399" lon="11.5153829"><ele>133.66666666666666</ele><time>2026-04-18T07:11:36.686Z</time></trkpt><trkpt lat="43.5726819" lon="11.5151798"><ele>133.33333333333334</ele><time>2026-04-18T07:11:37.685Z</time></trkpt><trkpt lat="43.5726274" lon="11.5149737"><ele>133.0</ele><time>2026-04-18T07:11:38.685Z</time></trkpt><trkpt lat="43.5725808" lon="11.5147598"><ele>132.75</ele><time>2026-04-18T07:11:39.685Z</time></trkpt><trkpt lat="43.5725366" lon="11.5145651"><ele>132.5</ele><time>2026-04-18T07:11:40.685Z</time></trkpt><trkpt lat="43.5724845" lon="11.5143842"><ele>132.25</ele><time>2026-04-18T07:11:41.686Z</time></trkpt><trkpt lat="43.5724179" lon="11.5141936"><ele>132.0</ele><time>2026-04-18T07:11:42.685Z</time></trkpt><trkpt lat="43.5723347" lon="11.5140077"><ele>132.0</ele><time>2026-04-18T07:11:43.686Z</time></trkpt><trkpt lat="43.5722412" lon="11.5138358"><ele>132.0</ele><time>2026-04-18T07:11:44.685Z</time></trkpt><trkpt lat="43.5721401" lon="11.5136729"><ele>132.0</ele><time>2026-04-18T07:11:45.686Z</time></trkpt><trkpt lat="43.5720173" lon="11.5135256"><ele>132.75</ele><time>2026-04-18T07:11:46.686Z</time></trkpt><trkpt lat="43.5718963" lon="11.5133911"><ele>133.5</ele><time>2026-04-18T07:11:47.685Z</time></trkpt><trkpt lat="43.5717894" lon="11.5132609"><ele>134.25</ele><time>2026-04-18T07:11:48.686Z</time></trkpt><trkpt lat="43.5716838" lon="11.5131308"><ele>135.0</ele><time>2026-04-18T07:11:49.685Z</time></trkpt><trkpt lat="43.5715814" lon="11.5130016"><ele>134.75</ele><time>2026-04-18T07:11:50.685Z</time></trkpt><trkpt lat="43.5714727" lon="11.5128756"><ele>134.5</ele><time>2026-04-18T07:11:51.685Z</time></trkpt><trkpt lat="43.5713593" lon="11.5127539"><ele>134.25</ele><time>2026-04-18T07:11:52.685Z</time></trkpt><trkpt lat="43.5712437" lon="11.5126417"><ele>134.0</ele><time>2026-04-18T07:11:53.686Z</time></trkpt><trkpt lat="43.5711311" lon="11.5125195"><ele>134.66666666666666</ele><time>2026-04-18T07:11:54.685Z</time></trkpt><trkpt lat="43.5710285" lon="11.5123879"><ele>135.33333333333334</ele><time>2026-04-18T07:11:55.686Z</time></trkpt><trkpt lat="43.5709197" lon="11.5122382"><ele>136.0</ele><time>2026-04-18T07:11:56.685Z</time></trkpt><trkpt lat="43.5708147" lon="11.5120718"><ele>136.0</ele><time>2026-04-18T07:11:57.685Z</time></trkpt><trkpt lat="43.5707235" lon="11.5118977"><ele>136.0</ele><time>2026-04-18T07:11:58.685Z</time></trkpt><trkpt lat="43.5706302" lon="11.5117215"><ele>136.0</ele><time>2026-04-18T07:11:59.685Z</time></trkpt><trkpt lat="43.5705245" lon="11.5115558"><ele>136.0</ele><time>2026-04-18T07:12:00.685Z</time></trkpt><trkpt lat="43.5704196" lon="11.5113907"><ele>136.0</ele><time>2026-04-18T07:12:01.685Z</time></trkpt><trkpt lat="43.5703149" lon="11.5112334"><ele>136.0</ele><time>2026-04-18T07:12:02.685Z</time></trkpt><trkpt lat="43.5701974" lon="11.511077"><ele>136.33333333333334</ele><time>2026-04-18T07:12:03.685Z</time></trkpt><trkpt lat="43.5700832" lon="11.5109063"><ele>136.66666666666666</ele><time>2026-04-18T07:12:04.686Z</time></trkpt><trkpt lat="43.5699749" lon="11.5107325"><ele>137.0</ele><time>2026-04-18T07:12:05.685Z</time></trkpt><trkpt lat="43.569872" lon="11.5105518"><ele>137.0</ele><time>2026-04-18T07:12:06.685Z</time></trkpt><trkpt lat="43.5697759" lon="11.5103715"><ele>137.0</ele><time>2026-04-18T07:12:07.685Z</time></trkpt><trkpt lat="43.5696837" lon="11.5101962"><ele>137.0</ele><time>2026-04-18T07:12:08.685Z</time></trkpt><trkpt lat="43.5695955" lon="11.5100106"><ele>137.33333333333331</ele><time>2026-04-18T07:12:09.685Z</time></trkpt><trkpt lat="43.5695154" lon="11.5098129"><ele>137.66666666666666</ele><time>2026-04-18T07:12:10.686Z</time></trkpt><trkpt lat="43.5694379" lon="11.509625"><ele>138.0</ele><time>2026-04-18T07:12:11.686Z</time></trkpt><trkpt lat="43.5693618" lon="11.5094443"><ele>138.0</ele><time>2026-04-18T07:12:12.685Z</time></trkpt><trkpt lat="43.569285" lon="11.5092598"><ele>138.0</ele><time>2026-04-18T07:12:13.685Z</time></trkpt><trkpt lat="43.5692088" lon="11.5090835"><ele>138.0</ele><time>2026-04-18T07:12:14.685Z</time></trkpt><trkpt lat="43.5691335" lon="11.5089052"><ele>138.33333333333334</ele><time>2026-04-18T07:12:15.685Z</time></trkpt><trkpt lat="43.5690536" lon="11.5087319"><ele>138.66666666666669</ele><time>2026-04-18T07:12:16.685Z</time></trkpt><trkpt lat="43.5689661" lon="11.5085548"><ele>139.0</ele><time>2026-04-18T07:12:17.685Z</time></trkpt><trkpt lat="43.5688754" lon="11.5083803"><ele>139.0</ele><time>2026-04-18T07:12:18.685Z</time></trkpt><trkpt lat="43.5687842" lon="11.508207"><ele>139.0</ele><time>2026-04-18T07:12:19.686Z</time></trkpt><trkpt lat="43.5686882" lon="11.5080354"><ele>139.0</ele><time>2026-04-18T07:12:20.686Z</time></trkpt><trkpt lat="43.5685828" lon="11.5078729"><ele>138.66666666666669</ele><time>2026-04-18T07:12:21.685Z</time></trkpt><trkpt lat="43.5684643" lon="11.5077205"><ele>138.33333333333334</ele><time>2026-04-18T07:12:22.685Z</time></trkpt><trkpt lat="43.568343" lon="11.5075775"><ele>138.0</ele><time>2026-04-18T07:12:23.685Z</time></trkpt><trkpt lat="43.56822" lon="11.5074425"><ele>138.0</ele><time>2026-04-18T07:12:24.686Z</time></trkpt><trkpt lat="43.5680941" lon="11.5073148"><ele>138.0</ele><time>2026-04-18T07:12:25.685Z</time></trkpt><trkpt lat="43.5679761" lon="11.5072035"><ele>138.0</ele><time>2026-04-18T07:12:26.685Z</time></trkpt><trkpt lat="43.5678467" lon="11.5070964"><ele>138.0</ele><time>2026-04-18T07:12:27.685Z</time></trkpt><trkpt lat="43.5677186" lon="11.5069886"><ele>138.0</ele><time>2026-04-18T07:12:28.685Z</time></trkpt><trkpt lat="43.5675987" lon="11.506881"><ele>138.0</ele><time>2026-04-18T07:12:29.685Z</time></trkpt><trkpt lat="43.5674789" lon="11.5067642"><ele>138.0</ele><time>2026-04-18T07:12:30.685Z</time></trkpt><trkpt lat="43.5673551" lon="11.5066528"><ele>138.0</ele><time>2026-04-18T07:12:31.686Z</time></trkpt><trkpt lat="43.5672336" lon="11.5065491"><ele>138.0</ele><time>2026-04-18T07:12:32.686Z</time></trkpt><trkpt lat="43.56711" lon="11.5064263"><ele>138.0</ele><time>2026-04-18T07:12:33.686Z</time></trkpt><trkpt lat="43.5669881" lon="11.5063046"><ele>138.0</ele><time>2026-04-18T07:12:34.685Z</time></trkpt><trkpt lat="43.5668676" lon="11.5061791"><ele>138.33333333333334</ele><time>2026-04-18T07:12:35.685Z</time></trkpt><trkpt lat="43.5667474" lon="11.5060521"><ele>138.66666666666669</ele><time>2026-04-18T07:12:36.685Z</time></trkpt><trkpt lat="43.5666273" lon="11.5059267"><ele>139.0</ele><time>2026-04-18T07:12:37.686Z</time></trkpt><trkpt lat="43.566506" lon="11.5057926"><ele>139.0</ele><time>2026-04-18T07:12:38.685Z</time></trkpt><trkpt lat="43.5663841" lon="11.5056616"><ele>139.0</ele><time>2026-04-18T07:12:39.686Z</time></trkpt><trkpt lat="43.5662665" lon="11.5055361"><ele>139.0</ele><time>2026-04-18T07:12:40.685Z</time></trkpt><trkpt lat="43.566155" lon="11.5054152"><ele>139.0</ele><time>2026-04-18T07:12:41.685Z</time></trkpt><trkpt lat="43.5660501" lon="11.5052939"><ele>139.75</ele><time>2026-04-18T07:12:42.686Z</time></trkpt><trkpt lat="43.5659489" lon="11.5051847"><ele>140.5</ele><time>2026-04-18T07:12:43.685Z</time></trkpt><trkpt lat="43.5658381" lon="11.505069"><ele>141.25</ele><time>2026-04-18T07:12:44.685Z</time></trkpt><trkpt lat="43.5657253" lon="11.5049484"><ele>142.0</ele><time>2026-04-18T07:12:45.685Z</time></trkpt><trkpt lat="43.565608" lon="11.5048259"><ele>142.0</ele><time>2026-04-18T07:12:46.685Z</time></trkpt><trkpt lat="43.5654874" lon="11.5046964"><ele>142.0</ele><time>2026-04-18T07:12:47.686Z</time></trkpt><trkpt lat="43.5653695" lon="11.5045671"><ele>142.0</ele><time>2026-04-18T07:12:48.686Z</time></trkpt><trkpt lat="43.5652521" lon="11.504438"><ele>141.33333333333334</ele><time>2026-04-18T07:12:49.685Z</time></trkpt><trkpt lat="43.5651344" lon="11.5043088"><ele>140.66666666666666</ele><time>2026-04-18T07:12:50.686Z</time></trkpt><trkpt lat="43.5650126" lon="11.5041679"><ele>140.0</ele><time>2026-04-18T07:12:51.685Z</time></trkpt><trkpt lat="43.5648875" lon="11.5040325"><ele>140.0</ele><time>2026-04-18T07:12:52.686Z</time></trkpt><trkpt lat="43.5647613" lon="11.5039011"><ele>140.0</ele><time>2026-04-18T07:12:53.685Z</time></trkpt><trkpt lat="43.5646377" lon="11.5037714"><ele>140.0</ele><time>2026-04-18T07:12:54.686Z</time></trkpt><trkpt lat="43.564515" lon="11.5036433"><ele>140.33333333333331</ele><time>2026-04-18T07:12:55.685Z</time></trkpt><trkpt lat="43.5643954" lon="11.503514"><ele>140.66666666666666</ele><time>2026-04-18T07:12:56.685Z</time></trkpt><trkpt lat="43.5642853" lon="11.5033783"><ele>141.0</ele><time>2026-04-18T07:12:57.685Z</time></trkpt><trkpt lat="43.5641743" lon="11.5032373"><ele>141.0</ele><time>2026-04-18T07:12:58.685Z</time></trkpt><trkpt lat="43.564069" lon="11.5030883"><ele>141.0</ele><time>2026-04-18T07:12:59.685Z</time></trkpt><trkpt lat="43.5639621" lon="11.5029384"><ele>141.0</ele><time>2026-04-18T07:13:00.685Z</time></trkpt><trkpt lat="43.5638659" lon="11.5027819"><ele>141.0</ele><time>2026-04-18T07:13:01.686Z</time></trkpt><trkpt lat="43.5637668" lon="11.5026228"><ele>141.0</ele><time>2026-04-18T07:13:02.685Z</time></trkpt><trkpt lat="43.5636686" lon="11.5024641"><ele>141.0</ele><time>2026-04-18T07:13:03.686Z</time></trkpt><trkpt lat="43.5635672" lon="11.5023003"><ele>141.0</ele><time>2026-04-18T07:13:04.685Z</time></trkpt><trkpt lat="43.5634601" lon="11.5021361"><ele>141.0</ele><time>2026-04-18T07:13:05.685Z</time></trkpt><trkpt lat="43.5633625" lon="11.5019736"><ele>141.0</ele><time>2026-04-18T07:13:06.685Z</time></trkpt><trkpt lat="43.5632752" lon="11.5018191"><ele>141.2</ele><time>2026-04-18T07:13:07.685Z</time></trkpt><trkpt lat="43.5632112" lon="11.5016883"><ele>141.39999999999998</ele><time>2026-04-18T07:13:08.686Z</time></trkpt><trkpt lat="43.5631486" lon="11.5015656"><ele>141.6</ele><time>2026-04-18T07:13:09.685Z</time></trkpt><trkpt lat="43.5630888" lon="11.5014511"><ele>141.79999999999998</ele><time>2026-04-18T07:13:10.686Z</time></trkpt><trkpt lat="43.5630365" lon="11.5013516"><ele>142.0</ele><time>2026-04-18T07:13:11.686Z</time></trkpt><trkpt lat="43.5629826" lon="11.5012568"><ele>142.16666666666669</ele><time>2026-04-18T07:13:12.686Z</time></trkpt><trkpt lat="43.5629235" lon="11.5011684"><ele>142.33333333333334</ele><time>2026-04-18T07:13:13.685Z</time></trkpt><trkpt lat="43.5628752" lon="11.5010912"><ele>142.5</ele><time>2026-04-18T07:13:14.686Z</time></trkpt><trkpt lat="43.5628225" lon="11.5009737"><ele>142.66666666666666</ele><time>2026-04-18T07:13:16.686Z</time></trkpt><trkpt lat="43.5628752" lon="11.5008419"><ele>142.83333333333331</ele><time>2026-04-18T07:13:18.686Z</time></trkpt><trkpt lat="43.5629338" lon="11.5007711"><ele>143.0</ele><time>2026-04-18T07:13:19.685Z</time></trkpt><trkpt lat="43.5629862" lon="11.5006775"><ele>143.0</ele><time>2026-04-18T07:13:20.686Z</time></trkpt><trkpt lat="43.5630388" lon="11.5005762"><ele>143.0</ele><time>2026-04-18T07:13:21.685Z</time></trkpt><trkpt lat="43.5630884" lon="11.5004624"><ele>143.0</ele><time>2026-04-18T07:13:22.686Z</time></trkpt><trkpt lat="43.5631291" lon="11.5003692"><ele>143.0</ele><time>2026-04-18T07:13:23.685Z</time></trkpt><trkpt lat="43.5631638" lon="11.500268"><ele>143.0</ele><time>2026-04-18T07:13:24.685Z</time></trkpt><trkpt lat="43.5631982" lon="11.5001628"><ele>143.0</ele><time>2026-04-18T07:13:25.685Z</time></trkpt><trkpt lat="43.5632293" lon="11.5000518"><ele>143.8</ele><time>2026-04-18T07:13:26.686Z</time></trkpt><trkpt lat="43.5632616" lon="11.4999427"><ele>144.60000000000002</ele><time>2026-04-18T07:13:27.685Z</time></trkpt><trkpt lat="43.5632956" lon="11.4998198"><ele>145.39999999999998</ele><time>2026-04-18T07:13:28.685Z</time></trkpt><trkpt lat="43.5633335" lon="11.4996969"><ele>146.2</ele><time>2026-04-18T07:13:29.686Z</time></trkpt><trkpt lat="43.5633684" lon="11.4995809"><ele>147.0</ele><time>2026-04-18T07:13:30.685Z</time></trkpt><trkpt lat="43.5634038" lon="11.4994663"><ele>147.33333333333334</ele><time>2026-04-18T07:13:31.685Z</time></trkpt><trkpt lat="43.5634418" lon="11.4993743"><ele>147.66666666666666</ele><time>2026-04-18T07:13:32.686Z</time></trkpt><trkpt lat="43.5634822" lon="11.4992765"><ele>148.0</ele><time>2026-04-18T07:13:33.685Z</time></trkpt><trkpt lat="43.5635249" lon="11.4991749"><ele>148.33333333333331</ele><time>2026-04-18T07:13:34.685Z</time></trkpt><trkpt lat="43.5635596" lon="11.4990793"><ele>148.66666666666666</ele><time>2026-04-18T07:13:35.685Z</time></trkpt><trkpt lat="43.5635943" lon="11.4989895"><ele>149.0</ele><time>2026-04-18T07:13:36.685Z</time></trkpt><trkpt lat="43.5636378" lon="11.4988335"><ele>149.42857142857142</ele><time>2026-04-18T07:13:38.686Z</time></trkpt><trkpt lat="43.5636754" lon="11.4986955"><ele>149.85714285714283</ele><time>2026-04-18T07:13:40.686Z</time></trkpt><trkpt lat="43.5636937" lon="11.4986069"><ele>150.28571428571428</ele><time>2026-04-18T07:13:43.686Z</time></trkpt><trkpt lat="43.5637075" lon="11.4985186"><ele>150.71428571428572</ele><time>2026-04-18T07:13:51.685Z</time></trkpt><trkpt lat="43.5637405" lon="11.4984444"><ele>151.14285714285717</ele><time>2026-04-18T07:13:54.685Z</time></trkpt><trkpt lat="43.5637578" lon="11.4983576"><ele>151.57142857142856</ele><time>2026-04-18T07:13:57.685Z</time></trkpt><trkpt lat="43.5637878" lon="11.4982531"><ele>152.0</ele><time>2026-04-18T07:13:59.686Z</time></trkpt><trkpt lat="43.5638367" lon="11.4980958"><ele>153.8</ele><time>2026-04-18T07:14:01.685Z</time></trkpt><trkpt lat="43.5638753" lon="11.4980007"><ele>155.6</ele><time>2026-04-18T07:14:02.685Z</time></trkpt><trkpt lat="43.5639166" lon="11.4978754"><ele>157.4</ele><time>2026-04-18T07:14:03.686Z</time></trkpt><trkpt lat="43.5639708" lon="11.4977523"><ele>159.20000000000002</ele><time>2026-04-18T07:14:04.685Z</time></trkpt><trkpt lat="43.5640283" lon="11.4976344"><ele>161.0</ele><time>2026-04-18T07:14:05.685Z</time></trkpt><trkpt lat="43.5640888" lon="11.4975096"><ele>161.0</ele><time>2026-04-18T07:14:06.686Z</time></trkpt><trkpt lat="43.5641577" lon="11.4973908"><ele>161.0</ele><time>2026-04-18T07:14:07.685Z</time></trkpt><trkpt lat="43.5642309" lon="11.4972693"><ele>161.0</ele><time>2026-04-18T07:14:08.685Z</time></trkpt><trkpt lat="43.5642983" lon="11.4971423"><ele>161.0</ele><time>2026-04-18T07:14:09.685Z</time></trkpt><trkpt lat="43.5643596" lon="11.4970108"><ele>160.0</ele><time>2026-04-18T07:14:10.685Z</time></trkpt><trkpt lat="43.5644133" lon="11.4968666"><ele>159.0</ele><time>2026-04-18T07:14:11.686Z</time></trkpt><trkpt lat="43.5644646" lon="11.4967164"><ele>158.0</ele><time>2026-04-18T07:14:12.686Z</time></trkpt><trkpt lat="43.5645195" lon="11.4965689"><ele>157.0</ele><time>2026-04-18T07:14:13.686Z</time></trkpt><trkpt lat="43.5645752" lon="11.4964151"><ele>159.5</ele><time>2026-04-18T07:14:14.685Z</time></trkpt><trkpt lat="43.5646314" lon="11.4962679"><ele>162.0</ele><time>2026-04-18T07:14:15.686Z</time></trkpt><trkpt lat="43.5646816" lon="11.4961121"><ele>164.5</ele><time>2026-04-18T07:14:16.686Z</time></trkpt><trkpt lat="43.5647325" lon="11.4959587"><ele>167.0</ele><time>2026-04-18T07:14:17.685Z</time></trkpt><trkpt lat="43.5647842" lon="11.4958231"><ele>167.0</ele><time>2026-04-18T07:14:18.685Z</time></trkpt><trkpt lat="43.5648298" lon="11.4956966"><ele>167.0</ele><time>2026-04-18T07:14:19.686Z</time></trkpt><trkpt lat="43.564873" lon="11.4955708"><ele>167.0</ele><time>2026-04-18T07:14:20.686Z</time></trkpt><trkpt lat="43.5649119" lon="11.4954422"><ele>167.0</ele><time>2026-04-18T07:14:21.685Z</time></trkpt><trkpt lat="43.5649362" lon="11.4953072"><ele>167.0</ele><time>2026-04-18T07:14:22.686Z</time></trkpt><trkpt lat="43.5649548" lon="11.4951676"><ele>167.2</ele><time>2026-04-18T07:14:23.686Z</time></trkpt><trkpt lat="43.5649699" lon="11.4950236"><ele>167.39999999999998</ele><time>2026-04-18T07:14:24.685Z</time></trkpt><trkpt lat="43.56497" lon="11.4948754"><ele>167.60000000000002</ele><time>2026-04-18T07:14:25.686Z</time></trkpt><trkpt lat="43.564962" lon="11.4947174"><ele>167.8</ele><time>2026-04-18T07:14:26.686Z</time></trkpt><trkpt lat="43.5649524" lon="11.4945699"><ele>168.0</ele><time>2026-04-18T07:14:27.686Z</time></trkpt><trkpt lat="43.5649371" lon="11.4944226"><ele>168.0</ele><time>2026-04-18T07:14:28.686Z</time></trkpt><trkpt lat="43.5649292" lon="11.49427"><ele>168.0</ele><time>2026-04-18T07:14:29.685Z</time></trkpt><trkpt lat="43.564929" lon="11.4941251"><ele>168.0</ele><time>2026-04-18T07:14:30.685Z</time></trkpt><trkpt lat="43.5649253" lon="11.493976"><ele>168.0</ele><time>2026-04-18T07:14:31.685Z</time></trkpt><trkpt lat="43.5649332" lon="11.4938447"><ele>168.0</ele><time>2026-04-18T07:14:32.686Z</time></trkpt><trkpt lat="43.5649462" lon="11.4937134"><ele>167.83333333333334</ele><time>2026-04-18T07:14:33.685Z</time></trkpt><trkpt lat="43.5649512" lon="11.4935983"><ele>167.66666666666666</ele><time>2026-04-18T07:14:34.686Z</time></trkpt><trkpt lat="43.5649442" lon="11.4934995"><ele>167.5</ele><time>2026-04-18T07:14:35.685Z</time></trkpt><trkpt lat="43.5649274" lon="11.4933962"><ele>167.33333333333331</ele><time>2026-04-18T07:14:36.685Z</time></trkpt><trkpt lat="43.564894" lon="11.4933022"><ele>167.16666666666666</ele><time>2026-04-18T07:14:37.686Z</time></trkpt><trkpt lat="43.5648567" lon="11.4932246"><ele>167.0</ele><time>2026-04-18T07:14:38.685Z</time></trkpt><trkpt lat="43.5647678" lon="11.4931437"><ele>167.0</ele><time>2026-04-18T07:14:40.685Z</time></trkpt><trkpt lat="43.5647111" lon="11.493071"><ele>167.0</ele><time>2026-04-18T07:14:42.685Z</time></trkpt><trkpt lat="43.5646605" lon="11.4929955"><ele>167.0</ele><time>2026-04-18T07:14:46.685Z</time></trkpt><trkpt lat="43.5645773" lon="11.4929578"><ele>167.0</ele><time>2026-04-18T07:14:49.686Z</time></trkpt><trkpt lat="43.5645008" lon="11.4928598"><ele>167.0</ele><time>2026-04-18T07:14:51.685Z</time></trkpt><trkpt lat="43.5644416" lon="11.4927009"><ele>168.2</ele><time>2026-04-18T07:14:53.685Z</time></trkpt><trkpt lat="43.5644283" lon="11.4925824"><ele>169.39999999999998</ele><time>2026-04-18T07:14:54.685Z</time></trkpt><trkpt lat="43.5644279" lon="11.4924375"><ele>170.60000000000002</ele><time>2026-04-18T07:14:55.686Z</time></trkpt><trkpt lat="43.5644391" lon="11.4922917"><ele>171.8</ele><time>2026-04-18T07:14:56.685Z</time></trkpt><trkpt lat="43.564446" lon="11.49214"><ele>173.0</ele><time>2026-04-18T07:14:57.685Z</time></trkpt><trkpt lat="43.564455" lon="11.4920014"><ele>173.83333333333331</ele><time>2026-04-18T07:14:58.686Z</time></trkpt><trkpt lat="43.5644558" lon="11.491871"><ele>174.66666666666666</ele><time>2026-04-18T07:14:59.685Z</time></trkpt><trkpt lat="43.5644562" lon="11.4917523"><ele>175.5</ele><time>2026-04-18T07:15:00.685Z</time></trkpt><trkpt lat="43.5644811" lon="11.4916409"><ele>176.33333333333334</ele><time>2026-04-18T07:15:01.685Z</time></trkpt><trkpt lat="43.5644835" lon="11.4915254"><ele>177.16666666666669</ele><time>2026-04-18T07:15:02.685Z</time></trkpt><trkpt lat="43.5644824" lon="11.4913979"><ele>178.0</ele><time>2026-04-18T07:15:03.685Z</time></trkpt><trkpt lat="43.5644833" lon="11.4912767"><ele>178.83333333333334</ele><time>2026-04-18T07:15:04.685Z</time></trkpt><trkpt lat="43.5644729" lon="11.4911405"><ele>179.66666666666669</ele><time>2026-04-18T07:15:05.685Z</time></trkpt><trkpt lat="43.5644536" lon="11.4910172"><ele>180.5</ele><time>2026-04-18T07:15:06.686Z</time></trkpt><trkpt lat="43.5644466" lon="11.490898"><ele>181.33333333333334</ele><time>2026-04-18T07:15:07.685Z</time></trkpt><trkpt lat="43.5644525" lon="11.4907782"><ele>182.16666666666666</ele><time>2026-04-18T07:15:08.685Z</time></trkpt><trkpt lat="43.5644663" lon="11.4906765"><ele>183.0</ele><time>2026-04-18T07:15:09.685Z</time></trkpt><trkpt lat="43.5644977" lon="11.4905901"><ele>186.83333333333334</ele><time>2026-04-18T07:15:10.685Z</time></trkpt><trkpt lat="43.5645416" lon="11.4905264"><ele>190.66666666666669</ele><time>2026-04-18T07:15:11.685Z</time></trkpt><trkpt lat="43.5645864" lon="11.4904626"><ele>194.5</ele><time>2026-04-18T07:15:12.685Z</time></trkpt><trkpt lat="43.5646983" lon="11.4904059"><ele>198.33333333333334</ele><time>2026-04-18T07:15:14.685Z</time></trkpt><trkpt lat="43.5647714" lon="11.4904271"><ele>202.16666666666669</ele><time>2026-04-18T07:15:15.685Z</time></trkpt><trkpt lat="43.5648398" lon="11.4904404"><ele>206.0</ele><time>2026-04-18T07:15:16.685Z</time></trkpt><trkpt lat="43.5649251" lon="11.490418"><ele>207.50000000000003</ele><time>2026-04-18T07:15:18.685Z</time></trkpt><trkpt lat="43.564932" lon="11.4903247"><ele>209.0</ele><time>2026-04-18T07:15:20.685Z</time></trkpt><trkpt lat="43.5648947" lon="11.4901682"><ele>210.5</ele><time>2026-04-18T07:15:22.685Z</time></trkpt><trkpt lat="43.5648584" lon="11.4900769"><ele>212.0</ele><time>2026-04-18T07:15:23.685Z</time></trkpt><trkpt lat="43.564802" lon="11.4899704"><ele>213.50000000000003</ele><time>2026-04-18T07:15:24.685Z</time></trkpt><trkpt lat="43.5647511" lon="11.489871"><ele>215.0</ele><time>2026-04-18T07:15:25.685Z</time></trkpt><trkpt lat="43.5647107" lon="11.4897757"><ele>215.00000000000003</ele><time>2026-04-18T07:15:26.686Z</time></trkpt><trkpt lat="43.5646792" lon="11.4896659"><ele>215.0</ele><time>2026-04-18T07:15:27.686Z</time></trkpt><trkpt lat="43.5646609" lon="11.4895548"><ele>215.0</ele><time>2026-04-18T07:15:28.685Z</time></trkpt><trkpt lat="43.5646574" lon="11.4894516"><ele>215.0</ele><time>2026-04-18T07:15:29.685Z</time></trkpt><trkpt lat="43.5646666" lon="11.4893435"><ele>215.00000000000003</ele><time>2026-04-18T07:15:30.685Z</time></trkpt><trkpt lat="43.5646854" lon="11.4892446"><ele>215.0</ele><time>2026-04-18T07:15:31.686Z</time></trkpt><trkpt lat="43.5647104" lon="11.4891599"><ele>215.4</ele><time>2026-04-18T07:15:32.685Z</time></trkpt><trkpt lat="43.564719" lon="11.4890681"><ele>215.8</ele><time>2026-04-18T07:15:33.686Z</time></trkpt><trkpt lat="43.5646808" lon="11.4888917"><ele>216.2</ele><time>2026-04-18T07:15:35.685Z</time></trkpt><trkpt lat="43.5646505" lon="11.4887841"><ele>216.6</ele><time>2026-04-18T07:15:36.685Z</time></trkpt><trkpt lat="43.5646101" lon="11.4886837"><ele>217.0</ele><time>2026-04-18T07:15:37.685Z</time></trkpt><trkpt lat="43.5645795" lon="11.488574"><ele>216.33333333333331</ele><time>2026-04-18T07:15:38.685Z</time></trkpt><trkpt lat="43.5645591" lon="11.4884657"><ele>215.66666666666666</ele><time>2026-04-18T07:15:39.685Z</time></trkpt><trkpt lat="43.5645379" lon="11.4883618"><ele>215.0</ele><time>2026-04-18T07:15:40.685Z</time></trkpt><trkpt lat="43.5645122" lon="11.4882578"><ele>214.33333333333331</ele><time>2026-04-18T07:15:41.685Z</time></trkpt><trkpt lat="43.5644896" lon="11.4881505"><ele>213.66666666666666</ele><time>2026-04-18T07:15:42.685Z</time></trkpt><trkpt lat="43.564478" lon="11.4879781"><ele>213.0</ele><time>2026-04-18T07:15:44.686Z</time></trkpt><trkpt lat="43.564539" lon="11.4878534"><ele>209.33333333333334</ele><time>2026-04-18T07:15:46.686Z</time></trkpt><trkpt lat="43.5646368" lon="11.4877633"><ele>205.66666666666666</ele><time>2026-04-18T07:15:48.685Z</time></trkpt><trkpt lat="43.5647002" lon="11.4876857"><ele>202.0</ele><time>2026-04-18T07:15:49.685Z</time></trkpt><trkpt lat="43.5647602" lon="11.4876115"><ele>198.33333333333331</ele><time>2026-04-18T07:15:50.685Z</time></trkpt><trkpt lat="43.5648174" lon="11.4875372"><ele>194.66666666666666</ele><time>2026-04-18T07:15:51.685Z</time></trkpt><trkpt lat="43.5648601" lon="11.4874703"><ele>191.0</ele><time>2026-04-18T07:15:52.685Z</time></trkpt><trkpt lat="43.5648916" lon="11.4873921"><ele>191.0</ele><time>2026-04-18T07:15:53.685Z</time></trkpt><trkpt lat="43.5648972" lon="11.4872991"><ele>191.0</ele><time>2026-04-18T07:15:54.685Z</time></trkpt><trkpt lat="43.564908" lon="11.4871995"><ele>191.0</ele><time>2026-04-18T07:15:55.685Z</time></trkpt><trkpt lat="43.5649093" lon="11.4870977"><ele>191.0</ele><time>2026-04-18T07:15:56.685Z</time></trkpt><trkpt lat="43.5648957" lon="11.4869935"><ele>191.0</ele><time>2026-04-18T07:15:57.686Z</time></trkpt><trkpt lat="43.5648817" lon="11.4868927"><ele>191.0</ele><time>2026-04-18T07:15:58.685Z</time></trkpt><trkpt lat="43.5648649" lon="11.4868044"><ele>191.0</ele><time>2026-04-18T07:15:59.685Z</time></trkpt><trkpt lat="43.5648332" lon="11.4867088"><ele>189.5</ele><time>2026-04-18T07:16:00.685Z</time></trkpt><trkpt lat="43.5648144" lon="11.4866216"><ele>188.0</ele><time>2026-04-18T07:16:01.685Z</time></trkpt><trkpt lat="43.564804" lon="11.4865335"><ele>186.5</ele><time>2026-04-18T07:16:02.685Z</time></trkpt><trkpt lat="43.5648325" lon="11.4863522"><ele>185.0</ele><time>2026-04-18T07:16:04.685Z</time></trkpt><trkpt lat="43.5648595" lon="11.4862672"><ele>183.5</ele><time>2026-04-18T07:16:05.685Z</time></trkpt><trkpt lat="43.564891" lon="11.4861843"><ele>182.0</ele><time>2026-04-18T07:16:06.685Z</time></trkpt><trkpt lat="43.5649104" lon="11.4860335"><ele>180.5</ele><time>2026-04-18T07:16:08.685Z</time></trkpt><trkpt lat="43.564863" lon="11.4859151"><ele>179.0</ele><time>2026-04-18T07:16:10.686Z</time></trkpt><trkpt lat="43.5647951" lon="11.4858944"><ele>177.5</ele><time>2026-04-18T07:16:11.685Z</time></trkpt><trkpt lat="43.5647315" lon="11.4858948"><ele>176.0</ele><time>2026-04-18T07:16:12.685Z</time></trkpt><trkpt lat="43.5646083" lon="11.4859535"><ele>174.5</ele><time>2026-04-18T07:16:14.686Z</time></trkpt><trkpt lat="43.5645528" lon="11.4860003"><ele>173.0</ele><time>2026-04-18T07:16:15.686Z</time></trkpt><trkpt lat="43.5644534" lon="11.4860763"><ele>173.0</ele><time>2026-04-18T07:16:17.685Z</time></trkpt><trkpt lat="43.5643665" lon="11.4860956"><ele>173.0</ele><time>2026-04-18T07:16:19.685Z</time></trkpt><trkpt lat="43.5642895" lon="11.4860593"><ele>173.0</ele><time>2026-04-18T07:16:21.686Z</time></trkpt><trkpt lat="43.5642361" lon="11.4859962"><ele>173.0</ele><time>2026-04-18T07:16:24.685Z</time></trkpt><trkpt lat="43.5642303" lon="11.4858751"><ele>173.0</ele><time>2026-04-18T07:16:27.686Z</time></trkpt><trkpt lat="43.5642219" lon="11.4857851"><ele>173.0</ele><time>2026-04-18T07:16:28.685Z</time></trkpt><trkpt lat="43.5642126" lon="11.4856932"><ele>173.0</ele><time>2026-04-18T07:16:29.686Z</time></trkpt><trkpt lat="43.5642048" lon="11.4855891"><ele>173.0</ele><time>2026-04-18T07:16:30.685Z</time></trkpt><trkpt lat="43.5641889" lon="11.4854783"><ele>173.0</ele><time>2026-04-18T07:16:31.685Z</time></trkpt><trkpt lat="43.564177" lon="11.4853643"><ele>173.0</ele><time>2026-04-18T07:16:32.685Z</time></trkpt><trkpt lat="43.5641647" lon="11.4852501"><ele>173.0</ele><time>2026-04-18T07:16:33.685Z</time></trkpt><trkpt lat="43.5641525" lon="11.4851219"><ele>173.0</ele><time>2026-04-18T07:16:34.685Z</time></trkpt><trkpt lat="43.5641191" lon="11.4849898"><ele>170.4</ele><time>2026-04-18T07:16:35.685Z</time></trkpt><trkpt lat="43.5640908" lon="11.4848485"><ele>167.8</ele><time>2026-04-18T07:16:36.685Z</time></trkpt><trkpt lat="43.5640619" lon="11.4847144"><ele>165.2</ele><time>2026-04-18T07:16:37.685Z</time></trkpt><trkpt lat="43.5640372" lon="11.4845761"><ele>162.6</ele><time>2026-04-18T07:16:38.685Z</time></trkpt><trkpt lat="43.5640143" lon="11.4844511"><ele>160.0</ele><time>2026-04-18T07:16:39.685Z</time></trkpt><trkpt lat="43.564013" lon="11.4843555"><ele>159.4</ele><time>2026-04-18T07:16:40.686Z</time></trkpt><trkpt lat="43.564047" lon="11.4841869"><ele>158.8</ele><time>2026-04-18T07:16:42.685Z</time></trkpt><trkpt lat="43.5640854" lon="11.4840669"><ele>158.2</ele><time>2026-04-18T07:16:44.685Z</time></trkpt><trkpt lat="43.5641263" lon="11.4839814"><ele>157.6</ele><time>2026-04-18T07:16:46.685Z</time></trkpt><trkpt lat="43.564165" lon="11.4838824"><ele>157.0</ele><time>2026-04-18T07:16:49.686Z</time></trkpt><trkpt lat="43.5641688" lon="11.4837668"><ele>156.7142857142857</ele><time>2026-04-18T07:16:51.685Z</time></trkpt><trkpt lat="43.5641719" lon="11.4836578"><ele>156.42857142857142</ele><time>2026-04-18T07:16:53.685Z</time></trkpt><trkpt lat="43.564154" lon="11.4835632"><ele>156.14285714285714</ele><time>2026-04-18T07:16:55.685Z</time></trkpt><trkpt lat="43.5641451" lon="11.4834623"><ele>155.85714285714283</ele><time>2026-04-18T07:16:57.685Z</time></trkpt><trkpt lat="43.5641398" lon="11.4833475"><ele>155.57142857142856</ele><time>2026-04-18T07:16:59.686Z</time></trkpt><trkpt lat="43.5641458" lon="11.4832562"><ele>155.28571428571428</ele><time>2026-04-18T07:17:01.685Z</time></trkpt><trkpt lat="43.5641482" lon="11.4831601"><ele>155.0</ele><time>2026-04-18T07:17:03.685Z</time></trkpt><trkpt lat="43.5641476" lon="11.4830619"><ele>155.0</ele><time>2026-04-18T07:17:06.685Z</time></trkpt><trkpt lat="43.5641369" lon="11.4829639"><ele>155.0</ele><time>2026-04-18T07:17:09.685Z</time></trkpt><trkpt lat="43.5641565" lon="11.4828808"><ele>155.0</ele><time>2026-04-18T07:18:17.686Z</time></trkpt><trkpt lat="43.5641568" lon="11.4827608"><ele>155.0</ele><time>2026-04-18T07:18:19.685Z</time></trkpt><trkpt lat="43.5641687" lon="11.4826206"><ele>155.0</ele><time>2026-04-18T07:18:21.685Z</time></trkpt><trkpt lat="43.5641717" lon="11.4824673"><ele>155.0</ele><time>2026-04-18T07:18:23.685Z</time></trkpt><trkpt lat="43.5641838" lon="11.4823197"><ele>154.0</ele><time>2026-04-18T07:18:25.685Z</time></trkpt><trkpt lat="43.5641936" lon="11.4821902"><ele>153.0</ele><time>2026-04-18T07:18:27.686Z</time></trkpt><trkpt lat="43.5642085" lon="11.4820913"><ele>152.0</ele><time>2026-04-18T07:18:38.685Z</time></trkpt><trkpt lat="43.5642234" lon="11.4819568"><ele>151.0</ele><time>2026-04-18T07:18:40.685Z</time></trkpt><trkpt lat="43.5642835" lon="11.4818309"><ele>150.0</ele><time>2026-04-18T07:18:42.685Z</time></trkpt><trkpt lat="43.564326" lon="11.4817657"><ele>149.0</ele><time>2026-04-18T07:18:43.686Z</time></trkpt><trkpt lat="43.5643641" lon="11.4816151"><ele>148.4</ele><time>2026-04-18T07:18:45.686Z</time></trkpt><trkpt lat="43.564327" lon="11.4814533"><ele>147.8</ele><time>2026-04-18T07:18:47.685Z</time></trkpt><trkpt lat="43.5642796" lon="11.4813831"><ele>147.2</ele><time>2026-04-18T07:18:48.685Z</time></trkpt><trkpt lat="43.5642146" lon="11.4813093"><ele>146.6</ele><time>2026-04-18T07:18:49.685Z</time></trkpt><trkpt lat="43.5641282" lon="11.481217"><ele>146.0</ele><time>2026-04-18T07:18:50.685Z</time></trkpt><trkpt lat="43.5640448" lon="11.4811107"><ele>145.75</ele><time>2026-04-18T07:18:51.685Z</time></trkpt><trkpt lat="43.5639527" lon="11.4809809"><ele>145.5</ele><time>2026-04-18T07:18:52.685Z</time></trkpt><trkpt lat="43.5638644" lon="11.4808343"><ele>145.25</ele><time>2026-04-18T07:18:53.685Z</time></trkpt><trkpt lat="43.5637909" lon="11.4806805"><ele>145.0</ele><time>2026-04-18T07:18:54.686Z</time></trkpt><trkpt lat="43.5637166" lon="11.4805237"><ele>145.25</ele><time>2026-04-18T07:18:55.686Z</time></trkpt><trkpt lat="43.563641" lon="11.4803624"><ele>145.5</ele><time>2026-04-18T07:18:56.685Z</time></trkpt><trkpt lat="43.5635629" lon="11.4801933"><ele>145.75</ele><time>2026-04-18T07:18:57.685Z</time></trkpt><trkpt lat="43.5634883" lon="11.4800211"><ele>146.0</ele><time>2026-04-18T07:18:58.686Z</time></trkpt><trkpt lat="43.5634185" lon="11.4798354"><ele>146.0</ele><time>2026-04-18T07:18:59.685Z</time></trkpt><trkpt lat="43.5633441" lon="11.47964"><ele>146.0</ele><time>2026-04-18T07:19:00.686Z</time></trkpt><trkpt lat="43.5632668" lon="11.4794506"><ele>146.0</ele><time>2026-04-18T07:19:01.685Z</time></trkpt><trkpt lat="43.5631938" lon="11.4792647"><ele>146.33333333333331</ele><time>2026-04-18T07:19:02.686Z</time></trkpt><trkpt lat="43.5631215" lon="11.4790809"><ele>146.66666666666666</ele><time>2026-04-18T07:19:03.685Z</time></trkpt><trkpt lat="43.563049" lon="11.478897"><ele>147.0</ele><time>2026-04-18T07:19:04.685Z</time></trkpt><trkpt lat="43.5629793" lon="11.4787186"><ele>147.66666666666666</ele><time>2026-04-18T07:19:05.685Z</time></trkpt><trkpt lat="43.5629135" lon="11.4785442"><ele>148.33333333333331</ele><time>2026-04-18T07:19:06.685Z</time></trkpt><trkpt lat="43.5628611" lon="11.4783471"><ele>149.0</ele><time>2026-04-18T07:19:07.685Z</time></trkpt><trkpt lat="43.5628204" lon="11.478137"><ele>149.33333333333331</ele><time>2026-04-18T07:19:08.685Z</time></trkpt><trkpt lat="43.5627833" lon="11.4779201"><ele>149.66666666666666</ele><time>2026-04-18T07:19:09.685Z</time></trkpt><trkpt lat="43.5627563" lon="11.4776901"><ele>150.0</ele><time>2026-04-18T07:19:10.685Z</time></trkpt><trkpt lat="43.5627458" lon="11.4774498"><ele>150.0</ele><time>2026-04-18T07:19:11.685Z</time></trkpt><trkpt lat="43.5627531" lon="11.4771969"><ele>150.0</ele><time>2026-04-18T07:19:12.685Z</time></trkpt><trkpt lat="43.562774" lon="11.4769413"><ele>150.0</ele><time>2026-04-18T07:19:13.686Z</time></trkpt><trkpt lat="43.562807" lon="11.4766732"><ele>150.66666666666666</ele><time>2026-04-18T07:19:14.685Z</time></trkpt><trkpt lat="43.56284" lon="11.4764121"><ele>151.33333333333331</ele><time>2026-04-18T07:19:15.685Z</time></trkpt><trkpt lat="43.5628783" lon="11.4761464"><ele>152.0</ele><time>2026-04-18T07:19:16.685Z</time></trkpt><trkpt lat="43.5629114" lon="11.4758807"><ele>151.0</ele><time>2026-04-18T07:19:17.686Z</time></trkpt><trkpt lat="43.5629475" lon="11.4756076"><ele>150.0</ele><time>2026-04-18T07:19:18.685Z</time></trkpt><trkpt lat="43.5629838" lon="11.4753396"><ele>149.0</ele><time>2026-04-18T07:19:19.686Z</time></trkpt><trkpt lat="43.5630166" lon="11.4750745"><ele>149.0</ele><time>2026-04-18T07:19:20.685Z</time></trkpt><trkpt lat="43.563047" lon="11.4748158"><ele>149.0</ele><time>2026-04-18T07:19:21.685Z</time></trkpt><trkpt lat="43.563071" lon="11.4745768"><ele>149.0</ele><time>2026-04-18T07:19:22.685Z</time></trkpt><trkpt lat="43.5630912" lon="11.4743439"><ele>150.0</ele><time>2026-04-18T07:19:23.686Z</time></trkpt><trkpt lat="43.563112" lon="11.474109"><ele>151.0</ele><time>2026-04-18T07:19:24.685Z</time></trkpt><trkpt lat="43.5631351" lon="11.4738794"><ele>152.0</ele><time>2026-04-18T07:19:25.686Z</time></trkpt><trkpt lat="43.563168" lon="11.4736511"><ele>152.0</ele><time>2026-04-18T07:19:26.685Z</time></trkpt><trkpt lat="43.5631887" lon="11.4734244"><ele>152.0</ele><time>2026-04-18T07:19:27.686Z</time></trkpt><trkpt lat="43.563182" lon="11.4731823"><ele>152.0</ele><time>2026-04-18T07:19:28.685Z</time></trkpt><trkpt lat="43.5631578" lon="11.4729432"><ele>152.66666666666666</ele><time>2026-04-18T07:19:29.685Z</time></trkpt><trkpt lat="43.5631073" lon="11.4727025"><ele>153.33333333333334</ele><time>2026-04-18T07:19:30.685Z</time></trkpt><trkpt lat="43.5630535" lon="11.4724793"><ele>154.0</ele><time>2026-04-18T07:19:31.685Z</time></trkpt><trkpt lat="43.5629854" lon="11.4722465"><ele>154.0</ele><time>2026-04-18T07:19:32.685Z</time></trkpt><trkpt lat="43.5629122" lon="11.4720188"><ele>154.0</ele><time>2026-04-18T07:19:33.685Z</time></trkpt><trkpt lat="43.5628429" lon="11.4717821"><ele>154.0</ele><time>2026-04-18T07:19:34.685Z</time></trkpt><trkpt lat="43.5627774" lon="11.4715514"><ele>154.0</ele><time>2026-04-18T07:19:35.685Z</time></trkpt><trkpt lat="43.5627132" lon="11.4713101"><ele>154.0</ele><time>2026-04-18T07:19:36.685Z</time></trkpt><trkpt lat="43.5626512" lon="11.4710768"><ele>154.0</ele><time>2026-04-18T07:19:37.685Z</time></trkpt><trkpt lat="43.562591" lon="11.4708405"><ele>154.0</ele><time>2026-04-18T07:19:38.685Z</time></trkpt><trkpt lat="43.5625281" lon="11.4706036"><ele>154.0</ele><time>2026-04-18T07:19:39.685Z</time></trkpt><trkpt lat="43.562463" lon="11.4703688"><ele>154.0</ele><time>2026-04-18T07:19:40.685Z</time></trkpt><trkpt lat="43.5623945" lon="11.4701317"><ele>154.66666666666669</ele><time>2026-04-18T07:19:41.685Z</time></trkpt><trkpt lat="43.5623149" lon="11.4699003"><ele>155.33333333333334</ele><time>2026-04-18T07:19:42.686Z</time></trkpt><trkpt lat="43.5622341" lon="11.4696698"><ele>156.0</ele><time>2026-04-18T07:19:43.685Z</time></trkpt><trkpt lat="43.5621489" lon="11.4694481"><ele>156.0</ele><time>2026-04-18T07:19:44.685Z</time></trkpt><trkpt lat="43.5620715" lon="11.4692324"><ele>156.0</ele><time>2026-04-18T07:19:45.685Z</time></trkpt><trkpt lat="43.5619977" lon="11.4690211"><ele>156.0</ele><time>2026-04-18T07:19:46.685Z</time></trkpt><trkpt lat="43.5619193" lon="11.468814"><ele>157.0</ele><time>2026-04-18T07:19:47.685Z</time></trkpt><trkpt lat="43.56184" lon="11.4686033"><ele>158.0</ele><time>2026-04-18T07:19:48.685Z</time></trkpt><trkpt lat="43.5617526" lon="11.4683882"><ele>159.0</ele><time>2026-04-18T07:19:49.685Z</time></trkpt><trkpt lat="43.5616832" lon="11.4681674"><ele>159.0</ele><time>2026-04-18T07:19:50.685Z</time></trkpt><trkpt lat="43.5616295" lon="11.4679478"><ele>159.0</ele><time>2026-04-18T07:19:51.685Z</time></trkpt><trkpt lat="43.5615838" lon="11.4677206"><ele>159.0</ele><time>2026-04-18T07:19:52.685Z</time></trkpt><trkpt lat="43.5615306" lon="11.4674834"><ele>159.33333333333334</ele><time>2026-04-18T07:19:53.685Z</time></trkpt><trkpt lat="43.5614803" lon="11.4672625"><ele>159.66666666666669</ele><time>2026-04-18T07:19:54.686Z</time></trkpt><trkpt lat="43.5614268" lon="11.4670317"><ele>160.0</ele><time>2026-04-18T07:19:55.685Z</time></trkpt><trkpt lat="43.5613683" lon="11.4667984"><ele>160.33333333333334</ele><time>2026-04-18T07:19:56.686Z</time></trkpt><trkpt lat="43.5613081" lon="11.4665674"><ele>160.66666666666666</ele><time>2026-04-18T07:19:57.685Z</time></trkpt><trkpt lat="43.5612552" lon="11.4663392"><ele>161.0</ele><time>2026-04-18T07:19:58.685Z</time></trkpt><trkpt lat="43.5612174" lon="11.466104"><ele>160.66666666666666</ele><time>2026-04-18T07:19:59.686Z</time></trkpt><trkpt lat="43.5611878" lon="11.4658649"><ele>160.33333333333334</ele><time>2026-04-18T07:20:00.685Z</time></trkpt><trkpt lat="43.5611838" lon="11.465631"><ele>160.0</ele><time>2026-04-18T07:20:01.685Z</time></trkpt><trkpt lat="43.5611836" lon="11.4653971"><ele>160.66666666666669</ele><time>2026-04-18T07:20:02.685Z</time></trkpt><trkpt lat="43.5611947" lon="11.465159"><ele>161.33333333333334</ele><time>2026-04-18T07:20:03.685Z</time></trkpt><trkpt lat="43.5612141" lon="11.4649231"><ele>162.0</ele><time>2026-04-18T07:20:04.686Z</time></trkpt><trkpt lat="43.5612421" lon="11.4646832"><ele>162.66666666666666</ele><time>2026-04-18T07:20:05.686Z</time></trkpt><trkpt lat="43.5612794" lon="11.464439"><ele>163.33333333333331</ele><time>2026-04-18T07:20:06.685Z</time></trkpt><trkpt lat="43.5613109" lon="11.4641941"><ele>164.0</ele><time>2026-04-18T07:20:07.685Z</time></trkpt><trkpt lat="43.5613404" lon="11.4639474"><ele>164.66666666666666</ele><time>2026-04-18T07:20:08.685Z</time></trkpt><trkpt lat="43.5613662" lon="11.4636961"><ele>165.33333333333334</ele><time>2026-04-18T07:20:09.686Z</time></trkpt><trkpt lat="43.5613927" lon="11.4634395"><ele>166.0</ele><time>2026-04-18T07:20:10.685Z</time></trkpt><trkpt lat="43.5614148" lon="11.4631953"><ele>167.0</ele><time>2026-04-18T07:20:11.685Z</time></trkpt><trkpt lat="43.5614383" lon="11.4629433"><ele>168.0</ele><time>2026-04-18T07:20:12.685Z</time></trkpt><trkpt lat="43.5614581" lon="11.4626873"><ele>169.0</ele><time>2026-04-18T07:20:13.685Z</time></trkpt><trkpt lat="43.5614598" lon="11.462431"><ele>169.0</ele><time>2026-04-18T07:20:14.685Z</time></trkpt><trkpt lat="43.5614434" lon="11.4621756"><ele>169.0</ele><time>2026-04-18T07:20:15.685Z</time></trkpt><trkpt lat="43.5614165" lon="11.4619314"><ele>169.0</ele><time>2026-04-18T07:20:16.685Z</time></trkpt><trkpt lat="43.5613847" lon="11.4616856"><ele>170.0</ele><time>2026-04-18T07:20:17.685Z</time></trkpt><trkpt lat="43.5613425" lon="11.4614366"><ele>171.0</ele><time>2026-04-18T07:20:18.685Z</time></trkpt><trkpt lat="43.5612908" lon="11.4611865"><ele>172.0</ele><time>2026-04-18T07:20:19.685Z</time></trkpt><trkpt lat="43.5612346" lon="11.460943"><ele>173.33333333333334</ele><time>2026-04-18T07:20:20.685Z</time></trkpt><trkpt lat="43.561191" lon="11.4606865"><ele>174.66666666666666</ele><time>2026-04-18T07:20:21.686Z</time></trkpt><trkpt lat="43.5611411" lon="11.460433"><ele>176.0</ele><time>2026-04-18T07:20:22.686Z</time></trkpt><trkpt lat="43.5610899" lon="11.4601871"><ele>177.33333333333331</ele><time>2026-04-18T07:20:23.686Z</time></trkpt><trkpt lat="43.5610423" lon="11.4599413"><ele>178.66666666666666</ele><time>2026-04-18T07:20:24.685Z</time></trkpt><trkpt lat="43.5609933" lon="11.459704"><ele>180.0</ele><time>2026-04-18T07:20:25.685Z</time></trkpt><trkpt lat="43.5609457" lon="11.4594654"><ele>181.33333333333334</ele><time>2026-04-18T07:20:26.685Z</time></trkpt><trkpt lat="43.5608988" lon="11.4592263"><ele>182.66666666666669</ele><time>2026-04-18T07:20:27.685Z</time></trkpt><trkpt lat="43.5608539" lon="11.4589905"><ele>184.0</ele><time>2026-04-18T07:20:28.685Z</time></trkpt><trkpt lat="43.5608065" lon="11.4587532"><ele>184.0</ele><time>2026-04-18T07:20:29.685Z</time></trkpt><trkpt lat="43.5607582" lon="11.4585172"><ele>184.0</ele><time>2026-04-18T07:20:30.685Z</time></trkpt><trkpt lat="43.5607041" lon="11.4582869"><ele>184.0</ele><time>2026-04-18T07:20:31.686Z</time></trkpt><trkpt lat="43.5606527" lon="11.4580405"><ele>184.0</ele><time>2026-04-18T07:20:32.685Z</time></trkpt><trkpt lat="43.5606022" lon="11.4577767"><ele>184.0</ele><time>2026-04-18T07:20:33.685Z</time></trkpt><trkpt lat="43.5605528" lon="11.4575146"><ele>184.0</ele><time>2026-04-18T07:20:34.685Z</time></trkpt><trkpt lat="43.5605001" lon="11.4572471"><ele>185.0</ele><time>2026-04-18T07:20:35.685Z</time></trkpt><trkpt lat="43.5604505" lon="11.4569683"><ele>186.0</ele><time>2026-04-18T07:20:36.685Z</time></trkpt><trkpt lat="43.5603924" lon="11.4566887"><ele>187.0</ele><time>2026-04-18T07:20:37.686Z</time></trkpt><trkpt lat="43.5603421" lon="11.4564044"><ele>185.0</ele><time>2026-04-18T07:20:38.685Z</time></trkpt><trkpt lat="43.5602889" lon="11.4561392"><ele>183.0</ele><time>2026-04-18T07:20:39.685Z</time></trkpt><trkpt lat="43.5602416" lon="11.4558905"><ele>181.0</ele><time>2026-04-18T07:20:40.685Z</time></trkpt><trkpt lat="43.5601947" lon="11.455651"><ele>182.33333333333334</ele><time>2026-04-18T07:20:41.686Z</time></trkpt><trkpt lat="43.560139" lon="11.4554093"><ele>183.66666666666666</ele><time>2026-04-18T07:20:42.685Z</time></trkpt><trkpt lat="43.5600824" lon="11.4551672"><ele>185.0</ele><time>2026-04-18T07:20:43.685Z</time></trkpt><trkpt lat="43.5600178" lon="11.4549257"><ele>185.0</ele><time>2026-04-18T07:20:44.686Z</time></trkpt><trkpt lat="43.5599473" lon="11.4547023"><ele>185.0</ele><time>2026-04-18T07:20:45.686Z</time></trkpt><trkpt lat="43.5598569" lon="11.4544842"><ele>185.0</ele><time>2026-04-18T07:20:46.685Z</time></trkpt><trkpt lat="43.5597501" lon="11.4542741"><ele>184.66666666666666</ele><time>2026-04-18T07:20:47.685Z</time></trkpt><trkpt lat="43.5596332" lon="11.4540796"><ele>184.33333333333334</ele><time>2026-04-18T07:20:48.685Z</time></trkpt><trkpt lat="43.5595149" lon="11.4538785"><ele>184.0</ele><time>2026-04-18T07:20:49.685Z</time></trkpt><trkpt lat="43.5593856" lon="11.4536809"><ele>185.0</ele><time>2026-04-18T07:20:50.686Z</time></trkpt><trkpt lat="43.5592589" lon="11.4534793"><ele>186.0</ele><time>2026-04-18T07:20:51.686Z</time></trkpt><trkpt lat="43.5591462" lon="11.4532958"><ele>187.0</ele><time>2026-04-18T07:20:52.686Z</time></trkpt><trkpt lat="43.5590359" lon="11.4531236"><ele>187.0</ele><time>2026-04-18T07:20:53.686Z</time></trkpt><trkpt lat="43.5589319" lon="11.4529566"><ele>187.0</ele><time>2026-04-18T07:20:54.685Z</time></trkpt><trkpt lat="43.558834" lon="11.4527956"><ele>187.0</ele><time>2026-04-18T07:20:55.685Z</time></trkpt><trkpt lat="43.5587334" lon="11.4526337"><ele>188.0</ele><time>2026-04-18T07:20:56.685Z</time></trkpt><trkpt lat="43.5586324" lon="11.4524755"><ele>189.0</ele><time>2026-04-18T07:20:57.686Z</time></trkpt><trkpt lat="43.5585265" lon="11.4523257"><ele>190.0</ele><time>2026-04-18T07:20:58.685Z</time></trkpt><trkpt lat="43.5584124" lon="11.4521804"><ele>189.33333333333334</ele><time>2026-04-18T07:20:59.686Z</time></trkpt><trkpt lat="43.5582784" lon="11.4520523"><ele>188.66666666666666</ele><time>2026-04-18T07:21:00.685Z</time></trkpt><trkpt lat="43.5581307" lon="11.4519436"><ele>188.0</ele><time>2026-04-18T07:21:01.685Z</time></trkpt><trkpt lat="43.5579717" lon="11.4518458"><ele>188.33333333333331</ele><time>2026-04-18T07:21:02.685Z</time></trkpt><trkpt lat="43.5577944" lon="11.4517813"><ele>188.66666666666666</ele><time>2026-04-18T07:21:03.686Z</time></trkpt><trkpt lat="43.5576124" lon="11.4517501"><ele>189.0</ele><time>2026-04-18T07:21:04.686Z</time></trkpt><trkpt lat="43.5574321" lon="11.4517413"><ele>189.0</ele><time>2026-04-18T07:21:05.685Z</time></trkpt><trkpt lat="43.5572499" lon="11.4517672"><ele>189.0</ele><time>2026-04-18T07:21:06.686Z</time></trkpt><trkpt lat="43.5570752" lon="11.4518347"><ele>189.0</ele><time>2026-04-18T07:21:07.685Z</time></trkpt><trkpt lat="43.5568955" lon="11.4518962"><ele>188.66666666666666</ele><time>2026-04-18T07:21:08.686Z</time></trkpt><trkpt lat="43.5567092" lon="11.4519406"><ele>188.33333333333331</ele><time>2026-04-18T07:21:09.686Z</time></trkpt><trkpt lat="43.5565156" lon="11.4519405"><ele>188.0</ele><time>2026-04-18T07:21:10.686Z</time></trkpt><trkpt lat="43.5563198" lon="11.4519071"><ele>187.66666666666666</ele><time>2026-04-18T07:21:11.686Z</time></trkpt><trkpt lat="43.5561189" lon="11.4518474"><ele>187.33333333333334</ele><time>2026-04-18T07:21:12.686Z</time></trkpt><trkpt lat="43.5559336" lon="11.4517663"><ele>187.0</ele><time>2026-04-18T07:21:13.686Z</time></trkpt><trkpt lat="43.5557556" lon="11.4516622"><ele>187.0</ele><time>2026-04-18T07:21:14.687Z</time></trkpt><trkpt lat="43.5555773" lon="11.4515479"><ele>187.0</ele><time>2026-04-18T07:21:15.687Z</time></trkpt><trkpt lat="43.5554051" lon="11.4514432"><ele>187.0</ele><time>2026-04-18T07:21:16.687Z</time></trkpt><trkpt lat="43.5552413" lon="11.4513491"><ele>186.66666666666669</ele><time>2026-04-18T07:21:17.687Z</time></trkpt><trkpt lat="43.555075" lon="11.4512548"><ele>186.33333333333334</ele><time>2026-04-18T07:21:18.686Z</time></trkpt><trkpt lat="43.5549138" lon="11.4511564"><ele>186.0</ele><time>2026-04-18T07:21:19.686Z</time></trkpt><trkpt lat="43.5547578" lon="11.4510567"><ele>186.0</ele><time>2026-04-18T07:21:20.686Z</time></trkpt><trkpt lat="43.5545988" lon="11.4509565"><ele>186.0</ele><time>2026-04-18T07:21:21.686Z</time></trkpt><trkpt lat="43.5544394" lon="11.450858"><ele>186.0</ele><time>2026-04-18T07:21:22.686Z</time></trkpt><trkpt lat="43.5542787" lon="11.450762"><ele>187.66666666666666</ele><time>2026-04-18T07:21:23.686Z</time></trkpt><trkpt lat="43.5541155" lon="11.4506855"><ele>189.33333333333331</ele><time>2026-04-18T07:21:24.686Z</time></trkpt><trkpt lat="43.553941" lon="11.4506316"><ele>191.0</ele><time>2026-04-18T07:21:25.686Z</time></trkpt><trkpt lat="43.5537698" lon="11.450604"><ele>192.66666666666666</ele><time>2026-04-18T07:21:26.686Z</time></trkpt><trkpt lat="43.5535829" lon="11.4506002"><ele>194.33333333333331</ele><time>2026-04-18T07:21:27.687Z</time></trkpt><trkpt lat="43.5534113" lon="11.450637"><ele>196.0</ele><time>2026-04-18T07:21:28.686Z</time></trkpt><trkpt lat="43.5532339" lon="11.4506902"><ele>196.0</ele><time>2026-04-18T07:21:29.687Z</time></trkpt><trkpt lat="43.5530666" lon="11.4507664"><ele>196.0</ele><time>2026-04-18T07:21:30.686Z</time></trkpt><trkpt lat="43.5529111" lon="11.4508792"><ele>196.0</ele><time>2026-04-18T07:21:31.686Z</time></trkpt><trkpt lat="43.5527783" lon="11.4510135"><ele>196.66666666666666</ele><time>2026-04-18T07:21:32.687Z</time></trkpt><trkpt lat="43.5526541" lon="11.4511507"><ele>197.33333333333331</ele><time>2026-04-18T07:21:33.686Z</time></trkpt><trkpt lat="43.5525321" lon="11.4512905"><ele>198.0</ele><time>2026-04-18T07:21:34.686Z</time></trkpt><trkpt lat="43.5524092" lon="11.45143"><ele>198.0</ele><time>2026-04-18T07:21:35.686Z</time></trkpt><trkpt lat="43.5522838" lon="11.4515683"><ele>198.0</ele><time>2026-04-18T07:21:36.686Z</time></trkpt><trkpt lat="43.5521579" lon="11.4517102"><ele>198.0</ele><time>2026-04-18T07:21:37.686Z</time></trkpt><trkpt lat="43.5520229" lon="11.4518327"><ele>199.33333333333331</ele><time>2026-04-18T07:21:38.686Z</time></trkpt><trkpt lat="43.5518824" lon="11.4519351"><ele>200.66666666666666</ele><time>2026-04-18T07:21:39.686Z</time></trkpt><trkpt lat="43.5517264" lon="11.4520115"><ele>202.0</ele><time>2026-04-18T07:21:40.686Z</time></trkpt><trkpt lat="43.5515745" lon="11.4520806"><ele>203.33333333333331</ele><time>2026-04-18T07:21:41.687Z</time></trkpt><trkpt lat="43.5514252" lon="11.452148"><ele>204.66666666666669</ele><time>2026-04-18T07:21:42.686Z</time></trkpt><trkpt lat="43.551274" lon="11.4521881"><ele>206.0</ele><time>2026-04-18T07:21:43.686Z</time></trkpt><trkpt lat="43.5511196" lon="11.4521863"><ele>206.0</ele><time>2026-04-18T07:21:44.686Z</time></trkpt><trkpt lat="43.5509646" lon="11.4521537"><ele>206.0</ele><time>2026-04-18T07:21:45.686Z</time></trkpt><trkpt lat="43.5508089" lon="11.4520905"><ele>206.0</ele><time>2026-04-18T07:21:46.687Z</time></trkpt><trkpt lat="43.5506593" lon="11.4520224"><ele>207.33333333333334</ele><time>2026-04-18T07:21:47.686Z</time></trkpt><trkpt lat="43.5505102" lon="11.451962"><ele>208.66666666666669</ele><time>2026-04-18T07:21:48.686Z</time></trkpt><trkpt lat="43.5503584" lon="11.4519033"><ele>210.0</ele><time>2026-04-18T07:21:49.687Z</time></trkpt><trkpt lat="43.5502045" lon="11.4518444"><ele>213.0</ele><time>2026-04-18T07:21:50.686Z</time></trkpt><trkpt lat="43.5500501" lon="11.4517829"><ele>216.0</ele><time>2026-04-18T07:21:51.686Z</time></trkpt><trkpt lat="43.5498951" lon="11.451712"><ele>219.0</ele><time>2026-04-18T07:21:52.686Z</time></trkpt><trkpt lat="43.5497457" lon="11.4516347"><ele>219.0</ele><time>2026-04-18T07:21:53.686Z</time></trkpt><trkpt lat="43.5495982" lon="11.4515566"><ele>219.0</ele><time>2026-04-18T07:21:54.686Z</time></trkpt><trkpt lat="43.549442" lon="11.4514859"><ele>219.0</ele><time>2026-04-18T07:21:55.686Z</time></trkpt><trkpt lat="43.5492965" lon="11.4514501"><ele>221.66666666666669</ele><time>2026-04-18T07:21:56.686Z</time></trkpt><trkpt lat="43.5491342" lon="11.4514467"><ele>224.33333333333334</ele><time>2026-04-18T07:21:57.686Z</time></trkpt><trkpt lat="43.5489698" lon="11.4514662"><ele>227.0</ele><time>2026-04-18T07:21:58.686Z</time></trkpt><trkpt lat="43.5488215" lon="11.451505"><ele>228.25</ele><time>2026-04-18T07:21:59.686Z</time></trkpt><trkpt lat="43.548669" lon="11.45156"><ele>229.5</ele><time>2026-04-18T07:22:00.686Z</time></trkpt><trkpt lat="43.548524" lon="11.4516094"><ele>230.75</ele><time>2026-04-18T07:22:01.686Z</time></trkpt><trkpt lat="43.5483873" lon="11.4516569"><ele>232.0</ele><time>2026-04-18T07:22:02.686Z</time></trkpt><trkpt lat="43.5482405" lon="11.4516969"><ele>232.0</ele><time>2026-04-18T07:22:03.686Z</time></trkpt><trkpt lat="43.5480979" lon="11.4517291"><ele>232.0</ele><time>2026-04-18T07:22:04.686Z</time></trkpt><trkpt lat="43.5479591" lon="11.451746"><ele>232.0</ele><time>2026-04-18T07:22:05.686Z</time></trkpt><trkpt lat="43.5478317" lon="11.4517518"><ele>232.0</ele><time>2026-04-18T07:22:06.686Z</time></trkpt><trkpt lat="43.5476999" lon="11.4517401"><ele>233.25</ele><time>2026-04-18T07:22:07.686Z</time></trkpt><trkpt lat="43.5475733" lon="11.4516853"><ele>234.5</ele><time>2026-04-18T07:22:08.686Z</time></trkpt><trkpt lat="43.547452" lon="11.4515988"><ele>235.75</ele><time>2026-04-18T07:22:09.686Z</time></trkpt><trkpt lat="43.5473557" lon="11.4514438"><ele>237.0</ele><time>2026-04-18T07:22:10.686Z</time></trkpt><trkpt lat="43.5472793" lon="11.4512765"><ele>237.0</ele><time>2026-04-18T07:22:11.687Z</time></trkpt><trkpt lat="43.5472175" lon="11.451085"><ele>237.0</ele><time>2026-04-18T07:22:12.686Z</time></trkpt><trkpt lat="43.5471517" lon="11.4508992"><ele>237.0</ele><time>2026-04-18T07:22:13.686Z</time></trkpt><trkpt lat="43.5470813" lon="11.4507179"><ele>241.0</ele><time>2026-04-18T07:22:14.686Z</time></trkpt><trkpt lat="43.5470038" lon="11.4505573"><ele>245.0</ele><time>2026-04-18T07:22:15.686Z</time></trkpt><trkpt lat="43.5468943" lon="11.4504262"><ele>249.0</ele><time>2026-04-18T07:22:16.686Z</time></trkpt><trkpt lat="43.5467669" lon="11.4503204"><ele>253.0</ele><time>2026-04-18T07:22:17.686Z</time></trkpt><trkpt lat="43.5466424" lon="11.4502155"><ele>253.0</ele><time>2026-04-18T07:22:18.686Z</time></trkpt><trkpt lat="43.5465159" lon="11.4501023"><ele>253.0</ele><time>2026-04-18T07:22:19.686Z</time></trkpt><trkpt lat="43.5464014" lon="11.4499653"><ele>253.0</ele><time>2026-04-18T07:22:20.686Z</time></trkpt><trkpt lat="43.546323" lon="11.4498251"><ele>253.0</ele><time>2026-04-18T07:22:21.686Z</time></trkpt><trkpt lat="43.5462354" lon="11.4496817"><ele>256.4</ele><time>2026-04-18T07:22:22.687Z</time></trkpt><trkpt lat="43.5461728" lon="11.4495472"><ele>259.8</ele><time>2026-04-18T07:22:23.686Z</time></trkpt><trkpt lat="43.5461052" lon="11.4494339"><ele>263.2</ele><time>2026-04-18T07:22:24.686Z</time></trkpt><trkpt lat="43.5460261" lon="11.4493406"><ele>266.6</ele><time>2026-04-18T07:22:25.686Z</time></trkpt><trkpt lat="43.5459227" lon="11.4493014"><ele>270.0</ele><time>2026-04-18T07:22:26.687Z</time></trkpt><trkpt lat="43.5458106" lon="11.4492834"><ele>270.0</ele><time>2026-04-18T07:22:27.686Z</time></trkpt><trkpt lat="43.5456944" lon="11.4493144"><ele>270.0</ele><time>2026-04-18T07:22:28.686Z</time></trkpt><trkpt lat="43.5455818" lon="11.4493828"><ele>270.0</ele><time>2026-04-18T07:22:29.686Z</time></trkpt><trkpt lat="43.545483" lon="11.449494"><ele>270.0</ele><time>2026-04-18T07:22:30.687Z</time></trkpt><trkpt lat="43.5454006" lon="11.4496168"><ele>271.25</ele><time>2026-04-18T07:22:31.687Z</time></trkpt><trkpt lat="43.5453395" lon="11.4497563"><ele>272.5</ele><time>2026-04-18T07:22:32.686Z</time></trkpt><trkpt lat="43.5452803" lon="11.4499106"><ele>273.75</ele><time>2026-04-18T07:22:33.686Z</time></trkpt><trkpt lat="43.5452072" lon="11.4500568"><ele>275.0</ele><time>2026-04-18T07:22:34.686Z</time></trkpt><trkpt lat="43.5451455" lon="11.4501948"><ele>275.0</ele><time>2026-04-18T07:22:35.687Z</time></trkpt><trkpt lat="43.5450941" lon="11.4503282"><ele>275.0</ele><time>2026-04-18T07:22:36.686Z</time></trkpt><trkpt lat="43.5450323" lon="11.4504534"><ele>275.0</ele><time>2026-04-18T07:22:37.687Z</time></trkpt><trkpt lat="43.5449573" lon="11.4505682"><ele>275.0</ele><time>2026-04-18T07:22:38.686Z</time></trkpt><trkpt lat="43.5448618" lon="11.4506773"><ele>273.75</ele><time>2026-04-18T07:22:39.686Z</time></trkpt><trkpt lat="43.5447615" lon="11.4507773"><ele>272.5</ele><time>2026-04-18T07:22:40.687Z</time></trkpt><trkpt lat="43.5446427" lon="11.4508704"><ele>271.25</ele><time>2026-04-18T07:22:41.687Z</time></trkpt><trkpt lat="43.5445225" lon="11.4509653"><ele>270.0</ele><time>2026-04-18T07:22:42.686Z</time></trkpt><trkpt lat="43.5443967" lon="11.4510601"><ele>267.75</ele><time>2026-04-18T07:22:43.686Z</time></trkpt><trkpt lat="43.5442716" lon="11.4511639"><ele>265.5</ele><time>2026-04-18T07:22:44.686Z</time></trkpt><trkpt lat="43.5441473" lon="11.4512648"><ele>263.25</ele><time>2026-04-18T07:22:45.686Z</time></trkpt><trkpt lat="43.5440201" lon="11.451364"><ele>261.0</ele><time>2026-04-18T07:22:46.686Z</time></trkpt><trkpt lat="43.5438931" lon="11.4514563"><ele>260.5</ele><time>2026-04-18T07:22:47.686Z</time></trkpt><trkpt lat="43.5437647" lon="11.4515512"><ele>260.0</ele><time>2026-04-18T07:22:48.686Z</time></trkpt><trkpt lat="43.5436448" lon="11.4516465"><ele>259.5</ele><time>2026-04-18T07:22:49.687Z</time></trkpt><trkpt lat="43.5435366" lon="11.4517287"><ele>259.0</ele><time>2026-04-18T07:22:50.687Z</time></trkpt><trkpt lat="43.543439" lon="11.451796"><ele>262.2</ele><time>2026-04-18T07:22:51.686Z</time></trkpt><trkpt lat="43.5433477" lon="11.4518682"><ele>265.4</ele><time>2026-04-18T07:22:52.686Z</time></trkpt><trkpt lat="43.5432559" lon="11.4519356"><ele>268.6</ele><time>2026-04-18T07:22:53.686Z</time></trkpt><trkpt lat="43.5431653" lon="11.4519852"><ele>271.8</ele><time>2026-04-18T07:22:54.686Z</time></trkpt><trkpt lat="43.5430779" lon="11.4520344"><ele>275.0</ele><time>2026-04-18T07:22:55.686Z</time></trkpt><trkpt lat="43.542994" lon="11.4520454"><ele>275.0</ele><time>2026-04-18T07:22:56.687Z</time></trkpt><trkpt lat="43.5429229" lon="11.4520055"><ele>275.0</ele><time>2026-04-18T07:22:57.686Z</time></trkpt><trkpt lat="43.5428526" lon="11.451923"><ele>275.0</ele><time>2026-04-18T07:22:58.687Z</time></trkpt><trkpt lat="43.5427866" lon="11.4518131"><ele>275.0</ele><time>2026-04-18T07:22:59.686Z</time></trkpt><trkpt lat="43.542726" lon="11.4516689"><ele>275.0</ele><time>2026-04-18T07:23:00.687Z</time></trkpt><trkpt lat="43.5426747" lon="11.4515094"><ele>277.0</ele><time>2026-04-18T07:23:01.687Z</time></trkpt><trkpt lat="43.5426279" lon="11.4513507"><ele>279.0</ele><time>2026-04-18T07:23:02.686Z</time></trkpt><trkpt lat="43.5425741" lon="11.4511987"><ele>281.0</ele><time>2026-04-18T07:23:03.686Z</time></trkpt><trkpt lat="43.5425054" lon="11.4510585"><ele>283.0</ele><time>2026-04-18T07:23:04.686Z</time></trkpt><trkpt lat="43.5424044" lon="11.4509441"><ele>283.0</ele><time>2026-04-18T07:23:05.686Z</time></trkpt><trkpt lat="43.5422916" lon="11.4508491"><ele>283.0</ele><time>2026-04-18T07:23:06.686Z</time></trkpt><trkpt lat="43.5421741" lon="11.4507419"><ele>283.0</ele><time>2026-04-18T07:23:07.686Z</time></trkpt><trkpt lat="43.5420536" lon="11.4506397"><ele>283.0</ele><time>2026-04-18T07:23:08.686Z</time></trkpt><trkpt lat="43.5419396" lon="11.4505461"><ele>285.25</ele><time>2026-04-18T07:23:09.687Z</time></trkpt><trkpt lat="43.5418194" lon="11.4504831"><ele>287.5</ele><time>2026-04-18T07:23:10.686Z</time></trkpt><trkpt lat="43.5416935" lon="11.4504222"><ele>289.75</ele><time>2026-04-18T07:23:11.686Z</time></trkpt><trkpt lat="43.5415646" lon="11.4503733"><ele>292.0</ele><time>2026-04-18T07:23:12.686Z</time></trkpt><trkpt lat="43.5414299" lon="11.4503342"><ele>292.0</ele><time>2026-04-18T07:23:13.686Z</time></trkpt><trkpt lat="43.5412902" lon="11.4503002"><ele>292.0</ele><time>2026-04-18T07:23:14.686Z</time></trkpt><trkpt lat="43.5411483" lon="11.4502772"><ele>292.0</ele><time>2026-04-18T07:23:15.687Z</time></trkpt><trkpt lat="43.5410039" lon="11.4502572"><ele>292.0</ele><time>2026-04-18T07:23:16.687Z</time></trkpt><trkpt lat="43.5408682" lon="11.4502412"><ele>293.5</ele><time>2026-04-18T07:23:17.686Z</time></trkpt><trkpt lat="43.5407559" lon="11.4502246"><ele>295.0</ele><time>2026-04-18T07:23:18.686Z</time></trkpt><trkpt lat="43.5406457" lon="11.4502033"><ele>296.5</ele><time>2026-04-18T07:23:19.686Z</time></trkpt><trkpt lat="43.540531" lon="11.4501511"><ele>298.0</ele><time>2026-04-18T07:23:20.686Z</time></trkpt><trkpt lat="43.5404204" lon="11.4500678"><ele>301.0</ele><time>2026-04-18T07:23:21.686Z</time></trkpt><trkpt lat="43.5403194" lon="11.4499477"><ele>304.0</ele><time>2026-04-18T07:23:22.687Z</time></trkpt><trkpt lat="43.5402307" lon="11.4498131"><ele>307.0</ele><time>2026-04-18T07:23:23.687Z</time></trkpt><trkpt lat="43.5401693" lon="11.4496897"><ele>310.0</ele><time>2026-04-18T07:23:24.686Z</time></trkpt><trkpt lat="43.5401205" lon="11.4495841"><ele>310.5</ele><time>2026-04-18T07:23:25.686Z</time></trkpt><trkpt lat="43.5400851" lon="11.4494752"><ele>311.0</ele><time>2026-04-18T07:23:26.686Z</time></trkpt><trkpt lat="43.5400848" lon="11.4493445"><ele>311.5</ele><time>2026-04-18T07:23:27.686Z</time></trkpt><trkpt lat="43.5401217" lon="11.4492367"><ele>312.0</ele><time>2026-04-18T07:23:28.686Z</time></trkpt><trkpt lat="43.5401875" lon="11.449173"><ele>312.5</ele><time>2026-04-18T07:23:29.686Z</time></trkpt><trkpt lat="43.5402789" lon="11.4491514"><ele>313.0</ele><time>2026-04-18T07:23:30.686Z</time></trkpt><trkpt lat="43.5403629" lon="11.4491199"><ele>313.8</ele><time>2026-04-18T07:23:31.686Z</time></trkpt><trkpt lat="43.5404289" lon="11.4489803"><ele>314.6</ele><time>2026-04-18T07:23:33.686Z</time></trkpt><trkpt lat="43.5404237" lon="11.4488842"><ele>315.4</ele><time>2026-04-18T07:23:34.686Z</time></trkpt><trkpt lat="43.5403768" lon="11.4487895"><ele>316.2</ele><time>2026-04-18T07:23:35.686Z</time></trkpt><trkpt lat="43.5403267" lon="11.4486831"><ele>317.0</ele><time>2026-04-18T07:23:36.686Z</time></trkpt><trkpt lat="43.5402669" lon="11.4485595"><ele>317.0</ele><time>2026-04-18T07:23:37.686Z</time></trkpt><trkpt lat="43.5402065" lon="11.4484333"><ele>317.0</ele><time>2026-04-18T07:23:38.686Z</time></trkpt><trkpt lat="43.5401506" lon="11.448315"><ele>317.0</ele><time>2026-04-18T07:23:39.686Z</time></trkpt><trkpt lat="43.5400841" lon="11.4482"><ele>317.0</ele><time>2026-04-18T07:23:40.686Z</time></trkpt><trkpt lat="43.5400067" lon="11.4481013"><ele>317.0</ele><time>2026-04-18T07:23:41.686Z</time></trkpt><trkpt lat="43.5399279" lon="11.4480075"><ele>316.5</ele><time>2026-04-18T07:23:42.686Z</time></trkpt><trkpt lat="43.5398423" lon="11.4479318"><ele>316.0</ele><time>2026-04-18T07:23:43.687Z</time></trkpt><trkpt lat="43.5397643" lon="11.4478604"><ele>315.5</ele><time>2026-04-18T07:23:44.687Z</time></trkpt><trkpt lat="43.5396976" lon="11.4477829"><ele>315.0</ele><time>2026-04-18T07:23:45.686Z</time></trkpt><trkpt lat="43.5396361" lon="11.4477136"><ele>314.5</ele><time>2026-04-18T07:23:46.686Z</time></trkpt><trkpt lat="43.5395843" lon="11.4476612"><ele>314.0</ele><time>2026-04-18T07:23:47.686Z</time></trkpt><trkpt lat="43.5394973" lon="11.4475682"><ele>318.25</ele><time>2026-04-18T07:23:49.686Z</time></trkpt><trkpt lat="43.539388" lon="11.4475114"><ele>322.5</ele><time>2026-04-18T07:23:51.686Z</time></trkpt><trkpt lat="43.5392671" lon="11.4474769"><ele>326.75</ele><time>2026-04-18T07:23:53.686Z</time></trkpt><trkpt lat="43.5391715" lon="11.44762"><ele>331.0</ele><time>2026-04-18T07:23:55.686Z</time></trkpt><trkpt lat="43.53912" lon="11.4477145"><ele>331.0</ele><time>2026-04-18T07:23:56.686Z</time></trkpt><trkpt lat="43.5390691" lon="11.4478209"><ele>331.0</ele><time>2026-04-18T07:23:57.686Z</time></trkpt><trkpt lat="43.5390113" lon="11.4478997"><ele>331.0</ele><time>2026-04-18T07:23:58.686Z</time></trkpt><trkpt lat="43.5389572" lon="11.4479814"><ele>331.0</ele><time>2026-04-18T07:23:59.686Z</time></trkpt><trkpt lat="43.5389082" lon="11.4480824"><ele>331.0</ele><time>2026-04-18T07:24:00.686Z</time></trkpt><trkpt lat="43.5388606" lon="11.4481798"><ele>331.0</ele><time>2026-04-18T07:24:01.686Z</time></trkpt><trkpt lat="43.5388114" lon="11.4482833"><ele>331.20000000000005</ele><time>2026-04-18T07:24:02.686Z</time></trkpt><trkpt lat="43.5387728" lon="11.4484096"><ele>331.40000000000003</ele><time>2026-04-18T07:24:03.686Z</time></trkpt><trkpt lat="43.5387468" lon="11.4485382"><ele>331.6</ele><time>2026-04-18T07:24:04.686Z</time></trkpt><trkpt lat="43.5387477" lon="11.4486767"><ele>331.8</ele><time>2026-04-18T07:24:05.686Z</time></trkpt><trkpt lat="43.5387575" lon="11.4487853"><ele>332.0</ele><time>2026-04-18T07:24:06.687Z</time></trkpt><trkpt lat="43.5387706" lon="11.4489591"><ele>330.6666666666667</ele><time>2026-04-18T07:24:08.686Z</time></trkpt><trkpt lat="43.5387666" lon="11.4490518"><ele>329.33333333333337</ele><time>2026-04-18T07:24:09.687Z</time></trkpt><trkpt lat="43.5387591" lon="11.4491471"><ele>328.0</ele><time>2026-04-18T07:24:10.687Z</time></trkpt><trkpt lat="43.5387375" lon="11.4492918"><ele>326.6666666666667</ele><time>2026-04-18T07:24:12.686Z</time></trkpt><trkpt lat="43.5386664" lon="11.4493461"><ele>325.3333333333333</ele><time>2026-04-18T07:24:14.687Z</time></trkpt><trkpt lat="43.5385857" lon="11.4492992"><ele>324.0</ele><time>2026-04-18T07:24:16.686Z</time></trkpt><trkpt lat="43.5385193" lon="11.4492451"><ele>326.6666666666667</ele><time>2026-04-18T07:24:17.686Z</time></trkpt><trkpt lat="43.5384595" lon="11.4491824"><ele>329.3333333333333</ele><time>2026-04-18T07:24:18.687Z</time></trkpt><trkpt lat="43.5383846" lon="11.449129"><ele>332.0</ele><time>2026-04-18T07:24:19.686Z</time></trkpt><trkpt lat="43.5383188" lon="11.4490771"><ele>334.66666666666663</ele><time>2026-04-18T07:24:20.686Z</time></trkpt><trkpt lat="43.538254" lon="11.4490171"><ele>337.3333333333333</ele><time>2026-04-18T07:24:21.687Z</time></trkpt><trkpt lat="43.5381766" lon="11.4489587"><ele>340.0</ele><time>2026-04-18T07:24:22.686Z</time></trkpt><trkpt lat="43.5381003" lon="11.4488944"><ele>340.0</ele><time>2026-04-18T07:24:23.686Z</time></trkpt><trkpt lat="43.5380269" lon="11.4488366"><ele>340.0</ele><time>2026-04-18T07:24:24.686Z</time></trkpt><trkpt lat="43.5379567" lon="11.4487917"><ele>340.0</ele><time>2026-04-18T07:24:25.686Z</time></trkpt><trkpt lat="43.5378853" lon="11.4487398"><ele>340.0</ele><time>2026-04-18T07:24:26.686Z</time></trkpt><trkpt lat="43.5378128" lon="11.4486923"><ele>340.0</ele><time>2026-04-18T07:24:27.687Z</time></trkpt><trkpt lat="43.5377496" lon="11.4486488"><ele>340.0</ele><time>2026-04-18T07:24:28.687Z</time></trkpt><trkpt lat="43.5376891" lon="11.448607"><ele>343.0</ele><time>2026-04-18T07:24:29.686Z</time></trkpt><trkpt lat="43.5376137" lon="11.44855"><ele>346.0</ele><time>2026-04-18T07:24:30.686Z</time></trkpt><trkpt lat="43.5375353" lon="11.4484923"><ele>349.0</ele><time>2026-04-18T07:24:31.686Z</time></trkpt><trkpt lat="43.5374553" lon="11.4484332"><ele>352.0</ele><time>2026-04-18T07:24:32.686Z</time></trkpt><trkpt lat="43.5373796" lon="11.4483763"><ele>355.0</ele><time>2026-04-18T07:24:33.686Z</time></trkpt><trkpt lat="43.5373125" lon="11.4483148"><ele>358.0</ele><time>2026-04-18T07:24:34.687Z</time></trkpt><trkpt lat="43.5372543" lon="11.4482456"><ele>358.0</ele><time>2026-04-18T07:24:35.686Z</time></trkpt><trkpt lat="43.5372001" lon="11.4481651"><ele>358.0</ele><time>2026-04-18T07:24:36.686Z</time></trkpt><trkpt lat="43.5371535" lon="11.4480773"><ele>358.0</ele><time>2026-04-18T07:24:37.686Z</time></trkpt><trkpt lat="43.5371143" lon="11.4479708"><ele>358.0</ele><time>2026-04-18T07:24:38.687Z</time></trkpt><trkpt lat="43.5370904" lon="11.4478512"><ele>358.0</ele><time>2026-04-18T07:24:39.687Z</time></trkpt><trkpt lat="43.537065" lon="11.4477309"><ele>358.0</ele><time>2026-04-18T07:24:40.686Z</time></trkpt><trkpt lat="43.5370472" lon="11.4476292"><ele>358.0</ele><time>2026-04-18T07:24:41.687Z</time></trkpt><trkpt lat="43.5370401" lon="11.4475328"><ele>358.0</ele><time>2026-04-18T07:24:42.686Z</time></trkpt><trkpt lat="43.5370498" lon="11.4474293"><ele>358.0</ele><time>2026-04-18T07:24:43.687Z</time></trkpt><trkpt lat="43.5370658" lon="11.4473296"><ele>358.0</ele><time>2026-04-18T07:24:44.686Z</time></trkpt><trkpt lat="43.5370962" lon="11.4472386"><ele>358.0</ele><time>2026-04-18T07:24:45.686Z</time></trkpt><trkpt lat="43.5371252" lon="11.4471341"><ele>358.0</ele><time>2026-04-18T07:24:46.686Z</time></trkpt><trkpt lat="43.5371489" lon="11.4470069"><ele>358.2</ele><time>2026-04-18T07:24:47.686Z</time></trkpt><trkpt lat="43.5371444" lon="11.4468704"><ele>358.4</ele><time>2026-04-18T07:24:48.686Z</time></trkpt><trkpt lat="43.5371246" lon="11.4467263"><ele>358.59999999999997</ele><time>2026-04-18T07:24:49.686Z</time></trkpt><trkpt lat="43.5370864" lon="11.4465919"><ele>358.79999999999995</ele><time>2026-04-18T07:24:50.686Z</time></trkpt><trkpt lat="43.537029" lon="11.446464"><ele>359.0</ele><time>2026-04-18T07:24:51.686Z</time></trkpt><trkpt lat="43.5369667" lon="11.4463484"><ele>360.6</ele><time>2026-04-18T07:24:52.686Z</time></trkpt><trkpt lat="43.5368887" lon="11.4462402"><ele>362.2</ele><time>2026-04-18T07:24:53.687Z</time></trkpt><trkpt lat="43.5368047" lon="11.4461281"><ele>363.8</ele><time>2026-04-18T07:24:54.686Z</time></trkpt><trkpt lat="43.5367239" lon="11.4460209"><ele>365.40000000000003</ele><time>2026-04-18T07:24:55.687Z</time></trkpt><trkpt lat="43.5366438" lon="11.4459252"><ele>367.0</ele><time>2026-04-18T07:24:56.686Z</time></trkpt><trkpt lat="43.5365748" lon="11.4458307"><ele>367.0</ele><time>2026-04-18T07:24:57.686Z</time></trkpt><trkpt lat="43.5365062" lon="11.4457467"><ele>367.0</ele><time>2026-04-18T07:24:58.686Z</time></trkpt><trkpt lat="43.5364351" lon="11.4456682"><ele>367.0</ele><time>2026-04-18T07:24:59.686Z</time></trkpt><trkpt lat="43.536369" lon="11.4455838"><ele>367.0</ele><time>2026-04-18T07:25:00.687Z</time></trkpt><trkpt lat="43.5363088" lon="11.4455078"><ele>367.0</ele><time>2026-04-18T07:25:01.687Z</time></trkpt><trkpt lat="43.5362528" lon="11.4454506"><ele>367.0</ele><time>2026-04-18T07:25:02.686Z</time></trkpt><trkpt lat="43.5361474" lon="11.4454231"><ele>370.40000000000003</ele><time>2026-04-18T07:25:04.687Z</time></trkpt><trkpt lat="43.536073" lon="11.4453682"><ele>373.8</ele><time>2026-04-18T07:25:06.686Z</time></trkpt><trkpt lat="43.535983" lon="11.4452883"><ele>377.2</ele><time>2026-04-18T07:25:08.687Z</time></trkpt><trkpt lat="43.535875" lon="11.445218"><ele>380.6</ele><time>2026-04-18T07:25:10.686Z</time></trkpt><trkpt lat="43.5357641" lon="11.4451301"><ele>384.0</ele><time>2026-04-18T07:25:12.687Z</time></trkpt><trkpt lat="43.5357053" lon="11.4450778"><ele>384.0</ele><time>2026-04-18T07:25:13.686Z</time></trkpt><trkpt lat="43.535649" lon="11.4450293"><ele>384.0</ele><time>2026-04-18T07:25:14.686Z</time></trkpt><trkpt lat="43.5355617" lon="11.4449469"><ele>384.0</ele><time>2026-04-18T07:25:16.687Z</time></trkpt><trkpt lat="43.5355146" lon="11.4448093"><ele>384.0</ele><time>2026-04-18T07:25:18.686Z</time></trkpt><trkpt lat="43.5354961" lon="11.4446625"><ele>384.0</ele><time>2026-04-18T07:25:20.686Z</time></trkpt><trkpt lat="43.5354744" lon="11.4445469"><ele>382.6</ele><time>2026-04-18T07:25:22.687Z</time></trkpt><trkpt lat="43.5354168" lon="11.4444465"><ele>381.2</ele><time>2026-04-18T07:25:24.687Z</time></trkpt><trkpt lat="43.535334" lon="11.4443671"><ele>379.8</ele><time>2026-04-18T07:25:26.686Z</time></trkpt><trkpt lat="43.5352256" lon="11.4442729"><ele>378.40000000000003</ele><time>2026-04-18T07:25:28.686Z</time></trkpt><trkpt lat="43.535143" lon="11.4441907"><ele>377.0</ele><time>2026-04-18T07:25:30.686Z</time></trkpt><trkpt lat="43.5350849" lon="11.4441341"><ele>381.1666666666667</ele><time>2026-04-18T07:25:32.686Z</time></trkpt><trkpt lat="43.5350018" lon="11.4441008"><ele>385.33333333333337</ele><time>2026-04-18T07:25:34.686Z</time></trkpt><trkpt lat="43.5349459" lon="11.4440277"><ele>389.5</ele><time>2026-04-18T07:25:36.686Z</time></trkpt><trkpt lat="43.5348697" lon="11.4440162"><ele>393.6666666666667</ele><time>2026-04-18T07:25:39.686Z</time></trkpt><trkpt lat="43.5348118" lon="11.4440586"><ele>397.8333333333333</ele><time>2026-04-18T07:25:41.686Z</time></trkpt><trkpt lat="43.5347393" lon="11.4440484"><ele>402.0</ele><time>2026-04-18T07:25:44.687Z</time></trkpt><trkpt lat="43.5346773" lon="11.4439403"><ele>401.20000000000005</ele><time>2026-04-18T07:26:09.686Z</time></trkpt><trkpt lat="43.534651" lon="11.4437888"><ele>400.4</ele><time>2026-04-18T07:26:11.686Z</time></trkpt><trkpt lat="43.5346356" lon="11.443702"><ele>399.6</ele><time>2026-04-18T07:26:12.686Z</time></trkpt><trkpt lat="43.5345869" lon="11.4435378"><ele>398.79999999999995</ele><time>2026-04-18T07:26:14.686Z</time></trkpt><trkpt lat="43.5345566" lon="11.4434525"><ele>398.0</ele><time>2026-04-18T07:26:15.686Z</time></trkpt><trkpt lat="43.5345236" lon="11.4433605"><ele>402.3333333333333</ele><time>2026-04-18T07:26:16.686Z</time></trkpt><trkpt lat="43.5344959" lon="11.4432727"><ele>406.66666666666663</ele><time>2026-04-18T07:26:17.686Z</time></trkpt><trkpt lat="43.5344594" lon="11.4431766"><ele>411.0</ele><time>2026-04-18T07:26:18.687Z</time></trkpt><trkpt lat="43.5344227" lon="11.4430827"><ele>415.33333333333337</ele><time>2026-04-18T07:26:19.687Z</time></trkpt><trkpt lat="43.5343799" lon="11.442989"><ele>419.6666666666667</ele><time>2026-04-18T07:26:20.687Z</time></trkpt><trkpt lat="43.5343386" lon="11.442913"><ele>424.0</ele><time>2026-04-18T07:26:21.686Z</time></trkpt><trkpt lat="43.5342799" lon="11.4427792"><ele>424.33333333333337</ele><time>2026-04-18T07:26:23.687Z</time></trkpt><trkpt lat="43.534263" lon="11.4426441"><ele>424.6666666666667</ele><time>2026-04-18T07:26:25.687Z</time></trkpt><trkpt lat="43.5342972" lon="11.4424938"><ele>425.0</ele><time>2026-04-18T07:26:27.686Z</time></trkpt><trkpt lat="43.5343315" lon="11.4424091"><ele>425.33333333333337</ele><time>2026-04-18T07:26:28.686Z</time></trkpt><trkpt lat="43.5343731" lon="11.4423366"><ele>425.6666666666667</ele><time>2026-04-18T07:26:29.686Z</time></trkpt><trkpt lat="43.5344086" lon="11.4422643"><ele>426.0</ele><time>2026-04-18T07:26:30.686Z</time></trkpt><trkpt lat="43.5344626" lon="11.4421585"><ele>425.99999999999994</ele><time>2026-04-18T07:26:32.686Z</time></trkpt><trkpt lat="43.5344964" lon="11.4420757"><ele>426.0</ele><time>2026-04-18T07:26:41.686Z</time></trkpt><trkpt lat="43.5345048" lon="11.4419877"><ele>426.0</ele><time>2026-04-18T07:26:47.686Z</time></trkpt><trkpt lat="43.5344441" lon="11.4420785"><ele>426.0</ele><time>2026-04-18T07:32:18.686Z</time></trkpt><trkpt lat="43.5343903" lon="11.442135"><ele>426.0</ele><time>2026-04-18T07:32:20.686Z</time></trkpt><trkpt lat="43.5343294" lon="11.4421576"><ele>425.99999999999994</ele><time>2026-04-18T07:32:24.686Z</time></trkpt><trkpt lat="43.5342689" lon="11.4422034"><ele>426.0</ele><time>2026-04-18T07:32:32.686Z</time></trkpt><trkpt lat="43.5342085" lon="11.4422424"><ele>425.99999999999994</ele><time>2026-04-18T07:32:52.686Z</time></trkpt><trkpt lat="43.5341449" lon="11.4422939"><ele>426.0</ele><time>2026-04-18T07:32:58.687Z</time></trkpt><trkpt lat="43.5340825" lon="11.4423372"><ele>426.0</ele><time>2026-04-18T07:33:02.686Z</time></trkpt><trkpt lat="43.5340134" lon="11.4423558"><ele>426.0</ele><time>2026-04-18T07:33:06.687Z</time></trkpt><trkpt lat="43.5339508" lon="11.442409"><ele>426.0</ele><time>2026-04-18T07:33:21.687Z</time></trkpt><trkpt lat="43.5338857" lon="11.4424229"><ele>425.99999999999994</ele><time>2026-04-18T07:33:25.686Z</time></trkpt><trkpt lat="43.5338103" lon="11.4424344"><ele>426.0</ele><time>2026-04-18T07:33:28.687Z</time></trkpt><trkpt lat="43.5337647" lon="11.4423388"><ele>430.20000000000005</ele><time>2026-04-18T07:33:30.687Z</time></trkpt><trkpt lat="43.5336842" lon="11.4422666"><ele>434.40000000000003</ele><time>2026-04-18T07:33:32.686Z</time></trkpt><trkpt lat="43.533548" lon="11.4423337"><ele>438.6</ele><time>2026-04-18T07:33:34.687Z</time></trkpt><trkpt lat="43.533484" lon="11.4424136"><ele>442.8</ele><time>2026-04-18T07:33:35.686Z</time></trkpt><trkpt lat="43.5334261" lon="11.4425009"><ele>447.0</ele><time>2026-04-18T07:33:36.686Z</time></trkpt><trkpt lat="43.5333752" lon="11.442585"><ele>447.0</ele><time>2026-04-18T07:33:37.686Z</time></trkpt><trkpt lat="43.5333115" lon="11.4426543"><ele>447.0</ele><time>2026-04-18T07:33:38.687Z</time></trkpt><trkpt lat="43.5332308" lon="11.4427036"><ele>447.0</ele><time>2026-04-18T07:33:39.686Z</time></trkpt><trkpt lat="43.5331476" lon="11.4427332"><ele>447.0</ele><time>2026-04-18T07:33:40.686Z</time></trkpt><trkpt lat="43.5330592" lon="11.4427533"><ele>447.0</ele><time>2026-04-18T07:33:41.687Z</time></trkpt><trkpt lat="43.5329673" lon="11.4427657"><ele>447.0</ele><time>2026-04-18T07:33:42.687Z</time></trkpt><trkpt lat="43.5328706" lon="11.4427689"><ele>450.6</ele><time>2026-04-18T07:33:43.686Z</time></trkpt><trkpt lat="43.532772" lon="11.4427564"><ele>454.20000000000005</ele><time>2026-04-18T07:33:44.686Z</time></trkpt><trkpt lat="43.5326747" lon="11.4427223"><ele>457.8</ele><time>2026-04-18T07:33:45.687Z</time></trkpt><trkpt lat="43.5325793" lon="11.4426481"><ele>461.4</ele><time>2026-04-18T07:33:46.686Z</time></trkpt><trkpt lat="43.5324994" lon="11.4425831"><ele>465.0</ele><time>2026-04-18T07:33:47.686Z</time></trkpt><trkpt lat="43.5324176" lon="11.4425332"><ele>465.0</ele><time>2026-04-18T07:33:48.686Z</time></trkpt><trkpt lat="43.532332" lon="11.4425107"><ele>465.0</ele><time>2026-04-18T07:33:49.686Z</time></trkpt><trkpt lat="43.5322422" lon="11.4425302"><ele>465.0</ele><time>2026-04-18T07:33:50.686Z</time></trkpt><trkpt lat="43.5321603" lon="11.4425887"><ele>465.0</ele><time>2026-04-18T07:33:51.686Z</time></trkpt><trkpt lat="43.5320954" lon="11.4426725"><ele>465.0</ele><time>2026-04-18T07:33:52.686Z</time></trkpt><trkpt lat="43.5320283" lon="11.4427442"><ele>465.0</ele><time>2026-04-18T07:33:53.687Z</time></trkpt><trkpt lat="43.5319647" lon="11.4427964"><ele>467.6</ele><time>2026-04-18T07:33:54.686Z</time></trkpt><trkpt lat="43.531903" lon="11.442828"><ele>470.2</ele><time>2026-04-18T07:33:55.686Z</time></trkpt><trkpt lat="43.5318004" lon="11.442743"><ele>472.79999999999995</ele><time>2026-04-18T07:33:57.687Z</time></trkpt><trkpt lat="43.531763" lon="11.442653"><ele>475.4</ele><time>2026-04-18T07:33:58.685Z</time></trkpt><trkpt lat="43.531723" lon="11.4425347"><ele>478.0</ele><time>2026-04-18T07:33:59.687Z</time></trkpt><trkpt lat="43.5316588" lon="11.4423966"><ele>478.0</ele><time>2026-04-18T07:34:00.686Z</time></trkpt><trkpt lat="43.5315969" lon="11.4422345"><ele>478.0</ele><time>2026-04-18T07:34:01.686Z</time></trkpt><trkpt lat="43.5315293" lon="11.4420751"><ele>478.0</ele><time>2026-04-18T07:34:02.686Z</time></trkpt><trkpt lat="43.5314557" lon="11.4419325"><ele>478.0</ele><time>2026-04-18T07:34:03.686Z</time></trkpt><trkpt lat="43.5313907" lon="11.4417859"><ele>479.79999999999995</ele><time>2026-04-18T07:34:04.687Z</time></trkpt><trkpt lat="43.5313389" lon="11.4416434"><ele>481.59999999999997</ele><time>2026-04-18T07:34:05.687Z</time></trkpt><trkpt lat="43.5313051" lon="11.4414955"><ele>483.40000000000003</ele><time>2026-04-18T07:34:06.686Z</time></trkpt><trkpt lat="43.5312905" lon="11.441372"><ele>485.20000000000005</ele><time>2026-04-18T07:34:07.686Z</time></trkpt><trkpt lat="43.5312644" lon="11.441275"><ele>487.0</ele><time>2026-04-18T07:34:08.687Z</time></trkpt><trkpt lat="43.5312259" lon="11.4411863"><ele>489.8</ele><time>2026-04-18T07:34:09.686Z</time></trkpt><trkpt lat="43.5311738" lon="11.4410978"><ele>492.6</ele><time>2026-04-18T07:34:10.687Z</time></trkpt><trkpt lat="43.5311151" lon="11.4410071"><ele>495.40000000000003</ele><time>2026-04-18T07:34:11.686Z</time></trkpt><trkpt lat="43.531047" lon="11.4409222"><ele>498.20000000000005</ele><time>2026-04-18T07:34:12.686Z</time></trkpt><trkpt lat="43.5309712" lon="11.4408436"><ele>501.0</ele><time>2026-04-18T07:34:13.686Z</time></trkpt><trkpt lat="43.5308903" lon="11.440768"><ele>501.0</ele><time>2026-04-18T07:34:14.687Z</time></trkpt><trkpt lat="43.5308127" lon="11.4407074"><ele>501.0</ele><time>2026-04-18T07:34:15.687Z</time></trkpt><trkpt lat="43.5307419" lon="11.4406449"><ele>501.0</ele><time>2026-04-18T07:34:16.686Z</time></trkpt><trkpt lat="43.5306684" lon="11.4405867"><ele>501.0</ele><time>2026-04-18T07:34:17.686Z</time></trkpt><trkpt lat="43.5305969" lon="11.4405347"><ele>501.0</ele><time>2026-04-18T07:34:18.687Z</time></trkpt><trkpt lat="43.5305079" lon="11.4404977"><ele>501.0</ele><time>2026-04-18T07:34:19.686Z</time></trkpt><trkpt lat="43.5304123" lon="11.4404749"><ele>499.6</ele><time>2026-04-18T07:34:20.686Z</time></trkpt><trkpt lat="43.530309" lon="11.4404648"><ele>498.20000000000005</ele><time>2026-04-18T07:34:21.686Z</time></trkpt><trkpt lat="43.530201" lon="11.4404534"><ele>496.79999999999995</ele><time>2026-04-18T07:34:22.686Z</time></trkpt><trkpt lat="43.5300835" lon="11.4404432"><ele>495.4</ele><time>2026-04-18T07:34:23.687Z</time></trkpt><trkpt lat="43.5299701" lon="11.4404349"><ele>494.0</ele><time>2026-04-18T07:34:24.686Z</time></trkpt><trkpt lat="43.5298603" lon="11.4404257"><ele>494.0</ele><time>2026-04-18T07:34:25.686Z</time></trkpt><trkpt lat="43.5297519" lon="11.4404021"><ele>494.0</ele><time>2026-04-18T07:34:26.687Z</time></trkpt><trkpt lat="43.5296628" lon="11.440374"><ele>494.0</ele><time>2026-04-18T07:34:27.687Z</time></trkpt><trkpt lat="43.5295774" lon="11.4403445"><ele>494.0</ele><time>2026-04-18T07:34:28.687Z</time></trkpt><trkpt lat="43.5294797" lon="11.4402947"><ele>494.0</ele><time>2026-04-18T07:34:29.687Z</time></trkpt><trkpt lat="43.5293883" lon="11.4402548"><ele>498.0</ele><time>2026-04-18T07:34:30.686Z</time></trkpt><trkpt lat="43.5292957" lon="11.440218"><ele>502.0</ele><time>2026-04-18T07:34:31.686Z</time></trkpt><trkpt lat="43.5291966" lon="11.4401942"><ele>506.0</ele><time>2026-04-18T07:34:32.686Z</time></trkpt><trkpt lat="43.5291137" lon="11.4401887"><ele>510.0</ele><time>2026-04-18T07:34:33.687Z</time></trkpt><trkpt lat="43.5290438" lon="11.4401896"><ele>514.0</ele><time>2026-04-18T07:34:34.686Z</time></trkpt><trkpt lat="43.5289168" lon="11.440168"><ele>514.0</ele><time>2026-04-18T07:34:36.686Z</time></trkpt><trkpt lat="43.5288499" lon="11.4401332"><ele>514.0</ele><time>2026-04-18T07:34:37.686Z</time></trkpt><trkpt lat="43.52879" lon="11.4400731"><ele>514.0</ele><time>2026-04-18T07:34:38.686Z</time></trkpt><trkpt lat="43.5287356" lon="11.4400053"><ele>514.0</ele><time>2026-04-18T07:34:39.686Z</time></trkpt><trkpt lat="43.5286797" lon="11.4399275"><ele>514.0</ele><time>2026-04-18T07:34:40.686Z</time></trkpt><trkpt lat="43.5286307" lon="11.4398518"><ele>514.0</ele><time>2026-04-18T07:34:41.686Z</time></trkpt><trkpt lat="43.5285785" lon="11.4397618"><ele>514.5</ele><time>2026-04-18T07:34:43.686Z</time></trkpt><trkpt lat="43.528545" lon="11.4396494"><ele>515.0</ele><time>2026-04-18T07:34:48.686Z</time></trkpt><trkpt lat="43.5284906" lon="11.4395556"><ele>515.5</ele><time>2026-04-18T07:34:50.686Z</time></trkpt><trkpt lat="43.5284124" lon="11.4394489"><ele>516.0</ele><time>2026-04-18T07:34:52.686Z</time></trkpt><trkpt lat="43.5283618" lon="11.4393849"><ele>516.5</ele><time>2026-04-18T07:34:53.686Z</time></trkpt><trkpt lat="43.5283129" lon="11.4393155"><ele>517.0</ele><time>2026-04-18T07:34:54.686Z</time></trkpt><trkpt lat="43.528256" lon="11.4392504"><ele>517.7142857142858</ele><time>2026-04-18T07:34:55.686Z</time></trkpt><trkpt lat="43.5281955" lon="11.4391913"><ele>518.4285714285714</ele><time>2026-04-18T07:34:56.686Z</time></trkpt><trkpt lat="43.5281372" lon="11.439135"><ele>519.1428571428571</ele><time>2026-04-18T07:34:57.686Z</time></trkpt><trkpt lat="43.5280803" lon="11.4390687"><ele>519.8571428571429</ele><time>2026-04-18T07:34:58.686Z</time></trkpt><trkpt lat="43.5280215" lon="11.4389932"><ele>520.5714285714286</ele><time>2026-04-18T07:34:59.686Z</time></trkpt><trkpt lat="43.5279811" lon="11.4389019"><ele>521.2857142857143</ele><time>2026-04-18T07:35:00.687Z</time></trkpt><trkpt lat="43.527961" lon="11.438808"><ele>522.0</ele><time>2026-04-18T07:35:01.686Z</time></trkpt><trkpt lat="43.527952" lon="11.4387205"><ele>522.0</ele><time>2026-04-18T07:35:02.687Z</time></trkpt><trkpt lat="43.527928" lon="11.4385874"><ele>522.0</ele><time>2026-04-18T07:35:04.686Z</time></trkpt><trkpt lat="43.5278604" lon="11.4385425"><ele>522.0</ele><time>2026-04-18T07:35:06.686Z</time></trkpt><trkpt lat="43.52776" lon="11.4385702"><ele>522.0</ele><time>2026-04-18T07:35:08.686Z</time></trkpt><trkpt lat="43.5276556" lon="11.4386437"><ele>522.0</ele><time>2026-04-18T07:35:10.686Z</time></trkpt><trkpt lat="43.5275949" lon="11.4386756"><ele>523.5714285714286</ele><time>2026-04-18T07:35:11.686Z</time></trkpt><trkpt lat="43.5275376" lon="11.438716"><ele>525.1428571428571</ele><time>2026-04-18T07:35:12.686Z</time></trkpt><trkpt lat="43.5274843" lon="11.4387675"><ele>526.7142857142857</ele><time>2026-04-18T07:35:13.686Z</time></trkpt><trkpt lat="43.5274302" lon="11.4388253"><ele>528.2857142857142</ele><time>2026-04-18T07:35:14.687Z</time></trkpt><trkpt lat="43.5273698" lon="11.4388638"><ele>529.8571428571428</ele><time>2026-04-18T07:35:15.686Z</time></trkpt><trkpt lat="43.5273123" lon="11.4389022"><ele>531.4285714285714</ele><time>2026-04-18T07:35:16.687Z</time></trkpt><trkpt lat="43.5272455" lon="11.438908"><ele>533.0</ele><time>2026-04-18T07:35:17.686Z</time></trkpt><trkpt lat="43.5271798" lon="11.438916"><ele>534.4</ele><time>2026-04-18T07:35:18.686Z</time></trkpt><trkpt lat="43.5270489" lon="11.4389091"><ele>535.8</ele><time>2026-04-18T07:35:20.686Z</time></trkpt><trkpt lat="43.5269548" lon="11.4388872"><ele>537.2</ele><time>2026-04-18T07:35:21.686Z</time></trkpt><trkpt lat="43.5268779" lon="11.4388574"><ele>538.6</ele><time>2026-04-18T07:35:22.686Z</time></trkpt><trkpt lat="43.5267993" lon="11.4388259"><ele>540.0</ele><time>2026-04-18T07:35:23.686Z</time></trkpt><trkpt lat="43.5267224" lon="11.4387838"><ele>545.1666666666666</ele><time>2026-04-18T07:35:24.686Z</time></trkpt><trkpt lat="43.5266494" lon="11.4387262"><ele>550.3333333333334</ele><time>2026-04-18T07:35:25.686Z</time></trkpt><trkpt lat="43.5265745" lon="11.4386705"><ele>555.5</ele><time>2026-04-18T07:35:26.686Z</time></trkpt><trkpt lat="43.5264903" lon="11.4386276"><ele>560.6666666666667</ele><time>2026-04-18T07:35:27.686Z</time></trkpt><trkpt lat="43.5264178" lon="11.4385794"><ele>565.8333333333334</ele><time>2026-04-18T07:35:28.686Z</time></trkpt><trkpt lat="43.5263356" lon="11.4385394"><ele>571.0</ele><time>2026-04-18T07:35:29.686Z</time></trkpt><trkpt lat="43.5262679" lon="11.4385108"><ele>571.5</ele><time>2026-04-18T07:35:30.686Z</time></trkpt><trkpt lat="43.5262038" lon="11.4384773"><ele>572.0</ele><time>2026-04-18T07:35:31.687Z</time></trkpt><trkpt lat="43.5260892" lon="11.4383948"><ele>572.5</ele><time>2026-04-18T07:35:33.686Z</time></trkpt><trkpt lat="43.5260117" lon="11.438356"><ele>573.0</ele><time>2026-04-18T07:35:34.687Z</time></trkpt><trkpt lat="43.5259392" lon="11.4383183"><ele>573.5</ele><time>2026-04-18T07:35:35.686Z</time></trkpt><trkpt lat="43.5258622" lon="11.4382813"><ele>574.0</ele><time>2026-04-18T07:35:36.686Z</time></trkpt><trkpt lat="43.5257909" lon="11.4382503"><ele>574.0</ele><time>2026-04-18T07:35:37.686Z</time></trkpt><trkpt lat="43.5257026" lon="11.4382162"><ele>574.0</ele><time>2026-04-18T07:35:39.686Z</time></trkpt><trkpt lat="43.525603" lon="11.438237"><ele>574.0</ele><time>2026-04-18T07:35:41.687Z</time></trkpt><trkpt lat="43.5255082" lon="11.4383512"><ele>574.0</ele><time>2026-04-18T07:35:43.686Z</time></trkpt><trkpt lat="43.5254385" lon="11.4383815"><ele>574.0</ele><time>2026-04-18T07:35:44.686Z</time></trkpt><trkpt lat="43.5253406" lon="11.4384104"><ele>575.0</ele><time>2026-04-18T07:35:46.687Z</time></trkpt><trkpt lat="43.5252441" lon="11.4383778"><ele>576.0</ele><time>2026-04-18T07:35:48.686Z</time></trkpt><trkpt lat="43.5251842" lon="11.4383466"><ele>577.0</ele><time>2026-04-18T07:35:49.686Z</time></trkpt><trkpt lat="43.5251111" lon="11.4383232"><ele>578.0</ele><time>2026-04-18T07:35:50.685Z</time></trkpt><trkpt lat="43.5250263" lon="11.4382982"><ele>579.0</ele><time>2026-04-18T07:35:51.687Z</time></trkpt><trkpt lat="43.5249619" lon="11.4382538"><ele>580.0</ele><time>2026-04-18T07:35:52.686Z</time></trkpt><trkpt lat="43.5248891" lon="11.4381747"><ele>580.0</ele><time>2026-04-18T07:35:53.686Z</time></trkpt><trkpt lat="43.5247972" lon="11.4380711"><ele>580.0</ele><time>2026-04-18T07:35:54.686Z</time></trkpt><trkpt lat="43.5247236" lon="11.437999"><ele>580.0</ele><time>2026-04-18T07:35:55.686Z</time></trkpt><trkpt lat="43.5246695" lon="11.4379431"><ele>580.0</ele><time>2026-04-18T07:35:56.687Z</time></trkpt><trkpt lat="43.5246243" lon="11.4378162"><ele>580.0</ele><time>2026-04-18T07:35:58.686Z</time></trkpt><trkpt lat="43.5246029" lon="11.4377211"><ele>583.8333333333334</ele><time>2026-04-18T07:35:59.686Z</time></trkpt><trkpt lat="43.52458" lon="11.4376343"><ele>587.6666666666667</ele><time>2026-04-18T07:36:00.687Z</time></trkpt><trkpt lat="43.5245276" lon="11.4375535"><ele>591.5</ele><time>2026-04-18T07:36:01.686Z</time></trkpt><trkpt lat="43.5244834" lon="11.4374583"><ele>595.3333333333334</ele><time>2026-04-18T07:36:02.686Z</time></trkpt><trkpt lat="43.5244442" lon="11.4373705"><ele>599.1666666666666</ele><time>2026-04-18T07:36:03.686Z</time></trkpt><trkpt lat="43.5244062" lon="11.4372881"><ele>603.0</ele><time>2026-04-18T07:36:04.687Z</time></trkpt><trkpt lat="43.5243232" lon="11.4371953"><ele>603.0</ele><time>2026-04-18T07:36:06.686Z</time></trkpt><trkpt lat="43.5242602" lon="11.4371358"><ele>603.0</ele><time>2026-04-18T07:36:08.686Z</time></trkpt><trkpt lat="43.5242016" lon="11.4371677"><ele>603.0</ele><time>2026-04-18T07:36:11.686Z</time></trkpt><trkpt lat="43.5242006" lon="11.4372938"><ele>603.0</ele><time>2026-04-18T07:36:14.686Z</time></trkpt><trkpt lat="43.5241899" lon="11.4374505"><ele>603.0</ele><time>2026-04-18T07:36:16.686Z</time></trkpt><trkpt lat="43.5241803" lon="11.4375526"><ele>603.0</ele><time>2026-04-18T07:36:17.686Z</time></trkpt><trkpt lat="43.5241725" lon="11.4376631"><ele>603.0</ele><time>2026-04-18T07:36:18.686Z</time></trkpt><trkpt lat="43.5241627" lon="11.437767"><ele>603.0</ele><time>2026-04-18T07:36:19.686Z</time></trkpt><trkpt lat="43.5241478" lon="11.4378736"><ele>603.0</ele><time>2026-04-18T07:36:20.687Z</time></trkpt><trkpt lat="43.5241294" lon="11.4379751"><ele>603.0</ele><time>2026-04-18T07:36:21.687Z</time></trkpt><trkpt lat="43.5241115" lon="11.4380853"><ele>603.0</ele><time>2026-04-18T07:36:22.686Z</time></trkpt><trkpt lat="43.5240822" lon="11.438193"><ele>603.0</ele><time>2026-04-18T07:36:23.686Z</time></trkpt><trkpt lat="43.5240641" lon="11.4382917"><ele>602.1666666666666</ele><time>2026-04-18T07:36:24.686Z</time></trkpt><trkpt lat="43.5240409" lon="11.4383785"><ele>601.3333333333334</ele><time>2026-04-18T07:36:25.686Z</time></trkpt><trkpt lat="43.523997" lon="11.4384508"><ele>600.5</ele><time>2026-04-18T07:36:27.687Z</time></trkpt><trkpt lat="43.5239284" lon="11.4384942"><ele>599.6666666666667</ele><time>2026-04-18T07:36:30.686Z</time></trkpt><trkpt lat="43.523831" lon="11.438488"><ele>598.8333333333334</ele><time>2026-04-18T07:36:35.686Z</time></trkpt><trkpt lat="43.5237207" lon="11.4384293"><ele>598.0</ele><time>2026-04-18T07:36:37.686Z</time></trkpt><trkpt lat="43.5236251" lon="11.4383514"><ele>601.6</ele><time>2026-04-18T07:36:39.686Z</time></trkpt><trkpt lat="43.5235309" lon="11.4382516"><ele>605.1999999999999</ele><time>2026-04-18T07:36:41.686Z</time></trkpt><trkpt lat="43.5234651" lon="11.4381474"><ele>608.8</ele><time>2026-04-18T07:36:43.687Z</time></trkpt><trkpt lat="43.5233921" lon="11.4380436"><ele>612.4</ele><time>2026-04-18T07:36:45.686Z</time></trkpt><trkpt lat="43.5232848" lon="11.4380056"><ele>616.0</ele><time>2026-04-18T07:36:47.686Z</time></trkpt><trkpt lat="43.5231843" lon="11.4379947"><ele>616.0</ele><time>2026-04-18T07:36:49.686Z</time></trkpt><trkpt lat="43.5231113" lon="11.4379685"><ele>616.0</ele><time>2026-04-18T07:36:51.686Z</time></trkpt><trkpt lat="43.5230535" lon="11.437871"><ele>616.0</ele><time>2026-04-18T07:36:53.686Z</time></trkpt><trkpt lat="43.5230046" lon="11.4377692"><ele>616.0</ele><time>2026-04-18T07:36:55.686Z</time></trkpt><trkpt lat="43.5229746" lon="11.4376655"><ele>616.0</ele><time>2026-04-18T07:36:57.686Z</time></trkpt><trkpt lat="43.5229976" lon="11.4375477"><ele>616.0</ele><time>2026-04-18T07:36:59.686Z</time></trkpt><trkpt lat="43.523042" lon="11.4374458"><ele>618.2</ele><time>2026-04-18T07:37:01.686Z</time></trkpt><trkpt lat="43.5229841" lon="11.4373051"><ele>620.4000000000001</ele><time>2026-04-18T07:37:04.686Z</time></trkpt><trkpt lat="43.5229246" lon="11.4371889"><ele>622.6</ele><time>2026-04-18T07:37:06.687Z</time></trkpt><trkpt lat="43.5228738" lon="11.4370557"><ele>624.8000000000001</ele><time>2026-04-18T07:37:08.686Z</time></trkpt><trkpt lat="43.5228203" lon="11.4369242"><ele>627.0</ele><time>2026-04-18T07:37:10.686Z</time></trkpt><trkpt lat="43.5227714" lon="11.4367842"><ele>629.6666666666666</ele><time>2026-04-18T07:37:12.687Z</time></trkpt><trkpt lat="43.5227362" lon="11.4367023"><ele>632.3333333333334</ele><time>2026-04-18T07:37:13.686Z</time></trkpt><trkpt lat="43.5227041" lon="11.4366118"><ele>635.0</ele><time>2026-04-18T07:37:14.686Z</time></trkpt><trkpt lat="43.5226735" lon="11.4365253"><ele>637.6666666666667</ele><time>2026-04-18T07:37:15.686Z</time></trkpt><trkpt lat="43.5226451" lon="11.4363837"><ele>640.3333333333334</ele><time>2026-04-18T07:37:17.687Z</time></trkpt><trkpt lat="43.5226683" lon="11.436262"><ele>643.0</ele><time>2026-04-18T07:37:19.686Z</time></trkpt><trkpt lat="43.5226081" lon="11.4361379"><ele>643.5999999999999</ele><time>2026-04-18T07:37:21.686Z</time></trkpt><trkpt lat="43.5225598" lon="11.43608"><ele>644.1999999999999</ele><time>2026-04-18T07:37:22.687Z</time></trkpt><trkpt lat="43.5224957" lon="11.4360088"><ele>644.8</ele><time>2026-04-18T07:37:23.686Z</time></trkpt><trkpt lat="43.5224414" lon="11.4359358"><ele>645.4</ele><time>2026-04-18T07:37:24.687Z</time></trkpt><trkpt lat="43.522375" lon="11.4358208"><ele>646.0</ele><time>2026-04-18T07:37:26.686Z</time></trkpt><trkpt lat="43.5223093" lon="11.4356697"><ele>646.0</ele><time>2026-04-18T07:37:28.686Z</time></trkpt><trkpt lat="43.5222707" lon="11.4355981"><ele>646.0</ele><time>2026-04-18T07:37:29.686Z</time></trkpt><trkpt lat="43.5222167" lon="11.435527"><ele>646.0</ele><time>2026-04-18T07:37:30.686Z</time></trkpt><trkpt lat="43.5221194" lon="11.4354252"><ele>646.0</ele><time>2026-04-18T07:37:32.686Z</time></trkpt><trkpt lat="43.5220691" lon="11.435366"><ele>646.0</ele><time>2026-04-18T07:37:33.686Z</time></trkpt><trkpt lat="43.5219848" lon="11.4352415"><ele>648.3333333333334</ele><time>2026-04-18T07:37:35.686Z</time></trkpt><trkpt lat="43.5219339" lon="11.435179"><ele>650.6666666666667</ele><time>2026-04-18T07:37:36.687Z</time></trkpt><trkpt lat="43.5218849" lon="11.4351228"><ele>653.0</ele><time>2026-04-18T07:37:37.686Z</time></trkpt><trkpt lat="43.5218142" lon="11.4350137"><ele>655.3333333333334</ele><time>2026-04-18T07:37:39.686Z</time></trkpt><trkpt lat="43.5217497" lon="11.4348728"><ele>657.6666666666666</ele><time>2026-04-18T07:37:41.686Z</time></trkpt><trkpt lat="43.5217085" lon="11.4347941"><ele>660.0</ele><time>2026-04-18T07:37:42.687Z</time></trkpt><trkpt lat="43.5216502" lon="11.4347192"><ele>660.0000000000001</ele><time>2026-04-18T07:37:43.687Z</time></trkpt><trkpt lat="43.5216048" lon="11.4346553"><ele>660.0</ele><time>2026-04-18T07:37:44.687Z</time></trkpt><trkpt lat="43.5215595" lon="11.4345821"><ele>660.0</ele><time>2026-04-18T07:37:45.686Z</time></trkpt><trkpt lat="43.5215165" lon="11.4345093"><ele>660.0</ele><time>2026-04-18T07:37:46.687Z</time></trkpt><trkpt lat="43.5214769" lon="11.434433"><ele>660.0</ele><time>2026-04-18T07:37:47.686Z</time></trkpt><trkpt lat="43.5214179" lon="11.4343813"><ele>660.0000000000001</ele><time>2026-04-18T07:37:48.686Z</time></trkpt><trkpt lat="43.5213487" lon="11.4343403"><ele>660.0</ele><time>2026-04-18T07:37:49.686Z</time></trkpt><trkpt lat="43.5212776" lon="11.4342993"><ele>662.3333333333334</ele><time>2026-04-18T07:37:50.686Z</time></trkpt><trkpt lat="43.521209" lon="11.4342362"><ele>664.6666666666666</ele><time>2026-04-18T07:37:51.687Z</time></trkpt><trkpt lat="43.5211469" lon="11.4341699"><ele>667.0</ele><time>2026-04-18T07:37:52.686Z</time></trkpt><trkpt lat="43.5210963" lon="11.4340992"><ele>669.3333333333333</ele><time>2026-04-18T07:37:53.686Z</time></trkpt><trkpt lat="43.5210014" lon="11.4340183"><ele>671.6666666666666</ele><time>2026-04-18T07:37:55.686Z</time></trkpt><trkpt lat="43.5209141" lon="11.4340172"><ele>674.0</ele><time>2026-04-18T07:37:57.686Z</time></trkpt><trkpt lat="43.5208312" lon="11.4340513"><ele>674.0</ele><time>2026-04-18T07:37:59.686Z</time></trkpt><trkpt lat="43.5207176" lon="11.4340946"><ele>674.0</ele><time>2026-04-18T07:38:01.686Z</time></trkpt><trkpt lat="43.5206247" lon="11.4340749"><ele>674.0</ele><time>2026-04-18T07:38:03.682Z</time></trkpt><trkpt lat="43.5205355" lon="11.4340072"><ele>674.0</ele><time>2026-04-18T07:38:05.685Z</time></trkpt><trkpt lat="43.520498" lon="11.4339183"><ele>674.0</ele><time>2026-04-18T07:38:07.687Z</time></trkpt><trkpt lat="43.5204733" lon="11.4338011"><ele>679.0</ele><time>2026-04-18T07:38:09.686Z</time></trkpt><trkpt lat="43.5203989" lon="11.4336399"><ele>684.0</ele><time>2026-04-18T07:38:11.686Z</time></trkpt><trkpt lat="43.520365" lon="11.4335492"><ele>689.0</ele><time>2026-04-18T07:38:12.687Z</time></trkpt><trkpt lat="43.5202751" lon="11.4334397"><ele>694.0</ele><time>2026-04-18T07:38:14.686Z</time></trkpt><trkpt lat="43.520197" lon="11.4333367"><ele>699.0</ele><time>2026-04-18T07:38:16.686Z</time></trkpt><trkpt lat="43.5201107" lon="11.4332579"><ele>699.0</ele><time>2026-04-18T07:38:18.686Z</time></trkpt><trkpt lat="43.5200285" lon="11.433218"><ele>699.0</ele><time>2026-04-18T07:38:20.687Z</time></trkpt><trkpt lat="43.5199302" lon="11.433209"><ele>699.0</ele><time>2026-04-18T07:38:22.687Z</time></trkpt><trkpt lat="43.5198674" lon="11.4332027"><ele>699.0</ele><time>2026-04-18T07:38:23.686Z</time></trkpt><trkpt lat="43.5198002" lon="11.4331929"><ele>699.0</ele><time>2026-04-18T07:38:24.686Z</time></trkpt><trkpt lat="43.5197285" lon="11.4331845"><ele>699.0</ele><time>2026-04-18T07:38:25.686Z</time></trkpt><trkpt lat="43.5196584" lon="11.4331752"><ele>699.0</ele><time>2026-04-18T07:38:26.686Z</time></trkpt><trkpt lat="43.519584" lon="11.4331484"><ele>699.0</ele><time>2026-04-18T07:38:27.686Z</time></trkpt><trkpt lat="43.5194878" lon="11.4331049"><ele>699.0</ele><time>2026-04-18T07:38:29.687Z</time></trkpt><trkpt lat="43.5193972" lon="11.4330406"><ele>699.0</ele><time>2026-04-18T07:38:31.687Z</time></trkpt><trkpt lat="43.519326" lon="11.432967"><ele>699.0</ele><time>2026-04-18T07:38:33.686Z</time></trkpt><trkpt lat="43.5192672" lon="11.4329232"><ele>699.0</ele><time>2026-04-18T07:38:34.686Z</time></trkpt><trkpt lat="43.5191927" lon="11.4328682"><ele>700.2</ele><time>2026-04-18T07:38:35.686Z</time></trkpt><trkpt lat="43.5190806" lon="11.4328434"><ele>701.4000000000001</ele><time>2026-04-18T07:38:37.686Z</time></trkpt><trkpt lat="43.518991" lon="11.4329147"><ele>702.6</ele><time>2026-04-18T07:38:39.686Z</time></trkpt><trkpt lat="43.5189057" lon="11.4330138"><ele>703.8</ele><time>2026-04-18T07:38:41.686Z</time></trkpt><trkpt lat="43.5188121" lon="11.4330872"><ele>705.0</ele><time>2026-04-18T07:38:43.687Z</time></trkpt><trkpt lat="43.5187062" lon="11.4331401"><ele>708.6</ele><time>2026-04-18T07:38:45.686Z</time></trkpt><trkpt lat="43.518619" lon="11.4332047"><ele>712.2</ele><time>2026-04-18T07:38:47.686Z</time></trkpt><trkpt lat="43.5185096" lon="11.4332683"><ele>715.8</ele><time>2026-04-18T07:38:49.687Z</time></trkpt><trkpt lat="43.518459" lon="11.433356"><ele>719.4</ele><time>2026-04-18T07:39:00.687Z</time></trkpt><trkpt lat="43.5184521" lon="11.4332261"><ele>723.0</ele><time>2026-04-18T07:39:09.688Z</time></trkpt><trkpt lat="43.5184628" lon="11.4331068"><ele>723.0000000000001</ele><time>2026-04-18T07:39:11.689Z</time></trkpt><trkpt lat="43.5184896" lon="11.4330267"><ele>723.0</ele><time>2026-04-18T07:39:13.689Z</time></trkpt><trkpt lat="43.5185457" lon="11.432949"><ele>723.0</ele><time>2026-04-18T07:39:15.689Z</time></trkpt><trkpt lat="43.5185701" lon="11.4328466"><ele>723.0</ele><time>2026-04-18T07:39:18.688Z</time></trkpt><trkpt lat="43.5185957" lon="11.4327489"><ele>723.0</ele><time>2026-04-18T07:39:24.688Z</time></trkpt><trkpt lat="43.5186224" lon="11.432657"><ele>723.0000000000001</ele><time>2026-04-18T07:39:26.688Z</time></trkpt><trkpt lat="43.5186432" lon="11.4325663"><ele>723.0</ele><time>2026-04-18T07:39:28.688Z</time></trkpt><trkpt lat="43.5186628" lon="11.4324693"><ele>724.5999999999999</ele><time>2026-04-18T07:39:30.688Z</time></trkpt><trkpt lat="43.5186886" lon="11.4323547"><ele>726.1999999999999</ele><time>2026-04-18T07:39:32.689Z</time></trkpt><trkpt lat="43.518723" lon="11.4322387"><ele>727.8</ele><time>2026-04-18T07:39:34.688Z</time></trkpt><trkpt lat="43.5187762" lon="11.432132"><ele>729.4</ele><time>2026-04-18T07:39:36.688Z</time></trkpt><trkpt lat="43.5188475" lon="11.432059"><ele>731.0</ele><time>2026-04-18T07:39:38.688Z</time></trkpt><trkpt lat="43.5189873" lon="11.432014"><ele>731.0</ele><time>2026-04-18T07:39:40.689Z</time></trkpt><trkpt lat="43.5190736" lon="11.4320024"><ele>731.0</ele><time>2026-04-18T07:39:41.686Z</time></trkpt><trkpt lat="43.5191535" lon="11.4319917"><ele>731.0</ele><time>2026-04-18T07:39:42.688Z</time></trkpt><trkpt lat="43.5192208" lon="11.4319921"><ele>731.0</ele><time>2026-04-18T07:39:43.687Z</time></trkpt><trkpt lat="43.5192913" lon="11.4319808"><ele>731.0</ele><time>2026-04-18T07:39:44.688Z</time></trkpt><trkpt lat="43.5193596" lon="11.4319658"><ele>731.0</ele><time>2026-04-18T07:39:45.688Z</time></trkpt><trkpt lat="43.5194193" lon="11.431926"><ele>731.0</ele><time>2026-04-18T07:39:46.688Z</time></trkpt><trkpt lat="43.5194834" lon="11.4318702"><ele>731.0</ele><time>2026-04-18T07:39:47.688Z</time></trkpt><trkpt lat="43.5195448" lon="11.4317867"><ele>731.0</ele><time>2026-04-18T07:39:48.688Z</time></trkpt><trkpt lat="43.5195906" lon="11.4316731"><ele>731.0</ele><time>2026-04-18T07:39:49.688Z</time></trkpt><trkpt lat="43.5196167" lon="11.4315688"><ele>731.0</ele><time>2026-04-18T07:39:50.688Z</time></trkpt><trkpt lat="43.5196412" lon="11.4314236"><ele>731.0</ele><time>2026-04-18T07:39:52.689Z</time></trkpt><trkpt lat="43.5196751" lon="11.4313252"><ele>731.0</ele><time>2026-04-18T07:39:54.688Z</time></trkpt><trkpt lat="43.519686" lon="11.4312023"><ele>731.8</ele><time>2026-04-18T07:39:57.688Z</time></trkpt><trkpt lat="43.5196841" lon="11.4311043"><ele>732.5999999999999</ele><time>2026-04-18T07:39:59.688Z</time></trkpt><trkpt lat="43.5196491" lon="11.4309748"><ele>733.4</ele><time>2026-04-18T07:40:01.688Z</time></trkpt><trkpt lat="43.5195984" lon="11.4308189"><ele>734.2</ele><time>2026-04-18T07:40:03.688Z</time></trkpt><trkpt lat="43.5195761" lon="11.4307334"><ele>735.0</ele><time>2026-04-18T07:40:04.688Z</time></trkpt><trkpt lat="43.5195656" lon="11.4305943"><ele>731.8333333333334</ele><time>2026-04-18T07:40:06.688Z</time></trkpt><trkpt lat="43.5196058" lon="11.4304905"><ele>728.6666666666666</ele><time>2026-04-18T07:40:09.689Z</time></trkpt><trkpt lat="43.5196507" lon="11.4303364"><ele>725.5</ele><time>2026-04-18T07:40:12.688Z</time></trkpt><trkpt lat="43.5196791" lon="11.4302217"><ele>722.3333333333333</ele><time>2026-04-18T07:40:13.689Z</time></trkpt><trkpt lat="43.5197001" lon="11.4301187"><ele>719.1666666666666</ele><time>2026-04-18T07:40:14.688Z</time></trkpt><trkpt lat="43.5197322" lon="11.4300346"><ele>716.0</ele><time>2026-04-18T07:40:15.688Z</time></trkpt><trkpt lat="43.5197721" lon="11.4299642"><ele>716.0</ele><time>2026-04-18T07:40:16.688Z</time></trkpt><trkpt lat="43.5198425" lon="11.4299001"><ele>716.0</ele><time>2026-04-18T07:40:17.688Z</time></trkpt><trkpt lat="43.519927" lon="11.4298252"><ele>716.0</ele><time>2026-04-18T07:40:18.685Z</time></trkpt><trkpt lat="43.5199905" lon="11.4297603"><ele>716.0</ele><time>2026-04-18T07:40:19.688Z</time></trkpt><trkpt lat="43.5200506" lon="11.4297181"><ele>716.0</ele><time>2026-04-18T07:40:20.689Z</time></trkpt><trkpt lat="43.5201247" lon="11.4296706"><ele>716.0</ele><time>2026-04-18T07:40:21.689Z</time></trkpt><trkpt lat="43.5201993" lon="11.4296349"><ele>716.8333333333333</ele><time>2026-04-18T07:40:22.688Z</time></trkpt><trkpt lat="43.5202908" lon="11.4296128"><ele>717.6666666666666</ele><time>2026-04-18T07:40:23.688Z</time></trkpt><trkpt lat="43.5203819" lon="11.4295835"><ele>718.5</ele><time>2026-04-18T07:40:24.681Z</time></trkpt><trkpt lat="43.5204642" lon="11.4295503"><ele>719.3333333333334</ele><time>2026-04-18T07:40:25.689Z</time></trkpt><trkpt lat="43.5205342" lon="11.4295114"><ele>720.1666666666667</ele><time>2026-04-18T07:40:26.689Z</time></trkpt><trkpt lat="43.520585" lon="11.4294473"><ele>721.0</ele><time>2026-04-18T07:40:27.688Z</time></trkpt><trkpt lat="43.5206139" lon="11.4293208"><ele>721.0</ele><time>2026-04-18T07:40:29.688Z</time></trkpt><trkpt lat="43.520624" lon="11.4292268"><ele>721.0</ele><time>2026-04-18T07:40:32.688Z</time></trkpt><trkpt lat="43.5205704" lon="11.4291547"><ele>721.0</ele><time>2026-04-18T07:41:44.688Z</time></trkpt><trkpt lat="43.5204668" lon="11.4291335"><ele>721.0</ele><time>2026-04-18T07:41:46.688Z</time></trkpt><trkpt lat="43.5203929" lon="11.429139"><ele>721.0</ele><time>2026-04-18T07:41:47.688Z</time></trkpt><trkpt lat="43.5202826" lon="11.4291183"><ele>721.0</ele><time>2026-04-18T07:41:49.688Z</time></trkpt><trkpt lat="43.5201504" lon="11.4290853"><ele>721.0</ele><time>2026-04-18T07:41:51.689Z</time></trkpt><trkpt lat="43.5200742" lon="11.4290758"><ele>721.0</ele><time>2026-04-18T07:41:52.688Z</time></trkpt><trkpt lat="43.5199893" lon="11.4290588"><ele>721.0</ele><time>2026-04-18T07:41:53.688Z</time></trkpt><trkpt lat="43.519926" lon="11.4290416"><ele>721.0</ele><time>2026-04-18T07:41:54.689Z</time></trkpt><trkpt lat="43.5198618" lon="11.4290219"><ele>721.0</ele><time>2026-04-18T07:41:55.688Z</time></trkpt><trkpt lat="43.5197687" lon="11.4289374"><ele>721.0</ele><time>2026-04-18T07:41:57.688Z</time></trkpt><trkpt lat="43.5197107" lon="11.428902"><ele>721.0</ele><time>2026-04-18T07:41:58.688Z</time></trkpt><trkpt lat="43.5196446" lon="11.4288782"><ele>721.0</ele><time>2026-04-18T07:41:59.688Z</time></trkpt><trkpt lat="43.5195674" lon="11.428852"><ele>721.0</ele><time>2026-04-18T07:42:00.688Z</time></trkpt><trkpt lat="43.519485" lon="11.4288175"><ele>721.0</ele><time>2026-04-18T07:42:01.688Z</time></trkpt><trkpt lat="43.5194106" lon="11.4287887"><ele>721.0</ele><time>2026-04-18T07:42:02.688Z</time></trkpt><trkpt lat="43.5193335" lon="11.4287605"><ele>721.0</ele><time>2026-04-18T07:42:03.688Z</time></trkpt><trkpt lat="43.5192602" lon="11.4287599"><ele>721.6666666666667</ele><time>2026-04-18T07:42:04.689Z</time></trkpt><trkpt lat="43.519184" lon="11.4287734"><ele>722.3333333333334</ele><time>2026-04-18T07:42:05.688Z</time></trkpt><trkpt lat="43.5191153" lon="11.4288161"><ele>723.0</ele><time>2026-04-18T07:42:07.689Z</time></trkpt><trkpt lat="43.5190263" lon="11.4287727"><ele>723.6666666666666</ele><time>2026-04-18T07:42:09.688Z</time></trkpt><trkpt lat="43.518927" lon="11.4287102"><ele>724.3333333333333</ele><time>2026-04-18T07:42:11.684Z</time></trkpt><trkpt lat="43.5188536" lon="11.4286511"><ele>725.0</ele><time>2026-04-18T07:42:13.688Z</time></trkpt><trkpt lat="43.5187677" lon="11.4285828"><ele>725.0</ele><time>2026-04-18T07:42:15.688Z</time></trkpt><trkpt lat="43.5187166" lon="11.4285262"><ele>725.0</ele><time>2026-04-18T07:42:16.689Z</time></trkpt><trkpt lat="43.5186596" lon="11.4284687"><ele>725.0</ele><time>2026-04-18T07:42:17.688Z</time></trkpt><trkpt lat="43.5185903" lon="11.4284102"><ele>725.0</ele><time>2026-04-18T07:42:18.688Z</time></trkpt><trkpt lat="43.5185194" lon="11.4283505"><ele>725.0</ele><time>2026-04-18T07:42:19.688Z</time></trkpt><trkpt lat="43.5184498" lon="11.4283009"><ele>725.0</ele><time>2026-04-18T07:42:20.689Z</time></trkpt><trkpt lat="43.5183848" lon="11.428248"><ele>725.0</ele><time>2026-04-18T07:42:21.688Z</time></trkpt><trkpt lat="43.5183169" lon="11.4281941"><ele>725.0</ele><time>2026-04-18T07:42:22.688Z</time></trkpt><trkpt lat="43.518248" lon="11.428153"><ele>725.0</ele><time>2026-04-18T07:42:23.688Z</time></trkpt><trkpt lat="43.5181711" lon="11.4281161"><ele>725.0</ele><time>2026-04-18T07:42:24.688Z</time></trkpt><trkpt lat="43.5180905" lon="11.4280828"><ele>725.0</ele><time>2026-04-18T07:42:25.689Z</time></trkpt><trkpt lat="43.5180208" lon="11.4280519"><ele>725.0</ele><time>2026-04-18T07:42:26.688Z</time></trkpt><trkpt lat="43.5179514" lon="11.428035"><ele>722.3333333333333</ele><time>2026-04-18T07:42:27.688Z</time></trkpt><trkpt lat="43.5178462" lon="11.4279278"><ele>719.6666666666666</ele><time>2026-04-18T07:42:29.688Z</time></trkpt><trkpt lat="43.5177919" lon="11.4278734"><ele>717.0</ele><time>2026-04-18T07:42:30.689Z</time></trkpt><trkpt lat="43.5177128" lon="11.4278362"><ele>714.3333333333334</ele><time>2026-04-18T07:42:31.688Z</time></trkpt><trkpt lat="43.517641" lon="11.4277968"><ele>711.6666666666667</ele><time>2026-04-18T07:42:32.689Z</time></trkpt><trkpt lat="43.5175839" lon="11.4277548"><ele>709.0</ele><time>2026-04-18T07:42:33.688Z</time></trkpt><trkpt lat="43.5175313" lon="11.4276992"><ele>709.0</ele><time>2026-04-18T07:42:34.689Z</time></trkpt><trkpt lat="43.5174764" lon="11.4276458"><ele>709.0</ele><time>2026-04-18T07:42:35.688Z</time></trkpt><trkpt lat="43.5173805" lon="11.427558"><ele>709.0</ele><time>2026-04-18T07:42:37.688Z</time></trkpt><trkpt lat="43.5172981" lon="11.4274793"><ele>709.0</ele><time>2026-04-18T07:42:39.688Z</time></trkpt><trkpt lat="43.5172325" lon="11.4274001"><ele>709.0</ele><time>2026-04-18T07:42:41.686Z</time></trkpt><trkpt lat="43.5171427" lon="11.4273425"><ele>708.4000000000001</ele><time>2026-04-18T07:42:43.688Z</time></trkpt><trkpt lat="43.5170521" lon="11.4273256"><ele>707.8</ele><time>2026-04-18T07:42:45.688Z</time></trkpt><trkpt lat="43.5169579" lon="11.427326"><ele>707.2</ele><time>2026-04-18T07:42:47.688Z</time></trkpt><trkpt lat="43.5168509" lon="11.4273231"><ele>706.5999999999999</ele><time>2026-04-18T07:42:49.689Z</time></trkpt><trkpt lat="43.5167372" lon="11.4273131"><ele>706.0</ele><time>2026-04-18T07:42:51.688Z</time></trkpt><trkpt lat="43.5166743" lon="11.4272968"><ele>706.0</ele><time>2026-04-18T07:42:52.689Z</time></trkpt><trkpt lat="43.5165357" lon="11.4273004"><ele>706.0</ele><time>2026-04-18T07:42:54.688Z</time></trkpt><trkpt lat="43.5164591" lon="11.4273157"><ele>706.0</ele><time>2026-04-18T07:42:55.688Z</time></trkpt><trkpt lat="43.5163938" lon="11.4273304"><ele>706.0</ele><time>2026-04-18T07:42:56.688Z</time></trkpt><trkpt lat="43.5163209" lon="11.4273355"><ele>706.0</ele><time>2026-04-18T07:42:57.688Z</time></trkpt><trkpt lat="43.5162474" lon="11.4273638"><ele>706.0</ele><time>2026-04-18T07:42:58.688Z</time></trkpt><trkpt lat="43.5161727" lon="11.4274008"><ele>704.8333333333334</ele><time>2026-04-18T07:42:59.688Z</time></trkpt><trkpt lat="43.5160871" lon="11.4274217"><ele>703.6666666666667</ele><time>2026-04-18T07:43:00.688Z</time></trkpt><trkpt lat="43.5159904" lon="11.4274233"><ele>702.5</ele><time>2026-04-18T07:43:01.688Z</time></trkpt><trkpt lat="43.5158984" lon="11.42743"><ele>701.3333333333334</ele><time>2026-04-18T07:43:02.688Z</time></trkpt><trkpt lat="43.515816" lon="11.4274354"><ele>700.1666666666666</ele><time>2026-04-18T07:43:03.688Z</time></trkpt><trkpt lat="43.51573" lon="11.4274515"><ele>699.0</ele><time>2026-04-18T07:43:04.689Z</time></trkpt><trkpt lat="43.5156395" lon="11.4274625"><ele>699.0</ele><time>2026-04-18T07:43:05.688Z</time></trkpt><trkpt lat="43.5155468" lon="11.4274809"><ele>699.0</ele><time>2026-04-18T07:43:06.688Z</time></trkpt><trkpt lat="43.5154632" lon="11.4275075"><ele>699.0</ele><time>2026-04-18T07:43:07.688Z</time></trkpt><trkpt lat="43.5153945" lon="11.4275199"><ele>699.0</ele><time>2026-04-18T07:43:08.688Z</time></trkpt><trkpt lat="43.5152733" lon="11.4275434"><ele>699.0</ele><time>2026-04-18T07:43:10.688Z</time></trkpt><trkpt lat="43.5151596" lon="11.4275355"><ele>699.0</ele><time>2026-04-18T07:43:12.688Z</time></trkpt><trkpt lat="43.5150572" lon="11.427489"><ele>699.0</ele><time>2026-04-18T07:43:14.689Z</time></trkpt><trkpt lat="43.515011" lon="11.42742"><ele>699.0</ele><time>2026-04-18T07:43:15.688Z</time></trkpt><trkpt lat="43.5149701" lon="11.4273328"><ele>699.0</ele><time>2026-04-18T07:43:16.688Z</time></trkpt><trkpt lat="43.5149088" lon="11.4271656"><ele>699.0</ele><time>2026-04-18T07:43:18.688Z</time></trkpt><trkpt lat="43.5148794" lon="11.4270706"><ele>696.0</ele><time>2026-04-18T07:43:19.688Z</time></trkpt><trkpt lat="43.514844" lon="11.4269715"><ele>693.0</ele><time>2026-04-18T07:43:20.688Z</time></trkpt><trkpt lat="43.5148031" lon="11.42689"><ele>690.0</ele><time>2026-04-18T07:43:21.688Z</time></trkpt><trkpt lat="43.5147358" lon="11.4267852"><ele>687.0</ele><time>2026-04-18T07:43:23.688Z</time></trkpt><trkpt lat="43.5146572" lon="11.426708"><ele>684.0</ele><time>2026-04-18T07:43:25.688Z</time></trkpt><trkpt lat="43.5145525" lon="11.4266319"><ele>684.0</ele><time>2026-04-18T07:43:27.688Z</time></trkpt><trkpt lat="43.514474" lon="11.4265807"><ele>684.0</ele><time>2026-04-18T07:43:29.687Z</time></trkpt><trkpt lat="43.5143968" lon="11.4265606"><ele>684.0</ele><time>2026-04-18T07:43:31.688Z</time></trkpt><trkpt lat="43.5143323" lon="11.4265585"><ele>684.0</ele><time>2026-04-18T07:43:33.689Z</time></trkpt><trkpt lat="43.514266" lon="11.4265759"><ele>684.0</ele><time>2026-04-18T07:43:35.688Z</time></trkpt><trkpt lat="43.5141839" lon="11.4265721"><ele>684.0</ele><time>2026-04-18T07:43:37.688Z</time></trkpt><trkpt lat="43.5141024" lon="11.4265947"><ele>684.0</ele><time>2026-04-18T07:43:39.689Z</time></trkpt><trkpt lat="43.5140111" lon="11.4266022"><ele>684.0</ele><time>2026-04-18T07:43:41.688Z</time></trkpt><trkpt lat="43.5139" lon="11.4265547"><ele>684.0</ele><time>2026-04-18T07:43:43.688Z</time></trkpt><trkpt lat="43.5138408" lon="11.4265173"><ele>684.0</ele><time>2026-04-18T07:43:44.689Z</time></trkpt><trkpt lat="43.5137452" lon="11.4264181"><ele>684.0</ele><time>2026-04-18T07:43:46.687Z</time></trkpt><trkpt lat="43.5137035" lon="11.4263502"><ele>679.0</ele><time>2026-04-18T07:43:47.688Z</time></trkpt><trkpt lat="43.5136254" lon="11.4262452"><ele>674.0</ele><time>2026-04-18T07:43:49.688Z</time></trkpt><trkpt lat="43.5135482" lon="11.4261418"><ele>669.0</ele><time>2026-04-18T07:43:51.688Z</time></trkpt><trkpt lat="43.5134652" lon="11.4260335"><ele>664.0</ele><time>2026-04-18T07:43:53.688Z</time></trkpt><trkpt lat="43.5133965" lon="11.4258947"><ele>664.0</ele><time>2026-04-18T07:43:55.689Z</time></trkpt><trkpt lat="43.5133637" lon="11.4258119"><ele>664.0</ele><time>2026-04-18T07:43:56.688Z</time></trkpt><trkpt lat="43.5133008" lon="11.425664"><ele>664.0</ele><time>2026-04-18T07:43:58.688Z</time></trkpt><trkpt lat="43.5132243" lon="11.4255386"><ele>664.0</ele><time>2026-04-18T07:44:00.688Z</time></trkpt><trkpt lat="43.5131378" lon="11.4254614"><ele>664.0</ele><time>2026-04-18T07:44:02.688Z</time></trkpt><trkpt lat="43.5130793" lon="11.4254147"><ele>660.5</ele><time>2026-04-18T07:44:03.686Z</time></trkpt><trkpt lat="43.5129727" lon="11.4253312"><ele>657.0</ele><time>2026-04-18T07:44:05.688Z</time></trkpt><trkpt lat="43.5128746" lon="11.4252262"><ele>653.5</ele><time>2026-04-18T07:44:07.688Z</time></trkpt><trkpt lat="43.5127946" lon="11.4251142"><ele>650.0</ele><time>2026-04-18T07:44:09.688Z</time></trkpt><trkpt lat="43.5127354" lon="11.4249795"><ele>650.0</ele><time>2026-04-18T07:44:11.684Z</time></trkpt><trkpt lat="43.5126902" lon="11.4248335"><ele>650.0</ele><time>2026-04-18T07:44:13.688Z</time></trkpt><trkpt lat="43.5125892" lon="11.4247287"><ele>650.0</ele><time>2026-04-18T07:44:15.688Z</time></trkpt><trkpt lat="43.5125286" lon="11.4246825"><ele>650.0</ele><time>2026-04-18T07:44:16.689Z</time></trkpt><trkpt lat="43.5124209" lon="11.4245774"><ele>650.0</ele><time>2026-04-18T07:44:18.688Z</time></trkpt><trkpt lat="43.5123629" lon="11.4244935"><ele>647.8333333333333</ele><time>2026-04-18T07:44:19.689Z</time></trkpt><trkpt lat="43.5123092" lon="11.4244236"><ele>645.6666666666666</ele><time>2026-04-18T07:44:20.688Z</time></trkpt><trkpt lat="43.5122568" lon="11.4243528"><ele>643.5</ele><time>2026-04-18T07:44:21.688Z</time></trkpt><trkpt lat="43.5121765" lon="11.4242537"><ele>641.3333333333334</ele><time>2026-04-18T07:44:23.688Z</time></trkpt><trkpt lat="43.5121174" lon="11.424196"><ele>639.1666666666667</ele><time>2026-04-18T07:44:26.688Z</time></trkpt><trkpt lat="43.5120436" lon="11.4242081"><ele>637.0</ele><time>2026-04-18T07:44:45.681Z</time></trkpt><trkpt lat="43.5119436" lon="11.4242281"><ele>635.8000000000001</ele><time>2026-04-18T07:44:47.689Z</time></trkpt><trkpt lat="43.5118451" lon="11.4242445"><ele>634.6</ele><time>2026-04-18T07:44:49.688Z</time></trkpt><trkpt lat="43.5117461" lon="11.424266"><ele>633.4000000000001</ele><time>2026-04-18T07:44:51.689Z</time></trkpt><trkpt lat="43.5116553" lon="11.424291"><ele>632.2</ele><time>2026-04-18T07:44:53.688Z</time></trkpt><trkpt lat="43.511557" lon="11.4243132"><ele>631.0</ele><time>2026-04-18T07:44:55.688Z</time></trkpt><trkpt lat="43.511461" lon="11.4243329"><ele>631.0</ele><time>2026-04-18T07:44:57.688Z</time></trkpt><trkpt lat="43.5113627" lon="11.4243638"><ele>631.0</ele><time>2026-04-18T07:44:59.688Z</time></trkpt><trkpt lat="43.5113019" lon="11.4243904"><ele>631.0</ele><time>2026-04-18T07:45:00.688Z</time></trkpt><trkpt lat="43.5112353" lon="11.4244304"><ele>631.0</ele><time>2026-04-18T07:45:01.689Z</time></trkpt><trkpt lat="43.5111671" lon="11.4244698"><ele>631.0</ele><time>2026-04-18T07:45:02.688Z</time></trkpt><trkpt lat="43.5110997" lon="11.4245136"><ele>631.0</ele><time>2026-04-18T07:45:03.688Z</time></trkpt><trkpt lat="43.5110262" lon="11.4245355"><ele>629.1666666666667</ele><time>2026-04-18T07:45:04.688Z</time></trkpt><trkpt lat="43.5109521" lon="11.4245527"><ele>627.3333333333334</ele><time>2026-04-18T07:45:05.689Z</time></trkpt><trkpt lat="43.5108773" lon="11.4245641"><ele>625.5</ele><time>2026-04-18T07:45:06.688Z</time></trkpt><trkpt lat="43.5107773" lon="11.4245909"><ele>623.6666666666666</ele><time>2026-04-18T07:45:08.689Z</time></trkpt><trkpt lat="43.510698" lon="11.4246182"><ele>621.8333333333333</ele><time>2026-04-18T07:45:10.688Z</time></trkpt><trkpt lat="43.5106065" lon="11.424639"><ele>620.0</ele><time>2026-04-18T07:45:12.688Z</time></trkpt><trkpt lat="43.5105029" lon="11.4246826"><ele>620.0</ele><time>2026-04-18T07:45:14.689Z</time></trkpt><trkpt lat="43.5104422" lon="11.4247176"><ele>620.0</ele><time>2026-04-18T07:45:15.689Z</time></trkpt><trkpt lat="43.5103512" lon="11.4247957"><ele>620.0</ele><time>2026-04-18T07:45:16.688Z</time></trkpt><trkpt lat="43.5102803" lon="11.4248804"><ele>620.0</ele><time>2026-04-18T07:45:17.688Z</time></trkpt><trkpt lat="43.510211" lon="11.4249344"><ele>620.0</ele><time>2026-04-18T07:45:18.688Z</time></trkpt><trkpt lat="43.510158" lon="11.4249911"><ele>620.0</ele><time>2026-04-18T07:45:19.688Z</time></trkpt><trkpt lat="43.510115" lon="11.4250601"><ele>617.1666666666666</ele><time>2026-04-18T07:45:20.684Z</time></trkpt><trkpt lat="43.5100704" lon="11.4251327"><ele>614.3333333333333</ele><time>2026-04-18T07:45:21.688Z</time></trkpt><trkpt lat="43.510018" lon="11.4252009"><ele>611.5</ele><time>2026-04-18T07:45:22.688Z</time></trkpt><trkpt lat="43.509955" lon="11.4252538"><ele>608.6666666666666</ele><time>2026-04-18T07:45:23.688Z</time></trkpt><trkpt lat="43.5098468" lon="11.425339"><ele>605.8333333333334</ele><time>2026-04-18T07:45:25.688Z</time></trkpt><trkpt lat="43.5097648" lon="11.4253997"><ele>603.0</ele><time>2026-04-18T07:45:27.688Z</time></trkpt><trkpt lat="43.5096945" lon="11.4254398"><ele>604.0</ele><time>2026-04-18T07:45:29.689Z</time></trkpt><trkpt lat="43.5095997" lon="11.4254874"><ele>605.0</ele><time>2026-04-18T07:45:31.688Z</time></trkpt><trkpt lat="43.509541" lon="11.4255288"><ele>606.0</ele><time>2026-04-18T07:45:32.689Z</time></trkpt><trkpt lat="43.5094462" lon="11.4255849"><ele>607.0</ele><time>2026-04-18T07:45:34.688Z</time></trkpt><trkpt lat="43.5093571" lon="11.4255729"><ele>608.0</ele><time>2026-04-18T07:45:36.686Z</time></trkpt><trkpt lat="43.5092351" lon="11.4255604"><ele>608.0</ele><time>2026-04-18T07:45:38.688Z</time></trkpt><trkpt lat="43.5091682" lon="11.4255611"><ele>608.0</ele><time>2026-04-18T07:45:39.689Z</time></trkpt><trkpt lat="43.509102" lon="11.4255734"><ele>608.0</ele><time>2026-04-18T07:45:40.688Z</time></trkpt><trkpt lat="43.5089907" lon="11.4256068"><ele>608.0</ele><time>2026-04-18T07:45:42.688Z</time></trkpt><trkpt lat="43.5088992" lon="11.4256424"><ele>608.0</ele><time>2026-04-18T07:45:44.686Z</time></trkpt><trkpt lat="43.5088282" lon="11.425658"><ele>608.0</ele><time>2026-04-18T07:45:45.688Z</time></trkpt><trkpt lat="43.5087557" lon="11.4256808"><ele>607.1666666666666</ele><time>2026-04-18T07:45:46.688Z</time></trkpt><trkpt lat="43.5086909" lon="11.4256805"><ele>606.3333333333333</ele><time>2026-04-18T07:45:47.683Z</time></trkpt><trkpt lat="43.5086276" lon="11.425661"><ele>605.5</ele><time>2026-04-18T07:45:48.688Z</time></trkpt><trkpt lat="43.5085661" lon="11.4256414"><ele>604.6666666666666</ele><time>2026-04-18T07:45:49.688Z</time></trkpt><trkpt lat="43.5084606" lon="11.4255752"><ele>603.8333333333334</ele><time>2026-04-18T07:45:51.689Z</time></trkpt><trkpt lat="43.5083794" lon="11.4255134"><ele>603.0</ele><time>2026-04-18T07:45:53.685Z</time></trkpt><trkpt lat="43.5083253" lon="11.4254293"><ele>603.0</ele><time>2026-04-18T07:45:55.687Z</time></trkpt><trkpt lat="43.5082407" lon="11.4253933"><ele>603.0</ele><time>2026-04-18T07:45:57.686Z</time></trkpt><trkpt lat="43.5081346" lon="11.425516"><ele>603.0</ele><time>2026-04-18T07:45:59.686Z</time></trkpt><trkpt lat="43.5080722" lon="11.4256062"><ele>603.0</ele><time>2026-04-18T07:46:00.688Z</time></trkpt><trkpt lat="43.5079854" lon="11.42571"><ele>603.0</ele><time>2026-04-18T07:46:01.679Z</time></trkpt><trkpt lat="43.5078929" lon="11.4257892"><ele>602.3333333333334</ele><time>2026-04-18T07:46:02.688Z</time></trkpt><trkpt lat="43.507816" lon="11.4258631"><ele>601.6666666666666</ele><time>2026-04-18T07:46:03.688Z</time></trkpt><trkpt lat="43.5077595" lon="11.4259341"><ele>601.0</ele><time>2026-04-18T07:46:04.688Z</time></trkpt><trkpt lat="43.507694" lon="11.4260056"><ele>600.3333333333333</ele><time>2026-04-18T07:46:05.687Z</time></trkpt><trkpt lat="43.5076329" lon="11.4260499"><ele>599.6666666666666</ele><time>2026-04-18T07:46:06.688Z</time></trkpt><trkpt lat="43.5075486" lon="11.4260932"><ele>599.0</ele><time>2026-04-18T07:46:08.688Z</time></trkpt><trkpt lat="43.5074837" lon="11.4261216"><ele>599.0</ele><time>2026-04-18T07:46:10.688Z</time></trkpt><trkpt lat="43.5074168" lon="11.4260752"><ele>599.0</ele><time>2026-04-18T07:46:13.688Z</time></trkpt><trkpt lat="43.5073964" lon="11.4259738"><ele>599.0</ele><time>2026-04-18T07:46:15.689Z</time></trkpt><trkpt lat="43.5073877" lon="11.4258854"><ele>599.0</ele><time>2026-04-18T07:46:16.688Z</time></trkpt><trkpt lat="43.5074126" lon="11.4257756"><ele>599.0</ele><time>2026-04-18T07:46:17.687Z</time></trkpt><trkpt lat="43.507458" lon="11.425674"><ele>599.0</ele><time>2026-04-18T07:46:18.689Z</time></trkpt><trkpt lat="43.5074884" lon="11.4255954"><ele>599.0</ele><time>2026-04-18T07:46:19.688Z</time></trkpt><trkpt lat="43.5075034" lon="11.4255027"><ele>599.0</ele><time>2026-04-18T07:46:20.688Z</time></trkpt><trkpt lat="43.5075141" lon="11.4254165"><ele>599.0</ele><time>2026-04-18T07:46:21.688Z</time></trkpt><trkpt lat="43.5075321" lon="11.4253119"><ele>599.0</ele><time>2026-04-18T07:46:22.688Z</time></trkpt><trkpt lat="43.5075684" lon="11.4252263"><ele>599.0</ele><time>2026-04-18T07:46:23.688Z</time></trkpt><trkpt lat="43.507602" lon="11.4251505"><ele>599.0</ele><time>2026-04-18T07:46:24.689Z</time></trkpt><trkpt lat="43.5076647" lon="11.4250052"><ele>598.0</ele><time>2026-04-18T07:46:26.688Z</time></trkpt><trkpt lat="43.5076906" lon="11.424916"><ele>597.0</ele><time>2026-04-18T07:46:27.689Z</time></trkpt><trkpt lat="43.5077097" lon="11.4247426"><ele>596.0</ele><time>2026-04-18T07:46:29.688Z</time></trkpt><trkpt lat="43.5077051" lon="11.4246356"><ele>595.0</ele><time>2026-04-18T07:46:30.688Z</time></trkpt><trkpt lat="43.5077009" lon="11.4245296"><ele>594.0</ele><time>2026-04-18T07:46:31.684Z</time></trkpt><trkpt lat="43.5077183" lon="11.4244297"><ele>593.0</ele><time>2026-04-18T07:46:32.689Z</time></trkpt><trkpt lat="43.5077285" lon="11.4243247"><ele>592.3333333333333</ele><time>2026-04-18T07:46:33.688Z</time></trkpt><trkpt lat="43.5077147" lon="11.4241635"><ele>591.6666666666666</ele><time>2026-04-18T07:46:35.688Z</time></trkpt><trkpt lat="43.5076738" lon="11.424082"><ele>591.0</ele><time>2026-04-18T07:46:36.688Z</time></trkpt><trkpt lat="43.507627" lon="11.4239963"><ele>590.3333333333334</ele><time>2026-04-18T07:46:37.688Z</time></trkpt><trkpt lat="43.5075759" lon="11.423924"><ele>589.6666666666667</ele><time>2026-04-18T07:46:38.688Z</time></trkpt><trkpt lat="43.5075277" lon="11.423836"><ele>589.0</ele><time>2026-04-18T07:46:39.688Z</time></trkpt><trkpt lat="43.5074828" lon="11.4237486"><ele>589.0</ele><time>2026-04-18T07:46:40.688Z</time></trkpt><trkpt lat="43.5074541" lon="11.4236595"><ele>589.0</ele><time>2026-04-18T07:46:41.686Z</time></trkpt><trkpt lat="43.5074528" lon="11.4235611"><ele>589.0</ele><time>2026-04-18T07:46:42.689Z</time></trkpt><trkpt lat="43.5074652" lon="11.4234325"><ele>589.0</ele><time>2026-04-18T07:46:43.688Z</time></trkpt><trkpt lat="43.5074956" lon="11.4233132"><ele>589.0</ele><time>2026-04-18T07:46:44.688Z</time></trkpt><trkpt lat="43.5075101" lon="11.4232192"><ele>589.0</ele><time>2026-04-18T07:46:45.688Z</time></trkpt><trkpt lat="43.5074838" lon="11.4230721"><ele>589.6</ele><time>2026-04-18T07:46:47.688Z</time></trkpt><trkpt lat="43.5074539" lon="11.4229415"><ele>590.2</ele><time>2026-04-18T07:46:49.688Z</time></trkpt><trkpt lat="43.5074776" lon="11.4227864"><ele>590.8000000000001</ele><time>2026-04-18T07:46:51.688Z</time></trkpt><trkpt lat="43.5075324" lon="11.4227168"><ele>591.4</ele><time>2026-04-18T07:46:52.688Z</time></trkpt><trkpt lat="43.507579" lon="11.4226233"><ele>592.0</ele><time>2026-04-18T07:46:53.689Z</time></trkpt><trkpt lat="43.5076043" lon="11.4225141"><ele>592.0</ele><time>2026-04-18T07:46:54.688Z</time></trkpt><trkpt lat="43.5076228" lon="11.4223855"><ele>592.0</ele><time>2026-04-18T07:46:55.688Z</time></trkpt><trkpt lat="43.5076421" lon="11.422244"><ele>592.0</ele><time>2026-04-18T07:46:56.688Z</time></trkpt><trkpt lat="43.5076745" lon="11.422102"><ele>592.0</ele><time>2026-04-18T07:46:57.683Z</time></trkpt><trkpt lat="43.5076952" lon="11.4219783"><ele>592.0</ele><time>2026-04-18T07:46:58.689Z</time></trkpt><trkpt lat="43.507696" lon="11.4218744"><ele>592.1666666666667</ele><time>2026-04-18T07:46:59.689Z</time></trkpt><trkpt lat="43.5076834" lon="11.421779"><ele>592.3333333333334</ele><time>2026-04-18T07:47:00.687Z</time></trkpt><trkpt lat="43.5076417" lon="11.4216835"><ele>592.5</ele><time>2026-04-18T07:47:01.688Z</time></trkpt><trkpt lat="43.5075902" lon="11.4216075"><ele>592.6666666666666</ele><time>2026-04-18T07:47:02.688Z</time></trkpt><trkpt lat="43.5075332" lon="11.4215427"><ele>592.8333333333333</ele><time>2026-04-18T07:47:03.688Z</time></trkpt><trkpt lat="43.5074589" lon="11.4213949"><ele>593.0</ele><time>2026-04-18T07:47:05.688Z</time></trkpt><trkpt lat="43.5074332" lon="11.4213011"><ele>592.0</ele><time>2026-04-18T07:47:06.689Z</time></trkpt><trkpt lat="43.5074077" lon="11.4211335"><ele>591.0</ele><time>2026-04-18T07:47:07.688Z</time></trkpt><trkpt lat="43.5073837" lon="11.4210062"><ele>590.0</ele><time>2026-04-18T07:47:08.689Z</time></trkpt><trkpt lat="43.5073641" lon="11.4208784"><ele>589.0</ele><time>2026-04-18T07:47:09.688Z</time></trkpt><trkpt lat="43.5073373" lon="11.4207746"><ele>588.0</ele><time>2026-04-18T07:47:10.688Z</time></trkpt><trkpt lat="43.507311" lon="11.4206773"><ele>588.0</ele><time>2026-04-18T07:47:11.689Z</time></trkpt><trkpt lat="43.5072513" lon="11.4205266"><ele>588.0</ele><time>2026-04-18T07:47:13.688Z</time></trkpt><trkpt lat="43.5071866" lon="11.4204877"><ele>588.0</ele><time>2026-04-18T07:47:14.688Z</time></trkpt><trkpt lat="43.5070814" lon="11.4204309"><ele>588.0</ele><time>2026-04-18T07:47:15.686Z</time></trkpt><trkpt lat="43.5069813" lon="11.4203766"><ele>588.0</ele><time>2026-04-18T07:47:16.689Z</time></trkpt><trkpt lat="43.5068791" lon="11.4203385"><ele>590.6666666666666</ele><time>2026-04-18T07:47:17.686Z</time></trkpt><trkpt lat="43.5067776" lon="11.4203214"><ele>593.3333333333334</ele><time>2026-04-18T07:47:18.688Z</time></trkpt><trkpt lat="43.5066872" lon="11.4203129"><ele>596.0</ele><time>2026-04-18T07:47:19.688Z</time></trkpt><trkpt lat="43.5066027" lon="11.4203112"><ele>598.6666666666667</ele><time>2026-04-18T07:47:20.689Z</time></trkpt><trkpt lat="43.5065243" lon="11.4203012"><ele>601.3333333333334</ele><time>2026-04-18T07:47:21.688Z</time></trkpt><trkpt lat="43.5064449" lon="11.4202791"><ele>604.0</ele><time>2026-04-18T07:47:22.688Z</time></trkpt><trkpt lat="43.5063844" lon="11.4202501"><ele>604.0</ele><time>2026-04-18T07:47:23.689Z</time></trkpt><trkpt lat="43.5063118" lon="11.4202095"><ele>604.0</ele><time>2026-04-18T07:47:24.688Z</time></trkpt><trkpt lat="43.5062223" lon="11.4201137"><ele>604.0</ele><time>2026-04-18T07:47:26.688Z</time></trkpt><trkpt lat="43.5062181" lon="11.4199987"><ele>604.0</ele><time>2026-04-18T07:47:28.688Z</time></trkpt><trkpt lat="43.506269" lon="11.4199392"><ele>604.0</ele><time>2026-04-18T07:47:29.68Z</time></trkpt><trkpt lat="43.506312" lon="11.4198756"><ele>604.0</ele><time>2026-04-18T07:47:30.688Z</time></trkpt><trkpt lat="43.5063498" lon="11.419797"><ele>604.0</ele><time>2026-04-18T07:47:31.689Z</time></trkpt><trkpt lat="43.5063849" lon="11.4197065"><ele>604.0</ele><time>2026-04-18T07:47:32.688Z</time></trkpt><trkpt lat="43.5063888" lon="11.4196059"><ele>604.0</ele><time>2026-04-18T07:47:33.688Z</time></trkpt><trkpt lat="43.5063793" lon="11.4195117"><ele>604.0</ele><time>2026-04-18T07:47:34.689Z</time></trkpt><trkpt lat="43.5063799" lon="11.4194197"><ele>604.0</ele><time>2026-04-18T07:47:35.689Z</time></trkpt><trkpt lat="43.5064677" lon="11.4192984"><ele>604.0</ele><time>2026-04-18T07:47:37.689Z</time></trkpt><trkpt lat="43.5065347" lon="11.4192681"><ele>604.8333333333334</ele><time>2026-04-18T07:47:38.688Z</time></trkpt><trkpt lat="43.5065966" lon="11.4192267"><ele>605.6666666666667</ele><time>2026-04-18T07:47:39.688Z</time></trkpt><trkpt lat="43.5066831" lon="11.4190917"><ele>606.5</ele><time>2026-04-18T07:47:41.688Z</time></trkpt><trkpt lat="43.5066977" lon="11.4190048"><ele>607.3333333333334</ele><time>2026-04-18T07:47:42.688Z</time></trkpt><trkpt lat="43.5067274" lon="11.4189"><ele>608.1666666666666</ele><time>2026-04-18T07:47:43.688Z</time></trkpt><trkpt lat="43.5067454" lon="11.4187935"><ele>609.0</ele><time>2026-04-18T07:47:44.688Z</time></trkpt><trkpt lat="43.5067825" lon="11.4187113"><ele>610.5</ele><time>2026-04-18T07:47:45.688Z</time></trkpt><trkpt lat="43.5068385" lon="11.4186519"><ele>612.0</ele><time>2026-04-18T07:47:46.689Z</time></trkpt><trkpt lat="43.5068959" lon="11.4185959"><ele>613.5</ele><time>2026-04-18T07:47:47.688Z</time></trkpt><trkpt lat="43.5069551" lon="11.4185326"><ele>615.0</ele><time>2026-04-18T07:47:48.688Z</time></trkpt><trkpt lat="43.5070159" lon="11.4184768"><ele>616.5</ele><time>2026-04-18T07:47:49.688Z</time></trkpt><trkpt lat="43.507051" lon="11.4183112"><ele>618.0</ele><time>2026-04-18T07:47:51.688Z</time></trkpt><trkpt lat="43.5070393" lon="11.4182037"><ele>618.0</ele><time>2026-04-18T07:47:52.688Z</time></trkpt><trkpt lat="43.5070121" lon="11.418076"><ele>618.0</ele><time>2026-04-18T07:47:53.688Z</time></trkpt><trkpt lat="43.5069826" lon="11.417942"><ele>618.0</ele><time>2026-04-18T07:47:54.689Z</time></trkpt><trkpt lat="43.5069626" lon="11.4178096"><ele>618.0</ele><time>2026-04-18T07:47:55.689Z</time></trkpt><trkpt lat="43.506946" lon="11.4176987"><ele>618.0</ele><time>2026-04-18T07:47:56.688Z</time></trkpt><trkpt lat="43.5069245" lon="11.4175795"><ele>616.6666666666666</ele><time>2026-04-18T07:47:57.688Z</time></trkpt><trkpt lat="43.5068956" lon="11.4174604"><ele>615.3333333333334</ele><time>2026-04-18T07:47:58.688Z</time></trkpt><trkpt lat="43.506862" lon="11.4173426"><ele>614.0</ele><time>2026-04-18T07:47:59.688Z</time></trkpt><trkpt lat="43.5068435" lon="11.417243"><ele>612.6666666666667</ele><time>2026-04-18T07:48:00.688Z</time></trkpt><trkpt lat="43.506831" lon="11.4171217"><ele>611.3333333333334</ele><time>2026-04-18T07:48:02.688Z</time></trkpt><trkpt lat="43.5068176" lon="11.4170253"><ele>610.0</ele><time>2026-04-18T07:58:19.687Z</time></trkpt><trkpt lat="43.5067669" lon="11.4171153"><ele>610.0</ele><time>2026-04-18T07:58:25.688Z</time></trkpt><trkpt lat="43.5066992" lon="11.4171358"><ele>610.0</ele><time>2026-04-18T07:58:27.688Z</time></trkpt><trkpt lat="43.5065987" lon="11.4171336"><ele>610.0</ele><time>2026-04-18T07:58:30.688Z</time></trkpt><trkpt lat="43.5065076" lon="11.4171538"><ele>610.0</ele><time>2026-04-18T07:58:32.688Z</time></trkpt><trkpt lat="43.5064233" lon="11.417231"><ele>610.0</ele><time>2026-04-18T07:58:34.688Z</time></trkpt><trkpt lat="43.5063317" lon="11.4172973"><ele>610.0</ele><time>2026-04-18T07:58:36.688Z</time></trkpt><trkpt lat="43.5062568" lon="11.417386"><ele>610.0</ele><time>2026-04-18T07:58:38.688Z</time></trkpt><trkpt lat="43.5062137" lon="11.4174823"><ele>610.0</ele><time>2026-04-18T07:58:40.688Z</time></trkpt><trkpt lat="43.5061816" lon="11.4175887"><ele>610.0</ele><time>2026-04-18T07:58:42.689Z</time></trkpt><trkpt lat="43.5061105" lon="11.4176634"><ele>610.0</ele><time>2026-04-18T07:58:44.689Z</time></trkpt><trkpt lat="43.5060435" lon="11.4177452"><ele>610.0</ele><time>2026-04-18T07:58:46.688Z</time></trkpt><trkpt lat="43.5059898" lon="11.4178738"><ele>611.6666666666667</ele><time>2026-04-18T07:58:48.689Z</time></trkpt><trkpt lat="43.5059531" lon="11.4179534"><ele>613.3333333333334</ele><time>2026-04-18T07:58:49.688Z</time></trkpt><trkpt lat="43.5059313" lon="11.418038"><ele>615.0</ele><time>2026-04-18T07:58:50.689Z</time></trkpt><trkpt lat="43.5059072" lon="11.4181401"><ele>616.6666666666666</ele><time>2026-04-18T07:58:51.688Z</time></trkpt><trkpt lat="43.5058712" lon="11.418278"><ele>618.3333333333333</ele><time>2026-04-18T07:58:53.688Z</time></trkpt><trkpt lat="43.5058368" lon="11.4183546"><ele>620.0</ele><time>2026-04-18T07:58:54.688Z</time></trkpt><trkpt lat="43.5057997" lon="11.418453"><ele>622.4</ele><time>2026-04-18T07:58:55.688Z</time></trkpt><trkpt lat="43.505762" lon="11.4185534"><ele>624.8</ele><time>2026-04-18T07:58:56.688Z</time></trkpt><trkpt lat="43.505708" lon="11.4186841"><ele>627.2</ele><time>2026-04-18T07:58:58.688Z</time></trkpt><trkpt lat="43.5057042" lon="11.4188113"><ele>629.6</ele><time>2026-04-18T07:59:00.688Z</time></trkpt><trkpt lat="43.5057021" lon="11.4189016"><ele>632.0</ele><time>2026-04-18T07:59:01.688Z</time></trkpt><trkpt lat="43.505651" lon="11.4190336"><ele>632.1666666666666</ele><time>2026-04-18T07:59:03.688Z</time></trkpt><trkpt lat="43.5055931" lon="11.4190874"><ele>632.3333333333333</ele><time>2026-04-18T07:59:04.688Z</time></trkpt><trkpt lat="43.5055324" lon="11.41914"><ele>632.5</ele><time>2026-04-18T07:59:05.688Z</time></trkpt><trkpt lat="43.5054679" lon="11.419184"><ele>632.6666666666666</ele><time>2026-04-18T07:59:06.688Z</time></trkpt><trkpt lat="43.5053462" lon="11.419217"><ele>632.8333333333334</ele><time>2026-04-18T07:59:08.689Z</time></trkpt><trkpt lat="43.5052436" lon="11.419236"><ele>633.0</ele><time>2026-04-18T07:59:10.688Z</time></trkpt><trkpt lat="43.5051891" lon="11.4192999"><ele>635.2</ele><time>2026-04-18T07:59:12.688Z</time></trkpt><trkpt lat="43.5050942" lon="11.4193992"><ele>637.4</ele><time>2026-04-18T07:59:14.688Z</time></trkpt><trkpt lat="43.5050393" lon="11.419549"><ele>639.6</ele><time>2026-04-18T07:59:16.689Z</time></trkpt><trkpt lat="43.5050288" lon="11.4196418"><ele>641.8000000000001</ele><time>2026-04-18T07:59:17.688Z</time></trkpt><trkpt lat="43.5050214" lon="11.419728"><ele>644.0</ele><time>2026-04-18T07:59:18.688Z</time></trkpt><trkpt lat="43.5049984" lon="11.4198708"><ele>646.6</ele><time>2026-04-18T07:59:20.688Z</time></trkpt><trkpt lat="43.5049692" lon="11.420015"><ele>649.2</ele><time>2026-04-18T07:59:22.688Z</time></trkpt><trkpt lat="43.5050076" lon="11.4201566"><ele>651.8000000000001</ele><time>2026-04-18T07:59:24.688Z</time></trkpt><trkpt lat="43.5050406" lon="11.4202487"><ele>654.4000000000001</ele><time>2026-04-18T07:59:25.689Z</time></trkpt><trkpt lat="43.5050711" lon="11.4203265"><ele>657.0</ele><time>2026-04-18T07:59:26.688Z</time></trkpt><trkpt lat="43.5051407" lon="11.4204856"><ele>658.8571428571428</ele><time>2026-04-18T07:59:28.688Z</time></trkpt><trkpt lat="43.5051683" lon="11.4205794"><ele>660.7142857142858</ele><time>2026-04-18T07:59:29.688Z</time></trkpt><trkpt lat="43.5051871" lon="11.4206801"><ele>662.5714285714286</ele><time>2026-04-18T07:59:30.688Z</time></trkpt><trkpt lat="43.5051925" lon="11.4207679"><ele>664.4285714285713</ele><time>2026-04-18T07:59:31.688Z</time></trkpt><trkpt lat="43.5051969" lon="11.4208697"><ele>666.2857142857142</ele><time>2026-04-18T07:59:32.688Z</time></trkpt><trkpt lat="43.5052108" lon="11.4209798"><ele>668.1428571428571</ele><time>2026-04-18T07:59:33.688Z</time></trkpt><trkpt lat="43.5052256" lon="11.4210738"><ele>670.0</ele><time>2026-04-18T07:59:34.688Z</time></trkpt><trkpt lat="43.5052561" lon="11.4212144"><ele>670.0</ele><time>2026-04-18T07:59:36.688Z</time></trkpt><trkpt lat="43.5053257" lon="11.4213095"><ele>670.0</ele><time>2026-04-18T07:59:38.688Z</time></trkpt><trkpt lat="43.5054096" lon="11.4214127"><ele>670.0</ele><time>2026-04-18T07:59:40.689Z</time></trkpt><trkpt lat="43.5054728" lon="11.4215494"><ele>670.0</ele><time>2026-04-18T07:59:42.688Z</time></trkpt><trkpt lat="43.5055132" lon="11.4216964"><ele>670.0</ele><time>2026-04-18T07:59:44.688Z</time></trkpt><trkpt lat="43.5055431" lon="11.4218625"><ele>668.3333333333334</ele><time>2026-04-18T07:59:46.688Z</time></trkpt><trkpt lat="43.5055562" lon="11.4219593"><ele>666.6666666666667</ele><time>2026-04-18T07:59:47.688Z</time></trkpt><trkpt lat="43.5055695" lon="11.4220701"><ele>665.0</ele><time>2026-04-18T07:59:48.688Z</time></trkpt><trkpt lat="43.5055792" lon="11.4221783"><ele>663.3333333333334</ele><time>2026-04-18T07:59:49.688Z</time></trkpt><trkpt lat="43.5055939" lon="11.4222908"><ele>661.6666666666666</ele><time>2026-04-18T07:59:50.688Z</time></trkpt><trkpt lat="43.5056022" lon="11.4223992"><ele>660.0</ele><time>2026-04-18T07:59:51.688Z</time></trkpt><trkpt lat="43.5055999" lon="11.4224994"><ele>659.6666666666666</ele><time>2026-04-18T07:59:52.688Z</time></trkpt><trkpt lat="43.5055828" lon="11.422597"><ele>659.3333333333334</ele><time>2026-04-18T07:59:53.688Z</time></trkpt><trkpt lat="43.5055551" lon="11.4226934"><ele>659.0</ele><time>2026-04-18T07:59:54.688Z</time></trkpt><trkpt lat="43.5055269" lon="11.42278"><ele>658.6666666666667</ele><time>2026-04-18T07:59:55.688Z</time></trkpt><trkpt lat="43.5054986" lon="11.4229447"><ele>658.3333333333334</ele><time>2026-04-18T07:59:57.689Z</time></trkpt><trkpt lat="43.5055018" lon="11.4230368"><ele>658.0</ele><time>2026-04-18T07:59:58.688Z</time></trkpt><trkpt lat="43.5055108" lon="11.4231416"><ele>658.0</ele><time>2026-04-18T07:59:59.689Z</time></trkpt><trkpt lat="43.5055024" lon="11.4233018"><ele>658.0</ele><time>2026-04-18T08:00:01.689Z</time></trkpt><trkpt lat="43.505516" lon="11.4234416"><ele>658.0</ele><time>2026-04-18T08:00:03.688Z</time></trkpt><trkpt lat="43.5054934" lon="11.4235603"><ele>658.0</ele><time>2026-04-18T08:00:05.688Z</time></trkpt><trkpt lat="43.5054147" lon="11.4236619"><ele>658.0</ele><time>2026-04-18T08:00:07.688Z</time></trkpt><trkpt lat="43.5053526" lon="11.4237513"><ele>660.4</ele><time>2026-04-18T08:00:09.688Z</time></trkpt><trkpt lat="43.5052873" lon="11.4238967"><ele>662.8</ele><time>2026-04-18T08:00:11.688Z</time></trkpt><trkpt lat="43.5052746" lon="11.4239881"><ele>665.2</ele><time>2026-04-18T08:00:12.688Z</time></trkpt><trkpt lat="43.5052516" lon="11.4240738"><ele>667.6</ele><time>2026-04-18T08:00:13.688Z</time></trkpt><trkpt lat="43.5052063" lon="11.4241563"><ele>670.0</ele><time>2026-04-18T08:00:14.688Z</time></trkpt><trkpt lat="43.5051304" lon="11.4242952"><ele>669.9999999999999</ele><time>2026-04-18T08:00:16.689Z</time></trkpt><trkpt lat="43.5051089" lon="11.4243857"><ele>670.0</ele><time>2026-04-18T08:00:17.688Z</time></trkpt><trkpt lat="43.5050969" lon="11.4244813"><ele>670.0</ele><time>2026-04-18T08:00:18.688Z</time></trkpt><trkpt lat="43.5050868" lon="11.4245826"><ele>670.0</ele><time>2026-04-18T08:00:19.688Z</time></trkpt><trkpt lat="43.5050843" lon="11.4246725"><ele>670.0</ele><time>2026-04-18T08:00:20.688Z</time></trkpt><trkpt lat="43.5050823" lon="11.4247614"><ele>669.9999999999999</ele><time>2026-04-18T08:00:21.688Z</time></trkpt><trkpt lat="43.5050661" lon="11.4248587"><ele>670.0</ele><time>2026-04-18T08:00:22.688Z</time></trkpt><trkpt lat="43.5050412" lon="11.424943"><ele>671.5</ele><time>2026-04-18T08:00:23.689Z</time></trkpt><trkpt lat="43.5050063" lon="11.4250235"><ele>673.0</ele><time>2026-04-18T08:00:24.688Z</time></trkpt><trkpt lat="43.5049584" lon="11.425095"><ele>674.5</ele><time>2026-04-18T08:00:25.688Z</time></trkpt><trkpt lat="43.5048972" lon="11.4251757"><ele>676.0</ele><time>2026-04-18T08:00:26.688Z</time></trkpt><trkpt lat="43.5048388" lon="11.4252663"><ele>677.5</ele><time>2026-04-18T08:00:27.688Z</time></trkpt><trkpt lat="43.504795" lon="11.4253384"><ele>679.0</ele><time>2026-04-18T08:00:28.688Z</time></trkpt><trkpt lat="43.504731" lon="11.4254727"><ele>678.6</ele><time>2026-04-18T08:00:30.689Z</time></trkpt><trkpt lat="43.5047103" lon="11.4256452"><ele>678.2</ele><time>2026-04-18T08:00:32.688Z</time></trkpt><trkpt lat="43.5047176" lon="11.4257388"><ele>677.8000000000001</ele><time>2026-04-18T08:00:33.688Z</time></trkpt><trkpt lat="43.5047233" lon="11.4258377"><ele>677.4000000000001</ele><time>2026-04-18T08:00:34.688Z</time></trkpt><trkpt lat="43.5046972" lon="11.4259989"><ele>677.0</ele><time>2026-04-18T08:00:36.688Z</time></trkpt><trkpt lat="43.5046229" lon="11.4261219"><ele>677.0</ele><time>2026-04-18T08:00:38.688Z</time></trkpt><trkpt lat="43.5045911" lon="11.4262364"><ele>677.0</ele><time>2026-04-18T08:00:40.689Z</time></trkpt><trkpt lat="43.5045357" lon="11.4263733"><ele>677.0</ele><time>2026-04-18T08:00:42.688Z</time></trkpt><trkpt lat="43.5044937" lon="11.4264982"><ele>677.0</ele><time>2026-04-18T08:00:43.689Z</time></trkpt><trkpt lat="43.5044445" lon="11.4266243"><ele>677.0</ele><time>2026-04-18T08:00:44.688Z</time></trkpt><trkpt lat="43.5044" lon="11.4267349"><ele>677.8333333333333</ele><time>2026-04-18T08:00:45.689Z</time></trkpt><trkpt lat="43.5043486" lon="11.4268215"><ele>678.6666666666666</ele><time>2026-04-18T08:00:46.688Z</time></trkpt><trkpt lat="43.5042839" lon="11.426879"><ele>679.5</ele><time>2026-04-18T08:00:47.689Z</time></trkpt><trkpt lat="43.5042195" lon="11.4269213"><ele>680.3333333333334</ele><time>2026-04-18T08:00:48.688Z</time></trkpt><trkpt lat="43.5041506" lon="11.4269542"><ele>681.1666666666667</ele><time>2026-04-18T08:00:49.688Z</time></trkpt><trkpt lat="43.504081" lon="11.426992"><ele>682.0</ele><time>2026-04-18T08:00:50.688Z</time></trkpt><trkpt lat="43.5040199" lon="11.4270519"><ele>682.0</ele><time>2026-04-18T08:00:51.688Z</time></trkpt><trkpt lat="43.5039642" lon="11.4271278"><ele>682.0</ele><time>2026-04-18T08:00:52.688Z</time></trkpt><trkpt lat="43.503903" lon="11.4271934"><ele>682.0</ele><time>2026-04-18T08:00:53.688Z</time></trkpt><trkpt lat="43.5038268" lon="11.4272499"><ele>682.0</ele><time>2026-04-18T08:00:54.688Z</time></trkpt><trkpt lat="43.5037462" lon="11.427275"><ele>682.0</ele><time>2026-04-18T08:00:55.688Z</time></trkpt><trkpt lat="43.5036784" lon="11.4272948"><ele>682.0</ele><time>2026-04-18T08:00:56.689Z</time></trkpt><trkpt lat="43.5036113" lon="11.4273485"><ele>682.1666666666667</ele><time>2026-04-18T08:00:57.688Z</time></trkpt><trkpt lat="43.5035661" lon="11.4274279"><ele>682.3333333333334</ele><time>2026-04-18T08:00:58.688Z</time></trkpt><trkpt lat="43.5035374" lon="11.4275266"><ele>682.5</ele><time>2026-04-18T08:00:59.688Z</time></trkpt><trkpt lat="43.5035284" lon="11.4276351"><ele>682.6666666666666</ele><time>2026-04-18T08:01:00.689Z</time></trkpt><trkpt lat="43.503528" lon="11.4277291"><ele>682.8333333333333</ele><time>2026-04-18T08:01:01.688Z</time></trkpt><trkpt lat="43.5035707" lon="11.4278624"><ele>683.0</ele><time>2026-04-18T08:01:03.688Z</time></trkpt><trkpt lat="43.503658" lon="11.4279849"><ele>682.5</ele><time>2026-04-18T08:01:05.688Z</time></trkpt><trkpt lat="43.5037256" lon="11.4280605"><ele>682.0</ele><time>2026-04-18T08:01:06.688Z</time></trkpt><trkpt lat="43.5037996" lon="11.4281231"><ele>681.5</ele><time>2026-04-18T08:01:07.688Z</time></trkpt><trkpt lat="43.5038618" lon="11.4281662"><ele>681.0</ele><time>2026-04-18T08:01:08.688Z</time></trkpt><trkpt lat="43.5039299" lon="11.4282013"><ele>680.5</ele><time>2026-04-18T08:01:09.688Z</time></trkpt><trkpt lat="43.5040017" lon="11.4282553"><ele>680.0</ele><time>2026-04-18T08:01:10.688Z</time></trkpt><trkpt lat="43.5040628" lon="11.4283282"><ele>681.4</ele><time>2026-04-18T08:01:11.689Z</time></trkpt><trkpt lat="43.5041126" lon="11.4284204"><ele>682.8</ele><time>2026-04-18T08:01:12.689Z</time></trkpt><trkpt lat="43.5041571" lon="11.4285128"><ele>684.2</ele><time>2026-04-18T08:01:13.688Z</time></trkpt><trkpt lat="43.5042053" lon="11.4286426"><ele>685.6</ele><time>2026-04-18T08:01:15.689Z</time></trkpt><trkpt lat="43.5042901" lon="11.428734"><ele>687.0</ele><time>2026-04-18T08:01:17.688Z</time></trkpt><trkpt lat="43.5043689" lon="11.4288483"><ele>687.0</ele><time>2026-04-18T08:01:19.688Z</time></trkpt><trkpt lat="43.504396" lon="11.4289946"><ele>687.0</ele><time>2026-04-18T08:01:21.688Z</time></trkpt><trkpt lat="43.5043962" lon="11.4291001"><ele>687.0</ele><time>2026-04-18T08:01:22.688Z</time></trkpt><trkpt lat="43.5043788" lon="11.4292571"><ele>687.0</ele><time>2026-04-18T08:01:23.689Z</time></trkpt><trkpt lat="43.5043869" lon="11.4294058"><ele>687.0</ele><time>2026-04-18T08:01:24.688Z</time></trkpt><trkpt lat="43.5044041" lon="11.4295615"><ele>686.6666666666666</ele><time>2026-04-18T08:01:25.688Z</time></trkpt><trkpt lat="43.5044153" lon="11.4296981"><ele>686.3333333333334</ele><time>2026-04-18T08:01:26.689Z</time></trkpt><trkpt lat="43.5044265" lon="11.4298074"><ele>686.0</ele><time>2026-04-18T08:01:27.688Z</time></trkpt><trkpt lat="43.5044207" lon="11.4299111"><ele>685.6666666666667</ele><time>2026-04-18T08:01:28.688Z</time></trkpt><trkpt lat="43.5044181" lon="11.4300067"><ele>685.3333333333334</ele><time>2026-04-18T08:01:29.688Z</time></trkpt><trkpt lat="43.5044124" lon="11.4300945"><ele>685.0</ele><time>2026-04-18T08:01:30.688Z</time></trkpt><trkpt lat="43.5044305" lon="11.4301895"><ele>685.0</ele><time>2026-04-18T08:01:31.689Z</time></trkpt><trkpt lat="43.5044558" lon="11.4302776"><ele>685.0</ele><time>2026-04-18T08:01:32.689Z</time></trkpt><trkpt lat="43.5045081" lon="11.4304055"><ele>685.0</ele><time>2026-04-18T08:01:34.688Z</time></trkpt><trkpt lat="43.5045219" lon="11.4305091"><ele>685.0</ele><time>2026-04-18T08:03:48.688Z</time></trkpt><trkpt lat="43.5044631" lon="11.4305806"><ele>685.0</ele><time>2026-04-18T08:03:51.688Z</time></trkpt><trkpt lat="43.5043875" lon="11.4306315"><ele>685.0</ele><time>2026-04-18T08:03:54.688Z</time></trkpt><trkpt lat="43.5043296" lon="11.4306676"><ele>685.3333333333334</ele><time>2026-04-18T08:03:56.688Z</time></trkpt><trkpt lat="43.504263" lon="11.4306951"><ele>685.6666666666667</ele><time>2026-04-18T08:03:58.688Z</time></trkpt><trkpt lat="43.5041869" lon="11.4307151"><ele>686.0</ele><time>2026-04-18T08:04:00.688Z</time></trkpt><trkpt lat="43.5041256" lon="11.4307614"><ele>686.3333333333334</ele><time>2026-04-18T08:04:02.688Z</time></trkpt><trkpt lat="43.5040624" lon="11.4308765"><ele>686.6666666666666</ele><time>2026-04-18T08:04:04.688Z</time></trkpt><trkpt lat="43.503983" lon="11.4309713"><ele>687.0</ele><time>2026-04-18T08:04:06.688Z</time></trkpt><trkpt lat="43.5039128" lon="11.4310225"><ele>687.0</ele><time>2026-04-18T08:04:08.688Z</time></trkpt><trkpt lat="43.5038174" lon="11.4310644"><ele>687.0</ele><time>2026-04-18T08:04:10.688Z</time></trkpt><trkpt lat="43.5037223" lon="11.4310981"><ele>687.0</ele><time>2026-04-18T08:04:12.688Z</time></trkpt><trkpt lat="43.5036192" lon="11.4311224"><ele>687.0</ele><time>2026-04-18T08:04:14.688Z</time></trkpt><trkpt lat="43.5035486" lon="11.4311394"><ele>687.0</ele><time>2026-04-18T08:04:15.689Z</time></trkpt><trkpt lat="43.5034714" lon="11.4311775"><ele>687.4000000000001</ele><time>2026-04-18T08:04:16.685Z</time></trkpt><trkpt lat="43.5033726" lon="11.4312318"><ele>687.8000000000001</ele><time>2026-04-18T08:04:17.688Z</time></trkpt><trkpt lat="43.503274" lon="11.4312654"><ele>688.2</ele><time>2026-04-18T08:04:18.689Z</time></trkpt><trkpt lat="43.503157" lon="11.4312896"><ele>688.6</ele><time>2026-04-18T08:04:19.688Z</time></trkpt><trkpt lat="43.5030542" lon="11.4313043"><ele>689.0</ele><time>2026-04-18T08:04:20.688Z</time></trkpt><trkpt lat="43.5029561" lon="11.4313105"><ele>685.2</ele><time>2026-04-18T08:04:21.688Z</time></trkpt><trkpt lat="43.5028611" lon="11.4313422"><ele>681.4000000000001</ele><time>2026-04-18T08:04:22.689Z</time></trkpt><trkpt lat="43.5027676" lon="11.4313964"><ele>677.6</ele><time>2026-04-18T08:04:23.688Z</time></trkpt><trkpt lat="43.50268" lon="11.4314679"><ele>673.8</ele><time>2026-04-18T08:04:24.688Z</time></trkpt><trkpt lat="43.5025936" lon="11.4315415"><ele>670.0</ele><time>2026-04-18T08:04:25.688Z</time></trkpt><trkpt lat="43.5024958" lon="11.4315902"><ele>670.0</ele><time>2026-04-18T08:04:26.688Z</time></trkpt><trkpt lat="43.5024008" lon="11.4316195"><ele>670.0</ele><time>2026-04-18T08:04:27.686Z</time></trkpt><trkpt lat="43.5023064" lon="11.4316317"><ele>670.0</ele><time>2026-04-18T08:04:28.688Z</time></trkpt><trkpt lat="43.5022275" lon="11.4316457"><ele>670.0</ele><time>2026-04-18T08:04:29.688Z</time></trkpt><trkpt lat="43.5021485" lon="11.4316722"><ele>670.0</ele><time>2026-04-18T08:04:30.689Z</time></trkpt><trkpt lat="43.502074" lon="11.4317216"><ele>670.0</ele><time>2026-04-18T08:04:31.688Z</time></trkpt><trkpt lat="43.5020016" lon="11.4317886"><ele>667.2</ele><time>2026-04-18T08:04:32.688Z</time></trkpt><trkpt lat="43.5019262" lon="11.4318681"><ele>664.4</ele><time>2026-04-18T08:04:33.688Z</time></trkpt><trkpt lat="43.5018381" lon="11.4319581"><ele>661.5999999999999</ele><time>2026-04-18T08:04:34.688Z</time></trkpt><trkpt lat="43.5017446" lon="11.4320352"><ele>658.8</ele><time>2026-04-18T08:04:35.688Z</time></trkpt><trkpt lat="43.5016509" lon="11.4320797"><ele>656.0</ele><time>2026-04-18T08:04:36.689Z</time></trkpt><trkpt lat="43.5015745" lon="11.4321211"><ele>656.0</ele><time>2026-04-18T08:04:37.688Z</time></trkpt><trkpt lat="43.5015017" lon="11.4321882"><ele>656.0</ele><time>2026-04-18T08:04:38.688Z</time></trkpt><trkpt lat="43.5014432" lon="11.4322549"><ele>656.0</ele><time>2026-04-18T08:04:39.688Z</time></trkpt><trkpt lat="43.501403" lon="11.4323382"><ele>656.0</ele><time>2026-04-18T08:04:40.688Z</time></trkpt><trkpt lat="43.5013937" lon="11.4324413"><ele>656.0</ele><time>2026-04-18T08:04:41.688Z</time></trkpt><trkpt lat="43.5013837" lon="11.4325615"><ele>656.0</ele><time>2026-04-18T08:04:42.688Z</time></trkpt><trkpt lat="43.5013935" lon="11.4326781"><ele>656.0</ele><time>2026-04-18T08:04:43.688Z</time></trkpt><trkpt lat="43.5014139" lon="11.4328079"><ele>656.0</ele><time>2026-04-18T08:04:44.688Z</time></trkpt><trkpt lat="43.5014604" lon="11.4329236"><ele>656.0</ele><time>2026-04-18T08:04:45.689Z</time></trkpt><trkpt lat="43.5015244" lon="11.4330393"><ele>656.0</ele><time>2026-04-18T08:04:46.688Z</time></trkpt><trkpt lat="43.5015883" lon="11.4331601"><ele>656.0</ele><time>2026-04-18T08:04:47.688Z</time></trkpt><trkpt lat="43.5016483" lon="11.4332717"><ele>654.5999999999999</ele><time>2026-04-18T08:04:48.689Z</time></trkpt><trkpt lat="43.501689" lon="11.4333799"><ele>653.2</ele><time>2026-04-18T08:04:49.688Z</time></trkpt><trkpt lat="43.5017165" lon="11.4335042"><ele>651.8</ele><time>2026-04-18T08:04:50.689Z</time></trkpt><trkpt lat="43.5017325" lon="11.4336375"><ele>650.4000000000001</ele><time>2026-04-18T08:04:51.688Z</time></trkpt><trkpt lat="43.50174" lon="11.4337723"><ele>649.0</ele><time>2026-04-18T08:04:52.689Z</time></trkpt><trkpt lat="43.501746" lon="11.4339033"><ele>649.0</ele><time>2026-04-18T08:04:53.688Z</time></trkpt><trkpt lat="43.5017434" lon="11.4340062"><ele>649.0</ele><time>2026-04-18T08:04:54.688Z</time></trkpt><trkpt lat="43.5016998" lon="11.4341459"><ele>649.0</ele><time>2026-04-18T08:04:56.689Z</time></trkpt><trkpt lat="43.5015754" lon="11.4342378"><ele>649.0</ele><time>2026-04-18T08:04:58.688Z</time></trkpt><trkpt lat="43.5014902" lon="11.4342218"><ele>649.0</ele><time>2026-04-18T08:04:59.688Z</time></trkpt><trkpt lat="43.5013948" lon="11.4341853"><ele>649.0</ele><time>2026-04-18T08:05:00.688Z</time></trkpt><trkpt lat="43.501277" lon="11.4341592"><ele>649.0</ele><time>2026-04-18T08:05:01.689Z</time></trkpt><trkpt lat="43.5011503" lon="11.4341328"><ele>649.0</ele><time>2026-04-18T08:05:02.688Z</time></trkpt><trkpt lat="43.5010268" lon="11.4340994"><ele>649.0</ele><time>2026-04-18T08:05:03.688Z</time></trkpt><trkpt lat="43.5009198" lon="11.4340303"><ele>647.0</ele><time>2026-04-18T08:05:04.689Z</time></trkpt><trkpt lat="43.5008359" lon="11.4339577"><ele>645.0</ele><time>2026-04-18T08:05:05.689Z</time></trkpt><trkpt lat="43.5007666" lon="11.433899"><ele>643.0</ele><time>2026-04-18T08:05:06.689Z</time></trkpt><trkpt lat="43.5006509" lon="11.4339327"><ele>641.0</ele><time>2026-04-18T08:05:08.688Z</time></trkpt><trkpt lat="43.5005942" lon="11.4340202"><ele>639.0</ele><time>2026-04-18T08:05:09.689Z</time></trkpt><trkpt lat="43.5005261" lon="11.4341371"><ele>639.0</ele><time>2026-04-18T08:05:10.688Z</time></trkpt><trkpt lat="43.5004529" lon="11.4342305"><ele>639.0</ele><time>2026-04-18T08:05:11.689Z</time></trkpt><trkpt lat="43.5003654" lon="11.4343081"><ele>639.0</ele><time>2026-04-18T08:05:12.688Z</time></trkpt><trkpt lat="43.5002369" lon="11.4343822"><ele>639.0</ele><time>2026-04-18T08:05:13.688Z</time></trkpt><trkpt lat="43.5001126" lon="11.4344256"><ele>637.8</ele><time>2026-04-18T08:05:14.688Z</time></trkpt><trkpt lat="43.5000079" lon="11.4344816"><ele>636.5999999999999</ele><time>2026-04-18T08:05:15.688Z</time></trkpt><trkpt lat="43.4999304" lon="11.4345096"><ele>635.4</ele><time>2026-04-18T08:05:16.688Z</time></trkpt><trkpt lat="43.4998655" lon="11.4345278"><ele>634.1999999999999</ele><time>2026-04-18T08:05:17.688Z</time></trkpt><trkpt lat="43.499778" lon="11.4343979"><ele>633.0</ele><time>2026-04-18T08:05:19.688Z</time></trkpt><trkpt lat="43.4997472" lon="11.4342881"><ele>633.0</ele><time>2026-04-18T08:05:20.689Z</time></trkpt><trkpt lat="43.4996981" lon="11.4342096"><ele>633.0</ele><time>2026-04-18T08:05:21.687Z</time></trkpt><trkpt lat="43.4995968" lon="11.4341415"><ele>633.0</ele><time>2026-04-18T08:05:22.688Z</time></trkpt><trkpt lat="43.4994703" lon="11.4340612"><ele>633.0</ele><time>2026-04-18T08:05:23.688Z</time></trkpt><trkpt lat="43.4993313" lon="11.4339807"><ele>629.75</ele><time>2026-04-18T08:05:24.688Z</time></trkpt><trkpt lat="43.4992003" lon="11.4339106"><ele>626.5</ele><time>2026-04-18T08:05:25.688Z</time></trkpt><trkpt lat="43.49908" lon="11.4338388"><ele>623.25</ele><time>2026-04-18T08:05:26.688Z</time></trkpt><trkpt lat="43.4989692" lon="11.4337824"><ele>620.0</ele><time>2026-04-18T08:05:27.689Z</time></trkpt><trkpt lat="43.498867" lon="11.4337591"><ele>620.0</ele><time>2026-04-18T08:05:28.688Z</time></trkpt><trkpt lat="43.4987613" lon="11.4337405"><ele>620.0</ele><time>2026-04-18T08:05:29.689Z</time></trkpt><trkpt lat="43.4986403" lon="11.433727"><ele>620.0</ele><time>2026-04-18T08:05:30.689Z</time></trkpt><trkpt lat="43.4985224" lon="11.433723"><ele>620.0</ele><time>2026-04-18T08:05:31.688Z</time></trkpt><trkpt lat="43.4984229" lon="11.4337067"><ele>620.0</ele><time>2026-04-18T08:05:32.688Z</time></trkpt><trkpt lat="43.4983513" lon="11.433674"><ele>622.0</ele><time>2026-04-18T08:05:33.687Z</time></trkpt><trkpt lat="43.4982703" lon="11.4336387"><ele>624.0</ele><time>2026-04-18T08:05:34.688Z</time></trkpt><trkpt lat="43.4982008" lon="11.4336348"><ele>626.0</ele><time>2026-04-18T08:05:35.688Z</time></trkpt><trkpt lat="43.4980867" lon="11.43373"><ele>628.0</ele><time>2026-04-18T08:05:37.688Z</time></trkpt><trkpt lat="43.4980325" lon="11.433827"><ele>630.0</ele><time>2026-04-18T08:05:38.688Z</time></trkpt><trkpt lat="43.4979599" lon="11.4339306"><ele>633.0</ele><time>2026-04-18T08:05:39.688Z</time></trkpt><trkpt lat="43.4978974" lon="11.4340213"><ele>636.0</ele><time>2026-04-18T08:05:40.688Z</time></trkpt><trkpt lat="43.497828" lon="11.4340769"><ele>639.0</ele><time>2026-04-18T08:05:41.689Z</time></trkpt><trkpt lat="43.4977411" lon="11.4340928"><ele>642.0</ele><time>2026-04-18T08:05:42.688Z</time></trkpt><trkpt lat="43.4976405" lon="11.4340922"><ele>645.0</ele><time>2026-04-18T08:05:43.688Z</time></trkpt><trkpt lat="43.4975278" lon="11.4341064"><ele>645.0</ele><time>2026-04-18T08:05:44.689Z</time></trkpt><trkpt lat="43.4974237" lon="11.4341379"><ele>645.0</ele><time>2026-04-18T08:05:45.688Z</time></trkpt><trkpt lat="43.4973388" lon="11.4341774"><ele>645.0</ele><time>2026-04-18T08:05:46.688Z</time></trkpt><trkpt lat="43.4972707" lon="11.4342071"><ele>645.0</ele><time>2026-04-18T08:05:47.688Z</time></trkpt><trkpt lat="43.4971929" lon="11.4342521"><ele>645.0</ele><time>2026-04-18T08:05:48.688Z</time></trkpt><trkpt lat="43.4971002" lon="11.4343038"><ele>642.6</ele><time>2026-04-18T08:05:49.688Z</time></trkpt><trkpt lat="43.4970039" lon="11.4343871"><ele>640.2</ele><time>2026-04-18T08:05:50.688Z</time></trkpt><trkpt lat="43.496916" lon="11.4344849"><ele>637.8</ele><time>2026-04-18T08:05:51.689Z</time></trkpt><trkpt lat="43.4968262" lon="11.4345755"><ele>635.4</ele><time>2026-04-18T08:05:52.688Z</time></trkpt><trkpt lat="43.4967423" lon="11.4346389"><ele>633.0</ele><time>2026-04-18T08:05:53.688Z</time></trkpt><trkpt lat="43.4966748" lon="11.4346718"><ele>633.0</ele><time>2026-04-18T08:05:54.689Z</time></trkpt><trkpt lat="43.4965625" lon="11.4346801"><ele>633.0</ele><time>2026-04-18T08:05:56.688Z</time></trkpt><trkpt lat="43.4964852" lon="11.4346133"><ele>633.0</ele><time>2026-04-18T08:05:57.689Z</time></trkpt><trkpt lat="43.4964147" lon="11.4345165"><ele>633.0</ele><time>2026-04-18T08:05:58.688Z</time></trkpt><trkpt lat="43.4963436" lon="11.4344291"><ele>633.0</ele><time>2026-04-18T08:05:59.688Z</time></trkpt><trkpt lat="43.4962643" lon="11.4343741"><ele>633.4</ele><time>2026-04-18T08:06:00.688Z</time></trkpt><trkpt lat="43.4961742" lon="11.4343422"><ele>633.8</ele><time>2026-04-18T08:06:01.688Z</time></trkpt><trkpt lat="43.4960806" lon="11.4343357"><ele>634.2</ele><time>2026-04-18T08:06:02.688Z</time></trkpt><trkpt lat="43.4959651" lon="11.4343627"><ele>634.6</ele><time>2026-04-18T08:06:03.688Z</time></trkpt><trkpt lat="43.4958309" lon="11.4344151"><ele>635.0</ele><time>2026-04-18T08:06:04.688Z</time></trkpt><trkpt lat="43.4957008" lon="11.4344774"><ele>635.0</ele><time>2026-04-18T08:06:05.688Z</time></trkpt><trkpt lat="43.495576" lon="11.4345408"><ele>635.0</ele><time>2026-04-18T08:06:06.689Z</time></trkpt><trkpt lat="43.4954658" lon="11.434597"><ele>635.0</ele><time>2026-04-18T08:06:07.688Z</time></trkpt><trkpt lat="43.4953417" lon="11.4346373"><ele>635.0</ele><time>2026-04-18T08:06:08.689Z</time></trkpt><trkpt lat="43.4952043" lon="11.4346466"><ele>639.8</ele><time>2026-04-18T08:06:09.688Z</time></trkpt><trkpt lat="43.4950704" lon="11.4346422"><ele>644.6</ele><time>2026-04-18T08:06:10.689Z</time></trkpt><trkpt lat="43.494958" lon="11.4346486"><ele>649.4000000000001</ele><time>2026-04-18T08:06:11.688Z</time></trkpt><trkpt lat="43.494872" lon="11.4346512"><ele>654.2</ele><time>2026-04-18T08:06:12.688Z</time></trkpt><trkpt lat="43.4947899" lon="11.4346568"><ele>659.0</ele><time>2026-04-18T08:06:13.688Z</time></trkpt><trkpt lat="43.4947246" lon="11.4346666"><ele>659.0</ele><time>2026-04-18T08:06:14.688Z</time></trkpt><trkpt lat="43.4946557" lon="11.4346978"><ele>659.0</ele><time>2026-04-18T08:06:16.687Z</time></trkpt><trkpt lat="43.4945649" lon="11.4347172"><ele>659.0</ele><time>2026-04-18T08:06:19.689Z</time></trkpt><trkpt lat="43.4944717" lon="11.4346794"><ele>659.0</ele><time>2026-04-18T08:06:21.689Z</time></trkpt><trkpt lat="43.4943945" lon="11.4346292"><ele>659.0</ele><time>2026-04-18T08:06:23.689Z</time></trkpt><trkpt lat="43.4943157" lon="11.4345874"><ele>659.0</ele><time>2026-04-18T08:06:25.689Z</time></trkpt><trkpt lat="43.4942452" lon="11.434558"><ele>657.3333333333333</ele><time>2026-04-18T08:06:27.688Z</time></trkpt><trkpt lat="43.4941898" lon="11.4344989"><ele>655.6666666666666</ele><time>2026-04-18T08:06:31.688Z</time></trkpt><trkpt lat="43.4941485" lon="11.4344271"><ele>654.0</ele><time>2026-04-18T08:06:49.688Z</time></trkpt><trkpt lat="43.4940576" lon="11.4343165"><ele>652.3333333333334</ele><time>2026-04-18T08:06:51.689Z</time></trkpt><trkpt lat="43.4939898" lon="11.434261"><ele>650.6666666666667</ele><time>2026-04-18T08:06:52.688Z</time></trkpt><trkpt lat="43.4939233" lon="11.434202"><ele>649.0</ele><time>2026-04-18T08:06:53.688Z</time></trkpt><trkpt lat="43.4938605" lon="11.4341512"><ele>649.0</ele><time>2026-04-18T08:06:54.689Z</time></trkpt><trkpt lat="43.4938047" lon="11.434097"><ele>649.0</ele><time>2026-04-18T08:06:55.688Z</time></trkpt><trkpt lat="43.493748" lon="11.4340513"><ele>649.0</ele><time>2026-04-18T08:06:56.688Z</time></trkpt><trkpt lat="43.4936272" lon="11.4340019"><ele>649.0</ele><time>2026-04-18T08:06:58.688Z</time></trkpt><trkpt lat="43.4935539" lon="11.4339871"><ele>649.0</ele><time>2026-04-18T08:06:59.688Z</time></trkpt><trkpt lat="43.4934961" lon="11.4339408"><ele>649.0</ele><time>2026-04-18T08:07:00.689Z</time></trkpt><trkpt lat="43.4934504" lon="11.4338709"><ele>651.6666666666667</ele><time>2026-04-18T08:07:01.688Z</time></trkpt><trkpt lat="43.4933417" lon="11.4337857"><ele>654.3333333333334</ele><time>2026-04-18T08:07:03.689Z</time></trkpt><trkpt lat="43.493265" lon="11.4337675"><ele>657.0</ele><time>2026-04-18T08:07:04.688Z</time></trkpt><trkpt lat="43.4931871" lon="11.4337479"><ele>659.6666666666666</ele><time>2026-04-18T08:07:05.688Z</time></trkpt><trkpt lat="43.4931079" lon="11.4337198"><ele>662.3333333333333</ele><time>2026-04-18T08:07:06.689Z</time></trkpt><trkpt lat="43.49303" lon="11.4336845"><ele>665.0</ele><time>2026-04-18T08:07:07.688Z</time></trkpt><trkpt lat="43.492965" lon="11.4336521"><ele>662.0</ele><time>2026-04-18T08:07:08.687Z</time></trkpt><trkpt lat="43.4929002" lon="11.433598"><ele>659.0</ele><time>2026-04-18T08:07:09.688Z</time></trkpt><trkpt lat="43.4928364" lon="11.4335318"><ele>656.0</ele><time>2026-04-18T08:07:10.689Z</time></trkpt><trkpt lat="43.4927673" lon="11.4334654"><ele>653.0</ele><time>2026-04-18T08:07:11.688Z</time></trkpt><trkpt lat="43.4926886" lon="11.4333958"><ele>650.0</ele><time>2026-04-18T08:07:12.688Z</time></trkpt><trkpt lat="43.4926179" lon="11.4333447"><ele>647.0</ele><time>2026-04-18T08:07:13.688Z</time></trkpt><trkpt lat="43.4925469" lon="11.4333037"><ele>647.0</ele><time>2026-04-18T08:07:14.688Z</time></trkpt><trkpt lat="43.4924868" lon="11.433258"><ele>647.0</ele><time>2026-04-18T08:07:15.688Z</time></trkpt><trkpt lat="43.492438" lon="11.4332021"><ele>647.0</ele><time>2026-04-18T08:07:16.689Z</time></trkpt><trkpt lat="43.4923599" lon="11.4330741"><ele>647.0</ele><time>2026-04-18T08:07:18.688Z</time></trkpt><trkpt lat="43.4923202" lon="11.4329002"><ele>647.0</ele><time>2026-04-18T08:07:20.689Z</time></trkpt><trkpt lat="43.4923037" lon="11.4328086"><ele>647.0</ele><time>2026-04-18T08:07:21.688Z</time></trkpt><trkpt lat="43.4922782" lon="11.4327241"><ele>647.0</ele><time>2026-04-18T08:07:22.688Z</time></trkpt><trkpt lat="43.4922403" lon="11.4326315"><ele>647.0</ele><time>2026-04-18T08:07:23.688Z</time></trkpt><trkpt lat="43.4921987" lon="11.4325523"><ele>647.0</ele><time>2026-04-18T08:07:24.688Z</time></trkpt><trkpt lat="43.4920926" lon="11.4324829"><ele>647.0</ele><time>2026-04-18T08:07:26.688Z</time></trkpt><trkpt lat="43.4920295" lon="11.4324841"><ele>647.0</ele><time>2026-04-18T08:07:27.689Z</time></trkpt><trkpt lat="43.4918841" lon="11.4324742"><ele>647.0</ele><time>2026-04-18T08:07:29.689Z</time></trkpt><trkpt lat="43.491782" lon="11.4324802"><ele>647.0</ele><time>2026-04-18T08:07:30.688Z</time></trkpt><trkpt lat="43.4916984" lon="11.4325103"><ele>647.0</ele><time>2026-04-18T08:07:31.688Z</time></trkpt><trkpt lat="43.4916267" lon="11.4325223"><ele>647.0</ele><time>2026-04-18T08:07:32.688Z</time></trkpt><trkpt lat="43.4915556" lon="11.4325243"><ele>647.0</ele><time>2026-04-18T08:07:33.689Z</time></trkpt><trkpt lat="43.4914838" lon="11.4325197"><ele>647.0</ele><time>2026-04-18T08:07:34.688Z</time></trkpt><trkpt lat="43.4913816" lon="11.4324532"><ele>647.0</ele><time>2026-04-18T08:07:36.689Z</time></trkpt><trkpt lat="43.4912963" lon="11.4323452"><ele>647.0</ele><time>2026-04-18T08:07:38.688Z</time></trkpt><trkpt lat="43.4912308" lon="11.4323263"><ele>647.0</ele><time>2026-04-18T08:07:39.689Z</time></trkpt><trkpt lat="43.4911595" lon="11.432329"><ele>647.0</ele><time>2026-04-18T08:07:40.688Z</time></trkpt><trkpt lat="43.491081" lon="11.4323313"><ele>647.0</ele><time>2026-04-18T08:07:41.688Z</time></trkpt><trkpt lat="43.4910131" lon="11.4323461"><ele>647.0</ele><time>2026-04-18T08:07:42.688Z</time></trkpt><trkpt lat="43.4908893" lon="11.432355"><ele>645.4285714285714</ele><time>2026-04-18T08:07:44.688Z</time></trkpt><trkpt lat="43.4908199" lon="11.4323799"><ele>643.8571428571429</ele><time>2026-04-18T08:07:45.689Z</time></trkpt><trkpt lat="43.4907437" lon="11.4324066"><ele>642.2857142857142</ele><time>2026-04-18T08:07:46.689Z</time></trkpt><trkpt lat="43.4906615" lon="11.4324315"><ele>640.7142857142858</ele><time>2026-04-18T08:07:47.688Z</time></trkpt><trkpt lat="43.4905863" lon="11.4324465"><ele>639.1428571428572</ele><time>2026-04-18T08:07:48.689Z</time></trkpt><trkpt lat="43.4905183" lon="11.4324429"><ele>637.5714285714286</ele><time>2026-04-18T08:07:49.688Z</time></trkpt><trkpt lat="43.4904512" lon="11.4324355"><ele>636.0</ele><time>2026-04-18T08:07:50.689Z</time></trkpt><trkpt lat="43.4903831" lon="11.4324539"><ele>634.5</ele><time>2026-04-18T08:07:51.689Z</time></trkpt><trkpt lat="43.4903145" lon="11.4324919"><ele>633.0</ele><time>2026-04-18T08:07:52.689Z</time></trkpt><trkpt lat="43.4902322" lon="11.4325271"><ele>631.5</ele><time>2026-04-18T08:07:53.689Z</time></trkpt><trkpt lat="43.4901496" lon="11.4325584"><ele>630.0</ele><time>2026-04-18T08:07:54.688Z</time></trkpt><trkpt lat="43.4900607" lon="11.4325735"><ele>628.5</ele><time>2026-04-18T08:07:55.688Z</time></trkpt><trkpt lat="43.4899729" lon="11.4325744"><ele>627.0</ele><time>2026-04-18T08:07:56.688Z</time></trkpt><trkpt lat="43.4898926" lon="11.4325737"><ele>627.0</ele><time>2026-04-18T08:07:57.689Z</time></trkpt><trkpt lat="43.4898185" lon="11.4325696"><ele>627.0</ele><time>2026-04-18T08:07:58.689Z</time></trkpt><trkpt lat="43.489745" lon="11.4325751"><ele>627.0</ele><time>2026-04-18T08:07:59.688Z</time></trkpt><trkpt lat="43.4896381" lon="11.4326262"><ele>627.0</ele><time>2026-04-18T08:08:01.688Z</time></trkpt><trkpt lat="43.48957" lon="11.4327355"><ele>627.0</ele><time>2026-04-18T08:08:03.688Z</time></trkpt><trkpt lat="43.4895244" lon="11.4328916"><ele>623.8000000000001</ele><time>2026-04-18T08:08:05.688Z</time></trkpt><trkpt lat="43.4895046" lon="11.4330503"><ele>620.6</ele><time>2026-04-18T08:08:07.688Z</time></trkpt><trkpt lat="43.4895062" lon="11.433197"><ele>617.4000000000001</ele><time>2026-04-18T08:08:09.688Z</time></trkpt><trkpt lat="43.4895052" lon="11.4333421"><ele>614.2</ele><time>2026-04-18T08:08:11.689Z</time></trkpt><trkpt lat="43.4894351" lon="11.4334117"><ele>611.0</ele><time>2026-04-18T08:08:13.687Z</time></trkpt><trkpt lat="43.4893514" lon="11.4333679"><ele>611.0</ele><time>2026-04-18T08:08:15.688Z</time></trkpt><trkpt lat="43.4892591" lon="11.4332908"><ele>611.0</ele><time>2026-04-18T08:08:17.688Z</time></trkpt><trkpt lat="43.4891684" lon="11.4332077"><ele>611.0</ele><time>2026-04-18T08:08:19.688Z</time></trkpt><trkpt lat="43.4890725" lon="11.4331177"><ele>611.0</ele><time>2026-04-18T08:08:21.688Z</time></trkpt><trkpt lat="43.4889452" lon="11.4330355"><ele>611.0</ele><time>2026-04-18T08:08:23.688Z</time></trkpt><trkpt lat="43.4888473" lon="11.433"><ele>611.0</ele><time>2026-04-18T08:08:24.688Z</time></trkpt><trkpt lat="43.488751" lon="11.4330027"><ele>611.0</ele><time>2026-04-18T08:08:25.688Z</time></trkpt><trkpt lat="43.4886602" lon="11.4330059"><ele>611.0</ele><time>2026-04-18T08:08:26.688Z</time></trkpt><trkpt lat="43.4885802" lon="11.4330181"><ele>611.0</ele><time>2026-04-18T08:08:27.689Z</time></trkpt><trkpt lat="43.488479" lon="11.4330167"><ele>610.1666666666666</ele><time>2026-04-18T08:08:29.688Z</time></trkpt><trkpt lat="43.4884119" lon="11.4330353"><ele>609.3333333333333</ele><time>2026-04-18T08:08:33.689Z</time></trkpt><trkpt lat="43.4883496" lon="11.4330177"><ele>608.5</ele><time>2026-04-18T08:08:41.688Z</time></trkpt><trkpt lat="43.4882715" lon="11.432988"><ele>607.6666666666666</ele><time>2026-04-18T08:08:44.689Z</time></trkpt><trkpt lat="43.4881911" lon="11.4329643"><ele>606.8333333333334</ele><time>2026-04-18T08:08:45.688Z</time></trkpt><trkpt lat="43.4880941" lon="11.4329439"><ele>606.0</ele><time>2026-04-18T08:08:46.689Z</time></trkpt><trkpt lat="43.4880004" lon="11.4329384"><ele>605.6666666666666</ele><time>2026-04-18T08:08:47.688Z</time></trkpt><trkpt lat="43.4879154" lon="11.4329403"><ele>605.3333333333334</ele><time>2026-04-18T08:08:48.689Z</time></trkpt><trkpt lat="43.4878308" lon="11.4329426"><ele>605.0</ele><time>2026-04-18T08:08:49.688Z</time></trkpt><trkpt lat="43.4877496" lon="11.4329316"><ele>604.6666666666667</ele><time>2026-04-18T08:08:50.688Z</time></trkpt><trkpt lat="43.4876669" lon="11.4329008"><ele>604.3333333333334</ele><time>2026-04-18T08:08:51.688Z</time></trkpt><trkpt lat="43.4875838" lon="11.4328576"><ele>604.0</ele><time>2026-04-18T08:08:52.688Z</time></trkpt><trkpt lat="43.4875032" lon="11.4328048"><ele>604.0</ele><time>2026-04-18T08:08:53.688Z</time></trkpt><trkpt lat="43.4874316" lon="11.432761"><ele>604.0</ele><time>2026-04-18T08:08:54.689Z</time></trkpt><trkpt lat="43.4873684" lon="11.4327094"><ele>604.0</ele><time>2026-04-18T08:08:55.688Z</time></trkpt><trkpt lat="43.4872659" lon="11.4326117"><ele>604.0</ele><time>2026-04-18T08:08:57.688Z</time></trkpt><trkpt lat="43.4872074" lon="11.4325617"><ele>604.0</ele><time>2026-04-18T08:08:58.688Z</time></trkpt><trkpt lat="43.4871461" lon="11.4325169"><ele>604.0</ele><time>2026-04-18T08:08:59.689Z</time></trkpt><trkpt lat="43.4870731" lon="11.4324864"><ele>605.5</ele><time>2026-04-18T08:09:00.688Z</time></trkpt><trkpt lat="43.4869985" lon="11.4324661"><ele>607.0</ele><time>2026-04-18T08:09:01.688Z</time></trkpt><trkpt lat="43.4869307" lon="11.432452"><ele>608.5</ele><time>2026-04-18T08:09:02.688Z</time></trkpt><trkpt lat="43.4868578" lon="11.432453"><ele>610.0</ele><time>2026-04-18T08:09:03.689Z</time></trkpt><trkpt lat="43.4867872" lon="11.4324817"><ele>611.5</ele><time>2026-04-18T08:09:04.689Z</time></trkpt><trkpt lat="43.4867185" lon="11.4325378"><ele>613.0</ele><time>2026-04-18T08:09:05.685Z</time></trkpt><trkpt lat="43.4866342" lon="11.4325972"><ele>613.0</ele><time>2026-04-18T08:09:06.689Z</time></trkpt><trkpt lat="43.4865471" lon="11.4326317"><ele>613.0</ele><time>2026-04-18T08:09:07.688Z</time></trkpt><trkpt lat="43.4864517" lon="11.4326547"><ele>613.0</ele><time>2026-04-18T08:09:08.688Z</time></trkpt><trkpt lat="43.4863535" lon="11.4326563"><ele>613.0</ele><time>2026-04-18T08:09:09.688Z</time></trkpt><trkpt lat="43.4862451" lon="11.4326689"><ele>613.0</ele><time>2026-04-18T08:09:10.688Z</time></trkpt><trkpt lat="43.4861464" lon="11.4326956"><ele>612.8333333333334</ele><time>2026-04-18T08:09:11.688Z</time></trkpt><trkpt lat="43.4860706" lon="11.4327045"><ele>612.6666666666667</ele><time>2026-04-18T08:09:12.688Z</time></trkpt><trkpt lat="43.4859542" lon="11.4326726"><ele>612.5</ele><time>2026-04-18T08:09:14.689Z</time></trkpt><trkpt lat="43.4858511" lon="11.4326578"><ele>612.3333333333334</ele><time>2026-04-18T08:09:16.689Z</time></trkpt><trkpt lat="43.4857886" lon="11.4326722"><ele>612.1666666666666</ele><time>2026-04-18T08:09:18.688Z</time></trkpt><trkpt lat="43.4857208" lon="11.4326561"><ele>612.0</ele><time>2026-04-18T08:09:20.688Z</time></trkpt><trkpt lat="43.4856541" lon="11.4325888"><ele>612.0</ele><time>2026-04-18T08:09:24.688Z</time></trkpt><trkpt lat="43.4856052" lon="11.432534"><ele>612.0</ele><time>2026-04-18T08:09:26.689Z</time></trkpt><trkpt lat="43.4855305" lon="11.4324445"><ele>612.0</ele><time>2026-04-18T08:09:29.688Z</time></trkpt><trkpt lat="43.485452" lon="11.4323808"><ele>612.0</ele><time>2026-04-18T08:09:31.689Z</time></trkpt><trkpt lat="43.4853935" lon="11.4322596"><ele>612.0</ele><time>2026-04-18T08:09:33.686Z</time></trkpt><trkpt lat="43.4853342" lon="11.4321319"><ele>608.3333333333334</ele><time>2026-04-18T08:09:35.688Z</time></trkpt><trkpt lat="43.4852629" lon="11.4320786"><ele>604.6666666666666</ele><time>2026-04-18T08:09:37.688Z</time></trkpt><trkpt lat="43.4851795" lon="11.4320553"><ele>601.0</ele><time>2026-04-18T08:09:40.689Z</time></trkpt><trkpt lat="43.4851127" lon="11.4320427"><ele>597.3333333333333</ele><time>2026-04-18T08:09:43.688Z</time></trkpt><trkpt lat="43.4850409" lon="11.432048"><ele>593.6666666666666</ele><time>2026-04-18T08:09:46.688Z</time></trkpt><trkpt lat="43.4849581" lon="11.4320169"><ele>590.0</ele><time>2026-04-18T08:09:49.689Z</time></trkpt><trkpt lat="43.4848943" lon="11.4320014"><ele>590.0</ele><time>2026-04-18T08:09:51.688Z</time></trkpt><trkpt lat="43.4848166" lon="11.4319705"><ele>590.0</ele><time>2026-04-18T08:09:53.689Z</time></trkpt><trkpt lat="43.4847395" lon="11.4319509"><ele>590.0</ele><time>2026-04-18T08:09:55.688Z</time></trkpt><trkpt lat="43.4846555" lon="11.4319243"><ele>590.0</ele><time>2026-04-18T08:09:57.688Z</time></trkpt><trkpt lat="43.4845726" lon="11.4318937"><ele>590.0</ele><time>2026-04-18T08:09:59.688Z</time></trkpt><trkpt lat="43.4844923" lon="11.4318382"><ele>590.0</ele><time>2026-04-18T08:10:02.688Z</time></trkpt><trkpt lat="43.4844241" lon="11.4317806"><ele>587.5</ele><time>2026-04-18T08:10:05.688Z</time></trkpt><trkpt lat="43.4843636" lon="11.4317065"><ele>585.0</ele><time>2026-04-18T08:10:08.688Z</time></trkpt><trkpt lat="43.4842691" lon="11.4316819"><ele>582.5</ele><time>2026-04-18T08:10:10.689Z</time></trkpt><trkpt lat="43.484181" lon="11.4317183"><ele>580.0</ele><time>2026-04-18T08:10:12.688Z</time></trkpt><trkpt lat="43.4840831" lon="11.4317852"><ele>577.5</ele><time>2026-04-18T08:10:14.688Z</time></trkpt><trkpt lat="43.4840352" lon="11.4318491"><ele>575.0</ele><time>2026-04-18T08:10:15.688Z</time></trkpt><trkpt lat="43.4839418" lon="11.4319223"><ele>575.0</ele><time>2026-04-18T08:10:17.688Z</time></trkpt><trkpt lat="43.4838494" lon="11.4319581"><ele>575.0</ele><time>2026-04-18T08:10:19.689Z</time></trkpt><trkpt lat="43.4837656" lon="11.4319621"><ele>575.0</ele><time>2026-04-18T08:10:21.688Z</time></trkpt><trkpt lat="43.4836655" lon="11.4319599"><ele>575.0</ele><time>2026-04-18T08:10:23.688Z</time></trkpt><trkpt lat="43.4835296" lon="11.4319278"><ele>575.0</ele><time>2026-04-18T08:10:25.688Z</time></trkpt><trkpt lat="43.4834373" lon="11.4318991"><ele>572.0</ele><time>2026-04-18T08:10:27.689Z</time></trkpt><trkpt lat="43.4833442" lon="11.4318748"><ele>569.0</ele><time>2026-04-18T08:10:29.688Z</time></trkpt><trkpt lat="43.483231" lon="11.4318283"><ele>566.0</ele><time>2026-04-18T08:10:31.688Z</time></trkpt><trkpt lat="43.4831287" lon="11.4318017"><ele>563.0</ele><time>2026-04-18T08:10:33.688Z</time></trkpt><trkpt lat="43.4830448" lon="11.4318104"><ele>560.0</ele><time>2026-04-18T08:10:35.689Z</time></trkpt><trkpt lat="43.4829804" lon="11.4318723"><ele>557.5</ele><time>2026-04-18T08:10:39.689Z</time></trkpt><trkpt lat="43.4829204" lon="11.4319598"><ele>555.0</ele><time>2026-04-18T08:10:43.688Z</time></trkpt><trkpt lat="43.482866" lon="11.4320409"><ele>552.5</ele><time>2026-04-18T08:10:48.689Z</time></trkpt><trkpt lat="43.482816" lon="11.4321041"><ele>550.0</ele><time>2026-04-18T08:10:51.688Z</time></trkpt><trkpt lat="43.482777" lon="11.4321782"><ele>547.5</ele><time>2026-04-18T08:10:53.688Z</time></trkpt><trkpt lat="43.482728" lon="11.4322812"><ele>545.0</ele><time>2026-04-18T08:10:55.688Z</time></trkpt><trkpt lat="43.482662" lon="11.4323688"><ele>544.2</ele><time>2026-04-18T08:10:57.688Z</time></trkpt><trkpt lat="43.4825822" lon="11.4324067"><ele>543.4</ele><time>2026-04-18T08:10:59.689Z</time></trkpt><trkpt lat="43.482474" lon="11.432403"><ele>542.6</ele><time>2026-04-18T08:11:01.689Z</time></trkpt><trkpt lat="43.4823591" lon="11.4324209"><ele>541.8</ele><time>2026-04-18T08:11:03.688Z</time></trkpt><trkpt lat="43.4822477" lon="11.4324416"><ele>541.0</ele><time>2026-04-18T08:11:05.688Z</time></trkpt><trkpt lat="43.4821282" lon="11.4324148"><ele>539.8333333333334</ele><time>2026-04-18T08:11:07.689Z</time></trkpt><trkpt lat="43.4820671" lon="11.4323918"><ele>538.6666666666667</ele><time>2026-04-18T08:11:08.689Z</time></trkpt><trkpt lat="43.4819776" lon="11.4323426"><ele>537.5</ele><time>2026-04-18T08:11:10.688Z</time></trkpt><trkpt lat="43.4819158" lon="11.4323202"><ele>536.3333333333334</ele><time>2026-04-18T08:11:12.688Z</time></trkpt><trkpt lat="43.4819225" lon="11.4322088"><ele>535.1666666666666</ele><time>2026-04-18T08:14:38.689Z</time></trkpt><trkpt lat="43.4819735" lon="11.4320979"><ele>534.0</ele><time>2026-04-18T08:14:40.688Z</time></trkpt><trkpt lat="43.4820186" lon="11.4320187"><ele>532.4</ele><time>2026-04-18T08:14:41.688Z</time></trkpt><trkpt lat="43.482066" lon="11.431929"><ele>530.8</ele><time>2026-04-18T08:14:42.688Z</time></trkpt><trkpt lat="43.4821078" lon="11.4318272"><ele>529.2</ele><time>2026-04-18T08:14:43.688Z</time></trkpt><trkpt lat="43.4821458" lon="11.4317021"><ele>527.6</ele><time>2026-04-18T08:14:44.688Z</time></trkpt><trkpt lat="43.4821544" lon="11.4315749"><ele>526.0</ele><time>2026-04-18T08:14:45.689Z</time></trkpt><trkpt lat="43.4821508" lon="11.4314457"><ele>527.5</ele><time>2026-04-18T08:14:46.688Z</time></trkpt><trkpt lat="43.4821459" lon="11.4313173"><ele>529.0</ele><time>2026-04-18T08:14:47.688Z</time></trkpt><trkpt lat="43.4821599" lon="11.4311945"><ele>530.5</ele><time>2026-04-18T08:14:48.688Z</time></trkpt><trkpt lat="43.482177" lon="11.4310908"><ele>532.0</ele><time>2026-04-18T08:14:49.688Z</time></trkpt><trkpt lat="43.4822044" lon="11.4310055"><ele>533.5</ele><time>2026-04-18T08:14:50.689Z</time></trkpt><trkpt lat="43.4822558" lon="11.4309175"><ele>535.0</ele><time>2026-04-18T08:14:51.688Z</time></trkpt><trkpt lat="43.4823201" lon="11.4308423"><ele>535.0</ele><time>2026-04-18T08:14:52.689Z</time></trkpt><trkpt lat="43.4823832" lon="11.4307736"><ele>535.0</ele><time>2026-04-18T08:14:53.688Z</time></trkpt><trkpt lat="43.4824457" lon="11.4307298"><ele>535.0</ele><time>2026-04-18T08:14:54.688Z</time></trkpt><trkpt lat="43.4825069" lon="11.4307003"><ele>535.0</ele><time>2026-04-18T08:14:55.688Z</time></trkpt><trkpt lat="43.4825709" lon="11.4306851"><ele>535.0</ele><time>2026-04-18T08:14:56.688Z</time></trkpt><trkpt lat="43.482641" lon="11.4306925"><ele>535.0</ele><time>2026-04-18T08:14:57.689Z</time></trkpt><trkpt lat="43.4827206" lon="11.4307085"><ele>535.0</ele><time>2026-04-18T08:14:58.688Z</time></trkpt><trkpt lat="43.4828014" lon="11.4307243"><ele>535.0</ele><time>2026-04-18T08:14:59.688Z</time></trkpt><trkpt lat="43.4828824" lon="11.4307438"><ele>535.0</ele><time>2026-04-18T08:15:00.688Z</time></trkpt><trkpt lat="43.482961" lon="11.4307595"><ele>535.0</ele><time>2026-04-18T08:15:01.689Z</time></trkpt><trkpt lat="43.4830465" lon="11.4307506"><ele>535.0</ele><time>2026-04-18T08:15:02.688Z</time></trkpt><trkpt lat="43.4831312" lon="11.4307012"><ele>535.0</ele><time>2026-04-18T08:15:03.688Z</time></trkpt><trkpt lat="43.4832027" lon="11.4306126"><ele>535.0</ele><time>2026-04-18T08:15:04.689Z</time></trkpt><trkpt lat="43.4832687" lon="11.4305284"><ele>530.8333333333334</ele><time>2026-04-18T08:15:05.688Z</time></trkpt><trkpt lat="43.4833232" lon="11.4304439"><ele>526.6666666666667</ele><time>2026-04-18T08:15:06.689Z</time></trkpt><trkpt lat="43.4833745" lon="11.4303804"><ele>522.5</ele><time>2026-04-18T08:15:07.688Z</time></trkpt><trkpt lat="43.483449" lon="11.4303423"><ele>518.3333333333334</ele><time>2026-04-18T08:15:08.689Z</time></trkpt><trkpt lat="43.4835227" lon="11.4303114"><ele>514.1666666666666</ele><time>2026-04-18T08:15:09.689Z</time></trkpt><trkpt lat="43.4836174" lon="11.4302941"><ele>510.0</ele><time>2026-04-18T08:15:10.688Z</time></trkpt><trkpt lat="43.4837125" lon="11.4302518"><ele>510.6</ele><time>2026-04-18T08:15:11.688Z</time></trkpt><trkpt lat="43.4838125" lon="11.4302073"><ele>511.2</ele><time>2026-04-18T08:15:12.688Z</time></trkpt><trkpt lat="43.4839138" lon="11.4301465"><ele>511.79999999999995</ele><time>2026-04-18T08:15:13.688Z</time></trkpt><trkpt lat="43.4840098" lon="11.4300948"><ele>512.4</ele><time>2026-04-18T08:15:14.688Z</time></trkpt><trkpt lat="43.4841049" lon="11.4300387"><ele>513.0</ele><time>2026-04-18T08:15:15.689Z</time></trkpt><trkpt lat="43.4842194" lon="11.429997"><ele>513.0</ele><time>2026-04-18T08:15:16.688Z</time></trkpt><trkpt lat="43.4843359" lon="11.4299673"><ele>513.0</ele><time>2026-04-18T08:15:17.688Z</time></trkpt><trkpt lat="43.4844605" lon="11.4299419"><ele>513.0</ele><time>2026-04-18T08:15:18.688Z</time></trkpt><trkpt lat="43.4845897" lon="11.4299106"><ele>513.0</ele><time>2026-04-18T08:15:19.688Z</time></trkpt><trkpt lat="43.4847133" lon="11.4298642"><ele>515.0</ele><time>2026-04-18T08:15:20.689Z</time></trkpt><trkpt lat="43.4848322" lon="11.4298144"><ele>517.0</ele><time>2026-04-18T08:15:21.689Z</time></trkpt><trkpt lat="43.4849505" lon="11.4297616"><ele>519.0</ele><time>2026-04-18T08:15:22.688Z</time></trkpt><trkpt lat="43.4850699" lon="11.4297213"><ele>521.0</ele><time>2026-04-18T08:15:23.688Z</time></trkpt><trkpt lat="43.4851817" lon="11.4296922"><ele>521.0</ele><time>2026-04-18T08:15:24.688Z</time></trkpt><trkpt lat="43.4852879" lon="11.4296785"><ele>521.0</ele><time>2026-04-18T08:15:25.688Z</time></trkpt><trkpt lat="43.4853724" lon="11.4296837"><ele>521.0</ele><time>2026-04-18T08:15:26.688Z</time></trkpt><trkpt lat="43.4854473" lon="11.4296881"><ele>521.0</ele><time>2026-04-18T08:15:27.688Z</time></trkpt><trkpt lat="43.4855149" lon="11.4296694"><ele>521.0</ele><time>2026-04-18T08:15:28.688Z</time></trkpt><trkpt lat="43.4855908" lon="11.4295414"><ele>522.6666666666666</ele><time>2026-04-18T08:15:30.686Z</time></trkpt><trkpt lat="43.4856062" lon="11.4294504"><ele>524.3333333333333</ele><time>2026-04-18T08:15:31.688Z</time></trkpt><trkpt lat="43.4856012" lon="11.4293482"><ele>526.0</ele><time>2026-04-18T08:15:32.689Z</time></trkpt><trkpt lat="43.4855539" lon="11.4292255"><ele>527.6666666666666</ele><time>2026-04-18T08:15:33.688Z</time></trkpt><trkpt lat="43.485505" lon="11.4291144"><ele>529.3333333333334</ele><time>2026-04-18T08:15:34.684Z</time></trkpt><trkpt lat="43.4854313" lon="11.4290119"><ele>531.0</ele><time>2026-04-18T08:15:35.688Z</time></trkpt><trkpt lat="43.4853469" lon="11.4289108"><ele>530.5</ele><time>2026-04-18T08:15:36.688Z</time></trkpt><trkpt lat="43.4852622" lon="11.4287935"><ele>530.0</ele><time>2026-04-18T08:15:37.689Z</time></trkpt><trkpt lat="43.4851758" lon="11.4286602"><ele>529.5</ele><time>2026-04-18T08:15:38.688Z</time></trkpt><trkpt lat="43.4850882" lon="11.4285176"><ele>529.0</ele><time>2026-04-18T08:15:39.689Z</time></trkpt><trkpt lat="43.4850033" lon="11.4283908"><ele>529.0</ele><time>2026-04-18T08:15:40.688Z</time></trkpt><trkpt lat="43.4849147" lon="11.428266"><ele>529.0</ele><time>2026-04-18T08:15:41.686Z</time></trkpt><trkpt lat="43.484828" lon="11.4281518"><ele>529.0</ele><time>2026-04-18T08:15:42.686Z</time></trkpt><trkpt lat="43.4847664" lon="11.4280586"><ele>529.0</ele><time>2026-04-18T08:15:43.688Z</time></trkpt><trkpt lat="43.4847073" lon="11.4279702"><ele>529.0</ele><time>2026-04-18T08:15:44.688Z</time></trkpt><trkpt lat="43.4846622" lon="11.4278947"><ele>530.1666666666667</ele><time>2026-04-18T08:15:45.688Z</time></trkpt><trkpt lat="43.4846188" lon="11.4277961"><ele>531.3333333333334</ele><time>2026-04-18T08:15:46.688Z</time></trkpt><trkpt lat="43.4845844" lon="11.4277133"><ele>532.5</ele><time>2026-04-18T08:15:47.688Z</time></trkpt><trkpt lat="43.4845853" lon="11.4275904"><ele>533.6666666666666</ele><time>2026-04-18T08:15:49.688Z</time></trkpt><trkpt lat="43.4846589" lon="11.4275382"><ele>534.8333333333333</ele><time>2026-04-18T08:15:51.688Z</time></trkpt><trkpt lat="43.4847304" lon="11.4275367"><ele>536.0</ele><time>2026-04-18T08:15:52.688Z</time></trkpt><trkpt lat="43.4848181" lon="11.4275377"><ele>536.0</ele><time>2026-04-18T08:15:53.688Z</time></trkpt><trkpt lat="43.4849096" lon="11.4275274"><ele>536.0</ele><time>2026-04-18T08:15:54.688Z</time></trkpt><trkpt lat="43.4849869" lon="11.4275114"><ele>536.0</ele><time>2026-04-18T08:15:55.688Z</time></trkpt><trkpt lat="43.485068" lon="11.4274565"><ele>536.0</ele><time>2026-04-18T08:15:56.689Z</time></trkpt><trkpt lat="43.4851293" lon="11.4273672"><ele>536.0</ele><time>2026-04-18T08:15:57.688Z</time></trkpt><trkpt lat="43.4851861" lon="11.4272568"><ele>536.0</ele><time>2026-04-18T08:15:58.688Z</time></trkpt><trkpt lat="43.4852489" lon="11.4271458"><ele>534.4</ele><time>2026-04-18T08:15:59.689Z</time></trkpt><trkpt lat="43.4853142" lon="11.4270516"><ele>532.8</ele><time>2026-04-18T08:16:00.688Z</time></trkpt><trkpt lat="43.4853903" lon="11.426968"><ele>531.1999999999999</ele><time>2026-04-18T08:16:01.688Z</time></trkpt><trkpt lat="43.4854717" lon="11.426877"><ele>529.6</ele><time>2026-04-18T08:16:02.689Z</time></trkpt><trkpt lat="43.4855633" lon="11.4267951"><ele>528.0</ele><time>2026-04-18T08:16:03.688Z</time></trkpt><trkpt lat="43.4856444" lon="11.4267213"><ele>533.6</ele><time>2026-04-18T08:16:04.688Z</time></trkpt><trkpt lat="43.485723" lon="11.4266732"><ele>539.1999999999999</ele><time>2026-04-18T08:16:05.688Z</time></trkpt><trkpt lat="43.4858153" lon="11.4266251"><ele>544.8</ele><time>2026-04-18T08:16:06.688Z</time></trkpt><trkpt lat="43.4859136" lon="11.4265654"><ele>550.4</ele><time>2026-04-18T08:16:07.688Z</time></trkpt><trkpt lat="43.485994" lon="11.426486"><ele>556.0</ele><time>2026-04-18T08:16:08.689Z</time></trkpt><trkpt lat="43.4860526" lon="11.4264148"><ele>556.0</ele><time>2026-04-18T08:16:09.689Z</time></trkpt><trkpt lat="43.4860785" lon="11.4263317"><ele>556.0</ele><time>2026-04-18T08:16:10.688Z</time></trkpt><trkpt lat="43.4860828" lon="11.4262356"><ele>556.0</ele><time>2026-04-18T08:16:11.688Z</time></trkpt><trkpt lat="43.4860709" lon="11.4261418"><ele>556.0</ele><time>2026-04-18T08:16:12.688Z</time></trkpt><trkpt lat="43.4860331" lon="11.4260283"><ele>556.0</ele><time>2026-04-18T08:16:13.688Z</time></trkpt><trkpt lat="43.4859929" lon="11.4259139"><ele>556.0</ele><time>2026-04-18T08:16:14.688Z</time></trkpt><trkpt lat="43.4859731" lon="11.4257972"><ele>554.6</ele><time>2026-04-18T08:16:15.688Z</time></trkpt><trkpt lat="43.4859809" lon="11.4257015"><ele>553.2</ele><time>2026-04-18T08:16:16.689Z</time></trkpt><trkpt lat="43.4860698" lon="11.4255882"><ele>551.8</ele><time>2026-04-18T08:16:18.688Z</time></trkpt><trkpt lat="43.4861484" lon="11.4255284"><ele>550.4</ele><time>2026-04-18T08:16:19.689Z</time></trkpt><trkpt lat="43.4862448" lon="11.4255027"><ele>549.0</ele><time>2026-04-18T08:16:20.688Z</time></trkpt><trkpt lat="43.4863446" lon="11.4254851"><ele>548.8333333333334</ele><time>2026-04-18T08:16:21.688Z</time></trkpt><trkpt lat="43.4864314" lon="11.4254662"><ele>548.6666666666666</ele><time>2026-04-18T08:16:22.689Z</time></trkpt><trkpt lat="43.4865152" lon="11.4254459"><ele>548.5</ele><time>2026-04-18T08:16:23.688Z</time></trkpt><trkpt lat="43.4865924" lon="11.4254379"><ele>548.3333333333333</ele><time>2026-04-18T08:16:24.688Z</time></trkpt><trkpt lat="43.4866624" lon="11.425387"><ele>548.1666666666666</ele><time>2026-04-18T08:16:25.688Z</time></trkpt><trkpt lat="43.4867245" lon="11.4253032"><ele>548.0</ele><time>2026-04-18T08:16:26.688Z</time></trkpt><trkpt lat="43.4867591" lon="11.4251802"><ele>548.0</ele><time>2026-04-18T08:16:27.689Z</time></trkpt><trkpt lat="43.4867751" lon="11.4250275"><ele>548.0</ele><time>2026-04-18T08:16:28.688Z</time></trkpt><trkpt lat="43.4867774" lon="11.4248501"><ele>548.0</ele><time>2026-04-18T08:16:29.688Z</time></trkpt><trkpt lat="43.4867891" lon="11.4246616"><ele>548.0</ele><time>2026-04-18T08:16:30.688Z</time></trkpt><trkpt lat="43.4868213" lon="11.4244728"><ele>546.0</ele><time>2026-04-18T08:16:31.688Z</time></trkpt><trkpt lat="43.4868569" lon="11.424278"><ele>544.0</ele><time>2026-04-18T08:16:32.688Z</time></trkpt><trkpt lat="43.4868824" lon="11.4240798"><ele>542.0</ele><time>2026-04-18T08:16:33.688Z</time></trkpt><trkpt lat="43.4868951" lon="11.4238788"><ele>540.0</ele><time>2026-04-18T08:16:34.688Z</time></trkpt><trkpt lat="43.4869007" lon="11.4237069"><ele>540.0</ele><time>2026-04-18T08:16:35.688Z</time></trkpt><trkpt lat="43.4869128" lon="11.423555"><ele>540.0</ele><time>2026-04-18T08:16:36.688Z</time></trkpt><trkpt lat="43.486913" lon="11.4234293"><ele>540.0</ele><time>2026-04-18T08:16:37.688Z</time></trkpt><trkpt lat="43.4868843" lon="11.4232856"><ele>540.0</ele><time>2026-04-18T08:16:38.689Z</time></trkpt><trkpt lat="43.4868489" lon="11.4231342"><ele>540.0</ele><time>2026-04-18T08:16:39.688Z</time></trkpt><trkpt lat="43.4868091" lon="11.4229724"><ele>540.6</ele><time>2026-04-18T08:16:40.688Z</time></trkpt><trkpt lat="43.4867698" lon="11.4228335"><ele>541.2</ele><time>2026-04-18T08:16:41.688Z</time></trkpt><trkpt lat="43.4867623" lon="11.4227281"><ele>541.8</ele><time>2026-04-18T08:16:42.688Z</time></trkpt><trkpt lat="43.4867685" lon="11.4226135"><ele>542.4</ele><time>2026-04-18T08:16:43.688Z</time></trkpt><trkpt lat="43.4867942" lon="11.4224892"><ele>543.0</ele><time>2026-04-18T08:16:44.688Z</time></trkpt><trkpt lat="43.4868403" lon="11.4223414"><ele>543.0</ele><time>2026-04-18T08:16:45.689Z</time></trkpt><trkpt lat="43.4868934" lon="11.4221932"><ele>543.0</ele><time>2026-04-18T08:16:46.688Z</time></trkpt><trkpt lat="43.4869374" lon="11.4220657"><ele>543.0</ele><time>2026-04-18T08:16:47.688Z</time></trkpt><trkpt lat="43.486963" lon="11.4219661"><ele>543.0</ele><time>2026-04-18T08:16:48.688Z</time></trkpt><trkpt lat="43.4869956" lon="11.4218897"><ele>543.0</ele><time>2026-04-18T08:16:49.688Z</time></trkpt><trkpt lat="43.4870454" lon="11.4217838"><ele>543.0</ele><time>2026-04-18T08:16:51.688Z</time></trkpt><trkpt lat="43.4870159" lon="11.4216458"><ele>543.0</ele><time>2026-04-18T08:16:53.688Z</time></trkpt><trkpt lat="43.4869773" lon="11.4215667"><ele>543.0</ele><time>2026-04-18T08:16:54.688Z</time></trkpt><trkpt lat="43.4869312" lon="11.421465"><ele>543.0</ele><time>2026-04-18T08:16:55.688Z</time></trkpt><trkpt lat="43.4868715" lon="11.4213698"><ele>543.0</ele><time>2026-04-18T08:16:56.689Z</time></trkpt><trkpt lat="43.4868166" lon="11.421245"><ele>542.75</ele><time>2026-04-18T08:16:57.688Z</time></trkpt><trkpt lat="43.486752" lon="11.4211143"><ele>542.5</ele><time>2026-04-18T08:16:58.688Z</time></trkpt><trkpt lat="43.4866762" lon="11.420976"><ele>542.25</ele><time>2026-04-18T08:16:59.689Z</time></trkpt><trkpt lat="43.4865867" lon="11.4208204"><ele>542.0</ele><time>2026-04-18T08:17:00.689Z</time></trkpt><trkpt lat="43.4864999" lon="11.4206913"><ele>542.0</ele><time>2026-04-18T08:17:01.689Z</time></trkpt><trkpt lat="43.4864042" lon="11.4205706"><ele>542.0</ele><time>2026-04-18T08:17:02.688Z</time></trkpt><trkpt lat="43.4862965" lon="11.4204623"><ele>542.0</ele><time>2026-04-18T08:17:03.688Z</time></trkpt><trkpt lat="43.4861808" lon="11.4203674"><ele>542.0</ele><time>2026-04-18T08:17:04.689Z</time></trkpt><trkpt lat="43.4860615" lon="11.4202981"><ele>543.25</ele><time>2026-04-18T08:17:05.688Z</time></trkpt><trkpt lat="43.4859368" lon="11.4202276"><ele>544.5</ele><time>2026-04-18T08:17:06.688Z</time></trkpt><trkpt lat="43.4858226" lon="11.4201647"><ele>545.75</ele><time>2026-04-18T08:17:07.688Z</time></trkpt><trkpt lat="43.4857083" lon="11.4200933"><ele>547.0</ele><time>2026-04-18T08:17:08.689Z</time></trkpt><trkpt lat="43.485594" lon="11.4200247"><ele>547.0</ele><time>2026-04-18T08:17:09.688Z</time></trkpt><trkpt lat="43.4854728" lon="11.4199593"><ele>547.0</ele><time>2026-04-18T08:17:10.689Z</time></trkpt><trkpt lat="43.485351" lon="11.4198906"><ele>547.0</ele><time>2026-04-18T08:17:11.689Z</time></trkpt><trkpt lat="43.4852238" lon="11.4198236"><ele>547.0</ele><time>2026-04-18T08:17:12.688Z</time></trkpt><trkpt lat="43.4851063" lon="11.4197599"><ele>546.8000000000001</ele><time>2026-04-18T08:17:13.688Z</time></trkpt><trkpt lat="43.4849914" lon="11.4196968"><ele>546.6</ele><time>2026-04-18T08:17:14.688Z</time></trkpt><trkpt lat="43.4848849" lon="11.4196339"><ele>546.4000000000001</ele><time>2026-04-18T08:17:15.688Z</time></trkpt><trkpt lat="43.4847884" lon="11.4195704"><ele>546.2</ele><time>2026-04-18T08:17:16.688Z</time></trkpt><trkpt lat="43.4846989" lon="11.4195224"><ele>546.0</ele><time>2026-04-18T08:17:17.688Z</time></trkpt><trkpt lat="43.4846141" lon="11.4194766"><ele>546.3333333333334</ele><time>2026-04-18T08:17:18.688Z</time></trkpt><trkpt lat="43.4845343" lon="11.4194577"><ele>546.6666666666666</ele><time>2026-04-18T08:17:19.688Z</time></trkpt><trkpt lat="43.484464" lon="11.419445"><ele>547.0</ele><time>2026-04-18T08:17:20.688Z</time></trkpt><trkpt lat="43.4843702" lon="11.4194221"><ele>547.3333333333333</ele><time>2026-04-18T08:17:22.689Z</time></trkpt><trkpt lat="43.4843046" lon="11.4193153"><ele>547.6666666666666</ele><time>2026-04-18T08:17:24.688Z</time></trkpt><trkpt lat="43.4842874" lon="11.4192315"><ele>548.0</ele><time>2026-04-18T08:17:25.689Z</time></trkpt><trkpt lat="43.4842714" lon="11.419127"><ele>548.0</ele><time>2026-04-18T08:17:26.688Z</time></trkpt><trkpt lat="43.4842771" lon="11.4189907"><ele>548.0</ele><time>2026-04-18T08:17:27.688Z</time></trkpt><trkpt lat="43.4842783" lon="11.418832"><ele>548.0</ele><time>2026-04-18T08:17:28.688Z</time></trkpt><trkpt lat="43.4842757" lon="11.4186742"><ele>548.0</ele><time>2026-04-18T08:17:29.688Z</time></trkpt><trkpt lat="43.484267" lon="11.4185187"><ele>548.0</ele><time>2026-04-18T08:17:30.688Z</time></trkpt><trkpt lat="43.4842497" lon="11.4183539"><ele>548.0</ele><time>2026-04-18T08:17:31.688Z</time></trkpt><trkpt lat="43.4842232" lon="11.4181858"><ele>548.0</ele><time>2026-04-18T08:17:32.689Z</time></trkpt><trkpt lat="43.484213" lon="11.4180097"><ele>548.0</ele><time>2026-04-18T08:17:33.688Z</time></trkpt><trkpt lat="43.4842155" lon="11.4178458"><ele>548.0</ele><time>2026-04-18T08:17:34.688Z</time></trkpt><trkpt lat="43.4842031" lon="11.4177195"><ele>548.0</ele><time>2026-04-18T08:17:35.689Z</time></trkpt><trkpt lat="43.4841938" lon="11.4175957"><ele>548.0</ele><time>2026-04-18T08:17:36.689Z</time></trkpt><trkpt lat="43.4841811" lon="11.4174785"><ele>548.0</ele><time>2026-04-18T08:17:37.688Z</time></trkpt><trkpt lat="43.4841633" lon="11.4173843"><ele>548.0</ele><time>2026-04-18T08:17:38.688Z</time></trkpt><trkpt lat="43.4841166" lon="11.4172513"><ele>548.0</ele><time>2026-04-18T08:17:39.688Z</time></trkpt><trkpt lat="43.4840577" lon="11.417098"><ele>547.75</ele><time>2026-04-18T08:17:40.689Z</time></trkpt><trkpt lat="43.4840045" lon="11.4169355"><ele>547.5</ele><time>2026-04-18T08:17:41.689Z</time></trkpt><trkpt lat="43.4839468" lon="11.4167756"><ele>547.25</ele><time>2026-04-18T08:17:42.688Z</time></trkpt><trkpt lat="43.4838779" lon="11.4166242"><ele>547.0</ele><time>2026-04-18T08:17:43.689Z</time></trkpt><trkpt lat="43.4838063" lon="11.4164701"><ele>550.25</ele><time>2026-04-18T08:17:44.688Z</time></trkpt><trkpt lat="43.483725" lon="11.4163064"><ele>553.5</ele><time>2026-04-18T08:17:45.689Z</time></trkpt><trkpt lat="43.4836462" lon="11.4161411"><ele>556.75</ele><time>2026-04-18T08:17:46.689Z</time></trkpt><trkpt lat="43.4835804" lon="11.4159741"><ele>560.0</ele><time>2026-04-18T08:17:47.685Z</time></trkpt><trkpt lat="43.483511" lon="11.415852"><ele>560.0</ele><time>2026-04-18T08:17:48.688Z</time></trkpt><trkpt lat="43.4834204" lon="11.4157555"><ele>560.0</ele><time>2026-04-18T08:17:49.689Z</time></trkpt><trkpt lat="43.4833171" lon="11.4156364"><ele>560.0</ele><time>2026-04-18T08:17:50.688Z</time></trkpt><trkpt lat="43.483203" lon="11.4155128"><ele>560.0</ele><time>2026-04-18T08:17:51.688Z</time></trkpt><trkpt lat="43.4830861" lon="11.4154083"><ele>559.6666666666666</ele><time>2026-04-18T08:17:52.688Z</time></trkpt><trkpt lat="43.4829605" lon="11.4152869"><ele>559.3333333333334</ele><time>2026-04-18T08:17:53.689Z</time></trkpt><trkpt lat="43.4828363" lon="11.4151627"><ele>559.0</ele><time>2026-04-18T08:17:54.688Z</time></trkpt><trkpt lat="43.4827153" lon="11.4150398"><ele>561.6666666666667</ele><time>2026-04-18T08:17:55.689Z</time></trkpt><trkpt lat="43.4825915" lon="11.4148956"><ele>564.3333333333334</ele><time>2026-04-18T08:17:56.688Z</time></trkpt><trkpt lat="43.4824592" lon="11.4147775"><ele>567.0</ele><time>2026-04-18T08:17:57.688Z</time></trkpt><trkpt lat="43.4823419" lon="11.4146499"><ele>568.2</ele><time>2026-04-18T08:17:58.689Z</time></trkpt><trkpt lat="43.4822266" lon="11.4145526"><ele>569.4000000000001</ele><time>2026-04-18T08:17:59.689Z</time></trkpt><trkpt lat="43.4821338" lon="11.4144721"><ele>570.5999999999999</ele><time>2026-04-18T08:18:00.688Z</time></trkpt><trkpt lat="43.4820663" lon="11.4143936"><ele>571.8</ele><time>2026-04-18T08:18:01.688Z</time></trkpt><trkpt lat="43.4820129" lon="11.4143181"><ele>573.0</ele><time>2026-04-18T08:18:02.688Z</time></trkpt><trkpt lat="43.4819728" lon="11.4142147"><ele>573.0</ele><time>2026-04-18T08:18:03.688Z</time></trkpt><trkpt lat="43.4819387" lon="11.4140889"><ele>573.0</ele><time>2026-04-18T08:18:04.688Z</time></trkpt><trkpt lat="43.4819059" lon="11.4139704"><ele>573.0</ele><time>2026-04-18T08:18:05.689Z</time></trkpt><trkpt lat="43.4818741" lon="11.4138266"><ele>573.0</ele><time>2026-04-18T08:18:06.689Z</time></trkpt><trkpt lat="43.4818466" lon="11.4136595"><ele>573.0</ele><time>2026-04-18T08:18:07.688Z</time></trkpt><trkpt lat="43.4818166" lon="11.4134727"><ele>575.0</ele><time>2026-04-18T08:18:08.688Z</time></trkpt><trkpt lat="43.4817916" lon="11.4132925"><ele>577.0</ele><time>2026-04-18T08:18:09.689Z</time></trkpt><trkpt lat="43.4817562" lon="11.4131015"><ele>579.0</ele><time>2026-04-18T08:18:10.689Z</time></trkpt><trkpt lat="43.4817221" lon="11.4129204"><ele>581.0</ele><time>2026-04-18T08:18:11.688Z</time></trkpt><trkpt lat="43.4816816" lon="11.4127518"><ele>581.4</ele><time>2026-04-18T08:18:12.689Z</time></trkpt><trkpt lat="43.4816593" lon="11.4125821"><ele>581.8</ele><time>2026-04-18T08:18:13.688Z</time></trkpt><trkpt lat="43.4816423" lon="11.4124199"><ele>582.1999999999999</ele><time>2026-04-18T08:18:14.688Z</time></trkpt><trkpt lat="43.4816364" lon="11.4122745"><ele>582.6</ele><time>2026-04-18T08:18:15.688Z</time></trkpt><trkpt lat="43.4816274" lon="11.4121399"><ele>583.0</ele><time>2026-04-18T08:18:16.688Z</time></trkpt><trkpt lat="43.4816201" lon="11.4120233"><ele>583.0</ele><time>2026-04-18T08:18:17.688Z</time></trkpt><trkpt lat="43.4816012" lon="11.411894"><ele>583.0</ele><time>2026-04-18T08:18:18.688Z</time></trkpt><trkpt lat="43.4815603" lon="11.4117409"><ele>583.0</ele><time>2026-04-18T08:18:19.688Z</time></trkpt><trkpt lat="43.4815059" lon="11.4115826"><ele>583.0</ele><time>2026-04-18T08:18:20.688Z</time></trkpt><trkpt lat="43.4814538" lon="11.4114265"><ele>582.0</ele><time>2026-04-18T08:18:21.689Z</time></trkpt><trkpt lat="43.4814115" lon="11.4112733"><ele>581.0</ele><time>2026-04-18T08:18:22.688Z</time></trkpt><trkpt lat="43.4813784" lon="11.4111143"><ele>580.0</ele><time>2026-04-18T08:18:23.688Z</time></trkpt><trkpt lat="43.4813603" lon="11.4109236"><ele>579.0</ele><time>2026-04-18T08:18:24.688Z</time></trkpt><trkpt lat="43.4813451" lon="11.4107459"><ele>579.0</ele><time>2026-04-18T08:18:25.688Z</time></trkpt><trkpt lat="43.4813537" lon="11.4105904"><ele>579.0</ele><time>2026-04-18T08:18:26.689Z</time></trkpt><trkpt lat="43.481368" lon="11.4104111"><ele>579.0</ele><time>2026-04-18T08:18:27.688Z</time></trkpt><trkpt lat="43.4813829" lon="11.4102496"><ele>579.0</ele><time>2026-04-18T08:18:28.688Z</time></trkpt><trkpt lat="43.4813981" lon="11.4101021"><ele>579.8</ele><time>2026-04-18T08:18:29.688Z</time></trkpt><trkpt lat="43.4814184" lon="11.4099394"><ele>580.5999999999999</ele><time>2026-04-18T08:18:30.688Z</time></trkpt><trkpt lat="43.4814545" lon="11.4097884"><ele>581.4</ele><time>2026-04-18T08:18:31.688Z</time></trkpt><trkpt lat="43.4814993" lon="11.4096526"><ele>582.1999999999999</ele><time>2026-04-18T08:18:32.688Z</time></trkpt><trkpt lat="43.4815371" lon="11.4095351"><ele>583.0</ele><time>2026-04-18T08:18:33.688Z</time></trkpt><trkpt lat="43.4815744" lon="11.4094109"><ele>583.1999999999999</ele><time>2026-04-18T08:18:34.689Z</time></trkpt><trkpt lat="43.4816099" lon="11.4092754"><ele>583.4</ele><time>2026-04-18T08:18:35.688Z</time></trkpt><trkpt lat="43.4816497" lon="11.4091365"><ele>583.5999999999999</ele><time>2026-04-18T08:18:36.688Z</time></trkpt><trkpt lat="43.4816895" lon="11.4090054"><ele>583.8</ele><time>2026-04-18T08:18:37.688Z</time></trkpt><trkpt lat="43.4817258" lon="11.4088841"><ele>584.0</ele><time>2026-04-18T08:18:38.688Z</time></trkpt><trkpt lat="43.4817589" lon="11.408792"><ele>582.6666666666666</ele><time>2026-04-18T08:18:39.688Z</time></trkpt><trkpt lat="43.4817984" lon="11.4087014"><ele>581.3333333333333</ele><time>2026-04-18T08:18:40.688Z</time></trkpt><trkpt lat="43.4818361" lon="11.4086119"><ele>580.0</ele><time>2026-04-18T08:18:41.688Z</time></trkpt><trkpt lat="43.4818796" lon="11.4085082"><ele>578.6666666666666</ele><time>2026-04-18T08:18:42.688Z</time></trkpt><trkpt lat="43.4819186" lon="11.4084168"><ele>577.3333333333334</ele><time>2026-04-18T08:18:43.688Z</time></trkpt><trkpt lat="43.4819652" lon="11.4083367"><ele>576.0</ele><time>2026-04-18T08:18:44.688Z</time></trkpt><trkpt lat="43.4820108" lon="11.4082616"><ele>576.0</ele><time>2026-04-18T08:18:45.688Z</time></trkpt><trkpt lat="43.4820655" lon="11.4081943"><ele>576.0</ele><time>2026-04-18T08:18:46.688Z</time></trkpt><trkpt lat="43.482123" lon="11.4081141"><ele>576.0</ele><time>2026-04-18T08:18:47.689Z</time></trkpt><trkpt lat="43.4821747" lon="11.408033"><ele>576.0</ele><time>2026-04-18T08:18:48.689Z</time></trkpt><trkpt lat="43.4822261" lon="11.4079444"><ele>576.0</ele><time>2026-04-18T08:18:49.689Z</time></trkpt><trkpt lat="43.482275" lon="11.4078555"><ele>576.0</ele><time>2026-04-18T08:18:50.689Z</time></trkpt><trkpt lat="43.4823195" lon="11.4077668"><ele>574.5</ele><time>2026-04-18T08:18:51.689Z</time></trkpt><trkpt lat="43.4823658" lon="11.4076701"><ele>573.0</ele><time>2026-04-18T08:18:52.688Z</time></trkpt><trkpt lat="43.4823999" lon="11.4075642"><ele>571.5</ele><time>2026-04-18T08:18:53.688Z</time></trkpt><trkpt lat="43.482422" lon="11.4074534"><ele>570.0</ele><time>2026-04-18T08:18:54.688Z</time></trkpt><trkpt lat="43.4824425" lon="11.4073402"><ele>568.5</ele><time>2026-04-18T08:18:55.689Z</time></trkpt><trkpt lat="43.4824742" lon="11.4072203"><ele>567.0</ele><time>2026-04-18T08:18:56.688Z</time></trkpt><trkpt lat="43.4825168" lon="11.4071005"><ele>566.4</ele><time>2026-04-18T08:18:57.688Z</time></trkpt><trkpt lat="43.4825625" lon="11.4069979"><ele>565.8000000000001</ele><time>2026-04-18T08:18:58.689Z</time></trkpt><trkpt lat="43.4826196" lon="11.4069358"><ele>565.2</ele><time>2026-04-18T08:18:59.688Z</time></trkpt><trkpt lat="43.4827267" lon="11.4068356"><ele>564.6</ele><time>2026-04-18T08:19:01.688Z</time></trkpt><trkpt lat="43.4828022" lon="11.4067196"><ele>564.0</ele><time>2026-04-18T08:19:03.688Z</time></trkpt><trkpt lat="43.4828207" lon="11.4066332"><ele>564.0</ele><time>2026-04-18T08:19:04.688Z</time></trkpt><trkpt lat="43.4828057" lon="11.4065124"><ele>564.0</ele><time>2026-04-18T08:19:05.688Z</time></trkpt><trkpt lat="43.4827864" lon="11.4063712"><ele>564.0</ele><time>2026-04-18T08:19:06.688Z</time></trkpt><trkpt lat="43.4827563" lon="11.4062178"><ele>564.0</ele><time>2026-04-18T08:19:07.689Z</time></trkpt><trkpt lat="43.4827415" lon="11.4060663"><ele>564.0</ele><time>2026-04-18T08:19:08.688Z</time></trkpt><trkpt lat="43.4827228" lon="11.4059173"><ele>562.8333333333334</ele><time>2026-04-18T08:19:09.684Z</time></trkpt><trkpt lat="43.4827051" lon="11.405784"><ele>561.6666666666666</ele><time>2026-04-18T08:19:10.689Z</time></trkpt><trkpt lat="43.4826876" lon="11.4056682"><ele>560.5</ele><time>2026-04-18T08:19:11.688Z</time></trkpt><trkpt lat="43.4826784" lon="11.4055664"><ele>559.3333333333333</ele><time>2026-04-18T08:19:12.688Z</time></trkpt><trkpt lat="43.4826628" lon="11.4054746"><ele>558.1666666666666</ele><time>2026-04-18T08:19:13.688Z</time></trkpt><trkpt lat="43.4826176" lon="11.4053292"><ele>557.0</ele><time>2026-04-18T08:19:15.689Z</time></trkpt><trkpt lat="43.4825816" lon="11.4052518"><ele>554.2</ele><time>2026-04-18T08:19:16.688Z</time></trkpt><trkpt lat="43.4825015" lon="11.4051529"><ele>551.4000000000001</ele><time>2026-04-18T08:19:18.688Z</time></trkpt><trkpt lat="43.4823904" lon="11.4050619"><ele>548.5999999999999</ele><time>2026-04-18T08:19:20.689Z</time></trkpt><trkpt lat="43.4823252" lon="11.4050116"><ele>545.8</ele><time>2026-04-18T08:19:21.688Z</time></trkpt><trkpt lat="43.4822562" lon="11.4049557"><ele>543.0</ele><time>2026-04-18T08:19:22.688Z</time></trkpt><trkpt lat="43.482182" lon="11.4048896"><ele>543.0</ele><time>2026-04-18T08:19:23.689Z</time></trkpt><trkpt lat="43.4821079" lon="11.4048366"><ele>543.0</ele><time>2026-04-18T08:19:24.689Z</time></trkpt><trkpt lat="43.4820418" lon="11.4047879"><ele>543.0</ele><time>2026-04-18T08:19:25.688Z</time></trkpt><trkpt lat="43.4819675" lon="11.4047407"><ele>543.0</ele><time>2026-04-18T08:19:26.688Z</time></trkpt><trkpt lat="43.4818818" lon="11.4046811"><ele>543.0</ele><time>2026-04-18T08:19:27.689Z</time></trkpt><trkpt lat="43.481801" lon="11.4046168"><ele>543.0</ele><time>2026-04-18T08:19:28.688Z</time></trkpt><trkpt lat="43.4817259" lon="11.4045524"><ele>540.0</ele><time>2026-04-18T08:19:29.689Z</time></trkpt><trkpt lat="43.481645" lon="11.4044993"><ele>537.0</ele><time>2026-04-18T08:19:30.688Z</time></trkpt><trkpt lat="43.481568" lon="11.4044512"><ele>534.0</ele><time>2026-04-18T08:19:31.688Z</time></trkpt><trkpt lat="43.481486" lon="11.4043877"><ele>531.0</ele><time>2026-04-18T08:19:32.689Z</time></trkpt><trkpt lat="43.4814131" lon="11.4043289"><ele>528.0</ele><time>2026-04-18T08:19:33.688Z</time></trkpt><trkpt lat="43.4813312" lon="11.4042667"><ele>525.0</ele><time>2026-04-18T08:19:34.688Z</time></trkpt><trkpt lat="43.4812492" lon="11.4042355"><ele>524.6666666666666</ele><time>2026-04-18T08:19:35.689Z</time></trkpt><trkpt lat="43.4811819" lon="11.4042066"><ele>524.3333333333334</ele><time>2026-04-18T08:19:36.685Z</time></trkpt><trkpt lat="43.4811114" lon="11.4041637"><ele>524.0</ele><time>2026-04-18T08:19:37.688Z</time></trkpt><trkpt lat="43.4810479" lon="11.4041192"><ele>523.6666666666667</ele><time>2026-04-18T08:19:38.688Z</time></trkpt><trkpt lat="43.4809814" lon="11.4040823"><ele>523.3333333333334</ele><time>2026-04-18T08:19:39.688Z</time></trkpt><trkpt lat="43.4809125" lon="11.4039844"><ele>523.0</ele><time>2026-04-18T08:19:41.688Z</time></trkpt><trkpt lat="43.4809225" lon="11.4038347"><ele>521.8</ele><time>2026-04-18T08:19:43.689Z</time></trkpt><trkpt lat="43.4809409" lon="11.4037445"><ele>520.5999999999999</ele><time>2026-04-18T08:19:44.688Z</time></trkpt><trkpt lat="43.4809747" lon="11.4036368"><ele>519.4000000000001</ele><time>2026-04-18T08:19:45.683Z</time></trkpt><trkpt lat="43.4810078" lon="11.4035594"><ele>518.2</ele><time>2026-04-18T08:19:46.688Z</time></trkpt><trkpt lat="43.4810896" lon="11.4034529"><ele>517.0</ele><time>2026-04-18T08:19:48.688Z</time></trkpt><trkpt lat="43.4812194" lon="11.4033801"><ele>516.0</ele><time>2026-04-18T08:19:50.688Z</time></trkpt><trkpt lat="43.481303" lon="11.4033466"><ele>515.0</ele><time>2026-04-18T08:19:51.689Z</time></trkpt><trkpt lat="43.4813976" lon="11.4033323"><ele>514.0</ele><time>2026-04-18T08:19:52.688Z</time></trkpt><trkpt lat="43.4815068" lon="11.4033079"><ele>513.0</ele><time>2026-04-18T08:19:53.689Z</time></trkpt><trkpt lat="43.4816188" lon="11.4032836"><ele>512.0</ele><time>2026-04-18T08:19:54.688Z</time></trkpt><trkpt lat="43.4817283" lon="11.4032545"><ele>512.0</ele><time>2026-04-18T08:19:55.689Z</time></trkpt><trkpt lat="43.4818381" lon="11.40321"><ele>512.0</ele><time>2026-04-18T08:19:56.688Z</time></trkpt><trkpt lat="43.4819483" lon="11.4031888"><ele>512.0</ele><time>2026-04-18T08:19:57.689Z</time></trkpt><trkpt lat="43.482051" lon="11.4031573"><ele>512.0</ele><time>2026-04-18T08:19:58.688Z</time></trkpt><trkpt lat="43.4821479" lon="11.4031189"><ele>512.0</ele><time>2026-04-18T08:19:59.688Z</time></trkpt><trkpt lat="43.4822551" lon="11.4030718"><ele>512.75</ele><time>2026-04-18T08:20:00.688Z</time></trkpt><trkpt lat="43.4823676" lon="11.4030251"><ele>513.5</ele><time>2026-04-18T08:20:01.688Z</time></trkpt><trkpt lat="43.4824845" lon="11.4030017"><ele>514.25</ele><time>2026-04-18T08:20:02.688Z</time></trkpt><trkpt lat="43.4825959" lon="11.4029706"><ele>515.0</ele><time>2026-04-18T08:20:03.688Z</time></trkpt><trkpt lat="43.482716" lon="11.4029369"><ele>511.4</ele><time>2026-04-18T08:20:04.688Z</time></trkpt><trkpt lat="43.4828342" lon="11.4029036"><ele>507.8</ele><time>2026-04-18T08:20:05.688Z</time></trkpt><trkpt lat="43.4829521" lon="11.4028762"><ele>504.20000000000005</ele><time>2026-04-18T08:20:06.688Z</time></trkpt><trkpt lat="43.483057" lon="11.4028529"><ele>500.6</ele><time>2026-04-18T08:20:07.688Z</time></trkpt><trkpt lat="43.4831523" lon="11.4028334"><ele>497.0</ele><time>2026-04-18T08:20:08.688Z</time></trkpt><trkpt lat="43.4832432" lon="11.4028053"><ele>496.3333333333333</ele><time>2026-04-18T08:20:09.688Z</time></trkpt><trkpt lat="43.4833314" lon="11.4027848"><ele>495.66666666666663</ele><time>2026-04-18T08:20:10.688Z</time></trkpt><trkpt lat="43.4834162" lon="11.4027727"><ele>495.0</ele><time>2026-04-18T08:20:11.688Z</time></trkpt><trkpt lat="43.4835032" lon="11.4027772"><ele>494.33333333333337</ele><time>2026-04-18T08:20:12.688Z</time></trkpt><trkpt lat="43.4835859" lon="11.402795"><ele>493.6666666666667</ele><time>2026-04-18T08:20:13.688Z</time></trkpt><trkpt lat="43.4836494" lon="11.4028328"><ele>493.0</ele><time>2026-04-18T08:20:14.688Z</time></trkpt><trkpt lat="43.4837065" lon="11.4028915"><ele>493.0</ele><time>2026-04-18T08:20:15.689Z</time></trkpt><trkpt lat="43.4837612" lon="11.4029576"><ele>492.99999999999994</ele><time>2026-04-18T08:20:16.688Z</time></trkpt><trkpt lat="43.4838212" lon="11.4030401"><ele>492.99999999999994</ele><time>2026-04-18T08:20:17.688Z</time></trkpt><trkpt lat="43.4838843" lon="11.403154"><ele>493.0</ele><time>2026-04-18T08:20:18.688Z</time></trkpt><trkpt lat="43.4839338" lon="11.4032727"><ele>493.0</ele><time>2026-04-18T08:20:19.688Z</time></trkpt><trkpt lat="43.4839831" lon="11.4033803"><ele>492.33333333333337</ele><time>2026-04-18T08:20:20.689Z</time></trkpt><trkpt lat="43.4840421" lon="11.4034878"><ele>491.6666666666667</ele><time>2026-04-18T08:20:21.689Z</time></trkpt><trkpt lat="43.4840964" lon="11.4035822"><ele>491.0</ele><time>2026-04-18T08:20:22.688Z</time></trkpt><trkpt lat="43.484148" lon="11.4036729"><ele>490.33333333333337</ele><time>2026-04-18T08:20:23.688Z</time></trkpt><trkpt lat="43.4841919" lon="11.4037643"><ele>489.6666666666667</ele><time>2026-04-18T08:20:24.687Z</time></trkpt><trkpt lat="43.4842346" lon="11.4038641"><ele>489.0</ele><time>2026-04-18T08:20:25.688Z</time></trkpt><trkpt lat="43.4842825" lon="11.4040198"><ele>490.3333333333333</ele><time>2026-04-18T08:20:27.688Z</time></trkpt><trkpt lat="43.4842996" lon="11.4041106"><ele>491.66666666666663</ele><time>2026-04-18T08:20:28.688Z</time></trkpt><trkpt lat="43.484315" lon="11.404202"><ele>493.0</ele><time>2026-04-18T08:20:29.689Z</time></trkpt><trkpt lat="43.4843574" lon="11.4043009"><ele>494.3333333333333</ele><time>2026-04-18T08:20:30.688Z</time></trkpt><trkpt lat="43.4844201" lon="11.4044255"><ele>495.66666666666663</ele><time>2026-04-18T08:20:31.688Z</time></trkpt><trkpt lat="43.4844888" lon="11.4045232"><ele>497.0</ele><time>2026-04-18T08:20:32.688Z</time></trkpt><trkpt lat="43.4845533" lon="11.4046009"><ele>492.8</ele><time>2026-04-18T08:20:33.688Z</time></trkpt><trkpt lat="43.4846148" lon="11.4046915"><ele>488.6</ele><time>2026-04-18T08:20:34.688Z</time></trkpt><trkpt lat="43.4846791" lon="11.4047785"><ele>484.40000000000003</ele><time>2026-04-18T08:20:35.689Z</time></trkpt><trkpt lat="43.4847443" lon="11.4048894"><ele>480.20000000000005</ele><time>2026-04-18T08:20:36.688Z</time></trkpt><trkpt lat="43.4847944" lon="11.4050034"><ele>476.0</ele><time>2026-04-18T08:20:37.688Z</time></trkpt><trkpt lat="43.4848486" lon="11.4050847"><ele>476.0</ele><time>2026-04-18T08:20:38.688Z</time></trkpt><trkpt lat="43.4848972" lon="11.4051588"><ele>476.0</ele><time>2026-04-18T08:20:39.689Z</time></trkpt><trkpt lat="43.4849288" lon="11.4052401"><ele>476.0</ele><time>2026-04-18T08:20:40.688Z</time></trkpt><trkpt lat="43.4849562" lon="11.4053287"><ele>476.0</ele><time>2026-04-18T08:20:41.688Z</time></trkpt><trkpt lat="43.4849757" lon="11.4054152"><ele>476.0</ele><time>2026-04-18T08:20:42.688Z</time></trkpt><trkpt lat="43.4849827" lon="11.4055217"><ele>476.0</ele><time>2026-04-18T08:20:43.688Z</time></trkpt><trkpt lat="43.4849828" lon="11.4056357"><ele>476.0</ele><time>2026-04-18T08:20:44.689Z</time></trkpt><trkpt lat="43.4849793" lon="11.4057501"><ele>476.8</ele><time>2026-04-18T08:20:45.688Z</time></trkpt><trkpt lat="43.4849801" lon="11.4058617"><ele>477.6</ele><time>2026-04-18T08:20:46.688Z</time></trkpt><trkpt lat="43.4850064" lon="11.4059895"><ele>478.4</ele><time>2026-04-18T08:20:47.688Z</time></trkpt><trkpt lat="43.4850653" lon="11.4061156"><ele>479.2</ele><time>2026-04-18T08:20:48.689Z</time></trkpt><trkpt lat="43.4851344" lon="11.4062217"><ele>480.0</ele><time>2026-04-18T08:20:49.688Z</time></trkpt><trkpt lat="43.4851797" lon="11.4063067"><ele>480.7142857142857</ele><time>2026-04-18T08:20:50.688Z</time></trkpt><trkpt lat="43.4852265" lon="11.406402"><ele>481.42857142857144</ele><time>2026-04-18T08:20:51.688Z</time></trkpt><trkpt lat="43.4852574" lon="11.4064969"><ele>482.14285714285717</ele><time>2026-04-18T08:20:52.689Z</time></trkpt><trkpt lat="43.485281" lon="11.4065902"><ele>482.8571428571429</ele><time>2026-04-18T08:20:53.688Z</time></trkpt><trkpt lat="43.4852963" lon="11.4066868"><ele>483.57142857142856</ele><time>2026-04-18T08:20:54.688Z</time></trkpt><trkpt lat="43.4853058" lon="11.4067741"><ele>484.28571428571433</ele><time>2026-04-18T08:20:55.688Z</time></trkpt><trkpt lat="43.4853091" lon="11.406863"><ele>485.00000000000006</ele><time>2026-04-18T08:20:56.688Z</time></trkpt><trkpt lat="43.4853665" lon="11.4070023"><ele>483.49999999999994</ele><time>2026-04-18T08:20:58.688Z</time></trkpt><trkpt lat="43.4854415" lon="11.4070491"><ele>482.0</ele><time>2026-04-18T08:20:59.688Z</time></trkpt><trkpt lat="43.485522" lon="11.4070634"><ele>480.5</ele><time>2026-04-18T08:21:00.689Z</time></trkpt><trkpt lat="43.4855975" lon="11.4070872"><ele>479.0</ele><time>2026-04-18T08:21:01.689Z</time></trkpt><trkpt lat="43.4856955" lon="11.4071741"><ele>477.49999999999994</ele><time>2026-04-18T08:21:03.688Z</time></trkpt><trkpt lat="43.4857304" lon="11.4072898"><ele>476.0</ele><time>2026-04-18T08:21:04.689Z</time></trkpt><trkpt lat="43.4857329" lon="11.4074058"><ele>476.0</ele><time>2026-04-18T08:21:05.689Z</time></trkpt><trkpt lat="43.4857493" lon="11.4075201"><ele>476.0</ele><time>2026-04-18T08:21:06.689Z</time></trkpt><trkpt lat="43.4857929" lon="11.4076481"><ele>476.0</ele><time>2026-04-18T08:21:07.688Z</time></trkpt><trkpt lat="43.4858729" lon="11.4077745"><ele>476.0</ele><time>2026-04-18T08:21:08.688Z</time></trkpt><trkpt lat="43.485956" lon="11.4078758"><ele>476.0</ele><time>2026-04-18T08:21:09.688Z</time></trkpt><trkpt lat="43.4860275" lon="11.4079855"><ele>476.6</ele><time>2026-04-18T08:21:10.689Z</time></trkpt><trkpt lat="43.4860721" lon="11.4080996"><ele>477.20000000000005</ele><time>2026-04-18T08:21:11.688Z</time></trkpt><trkpt lat="43.4860995" lon="11.4082278"><ele>477.79999999999995</ele><time>2026-04-18T08:21:12.688Z</time></trkpt><trkpt lat="43.486113" lon="11.4083434"><ele>478.4</ele><time>2026-04-18T08:21:13.688Z</time></trkpt><trkpt lat="43.4861225" lon="11.408473"><ele>479.0</ele><time>2026-04-18T08:21:14.689Z</time></trkpt><trkpt lat="43.4861357" lon="11.408594"><ele>479.0</ele><time>2026-04-18T08:21:15.688Z</time></trkpt><trkpt lat="43.486159" lon="11.408712"><ele>479.0</ele><time>2026-04-18T08:21:16.688Z</time></trkpt><trkpt lat="43.4862217" lon="11.4088164"><ele>479.0</ele><time>2026-04-18T08:21:18.688Z</time></trkpt><trkpt lat="43.4862957" lon="11.4088167"><ele>479.0</ele><time>2026-04-18T08:21:20.688Z</time></trkpt><trkpt lat="43.4863578" lon="11.4086563"><ele>479.0</ele><time>2026-04-18T08:21:22.689Z</time></trkpt><trkpt lat="43.4863471" lon="11.4085185"><ele>479.79999999999995</ele><time>2026-04-18T08:21:23.688Z</time></trkpt><trkpt lat="43.486335" lon="11.4083809"><ele>480.59999999999997</ele><time>2026-04-18T08:21:24.688Z</time></trkpt><trkpt lat="43.4863316" lon="11.4082184"><ele>481.4</ele><time>2026-04-18T08:21:25.688Z</time></trkpt><trkpt lat="43.486344" lon="11.4080715"><ele>482.2</ele><time>2026-04-18T08:21:26.688Z</time></trkpt><trkpt lat="43.4863765" lon="11.4079452"><ele>483.0</ele><time>2026-04-18T08:21:27.688Z</time></trkpt><trkpt lat="43.486412" lon="11.4078319"><ele>483.0</ele><time>2026-04-18T08:21:28.689Z</time></trkpt><trkpt lat="43.4864483" lon="11.4077182"><ele>483.0</ele><time>2026-04-18T08:21:29.688Z</time></trkpt><trkpt lat="43.4865035" lon="11.4076162"><ele>483.0</ele><time>2026-04-18T08:21:30.686Z</time></trkpt><trkpt lat="43.4865546" lon="11.4075276"><ele>483.0</ele><time>2026-04-18T08:21:31.688Z</time></trkpt><trkpt lat="43.4866158" lon="11.4074339"><ele>483.0</ele><time>2026-04-18T08:21:32.689Z</time></trkpt><trkpt lat="43.4866732" lon="11.4073443"><ele>483.0</ele><time>2026-04-18T08:21:33.688Z</time></trkpt><trkpt lat="43.4867212" lon="11.4072423"><ele>483.0</ele><time>2026-04-18T08:21:34.689Z</time></trkpt><trkpt lat="43.4867462" lon="11.4071217"><ele>482.99999999999994</ele><time>2026-04-18T08:21:35.688Z</time></trkpt><trkpt lat="43.4867513" lon="11.4070139"><ele>482.99999999999994</ele><time>2026-04-18T08:21:36.689Z</time></trkpt><trkpt lat="43.4866812" lon="11.4069412"><ele>483.0</ele><time>2026-04-18T08:21:37.688Z</time></trkpt><trkpt lat="43.4866054" lon="11.4068617"><ele>483.0</ele><time>2026-04-18T08:21:38.688Z</time></trkpt><trkpt lat="43.4865381" lon="11.4067477"><ele>483.0</ele><time>2026-04-18T08:21:39.688Z</time></trkpt><trkpt lat="43.4864996" lon="11.4066245"><ele>482.99999999999994</ele><time>2026-04-18T08:21:40.688Z</time></trkpt><trkpt lat="43.4864774" lon="11.4064933"><ele>482.99999999999994</ele><time>2026-04-18T08:21:41.688Z</time></trkpt><trkpt lat="43.4864591" lon="11.4063531"><ele>483.0</ele><time>2026-04-18T08:21:42.688Z</time></trkpt><trkpt lat="43.486446" lon="11.406204"><ele>483.0</ele><time>2026-04-18T08:21:43.689Z</time></trkpt><trkpt lat="43.486452" lon="11.4060496"><ele>484.4</ele><time>2026-04-18T08:21:44.688Z</time></trkpt><trkpt lat="43.4864595" lon="11.4059009"><ele>485.79999999999995</ele><time>2026-04-18T08:21:45.688Z</time></trkpt><trkpt lat="43.4864749" lon="11.4057533"><ele>487.2</ele><time>2026-04-18T08:21:46.688Z</time></trkpt><trkpt lat="43.4864827" lon="11.4055848"><ele>488.6</ele><time>2026-04-18T08:21:47.688Z</time></trkpt><trkpt lat="43.4864866" lon="11.4054325"><ele>490.0</ele><time>2026-04-18T08:21:48.688Z</time></trkpt><trkpt lat="43.4864884" lon="11.4052733"><ele>490.6</ele><time>2026-04-18T08:21:49.688Z</time></trkpt><trkpt lat="43.4864836" lon="11.4051137"><ele>491.2</ele><time>2026-04-18T08:21:50.688Z</time></trkpt><trkpt lat="43.4864914" lon="11.4049707"><ele>491.79999999999995</ele><time>2026-04-18T08:21:51.688Z</time></trkpt><trkpt lat="43.4865056" lon="11.4048298"><ele>492.4</ele><time>2026-04-18T08:21:52.688Z</time></trkpt><trkpt lat="43.4865245" lon="11.4046834"><ele>493.0</ele><time>2026-04-18T08:21:53.688Z</time></trkpt><trkpt lat="43.4865502" lon="11.4045314"><ele>493.2</ele><time>2026-04-18T08:21:54.688Z</time></trkpt><trkpt lat="43.4865771" lon="11.4043833"><ele>493.4</ele><time>2026-04-18T08:21:55.688Z</time></trkpt><trkpt lat="43.4866079" lon="11.4042362"><ele>493.59999999999997</ele><time>2026-04-18T08:21:56.688Z</time></trkpt><trkpt lat="43.4866375" lon="11.4040937"><ele>493.79999999999995</ele><time>2026-04-18T08:21:57.688Z</time></trkpt><trkpt lat="43.4866789" lon="11.4039593"><ele>494.0</ele><time>2026-04-18T08:21:58.688Z</time></trkpt><trkpt lat="43.4867127" lon="11.4038373"><ele>494.49999999999994</ele><time>2026-04-18T08:21:59.688Z</time></trkpt><trkpt lat="43.4867273" lon="11.4037127"><ele>495.0</ele><time>2026-04-18T08:22:00.688Z</time></trkpt><trkpt lat="43.4867272" lon="11.4036001"><ele>495.5</ele><time>2026-04-18T08:22:01.688Z</time></trkpt><trkpt lat="43.4867163" lon="11.4034826"><ele>496.0</ele><time>2026-04-18T08:22:02.689Z</time></trkpt><trkpt lat="43.4866953" lon="11.4033638"><ele>496.49999999999994</ele><time>2026-04-18T08:22:03.689Z</time></trkpt><trkpt lat="43.486662" lon="11.4032503"><ele>497.0</ele><time>2026-04-18T08:22:04.688Z</time></trkpt><trkpt lat="43.4866338" lon="11.4031259"><ele>497.0</ele><time>2026-04-18T08:22:05.688Z</time></trkpt><trkpt lat="43.486616" lon="11.4030019"><ele>497.00000000000006</ele><time>2026-04-18T08:22:06.688Z</time></trkpt><trkpt lat="43.4866153" lon="11.4028749"><ele>497.00000000000006</ele><time>2026-04-18T08:22:07.688Z</time></trkpt><trkpt lat="43.4866208" lon="11.4027468"><ele>497.0</ele><time>2026-04-18T08:22:08.689Z</time></trkpt><trkpt lat="43.4866249" lon="11.4026231"><ele>497.0</ele><time>2026-04-18T08:22:09.688Z</time></trkpt><trkpt lat="43.4866333" lon="11.4024921"><ele>497.16666666666663</ele><time>2026-04-18T08:22:10.688Z</time></trkpt><trkpt lat="43.4866451" lon="11.4023713"><ele>497.3333333333333</ele><time>2026-04-18T08:22:11.688Z</time></trkpt><trkpt lat="43.4866617" lon="11.402246"><ele>497.5</ele><time>2026-04-18T08:22:12.689Z</time></trkpt><trkpt lat="43.486678" lon="11.4021236"><ele>497.66666666666663</ele><time>2026-04-18T08:22:13.688Z</time></trkpt><trkpt lat="43.4867091" lon="11.4020184"><ele>497.8333333333333</ele><time>2026-04-18T08:22:14.688Z</time></trkpt><trkpt lat="43.4867497" lon="11.4019226"><ele>498.0</ele><time>2026-04-18T08:22:15.688Z</time></trkpt><trkpt lat="43.4867988" lon="11.4018357"><ele>498.0</ele><time>2026-04-18T08:22:16.688Z</time></trkpt><trkpt lat="43.4868454" lon="11.401756"><ele>498.0</ele><time>2026-04-18T08:22:17.689Z</time></trkpt><trkpt lat="43.4869103" lon="11.4016927"><ele>498.0</ele><time>2026-04-18T08:22:18.689Z</time></trkpt><trkpt lat="43.4869842" lon="11.4016198"><ele>498.0</ele><time>2026-04-18T08:22:19.688Z</time></trkpt><trkpt lat="43.4870557" lon="11.4015352"><ele>498.0</ele><time>2026-04-18T08:22:20.689Z</time></trkpt><trkpt lat="43.4871309" lon="11.4014398"><ele>498.0</ele><time>2026-04-18T08:22:21.689Z</time></trkpt><trkpt lat="43.4871959" lon="11.4013256"><ele>499.4</ele><time>2026-04-18T08:22:22.688Z</time></trkpt><trkpt lat="43.4872545" lon="11.4011916"><ele>500.79999999999995</ele><time>2026-04-18T08:22:23.688Z</time></trkpt><trkpt lat="43.4873038" lon="11.4010499"><ele>502.2</ele><time>2026-04-18T08:22:24.689Z</time></trkpt><trkpt lat="43.4873352" lon="11.4009107"><ele>503.6</ele><time>2026-04-18T08:22:25.688Z</time></trkpt><trkpt lat="43.487351" lon="11.4007641"><ele>505.0</ele><time>2026-04-18T08:22:26.689Z</time></trkpt><trkpt lat="43.4873659" lon="11.4006126"><ele>504.33333333333337</ele><time>2026-04-18T08:22:27.688Z</time></trkpt><trkpt lat="43.4873702" lon="11.4004833"><ele>503.6666666666667</ele><time>2026-04-18T08:22:28.688Z</time></trkpt><trkpt lat="43.4873838" lon="11.4003606"><ele>503.0</ele><time>2026-04-18T08:22:29.688Z</time></trkpt><trkpt lat="43.487394" lon="11.4002488"><ele>502.33333333333337</ele><time>2026-04-18T08:22:30.688Z</time></trkpt><trkpt lat="43.4874006" lon="11.4001423"><ele>501.6666666666667</ele><time>2026-04-18T08:22:31.687Z</time></trkpt><trkpt lat="43.4874046" lon="11.4000475"><ele>501.0</ele><time>2026-04-18T08:22:32.689Z</time></trkpt><trkpt lat="43.4874137" lon="11.3998944"><ele>501.0</ele><time>2026-04-18T08:22:34.689Z</time></trkpt><trkpt lat="43.487433" lon="11.399772"><ele>501.0</ele><time>2026-04-18T08:22:37.688Z</time></trkpt><trkpt lat="43.4874254" lon="11.3996702"><ele>501.0</ele><time>2026-04-18T08:22:39.688Z</time></trkpt><trkpt lat="43.4873902" lon="11.3995858"><ele>501.0</ele><time>2026-04-18T08:22:40.689Z</time></trkpt><trkpt lat="43.4873464" lon="11.3994827"><ele>501.0</ele><time>2026-04-18T08:22:41.688Z</time></trkpt><trkpt lat="43.4872934" lon="11.3993721"><ele>501.0</ele><time>2026-04-18T08:22:42.688Z</time></trkpt><trkpt lat="43.4872299" lon="11.3992698"><ele>501.0</ele><time>2026-04-18T08:22:43.689Z</time></trkpt><trkpt lat="43.4871607" lon="11.3991784"><ele>501.0</ele><time>2026-04-18T08:22:44.689Z</time></trkpt><trkpt lat="43.487102" lon="11.399088"><ele>501.0</ele><time>2026-04-18T08:22:45.688Z</time></trkpt><trkpt lat="43.4870574" lon="11.3989805"><ele>501.0</ele><time>2026-04-18T08:22:46.689Z</time></trkpt><trkpt lat="43.4870298" lon="11.3988919"><ele>501.0</ele><time>2026-04-18T08:22:47.688Z</time></trkpt><trkpt lat="43.4870058" lon="11.3987946"><ele>501.0</ele><time>2026-04-18T08:22:48.689Z</time></trkpt><trkpt lat="43.4869913" lon="11.3986857"><ele>501.8333333333333</ele><time>2026-04-18T08:22:49.689Z</time></trkpt><trkpt lat="43.4869811" lon="11.3985718"><ele>502.66666666666663</ele><time>2026-04-18T08:22:50.688Z</time></trkpt><trkpt lat="43.4869721" lon="11.3984494"><ele>503.5</ele><time>2026-04-18T08:22:51.688Z</time></trkpt><trkpt lat="43.4869629" lon="11.3983264"><ele>504.3333333333333</ele><time>2026-04-18T08:22:52.688Z</time></trkpt><trkpt lat="43.486955" lon="11.3982154"><ele>505.16666666666663</ele><time>2026-04-18T08:22:53.688Z</time></trkpt><trkpt lat="43.4869451" lon="11.3981062"><ele>506.0</ele><time>2026-04-18T08:22:54.689Z</time></trkpt><trkpt lat="43.4869495" lon="11.3979934"><ele>506.1428571428572</ele><time>2026-04-18T08:22:55.688Z</time></trkpt><trkpt lat="43.486966" lon="11.3978895"><ele>506.28571428571433</ele><time>2026-04-18T08:22:56.689Z</time></trkpt><trkpt lat="43.4869547" lon="11.3978007"><ele>506.42857142857144</ele><time>2026-04-18T08:22:57.688Z</time></trkpt><trkpt lat="43.4869348" lon="11.3977087"><ele>506.5714285714286</ele><time>2026-04-18T08:22:58.689Z</time></trkpt><trkpt lat="43.4869237" lon="11.3976132"><ele>506.7142857142858</ele><time>2026-04-18T08:22:59.688Z</time></trkpt><trkpt lat="43.486913" lon="11.3975215"><ele>506.85714285714283</ele><time>2026-04-18T08:23:00.689Z</time></trkpt><trkpt lat="43.4869004" lon="11.3974272"><ele>507.0</ele><time>2026-04-18T08:23:01.688Z</time></trkpt><trkpt lat="43.4868971" lon="11.3973212"><ele>507.0</ele><time>2026-04-18T08:23:02.689Z</time></trkpt><trkpt lat="43.4868801" lon="11.3972149"><ele>507.00000000000006</ele><time>2026-04-18T08:23:03.688Z</time></trkpt><trkpt lat="43.4868354" lon="11.3971001"><ele>507.00000000000006</ele><time>2026-04-18T08:23:04.688Z</time></trkpt><trkpt lat="43.4867885" lon="11.3969809"><ele>507.0</ele><time>2026-04-18T08:23:05.689Z</time></trkpt><trkpt lat="43.4867396" lon="11.3968664"><ele>507.0</ele><time>2026-04-18T08:23:06.689Z</time></trkpt><trkpt lat="43.4866997" lon="11.3967636"><ele>507.3333333333333</ele><time>2026-04-18T08:23:07.688Z</time></trkpt><trkpt lat="43.4866625" lon="11.3966614"><ele>507.66666666666663</ele><time>2026-04-18T08:23:08.688Z</time></trkpt><trkpt lat="43.4866178" lon="11.3965631"><ele>508.0</ele><time>2026-04-18T08:23:09.688Z</time></trkpt><trkpt lat="43.4865771" lon="11.3964697"><ele>508.3333333333333</ele><time>2026-04-18T08:23:10.688Z</time></trkpt><trkpt lat="43.486542" lon="11.3963805"><ele>508.66666666666663</ele><time>2026-04-18T08:23:11.688Z</time></trkpt><trkpt lat="43.4864959" lon="11.3962867"><ele>509.0</ele><time>2026-04-18T08:23:12.688Z</time></trkpt><trkpt lat="43.4864428" lon="11.3961868"><ele>508.99999999999994</ele><time>2026-04-18T08:23:13.688Z</time></trkpt><trkpt lat="43.4863904" lon="11.3960917"><ele>509.0</ele><time>2026-04-18T08:23:14.688Z</time></trkpt><trkpt lat="43.4863364" lon="11.3960066"><ele>509.0</ele><time>2026-04-18T08:23:15.689Z</time></trkpt><trkpt lat="43.48628" lon="11.3959163"><ele>509.0</ele><time>2026-04-18T08:23:16.688Z</time></trkpt><trkpt lat="43.4862095" lon="11.3958418"><ele>508.99999999999994</ele><time>2026-04-18T08:23:17.688Z</time></trkpt><trkpt lat="43.4861426" lon="11.3957602"><ele>509.0</ele><time>2026-04-18T08:23:18.688Z</time></trkpt><trkpt lat="43.4860759" lon="11.3956875"><ele>509.0</ele><time>2026-04-18T08:23:19.688Z</time></trkpt><trkpt lat="43.4860039" lon="11.3956135"><ele>509.0</ele><time>2026-04-18T08:23:20.688Z</time></trkpt><trkpt lat="43.4859295" lon="11.395542"><ele>509.0</ele><time>2026-04-18T08:23:21.688Z</time></trkpt><trkpt lat="43.4858575" lon="11.3954523"><ele>509.0</ele><time>2026-04-18T08:23:22.688Z</time></trkpt><trkpt lat="43.4857893" lon="11.3953612"><ele>509.0</ele><time>2026-04-18T08:23:23.688Z</time></trkpt><trkpt lat="43.4857318" lon="11.3952499"><ele>508.6</ele><time>2026-04-18T08:23:24.689Z</time></trkpt><trkpt lat="43.4856796" lon="11.395127"><ele>508.2</ele><time>2026-04-18T08:23:25.688Z</time></trkpt><trkpt lat="43.4856221" lon="11.395006"><ele>507.80000000000007</ele><time>2026-04-18T08:23:26.688Z</time></trkpt><trkpt lat="43.485569" lon="11.3948814"><ele>507.40000000000003</ele><time>2026-04-18T08:23:27.689Z</time></trkpt><trkpt lat="43.4855264" lon="11.3947527"><ele>507.0</ele><time>2026-04-18T08:23:28.688Z</time></trkpt><trkpt lat="43.4854825" lon="11.3946312"><ele>507.8333333333333</ele><time>2026-04-18T08:23:29.688Z</time></trkpt><trkpt lat="43.4854408" lon="11.3945333"><ele>508.66666666666663</ele><time>2026-04-18T08:23:30.688Z</time></trkpt><trkpt lat="43.4854157" lon="11.3944509"><ele>509.5</ele><time>2026-04-18T08:23:31.688Z</time></trkpt><trkpt lat="43.4854018" lon="11.3943471"><ele>510.3333333333333</ele><time>2026-04-18T08:23:32.688Z</time></trkpt><trkpt lat="43.4854007" lon="11.3942442"><ele>511.16666666666663</ele><time>2026-04-18T08:23:33.689Z</time></trkpt><trkpt lat="43.4853973" lon="11.3941435"><ele>512.0</ele><time>2026-04-18T08:23:34.689Z</time></trkpt><trkpt lat="43.485381" lon="11.3940236"><ele>511.99999999999994</ele><time>2026-04-18T08:23:35.689Z</time></trkpt><trkpt lat="43.4853712" lon="11.3939003"><ele>512.0</ele><time>2026-04-18T08:23:36.688Z</time></trkpt><trkpt lat="43.4853489" lon="11.3937739"><ele>512.0</ele><time>2026-04-18T08:23:37.688Z</time></trkpt><trkpt lat="43.4853245" lon="11.3936553"><ele>512.0</ele><time>2026-04-18T08:23:38.688Z</time></trkpt><trkpt lat="43.4852699" lon="11.393553"><ele>511.99999999999994</ele><time>2026-04-18T08:23:39.688Z</time></trkpt><trkpt lat="43.4852141" lon="11.3934723"><ele>512.0</ele><time>2026-04-18T08:23:40.688Z</time></trkpt><trkpt lat="43.4851605" lon="11.3934014"><ele>512.4</ele><time>2026-04-18T08:23:41.688Z</time></trkpt><trkpt lat="43.4850481" lon="11.393311"><ele>512.8000000000001</ele><time>2026-04-18T08:23:43.688Z</time></trkpt><trkpt lat="43.4849658" lon="11.3932843"><ele>513.2</ele><time>2026-04-18T08:23:44.688Z</time></trkpt><trkpt lat="43.4848785" lon="11.3932758"><ele>513.6</ele><time>2026-04-18T08:23:45.688Z</time></trkpt><trkpt lat="43.4847876" lon="11.3932701"><ele>514.0</ele><time>2026-04-18T08:23:46.689Z</time></trkpt><trkpt lat="43.4846986" lon="11.3932564"><ele>514.0</ele><time>2026-04-18T08:23:47.688Z</time></trkpt><trkpt lat="43.4846232" lon="11.393213"><ele>514.0</ele><time>2026-04-18T08:23:48.688Z</time></trkpt><trkpt lat="43.4845496" lon="11.393171"><ele>514.0</ele><time>2026-04-18T08:23:49.688Z</time></trkpt><trkpt lat="43.4844841" lon="11.3931372"><ele>514.0</ele><time>2026-04-18T08:23:50.689Z</time></trkpt><trkpt lat="43.4843826" lon="11.3930617"><ele>514.0</ele><time>2026-04-18T08:23:52.689Z</time></trkpt><trkpt lat="43.4843358" lon="11.3930015"><ele>514.0</ele><time>2026-04-18T08:23:53.689Z</time></trkpt><trkpt lat="43.4842901" lon="11.392927"><ele>513.4285714285714</ele><time>2026-04-18T08:23:54.689Z</time></trkpt><trkpt lat="43.4842455" lon="11.3928573"><ele>512.8571428571429</ele><time>2026-04-18T08:23:55.688Z</time></trkpt><trkpt lat="43.4841981" lon="11.3927922"><ele>512.2857142857143</ele><time>2026-04-18T08:23:56.688Z</time></trkpt><trkpt lat="43.4841551" lon="11.3927224"><ele>511.7142857142857</ele><time>2026-04-18T08:23:57.688Z</time></trkpt><trkpt lat="43.4841111" lon="11.3926534"><ele>511.1428571428572</ele><time>2026-04-18T08:23:58.689Z</time></trkpt><trkpt lat="43.4840664" lon="11.3925791"><ele>510.5714285714286</ele><time>2026-04-18T08:23:59.689Z</time></trkpt><trkpt lat="43.4840288" lon="11.3924981"><ele>510.0</ele><time>2026-04-18T08:24:00.685Z</time></trkpt><trkpt lat="43.4839873" lon="11.3924213"><ele>510.0</ele><time>2026-04-18T08:24:01.688Z</time></trkpt><trkpt lat="43.4839443" lon="11.3923434"><ele>510.0</ele><time>2026-04-18T08:24:02.689Z</time></trkpt><trkpt lat="43.4839029" lon="11.3922693"><ele>510.0</ele><time>2026-04-18T08:24:03.688Z</time></trkpt><trkpt lat="43.4838759" lon="11.3921254"><ele>510.0</ele><time>2026-04-18T08:24:05.688Z</time></trkpt><trkpt lat="43.4838679" lon="11.3920231"><ele>510.0</ele><time>2026-04-18T08:24:07.688Z</time></trkpt><trkpt lat="43.4838461" lon="11.3919213"><ele>510.0</ele><time>2026-04-18T08:24:30.685Z</time></trkpt><trkpt lat="43.4839354" lon="11.3919581"><ele>510.0</ele><time>2026-04-18T08:24:34.688Z</time></trkpt><trkpt lat="43.4839968" lon="11.3919912"><ele>510.0</ele><time>2026-04-18T08:24:36.688Z</time></trkpt><trkpt lat="43.4840938" lon="11.3920239"><ele>510.0</ele><time>2026-04-18T08:24:38.688Z</time></trkpt><trkpt lat="43.4841997" lon="11.3920516"><ele>510.0</ele><time>2026-04-18T08:24:40.688Z</time></trkpt><trkpt lat="43.484272" lon="11.3920969"><ele>510.0</ele><time>2026-04-18T08:24:42.689Z</time></trkpt><trkpt lat="43.4843637" lon="11.3921356"><ele>510.0</ele><time>2026-04-18T08:24:44.689Z</time></trkpt><trkpt lat="43.4844596" lon="11.392195"><ele>510.0</ele><time>2026-04-18T08:24:46.688Z</time></trkpt><trkpt lat="43.4845678" lon="11.3922479"><ele>510.0</ele><time>2026-04-18T08:24:48.688Z</time></trkpt><trkpt lat="43.4846281" lon="11.3922769"><ele>510.0</ele><time>2026-04-18T08:24:49.689Z</time></trkpt><trkpt lat="43.4847479" lon="11.3923018"><ele>510.0</ele><time>2026-04-18T08:24:51.688Z</time></trkpt><trkpt lat="43.4848244" lon="11.392308"><ele>510.0</ele><time>2026-04-18T08:24:52.689Z</time></trkpt><trkpt lat="43.4849077" lon="11.392314"><ele>508.8333333333333</ele><time>2026-04-18T08:24:53.688Z</time></trkpt><trkpt lat="43.4849802" lon="11.3923182"><ele>507.66666666666663</ele><time>2026-04-18T08:24:54.688Z</time></trkpt><trkpt lat="43.4850571" lon="11.3923178"><ele>506.5</ele><time>2026-04-18T08:24:55.688Z</time></trkpt><trkpt lat="43.4851287" lon="11.3923111"><ele>505.3333333333333</ele><time>2026-04-18T08:24:56.688Z</time></trkpt><trkpt lat="43.4852047" lon="11.3922971"><ele>504.16666666666663</ele><time>2026-04-18T08:24:57.688Z</time></trkpt><trkpt lat="43.4852779" lon="11.3922784"><ele>503.0</ele><time>2026-04-18T08:24:58.688Z</time></trkpt><trkpt lat="43.485355" lon="11.3922571"><ele>502.99999999999994</ele><time>2026-04-18T08:24:59.689Z</time></trkpt><trkpt lat="43.4854201" lon="11.3922318"><ele>503.0</ele><time>2026-04-18T08:25:00.688Z</time></trkpt><trkpt lat="43.4854901" lon="11.3922069"><ele>503.0</ele><time>2026-04-18T08:25:01.688Z</time></trkpt><trkpt lat="43.4855955" lon="11.3921515"><ele>503.0</ele><time>2026-04-18T08:25:03.688Z</time></trkpt><trkpt lat="43.4856703" lon="11.3921075"><ele>502.99999999999994</ele><time>2026-04-18T08:25:05.688Z</time></trkpt><trkpt lat="43.4857311" lon="11.3920849"><ele>503.0</ele><time>2026-04-18T08:25:07.687Z</time></trkpt><trkpt lat="43.4858051" lon="11.3920276"><ele>499.59999999999997</ele><time>2026-04-18T08:25:10.688Z</time></trkpt><trkpt lat="43.4858854" lon="11.3919645"><ele>496.19999999999993</ele><time>2026-04-18T08:25:12.687Z</time></trkpt><trkpt lat="43.4859634" lon="11.3919249"><ele>492.8</ele><time>2026-04-18T08:25:14.688Z</time></trkpt><trkpt lat="43.4860525" lon="11.3919174"><ele>489.4</ele><time>2026-04-18T08:25:16.688Z</time></trkpt><trkpt lat="43.4861397" lon="11.3919251"><ele>486.0</ele><time>2026-04-18T08:25:18.689Z</time></trkpt><trkpt lat="43.4862422" lon="11.391937"><ele>484.6666666666667</ele><time>2026-04-18T08:25:20.689Z</time></trkpt><trkpt lat="43.4863233" lon="11.391977"><ele>483.33333333333337</ele><time>2026-04-18T08:25:22.688Z</time></trkpt><trkpt lat="43.4864178" lon="11.3919856"><ele>482.0</ele><time>2026-04-18T08:25:25.688Z</time></trkpt><trkpt lat="43.4865201" lon="11.3920256"><ele>480.6666666666667</ele><time>2026-04-18T08:25:27.688Z</time></trkpt><trkpt lat="43.4865973" lon="11.3920508"><ele>479.33333333333337</ele><time>2026-04-18T08:25:28.688Z</time></trkpt><trkpt lat="43.4866722" lon="11.3920809"><ele>478.0</ele><time>2026-04-18T08:25:29.688Z</time></trkpt><trkpt lat="43.4867356" lon="11.3921053"><ele>478.0</ele><time>2026-04-18T08:25:30.689Z</time></trkpt><trkpt lat="43.4868073" lon="11.3921357"><ele>477.99999999999994</ele><time>2026-04-18T08:25:31.688Z</time></trkpt><trkpt lat="43.4869228" lon="11.3921816"><ele>477.99999999999994</ele><time>2026-04-18T08:25:33.688Z</time></trkpt><trkpt lat="43.4870422" lon="11.3921984"><ele>478.0</ele><time>2026-04-18T08:25:35.689Z</time></trkpt><trkpt lat="43.4871723" lon="11.3921949"><ele>478.0</ele><time>2026-04-18T08:25:37.688Z</time></trkpt><trkpt lat="43.4872533" lon="11.3921564"><ele>475.33333333333337</ele><time>2026-04-18T08:25:38.688Z</time></trkpt><trkpt lat="43.487343" lon="11.3921065"><ele>472.6666666666667</ele><time>2026-04-18T08:25:39.688Z</time></trkpt><trkpt lat="43.4874347" lon="11.3920609"><ele>470.0</ele><time>2026-04-18T08:25:40.688Z</time></trkpt><trkpt lat="43.4875157" lon="11.3920285"><ele>467.33333333333337</ele><time>2026-04-18T08:25:41.688Z</time></trkpt><trkpt lat="43.487594" lon="11.391998"><ele>464.6666666666667</ele><time>2026-04-18T08:25:42.688Z</time></trkpt><trkpt lat="43.4876748" lon="11.391953"><ele>462.0</ele><time>2026-04-18T08:25:43.688Z</time></trkpt><trkpt lat="43.4877394" lon="11.3918837"><ele>462.0</ele><time>2026-04-18T08:25:44.688Z</time></trkpt><trkpt lat="43.4877995" lon="11.3918091"><ele>462.0</ele><time>2026-04-18T08:25:45.688Z</time></trkpt><trkpt lat="43.4878553" lon="11.3917325"><ele>462.0</ele><time>2026-04-18T08:25:46.688Z</time></trkpt><trkpt lat="43.4879061" lon="11.3916512"><ele>462.0</ele><time>2026-04-18T08:25:47.688Z</time></trkpt><trkpt lat="43.4879607" lon="11.3915612"><ele>462.0</ele><time>2026-04-18T08:25:48.688Z</time></trkpt><trkpt lat="43.4880231" lon="11.3914458"><ele>462.0</ele><time>2026-04-18T08:25:49.688Z</time></trkpt><trkpt lat="43.4880813" lon="11.3913235"><ele>458.0</ele><time>2026-04-18T08:25:50.688Z</time></trkpt><trkpt lat="43.4881446" lon="11.3912007"><ele>454.00000000000006</ele><time>2026-04-18T08:25:51.688Z</time></trkpt><trkpt lat="43.4882034" lon="11.3910722"><ele>450.00000000000006</ele><time>2026-04-18T08:25:52.689Z</time></trkpt><trkpt lat="43.4882702" lon="11.3909487"><ele>446.0</ele><time>2026-04-18T08:25:53.688Z</time></trkpt><trkpt lat="43.4883445" lon="11.3908352"><ele>442.0</ele><time>2026-04-18T08:25:54.689Z</time></trkpt><trkpt lat="43.4884266" lon="11.3907607"><ele>442.0</ele><time>2026-04-18T08:25:55.688Z</time></trkpt><trkpt lat="43.4885223" lon="11.3907168"><ele>442.0</ele><time>2026-04-18T08:25:56.688Z</time></trkpt><trkpt lat="43.4886391" lon="11.3906837"><ele>442.0</ele><time>2026-04-18T08:25:57.689Z</time></trkpt><trkpt lat="43.4887833" lon="11.3906328"><ele>442.0</ele><time>2026-04-18T08:25:58.688Z</time></trkpt><trkpt lat="43.4889216" lon="11.3905605"><ele>444.75</ele><time>2026-04-18T08:25:59.688Z</time></trkpt><trkpt lat="43.4890621" lon="11.3904938"><ele>447.5</ele><time>2026-04-18T08:26:00.688Z</time></trkpt><trkpt lat="43.4891932" lon="11.3904396"><ele>450.25</ele><time>2026-04-18T08:26:01.688Z</time></trkpt><trkpt lat="43.4893025" lon="11.3903837"><ele>453.0</ele><time>2026-04-18T08:26:02.689Z</time></trkpt><trkpt lat="43.4893945" lon="11.3903358"><ele>453.0</ele><time>2026-04-18T08:26:03.688Z</time></trkpt><trkpt lat="43.4894664" lon="11.3903007"><ele>453.0</ele><time>2026-04-18T08:26:04.688Z</time></trkpt><trkpt lat="43.489549" lon="11.3902418"><ele>453.0</ele><time>2026-04-18T08:26:06.688Z</time></trkpt><trkpt lat="43.4896145" lon="11.3902619"><ele>453.0</ele><time>2026-04-18T08:26:11.688Z</time></trkpt><trkpt lat="43.4896556" lon="11.3903582"><ele>453.0</ele><time>2026-04-18T08:26:12.689Z</time></trkpt><trkpt lat="43.4896849" lon="11.3904742"><ele>453.0</ele><time>2026-04-18T08:26:13.688Z</time></trkpt><trkpt lat="43.4897178" lon="11.3905696"><ele>453.8571428571428</ele><time>2026-04-18T08:26:14.688Z</time></trkpt><trkpt lat="43.4897507" lon="11.390656"><ele>454.71428571428567</ele><time>2026-04-18T08:26:15.689Z</time></trkpt><trkpt lat="43.4897878" lon="11.3907303"><ele>455.57142857142856</ele><time>2026-04-18T08:26:16.688Z</time></trkpt><trkpt lat="43.4898154" lon="11.3908316"><ele>456.4285714285714</ele><time>2026-04-18T08:26:18.688Z</time></trkpt><trkpt lat="43.4898784" lon="11.3908278"><ele>457.2857142857142</ele><time>2026-04-18T08:27:24.688Z</time></trkpt><trkpt lat="43.4898612" lon="11.3907431"><ele>458.14285714285717</ele><time>2026-04-18T08:27:26.688Z</time></trkpt><trkpt lat="43.4898141" lon="11.3906414"><ele>459.0</ele><time>2026-04-18T08:27:27.689Z</time></trkpt><trkpt lat="43.4897685" lon="11.3905291"><ele>460.2</ele><time>2026-04-18T08:27:28.688Z</time></trkpt><trkpt lat="43.4897201" lon="11.390411"><ele>461.4</ele><time>2026-04-18T08:27:29.688Z</time></trkpt><trkpt lat="43.4896645" lon="11.3902728"><ele>462.6</ele><time>2026-04-18T08:27:30.689Z</time></trkpt><trkpt lat="43.489612" lon="11.3901403"><ele>463.8</ele><time>2026-04-18T08:27:31.688Z</time></trkpt><trkpt lat="43.489566" lon="11.3900238"><ele>465.0</ele><time>2026-04-18T08:27:32.689Z</time></trkpt><trkpt lat="43.4895227" lon="11.3899068"><ele>462.5</ele><time>2026-04-18T08:27:33.688Z</time></trkpt><trkpt lat="43.4894749" lon="11.3897736"><ele>460.0</ele><time>2026-04-18T08:27:34.688Z</time></trkpt><trkpt lat="43.4894243" lon="11.389635"><ele>457.5</ele><time>2026-04-18T08:27:35.689Z</time></trkpt><trkpt lat="43.4893728" lon="11.3894895"><ele>455.0</ele><time>2026-04-18T08:27:36.689Z</time></trkpt><trkpt lat="43.4893212" lon="11.389333"><ele>455.0</ele><time>2026-04-18T08:27:37.688Z</time></trkpt><trkpt lat="43.4892915" lon="11.3891794"><ele>455.0</ele><time>2026-04-18T08:27:38.689Z</time></trkpt><trkpt lat="43.4892956" lon="11.3890292"><ele>455.0</ele><time>2026-04-18T08:27:39.688Z</time></trkpt><trkpt lat="43.4893314" lon="11.3888737"><ele>455.0</ele><time>2026-04-18T08:27:40.689Z</time></trkpt><trkpt lat="43.4893605" lon="11.3887214"><ele>454.0</ele><time>2026-04-18T08:27:41.689Z</time></trkpt><trkpt lat="43.4893942" lon="11.3885337"><ele>453.0</ele><time>2026-04-18T08:27:42.689Z</time></trkpt><trkpt lat="43.4894262" lon="11.3883348"><ele>452.0</ele><time>2026-04-18T08:27:43.688Z</time></trkpt><trkpt lat="43.4894489" lon="11.3881173"><ele>451.0</ele><time>2026-04-18T08:27:44.688Z</time></trkpt><trkpt lat="43.4894747" lon="11.3879001"><ele>450.25</ele><time>2026-04-18T08:27:45.688Z</time></trkpt><trkpt lat="43.4895018" lon="11.3876973"><ele>449.5</ele><time>2026-04-18T08:27:46.688Z</time></trkpt><trkpt lat="43.4895173" lon="11.387505"><ele>448.75</ele><time>2026-04-18T08:27:47.689Z</time></trkpt><trkpt lat="43.4895358" lon="11.3873288"><ele>448.0</ele><time>2026-04-18T08:27:48.688Z</time></trkpt><trkpt lat="43.4895602" lon="11.3871618"><ele>447.79999999999995</ele><time>2026-04-18T08:27:49.688Z</time></trkpt><trkpt lat="43.4895798" lon="11.3870018"><ele>447.59999999999997</ele><time>2026-04-18T08:27:50.688Z</time></trkpt><trkpt lat="43.4896057" lon="11.3868513"><ele>447.40000000000003</ele><time>2026-04-18T08:27:51.688Z</time></trkpt><trkpt lat="43.4896444" lon="11.3867156"><ele>447.20000000000005</ele><time>2026-04-18T08:27:52.688Z</time></trkpt><trkpt lat="43.4896843" lon="11.3865933"><ele>447.0</ele><time>2026-04-18T08:27:53.688Z</time></trkpt><trkpt lat="43.4897492" lon="11.3865017"><ele>449.40000000000003</ele><time>2026-04-18T08:27:54.688Z</time></trkpt><trkpt lat="43.4898335" lon="11.3864223"><ele>451.80000000000007</ele><time>2026-04-18T08:27:55.689Z</time></trkpt><trkpt lat="43.4899375" lon="11.3863757"><ele>454.2</ele><time>2026-04-18T08:27:56.688Z</time></trkpt><trkpt lat="43.4900369" lon="11.3863278"><ele>456.6</ele><time>2026-04-18T08:27:57.688Z</time></trkpt><trkpt lat="43.4901366" lon="11.3862431"><ele>459.0</ele><time>2026-04-18T08:27:58.688Z</time></trkpt><trkpt lat="43.4902263" lon="11.3861352"><ele>459.0</ele><time>2026-04-18T08:27:59.688Z</time></trkpt><trkpt lat="43.4902967" lon="11.3859903"><ele>459.0</ele><time>2026-04-18T08:28:00.688Z</time></trkpt><trkpt lat="43.4903284" lon="11.3858113"><ele>459.0</ele><time>2026-04-18T08:28:01.688Z</time></trkpt><trkpt lat="43.4903256" lon="11.3856022"><ele>459.0</ele><time>2026-04-18T08:28:02.689Z</time></trkpt><trkpt lat="43.4903205" lon="11.3854086"><ele>458.75</ele><time>2026-04-18T08:28:03.688Z</time></trkpt><trkpt lat="43.4903075" lon="11.3852387"><ele>458.5</ele><time>2026-04-18T08:28:04.688Z</time></trkpt><trkpt lat="43.4902821" lon="11.3850736"><ele>458.25</ele><time>2026-04-18T08:28:05.689Z</time></trkpt><trkpt lat="43.4902071" lon="11.384915"><ele>458.0</ele><time>2026-04-18T08:28:06.688Z</time></trkpt><trkpt lat="43.490118" lon="11.3847656"><ele>459.25</ele><time>2026-04-18T08:28:07.688Z</time></trkpt><trkpt lat="43.4900801" lon="11.3845669"><ele>460.5</ele><time>2026-04-18T08:28:08.688Z</time></trkpt><trkpt lat="43.4900583" lon="11.3843722"><ele>461.75</ele><time>2026-04-18T08:28:09.688Z</time></trkpt><trkpt lat="43.4900362" lon="11.3841837"><ele>463.0</ele><time>2026-04-18T08:28:10.688Z</time></trkpt><trkpt lat="43.489989" lon="11.3839976"><ele>463.0</ele><time>2026-04-18T08:28:11.689Z</time></trkpt><trkpt lat="43.4899151" lon="11.3838328"><ele>463.0</ele><time>2026-04-18T08:28:12.688Z</time></trkpt><trkpt lat="43.4898198" lon="11.3836825"><ele>463.0</ele><time>2026-04-18T08:28:13.688Z</time></trkpt><trkpt lat="43.4896934" lon="11.3835328"><ele>465.33333333333337</ele><time>2026-04-18T08:28:14.688Z</time></trkpt><trkpt lat="43.4895624" lon="11.3833974"><ele>467.66666666666663</ele><time>2026-04-18T08:28:15.688Z</time></trkpt><trkpt lat="43.489429" lon="11.383254"><ele>470.0</ele><time>2026-04-18T08:28:16.688Z</time></trkpt><trkpt lat="43.4892988" lon="11.383115"><ele>472.66666666666663</ele><time>2026-04-18T08:28:17.688Z</time></trkpt><trkpt lat="43.4891637" lon="11.3829829"><ele>475.33333333333337</ele><time>2026-04-18T08:28:18.688Z</time></trkpt><trkpt lat="43.4890281" lon="11.3828506"><ele>478.0</ele><time>2026-04-18T08:28:19.689Z</time></trkpt><trkpt lat="43.4888906" lon="11.3827308"><ele>478.6666666666667</ele><time>2026-04-18T08:28:20.688Z</time></trkpt><trkpt lat="43.4887568" lon="11.3826059"><ele>479.33333333333337</ele><time>2026-04-18T08:28:21.688Z</time></trkpt><trkpt lat="43.4886313" lon="11.3824608"><ele>480.0</ele><time>2026-04-18T08:28:22.688Z</time></trkpt><trkpt lat="43.4885203" lon="11.3822982"><ele>482.0</ele><time>2026-04-18T08:28:23.688Z</time></trkpt><trkpt lat="43.488416" lon="11.3821154"><ele>484.0</ele><time>2026-04-18T08:28:24.689Z</time></trkpt><trkpt lat="43.488328" lon="11.3819311"><ele>486.0</ele><time>2026-04-18T08:28:25.688Z</time></trkpt><trkpt lat="43.4882468" lon="11.3817387"><ele>486.0</ele><time>2026-04-18T08:28:26.688Z</time></trkpt><trkpt lat="43.4881736" lon="11.3815423"><ele>486.0</ele><time>2026-04-18T08:28:27.688Z</time></trkpt><trkpt lat="43.4881014" lon="11.3813413"><ele>486.0</ele><time>2026-04-18T08:28:28.689Z</time></trkpt><trkpt lat="43.4880323" lon="11.381134"><ele>485.0</ele><time>2026-04-18T08:28:29.689Z</time></trkpt><trkpt lat="43.4879693" lon="11.3809291"><ele>484.0</ele><time>2026-04-18T08:28:30.688Z</time></trkpt><trkpt lat="43.4879304" lon="11.3807226"><ele>483.0</ele><time>2026-04-18T08:28:31.689Z</time></trkpt><trkpt lat="43.4878991" lon="11.3805047"><ele>488.0</ele><time>2026-04-18T08:28:32.688Z</time></trkpt><trkpt lat="43.4878853" lon="11.3802922"><ele>493.0</ele><time>2026-04-18T08:28:33.688Z</time></trkpt><trkpt lat="43.4878743" lon="11.3800955"><ele>498.0</ele><time>2026-04-18T08:28:34.688Z</time></trkpt><trkpt lat="43.4878568" lon="11.3799156"><ele>503.0</ele><time>2026-04-18T08:28:35.689Z</time></trkpt><trkpt lat="43.4878114" lon="11.3797664"><ele>503.75</ele><time>2026-04-18T08:28:36.688Z</time></trkpt><trkpt lat="43.4877347" lon="11.3796305"><ele>504.5</ele><time>2026-04-18T08:28:37.688Z</time></trkpt><trkpt lat="43.4876332" lon="11.3795351"><ele>505.25</ele><time>2026-04-18T08:28:38.688Z</time></trkpt><trkpt lat="43.4875222" lon="11.3794215"><ele>506.0</ele><time>2026-04-18T08:28:39.688Z</time></trkpt><trkpt lat="43.4874249" lon="11.3792777"><ele>506.0</ele><time>2026-04-18T08:28:40.689Z</time></trkpt><trkpt lat="43.4873417" lon="11.3791253"><ele>506.0</ele><time>2026-04-18T08:28:41.688Z</time></trkpt><trkpt lat="43.4872486" lon="11.3789544"><ele>506.0</ele><time>2026-04-18T08:28:42.688Z</time></trkpt><trkpt lat="43.4871562" lon="11.3787884"><ele>506.0</ele><time>2026-04-18T08:28:43.688Z</time></trkpt><trkpt lat="43.4870654" lon="11.3786258"><ele>507.0</ele><time>2026-04-18T08:28:44.689Z</time></trkpt><trkpt lat="43.4869945" lon="11.3784756"><ele>508.0</ele><time>2026-04-18T08:28:45.688Z</time></trkpt><trkpt lat="43.4869373" lon="11.3783121"><ele>509.0</ele><time>2026-04-18T08:28:46.688Z</time></trkpt><trkpt lat="43.4868889" lon="11.3781367"><ele>510.0</ele><time>2026-04-18T08:28:47.688Z</time></trkpt><trkpt lat="43.4868578" lon="11.3779666"><ele>511.25</ele><time>2026-04-18T08:28:48.689Z</time></trkpt><trkpt lat="43.4868468" lon="11.3777969"><ele>512.5</ele><time>2026-04-18T08:28:49.688Z</time></trkpt><trkpt lat="43.4868384" lon="11.3776255"><ele>513.75</ele><time>2026-04-18T08:28:50.689Z</time></trkpt><trkpt lat="43.4868469" lon="11.3774534"><ele>515.0</ele><time>2026-04-18T08:28:51.688Z</time></trkpt><trkpt lat="43.4868578" lon="11.37727"><ele>515.0</ele><time>2026-04-18T08:28:52.688Z</time></trkpt><trkpt lat="43.486875" lon="11.3770797"><ele>515.0</ele><time>2026-04-18T08:28:53.688Z</time></trkpt><trkpt lat="43.4868843" lon="11.3769041"><ele>515.0</ele><time>2026-04-18T08:28:54.686Z</time></trkpt><trkpt lat="43.4868966" lon="11.376749"><ele>515.0</ele><time>2026-04-18T08:28:55.688Z</time></trkpt><trkpt lat="43.4869062" lon="11.3766128"><ele>515.0</ele><time>2026-04-18T08:28:56.688Z</time></trkpt><trkpt lat="43.4869237" lon="11.3764803"><ele>515.0</ele><time>2026-04-18T08:28:57.689Z</time></trkpt><trkpt lat="43.4869392" lon="11.3763565"><ele>515.0</ele><time>2026-04-18T08:28:58.688Z</time></trkpt><trkpt lat="43.4869547" lon="11.3762225"><ele>515.0</ele><time>2026-04-18T08:28:59.689Z</time></trkpt><trkpt lat="43.4869703" lon="11.3761236"><ele>515.0</ele><time>2026-04-18T08:29:00.689Z</time></trkpt><trkpt lat="43.4869832" lon="11.3760047"><ele>515.0</ele><time>2026-04-18T08:29:02.688Z</time></trkpt><trkpt lat="43.486985" lon="11.3758968"><ele>522.0</ele><time>2026-04-18T08:29:04.688Z</time></trkpt><trkpt lat="43.4869166" lon="11.3759036"><ele>522.0</ele><time>2026-04-18T08:30:39.687Z</time></trkpt><trkpt lat="43.4868471" lon="11.3758975"><ele>522.0</ele><time>2026-04-18T08:30:53.687Z</time></trkpt></trkseg><trkseg><trkpt lat="43.4869814" lon="11.37581"><ele>522.0</ele><time>2026-04-18T08:48:45.693Z</time></trkpt><trkpt lat="43.4870518" lon="11.3757527"><ele>522.0</ele><time>2026-04-18T08:48:49.694Z</time></trkpt><trkpt lat="43.4871219" lon="11.3757334"><ele>522.0</ele><time>2026-04-18T08:48:53.694Z</time></trkpt><trkpt lat="43.4871076" lon="11.3756303"><ele>522.0</ele><time>2026-04-18T08:48:56.693Z</time></trkpt><trkpt lat="43.4869318" lon="11.3756912"><ele>522.0</ele><time>2026-04-18T08:48:57.693Z</time></trkpt><trkpt lat="43.4869229" lon="11.3757858"><ele>522.0</ele><time>2026-04-18T08:48:59.693Z</time></trkpt><trkpt lat="43.4869361" lon="11.3759534"><ele>522.0</ele><time>2026-04-18T08:49:01.693Z</time></trkpt><trkpt lat="43.4869343" lon="11.3760616"><ele>522.0</ele><time>2026-04-18T08:49:02.693Z</time></trkpt><trkpt lat="43.4869229" lon="11.3761863"><ele>522.0</ele><time>2026-04-18T08:49:03.693Z</time></trkpt><trkpt lat="43.4869191" lon="11.3763166"><ele>522.0</ele><time>2026-04-18T08:49:04.693Z</time></trkpt><trkpt lat="43.4869098" lon="11.3764618"><ele>520.25</ele><time>2026-04-18T08:49:05.693Z</time></trkpt><trkpt lat="43.4868997" lon="11.3766387"><ele>518.5</ele><time>2026-04-18T08:49:06.693Z</time></trkpt><trkpt lat="43.4868773" lon="11.3768332"><ele>516.75</ele><time>2026-04-18T08:49:07.693Z</time></trkpt><trkpt lat="43.4868615" lon="11.3770265"><ele>515.0</ele><time>2026-04-18T08:49:08.693Z</time></trkpt><trkpt lat="43.4868468" lon="11.3772179"><ele>515.0</ele><time>2026-04-18T08:49:09.693Z</time></trkpt><trkpt lat="43.4868385" lon="11.3773919"><ele>515.0</ele><time>2026-04-18T08:49:10.693Z</time></trkpt><trkpt lat="43.4868328" lon="11.3775247"><ele>515.0</ele><time>2026-04-18T08:49:11.693Z</time></trkpt><trkpt lat="43.4868207" lon="11.3776183"><ele>515.0</ele><time>2026-04-18T08:49:12.694Z</time></trkpt><trkpt lat="43.4868095" lon="11.3777555"><ele>515.0</ele><time>2026-04-18T08:49:14.693Z</time></trkpt><trkpt lat="43.4868383" lon="11.3778887"><ele>515.0</ele><time>2026-04-18T08:49:33.693Z</time></trkpt><trkpt lat="43.4868518" lon="11.3779751"><ele>515.0</ele><time>2026-04-18T08:49:34.693Z</time></trkpt><trkpt lat="43.4868823" lon="11.3781047"><ele>515.0</ele><time>2026-04-18T08:49:35.693Z</time></trkpt><trkpt lat="43.4869128" lon="11.3782525"><ele>515.0</ele><time>2026-04-18T08:49:36.693Z</time></trkpt><trkpt lat="43.4869575" lon="11.3784204"><ele>515.0</ele><time>2026-04-18T08:49:37.694Z</time></trkpt><trkpt lat="43.4870413" lon="11.3785953"><ele>516.0</ele><time>2026-04-18T08:49:38.693Z</time></trkpt><trkpt lat="43.4871315" lon="11.3787466"><ele>517.0</ele><time>2026-04-18T08:49:39.693Z</time></trkpt><trkpt lat="43.4872101" lon="11.378889"><ele>518.0</ele><time>2026-04-18T08:49:40.693Z</time></trkpt><trkpt lat="43.4872886" lon="11.3790293"><ele>519.0</ele><time>2026-04-18T08:49:41.693Z</time></trkpt><trkpt lat="43.4873619" lon="11.3791607"><ele>516.4</ele><time>2026-04-18T08:49:42.694Z</time></trkpt><trkpt lat="43.4874334" lon="11.3792862"><ele>513.8</ele><time>2026-04-18T08:49:43.693Z</time></trkpt><trkpt lat="43.4875095" lon="11.3794053"><ele>511.20000000000005</ele><time>2026-04-18T08:49:44.693Z</time></trkpt><trkpt lat="43.4875951" lon="11.3794924"><ele>508.6</ele><time>2026-04-18T08:49:45.693Z</time></trkpt><trkpt lat="43.4876753" lon="11.3795766"><ele>506.0</ele><time>2026-04-18T08:49:46.693Z</time></trkpt><trkpt lat="43.4877556" lon="11.3796691"><ele>505.25</ele><time>2026-04-18T08:49:47.693Z</time></trkpt><trkpt lat="43.4878227" lon="11.3797768"><ele>504.5</ele><time>2026-04-18T08:49:48.693Z</time></trkpt><trkpt lat="43.4878568" lon="11.3799212"><ele>503.75</ele><time>2026-04-18T08:49:49.693Z</time></trkpt><trkpt lat="43.4878714" lon="11.3800975"><ele>503.0</ele><time>2026-04-18T08:49:50.693Z</time></trkpt><trkpt lat="43.4878733" lon="11.3802927"><ele>503.0</ele><time>2026-04-18T08:49:51.693Z</time></trkpt><trkpt lat="43.4878889" lon="11.3804742"><ele>503.0</ele><time>2026-04-18T08:49:52.693Z</time></trkpt><trkpt lat="43.4879144" lon="11.3806624"><ele>503.0</ele><time>2026-04-18T08:49:53.693Z</time></trkpt><trkpt lat="43.4879486" lon="11.3808384"><ele>503.0</ele><time>2026-04-18T08:49:54.694Z</time></trkpt><trkpt lat="43.4879756" lon="11.381011"><ele>498.75</ele><time>2026-04-18T08:49:55.693Z</time></trkpt><trkpt lat="43.4880244" lon="11.3811914"><ele>494.5</ele><time>2026-04-18T08:49:56.693Z</time></trkpt><trkpt lat="43.4880836" lon="11.3813734"><ele>490.25</ele><time>2026-04-18T08:49:57.693Z</time></trkpt><trkpt lat="43.4881459" lon="11.3815535"><ele>486.0</ele><time>2026-04-18T08:49:58.693Z</time></trkpt><trkpt lat="43.4882192" lon="11.3817379"><ele>486.0</ele><time>2026-04-18T08:49:59.694Z</time></trkpt><trkpt lat="43.4882892" lon="11.3819169"><ele>486.0</ele><time>2026-04-18T08:50:00.693Z</time></trkpt><trkpt lat="43.4883686" lon="11.382083"><ele>486.0</ele><time>2026-04-18T08:50:01.694Z</time></trkpt><trkpt lat="43.4884529" lon="11.3822419"><ele>486.0</ele><time>2026-04-18T08:50:02.693Z</time></trkpt><trkpt lat="43.4885504" lon="11.3824026"><ele>484.0</ele><time>2026-04-18T08:50:03.693Z</time></trkpt><trkpt lat="43.4886673" lon="11.3825601"><ele>482.0</ele><time>2026-04-18T08:50:04.693Z</time></trkpt><trkpt lat="43.4888123" lon="11.3827024"><ele>480.0</ele><time>2026-04-18T08:50:05.694Z</time></trkpt><trkpt lat="43.4889753" lon="11.3828402"><ele>479.33333333333337</ele><time>2026-04-18T08:50:06.693Z</time></trkpt><trkpt lat="43.4891474" lon="11.3830019"><ele>478.6666666666667</ele><time>2026-04-18T08:50:07.693Z</time></trkpt><trkpt lat="43.4893267" lon="11.3831792"><ele>478.0</ele><time>2026-04-18T08:50:08.693Z</time></trkpt><trkpt lat="43.4894991" lon="11.383368"><ele>473.0</ele><time>2026-04-18T08:50:09.693Z</time></trkpt><trkpt lat="43.4896714" lon="11.3835381"><ele>468.0</ele><time>2026-04-18T08:50:10.693Z</time></trkpt><trkpt lat="43.4898181" lon="11.383706"><ele>463.0</ele><time>2026-04-18T08:50:11.693Z</time></trkpt><trkpt lat="43.4899355" lon="11.3838829"><ele>463.0</ele><time>2026-04-18T08:50:12.694Z</time></trkpt><trkpt lat="43.4900091" lon="11.3840835"><ele>463.0</ele><time>2026-04-18T08:50:13.694Z</time></trkpt><trkpt lat="43.4900548" lon="11.3843028"><ele>463.0</ele><time>2026-04-18T08:50:14.694Z</time></trkpt><trkpt lat="43.4900752" lon="11.3845179"><ele>461.75</ele><time>2026-04-18T08:50:15.693Z</time></trkpt><trkpt lat="43.4901116" lon="11.3847139"><ele>460.5</ele><time>2026-04-18T08:50:16.693Z</time></trkpt><trkpt lat="43.4901793" lon="11.3848724"><ele>459.25</ele><time>2026-04-18T08:50:17.693Z</time></trkpt><trkpt lat="43.4902527" lon="11.3850153"><ele>458.0</ele><time>2026-04-18T08:50:18.693Z</time></trkpt><trkpt lat="43.4903031" lon="11.3851721"><ele>458.0</ele><time>2026-04-18T08:50:19.693Z</time></trkpt><trkpt lat="43.4903218" lon="11.3853666"><ele>458.0</ele><time>2026-04-18T08:50:20.693Z</time></trkpt><trkpt lat="43.4903314" lon="11.3855883"><ele>458.0</ele><time>2026-04-18T08:50:21.693Z</time></trkpt><trkpt lat="43.4903339" lon="11.3857832"><ele>458.0</ele><time>2026-04-18T08:50:22.693Z</time></trkpt><trkpt lat="43.49031" lon="11.3859529"><ele>458.25</ele><time>2026-04-18T08:50:23.694Z</time></trkpt><trkpt lat="43.4902386" lon="11.3861155"><ele>458.5</ele><time>2026-04-18T08:50:24.694Z</time></trkpt><trkpt lat="43.4901537" lon="11.386208"><ele>458.75</ele><time>2026-04-18T08:50:25.693Z</time></trkpt><trkpt lat="43.4900535" lon="11.3862537"><ele>459.0</ele><time>2026-04-18T08:50:26.693Z</time></trkpt><trkpt lat="43.489953" lon="11.3862601"><ele>459.0</ele><time>2026-04-18T08:50:27.694Z</time></trkpt><trkpt lat="43.4898635" lon="11.3862182"><ele>459.0</ele><time>2026-04-18T08:50:28.693Z</time></trkpt><trkpt lat="43.4897959" lon="11.3861696"><ele>459.0</ele><time>2026-04-18T08:50:29.694Z</time></trkpt><trkpt lat="43.4897307" lon="11.3862167"><ele>459.0</ele><time>2026-04-18T08:50:30.693Z</time></trkpt><trkpt lat="43.4896836" lon="11.3862879"><ele>459.0</ele><time>2026-04-18T08:50:31.693Z</time></trkpt><trkpt lat="43.4896618" lon="11.3864192"><ele>459.0</ele><time>2026-04-18T08:50:32.694Z</time></trkpt><trkpt lat="43.4896333" lon="11.3865994"><ele>460.33333333333337</ele><time>2026-04-18T08:50:33.693Z</time></trkpt><trkpt lat="43.4896012" lon="11.3867925"><ele>461.6666666666667</ele><time>2026-04-18T08:50:34.693Z</time></trkpt><trkpt lat="43.4895746" lon="11.3869943"><ele>463.0</ele><time>2026-04-18T08:50:35.694Z</time></trkpt><trkpt lat="43.4895479" lon="11.3872201"><ele>458.0</ele><time>2026-04-18T08:50:36.693Z</time></trkpt><trkpt lat="43.4895254" lon="11.3874661"><ele>453.0</ele><time>2026-04-18T08:50:37.693Z</time></trkpt><trkpt lat="43.4895027" lon="11.387721"><ele>448.0</ele><time>2026-04-18T08:50:38.693Z</time></trkpt><trkpt lat="43.4894725" lon="11.3879862"><ele>449.0</ele><time>2026-04-18T08:50:39.694Z</time></trkpt><trkpt lat="43.4894432" lon="11.3882328"><ele>450.0</ele><time>2026-04-18T08:50:40.693Z</time></trkpt><trkpt lat="43.489416" lon="11.388467"><ele>451.0</ele><time>2026-04-18T08:50:41.694Z</time></trkpt><trkpt lat="43.489379" lon="11.3886871"><ele>452.0</ele><time>2026-04-18T08:50:42.693Z</time></trkpt><trkpt lat="43.4893287" lon="11.3888784"><ele>453.0</ele><time>2026-04-18T08:50:43.694Z</time></trkpt><trkpt lat="43.4892902" lon="11.389058"><ele>454.0</ele><time>2026-04-18T08:50:44.693Z</time></trkpt><trkpt lat="43.4892761" lon="11.3892282"><ele>455.0</ele><time>2026-04-18T08:50:45.694Z</time></trkpt><trkpt lat="43.4893148" lon="11.3894239"><ele>455.0</ele><time>2026-04-18T08:50:46.693Z</time></trkpt><trkpt lat="43.4893816" lon="11.3896146"><ele>455.0</ele><time>2026-04-18T08:50:47.693Z</time></trkpt><trkpt lat="43.4894541" lon="11.3898062"><ele>455.0</ele><time>2026-04-18T08:50:48.693Z</time></trkpt><trkpt lat="43.4895176" lon="11.3899989"><ele>454.5</ele><time>2026-04-18T08:50:49.693Z</time></trkpt><trkpt lat="43.4895803" lon="11.3901872"><ele>454.0</ele><time>2026-04-18T08:50:50.693Z</time></trkpt><trkpt lat="43.4896467" lon="11.3903707"><ele>453.5</ele><time>2026-04-18T08:50:51.694Z</time></trkpt><trkpt lat="43.4897153" lon="11.3905374"><ele>453.0</ele><time>2026-04-18T08:50:52.693Z</time></trkpt><trkpt lat="43.4897842" lon="11.390693"><ele>454.5</ele><time>2026-04-18T08:50:53.694Z</time></trkpt><trkpt lat="43.489864" lon="11.39083"><ele>456.0</ele><time>2026-04-18T08:50:54.693Z</time></trkpt><trkpt lat="43.4899509" lon="11.3909446"><ele>457.5</ele><time>2026-04-18T08:50:55.693Z</time></trkpt><trkpt lat="43.4900435" lon="11.3910677"><ele>459.0</ele><time>2026-04-18T08:50:56.693Z</time></trkpt><trkpt lat="43.4901312" lon="11.3912005"><ele>458.25</ele><time>2026-04-18T08:50:57.693Z</time></trkpt><trkpt lat="43.4902034" lon="11.391345"><ele>457.5</ele><time>2026-04-18T08:50:58.694Z</time></trkpt><trkpt lat="43.4902317" lon="11.3915066"><ele>456.75</ele><time>2026-04-18T08:50:59.693Z</time></trkpt><trkpt lat="43.4902212" lon="11.391673"><ele>456.0</ele><time>2026-04-18T08:51:00.693Z</time></trkpt><trkpt lat="43.4902062" lon="11.3918417"><ele>456.0</ele><time>2026-04-18T08:51:01.693Z</time></trkpt><trkpt lat="43.4902052" lon="11.3920114"><ele>456.0</ele><time>2026-04-18T08:51:02.693Z</time></trkpt><trkpt lat="43.4902037" lon="11.3921806"><ele>456.0</ele><time>2026-04-18T08:51:03.693Z</time></trkpt><trkpt lat="43.4902194" lon="11.3923494"><ele>456.0</ele><time>2026-04-18T08:51:04.694Z</time></trkpt><trkpt lat="43.4902543" lon="11.3925274"><ele>456.25</ele><time>2026-04-18T08:51:05.694Z</time></trkpt><trkpt lat="43.490299" lon="11.3927125"><ele>456.5</ele><time>2026-04-18T08:51:06.693Z</time></trkpt><trkpt lat="43.4903465" lon="11.3928871"><ele>456.75</ele><time>2026-04-18T08:51:07.693Z</time></trkpt><trkpt lat="43.4903851" lon="11.393045"><ele>457.0</ele><time>2026-04-18T08:51:08.693Z</time></trkpt><trkpt lat="43.4904132" lon="11.3932014"><ele>457.6</ele><time>2026-04-18T08:51:09.693Z</time></trkpt><trkpt lat="43.4904262" lon="11.3933426"><ele>458.20000000000005</ele><time>2026-04-18T08:51:10.693Z</time></trkpt><trkpt lat="43.4904229" lon="11.3934792"><ele>458.8</ele><time>2026-04-18T08:51:11.693Z</time></trkpt><trkpt lat="43.4903994" lon="11.3935901"><ele>459.4</ele><time>2026-04-18T08:51:12.693Z</time></trkpt><trkpt lat="43.4903709" lon="11.3936792"><ele>460.0</ele><time>2026-04-18T08:51:13.693Z</time></trkpt><trkpt lat="43.4903233" lon="11.3937928"><ele>460.6666666666667</ele><time>2026-04-18T08:51:15.694Z</time></trkpt><trkpt lat="43.490349" lon="11.3939318"><ele>461.33333333333337</ele><time>2026-04-18T08:51:18.693Z</time></trkpt><trkpt lat="43.4904128" lon="11.3939345"><ele>462.0</ele><time>2026-04-18T08:51:19.693Z</time></trkpt><trkpt lat="43.490494" lon="11.39391"><ele>462.66666666666663</ele><time>2026-04-18T08:51:20.693Z</time></trkpt><trkpt lat="43.4905717" lon="11.3938589"><ele>463.3333333333333</ele><time>2026-04-18T08:51:21.694Z</time></trkpt><trkpt lat="43.490649" lon="11.3938488"><ele>464.0</ele><time>2026-04-18T08:51:22.693Z</time></trkpt><trkpt lat="43.4907581" lon="11.3939234"><ele>464.4</ele><time>2026-04-18T08:51:24.693Z</time></trkpt><trkpt lat="43.4907962" lon="11.3940169"><ele>464.79999999999995</ele><time>2026-04-18T08:51:25.694Z</time></trkpt><trkpt lat="43.4908409" lon="11.3941394"><ele>465.20000000000005</ele><time>2026-04-18T08:51:26.693Z</time></trkpt><trkpt lat="43.4908788" lon="11.3942649"><ele>465.6</ele><time>2026-04-18T08:51:27.693Z</time></trkpt><trkpt lat="43.4909197" lon="11.3943745"><ele>466.0</ele><time>2026-04-18T08:51:28.694Z</time></trkpt><trkpt lat="43.49096" lon="11.3944863"><ele>466.0</ele><time>2026-04-18T08:51:29.694Z</time></trkpt><trkpt lat="43.4910008" lon="11.3945908"><ele>466.0</ele><time>2026-04-18T08:51:30.693Z</time></trkpt><trkpt lat="43.4910332" lon="11.3946973"><ele>466.0</ele><time>2026-04-18T08:51:31.693Z</time></trkpt><trkpt lat="43.4910506" lon="11.3947815"><ele>466.0</ele><time>2026-04-18T08:51:32.693Z</time></trkpt><trkpt lat="43.4910849" lon="11.3949484"><ele>466.0</ele><time>2026-04-18T08:51:34.694Z</time></trkpt><trkpt lat="43.4911409" lon="11.3950865"><ele>466.20000000000005</ele><time>2026-04-18T08:51:36.693Z</time></trkpt><trkpt lat="43.4912088" lon="11.3952037"><ele>466.40000000000003</ele><time>2026-04-18T08:51:38.694Z</time></trkpt><trkpt lat="43.4912752" lon="11.3953601"><ele>466.6</ele><time>2026-04-18T08:51:40.694Z</time></trkpt><trkpt lat="43.4913014" lon="11.3954513"><ele>466.8</ele><time>2026-04-18T08:51:41.694Z</time></trkpt><trkpt lat="43.4913254" lon="11.3955438"><ele>467.0</ele><time>2026-04-18T08:51:42.693Z</time></trkpt><trkpt lat="43.4913488" lon="11.3956377"><ele>466.99999999999994</ele><time>2026-04-18T08:51:43.693Z</time></trkpt><trkpt lat="43.4913803" lon="11.3957222"><ele>467.0</ele><time>2026-04-18T08:51:44.693Z</time></trkpt><trkpt lat="43.4914129" lon="11.3958"><ele>466.99999999999994</ele><time>2026-04-18T08:51:45.693Z</time></trkpt><trkpt lat="43.4914482" lon="11.3958923"><ele>466.99999999999994</ele><time>2026-04-18T08:51:46.694Z</time></trkpt><trkpt lat="43.4914817" lon="11.3959775"><ele>467.0</ele><time>2026-04-18T08:51:47.693Z</time></trkpt><trkpt lat="43.4915107" lon="11.3960734"><ele>466.99999999999994</ele><time>2026-04-18T08:51:48.694Z</time></trkpt><trkpt lat="43.4915489" lon="11.396162"><ele>466.99999999999994</ele><time>2026-04-18T08:51:49.693Z</time></trkpt><trkpt lat="43.4915882" lon="11.39625"><ele>464.8333333333333</ele><time>2026-04-18T08:51:50.694Z</time></trkpt><trkpt lat="43.491624" lon="11.3963406"><ele>462.66666666666663</ele><time>2026-04-18T08:51:51.693Z</time></trkpt><trkpt lat="43.491663" lon="11.3964325"><ele>460.5</ele><time>2026-04-18T08:51:52.694Z</time></trkpt><trkpt lat="43.4917033" lon="11.3965199"><ele>458.33333333333337</ele><time>2026-04-18T08:51:53.693Z</time></trkpt><trkpt lat="43.4917423" lon="11.3966112"><ele>456.1666666666667</ele><time>2026-04-18T08:51:54.693Z</time></trkpt><trkpt lat="43.4917848" lon="11.3966976"><ele>454.0</ele><time>2026-04-18T08:51:55.693Z</time></trkpt><trkpt lat="43.491827" lon="11.3967981"><ele>454.00000000000006</ele><time>2026-04-18T08:51:56.693Z</time></trkpt><trkpt lat="43.491866" lon="11.396868"><ele>454.0</ele><time>2026-04-18T08:51:57.694Z</time></trkpt><trkpt lat="43.4919162" lon="11.3969239"><ele>454.0</ele><time>2026-04-18T08:51:58.693Z</time></trkpt><trkpt lat="43.4920231" lon="11.3970187"><ele>454.0</ele><time>2026-04-18T08:52:00.693Z</time></trkpt><trkpt lat="43.4920825" lon="11.3970661"><ele>454.00000000000006</ele><time>2026-04-18T08:52:01.693Z</time></trkpt><trkpt lat="43.4921531" lon="11.3971719"><ele>454.0</ele><time>2026-04-18T08:52:03.693Z</time></trkpt><trkpt lat="43.4922153" lon="11.397211"><ele>453.1666666666667</ele><time>2026-04-18T08:52:05.694Z</time></trkpt><trkpt lat="43.4923097" lon="11.3972514"><ele>452.33333333333337</ele><time>2026-04-18T08:52:07.693Z</time></trkpt><trkpt lat="43.4923806" lon="11.3972972"><ele>451.5</ele><time>2026-04-18T08:52:08.694Z</time></trkpt><trkpt lat="43.4924754" lon="11.3973637"><ele>450.66666666666663</ele><time>2026-04-18T08:52:09.693Z</time></trkpt><trkpt lat="43.492531" lon="11.3974135"><ele>449.8333333333333</ele><time>2026-04-18T08:52:10.693Z</time></trkpt><trkpt lat="43.4925869" lon="11.3974623"><ele>449.0</ele><time>2026-04-18T08:52:11.694Z</time></trkpt><trkpt lat="43.4926528" lon="11.3975217"><ele>448.99999999999994</ele><time>2026-04-18T08:52:12.694Z</time></trkpt><trkpt lat="43.4927743" lon="11.3975676"><ele>449.0</ele><time>2026-04-18T08:52:14.693Z</time></trkpt><trkpt lat="43.4928493" lon="11.3975808"><ele>449.0</ele><time>2026-04-18T08:52:15.693Z</time></trkpt><trkpt lat="43.4929176" lon="11.397572"><ele>449.0</ele><time>2026-04-18T08:52:16.693Z</time></trkpt><trkpt lat="43.4929828" lon="11.3975607"><ele>448.99999999999994</ele><time>2026-04-18T08:52:17.693Z</time></trkpt><trkpt lat="43.4930492" lon="11.3975398"><ele>449.0</ele><time>2026-04-18T08:52:18.693Z</time></trkpt><trkpt lat="43.4931281" lon="11.3975164"><ele>450.0</ele><time>2026-04-18T08:52:19.693Z</time></trkpt><trkpt lat="43.4932157" lon="11.3975018"><ele>451.0</ele><time>2026-04-18T08:52:20.693Z</time></trkpt><trkpt lat="43.4932936" lon="11.3974744"><ele>452.0</ele><time>2026-04-18T08:52:21.693Z</time></trkpt><trkpt lat="43.4933747" lon="11.3973969"><ele>453.0</ele><time>2026-04-18T08:52:23.693Z</time></trkpt><trkpt lat="43.4934519" lon="11.3972928"><ele>454.0</ele><time>2026-04-18T08:52:25.693Z</time></trkpt><trkpt lat="43.493578" lon="11.3972808"><ele>454.0</ele><time>2026-04-18T08:52:27.693Z</time></trkpt><trkpt lat="43.4936508" lon="11.3973084"><ele>454.0</ele><time>2026-04-18T08:52:28.694Z</time></trkpt><trkpt lat="43.4937352" lon="11.3973074"><ele>454.0</ele><time>2026-04-18T08:52:29.693Z</time></trkpt><trkpt lat="43.4938561" lon="11.3972755"><ele>454.0</ele><time>2026-04-18T08:52:31.693Z</time></trkpt><trkpt lat="43.4939628" lon="11.3972983"><ele>454.0</ele><time>2026-04-18T08:52:33.694Z</time></trkpt><trkpt lat="43.4940329" lon="11.3973052"><ele>454.79999999999995</ele><time>2026-04-18T08:52:34.693Z</time></trkpt><trkpt lat="43.4941527" lon="11.3972741"><ele>455.59999999999997</ele><time>2026-04-18T08:52:36.693Z</time></trkpt><trkpt lat="43.4942434" lon="11.3972238"><ele>456.4</ele><time>2026-04-18T08:52:38.693Z</time></trkpt><trkpt lat="43.4943264" lon="11.3972334"><ele>457.2</ele><time>2026-04-18T08:52:41.693Z</time></trkpt><trkpt lat="43.4944064" lon="11.3972034"><ele>458.0</ele><time>2026-04-18T08:52:43.694Z</time></trkpt><trkpt lat="43.4944722" lon="11.3971793"><ele>462.4</ele><time>2026-04-18T08:52:44.693Z</time></trkpt><trkpt lat="43.4945878" lon="11.3971005"><ele>466.79999999999995</ele><time>2026-04-18T08:52:46.694Z</time></trkpt><trkpt lat="43.4946493" lon="11.3970514"><ele>471.2</ele><time>2026-04-18T08:52:47.693Z</time></trkpt><trkpt lat="43.494751" lon="11.3970042"><ele>475.6</ele><time>2026-04-18T08:52:49.693Z</time></trkpt><trkpt lat="43.4948616" lon="11.3969913"><ele>480.0</ele><time>2026-04-18T08:52:51.693Z</time></trkpt><trkpt lat="43.4949372" lon="11.3969701"><ele>480.0</ele><time>2026-04-18T08:52:52.693Z</time></trkpt><trkpt lat="43.4950058" lon="11.3969403"><ele>480.0</ele><time>2026-04-18T08:52:53.693Z</time></trkpt><trkpt lat="43.4950771" lon="11.3969176"><ele>480.0</ele><time>2026-04-18T08:52:54.693Z</time></trkpt><trkpt lat="43.4951544" lon="11.3968978"><ele>480.0</ele><time>2026-04-18T08:52:55.694Z</time></trkpt><trkpt lat="43.4952338" lon="11.3968768"><ele>480.0</ele><time>2026-04-18T08:52:56.693Z</time></trkpt><trkpt lat="43.495314" lon="11.3968615"><ele>480.0</ele><time>2026-04-18T08:52:57.694Z</time></trkpt><trkpt lat="43.4953848" lon="11.3968578"><ele>477.1666666666667</ele><time>2026-04-18T08:52:58.693Z</time></trkpt><trkpt lat="43.4954529" lon="11.3968558"><ele>474.33333333333337</ele><time>2026-04-18T08:52:59.694Z</time></trkpt><trkpt lat="43.4955604" lon="11.3968528"><ele>471.5</ele><time>2026-04-18T08:53:01.693Z</time></trkpt><trkpt lat="43.4956299" lon="11.3968396"><ele>468.6666666666667</ele><time>2026-04-18T08:53:02.693Z</time></trkpt><trkpt lat="43.4957362" lon="11.3968003"><ele>465.83333333333337</ele><time>2026-04-18T08:53:04.693Z</time></trkpt><trkpt lat="43.495807" lon="11.3967299"><ele>463.0</ele><time>2026-04-18T08:53:07.693Z</time></trkpt><trkpt lat="43.4958991" lon="11.3967432"><ele>463.0</ele><time>2026-04-18T08:53:09.694Z</time></trkpt><trkpt lat="43.4959798" lon="11.3967502"><ele>462.99999999999994</ele><time>2026-04-18T08:53:11.693Z</time></trkpt><trkpt lat="43.4960725" lon="11.3967657"><ele>462.99999999999994</ele><time>2026-04-18T08:53:13.693Z</time></trkpt><trkpt lat="43.4961418" lon="11.3967702"><ele>463.0</ele><time>2026-04-18T08:53:15.693Z</time></trkpt><trkpt lat="43.4962161" lon="11.3967582"><ele>463.0</ele><time>2026-04-18T08:53:17.693Z</time></trkpt><trkpt lat="43.4963058" lon="11.3966255"><ele>457.83333333333337</ele><time>2026-04-18T08:53:19.694Z</time></trkpt><trkpt lat="43.4963459" lon="11.3965537"><ele>452.6666666666667</ele><time>2026-04-18T08:53:20.693Z</time></trkpt><trkpt lat="43.4964013" lon="11.3964449"><ele>447.5</ele><time>2026-04-18T08:53:22.693Z</time></trkpt><trkpt lat="43.4964354" lon="11.3963452"><ele>442.33333333333337</ele><time>2026-04-18T08:53:24.693Z</time></trkpt><trkpt lat="43.4964645" lon="11.3962514"><ele>437.1666666666667</ele><time>2026-04-18T08:53:26.693Z</time></trkpt><trkpt lat="43.4964955" lon="11.3961415"><ele>432.0</ele><time>2026-04-18T08:53:28.693Z</time></trkpt><trkpt lat="43.4965094" lon="11.3960219"><ele>432.0</ele><time>2026-04-18T08:53:30.694Z</time></trkpt><trkpt lat="43.4965224" lon="11.3958921"><ele>432.00000000000006</ele><time>2026-04-18T08:53:32.693Z</time></trkpt><trkpt lat="43.4965196" lon="11.3957132"><ele>432.00000000000006</ele><time>2026-04-18T08:53:34.693Z</time></trkpt><trkpt lat="43.4965042" lon="11.3956134"><ele>432.0</ele><time>2026-04-18T08:53:35.694Z</time></trkpt><trkpt lat="43.4964869" lon="11.3954639"><ele>432.0</ele><time>2026-04-18T08:53:37.693Z</time></trkpt><trkpt lat="43.4964742" lon="11.3953163"><ele>431.6666666666667</ele><time>2026-04-18T08:53:39.693Z</time></trkpt><trkpt lat="43.4964847" lon="11.3952268"><ele>431.33333333333337</ele><time>2026-04-18T08:53:40.693Z</time></trkpt><trkpt lat="43.4964939" lon="11.3951319"><ele>431.0</ele><time>2026-04-18T08:53:41.693Z</time></trkpt><trkpt lat="43.4965134" lon="11.3950357"><ele>430.6666666666667</ele><time>2026-04-18T08:53:42.694Z</time></trkpt><trkpt lat="43.4965698" lon="11.3948999"><ele>430.33333333333337</ele><time>2026-04-18T08:53:44.693Z</time></trkpt><trkpt lat="43.4966465" lon="11.3949094"><ele>430.0</ele><time>2026-04-18T08:53:47.693Z</time></trkpt><trkpt lat="43.4967006" lon="11.3949688"><ele>430.0</ele><time>2026-04-18T08:53:49.694Z</time></trkpt><trkpt lat="43.4967988" lon="11.3950203"><ele>430.0</ele><time>2026-04-18T08:53:51.694Z</time></trkpt><trkpt lat="43.496908" lon="11.3950617"><ele>430.0</ele><time>2026-04-18T08:53:53.693Z</time></trkpt><trkpt lat="43.4969711" lon="11.3951427"><ele>430.0</ele><time>2026-04-18T08:53:55.693Z</time></trkpt><trkpt lat="43.4969941" lon="11.395268"><ele>430.0</ele><time>2026-04-18T08:53:57.694Z</time></trkpt><trkpt lat="43.4969824" lon="11.3953538"><ele>430.00000000000006</ele><time>2026-04-18T08:53:58.693Z</time></trkpt><trkpt lat="43.4969465" lon="11.3954599"><ele>430.0</ele><time>2026-04-18T08:53:59.693Z</time></trkpt><trkpt lat="43.4969284" lon="11.3955611"><ele>430.0</ele><time>2026-04-18T08:54:00.693Z</time></trkpt><trkpt lat="43.4969575" lon="11.3957178"><ele>430.0</ele><time>2026-04-18T08:54:02.693Z</time></trkpt><trkpt lat="43.4970061" lon="11.3958068"><ele>430.00000000000006</ele><time>2026-04-18T08:54:03.694Z</time></trkpt><trkpt lat="43.4970542" lon="11.3959104"><ele>430.0</ele><time>2026-04-18T08:54:04.693Z</time></trkpt><trkpt lat="43.4970983" lon="11.3960166"><ele>426.33333333333337</ele><time>2026-04-18T08:54:05.693Z</time></trkpt><trkpt lat="43.4971316" lon="11.3961287"><ele>422.6666666666667</ele><time>2026-04-18T08:54:06.694Z</time></trkpt><trkpt lat="43.497165" lon="11.3962139"><ele>419.0</ele><time>2026-04-18T08:54:07.693Z</time></trkpt><trkpt lat="43.4971869" lon="11.3962968"><ele>415.33333333333337</ele><time>2026-04-18T08:54:08.693Z</time></trkpt><trkpt lat="43.4972135" lon="11.3964546"><ele>411.6666666666667</ele><time>2026-04-18T08:54:10.694Z</time></trkpt><trkpt lat="43.4972297" lon="11.3965639"><ele>408.0</ele><time>2026-04-18T08:54:11.693Z</time></trkpt><trkpt lat="43.4972809" lon="11.396711"><ele>407.5</ele><time>2026-04-18T08:54:13.694Z</time></trkpt><trkpt lat="43.49728" lon="11.3968558"><ele>407.0</ele><time>2026-04-18T08:54:15.693Z</time></trkpt><trkpt lat="43.4972701" lon="11.3969646"><ele>406.5</ele><time>2026-04-18T08:54:16.693Z</time></trkpt><trkpt lat="43.4972782" lon="11.3970628"><ele>406.0</ele><time>2026-04-18T08:54:17.693Z</time></trkpt><trkpt lat="43.4972865" lon="11.3971758"><ele>405.5</ele><time>2026-04-18T08:54:18.693Z</time></trkpt><trkpt lat="43.497335" lon="11.397256"><ele>405.0</ele><time>2026-04-18T08:54:20.693Z</time></trkpt><trkpt lat="43.4974457" lon="11.3972651"><ele>403.8</ele><time>2026-04-18T08:54:22.694Z</time></trkpt><trkpt lat="43.4975271" lon="11.3972429"><ele>402.6</ele><time>2026-04-18T08:54:24.693Z</time></trkpt><trkpt lat="43.4975824" lon="11.3973069"><ele>401.4</ele><time>2026-04-18T08:54:26.693Z</time></trkpt><trkpt lat="43.4976217" lon="11.3974426"><ele>400.2</ele><time>2026-04-18T08:54:28.693Z</time></trkpt><trkpt lat="43.4976244" lon="11.3975705"><ele>399.0</ele><time>2026-04-18T08:54:29.694Z</time></trkpt><trkpt lat="43.4976258" lon="11.397705"><ele>399.0</ele><time>2026-04-18T08:54:30.693Z</time></trkpt><trkpt lat="43.4976345" lon="11.3978269"><ele>399.0</ele><time>2026-04-18T08:54:31.694Z</time></trkpt><trkpt lat="43.497655" lon="11.3979256"><ele>399.0</ele><time>2026-04-18T08:54:32.693Z</time></trkpt><trkpt lat="43.4976972" lon="11.3980884"><ele>399.0</ele><time>2026-04-18T08:54:34.694Z</time></trkpt><trkpt lat="43.4977376" lon="11.3982297"><ele>399.0</ele><time>2026-04-18T08:54:36.693Z</time></trkpt><trkpt lat="43.4977326" lon="11.3983166"><ele>397.79999999999995</ele><time>2026-04-18T08:54:37.693Z</time></trkpt><trkpt lat="43.4977129" lon="11.3984918"><ele>396.59999999999997</ele><time>2026-04-18T08:54:39.693Z</time></trkpt><trkpt lat="43.4976903" lon="11.3985796"><ele>395.4</ele><time>2026-04-18T08:54:40.693Z</time></trkpt><trkpt lat="43.497661" lon="11.3986842"><ele>394.2</ele><time>2026-04-18T08:54:41.693Z</time></trkpt><trkpt lat="43.4976404" lon="11.3987769"><ele>393.0</ele><time>2026-04-18T08:54:42.693Z</time></trkpt><trkpt lat="43.4976182" lon="11.3989275"><ele>391.79999999999995</ele><time>2026-04-18T08:54:44.693Z</time></trkpt><trkpt lat="43.4976302" lon="11.3990912"><ele>390.6</ele><time>2026-04-18T08:54:46.693Z</time></trkpt><trkpt lat="43.4976865" lon="11.3992664"><ele>389.4</ele><time>2026-04-18T08:54:48.693Z</time></trkpt><trkpt lat="43.4977228" lon="11.3993778"><ele>388.20000000000005</ele><time>2026-04-18T08:54:49.693Z</time></trkpt><trkpt lat="43.4977614" lon="11.399501"><ele>387.0</ele><time>2026-04-18T08:54:50.693Z</time></trkpt><trkpt lat="43.4977893" lon="11.3996263"><ele>388.1666666666667</ele><time>2026-04-18T08:54:51.693Z</time></trkpt><trkpt lat="43.4978089" lon="11.3997313"><ele>389.33333333333337</ele><time>2026-04-18T08:54:52.693Z</time></trkpt><trkpt lat="43.497822" lon="11.399838"><ele>390.5</ele><time>2026-04-18T08:54:53.693Z</time></trkpt><trkpt lat="43.4978314" lon="11.3999684"><ele>391.6666666666667</ele><time>2026-04-18T08:54:54.693Z</time></trkpt><trkpt lat="43.4978347" lon="11.4000937"><ele>392.83333333333337</ele><time>2026-04-18T08:54:55.693Z</time></trkpt><trkpt lat="43.4978422" lon="11.4001911"><ele>394.0</ele><time>2026-04-18T08:54:56.693Z</time></trkpt><trkpt lat="43.4979067" lon="11.4002279"><ele>392.6666666666667</ele><time>2026-04-18T08:55:04.693Z</time></trkpt><trkpt lat="43.4979601" lon="11.4002841"><ele>391.33333333333337</ele><time>2026-04-18T08:55:07.693Z</time></trkpt><trkpt lat="43.4980383" lon="11.4003537"><ele>390.0</ele><time>2026-04-18T08:55:09.693Z</time></trkpt><trkpt lat="43.4980914" lon="11.4004106"><ele>388.66666666666663</ele><time>2026-04-18T08:55:11.693Z</time></trkpt><trkpt lat="43.4981317" lon="11.4004809"><ele>387.3333333333333</ele><time>2026-04-18T08:55:17.693Z</time></trkpt><trkpt lat="43.498111" lon="11.4006437"><ele>386.0</ele><time>2026-04-18T08:55:19.694Z</time></trkpt><trkpt lat="43.4980839" lon="11.4007362"><ele>386.00000000000006</ele><time>2026-04-18T08:55:20.694Z</time></trkpt><trkpt lat="43.4980559" lon="11.4008224"><ele>386.0</ele><time>2026-04-18T08:55:21.693Z</time></trkpt><trkpt lat="43.4980278" lon="11.400905"><ele>386.0</ele><time>2026-04-18T08:55:22.693Z</time></trkpt><trkpt lat="43.4979994" lon="11.4009923"><ele>386.0</ele><time>2026-04-18T08:55:23.694Z</time></trkpt><trkpt lat="43.4979691" lon="11.4010704"><ele>386.0</ele><time>2026-04-18T08:55:24.693Z</time></trkpt><trkpt lat="43.4979368" lon="11.4011467"><ele>386.00000000000006</ele><time>2026-04-18T08:55:25.693Z</time></trkpt><trkpt lat="43.4979007" lon="11.4012987"><ele>386.0</ele><time>2026-04-18T08:55:27.693Z</time></trkpt><trkpt lat="43.4978674" lon="11.4013756"><ele>387.20000000000005</ele><time>2026-04-18T08:55:28.693Z</time></trkpt><trkpt lat="43.4978242" lon="11.4014591"><ele>388.40000000000003</ele><time>2026-04-18T08:55:29.693Z</time></trkpt><trkpt lat="43.4977695" lon="11.4015681"><ele>389.6</ele><time>2026-04-18T08:55:30.693Z</time></trkpt><trkpt lat="43.497703" lon="11.4016921"><ele>390.8</ele><time>2026-04-18T08:55:31.693Z</time></trkpt><trkpt lat="43.4976381" lon="11.4018329"><ele>392.0</ele><time>2026-04-18T08:55:32.693Z</time></trkpt><trkpt lat="43.4975601" lon="11.4019773"><ele>392.0</ele><time>2026-04-18T08:55:33.693Z</time></trkpt><trkpt lat="43.497489" lon="11.4021033"><ele>392.0</ele><time>2026-04-18T08:55:34.693Z</time></trkpt><trkpt lat="43.4974283" lon="11.4022416"><ele>392.0</ele><time>2026-04-18T08:55:35.693Z</time></trkpt><trkpt lat="43.4973701" lon="11.402401"><ele>392.0</ele><time>2026-04-18T08:55:36.693Z</time></trkpt><trkpt lat="43.4973249" lon="11.40257"><ele>391.25</ele><time>2026-04-18T08:55:37.693Z</time></trkpt><trkpt lat="43.4972772" lon="11.4027353"><ele>390.5</ele><time>2026-04-18T08:55:38.693Z</time></trkpt><trkpt lat="43.4972318" lon="11.4028826"><ele>389.75</ele><time>2026-04-18T08:55:39.693Z</time></trkpt><trkpt lat="43.4971795" lon="11.4030315"><ele>389.0</ele><time>2026-04-18T08:55:40.694Z</time></trkpt><trkpt lat="43.4971174" lon="11.4031763"><ele>390.75</ele><time>2026-04-18T08:55:41.694Z</time></trkpt><trkpt lat="43.4970534" lon="11.4033149"><ele>392.5</ele><time>2026-04-18T08:55:42.693Z</time></trkpt><trkpt lat="43.4969773" lon="11.4034369"><ele>394.25</ele><time>2026-04-18T08:55:43.694Z</time></trkpt><trkpt lat="43.4968802" lon="11.4035551"><ele>396.0</ele><time>2026-04-18T08:55:44.694Z</time></trkpt><trkpt lat="43.4967755" lon="11.4036526"><ele>396.0</ele><time>2026-04-18T08:55:45.693Z</time></trkpt><trkpt lat="43.4966856" lon="11.4037425"><ele>396.0</ele><time>2026-04-18T08:55:46.693Z</time></trkpt><trkpt lat="43.4966047" lon="11.4038384"><ele>396.0</ele><time>2026-04-18T08:55:47.693Z</time></trkpt><trkpt lat="43.4965377" lon="11.4039653"><ele>396.0</ele><time>2026-04-18T08:55:48.693Z</time></trkpt><trkpt lat="43.4965057" lon="11.4041163"><ele>396.0</ele><time>2026-04-18T08:55:49.693Z</time></trkpt><trkpt lat="43.4964952" lon="11.404284"><ele>396.75</ele><time>2026-04-18T08:55:50.694Z</time></trkpt><trkpt lat="43.4964881" lon="11.4044526"><ele>397.5</ele><time>2026-04-18T08:55:51.693Z</time></trkpt><trkpt lat="43.496477" lon="11.4046276"><ele>398.25</ele><time>2026-04-18T08:55:52.693Z</time></trkpt><trkpt lat="43.4964638" lon="11.4048064"><ele>399.0</ele><time>2026-04-18T08:55:53.694Z</time></trkpt><trkpt lat="43.4964556" lon="11.4049842"><ele>399.5</ele><time>2026-04-18T08:55:54.693Z</time></trkpt><trkpt lat="43.4964574" lon="11.4051491"><ele>400.0</ele><time>2026-04-18T08:55:55.693Z</time></trkpt><trkpt lat="43.4964964" lon="11.4053194"><ele>400.5</ele><time>2026-04-18T08:55:56.693Z</time></trkpt><trkpt lat="43.4965369" lon="11.405467"><ele>401.0</ele><time>2026-04-18T08:55:57.693Z</time></trkpt><trkpt lat="43.4965918" lon="11.4056094"><ele>401.75</ele><time>2026-04-18T08:55:58.693Z</time></trkpt><trkpt lat="43.4966572" lon="11.4057433"><ele>402.5</ele><time>2026-04-18T08:55:59.694Z</time></trkpt><trkpt lat="43.496741" lon="11.4058556"><ele>403.25</ele><time>2026-04-18T08:56:00.693Z</time></trkpt><trkpt lat="43.4968298" lon="11.405961"><ele>404.0</ele><time>2026-04-18T08:56:01.693Z</time></trkpt><trkpt lat="43.4969199" lon="11.4060861"><ele>404.0</ele><time>2026-04-18T08:56:02.694Z</time></trkpt><trkpt lat="43.4969878" lon="11.4062311"><ele>404.0</ele><time>2026-04-18T08:56:03.693Z</time></trkpt><trkpt lat="43.497037" lon="11.4063844"><ele>404.0</ele><time>2026-04-18T08:56:04.694Z</time></trkpt><trkpt lat="43.4970751" lon="11.4065526"><ele>404.0</ele><time>2026-04-18T08:56:05.693Z</time></trkpt><trkpt lat="43.4970999" lon="11.4067147"><ele>405.0</ele><time>2026-04-18T08:56:06.693Z</time></trkpt><trkpt lat="43.497127" lon="11.4068727"><ele>406.0</ele><time>2026-04-18T08:56:07.693Z</time></trkpt><trkpt lat="43.4971305" lon="11.4070433"><ele>407.0</ele><time>2026-04-18T08:56:08.693Z</time></trkpt><trkpt lat="43.4971092" lon="11.4072221"><ele>408.0</ele><time>2026-04-18T08:56:09.693Z</time></trkpt><trkpt lat="43.4970821" lon="11.4073908"><ele>408.0</ele><time>2026-04-18T08:56:10.693Z</time></trkpt><trkpt lat="43.4970564" lon="11.4075546"><ele>408.0</ele><time>2026-04-18T08:56:11.693Z</time></trkpt><trkpt lat="43.4970476" lon="11.4077182"><ele>408.0</ele><time>2026-04-18T08:56:12.693Z</time></trkpt><trkpt lat="43.4970713" lon="11.4078853"><ele>408.0</ele><time>2026-04-18T08:56:13.693Z</time></trkpt><trkpt lat="43.4971112" lon="11.4080351"><ele>410.5</ele><time>2026-04-18T08:56:14.693Z</time></trkpt><trkpt lat="43.4971852" lon="11.408164"><ele>413.0</ele><time>2026-04-18T08:56:15.694Z</time></trkpt><trkpt lat="43.4972739" lon="11.408294"><ele>415.5</ele><time>2026-04-18T08:56:16.693Z</time></trkpt><trkpt lat="43.4973604" lon="11.4084086"><ele>418.0</ele><time>2026-04-18T08:56:17.694Z</time></trkpt><trkpt lat="43.4974382" lon="11.4085263"><ele>418.0</ele><time>2026-04-18T08:56:18.694Z</time></trkpt><trkpt lat="43.4975148" lon="11.4086426"><ele>418.0</ele><time>2026-04-18T08:56:19.693Z</time></trkpt><trkpt lat="43.4975812" lon="11.4087576"><ele>418.0</ele><time>2026-04-18T08:56:20.693Z</time></trkpt><trkpt lat="43.4976467" lon="11.4088869"><ele>418.0</ele><time>2026-04-18T08:56:21.694Z</time></trkpt><trkpt lat="43.4977113" lon="11.409017"><ele>418.0</ele><time>2026-04-18T08:56:22.693Z</time></trkpt><trkpt lat="43.4977728" lon="11.4091471"><ele>419.0</ele><time>2026-04-18T08:56:23.693Z</time></trkpt><trkpt lat="43.497836" lon="11.4092784"><ele>420.0</ele><time>2026-04-18T08:56:24.694Z</time></trkpt><trkpt lat="43.4979053" lon="11.4094152"><ele>421.0</ele><time>2026-04-18T08:56:25.693Z</time></trkpt><trkpt lat="43.4979741" lon="11.4095593"><ele>422.0</ele><time>2026-04-18T08:56:26.693Z</time></trkpt><trkpt lat="43.4980469" lon="11.4097038"><ele>426.0</ele><time>2026-04-18T08:56:27.693Z</time></trkpt><trkpt lat="43.4981123" lon="11.4098417"><ele>430.0</ele><time>2026-04-18T08:56:28.693Z</time></trkpt><trkpt lat="43.4981777" lon="11.4099737"><ele>434.00000000000006</ele><time>2026-04-18T08:56:29.693Z</time></trkpt><trkpt lat="43.498236" lon="11.4100886"><ele>438.0</ele><time>2026-04-18T08:56:30.694Z</time></trkpt><trkpt lat="43.498276" lon="11.4101838"><ele>442.0</ele><time>2026-04-18T08:56:31.693Z</time></trkpt><trkpt lat="43.4983047" lon="11.4102797"><ele>442.0</ele><time>2026-04-18T08:56:32.693Z</time></trkpt><trkpt lat="43.4982541" lon="11.4104384"><ele>442.00000000000006</ele><time>2026-04-18T08:56:34.694Z</time></trkpt><trkpt lat="43.4981945" lon="11.4105068"><ele>442.00000000000006</ele><time>2026-04-18T08:56:35.693Z</time></trkpt><trkpt lat="43.4981468" lon="11.4105951"><ele>442.0</ele><time>2026-04-18T08:56:36.693Z</time></trkpt><trkpt lat="43.4980918" lon="11.4107252"><ele>442.0</ele><time>2026-04-18T08:56:37.693Z</time></trkpt><trkpt lat="43.4980511" lon="11.4108624"><ele>444.6</ele><time>2026-04-18T08:56:38.693Z</time></trkpt><trkpt lat="43.498027" lon="11.4110147"><ele>447.20000000000005</ele><time>2026-04-18T08:56:39.694Z</time></trkpt><trkpt lat="43.4980096" lon="11.4111641"><ele>449.8</ele><time>2026-04-18T08:56:40.693Z</time></trkpt><trkpt lat="43.4980072" lon="11.4113158"><ele>452.4</ele><time>2026-04-18T08:56:41.694Z</time></trkpt><trkpt lat="43.498025" lon="11.4114602"><ele>455.0</ele><time>2026-04-18T08:56:42.694Z</time></trkpt><trkpt lat="43.4980787" lon="11.4115868"><ele>457.2</ele><time>2026-04-18T08:56:43.694Z</time></trkpt><trkpt lat="43.4981431" lon="11.4117046"><ele>459.4</ele><time>2026-04-18T08:56:44.694Z</time></trkpt><trkpt lat="43.4981903" lon="11.4117899"><ele>461.6</ele><time>2026-04-18T08:56:45.693Z</time></trkpt><trkpt lat="43.4982568" lon="11.411863"><ele>463.8</ele><time>2026-04-18T08:56:47.693Z</time></trkpt><trkpt lat="43.4983304" lon="11.4118629"><ele>466.0</ele><time>2026-04-18T08:56:49.693Z</time></trkpt><trkpt lat="43.498436" lon="11.4117622"><ele>466.0</ele><time>2026-04-18T08:56:51.693Z</time></trkpt><trkpt lat="43.4984862" lon="11.4116804"><ele>466.0</ele><time>2026-04-18T08:56:52.693Z</time></trkpt><trkpt lat="43.498544" lon="11.4116003"><ele>466.0</ele><time>2026-04-18T08:56:53.693Z</time></trkpt><trkpt lat="43.4986114" lon="11.4115313"><ele>466.0</ele><time>2026-04-18T08:56:54.694Z</time></trkpt><trkpt lat="43.4987104" lon="11.4114804"><ele>466.0</ele><time>2026-04-18T08:56:55.693Z</time></trkpt><trkpt lat="43.4988139" lon="11.4114446"><ele>467.25</ele><time>2026-04-18T08:56:56.694Z</time></trkpt><trkpt lat="43.4989298" lon="11.4113915"><ele>468.5</ele><time>2026-04-18T08:56:57.693Z</time></trkpt><trkpt lat="43.4990389" lon="11.4113402"><ele>469.75</ele><time>2026-04-18T08:56:58.693Z</time></trkpt><trkpt lat="43.4991471" lon="11.41128"><ele>471.0</ele><time>2026-04-18T08:56:59.694Z</time></trkpt><trkpt lat="43.4992511" lon="11.4111972"><ele>471.0</ele><time>2026-04-18T08:57:00.694Z</time></trkpt><trkpt lat="43.4993406" lon="11.411108"><ele>471.0</ele><time>2026-04-18T08:57:01.693Z</time></trkpt><trkpt lat="43.4994221" lon="11.4110283"><ele>471.0</ele><time>2026-04-18T08:57:02.693Z</time></trkpt><trkpt lat="43.49951" lon="11.4109808"><ele>471.0</ele><time>2026-04-18T08:57:03.693Z</time></trkpt><trkpt lat="43.4995938" lon="11.4109462"><ele>471.0</ele><time>2026-04-18T08:57:04.693Z</time></trkpt><trkpt lat="43.4996738" lon="11.4109008"><ele>474.8</ele><time>2026-04-18T08:57:05.693Z</time></trkpt><trkpt lat="43.499751" lon="11.4108648"><ele>478.6</ele><time>2026-04-18T08:57:06.693Z</time></trkpt><trkpt lat="43.4998285" lon="11.4108363"><ele>482.4</ele><time>2026-04-18T08:57:07.693Z</time></trkpt><trkpt lat="43.4999131" lon="11.4108083"><ele>486.2</ele><time>2026-04-18T08:57:08.693Z</time></trkpt><trkpt lat="43.5000114" lon="11.4107777"><ele>490.0</ele><time>2026-04-18T08:57:09.693Z</time></trkpt><trkpt lat="43.5001136" lon="11.4107631"><ele>490.0</ele><time>2026-04-18T08:57:10.693Z</time></trkpt><trkpt lat="43.500226" lon="11.4107401"><ele>490.0</ele><time>2026-04-18T08:57:11.693Z</time></trkpt><trkpt lat="43.5003344" lon="11.4107061"><ele>490.0</ele><time>2026-04-18T08:57:12.693Z</time></trkpt><trkpt lat="43.5004455" lon="11.4106703"><ele>490.0</ele><time>2026-04-18T08:57:13.693Z</time></trkpt><trkpt lat="43.5005377" lon="11.4106415"><ele>490.0</ele><time>2026-04-18T08:57:14.693Z</time></trkpt><trkpt lat="43.5006317" lon="11.4106125"><ele>491.6</ele><time>2026-04-18T08:57:15.693Z</time></trkpt><trkpt lat="43.5007268" lon="11.4105991"><ele>493.2</ele><time>2026-04-18T08:57:16.693Z</time></trkpt><trkpt lat="43.500812" lon="11.4106052"><ele>494.79999999999995</ele><time>2026-04-18T08:57:17.693Z</time></trkpt><trkpt lat="43.5009003" lon="11.4106557"><ele>496.4</ele><time>2026-04-18T08:57:18.693Z</time></trkpt><trkpt lat="43.5009785" lon="11.4107232"><ele>498.0</ele><time>2026-04-18T08:57:19.694Z</time></trkpt><trkpt lat="43.5010502" lon="11.4107962"><ele>498.0</ele><time>2026-04-18T08:57:20.693Z</time></trkpt><trkpt lat="43.5011204" lon="11.4108845"><ele>498.0</ele><time>2026-04-18T08:57:21.694Z</time></trkpt><trkpt lat="43.5011827" lon="11.4109513"><ele>498.0</ele><time>2026-04-18T08:57:22.693Z</time></trkpt><trkpt lat="43.5012483" lon="11.4110101"><ele>498.0</ele><time>2026-04-18T08:57:23.693Z</time></trkpt><trkpt lat="43.5013353" lon="11.4110496"><ele>498.0</ele><time>2026-04-18T08:57:24.694Z</time></trkpt><trkpt lat="43.5014253" lon="11.4110671"><ele>498.0</ele><time>2026-04-18T08:57:25.694Z</time></trkpt><trkpt lat="43.5015117" lon="11.4110729"><ele>498.5</ele><time>2026-04-18T08:57:26.693Z</time></trkpt><trkpt lat="43.5015837" lon="11.4110615"><ele>499.0</ele><time>2026-04-18T08:57:27.693Z</time></trkpt><trkpt lat="43.5016464" lon="11.4110143"><ele>499.5</ele><time>2026-04-18T08:57:28.693Z</time></trkpt><trkpt lat="43.5017049" lon="11.4109503"><ele>500.0</ele><time>2026-04-18T08:57:29.693Z</time></trkpt><trkpt lat="43.5017662" lon="11.410847"><ele>500.5</ele><time>2026-04-18T08:57:30.694Z</time></trkpt><trkpt lat="43.5018158" lon="11.4107244"><ele>501.0</ele><time>2026-04-18T08:57:31.693Z</time></trkpt><trkpt lat="43.5018637" lon="11.4106087"><ele>501.0</ele><time>2026-04-18T08:57:32.693Z</time></trkpt><trkpt lat="43.5019082" lon="11.4105103"><ele>501.0</ele><time>2026-04-18T08:57:33.693Z</time></trkpt><trkpt lat="43.5019738" lon="11.4104119"><ele>501.0</ele><time>2026-04-18T08:57:34.693Z</time></trkpt><trkpt lat="43.5020412" lon="11.4103289"><ele>501.0</ele><time>2026-04-18T08:57:35.694Z</time></trkpt><trkpt lat="43.5021166" lon="11.4102553"><ele>501.0</ele><time>2026-04-18T08:57:36.694Z</time></trkpt><trkpt lat="43.5021982" lon="11.4101936"><ele>501.3333333333333</ele><time>2026-04-18T08:57:37.694Z</time></trkpt><trkpt lat="43.5022712" lon="11.4101446"><ele>501.66666666666663</ele><time>2026-04-18T08:57:38.693Z</time></trkpt><trkpt lat="43.5023473" lon="11.4100946"><ele>502.0</ele><time>2026-04-18T08:57:39.693Z</time></trkpt><trkpt lat="43.5024111" lon="11.4100585"><ele>502.3333333333333</ele><time>2026-04-18T08:57:40.694Z</time></trkpt><trkpt lat="43.5025172" lon="11.4099909"><ele>502.66666666666663</ele><time>2026-04-18T08:57:42.693Z</time></trkpt><trkpt lat="43.5025884" lon="11.409968"><ele>503.0</ele><time>2026-04-18T08:57:44.693Z</time></trkpt><trkpt lat="43.5026386" lon="11.4100835"><ele>502.99999999999994</ele><time>2026-04-18T08:57:46.694Z</time></trkpt><trkpt lat="43.5026659" lon="11.4102011"><ele>503.0</ele><time>2026-04-18T08:57:47.694Z</time></trkpt><trkpt lat="43.502677" lon="11.4103205"><ele>503.0</ele><time>2026-04-18T08:57:48.693Z</time></trkpt><trkpt lat="43.502688" lon="11.410439"><ele>503.0</ele><time>2026-04-18T08:57:49.693Z</time></trkpt><trkpt lat="43.5026687" lon="11.4105558"><ele>502.99999999999994</ele><time>2026-04-18T08:57:50.694Z</time></trkpt><trkpt lat="43.5026595" lon="11.4106815"><ele>503.0</ele><time>2026-04-18T08:57:51.694Z</time></trkpt><trkpt lat="43.5026563" lon="11.4108308"><ele>505.4</ele><time>2026-04-18T08:57:52.693Z</time></trkpt><trkpt lat="43.5026524" lon="11.4109972"><ele>507.79999999999995</ele><time>2026-04-18T08:57:53.693Z</time></trkpt><trkpt lat="43.5026644" lon="11.4111602"><ele>510.2</ele><time>2026-04-18T08:57:54.693Z</time></trkpt><trkpt lat="43.5026842" lon="11.4113025"><ele>512.6</ele><time>2026-04-18T08:57:55.693Z</time></trkpt><trkpt lat="43.5026778" lon="11.4114386"><ele>515.0</ele><time>2026-04-18T08:57:56.693Z</time></trkpt><trkpt lat="43.5026509" lon="11.4115843"><ele>517.0</ele><time>2026-04-18T08:57:57.693Z</time></trkpt><trkpt lat="43.502638" lon="11.4117209"><ele>519.0</ele><time>2026-04-18T08:57:58.693Z</time></trkpt><trkpt lat="43.5026307" lon="11.4118582"><ele>521.0</ele><time>2026-04-18T08:57:59.693Z</time></trkpt><trkpt lat="43.5026377" lon="11.4119856"><ele>523.0</ele><time>2026-04-18T08:58:00.693Z</time></trkpt><trkpt lat="43.502649" lon="11.4121038"><ele>525.0</ele><time>2026-04-18T08:58:01.693Z</time></trkpt><trkpt lat="43.5026608" lon="11.4122164"><ele>527.4</ele><time>2026-04-18T08:58:02.694Z</time></trkpt><trkpt lat="43.502692" lon="11.4123373"><ele>529.8</ele><time>2026-04-18T08:58:03.694Z</time></trkpt><trkpt lat="43.5027415" lon="11.4124611"><ele>532.2</ele><time>2026-04-18T08:58:04.693Z</time></trkpt><trkpt lat="43.5027915" lon="11.4125821"><ele>534.6</ele><time>2026-04-18T08:58:05.693Z</time></trkpt><trkpt lat="43.5028431" lon="11.4126996"><ele>537.0</ele><time>2026-04-18T08:58:06.693Z</time></trkpt><trkpt lat="43.5028905" lon="11.4127965"><ele>536.1666666666666</ele><time>2026-04-18T08:58:07.693Z</time></trkpt><trkpt lat="43.5029322" lon="11.4128808"><ele>535.3333333333334</ele><time>2026-04-18T08:58:08.694Z</time></trkpt><trkpt lat="43.5029524" lon="11.4129708"><ele>534.5</ele><time>2026-04-18T08:58:09.694Z</time></trkpt><trkpt lat="43.50296" lon="11.4130638"><ele>533.6666666666667</ele><time>2026-04-18T08:58:10.693Z</time></trkpt><trkpt lat="43.5029449" lon="11.4131746"><ele>532.8333333333334</ele><time>2026-04-18T08:58:11.693Z</time></trkpt><trkpt lat="43.5029193" lon="11.4133041"><ele>532.0</ele><time>2026-04-18T08:58:12.694Z</time></trkpt><trkpt lat="43.5028984" lon="11.4134379"><ele>534.0</ele><time>2026-04-18T08:58:13.694Z</time></trkpt><trkpt lat="43.5028851" lon="11.413561"><ele>536.0</ele><time>2026-04-18T08:58:14.694Z</time></trkpt><trkpt lat="43.5028795" lon="11.4136835"><ele>538.0</ele><time>2026-04-18T08:58:15.693Z</time></trkpt><trkpt lat="43.5028846" lon="11.4138063"><ele>540.0</ele><time>2026-04-18T08:58:16.693Z</time></trkpt><trkpt lat="43.5028917" lon="11.4139194"><ele>542.0</ele><time>2026-04-18T08:58:17.693Z</time></trkpt><trkpt lat="43.5029104" lon="11.4140168"><ele>544.0</ele><time>2026-04-18T08:58:18.693Z</time></trkpt><trkpt lat="43.5029433" lon="11.4140989"><ele>545.5</ele><time>2026-04-18T08:58:19.693Z</time></trkpt><trkpt lat="43.5029858" lon="11.4141686"><ele>547.0</ele><time>2026-04-18T08:58:20.693Z</time></trkpt><trkpt lat="43.5030871" lon="11.4142694"><ele>548.5</ele><time>2026-04-18T08:58:22.693Z</time></trkpt><trkpt lat="43.5031393" lon="11.4143338"><ele>550.0</ele><time>2026-04-18T08:58:23.693Z</time></trkpt><trkpt lat="43.5031836" lon="11.4144016"><ele>551.5</ele><time>2026-04-18T08:58:24.693Z</time></trkpt><trkpt lat="43.5032268" lon="11.4144966"><ele>553.0</ele><time>2026-04-18T08:58:25.693Z</time></trkpt><trkpt lat="43.5032854" lon="11.4146134"><ele>554.6</ele><time>2026-04-18T08:58:26.693Z</time></trkpt><trkpt lat="43.5033448" lon="11.4147248"><ele>556.1999999999999</ele><time>2026-04-18T08:58:27.693Z</time></trkpt><trkpt lat="43.5034068" lon="11.4148383"><ele>557.8</ele><time>2026-04-18T08:58:28.693Z</time></trkpt><trkpt lat="43.5034821" lon="11.4149236"><ele>559.4</ele><time>2026-04-18T08:58:29.693Z</time></trkpt><trkpt lat="43.5035571" lon="11.4150139"><ele>561.0</ele><time>2026-04-18T08:58:30.693Z</time></trkpt><trkpt lat="43.5036133" lon="11.4151088"><ele>561.0</ele><time>2026-04-18T08:58:31.694Z</time></trkpt><trkpt lat="43.5036643" lon="11.4151963"><ele>561.0</ele><time>2026-04-18T08:58:32.693Z</time></trkpt><trkpt lat="43.5037201" lon="11.4152625"><ele>561.0</ele><time>2026-04-18T08:58:33.694Z</time></trkpt><trkpt lat="43.5037792" lon="11.4153147"><ele>561.0</ele><time>2026-04-18T08:58:34.693Z</time></trkpt><trkpt lat="43.5038501" lon="11.4153487"><ele>561.0</ele><time>2026-04-18T08:58:35.693Z</time></trkpt><trkpt lat="43.5039359" lon="11.4153767"><ele>561.0</ele><time>2026-04-18T08:58:36.694Z</time></trkpt><trkpt lat="43.5040291" lon="11.415408"><ele>560.6</ele><time>2026-04-18T08:58:37.693Z</time></trkpt><trkpt lat="43.5041328" lon="11.4154357"><ele>560.2</ele><time>2026-04-18T08:58:38.693Z</time></trkpt><trkpt lat="43.5042462" lon="11.4154666"><ele>559.8</ele><time>2026-04-18T08:58:39.694Z</time></trkpt><trkpt lat="43.5043332" lon="11.4154988"><ele>559.4</ele><time>2026-04-18T08:58:40.694Z</time></trkpt><trkpt lat="43.5044065" lon="11.4155471"><ele>559.0</ele><time>2026-04-18T08:58:41.693Z</time></trkpt><trkpt lat="43.504484" lon="11.4155941"><ele>562.6666666666667</ele><time>2026-04-18T08:58:42.693Z</time></trkpt><trkpt lat="43.5045655" lon="11.4156538"><ele>566.3333333333334</ele><time>2026-04-18T08:58:43.693Z</time></trkpt><trkpt lat="43.5046413" lon="11.4156993"><ele>570.0</ele><time>2026-04-18T08:58:44.693Z</time></trkpt><trkpt lat="43.5047141" lon="11.4157257"><ele>573.6666666666666</ele><time>2026-04-18T08:58:45.693Z</time></trkpt><trkpt lat="43.5047947" lon="11.4157344"><ele>577.3333333333333</ele><time>2026-04-18T08:58:46.693Z</time></trkpt><trkpt lat="43.5048744" lon="11.4157307"><ele>581.0</ele><time>2026-04-18T08:58:47.694Z</time></trkpt><trkpt lat="43.5049611" lon="11.4157327"><ele>581.4</ele><time>2026-04-18T08:58:48.693Z</time></trkpt><trkpt lat="43.5050513" lon="11.4157341"><ele>581.8</ele><time>2026-04-18T08:58:49.694Z</time></trkpt><trkpt lat="43.5051407" lon="11.415771"><ele>582.1999999999999</ele><time>2026-04-18T08:58:50.693Z</time></trkpt><trkpt lat="43.5052325" lon="11.4158168"><ele>582.6</ele><time>2026-04-18T08:58:51.694Z</time></trkpt><trkpt lat="43.5053145" lon="11.4158722"><ele>583.0</ele><time>2026-04-18T08:58:52.693Z</time></trkpt><trkpt lat="43.5053927" lon="11.415914"><ele>582.1666666666667</ele><time>2026-04-18T08:58:53.693Z</time></trkpt><trkpt lat="43.5054506" lon="11.4159602"><ele>581.3333333333334</ele><time>2026-04-18T08:58:54.693Z</time></trkpt><trkpt lat="43.5055104" lon="11.416045"><ele>580.5</ele><time>2026-04-18T08:58:55.694Z</time></trkpt><trkpt lat="43.5055569" lon="11.4161314"><ele>579.6666666666666</ele><time>2026-04-18T08:58:56.693Z</time></trkpt><trkpt lat="43.5056063" lon="11.4162307"><ele>578.8333333333333</ele><time>2026-04-18T08:58:57.693Z</time></trkpt><trkpt lat="43.505651" lon="11.4163281"><ele>578.0</ele><time>2026-04-18T08:58:58.693Z</time></trkpt><trkpt lat="43.5056946" lon="11.4164162"><ele>581.5</ele><time>2026-04-18T08:58:59.693Z</time></trkpt><trkpt lat="43.5057471" lon="11.4164747"><ele>585.0</ele><time>2026-04-18T08:59:00.693Z</time></trkpt><trkpt lat="43.5058114" lon="11.4164754"><ele>588.5</ele><time>2026-04-18T08:59:01.693Z</time></trkpt><trkpt lat="43.5058983" lon="11.4164573"><ele>592.0</ele><time>2026-04-18T08:59:02.694Z</time></trkpt><trkpt lat="43.5059755" lon="11.4164311"><ele>595.5</ele><time>2026-04-18T08:59:03.693Z</time></trkpt><trkpt lat="43.5060799" lon="11.4163919"><ele>599.0</ele><time>2026-04-18T08:59:04.693Z</time></trkpt><trkpt lat="43.506182" lon="11.4163347"><ele>598.8</ele><time>2026-04-18T08:59:05.693Z</time></trkpt><trkpt lat="43.506272" lon="11.4162815"><ele>598.5999999999999</ele><time>2026-04-18T08:59:06.693Z</time></trkpt><trkpt lat="43.5063412" lon="11.4162761"><ele>598.4</ele><time>2026-04-18T08:59:07.693Z</time></trkpt><trkpt lat="43.5064587" lon="11.4163796"><ele>598.1999999999999</ele><time>2026-04-18T08:59:09.694Z</time></trkpt><trkpt lat="43.5065065" lon="11.4164818"><ele>598.0</ele><time>2026-04-18T08:59:10.694Z</time></trkpt><trkpt lat="43.506543" lon="11.4165923"><ele>598.0</ele><time>2026-04-18T08:59:11.694Z</time></trkpt><trkpt lat="43.5065762" lon="11.4166841"><ele>598.0</ele><time>2026-04-18T08:59:12.693Z</time></trkpt><trkpt lat="43.5066139" lon="11.4167698"><ele>598.0</ele><time>2026-04-18T08:59:13.693Z</time></trkpt><trkpt lat="43.5067092" lon="11.4168756"><ele>598.0</ele><time>2026-04-18T08:59:15.693Z</time></trkpt><trkpt lat="43.506768" lon="11.4169239"><ele>598.0</ele><time>2026-04-18T08:59:16.693Z</time></trkpt><trkpt lat="43.5068063" lon="11.4169942"><ele>598.0</ele><time>2026-04-18T08:59:17.693Z</time></trkpt><trkpt lat="43.5068552" lon="11.4170621"><ele>598.0</ele><time>2026-04-18T08:59:28.693Z</time></trkpt><trkpt lat="43.5069368" lon="11.4170426"><ele>598.0</ele><time>2026-04-18T08:59:31.693Z</time></trkpt><trkpt lat="43.5069843" lon="11.4169441"><ele>598.0</ele><time>2026-04-18T08:59:33.693Z</time></trkpt><trkpt lat="43.5070324" lon="11.4168188"><ele>598.0</ele><time>2026-04-18T08:59:35.694Z</time></trkpt><trkpt lat="43.5070742" lon="11.4166791"><ele>598.0</ele><time>2026-04-18T08:59:37.693Z</time></trkpt><trkpt lat="43.5071141" lon="11.4165464"><ele>596.0</ele><time>2026-04-18T08:59:39.693Z</time></trkpt><trkpt lat="43.5071556" lon="11.4164357"><ele>594.0</ele><time>2026-04-18T08:59:41.694Z</time></trkpt><trkpt lat="43.5071504" lon="11.4163188"><ele>592.0</ele><time>2026-04-18T08:59:43.693Z</time></trkpt><trkpt lat="43.5071314" lon="11.416202"><ele>590.0</ele><time>2026-04-18T08:59:45.693Z</time></trkpt><trkpt lat="43.5070791" lon="11.4160938"><ele>588.0</ele><time>2026-04-18T08:59:47.693Z</time></trkpt><trkpt lat="43.5070098" lon="11.4160494"><ele>586.0</ele><time>2026-04-18T08:59:49.694Z</time></trkpt><trkpt lat="43.5069761" lon="11.4159681"><ele>584.8</ele><time>2026-04-18T08:59:51.693Z</time></trkpt><trkpt lat="43.5070452" lon="11.4158893"><ele>583.6</ele><time>2026-04-18T08:59:53.693Z</time></trkpt><trkpt lat="43.5071421" lon="11.415826"><ele>582.4</ele><time>2026-04-18T08:59:55.693Z</time></trkpt><trkpt lat="43.5072302" lon="11.415731"><ele>581.2</ele><time>2026-04-18T08:59:57.694Z</time></trkpt><trkpt lat="43.5073128" lon="11.4156659"><ele>580.0</ele><time>2026-04-18T08:59:59.693Z</time></trkpt><trkpt lat="43.5074297" lon="11.4156514"><ele>580.0</ele><time>2026-04-18T09:00:01.693Z</time></trkpt><trkpt lat="43.5075456" lon="11.4157003"><ele>580.0</ele><time>2026-04-18T09:00:03.693Z</time></trkpt><trkpt lat="43.5076328" lon="11.4157511"><ele>580.0</ele><time>2026-04-18T09:00:04.694Z</time></trkpt><trkpt lat="43.5077125" lon="11.4157986"><ele>580.0</ele><time>2026-04-18T09:00:05.694Z</time></trkpt><trkpt lat="43.5077979" lon="11.4158279"><ele>580.0</ele><time>2026-04-18T09:00:06.693Z</time></trkpt><trkpt lat="43.5078748" lon="11.4158334"><ele>577.8333333333334</ele><time>2026-04-18T09:00:07.694Z</time></trkpt><trkpt lat="43.5079484" lon="11.4158123"><ele>575.6666666666667</ele><time>2026-04-18T09:00:08.693Z</time></trkpt><trkpt lat="43.508017" lon="11.4157517"><ele>573.5</ele><time>2026-04-18T09:00:09.693Z</time></trkpt><trkpt lat="43.5080849" lon="11.4156765"><ele>571.3333333333334</ele><time>2026-04-18T09:00:10.693Z</time></trkpt><trkpt lat="43.5081509" lon="11.4156024"><ele>569.1666666666666</ele><time>2026-04-18T09:00:11.693Z</time></trkpt><trkpt lat="43.5082193" lon="11.4155443"><ele>567.0</ele><time>2026-04-18T09:00:12.693Z</time></trkpt><trkpt lat="43.5083257" lon="11.4154549"><ele>566.5</ele><time>2026-04-18T09:00:14.693Z</time></trkpt><trkpt lat="43.508381" lon="11.4154123"><ele>566.0</ele><time>2026-04-18T09:00:15.693Z</time></trkpt><trkpt lat="43.5084584" lon="11.4153656"><ele>565.5</ele><time>2026-04-18T09:00:17.693Z</time></trkpt><trkpt lat="43.5085198" lon="11.4153397"><ele>565.0</ele><time>2026-04-18T09:00:19.693Z</time></trkpt><trkpt lat="43.5085919" lon="11.4152919"><ele>564.5</ele><time>2026-04-18T09:00:21.693Z</time></trkpt><trkpt lat="43.5086524" lon="11.4152113"><ele>564.0</ele><time>2026-04-18T09:00:23.693Z</time></trkpt><trkpt lat="43.5086969" lon="11.4151213"><ele>564.0</ele><time>2026-04-18T09:00:25.693Z</time></trkpt><trkpt lat="43.5087248" lon="11.4150354"><ele>564.0</ele><time>2026-04-18T09:00:27.693Z</time></trkpt><trkpt lat="43.5087512" lon="11.4149147"><ele>564.0</ele><time>2026-04-18T09:00:29.694Z</time></trkpt><trkpt lat="43.5087496" lon="11.4147609"><ele>564.0</ele><time>2026-04-18T09:00:31.693Z</time></trkpt><trkpt lat="43.5087223" lon="11.4146384"><ele>564.0</ele><time>2026-04-18T09:00:33.693Z</time></trkpt><trkpt lat="43.5086708" lon="11.4145367"><ele>562.4285714285714</ele><time>2026-04-18T09:00:35.693Z</time></trkpt><trkpt lat="43.5086502" lon="11.4144455"><ele>560.8571428571429</ele><time>2026-04-18T09:00:37.694Z</time></trkpt><trkpt lat="43.5086461" lon="11.4143586"><ele>559.2857142857142</ele><time>2026-04-18T09:00:38.694Z</time></trkpt><trkpt lat="43.5086474" lon="11.4142468"><ele>557.7142857142858</ele><time>2026-04-18T09:00:40.694Z</time></trkpt><trkpt lat="43.5086488" lon="11.4141491"><ele>556.1428571428571</ele><time>2026-04-18T09:00:47.693Z</time></trkpt><trkpt lat="43.5087143" lon="11.4141619"><ele>554.5714285714286</ele><time>2026-04-18T09:00:49.693Z</time></trkpt><trkpt lat="43.5088008" lon="11.4141635"><ele>553.0</ele><time>2026-04-18T09:00:51.693Z</time></trkpt><trkpt lat="43.5089025" lon="11.4141084"><ele>552.1999999999999</ele><time>2026-04-18T09:00:53.693Z</time></trkpt><trkpt lat="43.5089613" lon="11.4140728"><ele>551.4</ele><time>2026-04-18T09:00:54.693Z</time></trkpt><trkpt lat="43.5090581" lon="11.4140507"><ele>550.5999999999999</ele><time>2026-04-18T09:00:56.693Z</time></trkpt><trkpt lat="43.5091604" lon="11.414069"><ele>549.8</ele><time>2026-04-18T09:00:58.693Z</time></trkpt><trkpt lat="43.5092564" lon="11.4141395"><ele>549.0</ele><time>2026-04-18T09:01:00.693Z</time></trkpt><trkpt lat="43.5093639" lon="11.4142064"><ele>549.0</ele><time>2026-04-18T09:01:02.693Z</time></trkpt><trkpt lat="43.5094806" lon="11.4142466"><ele>549.0</ele><time>2026-04-18T09:01:04.693Z</time></trkpt><trkpt lat="43.5095871" lon="11.4142616"><ele>549.0</ele><time>2026-04-18T09:01:06.693Z</time></trkpt><trkpt lat="43.5096793" lon="11.4142884"><ele>549.0</ele><time>2026-04-18T09:01:08.693Z</time></trkpt><trkpt lat="43.5097687" lon="11.4143543"><ele>549.0</ele><time>2026-04-18T09:01:10.693Z</time></trkpt><trkpt lat="43.5098522" lon="11.414431"><ele>544.2</ele><time>2026-04-18T09:01:12.693Z</time></trkpt><trkpt lat="43.5099507" lon="11.4144673"><ele>539.4</ele><time>2026-04-18T09:01:14.693Z</time></trkpt><trkpt lat="43.5100494" lon="11.4145002"><ele>534.6</ele><time>2026-04-18T09:01:16.693Z</time></trkpt><trkpt lat="43.5101397" lon="11.4145491"><ele>529.8</ele><time>2026-04-18T09:01:18.694Z</time></trkpt><trkpt lat="43.5102417" lon="11.4145845"><ele>525.0</ele><time>2026-04-18T09:01:20.693Z</time></trkpt><trkpt lat="43.5103189" lon="11.4145176"><ele>525.0</ele><time>2026-04-18T09:01:22.694Z</time></trkpt><trkpt lat="43.5103719" lon="11.4144071"><ele>525.0</ele><time>2026-04-18T09:01:24.694Z</time></trkpt><trkpt lat="43.5104446" lon="11.4142904"><ele>525.0</ele><time>2026-04-18T09:01:26.693Z</time></trkpt><trkpt lat="43.5105531" lon="11.4142177"><ele>525.0</ele><time>2026-04-18T09:01:28.693Z</time></trkpt><trkpt lat="43.51066" lon="11.414155"><ele>525.0</ele><time>2026-04-18T09:01:30.693Z</time></trkpt><trkpt lat="43.5107674" lon="11.4141244"><ele>520.4</ele><time>2026-04-18T09:01:32.693Z</time></trkpt><trkpt lat="43.5108656" lon="11.4140395"><ele>515.8</ele><time>2026-04-18T09:01:34.693Z</time></trkpt><trkpt lat="43.5109225" lon="11.413885"><ele>511.20000000000005</ele><time>2026-04-18T09:01:36.693Z</time></trkpt><trkpt lat="43.5109443" lon="11.4137713"><ele>506.6</ele><time>2026-04-18T09:01:37.693Z</time></trkpt><trkpt lat="43.5109666" lon="11.4136391"><ele>502.0</ele><time>2026-04-18T09:01:38.694Z</time></trkpt><trkpt lat="43.5109932" lon="11.4135236"><ele>501.99999999999994</ele><time>2026-04-18T09:01:39.693Z</time></trkpt><trkpt lat="43.5110187" lon="11.4134326"><ele>502.0</ele><time>2026-04-18T09:01:40.693Z</time></trkpt><trkpt lat="43.5110531" lon="11.4133389"><ele>501.99999999999994</ele><time>2026-04-18T09:01:41.693Z</time></trkpt><trkpt lat="43.5110994" lon="11.4132524"><ele>501.99999999999994</ele><time>2026-04-18T09:01:42.694Z</time></trkpt><trkpt lat="43.5111299" lon="11.4131597"><ele>502.0</ele><time>2026-04-18T09:01:43.693Z</time></trkpt><trkpt lat="43.5111471" lon="11.4130659"><ele>501.99999999999994</ele><time>2026-04-18T09:01:44.693Z</time></trkpt><trkpt lat="43.5111483" lon="11.41296"><ele>501.99999999999994</ele><time>2026-04-18T09:01:45.693Z</time></trkpt><trkpt lat="43.5111316" lon="11.4128543"><ele>501.42857142857133</ele><time>2026-04-18T09:01:46.693Z</time></trkpt><trkpt lat="43.5111041" lon="11.4127564"><ele>500.85714285714283</ele><time>2026-04-18T09:01:47.693Z</time></trkpt><trkpt lat="43.5110874" lon="11.4126514"><ele>500.2857142857142</ele><time>2026-04-18T09:01:48.693Z</time></trkpt><trkpt lat="43.5110601" lon="11.412559"><ele>499.71428571428567</ele><time>2026-04-18T09:01:49.693Z</time></trkpt><trkpt lat="43.511026" lon="11.4124709"><ele>499.1428571428571</ele><time>2026-04-18T09:01:50.694Z</time></trkpt><trkpt lat="43.5110004" lon="11.4123846"><ele>498.57142857142856</ele><time>2026-04-18T09:01:51.694Z</time></trkpt><trkpt lat="43.5109839" lon="11.4122959"><ele>498.0</ele><time>2026-04-18T09:01:52.693Z</time></trkpt><trkpt lat="43.5109596" lon="11.4121212"><ele>496.8333333333333</ele><time>2026-04-18T09:01:54.694Z</time></trkpt><trkpt lat="43.5109495" lon="11.4120309"><ele>495.66666666666663</ele><time>2026-04-18T09:01:55.694Z</time></trkpt><trkpt lat="43.5109354" lon="11.4119258"><ele>494.5</ele><time>2026-04-18T09:01:56.693Z</time></trkpt><trkpt lat="43.5109164" lon="11.4118322"><ele>493.3333333333333</ele><time>2026-04-18T09:01:57.693Z</time></trkpt><trkpt lat="43.5108689" lon="11.4116735"><ele>492.16666666666663</ele><time>2026-04-18T09:01:59.693Z</time></trkpt><trkpt lat="43.5108372" lon="11.4115888"><ele>491.0</ele><time>2026-04-18T09:02:00.693Z</time></trkpt><trkpt lat="43.5108173" lon="11.4114391"><ele>490.99999999999994</ele><time>2026-04-18T09:02:02.693Z</time></trkpt><trkpt lat="43.5108321" lon="11.4113519"><ele>491.0</ele><time>2026-04-18T09:02:03.693Z</time></trkpt><trkpt lat="43.5108637" lon="11.4112763"><ele>491.0</ele><time>2026-04-18T09:02:04.694Z</time></trkpt><trkpt lat="43.5108908" lon="11.4111581"><ele>491.0</ele><time>2026-04-18T09:02:06.693Z</time></trkpt><trkpt lat="43.5109012" lon="11.4110405"><ele>490.99999999999994</ele><time>2026-04-18T09:02:08.693Z</time></trkpt><trkpt lat="43.5109168" lon="11.4109289"><ele>491.0</ele><time>2026-04-18T09:02:10.693Z</time></trkpt><trkpt lat="43.5109318" lon="11.410802"><ele>490.49999999999994</ele><time>2026-04-18T09:02:12.694Z</time></trkpt><trkpt lat="43.5109363" lon="11.4106426"><ele>490.0</ele><time>2026-04-18T09:02:14.694Z</time></trkpt><trkpt lat="43.5109396" lon="11.4105523"><ele>489.5</ele><time>2026-04-18T09:02:15.693Z</time></trkpt><trkpt lat="43.510942" lon="11.4104632"><ele>489.0</ele><time>2026-04-18T09:02:16.693Z</time></trkpt><trkpt lat="43.5109433" lon="11.4103751"><ele>488.49999999999994</ele><time>2026-04-18T09:02:17.693Z</time></trkpt><trkpt lat="43.5109741" lon="11.4102107"><ele>488.0</ele><time>2026-04-18T09:02:19.693Z</time></trkpt><trkpt lat="43.5109929" lon="11.4101184"><ele>487.59999999999997</ele><time>2026-04-18T09:02:20.694Z</time></trkpt><trkpt lat="43.511037" lon="11.4099732"><ele>487.19999999999993</ele><time>2026-04-18T09:02:22.693Z</time></trkpt><trkpt lat="43.5110795" lon="11.4098034"><ele>486.8</ele><time>2026-04-18T09:02:24.693Z</time></trkpt><trkpt lat="43.5110952" lon="11.4097086"><ele>486.4</ele><time>2026-04-18T09:02:25.694Z</time></trkpt><trkpt lat="43.511087" lon="11.4096054"><ele>486.0</ele><time>2026-04-18T09:02:26.693Z</time></trkpt><trkpt lat="43.5110788" lon="11.4094832"><ele>485.6</ele><time>2026-04-18T09:02:27.693Z</time></trkpt><trkpt lat="43.5110738" lon="11.4093724"><ele>485.20000000000005</ele><time>2026-04-18T09:02:28.694Z</time></trkpt><trkpt lat="43.5110828" lon="11.4092299"><ele>484.79999999999995</ele><time>2026-04-18T09:02:30.693Z</time></trkpt><trkpt lat="43.5111536" lon="11.4091607"><ele>484.4</ele><time>2026-04-18T09:02:32.694Z</time></trkpt><trkpt lat="43.5112411" lon="11.409143"><ele>484.0</ele><time>2026-04-18T09:02:34.693Z</time></trkpt><trkpt lat="43.511335" lon="11.409108"><ele>482.2</ele><time>2026-04-18T09:02:36.694Z</time></trkpt><trkpt lat="43.5114269" lon="11.4090469"><ele>480.4</ele><time>2026-04-18T09:02:38.693Z</time></trkpt><trkpt lat="43.5115018" lon="11.4089325"><ele>478.6</ele><time>2026-04-18T09:02:40.693Z</time></trkpt><trkpt lat="43.5114882" lon="11.4087608"><ele>476.8</ele><time>2026-04-18T09:02:42.694Z</time></trkpt><trkpt lat="43.5114689" lon="11.4086468"><ele>475.0</ele><time>2026-04-18T09:02:43.693Z</time></trkpt><trkpt lat="43.5114526" lon="11.4085232"><ele>475.0</ele><time>2026-04-18T09:02:44.694Z</time></trkpt><trkpt lat="43.5114187" lon="11.4084045"><ele>475.0</ele><time>2026-04-18T09:02:45.693Z</time></trkpt><trkpt lat="43.5113861" lon="11.4082677"><ele>475.0</ele><time>2026-04-18T09:02:46.693Z</time></trkpt><trkpt lat="43.5113537" lon="11.4081229"><ele>475.0</ele><time>2026-04-18T09:02:47.693Z</time></trkpt><trkpt lat="43.5113108" lon="11.4079855"><ele>475.0</ele><time>2026-04-18T09:02:48.693Z</time></trkpt><trkpt lat="43.5112796" lon="11.4078606"><ele>474.50000000000006</ele><time>2026-04-18T09:02:49.694Z</time></trkpt><trkpt lat="43.5112466" lon="11.4077516"><ele>474.0</ele><time>2026-04-18T09:02:50.693Z</time></trkpt><trkpt lat="43.5112275" lon="11.4076543"><ele>473.5</ele><time>2026-04-18T09:02:51.694Z</time></trkpt><trkpt lat="43.5112119" lon="11.4075652"><ele>473.0</ele><time>2026-04-18T09:02:52.693Z</time></trkpt><trkpt lat="43.5111984" lon="11.4074758"><ele>472.50000000000006</ele><time>2026-04-18T09:02:53.694Z</time></trkpt><trkpt lat="43.511194" lon="11.4073024"><ele>472.0</ele><time>2026-04-18T09:02:55.693Z</time></trkpt><trkpt lat="43.5111678" lon="11.4071939"><ele>471.40000000000003</ele><time>2026-04-18T09:02:56.693Z</time></trkpt><trkpt lat="43.5111269" lon="11.4070538"><ele>470.80000000000007</ele><time>2026-04-18T09:02:57.694Z</time></trkpt><trkpt lat="43.5110824" lon="11.406909"><ele>470.2</ele><time>2026-04-18T09:02:58.693Z</time></trkpt><trkpt lat="43.5110422" lon="11.4067863"><ele>469.6</ele><time>2026-04-18T09:02:59.694Z</time></trkpt><trkpt lat="43.5110064" lon="11.4066749"><ele>469.0</ele><time>2026-04-18T09:03:00.693Z</time></trkpt><trkpt lat="43.5109597" lon="11.406592"><ele>469.00000000000006</ele><time>2026-04-18T09:03:01.694Z</time></trkpt><trkpt lat="43.510907" lon="11.4065023"><ele>469.0</ele><time>2026-04-18T09:03:02.694Z</time></trkpt><trkpt lat="43.5108456" lon="11.4064223"><ele>469.0</ele><time>2026-04-18T09:03:03.694Z</time></trkpt><trkpt lat="43.5107915" lon="11.4063446"><ele>469.0</ele><time>2026-04-18T09:03:04.693Z</time></trkpt><trkpt lat="43.5107399" lon="11.4062691"><ele>469.00000000000006</ele><time>2026-04-18T09:03:05.693Z</time></trkpt><trkpt lat="43.5106885" lon="11.4061963"><ele>469.0</ele><time>2026-04-18T09:03:06.694Z</time></trkpt><trkpt lat="43.5106398" lon="11.406121"><ele>468.83333333333337</ele><time>2026-04-18T09:03:07.693Z</time></trkpt><trkpt lat="43.5106008" lon="11.4060274"><ele>468.6666666666667</ele><time>2026-04-18T09:03:08.693Z</time></trkpt><trkpt lat="43.5105724" lon="11.4059145"><ele>468.5</ele><time>2026-04-18T09:03:09.693Z</time></trkpt><trkpt lat="43.5105546" lon="11.4058191"><ele>468.33333333333337</ele><time>2026-04-18T09:03:10.693Z</time></trkpt><trkpt lat="43.5105345" lon="11.4057047"><ele>468.1666666666667</ele><time>2026-04-18T09:03:12.693Z</time></trkpt><trkpt lat="43.5105378" lon="11.4056157"><ele>468.0</ele><time>2026-04-18T09:03:14.693Z</time></trkpt><trkpt lat="43.5105527" lon="11.4054938"><ele>468.0</ele><time>2026-04-18T09:03:16.693Z</time></trkpt><trkpt lat="43.5105119" lon="11.4053812"><ele>468.0</ele><time>2026-04-18T09:03:18.693Z</time></trkpt><trkpt lat="43.5104459" lon="11.4053434"><ele>468.0</ele><time>2026-04-18T09:03:19.693Z</time></trkpt><trkpt lat="43.5103869" lon="11.4053085"><ele>468.0</ele><time>2026-04-18T09:03:20.693Z</time></trkpt><trkpt lat="43.5103009" lon="11.4051815"><ele>468.0</ele><time>2026-04-18T09:03:22.693Z</time></trkpt><trkpt lat="43.5102756" lon="11.4050801"><ele>468.0</ele><time>2026-04-18T09:03:23.694Z</time></trkpt><trkpt lat="43.5102556" lon="11.4049668"><ele>468.0</ele><time>2026-04-18T09:03:24.693Z</time></trkpt><trkpt lat="43.5102302" lon="11.404849"><ele>467.99999999999994</ele><time>2026-04-18T09:03:25.693Z</time></trkpt><trkpt lat="43.5102138" lon="11.4047207"><ele>467.99999999999994</ele><time>2026-04-18T09:03:26.693Z</time></trkpt><trkpt lat="43.5101917" lon="11.4045942"><ele>468.0</ele><time>2026-04-18T09:03:27.694Z</time></trkpt><trkpt lat="43.5101635" lon="11.4044623"><ele>468.0</ele><time>2026-04-18T09:03:28.693Z</time></trkpt><trkpt lat="43.5101333" lon="11.404338"><ele>467.1666666666667</ele><time>2026-04-18T09:03:29.693Z</time></trkpt><trkpt lat="43.5100998" lon="11.4042181"><ele>466.33333333333337</ele><time>2026-04-18T09:03:30.692Z</time></trkpt><trkpt lat="43.5100607" lon="11.404091"><ele>465.5</ele><time>2026-04-18T09:03:31.693Z</time></trkpt><trkpt lat="43.5100306" lon="11.4039713"><ele>464.6666666666667</ele><time>2026-04-18T09:03:32.693Z</time></trkpt><trkpt lat="43.5099965" lon="11.4038658"><ele>463.83333333333337</ele><time>2026-04-18T09:03:33.693Z</time></trkpt><trkpt lat="43.5099701" lon="11.4037634"><ele>463.0</ele><time>2026-04-18T09:03:34.694Z</time></trkpt><trkpt lat="43.509944" lon="11.4036647"><ele>462.6666666666667</ele><time>2026-04-18T09:03:35.693Z</time></trkpt><trkpt lat="43.5099288" lon="11.4035688"><ele>462.33333333333337</ele><time>2026-04-18T09:03:36.694Z</time></trkpt><trkpt lat="43.5099138" lon="11.4034775"><ele>462.0</ele><time>2026-04-18T09:03:37.692Z</time></trkpt><trkpt lat="43.5098814" lon="11.4033426"><ele>461.66666666666663</ele><time>2026-04-18T09:03:39.693Z</time></trkpt><trkpt lat="43.5098305" lon="11.4032797"><ele>461.3333333333333</ele><time>2026-04-18T09:03:41.693Z</time></trkpt><trkpt lat="43.5097472" lon="11.4031732"><ele>461.0</ele><time>2026-04-18T09:03:43.692Z</time></trkpt><trkpt lat="43.5097002" lon="11.4030468"><ele>461.8333333333333</ele><time>2026-04-18T09:03:45.692Z</time></trkpt><trkpt lat="43.5097691" lon="11.4029016"><ele>462.66666666666663</ele><time>2026-04-18T09:03:48.692Z</time></trkpt><trkpt lat="43.5098193" lon="11.4028428"><ele>463.5</ele><time>2026-04-18T09:03:49.692Z</time></trkpt><trkpt lat="43.5098932" lon="11.4027971"><ele>464.33333333333337</ele><time>2026-04-18T09:03:50.693Z</time></trkpt><trkpt lat="43.5099767" lon="11.4027667"><ele>465.1666666666667</ele><time>2026-04-18T09:03:51.692Z</time></trkpt><trkpt lat="43.5100655" lon="11.4027564"><ele>466.0</ele><time>2026-04-18T09:03:52.693Z</time></trkpt><trkpt lat="43.5101585" lon="11.4027604"><ele>466.0</ele><time>2026-04-18T09:03:53.692Z</time></trkpt><trkpt lat="43.5102654" lon="11.4027738"><ele>466.0</ele><time>2026-04-18T09:03:54.692Z</time></trkpt><trkpt lat="43.5103716" lon="11.4027909"><ele>466.0</ele><time>2026-04-18T09:03:55.692Z</time></trkpt><trkpt lat="43.5104814" lon="11.4027947"><ele>466.0</ele><time>2026-04-18T09:03:56.692Z</time></trkpt><trkpt lat="43.5105914" lon="11.4027935"><ele>466.0</ele><time>2026-04-18T09:03:57.692Z</time></trkpt><trkpt lat="43.5106992" lon="11.402769"><ele>465.20000000000005</ele><time>2026-04-18T09:03:58.692Z</time></trkpt><trkpt lat="43.5108105" lon="11.4027391"><ele>464.40000000000003</ele><time>2026-04-18T09:03:59.692Z</time></trkpt><trkpt lat="43.5109092" lon="11.4027127"><ele>463.6</ele><time>2026-04-18T09:04:00.692Z</time></trkpt><trkpt lat="43.5110102" lon="11.4026802"><ele>462.8</ele><time>2026-04-18T09:04:01.693Z</time></trkpt><trkpt lat="43.5110998" lon="11.4026335"><ele>462.0</ele><time>2026-04-18T09:04:02.693Z</time></trkpt><trkpt lat="43.511181" lon="11.4025722"><ele>461.8333333333333</ele><time>2026-04-18T09:04:03.693Z</time></trkpt><trkpt lat="43.5112475" lon="11.4024899"><ele>461.66666666666663</ele><time>2026-04-18T09:04:04.693Z</time></trkpt><trkpt lat="43.5113013" lon="11.4024004"><ele>461.5</ele><time>2026-04-18T09:04:05.692Z</time></trkpt><trkpt lat="43.5113608" lon="11.4023384"><ele>461.3333333333333</ele><time>2026-04-18T09:04:06.692Z</time></trkpt><trkpt lat="43.5114367" lon="11.4023088"><ele>461.16666666666663</ele><time>2026-04-18T09:04:07.693Z</time></trkpt><trkpt lat="43.5115211" lon="11.4022964"><ele>461.0</ele><time>2026-04-18T09:04:08.693Z</time></trkpt><trkpt lat="43.5116153" lon="11.4023151"><ele>461.0</ele><time>2026-04-18T09:04:09.693Z</time></trkpt><trkpt lat="43.5117205" lon="11.4023087"><ele>461.0</ele><time>2026-04-18T09:04:10.692Z</time></trkpt><trkpt lat="43.5118169" lon="11.4022866"><ele>461.0</ele><time>2026-04-18T09:04:11.692Z</time></trkpt><trkpt lat="43.511892" lon="11.4022507"><ele>461.0</ele><time>2026-04-18T09:04:12.692Z</time></trkpt><trkpt lat="43.5119717" lon="11.4021812"><ele>461.0</ele><time>2026-04-18T09:04:13.693Z</time></trkpt><trkpt lat="43.5120194" lon="11.4020967"><ele>461.8</ele><time>2026-04-18T09:04:14.692Z</time></trkpt><trkpt lat="43.5120746" lon="11.4019909"><ele>462.6</ele><time>2026-04-18T09:04:15.692Z</time></trkpt><trkpt lat="43.5121252" lon="11.401887"><ele>463.4</ele><time>2026-04-18T09:04:16.692Z</time></trkpt><trkpt lat="43.5122064" lon="11.4018171"><ele>464.2</ele><time>2026-04-18T09:04:17.692Z</time></trkpt><trkpt lat="43.5123121" lon="11.4017471"><ele>465.0</ele><time>2026-04-18T09:04:18.692Z</time></trkpt><trkpt lat="43.5124106" lon="11.4016863"><ele>465.0</ele><time>2026-04-18T09:04:19.692Z</time></trkpt><trkpt lat="43.5125075" lon="11.4016221"><ele>465.0</ele><time>2026-04-18T09:04:20.692Z</time></trkpt><trkpt lat="43.5125938" lon="11.4015555"><ele>465.0</ele><time>2026-04-18T09:04:21.692Z</time></trkpt><trkpt lat="43.5126687" lon="11.4014666"><ele>465.0</ele><time>2026-04-18T09:04:22.692Z</time></trkpt><trkpt lat="43.5127391" lon="11.4013566"><ele>465.0</ele><time>2026-04-18T09:04:23.692Z</time></trkpt><trkpt lat="43.5128205" lon="11.4012244"><ele>465.6</ele><time>2026-04-18T09:04:24.693Z</time></trkpt><trkpt lat="43.5129047" lon="11.4010961"><ele>466.2</ele><time>2026-04-18T09:04:25.692Z</time></trkpt><trkpt lat="43.5129832" lon="11.4009876"><ele>466.79999999999995</ele><time>2026-04-18T09:04:26.692Z</time></trkpt><trkpt lat="43.513069" lon="11.4009188"><ele>467.4</ele><time>2026-04-18T09:04:27.692Z</time></trkpt><trkpt lat="43.5131508" lon="11.4008519"><ele>468.0</ele><time>2026-04-18T09:04:28.693Z</time></trkpt><trkpt lat="43.5132262" lon="11.4008035"><ele>468.5</ele><time>2026-04-18T09:04:29.693Z</time></trkpt><trkpt lat="43.5132913" lon="11.4007525"><ele>469.0</ele><time>2026-04-18T09:04:30.692Z</time></trkpt><trkpt lat="43.513339" lon="11.400654"><ele>469.5</ele><time>2026-04-18T09:04:31.693Z</time></trkpt><trkpt lat="43.5133429" lon="11.4005334"><ele>470.0</ele><time>2026-04-18T09:04:32.692Z</time></trkpt><trkpt lat="43.5133391" lon="11.400408"><ele>470.5</ele><time>2026-04-18T09:04:33.692Z</time></trkpt><trkpt lat="43.5133481" lon="11.4002765"><ele>471.0</ele><time>2026-04-18T09:04:34.692Z</time></trkpt><trkpt lat="43.5133904" lon="11.4001632"><ele>471.0</ele><time>2026-04-18T09:04:35.692Z</time></trkpt><trkpt lat="43.513436" lon="11.4000514"><ele>471.0</ele><time>2026-04-18T09:04:36.692Z</time></trkpt><trkpt lat="43.5134954" lon="11.3999279"><ele>471.0</ele><time>2026-04-18T09:04:37.693Z</time></trkpt><trkpt lat="43.5135541" lon="11.3998176"><ele>471.0</ele><time>2026-04-18T09:04:38.692Z</time></trkpt><trkpt lat="43.513618" lon="11.3997081"><ele>471.0</ele><time>2026-04-18T09:04:39.692Z</time></trkpt><trkpt lat="43.5136814" lon="11.3996039"><ele>476.6</ele><time>2026-04-18T09:04:40.692Z</time></trkpt><trkpt lat="43.5137546" lon="11.3995083"><ele>482.20000000000005</ele><time>2026-04-18T09:04:41.692Z</time></trkpt><trkpt lat="43.5138223" lon="11.3994089"><ele>487.79999999999995</ele><time>2026-04-18T09:04:42.692Z</time></trkpt><trkpt lat="43.5138833" lon="11.399303"><ele>493.4</ele><time>2026-04-18T09:04:43.693Z</time></trkpt><trkpt lat="43.513927" lon="11.3992011"><ele>499.0</ele><time>2026-04-18T09:04:44.693Z</time></trkpt><trkpt lat="43.5139647" lon="11.399105"><ele>499.0</ele><time>2026-04-18T09:04:45.692Z</time></trkpt><trkpt lat="43.514" lon="11.3989814"><ele>499.0</ele><time>2026-04-18T09:04:46.692Z</time></trkpt><trkpt lat="43.5140345" lon="11.3988477"><ele>499.0</ele><time>2026-04-18T09:04:47.692Z</time></trkpt><trkpt lat="43.514067" lon="11.3987178"><ele>499.0</ele><time>2026-04-18T09:04:48.693Z</time></trkpt><trkpt lat="43.514103" lon="11.3985888"><ele>499.0</ele><time>2026-04-18T09:04:49.693Z</time></trkpt><trkpt lat="43.5141322" lon="11.3984661"><ele>497.00000000000006</ele><time>2026-04-18T09:04:50.692Z</time></trkpt><trkpt lat="43.5141612" lon="11.3983412"><ele>495.0</ele><time>2026-04-18T09:04:51.692Z</time></trkpt><trkpt lat="43.5141943" lon="11.3982251"><ele>493.0</ele><time>2026-04-18T09:04:52.692Z</time></trkpt><trkpt lat="43.5142255" lon="11.3981195"><ele>491.0</ele><time>2026-04-18T09:04:53.693Z</time></trkpt><trkpt lat="43.5142572" lon="11.39801"><ele>489.00000000000006</ele><time>2026-04-18T09:04:54.693Z</time></trkpt><trkpt lat="43.5142974" lon="11.3979121"><ele>487.0</ele><time>2026-04-18T09:04:55.692Z</time></trkpt><trkpt lat="43.5143537" lon="11.3978092"><ele>484.25</ele><time>2026-04-18T09:04:56.692Z</time></trkpt><trkpt lat="43.5144243" lon="11.397703"><ele>481.5</ele><time>2026-04-18T09:04:57.692Z</time></trkpt><trkpt lat="43.5145091" lon="11.3975896"><ele>478.75</ele><time>2026-04-18T09:04:58.693Z</time></trkpt><trkpt lat="43.5145989" lon="11.3974719"><ele>476.0</ele><time>2026-04-18T09:04:59.692Z</time></trkpt><trkpt lat="43.5146735" lon="11.3973544"><ele>479.20000000000005</ele><time>2026-04-18T09:05:00.692Z</time></trkpt><trkpt lat="43.5147513" lon="11.3972582"><ele>482.40000000000003</ele><time>2026-04-18T09:05:01.692Z</time></trkpt><trkpt lat="43.5148258" lon="11.3971642"><ele>485.6</ele><time>2026-04-18T09:05:02.692Z</time></trkpt><trkpt lat="43.5149146" lon="11.3970698"><ele>488.8</ele><time>2026-04-18T09:05:03.693Z</time></trkpt><trkpt lat="43.5149969" lon="11.3969797"><ele>492.0</ele><time>2026-04-18T09:05:04.693Z</time></trkpt><trkpt lat="43.5150701" lon="11.3969017"><ele>492.0</ele><time>2026-04-18T09:05:05.692Z</time></trkpt><trkpt lat="43.5151469" lon="11.3968377"><ele>492.00000000000006</ele><time>2026-04-18T09:05:06.692Z</time></trkpt><trkpt lat="43.5152297" lon="11.3967803"><ele>492.00000000000006</ele><time>2026-04-18T09:05:07.693Z</time></trkpt><trkpt lat="43.5153253" lon="11.3967359"><ele>492.0</ele><time>2026-04-18T09:05:08.692Z</time></trkpt><trkpt lat="43.5154217" lon="11.3966886"><ele>492.0</ele><time>2026-04-18T09:05:09.693Z</time></trkpt><trkpt lat="43.5155189" lon="11.3966215"><ele>492.8</ele><time>2026-04-18T09:05:10.692Z</time></trkpt><trkpt lat="43.5156092" lon="11.396555"><ele>493.6</ele><time>2026-04-18T09:05:11.692Z</time></trkpt><trkpt lat="43.5156937" lon="11.3965063"><ele>494.40000000000003</ele><time>2026-04-18T09:05:12.692Z</time></trkpt><trkpt lat="43.5157789" lon="11.3964533"><ele>495.20000000000005</ele><time>2026-04-18T09:05:13.692Z</time></trkpt><trkpt lat="43.5158473" lon="11.3963937"><ele>496.0</ele><time>2026-04-18T09:05:14.692Z</time></trkpt><trkpt lat="43.5159009" lon="11.3963086"><ele>496.0</ele><time>2026-04-18T09:05:15.692Z</time></trkpt><trkpt lat="43.5159458" lon="11.3962386"><ele>496.0</ele><time>2026-04-18T09:05:16.692Z</time></trkpt><trkpt lat="43.5160507" lon="11.3961478"><ele>496.0</ele><time>2026-04-18T09:05:18.692Z</time></trkpt><trkpt lat="43.5161285" lon="11.396127"><ele>496.0</ele><time>2026-04-18T09:05:19.692Z</time></trkpt><trkpt lat="43.5162251" lon="11.3961026"><ele>496.0</ele><time>2026-04-18T09:05:21.692Z</time></trkpt><trkpt lat="43.5163125" lon="11.3960665"><ele>497.6</ele><time>2026-04-18T09:05:23.693Z</time></trkpt><trkpt lat="43.5163984" lon="11.3960365"><ele>499.20000000000005</ele><time>2026-04-18T09:05:42.692Z</time></trkpt><trkpt lat="43.5165318" lon="11.3960265"><ele>500.79999999999995</ele><time>2026-04-18T09:05:44.692Z</time></trkpt><trkpt lat="43.5166171" lon="11.396016"><ele>502.4</ele><time>2026-04-18T09:05:45.692Z</time></trkpt><trkpt lat="43.5167039" lon="11.3960283"><ele>504.0</ele><time>2026-04-18T09:05:46.692Z</time></trkpt><trkpt lat="43.5167929" lon="11.3960384"><ele>504.0</ele><time>2026-04-18T09:05:47.692Z</time></trkpt><trkpt lat="43.516868" lon="11.3960289"><ele>504.0</ele><time>2026-04-18T09:05:48.692Z</time></trkpt><trkpt lat="43.5169527" lon="11.3960215"><ele>504.0</ele><time>2026-04-18T09:05:49.693Z</time></trkpt><trkpt lat="43.5170296" lon="11.3959831"><ele>504.0</ele><time>2026-04-18T09:05:50.692Z</time></trkpt><trkpt lat="43.5171051" lon="11.3959217"><ele>504.0</ele><time>2026-04-18T09:05:51.692Z</time></trkpt><trkpt lat="43.5171842" lon="11.3958508"><ele>504.0</ele><time>2026-04-18T09:05:52.692Z</time></trkpt><trkpt lat="43.5172813" lon="11.395778"><ele>506.6</ele><time>2026-04-18T09:05:53.693Z</time></trkpt><trkpt lat="43.517391" lon="11.395716"><ele>509.2</ele><time>2026-04-18T09:05:54.692Z</time></trkpt><trkpt lat="43.5174958" lon="11.3956816"><ele>511.80000000000007</ele><time>2026-04-18T09:05:55.692Z</time></trkpt><trkpt lat="43.5176003" lon="11.3956567"><ele>514.4</ele><time>2026-04-18T09:05:56.692Z</time></trkpt><trkpt lat="43.5177002" lon="11.395631"><ele>517.0</ele><time>2026-04-18T09:05:57.692Z</time></trkpt><trkpt lat="43.517802" lon="11.3956189"><ele>517.0</ele><time>2026-04-18T09:05:58.693Z</time></trkpt><trkpt lat="43.5178886" lon="11.3956111"><ele>517.0</ele><time>2026-04-18T09:05:59.693Z</time></trkpt><trkpt lat="43.517955" lon="11.3956071"><ele>517.0</ele><time>2026-04-18T09:06:00.692Z</time></trkpt><trkpt lat="43.5180203" lon="11.3956362"><ele>517.0</ele><time>2026-04-18T09:06:01.692Z</time></trkpt><trkpt lat="43.5180926" lon="11.3956947"><ele>517.0</ele><time>2026-04-18T09:06:02.692Z</time></trkpt><trkpt lat="43.5181723" lon="11.3957579"><ele>517.0</ele><time>2026-04-18T09:06:03.692Z</time></trkpt><trkpt lat="43.5182428" lon="11.3958103"><ele>517.6666666666667</ele><time>2026-04-18T09:06:04.693Z</time></trkpt><trkpt lat="43.5183252" lon="11.3958524"><ele>518.3333333333334</ele><time>2026-04-18T09:06:05.693Z</time></trkpt><trkpt lat="43.5183874" lon="11.3958884"><ele>519.0</ele><time>2026-04-18T09:06:06.692Z</time></trkpt><trkpt lat="43.518481" lon="11.3959247"><ele>519.6666666666666</ele><time>2026-04-18T09:06:08.692Z</time></trkpt><trkpt lat="43.5185377" lon="11.3958852"><ele>520.3333333333333</ele><time>2026-04-18T09:06:09.692Z</time></trkpt><trkpt lat="43.5185912" lon="11.3958212"><ele>521.0</ele><time>2026-04-18T09:06:10.692Z</time></trkpt><trkpt lat="43.5186912" lon="11.3957956"><ele>521.5</ele><time>2026-04-18T09:06:12.692Z</time></trkpt><trkpt lat="43.5187568" lon="11.395812"><ele>522.0</ele><time>2026-04-18T09:06:13.693Z</time></trkpt><trkpt lat="43.5188204" lon="11.3958325"><ele>522.5</ele><time>2026-04-18T09:06:14.692Z</time></trkpt><trkpt lat="43.5188924" lon="11.3958469"><ele>523.0</ele><time>2026-04-18T09:06:15.692Z</time></trkpt><trkpt lat="43.5189926" lon="11.3958501"><ele>523.5</ele><time>2026-04-18T09:06:17.692Z</time></trkpt><trkpt lat="43.5191045" lon="11.3958629"><ele>524.0</ele><time>2026-04-18T09:06:19.693Z</time></trkpt><trkpt lat="43.5192001" lon="11.3959087"><ele>524.0</ele><time>2026-04-18T09:06:21.692Z</time></trkpt><trkpt lat="43.5193021" lon="11.395913"><ele>524.0</ele><time>2026-04-18T09:06:23.693Z</time></trkpt><trkpt lat="43.5194361" lon="11.3959156"><ele>524.0</ele><time>2026-04-18T09:06:25.692Z</time></trkpt><trkpt lat="43.5195214" lon="11.3959278"><ele>524.0</ele><time>2026-04-18T09:06:26.692Z</time></trkpt><trkpt lat="43.5195932" lon="11.3959458"><ele>524.0</ele><time>2026-04-18T09:06:27.693Z</time></trkpt><trkpt lat="43.5196625" lon="11.3959672"><ele>523.8333333333333</ele><time>2026-04-18T09:06:28.692Z</time></trkpt><trkpt lat="43.5197392" lon="11.3959833"><ele>523.6666666666666</ele><time>2026-04-18T09:06:29.692Z</time></trkpt><trkpt lat="43.5198146" lon="11.3960003"><ele>523.5</ele><time>2026-04-18T09:06:30.692Z</time></trkpt><trkpt lat="43.5198953" lon="11.3960138"><ele>523.3333333333334</ele><time>2026-04-18T09:06:31.692Z</time></trkpt><trkpt lat="43.5199748" lon="11.3960392"><ele>523.1666666666667</ele><time>2026-04-18T09:06:32.692Z</time></trkpt><trkpt lat="43.5200338" lon="11.3960835"><ele>523.0</ele><time>2026-04-18T09:06:33.692Z</time></trkpt><trkpt lat="43.5200935" lon="11.3961313"><ele>523.0</ele><time>2026-04-18T09:06:34.692Z</time></trkpt><trkpt lat="43.520143" lon="11.3961874"><ele>523.0</ele><time>2026-04-18T09:06:35.693Z</time></trkpt><trkpt lat="43.5202247" lon="11.3962504"><ele>523.0</ele><time>2026-04-18T09:06:36.692Z</time></trkpt><trkpt lat="43.5202951" lon="11.3963136"><ele>523.0</ele><time>2026-04-18T09:06:37.693Z</time></trkpt><trkpt lat="43.5203609" lon="11.3963634"><ele>523.0</ele><time>2026-04-18T09:06:38.692Z</time></trkpt><trkpt lat="43.5204383" lon="11.3964023"><ele>523.0</ele><time>2026-04-18T09:06:39.692Z</time></trkpt><trkpt lat="43.5205175" lon="11.3964338"><ele>527.6666666666667</ele><time>2026-04-18T09:06:40.692Z</time></trkpt><trkpt lat="43.5206063" lon="11.3964581"><ele>532.3333333333334</ele><time>2026-04-18T09:06:41.692Z</time></trkpt><trkpt lat="43.5206936" lon="11.3964782"><ele>537.0</ele><time>2026-04-18T09:06:42.692Z</time></trkpt><trkpt lat="43.5207961" lon="11.3964838"><ele>541.6666666666666</ele><time>2026-04-18T09:06:43.692Z</time></trkpt><trkpt lat="43.5208865" lon="11.3964883"><ele>546.3333333333333</ele><time>2026-04-18T09:06:44.692Z</time></trkpt><trkpt lat="43.5209626" lon="11.3965052"><ele>551.0</ele><time>2026-04-18T09:06:45.692Z</time></trkpt><trkpt lat="43.5210327" lon="11.3965308"><ele>551.0</ele><time>2026-04-18T09:06:46.693Z</time></trkpt><trkpt lat="43.5211032" lon="11.3965418"><ele>551.0</ele><time>2026-04-18T09:06:47.693Z</time></trkpt><trkpt lat="43.5211767" lon="11.3965514"><ele>551.0</ele><time>2026-04-18T09:06:48.693Z</time></trkpt><trkpt lat="43.5212573" lon="11.3965674"><ele>551.0</ele><time>2026-04-18T09:06:49.692Z</time></trkpt><trkpt lat="43.5213339" lon="11.3965807"><ele>551.0</ele><time>2026-04-18T09:06:50.692Z</time></trkpt><trkpt lat="43.5214016" lon="11.3965862"><ele>551.0</ele><time>2026-04-18T09:06:51.692Z</time></trkpt><trkpt lat="43.5215346" lon="11.3965633"><ele>550.8333333333333</ele><time>2026-04-18T09:06:53.692Z</time></trkpt><trkpt lat="43.5216062" lon="11.3965517"><ele>550.6666666666666</ele><time>2026-04-18T09:06:54.692Z</time></trkpt><trkpt lat="43.5216949" lon="11.3965315"><ele>550.5</ele><time>2026-04-18T09:06:55.693Z</time></trkpt><trkpt lat="43.5217667" lon="11.3965393"><ele>550.3333333333334</ele><time>2026-04-18T09:06:56.692Z</time></trkpt><trkpt lat="43.5218445" lon="11.3965659"><ele>550.1666666666667</ele><time>2026-04-18T09:06:57.692Z</time></trkpt><trkpt lat="43.5219147" lon="11.3966105"><ele>550.0</ele><time>2026-04-18T09:06:58.693Z</time></trkpt><trkpt lat="43.5220177" lon="11.3966503"><ele>549.3333333333334</ele><time>2026-04-18T09:07:00.692Z</time></trkpt><trkpt lat="43.5221239" lon="11.3967027"><ele>548.6666666666667</ele><time>2026-04-18T09:07:02.692Z</time></trkpt><trkpt lat="43.5221877" lon="11.3967291"><ele>548.0</ele><time>2026-04-18T09:07:03.693Z</time></trkpt><trkpt lat="43.5223042" lon="11.3967856"><ele>547.3333333333334</ele><time>2026-04-18T09:07:05.693Z</time></trkpt><trkpt lat="43.5223685" lon="11.3967811"><ele>546.6666666666666</ele><time>2026-04-18T09:07:06.692Z</time></trkpt><trkpt lat="43.5224357" lon="11.3967571"><ele>546.0</ele><time>2026-04-18T09:07:07.692Z</time></trkpt><trkpt lat="43.522506" lon="11.3967284"><ele>546.0</ele><time>2026-04-18T09:07:08.692Z</time></trkpt><trkpt lat="43.5225739" lon="11.3967102"><ele>546.0</ele><time>2026-04-18T09:07:09.693Z</time></trkpt><trkpt lat="43.5226572" lon="11.3967119"><ele>546.0</ele><time>2026-04-18T09:07:10.692Z</time></trkpt><trkpt lat="43.5227649" lon="11.3967162"><ele>546.0</ele><time>2026-04-18T09:07:12.692Z</time></trkpt><trkpt lat="43.522852" lon="11.3967175"><ele>546.0</ele><time>2026-04-18T09:07:14.692Z</time></trkpt><trkpt lat="43.5229591" lon="11.3968039"><ele>544.8333333333334</ele><time>2026-04-18T09:07:16.692Z</time></trkpt><trkpt lat="43.5230048" lon="11.3968875"><ele>543.6666666666666</ele><time>2026-04-18T09:07:17.692Z</time></trkpt><trkpt lat="43.5230634" lon="11.3969664"><ele>542.5</ele><time>2026-04-18T09:07:18.692Z</time></trkpt><trkpt lat="43.5231225" lon="11.397049"><ele>541.3333333333333</ele><time>2026-04-18T09:07:19.692Z</time></trkpt><trkpt lat="43.5231667" lon="11.397127"><ele>540.1666666666666</ele><time>2026-04-18T09:07:20.692Z</time></trkpt><trkpt lat="43.5232389" lon="11.3971672"><ele>539.0</ele><time>2026-04-18T09:07:22.693Z</time></trkpt><trkpt lat="43.5233115" lon="11.3970586"><ele>539.0</ele><time>2026-04-18T09:07:24.692Z</time></trkpt><trkpt lat="43.5233199" lon="11.3969143"><ele>539.0</ele><time>2026-04-18T09:07:26.692Z</time></trkpt><trkpt lat="43.523337" lon="11.3967643"><ele>539.0</ele><time>2026-04-18T09:07:28.692Z</time></trkpt><trkpt lat="43.5233827" lon="11.3966251"><ele>539.0</ele><time>2026-04-18T09:07:30.692Z</time></trkpt><trkpt lat="43.523426" lon="11.3964943"><ele>539.0</ele><time>2026-04-18T09:07:32.693Z</time></trkpt><trkpt lat="43.5234548" lon="11.396358"><ele>537.8333333333333</ele><time>2026-04-18T09:07:34.693Z</time></trkpt><trkpt lat="43.523492" lon="11.3962061"><ele>536.6666666666666</ele><time>2026-04-18T09:07:36.692Z</time></trkpt><trkpt lat="43.5235164" lon="11.3961257"><ele>535.5</ele><time>2026-04-18T09:07:37.692Z</time></trkpt><trkpt lat="43.523547" lon="11.396047"><ele>534.3333333333334</ele><time>2026-04-18T09:07:38.692Z</time></trkpt><trkpt lat="43.5235923" lon="11.3959847"><ele>533.1666666666667</ele><time>2026-04-18T09:07:39.693Z</time></trkpt><trkpt lat="43.5236846" lon="11.3959345"><ele>532.0</ele><time>2026-04-18T09:07:41.692Z</time></trkpt><trkpt lat="43.5237501" lon="11.3958978"><ele>532.0</ele><time>2026-04-18T09:07:43.692Z</time></trkpt><trkpt lat="43.5238215" lon="11.3959128"><ele>532.0</ele><time>2026-04-18T09:09:38.692Z</time></trkpt><trkpt lat="43.5238793" lon="11.3958412"><ele>532.0</ele><time>2026-04-18T09:09:39.688Z</time></trkpt><trkpt lat="43.5239375" lon="11.3957843"><ele>532.0</ele><time>2026-04-18T09:09:40.692Z</time></trkpt><trkpt lat="43.5240417" lon="11.3956792"><ele>532.0</ele><time>2026-04-18T09:09:42.692Z</time></trkpt><trkpt lat="43.524158" lon="11.3956165"><ele>532.0</ele><time>2026-04-18T09:09:44.693Z</time></trkpt><trkpt lat="43.5242192" lon="11.3955943"><ele>532.0</ele><time>2026-04-18T09:09:45.692Z</time></trkpt><trkpt lat="43.5242881" lon="11.3955849"><ele>532.0</ele><time>2026-04-18T09:09:46.693Z</time></trkpt><trkpt lat="43.5243549" lon="11.3955988"><ele>532.0</ele><time>2026-04-18T09:09:47.692Z</time></trkpt><trkpt lat="43.5244163" lon="11.3956256"><ele>532.0</ele><time>2026-04-18T09:09:48.693Z</time></trkpt><trkpt lat="43.5244851" lon="11.3956357"><ele>532.0</ele><time>2026-04-18T09:09:49.692Z</time></trkpt><trkpt lat="43.5246006" lon="11.3956779"><ele>529.2</ele><time>2026-04-18T09:09:51.692Z</time></trkpt><trkpt lat="43.5247189" lon="11.3957564"><ele>526.4000000000001</ele><time>2026-04-18T09:09:53.692Z</time></trkpt><trkpt lat="43.524782" lon="11.3958074"><ele>523.5999999999999</ele><time>2026-04-18T09:09:54.693Z</time></trkpt><trkpt lat="43.5248377" lon="11.3958577"><ele>520.8</ele><time>2026-04-18T09:09:55.693Z</time></trkpt><trkpt lat="43.5248876" lon="11.3959158"><ele>518.0</ele><time>2026-04-18T09:09:56.692Z</time></trkpt><trkpt lat="43.5249893" lon="11.3960104"><ele>518.0</ele><time>2026-04-18T09:09:58.693Z</time></trkpt><trkpt lat="43.525095" lon="11.3961062"><ele>518.0</ele><time>2026-04-18T09:10:00.692Z</time></trkpt><trkpt lat="43.5251886" lon="11.3962134"><ele>518.0</ele><time>2026-04-18T09:10:02.692Z</time></trkpt><trkpt lat="43.5252633" lon="11.3963451"><ele>518.0</ele><time>2026-04-18T09:10:04.693Z</time></trkpt><trkpt lat="43.5252966" lon="11.396423"><ele>518.0</ele><time>2026-04-18T09:10:05.693Z</time></trkpt><trkpt lat="43.525367" lon="11.3965717"><ele>517.1666666666666</ele><time>2026-04-18T09:10:07.692Z</time></trkpt><trkpt lat="43.5254025" lon="11.3966602"><ele>516.3333333333333</ele><time>2026-04-18T09:10:08.692Z</time></trkpt><trkpt lat="43.5254425" lon="11.3967586"><ele>515.5</ele><time>2026-04-18T09:10:09.692Z</time></trkpt><trkpt lat="43.5254719" lon="11.3968569"><ele>514.6666666666666</ele><time>2026-04-18T09:10:10.692Z</time></trkpt><trkpt lat="43.5255173" lon="11.3970296"><ele>513.8333333333334</ele><time>2026-04-18T09:10:12.692Z</time></trkpt><trkpt lat="43.5255389" lon="11.3971115"><ele>513.0</ele><time>2026-04-18T09:10:13.692Z</time></trkpt><trkpt lat="43.5255737" lon="11.3971882"><ele>513.0</ele><time>2026-04-18T09:10:14.692Z</time></trkpt><trkpt lat="43.5256347" lon="11.3972984"><ele>513.0</ele><time>2026-04-18T09:10:16.692Z</time></trkpt><trkpt lat="43.5256866" lon="11.3974318"><ele>513.0</ele><time>2026-04-18T09:10:18.692Z</time></trkpt><trkpt lat="43.5257336" lon="11.397599"><ele>513.0</ele><time>2026-04-18T09:10:20.692Z</time></trkpt><trkpt lat="43.5257636" lon="11.3976927"><ele>513.0</ele><time>2026-04-18T09:10:21.693Z</time></trkpt><trkpt lat="43.5258094" lon="11.3977813"><ele>513.0</ele><time>2026-04-18T09:10:22.692Z</time></trkpt><trkpt lat="43.5258541" lon="11.3978526"><ele>513.0</ele><time>2026-04-18T09:10:23.693Z</time></trkpt><trkpt lat="43.525928" lon="11.3980048"><ele>513.0</ele><time>2026-04-18T09:10:25.692Z</time></trkpt><trkpt lat="43.526015" lon="11.3980883"><ele>513.0</ele><time>2026-04-18T09:10:27.691Z</time></trkpt><trkpt lat="43.5260956" lon="11.3981019"><ele>513.0</ele><time>2026-04-18T09:10:29.692Z</time></trkpt><trkpt lat="43.5261978" lon="11.398127"><ele>511.59999999999997</ele><time>2026-04-18T09:10:31.692Z</time></trkpt><trkpt lat="43.5263146" lon="11.3981445"><ele>510.19999999999993</ele><time>2026-04-18T09:10:33.685Z</time></trkpt><trkpt lat="43.5264344" lon="11.3981067"><ele>508.8</ele><time>2026-04-18T09:10:35.692Z</time></trkpt><trkpt lat="43.5265258" lon="11.3981121"><ele>507.4</ele><time>2026-04-18T09:10:37.692Z</time></trkpt><trkpt lat="43.5266123" lon="11.398163"><ele>506.0</ele><time>2026-04-18T09:10:39.692Z</time></trkpt><trkpt lat="43.5267484" lon="11.3982422"><ele>505.99999999999994</ele><time>2026-04-18T09:10:41.693Z</time></trkpt><trkpt lat="43.5268127" lon="11.398293"><ele>506.0</ele><time>2026-04-18T09:10:42.693Z</time></trkpt><trkpt lat="43.5268769" lon="11.3983367"><ele>506.0</ele><time>2026-04-18T09:10:43.692Z</time></trkpt><trkpt lat="43.5269298" lon="11.3984058"><ele>506.0</ele><time>2026-04-18T09:10:44.692Z</time></trkpt><trkpt lat="43.5269855" lon="11.3984604"><ele>505.99999999999994</ele><time>2026-04-18T09:10:45.693Z</time></trkpt><trkpt lat="43.5270887" lon="11.3985654"><ele>506.0</ele><time>2026-04-18T09:10:47.692Z</time></trkpt><trkpt lat="43.5271526" lon="11.3986096"><ele>506.49999999999994</ele><time>2026-04-18T09:10:48.692Z</time></trkpt><trkpt lat="43.5272212" lon="11.3986652"><ele>507.0</ele><time>2026-04-18T09:10:49.692Z</time></trkpt><trkpt lat="43.5272844" lon="11.3987128"><ele>507.5</ele><time>2026-04-18T09:10:50.692Z</time></trkpt><trkpt lat="43.5273404" lon="11.3987576"><ele>508.0</ele><time>2026-04-18T09:10:51.692Z</time></trkpt><trkpt lat="43.527462" lon="11.3987879"><ele>508.49999999999994</ele><time>2026-04-18T09:10:53.692Z</time></trkpt><trkpt lat="43.5275305" lon="11.3987976"><ele>509.0</ele><time>2026-04-18T09:10:54.693Z</time></trkpt><trkpt lat="43.527605" lon="11.3987971"><ele>508.99999999999994</ele><time>2026-04-18T09:10:55.692Z</time></trkpt><trkpt lat="43.5276786" lon="11.3988048"><ele>509.0</ele><time>2026-04-18T09:10:56.692Z</time></trkpt><trkpt lat="43.5277536" lon="11.3988058"><ele>509.0</ele><time>2026-04-18T09:10:57.692Z</time></trkpt><trkpt lat="43.5278288" lon="11.3988044"><ele>509.0</ele><time>2026-04-18T09:10:58.692Z</time></trkpt><trkpt lat="43.5279044" lon="11.3988024"><ele>508.99999999999994</ele><time>2026-04-18T09:10:59.692Z</time></trkpt><trkpt lat="43.5279796" lon="11.3987992"><ele>509.0</ele><time>2026-04-18T09:11:00.692Z</time></trkpt><trkpt lat="43.5280547" lon="11.3987875"><ele>509.99999999999994</ele><time>2026-04-18T09:11:01.692Z</time></trkpt><trkpt lat="43.5281355" lon="11.3987661"><ele>511.0</ele><time>2026-04-18T09:11:02.692Z</time></trkpt><trkpt lat="43.5282179" lon="11.3987261"><ele>512.0</ele><time>2026-04-18T09:11:03.693Z</time></trkpt><trkpt lat="43.5282955" lon="11.3986779"><ele>513.0</ele><time>2026-04-18T09:11:04.693Z</time></trkpt><trkpt lat="43.5283787" lon="11.3986377"><ele>514.0</ele><time>2026-04-18T09:11:05.692Z</time></trkpt><trkpt lat="43.5284536" lon="11.3985886"><ele>515.0</ele><time>2026-04-18T09:11:06.692Z</time></trkpt><trkpt lat="43.5285298" lon="11.3985436"><ele>515.0</ele><time>2026-04-18T09:11:07.692Z</time></trkpt><trkpt lat="43.528595" lon="11.398496"><ele>515.0</ele><time>2026-04-18T09:11:08.692Z</time></trkpt><trkpt lat="43.5286541" lon="11.3984583"><ele>515.0</ele><time>2026-04-18T09:11:09.693Z</time></trkpt><trkpt lat="43.5287152" lon="11.398429"><ele>515.0</ele><time>2026-04-18T09:11:10.692Z</time></trkpt><trkpt lat="43.528778" lon="11.3984058"><ele>515.0</ele><time>2026-04-18T09:11:11.692Z</time></trkpt><trkpt lat="43.5288962" lon="11.3984345"><ele>515.0</ele><time>2026-04-18T09:11:13.692Z</time></trkpt><trkpt lat="43.5289672" lon="11.3984651"><ele>516.4</ele><time>2026-04-18T09:11:14.692Z</time></trkpt><trkpt lat="43.5290309" lon="11.3984854"><ele>517.8</ele><time>2026-04-18T09:11:15.693Z</time></trkpt><trkpt lat="43.529122" lon="11.3985079"><ele>519.2</ele><time>2026-04-18T09:11:17.693Z</time></trkpt><trkpt lat="43.5291913" lon="11.3984322"><ele>520.6</ele><time>2026-04-18T09:11:19.692Z</time></trkpt><trkpt lat="43.5292641" lon="11.3982974"><ele>522.0</ele><time>2026-04-18T09:11:21.692Z</time></trkpt><trkpt lat="43.5293466" lon="11.3982083"><ele>522.0</ele><time>2026-04-18T09:11:23.692Z</time></trkpt><trkpt lat="43.5294164" lon="11.3981624"><ele>522.0</ele><time>2026-04-18T09:11:24.692Z</time></trkpt><trkpt lat="43.5294823" lon="11.3981334"><ele>522.0</ele><time>2026-04-18T09:11:25.692Z</time></trkpt><trkpt lat="43.5295617" lon="11.3981065"><ele>522.0</ele><time>2026-04-18T09:11:26.693Z</time></trkpt><trkpt lat="43.5296408" lon="11.3980822"><ele>522.0</ele><time>2026-04-18T09:11:27.693Z</time></trkpt><trkpt lat="43.5297266" lon="11.3980413"><ele>522.0</ele><time>2026-04-18T09:11:28.693Z</time></trkpt><trkpt lat="43.5298023" lon="11.3979924"><ele>522.5</ele><time>2026-04-18T09:11:29.692Z</time></trkpt><trkpt lat="43.5298798" lon="11.3979601"><ele>523.0</ele><time>2026-04-18T09:11:30.692Z</time></trkpt><trkpt lat="43.5299454" lon="11.3979423"><ele>523.5</ele><time>2026-04-18T09:11:31.693Z</time></trkpt><trkpt lat="43.5300576" lon="11.397895"><ele>524.0</ele><time>2026-04-18T09:11:33.692Z</time></trkpt><trkpt lat="43.5301234" lon="11.397844"><ele>524.5</ele><time>2026-04-18T09:11:34.693Z</time></trkpt><trkpt lat="43.5301927" lon="11.3977973"><ele>525.0</ele><time>2026-04-18T09:11:35.692Z</time></trkpt><trkpt lat="43.5302655" lon="11.3977548"><ele>525.0</ele><time>2026-04-18T09:11:36.693Z</time></trkpt><trkpt lat="43.5303286" lon="11.3977118"><ele>525.0</ele><time>2026-04-18T09:11:37.692Z</time></trkpt><trkpt lat="43.5303863" lon="11.397662"><ele>525.0</ele><time>2026-04-18T09:11:38.693Z</time></trkpt><trkpt lat="43.5304818" lon="11.3975908"><ele>525.0</ele><time>2026-04-18T09:11:40.693Z</time></trkpt><trkpt lat="43.5305695" lon="11.3975436"><ele>525.0</ele><time>2026-04-18T09:11:43.692Z</time></trkpt><trkpt lat="43.5305884" lon="11.3976476"><ele>525.0</ele><time>2026-04-18T09:13:05.693Z</time></trkpt><trkpt lat="43.5305768" lon="11.3977353"><ele>525.8571428571429</ele><time>2026-04-18T09:13:21.693Z</time></trkpt><trkpt lat="43.5306239" lon="11.3978184"><ele>526.7142857142858</ele><time>2026-04-18T09:13:26.692Z</time></trkpt><trkpt lat="43.530689" lon="11.397846"><ele>527.5714285714286</ele><time>2026-04-18T09:16:16.696Z</time></trkpt><trkpt lat="43.5306274" lon="11.3978765"><ele>528.4285714285714</ele><time>2026-04-18T09:21:49.696Z</time></trkpt><trkpt lat="43.5305837" lon="11.3977989"><ele>529.2857142857143</ele><time>2026-04-18T09:24:39.696Z</time></trkpt><trkpt lat="43.5305689" lon="11.3977068"><ele>530.1428571428571</ele><time>2026-04-18T09:24:45.696Z</time></trkpt><trkpt lat="43.5305981" lon="11.3976226"><ele>531.0</ele><time>2026-04-18T09:24:58.696Z</time></trkpt><trkpt lat="43.5306411" lon="11.3975218"><ele>531.0</ele><time>2026-04-18T09:25:02.696Z</time></trkpt><trkpt lat="43.5306833" lon="11.3974317"><ele>531.0</ele><time>2026-04-18T09:25:05.696Z</time></trkpt><trkpt lat="43.5306486" lon="11.3975228"><ele>531.0</ele><time>2026-04-18T09:27:06.696Z</time></trkpt><trkpt lat="43.530623" lon="11.3976319"><ele>531.0</ele><time>2026-04-18T09:27:09.696Z</time></trkpt><trkpt lat="43.5305881" lon="11.3977132"><ele>531.0</ele><time>2026-04-18T09:27:11.696Z</time></trkpt><trkpt lat="43.5306081" lon="11.3977996"><ele>531.0</ele><time>2026-04-18T09:27:13.696Z</time></trkpt><trkpt lat="43.5306517" lon="11.3978735"><ele>531.0</ele><time>2026-04-18T09:27:15.696Z</time></trkpt><trkpt lat="43.5306851" lon="11.3979565"><ele>532.8571428571429</ele><time>2026-04-18T09:29:28.696Z</time></trkpt><trkpt lat="43.5306691" lon="11.398044"><ele>534.7142857142858</ele><time>2026-04-18T09:41:27.695Z</time></trkpt><trkpt lat="43.5306244" lon="11.3981312"><ele>536.5714285714286</ele><time>2026-04-18T09:41:58.695Z</time></trkpt><trkpt lat="43.5305733" lon="11.398186"><ele>538.4285714285714</ele><time>2026-04-18T09:42:00.695Z</time></trkpt><trkpt lat="43.5305228" lon="11.3982738"><ele>540.2857142857142</ele><time>2026-04-18T09:42:02.695Z</time></trkpt><trkpt lat="43.5304674" lon="11.3983376"><ele>542.1428571428571</ele><time>2026-04-18T09:42:04.695Z</time></trkpt><trkpt lat="43.5304342" lon="11.3984353"><ele>544.0</ele><time>2026-04-18T09:42:06.695Z</time></trkpt><trkpt lat="43.5303951" lon="11.3985666"><ele>544.3333333333334</ele><time>2026-04-18T09:42:08.695Z</time></trkpt><trkpt lat="43.5303652" lon="11.398708"><ele>544.6666666666667</ele><time>2026-04-18T09:42:10.695Z</time></trkpt><trkpt lat="43.5303489" lon="11.3987925"><ele>545.0</ele><time>2026-04-18T09:50:26.695Z</time></trkpt><trkpt lat="43.5303093" lon="11.3988912"><ele>545.3333333333334</ele><time>2026-04-18T09:50:35.696Z</time></trkpt><trkpt lat="43.5302946" lon="11.3989893"><ele>545.6666666666666</ele><time>2026-04-18T09:50:38.696Z</time></trkpt><trkpt lat="43.5303014" lon="11.3990913"><ele>546.0</ele><time>2026-04-18T09:50:40.696Z</time></trkpt><trkpt lat="43.5302977" lon="11.3992067"><ele>546.0</ele><time>2026-04-18T09:50:42.695Z</time></trkpt><trkpt lat="43.5302706" lon="11.3993016"><ele>546.0</ele><time>2026-04-18T09:50:45.696Z</time></trkpt><trkpt lat="43.5302218" lon="11.3994012"><ele>546.0</ele><time>2026-04-18T09:50:49.695Z</time></trkpt><trkpt lat="43.5301762" lon="11.3995001"><ele>546.0</ele><time>2026-04-18T09:50:51.696Z</time></trkpt><trkpt lat="43.5301303" lon="11.399616"><ele>546.0</ele><time>2026-04-18T09:50:53.696Z</time></trkpt><trkpt lat="43.5301037" lon="11.3997129"><ele>546.0</ele><time>2026-04-18T09:50:55.695Z</time></trkpt><trkpt lat="43.5300555" lon="11.3998295"><ele>547.6666666666666</ele><time>2026-04-18T09:50:57.695Z</time></trkpt><trkpt lat="43.5300376" lon="11.3999199"><ele>549.3333333333334</ele><time>2026-04-18T09:50:59.695Z</time></trkpt><trkpt lat="43.5300068" lon="11.4000296"><ele>551.0</ele><time>2026-04-18T09:51:05.695Z</time></trkpt><trkpt lat="43.5299687" lon="11.4001025"><ele>552.6666666666667</ele><time>2026-04-18T09:51:08.695Z</time></trkpt><trkpt lat="43.5299229" lon="11.4002076"><ele>554.3333333333334</ele><time>2026-04-18T09:51:11.695Z</time></trkpt><trkpt lat="43.5298559" lon="11.4003102"><ele>556.0</ele><time>2026-04-18T09:51:13.695Z</time></trkpt><trkpt lat="43.5298236" lon="11.4003946"><ele>556.0</ele><time>2026-04-18T09:51:15.695Z</time></trkpt><trkpt lat="43.5297956" lon="11.4004883"><ele>556.0</ele><time>2026-04-18T09:51:25.695Z</time></trkpt><trkpt lat="43.5297839" lon="11.4005849"><ele>556.0</ele><time>2026-04-18T09:51:39.695Z</time></trkpt><trkpt lat="43.5297358" lon="11.4006526"><ele>556.0</ele><time>2026-04-18T09:51:42.695Z</time></trkpt><trkpt lat="43.5296895" lon="11.4007161"><ele>556.0</ele><time>2026-04-18T09:53:04.695Z</time></trkpt><trkpt lat="43.5296378" lon="11.4007751"><ele>556.0</ele><time>2026-04-18T09:54:45.695Z</time></trkpt><trkpt lat="43.5295823" lon="11.4008305"><ele>556.0</ele><time>2026-04-18T09:54:57.695Z</time></trkpt><trkpt lat="43.5295279" lon="11.4009106"><ele>558.1428571428571</ele><time>2026-04-18T09:55:02.692Z</time></trkpt><trkpt lat="43.5294476" lon="11.400987"><ele>560.2857142857143</ele><time>2026-04-18T09:55:42.695Z</time></trkpt><trkpt lat="43.5293848" lon="11.40101"><ele>562.4285714285714</ele><time>2026-04-18T09:55:54.696Z</time></trkpt><trkpt lat="43.5293367" lon="11.4010745"><ele>564.5714285714286</ele><time>2026-04-18T09:55:58.695Z</time></trkpt><trkpt lat="43.5292865" lon="11.4011343"><ele>566.7142857142857</ele><time>2026-04-18T09:56:00.689Z</time></trkpt><trkpt lat="43.5292345" lon="11.4012121"><ele>568.8571428571429</ele><time>2026-04-18T09:56:03.695Z</time></trkpt><trkpt lat="43.5291757" lon="11.4012714"><ele>571.0</ele><time>2026-04-18T09:56:09.695Z</time></trkpt><trkpt lat="43.5291117" lon="11.4013389"><ele>572.7142857142858</ele><time>2026-04-18T09:56:12.695Z</time></trkpt><trkpt lat="43.5290363" lon="11.4014204"><ele>574.4285714285714</ele><time>2026-04-18T09:56:14.696Z</time></trkpt><trkpt lat="43.5289754" lon="11.4014942"><ele>576.1428571428571</ele><time>2026-04-18T09:56:16.695Z</time></trkpt><trkpt lat="43.5289505" lon="11.4015748"><ele>577.8571428571429</ele><time>2026-04-18T09:56:18.696Z</time></trkpt><trkpt lat="43.52893" lon="11.4016603"><ele>579.5714285714286</ele><time>2026-04-18T09:56:34.695Z</time></trkpt><trkpt lat="43.5289302" lon="11.4017472"><ele>581.2857142857143</ele><time>2026-04-18T09:56:37.695Z</time></trkpt><trkpt lat="43.5289119" lon="11.401836"><ele>583.0</ele><time>2026-04-18T09:56:39.695Z</time></trkpt><trkpt lat="43.5288822" lon="11.4019216"><ele>583.0</ele><time>2026-04-18T09:56:41.695Z</time></trkpt><trkpt lat="43.5288555" lon="11.4020165"><ele>583.0</ele><time>2026-04-18T09:56:43.695Z</time></trkpt><trkpt lat="43.5288375" lon="11.402104"><ele>583.0</ele><time>2026-04-18T09:56:45.696Z</time></trkpt><trkpt lat="43.5288202" lon="11.4021939"><ele>583.0</ele><time>2026-04-18T09:56:47.695Z</time></trkpt><trkpt lat="43.528784" lon="11.4023244"><ele>583.0</ele><time>2026-04-18T09:56:50.695Z</time></trkpt><trkpt lat="43.5287268" lon="11.4024069"><ele>583.0</ele><time>2026-04-18T09:56:52.695Z</time></trkpt><trkpt lat="43.5286923" lon="11.4024915"><ele>580.6666666666667</ele><time>2026-04-18T09:56:54.695Z</time></trkpt><trkpt lat="43.5286568" lon="11.4025779"><ele>578.3333333333334</ele><time>2026-04-18T09:56:56.696Z</time></trkpt><trkpt lat="43.5286307" lon="11.4027052"><ele>576.0</ele><time>2026-04-18T09:56:59.696Z</time></trkpt><trkpt lat="43.5286473" lon="11.4028137"><ele>573.6666666666666</ele><time>2026-04-18T09:57:01.695Z</time></trkpt><trkpt lat="43.5286515" lon="11.4029266"><ele>571.3333333333333</ele><time>2026-04-18T09:57:04.696Z</time></trkpt><trkpt lat="43.52864" lon="11.4030343"><ele>569.0</ele><time>2026-04-18T09:57:07.695Z</time></trkpt><trkpt lat="43.5285893" lon="11.4031187"><ele>569.0</ele><time>2026-04-18T09:57:10.695Z</time></trkpt><trkpt lat="43.5285507" lon="11.4032084"><ele>569.0</ele><time>2026-04-18T09:57:13.695Z</time></trkpt><trkpt lat="43.5285567" lon="11.403306"><ele>569.0</ele><time>2026-04-18T09:57:17.695Z</time></trkpt><trkpt lat="43.5285581" lon="11.4034074"><ele>569.0</ele><time>2026-04-18T09:57:22.696Z</time></trkpt><trkpt lat="43.5285849" lon="11.4035182"><ele>569.0</ele><time>2026-04-18T09:57:25.695Z</time></trkpt><trkpt lat="43.5286002" lon="11.4036388"><ele>569.0</ele><time>2026-04-18T09:57:28.695Z</time></trkpt><trkpt lat="43.5286016" lon="11.4037316"><ele>569.0000000000001</ele><time>2026-04-18T09:57:30.695Z</time></trkpt><trkpt lat="43.5286314" lon="11.4038191"><ele>569.0</ele><time>2026-04-18T09:57:32.695Z</time></trkpt><trkpt lat="43.528673" lon="11.403913"><ele>569.0</ele><time>2026-04-18T09:57:34.69Z</time></trkpt><trkpt lat="43.5287198" lon="11.403987"><ele>569.0</ele><time>2026-04-18T09:57:36.695Z</time></trkpt><trkpt lat="43.5287651" lon="11.4040637"><ele>569.0</ele><time>2026-04-18T09:57:38.695Z</time></trkpt><trkpt lat="43.5287809" lon="11.4041627"><ele>569.0000000000001</ele><time>2026-04-18T09:57:40.695Z</time></trkpt><trkpt lat="43.5288013" lon="11.4042596"><ele>569.0</ele><time>2026-04-18T09:57:42.695Z</time></trkpt><trkpt lat="43.5288325" lon="11.4043781"><ele>572.5714285714287</ele><time>2026-04-18T09:57:45.695Z</time></trkpt><trkpt lat="43.5288502" lon="11.4044619"><ele>576.1428571428571</ele><time>2026-04-18T09:57:47.695Z</time></trkpt><trkpt lat="43.5288669" lon="11.4045729"><ele>579.7142857142858</ele><time>2026-04-18T09:57:50.696Z</time></trkpt><trkpt lat="43.5288925" lon="11.4046613"><ele>583.2857142857143</ele><time>2026-04-18T09:57:53.696Z</time></trkpt><trkpt lat="43.5289368" lon="11.404771"><ele>586.8571428571429</ele><time>2026-04-18T09:58:01.696Z</time></trkpt><trkpt lat="43.5289511" lon="11.4048671"><ele>590.4285714285714</ele><time>2026-04-18T09:58:07.696Z</time></trkpt><trkpt lat="43.528944" lon="11.4049591"><ele>594.0</ele><time>2026-04-18T09:58:13.696Z</time></trkpt><trkpt lat="43.5289289" lon="11.405048"><ele>594.0</ele><time>2026-04-18T09:58:23.695Z</time></trkpt><trkpt lat="43.5288889" lon="11.4051215"><ele>594.0</ele><time>2026-04-18T09:58:33.696Z</time></trkpt><trkpt lat="43.5288506" lon="11.4052231"><ele>594.0</ele><time>2026-04-18T10:09:39.695Z</time></trkpt><trkpt lat="43.5287872" lon="11.40525"><ele>594.0</ele><time>2026-04-18T10:09:52.695Z</time></trkpt><trkpt lat="43.5287179" lon="11.4053178"><ele>594.0</ele><time>2026-04-18T10:09:54.691Z</time></trkpt><trkpt lat="43.5286377" lon="11.4053755"><ele>594.0</ele><time>2026-04-18T10:09:56.694Z</time></trkpt><trkpt lat="43.5285513" lon="11.4054202"><ele>592.6</ele><time>2026-04-18T10:09:58.694Z</time></trkpt><trkpt lat="43.5284564" lon="11.4055012"><ele>591.2</ele><time>2026-04-18T10:10:00.694Z</time></trkpt><trkpt lat="43.5283861" lon="11.405587"><ele>589.8000000000001</ele><time>2026-04-18T10:10:02.694Z</time></trkpt><trkpt lat="43.5283208" lon="11.4056597"><ele>588.4</ele><time>2026-04-18T10:10:04.694Z</time></trkpt><trkpt lat="43.528262" lon="11.4057458"><ele>587.0</ele><time>2026-04-18T10:10:06.694Z</time></trkpt><trkpt lat="43.5282057" lon="11.4058767"><ele>587.0</ele><time>2026-04-18T10:10:08.694Z</time></trkpt><trkpt lat="43.5281483" lon="11.40601"><ele>587.0</ele><time>2026-04-18T10:10:10.694Z</time></trkpt><trkpt lat="43.528105" lon="11.4060789"><ele>587.0</ele><time>2026-04-18T10:10:11.695Z</time></trkpt><trkpt lat="43.5280614" lon="11.4061569"><ele>587.0</ele><time>2026-04-18T10:10:12.695Z</time></trkpt><trkpt lat="43.5280293" lon="11.4063014"><ele>587.0</ele><time>2026-04-18T10:10:14.694Z</time></trkpt><trkpt lat="43.5280171" lon="11.4063902"><ele>587.0</ele><time>2026-04-18T10:10:15.694Z</time></trkpt><trkpt lat="43.5279982" lon="11.406562"><ele>588.6</ele><time>2026-04-18T10:10:17.694Z</time></trkpt><trkpt lat="43.5279692" lon="11.4067194"><ele>590.2</ele><time>2026-04-18T10:10:19.695Z</time></trkpt><trkpt lat="43.5279377" lon="11.4068615"><ele>591.8</ele><time>2026-04-18T10:10:21.695Z</time></trkpt><trkpt lat="43.5279184" lon="11.4069691"><ele>593.4</ele><time>2026-04-18T10:10:23.694Z</time></trkpt><trkpt lat="43.5279044" lon="11.4070655"><ele>595.0</ele><time>2026-04-18T10:10:26.694Z</time></trkpt><trkpt lat="43.5278518" lon="11.4071555"><ele>595.0</ele><time>2026-04-18T10:10:31.695Z</time></trkpt><trkpt lat="43.5277818" lon="11.407179"><ele>595.0</ele><time>2026-04-18T10:10:35.694Z</time></trkpt><trkpt lat="43.527737" lon="11.4071125"><ele>595.0</ele><time>2026-04-18T10:10:38.694Z</time></trkpt><trkpt lat="43.5276702" lon="11.4070306"><ele>595.0</ele><time>2026-04-18T10:10:41.694Z</time></trkpt><trkpt lat="43.5276199" lon="11.4069711"><ele>595.0</ele><time>2026-04-18T10:10:43.695Z</time></trkpt><trkpt lat="43.5275535" lon="11.4068917"><ele>595.0</ele><time>2026-04-18T10:10:45.695Z</time></trkpt><trkpt lat="43.5274695" lon="11.4068266"><ele>595.0</ele><time>2026-04-18T10:10:47.694Z</time></trkpt><trkpt lat="43.5273866" lon="11.406805"><ele>595.0</ele><time>2026-04-18T10:10:49.694Z</time></trkpt><trkpt lat="43.5273227" lon="11.4067918"><ele>595.0</ele><time>2026-04-18T10:10:52.694Z</time></trkpt><trkpt lat="43.5272651" lon="11.4067543"><ele>595.0</ele><time>2026-04-18T10:11:00.693Z</time></trkpt><trkpt lat="43.5271812" lon="11.4067284"><ele>595.0</ele><time>2026-04-18T10:11:02.694Z</time></trkpt><trkpt lat="43.5271165" lon="11.4066996"><ele>595.0</ele><time>2026-04-18T10:11:04.694Z</time></trkpt><trkpt lat="43.5270566" lon="11.4066655"><ele>595.0</ele><time>2026-04-18T10:11:06.695Z</time></trkpt><trkpt lat="43.5269898" lon="11.406589"><ele>598.0</ele><time>2026-04-18T10:11:09.695Z</time></trkpt><trkpt lat="43.5269587" lon="11.4065134"><ele>601.0</ele><time>2026-04-18T10:11:11.694Z</time></trkpt><trkpt lat="43.5269277" lon="11.4064294"><ele>604.0</ele><time>2026-04-18T10:11:13.695Z</time></trkpt><trkpt lat="43.5268949" lon="11.4063327"><ele>607.0</ele><time>2026-04-18T10:11:15.694Z</time></trkpt><trkpt lat="43.526879" lon="11.4062406"><ele>610.0</ele><time>2026-04-18T10:11:17.694Z</time></trkpt><trkpt lat="43.5268542" lon="11.4061228"><ele>613.0</ele><time>2026-04-18T10:11:19.694Z</time></trkpt><trkpt lat="43.5268142" lon="11.4060312"><ele>616.0</ele><time>2026-04-18T10:11:21.694Z</time></trkpt><trkpt lat="43.5267531" lon="11.405956"><ele>616.0</ele><time>2026-04-18T10:11:23.694Z</time></trkpt><trkpt lat="43.5266966" lon="11.4058898"><ele>616.0</ele><time>2026-04-18T10:11:25.694Z</time></trkpt><trkpt lat="43.5266293" lon="11.4057696"><ele>616.0</ele><time>2026-04-18T10:11:27.694Z</time></trkpt><trkpt lat="43.5265873" lon="11.4056468"><ele>616.0</ele><time>2026-04-18T10:11:29.694Z</time></trkpt><trkpt lat="43.5265216" lon="11.4055517"><ele>616.0</ele><time>2026-04-18T10:11:31.694Z</time></trkpt><trkpt lat="43.5264702" lon="11.4054864"><ele>616.0</ele><time>2026-04-18T10:11:33.694Z</time></trkpt><trkpt lat="43.5264227" lon="11.4054106"><ele>614.4</ele><time>2026-04-18T10:11:35.695Z</time></trkpt><trkpt lat="43.5263879" lon="11.4053108"><ele>612.8</ele><time>2026-04-18T10:11:37.694Z</time></trkpt><trkpt lat="43.5263346" lon="11.4052053"><ele>611.1999999999999</ele><time>2026-04-18T10:11:39.695Z</time></trkpt><trkpt lat="43.526292" lon="11.4050856"><ele>609.6</ele><time>2026-04-18T10:11:41.693Z</time></trkpt><trkpt lat="43.5261978" lon="11.4050159"><ele>608.0</ele><time>2026-04-18T10:11:44.694Z</time></trkpt><trkpt lat="43.5261083" lon="11.4049551"><ele>611.5</ele><time>2026-04-18T10:11:46.695Z</time></trkpt><trkpt lat="43.5260256" lon="11.4048943"><ele>615.0</ele><time>2026-04-18T10:11:48.694Z</time></trkpt><trkpt lat="43.5259387" lon="11.4048339"><ele>618.5</ele><time>2026-04-18T10:11:50.695Z</time></trkpt><trkpt lat="43.5258636" lon="11.404793"><ele>622.0</ele><time>2026-04-18T10:11:52.695Z</time></trkpt><trkpt lat="43.5257879" lon="11.404766"><ele>625.5</ele><time>2026-04-18T10:11:54.694Z</time></trkpt><trkpt lat="43.5257108" lon="11.4047811"><ele>629.0</ele><time>2026-04-18T10:11:56.694Z</time></trkpt><trkpt lat="43.5256172" lon="11.4048217"><ele>629.0</ele><time>2026-04-18T10:11:58.694Z</time></trkpt><trkpt lat="43.5255036" lon="11.4048753"><ele>629.0</ele><time>2026-04-18T10:12:00.693Z</time></trkpt><trkpt lat="43.5254435" lon="11.4049054"><ele>629.0</ele><time>2026-04-18T10:12:01.694Z</time></trkpt><trkpt lat="43.5253408" lon="11.4049552"><ele>629.0</ele><time>2026-04-18T10:12:03.694Z</time></trkpt><trkpt lat="43.5252378" lon="11.4050262"><ele>629.0</ele><time>2026-04-18T10:12:05.694Z</time></trkpt><trkpt lat="43.5251681" lon="11.4050563"><ele>629.3333333333333</ele><time>2026-04-18T10:12:06.694Z</time></trkpt><trkpt lat="43.5251058" lon="11.4050776"><ele>629.6666666666666</ele><time>2026-04-18T10:12:07.694Z</time></trkpt><trkpt lat="43.5250334" lon="11.4051134"><ele>630.0</ele><time>2026-04-18T10:12:08.695Z</time></trkpt><trkpt lat="43.5249661" lon="11.4051601"><ele>630.3333333333334</ele><time>2026-04-18T10:12:09.695Z</time></trkpt><trkpt lat="43.524875" lon="11.4052473"><ele>630.6666666666667</ele><time>2026-04-18T10:12:11.695Z</time></trkpt><trkpt lat="43.5247669" lon="11.4053063"><ele>631.0</ele><time>2026-04-18T10:12:13.694Z</time></trkpt><trkpt lat="43.5246645" lon="11.4053638"><ele>633.4</ele><time>2026-04-18T10:12:15.694Z</time></trkpt><trkpt lat="43.5245427" lon="11.4053597"><ele>635.8</ele><time>2026-04-18T10:12:17.695Z</time></trkpt><trkpt lat="43.5244753" lon="11.4053588"><ele>638.1999999999999</ele><time>2026-04-18T10:12:18.694Z</time></trkpt><trkpt lat="43.5243812" lon="11.4053589"><ele>640.6</ele><time>2026-04-18T10:12:20.694Z</time></trkpt><trkpt lat="43.5242801" lon="11.4053503"><ele>643.0</ele><time>2026-04-18T10:12:22.694Z</time></trkpt><trkpt lat="43.5241667" lon="11.4053525"><ele>643.0</ele><time>2026-04-18T10:12:24.695Z</time></trkpt><trkpt lat="43.524058" lon="11.4053916"><ele>643.0</ele><time>2026-04-18T10:12:26.694Z</time></trkpt><trkpt lat="43.5239543" lon="11.405393"><ele>643.0</ele><time>2026-04-18T10:12:28.695Z</time></trkpt><trkpt lat="43.52388" lon="11.4054069"><ele>643.0</ele><time>2026-04-18T10:12:30.694Z</time></trkpt><trkpt lat="43.5238229" lon="11.4054745"><ele>643.0</ele><time>2026-04-18T10:12:32.695Z</time></trkpt><trkpt lat="43.5237705" lon="11.4055227"><ele>651.0</ele><time>2026-04-18T10:12:37.694Z</time></trkpt></trkseg><trkseg><trkpt lat="43.5238723" lon="11.4055006"><ele>651.0</ele><time>2026-04-18T10:47:28.702Z</time></trkpt><trkpt lat="43.5239145" lon="11.4055663"><ele>651.0</ele><time>2026-04-18T10:47:33.701Z</time></trkpt><trkpt lat="43.5238934" lon="11.4056507"><ele>651.0</ele><time>2026-04-18T10:47:38.701Z</time></trkpt><trkpt lat="43.5238351" lon="11.4056835"><ele>651.0</ele><time>2026-04-18T10:48:03.701Z</time></trkpt><trkpt lat="43.5238687" lon="11.4057714"><ele>651.0</ele><time>2026-04-18T10:48:06.701Z</time></trkpt><trkpt lat="43.523915" lon="11.405836"><ele>651.0</ele><time>2026-04-18T10:48:07.702Z</time></trkpt><trkpt lat="43.5239886" lon="11.4059115"><ele>651.0</ele><time>2026-04-18T10:48:08.702Z</time></trkpt><trkpt lat="43.5240474" lon="11.4059777"><ele>651.0</ele><time>2026-04-18T10:48:09.701Z</time></trkpt><trkpt lat="43.5241144" lon="11.4060642"><ele>651.0</ele><time>2026-04-18T10:48:10.702Z</time></trkpt><trkpt lat="43.5241812" lon="11.4061425"><ele>651.0</ele><time>2026-04-18T10:48:11.701Z</time></trkpt><trkpt lat="43.5242485" lon="11.4062273"><ele>651.0</ele><time>2026-04-18T10:48:12.701Z</time></trkpt><trkpt lat="43.5243272" lon="11.4063245"><ele>651.0</ele><time>2026-04-18T10:48:13.701Z</time></trkpt><trkpt lat="43.5244175" lon="11.4064133"><ele>650.5</ele><time>2026-04-18T10:48:14.702Z</time></trkpt><trkpt lat="43.5245139" lon="11.4065152"><ele>650.0</ele><time>2026-04-18T10:48:15.701Z</time></trkpt><trkpt lat="43.5246213" lon="11.4066174"><ele>649.5</ele><time>2026-04-18T10:48:16.701Z</time></trkpt><trkpt lat="43.5247293" lon="11.4067025"><ele>649.0</ele><time>2026-04-18T10:48:17.701Z</time></trkpt><trkpt lat="43.5248408" lon="11.4067914"><ele>651.75</ele><time>2026-04-18T10:48:18.701Z</time></trkpt><trkpt lat="43.5249534" lon="11.4068982"><ele>654.5</ele><time>2026-04-18T10:48:19.701Z</time></trkpt><trkpt lat="43.5250667" lon="11.407019"><ele>657.25</ele><time>2026-04-18T10:48:20.702Z</time></trkpt><trkpt lat="43.5251665" lon="11.4071515"><ele>660.0</ele><time>2026-04-18T10:48:21.701Z</time></trkpt><trkpt lat="43.5252447" lon="11.4073125"><ele>660.0</ele><time>2026-04-18T10:48:22.7Z</time></trkpt><trkpt lat="43.525307" lon="11.4074836"><ele>660.0</ele><time>2026-04-18T10:48:23.701Z</time></trkpt><trkpt lat="43.5253577" lon="11.4076562"><ele>660.0</ele><time>2026-04-18T10:48:24.701Z</time></trkpt><trkpt lat="43.525397" lon="11.4078276"><ele>660.0</ele><time>2026-04-18T10:48:25.701Z</time></trkpt><trkpt lat="43.5254402" lon="11.407996"><ele>661.25</ele><time>2026-04-18T10:48:26.702Z</time></trkpt><trkpt lat="43.5254989" lon="11.4081558"><ele>662.5</ele><time>2026-04-18T10:48:27.701Z</time></trkpt><trkpt lat="43.5255765" lon="11.4083041"><ele>663.75</ele><time>2026-04-18T10:48:28.701Z</time></trkpt><trkpt lat="43.5256598" lon="11.4084449"><ele>665.0</ele><time>2026-04-18T10:48:29.701Z</time></trkpt><trkpt lat="43.5257637" lon="11.4085762"><ele>665.0</ele><time>2026-04-18T10:48:30.701Z</time></trkpt><trkpt lat="43.5258764" lon="11.4087076"><ele>665.0</ele><time>2026-04-18T10:48:31.701Z</time></trkpt><trkpt lat="43.5259854" lon="11.4088491"><ele>665.0</ele><time>2026-04-18T10:48:32.701Z</time></trkpt><trkpt lat="43.5260711" lon="11.4090142"><ele>665.0</ele><time>2026-04-18T10:48:33.702Z</time></trkpt><trkpt lat="43.5261379" lon="11.4091987"><ele>664.6666666666666</ele><time>2026-04-18T10:48:34.701Z</time></trkpt><trkpt lat="43.5261958" lon="11.4093899"><ele>664.3333333333334</ele><time>2026-04-18T10:48:35.701Z</time></trkpt><trkpt lat="43.5262605" lon="11.4095765"><ele>664.0</ele><time>2026-04-18T10:48:36.701Z</time></trkpt><trkpt lat="43.526333" lon="11.4097626"><ele>667.3333333333334</ele><time>2026-04-18T10:48:37.701Z</time></trkpt><trkpt lat="43.5264069" lon="11.409953"><ele>670.6666666666666</ele><time>2026-04-18T10:48:38.701Z</time></trkpt><trkpt lat="43.5264851" lon="11.4101346"><ele>674.0</ele><time>2026-04-18T10:48:39.701Z</time></trkpt><trkpt lat="43.5265631" lon="11.4103041"><ele>674.0</ele><time>2026-04-18T10:48:40.701Z</time></trkpt><trkpt lat="43.5266435" lon="11.4104581"><ele>674.0</ele><time>2026-04-18T10:48:41.701Z</time></trkpt><trkpt lat="43.5267506" lon="11.4105863"><ele>674.0</ele><time>2026-04-18T10:48:42.702Z</time></trkpt><trkpt lat="43.5268777" lon="11.4106817"><ele>674.0</ele><time>2026-04-18T10:48:43.701Z</time></trkpt><trkpt lat="43.5270076" lon="11.4107616"><ele>674.0</ele><time>2026-04-18T10:48:44.701Z</time></trkpt><trkpt lat="43.5271317" lon="11.4108614"><ele>674.0</ele><time>2026-04-18T10:48:45.701Z</time></trkpt><trkpt lat="43.5272474" lon="11.4109686"><ele>674.0</ele><time>2026-04-18T10:48:46.701Z</time></trkpt><trkpt lat="43.5273556" lon="11.4110814"><ele>674.0</ele><time>2026-04-18T10:48:47.701Z</time></trkpt><trkpt lat="43.5274354" lon="11.411227"><ele>676.25</ele><time>2026-04-18T10:48:48.701Z</time></trkpt><trkpt lat="43.5275091" lon="11.4113637"><ele>678.5</ele><time>2026-04-18T10:48:49.701Z</time></trkpt><trkpt lat="43.527608" lon="11.4114484"><ele>680.75</ele><time>2026-04-18T10:48:50.701Z</time></trkpt><trkpt lat="43.5277162" lon="11.4114583"><ele>683.0</ele><time>2026-04-18T10:48:51.701Z</time></trkpt><trkpt lat="43.5278405" lon="11.4114172"><ele>682.5</ele><time>2026-04-18T10:48:52.702Z</time></trkpt><trkpt lat="43.5279531" lon="11.4113586"><ele>682.0</ele><time>2026-04-18T10:48:53.702Z</time></trkpt><trkpt lat="43.5280725" lon="11.4113141"><ele>681.5</ele><time>2026-04-18T10:48:54.701Z</time></trkpt><trkpt lat="43.5282002" lon="11.4113008"><ele>681.0</ele><time>2026-04-18T10:48:55.701Z</time></trkpt><trkpt lat="43.5283257" lon="11.4112955"><ele>681.0</ele><time>2026-04-18T10:48:56.702Z</time></trkpt><trkpt lat="43.5284458" lon="11.4112987"><ele>681.0</ele><time>2026-04-18T10:48:57.702Z</time></trkpt><trkpt lat="43.5285658" lon="11.4113146"><ele>681.0</ele><time>2026-04-18T10:48:58.701Z</time></trkpt><trkpt lat="43.5286817" lon="11.4113222"><ele>681.0</ele><time>2026-04-18T10:48:59.701Z</time></trkpt><trkpt lat="43.5287921" lon="11.4113391"><ele>684.25</ele><time>2026-04-18T10:49:00.701Z</time></trkpt><trkpt lat="43.5288935" lon="11.4114181"><ele>687.5</ele><time>2026-04-18T10:49:01.701Z</time></trkpt><trkpt lat="43.5289673" lon="11.4115545"><ele>690.75</ele><time>2026-04-18T10:49:02.702Z</time></trkpt><trkpt lat="43.5290236" lon="11.4117023"><ele>694.0</ele><time>2026-04-18T10:49:03.701Z</time></trkpt><trkpt lat="43.5290741" lon="11.4118551"><ele>694.0</ele><time>2026-04-18T10:49:04.701Z</time></trkpt><trkpt lat="43.5291259" lon="11.4120125"><ele>694.0</ele><time>2026-04-18T10:49:05.702Z</time></trkpt><trkpt lat="43.5291843" lon="11.4121516"><ele>694.0</ele><time>2026-04-18T10:49:06.701Z</time></trkpt><trkpt lat="43.5292557" lon="11.4122505"><ele>694.0</ele><time>2026-04-18T10:49:07.702Z</time></trkpt><trkpt lat="43.5293482" lon="11.4123047"><ele>694.0</ele><time>2026-04-18T10:49:08.702Z</time></trkpt><trkpt lat="43.5294589" lon="11.4122939"><ele>696.75</ele><time>2026-04-18T10:49:09.701Z</time></trkpt><trkpt lat="43.5295666" lon="11.4122562"><ele>699.5</ele><time>2026-04-18T10:49:10.701Z</time></trkpt><trkpt lat="43.5296773" lon="11.4122198"><ele>702.25</ele><time>2026-04-18T10:49:11.7Z</time></trkpt><trkpt lat="43.5297981" lon="11.4122138"><ele>705.0</ele><time>2026-04-18T10:49:12.701Z</time></trkpt><trkpt lat="43.5299081" lon="11.4122865"><ele>705.0</ele><time>2026-04-18T10:49:13.701Z</time></trkpt><trkpt lat="43.5300161" lon="11.4123886"><ele>705.0</ele><time>2026-04-18T10:49:14.701Z</time></trkpt><trkpt lat="43.5301101" lon="11.4124896"><ele>705.0</ele><time>2026-04-18T10:49:15.701Z</time></trkpt><trkpt lat="43.5302154" lon="11.4125917"><ele>705.0</ele><time>2026-04-18T10:49:16.701Z</time></trkpt><trkpt lat="43.5303248" lon="11.4126712"><ele>704.5</ele><time>2026-04-18T10:49:17.701Z</time></trkpt><trkpt lat="43.5304513" lon="11.4127258"><ele>704.0</ele><time>2026-04-18T10:49:18.701Z</time></trkpt><trkpt lat="43.5305838" lon="11.4127538"><ele>703.5</ele><time>2026-04-18T10:49:19.701Z</time></trkpt><trkpt lat="43.5307061" lon="11.4127433"><ele>703.0</ele><time>2026-04-18T10:49:20.699Z</time></trkpt><trkpt lat="43.5308285" lon="11.4126601"><ele>703.0</ele><time>2026-04-18T10:49:21.701Z</time></trkpt><trkpt lat="43.5309535" lon="11.4125402"><ele>703.0</ele><time>2026-04-18T10:49:22.701Z</time></trkpt><trkpt lat="43.5310744" lon="11.4124272"><ele>703.0</ele><time>2026-04-18T10:49:23.701Z</time></trkpt><trkpt lat="43.5311842" lon="11.4123045"><ele>703.0</ele><time>2026-04-18T10:49:24.701Z</time></trkpt><trkpt lat="43.531279" lon="11.4121889"><ele>703.0</ele><time>2026-04-18T10:49:25.702Z</time></trkpt><trkpt lat="43.5313735" lon="11.41207"><ele>703.0</ele><time>2026-04-18T10:49:26.702Z</time></trkpt><trkpt lat="43.5314768" lon="11.4119495"><ele>703.0</ele><time>2026-04-18T10:49:27.702Z</time></trkpt><trkpt lat="43.5315717" lon="11.4118266"><ele>703.0</ele><time>2026-04-18T10:49:28.701Z</time></trkpt><trkpt lat="43.5316676" lon="11.4116998"><ele>703.0</ele><time>2026-04-18T10:49:29.702Z</time></trkpt><trkpt lat="43.5317632" lon="11.4115761"><ele>703.0</ele><time>2026-04-18T10:49:30.701Z</time></trkpt><trkpt lat="43.5318628" lon="11.4114614"><ele>703.0</ele><time>2026-04-18T10:49:31.701Z</time></trkpt><trkpt lat="43.5319629" lon="11.4113583"><ele>703.0</ele><time>2026-04-18T10:49:32.701Z</time></trkpt><trkpt lat="43.5320765" lon="11.4112679"><ele>703.5</ele><time>2026-04-18T10:49:33.702Z</time></trkpt><trkpt lat="43.5321918" lon="11.4111896"><ele>704.0</ele><time>2026-04-18T10:49:34.701Z</time></trkpt><trkpt lat="43.5323101" lon="11.4111061"><ele>704.5</ele><time>2026-04-18T10:49:35.702Z</time></trkpt><trkpt lat="43.5324344" lon="11.4110173"><ele>705.0</ele><time>2026-04-18T10:49:36.702Z</time></trkpt><trkpt lat="43.5325531" lon="11.4109292"><ele>705.0</ele><time>2026-04-18T10:49:37.701Z</time></trkpt><trkpt lat="43.5326792" lon="11.4108663"><ele>705.0</ele><time>2026-04-18T10:49:38.702Z</time></trkpt><trkpt lat="43.5328109" lon="11.4108473"><ele>705.0</ele><time>2026-04-18T10:49:39.701Z</time></trkpt><trkpt lat="43.5329486" lon="11.4108695"><ele>705.0</ele><time>2026-04-18T10:49:40.702Z</time></trkpt><trkpt lat="43.5330896" lon="11.4109077"><ele>704.0</ele><time>2026-04-18T10:49:41.701Z</time></trkpt><trkpt lat="43.5332317" lon="11.4109613"><ele>703.0</ele><time>2026-04-18T10:49:42.702Z</time></trkpt><trkpt lat="43.5333803" lon="11.4110182"><ele>702.0</ele><time>2026-04-18T10:49:43.701Z</time></trkpt><trkpt lat="43.5335258" lon="11.4110766"><ele>702.0</ele><time>2026-04-18T10:49:44.701Z</time></trkpt><trkpt lat="43.533673" lon="11.4111358"><ele>702.0</ele><time>2026-04-18T10:49:45.701Z</time></trkpt><trkpt lat="43.5338167" lon="11.4112065"><ele>702.0</ele><time>2026-04-18T10:49:46.701Z</time></trkpt><trkpt lat="43.5339665" lon="11.4112643"><ele>704.75</ele><time>2026-04-18T10:49:47.702Z</time></trkpt><trkpt lat="43.5341032" lon="11.4113497"><ele>707.5</ele><time>2026-04-18T10:49:48.702Z</time></trkpt><trkpt lat="43.5342196" lon="11.4114396"><ele>710.25</ele><time>2026-04-18T10:49:49.701Z</time></trkpt><trkpt lat="43.5343078" lon="11.4115556"><ele>713.0</ele><time>2026-04-18T10:49:50.702Z</time></trkpt><trkpt lat="43.5344165" lon="11.4116604"><ele>713.0</ele><time>2026-04-18T10:49:51.701Z</time></trkpt><trkpt lat="43.5345363" lon="11.4116784"><ele>713.0</ele><time>2026-04-18T10:49:52.701Z</time></trkpt><trkpt lat="43.5346759" lon="11.4116572"><ele>713.0</ele><time>2026-04-18T10:49:53.691Z</time></trkpt><trkpt lat="43.5348199" lon="11.4115453"><ele>713.0</ele><time>2026-04-18T10:49:54.701Z</time></trkpt><trkpt lat="43.5349556" lon="11.4114357"><ele>710.3333333333333</ele><time>2026-04-18T10:49:55.701Z</time></trkpt><trkpt lat="43.5350835" lon="11.4113272"><ele>707.6666666666666</ele><time>2026-04-18T10:49:56.701Z</time></trkpt><trkpt lat="43.5352226" lon="11.4112436"><ele>705.0</ele><time>2026-04-18T10:49:57.698Z</time></trkpt><trkpt lat="43.5353765" lon="11.4111873"><ele>703.6666666666666</ele><time>2026-04-18T10:49:58.702Z</time></trkpt><trkpt lat="43.535538" lon="11.4111393"><ele>702.3333333333333</ele><time>2026-04-18T10:49:59.701Z</time></trkpt><trkpt lat="43.5356965" lon="11.4110895"><ele>701.0</ele><time>2026-04-18T10:50:00.701Z</time></trkpt><trkpt lat="43.5358474" lon="11.4110406"><ele>701.0</ele><time>2026-04-18T10:50:01.701Z</time></trkpt><trkpt lat="43.5359961" lon="11.4109934"><ele>701.0</ele><time>2026-04-18T10:50:02.701Z</time></trkpt><trkpt lat="43.5361391" lon="11.4109435"><ele>701.0</ele><time>2026-04-18T10:50:03.701Z</time></trkpt><trkpt lat="43.5362787" lon="11.4108944"><ele>701.0</ele><time>2026-04-18T10:50:04.701Z</time></trkpt><trkpt lat="43.5364154" lon="11.4108608"><ele>702.25</ele><time>2026-04-18T10:50:05.701Z</time></trkpt><trkpt lat="43.5365484" lon="11.4108636"><ele>703.5</ele><time>2026-04-18T10:50:06.701Z</time></trkpt><trkpt lat="43.536672" lon="11.4109019"><ele>704.75</ele><time>2026-04-18T10:50:07.701Z</time></trkpt><trkpt lat="43.5367816" lon="11.4109528"><ele>706.0</ele><time>2026-04-18T10:50:08.701Z</time></trkpt><trkpt lat="43.536903" lon="11.4110074"><ele>706.0</ele><time>2026-04-18T10:50:09.701Z</time></trkpt><trkpt lat="43.5370215" lon="11.411049"><ele>706.0</ele><time>2026-04-18T10:50:10.701Z</time></trkpt><trkpt lat="43.537138" lon="11.4110774"><ele>706.0</ele><time>2026-04-18T10:50:11.702Z</time></trkpt><trkpt lat="43.5372589" lon="11.4110761"><ele>706.0</ele><time>2026-04-18T10:50:12.702Z</time></trkpt><trkpt lat="43.5373849" lon="11.4110395"><ele>708.25</ele><time>2026-04-18T10:50:13.701Z</time></trkpt><trkpt lat="43.5375078" lon="11.410977"><ele>710.5</ele><time>2026-04-18T10:50:14.701Z</time></trkpt><trkpt lat="43.53763" lon="11.4109133"><ele>712.75</ele><time>2026-04-18T10:50:15.702Z</time></trkpt><trkpt lat="43.5377574" lon="11.4108502"><ele>715.0</ele><time>2026-04-18T10:50:16.701Z</time></trkpt><trkpt lat="43.5378817" lon="11.4107806"><ele>716.4</ele><time>2026-04-18T10:50:17.701Z</time></trkpt><trkpt lat="43.5379942" lon="11.4107046"><ele>717.8</ele><time>2026-04-18T10:50:18.701Z</time></trkpt><trkpt lat="43.5380892" lon="11.410616"><ele>719.2</ele><time>2026-04-18T10:50:19.701Z</time></trkpt><trkpt lat="43.5381533" lon="11.4105376"><ele>720.6</ele><time>2026-04-18T10:50:20.701Z</time></trkpt><trkpt lat="43.5382067" lon="11.4104625"><ele>722.0</ele><time>2026-04-18T10:50:21.701Z</time></trkpt><trkpt lat="43.5382554" lon="11.4103969"><ele>722.0</ele><time>2026-04-18T10:50:22.701Z</time></trkpt><trkpt lat="43.5383006" lon="11.4103347"><ele>722.0</ele><time>2026-04-18T10:50:23.701Z</time></trkpt><trkpt lat="43.5383841" lon="11.4102125"><ele>722.0</ele><time>2026-04-18T10:50:25.701Z</time></trkpt><trkpt lat="43.5384216" lon="11.4101405"><ele>722.0</ele><time>2026-04-18T10:50:26.702Z</time></trkpt><trkpt lat="43.53845" lon="11.4100555"><ele>722.0</ele><time>2026-04-18T10:50:27.702Z</time></trkpt><trkpt lat="43.538476" lon="11.4099731"><ele>722.0</ele><time>2026-04-18T10:50:28.701Z</time></trkpt><trkpt lat="43.5385099" lon="11.4098957"><ele>722.0</ele><time>2026-04-18T10:50:29.701Z</time></trkpt><trkpt lat="43.5385467" lon="11.4098119"><ele>722.0</ele><time>2026-04-18T10:50:30.701Z</time></trkpt><trkpt lat="43.5385798" lon="11.4097167"><ele>722.0</ele><time>2026-04-18T10:50:31.702Z</time></trkpt><trkpt lat="43.5386159" lon="11.4096161"><ele>722.0</ele><time>2026-04-18T10:50:32.701Z</time></trkpt><trkpt lat="43.5386544" lon="11.4095126"><ele>722.0</ele><time>2026-04-18T10:50:33.701Z</time></trkpt><trkpt lat="43.538696" lon="11.4094077"><ele>722.0</ele><time>2026-04-18T10:50:34.701Z</time></trkpt><trkpt lat="43.5387411" lon="11.4093039"><ele>722.0</ele><time>2026-04-18T10:50:35.701Z</time></trkpt><trkpt lat="43.5387929" lon="11.4091847"><ele>718.25</ele><time>2026-04-18T10:50:36.701Z</time></trkpt><trkpt lat="43.5388513" lon="11.4090464"><ele>714.5</ele><time>2026-04-18T10:50:37.701Z</time></trkpt><trkpt lat="43.5389104" lon="11.4088961"><ele>710.75</ele><time>2026-04-18T10:50:38.701Z</time></trkpt><trkpt lat="43.5389782" lon="11.4087511"><ele>707.0</ele><time>2026-04-18T10:50:39.701Z</time></trkpt><trkpt lat="43.5390679" lon="11.4086072"><ele>707.0</ele><time>2026-04-18T10:50:40.701Z</time></trkpt><trkpt lat="43.5391854" lon="11.4084964"><ele>707.0</ele><time>2026-04-18T10:50:41.702Z</time></trkpt><trkpt lat="43.5393303" lon="11.408442"><ele>707.0</ele><time>2026-04-18T10:50:42.701Z</time></trkpt><trkpt lat="43.5394984" lon="11.4084189"><ele>704.3333333333333</ele><time>2026-04-18T10:50:43.701Z</time></trkpt><trkpt lat="43.5396811" lon="11.4084267"><ele>701.6666666666666</ele><time>2026-04-18T10:50:44.702Z</time></trkpt><trkpt lat="43.5398685" lon="11.4084344"><ele>699.0</ele><time>2026-04-18T10:50:45.701Z</time></trkpt><trkpt lat="43.5400689" lon="11.4084383"><ele>699.0</ele><time>2026-04-18T10:50:46.701Z</time></trkpt><trkpt lat="43.5402731" lon="11.4084371"><ele>699.0</ele><time>2026-04-18T10:50:47.702Z</time></trkpt><trkpt lat="43.5404766" lon="11.4084388"><ele>699.0</ele><time>2026-04-18T10:50:48.701Z</time></trkpt><trkpt lat="43.5406905" lon="11.4084404"><ele>696.0</ele><time>2026-04-18T10:50:49.701Z</time></trkpt><trkpt lat="43.5409087" lon="11.4084455"><ele>693.0</ele><time>2026-04-18T10:50:50.702Z</time></trkpt><trkpt lat="43.5411324" lon="11.4084476"><ele>690.0</ele><time>2026-04-18T10:50:51.701Z</time></trkpt><trkpt lat="43.5413564" lon="11.4084481"><ele>683.0</ele><time>2026-04-18T10:50:52.702Z</time></trkpt><trkpt lat="43.5415842" lon="11.4084552"><ele>676.0</ele><time>2026-04-18T10:50:53.702Z</time></trkpt><trkpt lat="43.5418162" lon="11.4084543"><ele>676.0</ele><time>2026-04-18T10:50:54.699Z</time></trkpt><trkpt lat="43.5420433" lon="11.408456"><ele>676.0</ele><time>2026-04-18T10:50:55.702Z</time></trkpt><trkpt lat="43.5422741" lon="11.4084575"><ele>675.0</ele><time>2026-04-18T10:50:56.702Z</time></trkpt><trkpt lat="43.5425046" lon="11.4084625"><ele>674.0</ele><time>2026-04-18T10:50:57.701Z</time></trkpt><trkpt lat="43.5427278" lon="11.4084462"><ele>677.0</ele><time>2026-04-18T10:50:58.701Z</time></trkpt><trkpt lat="43.5429351" lon="11.4083933"><ele>680.0</ele><time>2026-04-18T10:50:59.702Z</time></trkpt><trkpt lat="43.5431349" lon="11.408311"><ele>683.0</ele><time>2026-04-18T10:51:00.701Z</time></trkpt><trkpt lat="43.5433235" lon="11.4082131"><ele>683.0</ele><time>2026-04-18T10:51:01.701Z</time></trkpt><trkpt lat="43.5435191" lon="11.4081062"><ele>683.0</ele><time>2026-04-18T10:51:02.701Z</time></trkpt><trkpt lat="43.5437049" lon="11.4079814"><ele>683.0</ele><time>2026-04-18T10:51:03.701Z</time></trkpt><trkpt lat="43.5438884" lon="11.4078677"><ele>686.6666666666666</ele><time>2026-04-18T10:51:04.701Z</time></trkpt><trkpt lat="43.5440727" lon="11.4077627"><ele>690.3333333333334</ele><time>2026-04-18T10:51:05.701Z</time></trkpt><trkpt lat="43.5442583" lon="11.4076635"><ele>694.0</ele><time>2026-04-18T10:51:06.701Z</time></trkpt><trkpt lat="43.5444217" lon="11.4075707"><ele>694.3333333333334</ele><time>2026-04-18T10:51:07.701Z</time></trkpt><trkpt lat="43.5445953" lon="11.4074763"><ele>694.6666666666666</ele><time>2026-04-18T10:51:08.701Z</time></trkpt><trkpt lat="43.5447691" lon="11.4073758"><ele>695.0</ele><time>2026-04-18T10:51:09.702Z</time></trkpt><trkpt lat="43.5449394" lon="11.4072832"><ele>695.0</ele><time>2026-04-18T10:51:10.701Z</time></trkpt><trkpt lat="43.5451061" lon="11.4071904"><ele>695.0</ele><time>2026-04-18T10:51:11.701Z</time></trkpt><trkpt lat="43.5452761" lon="11.4070916"><ele>695.0</ele><time>2026-04-18T10:51:12.702Z</time></trkpt><trkpt lat="43.545445" lon="11.4069921"><ele>694.0</ele><time>2026-04-18T10:51:13.702Z</time></trkpt><trkpt lat="43.5456048" lon="11.4068751"><ele>693.0</ele><time>2026-04-18T10:51:14.701Z</time></trkpt><trkpt lat="43.5457539" lon="11.4067415"><ele>692.0</ele><time>2026-04-18T10:51:15.702Z</time></trkpt><trkpt lat="43.5458911" lon="11.4065719"><ele>692.0</ele><time>2026-04-18T10:51:16.701Z</time></trkpt><trkpt lat="43.5460189" lon="11.4064055"><ele>692.0</ele><time>2026-04-18T10:51:17.701Z</time></trkpt><trkpt lat="43.5461375" lon="11.4062305"><ele>692.0</ele><time>2026-04-18T10:51:18.701Z</time></trkpt><trkpt lat="43.546236" lon="11.4060411"><ele>696.3333333333333</ele><time>2026-04-18T10:51:19.701Z</time></trkpt><trkpt lat="43.5463236" lon="11.4058476"><ele>700.6666666666666</ele><time>2026-04-18T10:51:20.701Z</time></trkpt><trkpt lat="43.5463994" lon="11.4056552"><ele>705.0</ele><time>2026-04-18T10:51:21.701Z</time></trkpt><trkpt lat="43.5464847" lon="11.4054643"><ele>705.0</ele><time>2026-04-18T10:51:22.702Z</time></trkpt><trkpt lat="43.5465708" lon="11.4052792"><ele>705.0</ele><time>2026-04-18T10:51:23.702Z</time></trkpt><trkpt lat="43.5466564" lon="11.4050876"><ele>705.0</ele><time>2026-04-18T10:51:24.701Z</time></trkpt><trkpt lat="43.5467352" lon="11.4049008"><ele>705.0</ele><time>2026-04-18T10:51:25.702Z</time></trkpt><trkpt lat="43.5468105" lon="11.4047165"><ele>705.0</ele><time>2026-04-18T10:51:26.701Z</time></trkpt><trkpt lat="43.5468844" lon="11.4045551"><ele>705.0</ele><time>2026-04-18T10:51:27.701Z</time></trkpt><trkpt lat="43.5469583" lon="11.4043915"><ele>705.0</ele><time>2026-04-18T10:51:28.701Z</time></trkpt><trkpt lat="43.5470322" lon="11.4042284"><ele>703.5</ele><time>2026-04-18T10:51:29.701Z</time></trkpt><trkpt lat="43.5471067" lon="11.4040611"><ele>702.0</ele><time>2026-04-18T10:51:30.702Z</time></trkpt><trkpt lat="43.5471879" lon="11.4038995"><ele>700.5</ele><time>2026-04-18T10:51:31.701Z</time></trkpt><trkpt lat="43.5472805" lon="11.4037508"><ele>699.0</ele><time>2026-04-18T10:51:32.701Z</time></trkpt><trkpt lat="43.5474005" lon="11.4036296"><ele>699.0</ele><time>2026-04-18T10:51:33.701Z</time></trkpt><trkpt lat="43.5475368" lon="11.4035539"><ele>699.0</ele><time>2026-04-18T10:51:34.701Z</time></trkpt><trkpt lat="43.5476858" lon="11.4034916"><ele>699.0</ele><time>2026-04-18T10:51:35.701Z</time></trkpt><trkpt lat="43.5478317" lon="11.4034314"><ele>701.75</ele><time>2026-04-18T10:51:36.701Z</time></trkpt><trkpt lat="43.5479634" lon="11.4033727"><ele>704.5</ele><time>2026-04-18T10:51:37.701Z</time></trkpt><trkpt lat="43.5480864" lon="11.4033035"><ele>707.25</ele><time>2026-04-18T10:51:38.701Z</time></trkpt><trkpt lat="43.5481916" lon="11.403209"><ele>710.0</ele><time>2026-04-18T10:51:39.702Z</time></trkpt><trkpt lat="43.5482712" lon="11.4030817"><ele>708.75</ele><time>2026-04-18T10:51:40.701Z</time></trkpt><trkpt lat="43.5483044" lon="11.4029155"><ele>707.5</ele><time>2026-04-18T10:51:41.701Z</time></trkpt><trkpt lat="43.5482975" lon="11.4027133"><ele>706.25</ele><time>2026-04-18T10:51:42.702Z</time></trkpt><trkpt lat="43.548251" lon="11.402528"><ele>705.0</ele><time>2026-04-18T10:51:43.701Z</time></trkpt><trkpt lat="43.5482078" lon="11.4023578"><ele>705.0</ele><time>2026-04-18T10:51:44.701Z</time></trkpt><trkpt lat="43.5481626" lon="11.40217"><ele>705.0</ele><time>2026-04-18T10:51:45.701Z</time></trkpt><trkpt lat="43.5481371" lon="11.4019817"><ele>705.0</ele><time>2026-04-18T10:51:46.701Z</time></trkpt><trkpt lat="43.5481577" lon="11.4017906"><ele>705.0</ele><time>2026-04-18T10:51:47.702Z</time></trkpt><trkpt lat="43.5481903" lon="11.4016048"><ele>706.25</ele><time>2026-04-18T10:51:48.702Z</time></trkpt><trkpt lat="43.5482139" lon="11.4014186"><ele>707.5</ele><time>2026-04-18T10:51:49.701Z</time></trkpt><trkpt lat="43.548223" lon="11.4012296"><ele>708.75</ele><time>2026-04-18T10:51:50.702Z</time></trkpt><trkpt lat="43.5482039" lon="11.4010587"><ele>710.0</ele><time>2026-04-18T10:51:51.701Z</time></trkpt><trkpt lat="43.5481621" lon="11.4008951"><ele>711.0</ele><time>2026-04-18T10:51:52.701Z</time></trkpt><trkpt lat="43.5481003" lon="11.4007247"><ele>712.0</ele><time>2026-04-18T10:51:53.702Z</time></trkpt><trkpt lat="43.5480278" lon="11.4005536"><ele>713.0</ele><time>2026-04-18T10:51:54.701Z</time></trkpt><trkpt lat="43.5479551" lon="11.4003907"><ele>714.0</ele><time>2026-04-18T10:51:55.701Z</time></trkpt><trkpt lat="43.5478811" lon="11.4002192"><ele>713.5</ele><time>2026-04-18T10:51:56.701Z</time></trkpt><trkpt lat="43.5478011" lon="11.4000512"><ele>713.0</ele><time>2026-04-18T10:51:57.701Z</time></trkpt><trkpt lat="43.5477239" lon="11.3998756"><ele>712.5</ele><time>2026-04-18T10:51:58.701Z</time></trkpt><trkpt lat="43.5476486" lon="11.3997051"><ele>712.0</ele><time>2026-04-18T10:51:59.701Z</time></trkpt><trkpt lat="43.5475753" lon="11.3995347"><ele>712.0</ele><time>2026-04-18T10:52:00.701Z</time></trkpt><trkpt lat="43.5474998" lon="11.3993715"><ele>712.0</ele><time>2026-04-18T10:52:01.701Z</time></trkpt><trkpt lat="43.5474222" lon="11.3991986"><ele>712.0</ele><time>2026-04-18T10:52:02.702Z</time></trkpt><trkpt lat="43.5473491" lon="11.3990238"><ele>712.0</ele><time>2026-04-18T10:52:03.701Z</time></trkpt><trkpt lat="43.5472726" lon="11.3988556"><ele>712.0</ele><time>2026-04-18T10:52:04.702Z</time></trkpt><trkpt lat="43.5471988" lon="11.3986942"><ele>712.0</ele><time>2026-04-18T10:52:05.702Z</time></trkpt><trkpt lat="43.5471247" lon="11.398551"><ele>712.0</ele><time>2026-04-18T10:52:06.701Z</time></trkpt><trkpt lat="43.5470436" lon="11.3984283"><ele>712.0</ele><time>2026-04-18T10:52:07.702Z</time></trkpt><trkpt lat="43.5469549" lon="11.3983117"><ele>710.75</ele><time>2026-04-18T10:52:08.702Z</time></trkpt><trkpt lat="43.5468656" lon="11.3981941"><ele>709.5</ele><time>2026-04-18T10:52:09.702Z</time></trkpt><trkpt lat="43.5467846" lon="11.3980677"><ele>708.25</ele><time>2026-04-18T10:52:10.701Z</time></trkpt><trkpt lat="43.5467165" lon="11.397932"><ele>707.0</ele><time>2026-04-18T10:52:11.701Z</time></trkpt><trkpt lat="43.5466844" lon="11.39779"><ele>707.0</ele><time>2026-04-18T10:52:12.702Z</time></trkpt><trkpt lat="43.5467103" lon="11.3976455"><ele>707.0</ele><time>2026-04-18T10:52:13.702Z</time></trkpt><trkpt lat="43.5467848" lon="11.3975318"><ele>707.0</ele><time>2026-04-18T10:52:14.701Z</time></trkpt><trkpt lat="43.5468999" lon="11.3974704"><ele>707.0</ele><time>2026-04-18T10:52:15.701Z</time></trkpt><trkpt lat="43.5470232" lon="11.3974567"><ele>710.25</ele><time>2026-04-18T10:52:16.701Z</time></trkpt><trkpt lat="43.5471447" lon="11.3974763"><ele>713.5</ele><time>2026-04-18T10:52:17.701Z</time></trkpt><trkpt lat="43.5472564" lon="11.397516"><ele>716.75</ele><time>2026-04-18T10:52:18.702Z</time></trkpt><trkpt lat="43.547375" lon="11.3975519"><ele>720.0</ele><time>2026-04-18T10:52:19.701Z</time></trkpt><trkpt lat="43.5474969" lon="11.3975778"><ele>720.0</ele><time>2026-04-18T10:52:20.701Z</time></trkpt><trkpt lat="43.5476177" lon="11.3976047"><ele>720.0</ele><time>2026-04-18T10:52:21.701Z</time></trkpt><trkpt lat="43.5477468" lon="11.3976104"><ele>720.0</ele><time>2026-04-18T10:52:22.702Z</time></trkpt><trkpt lat="43.5478803" lon="11.3976156"><ele>720.0</ele><time>2026-04-18T10:52:23.702Z</time></trkpt><trkpt lat="43.5480102" lon="11.3976128"><ele>722.75</ele><time>2026-04-18T10:52:24.701Z</time></trkpt><trkpt lat="43.5481352" lon="11.3976107"><ele>725.5</ele><time>2026-04-18T10:52:25.701Z</time></trkpt><trkpt lat="43.5482586" lon="11.3976061"><ele>728.25</ele><time>2026-04-18T10:52:26.692Z</time></trkpt><trkpt lat="43.548382" lon="11.3975988"><ele>731.0</ele><time>2026-04-18T10:52:27.701Z</time></trkpt><trkpt lat="43.5485005" lon="11.3976037"><ele>731.0</ele><time>2026-04-18T10:52:28.701Z</time></trkpt><trkpt lat="43.548624" lon="11.3976317"><ele>731.0</ele><time>2026-04-18T10:52:29.701Z</time></trkpt><trkpt lat="43.5487445" lon="11.3976823"><ele>731.0</ele><time>2026-04-18T10:52:30.701Z</time></trkpt><trkpt lat="43.548862" lon="11.3977381"><ele>731.0</ele><time>2026-04-18T10:52:31.701Z</time></trkpt><trkpt lat="43.5489729" lon="11.3977907"><ele>731.0</ele><time>2026-04-18T10:52:32.701Z</time></trkpt><trkpt lat="43.5490916" lon="11.3978389"><ele>731.0</ele><time>2026-04-18T10:52:33.701Z</time></trkpt><trkpt lat="43.5492122" lon="11.3978912"><ele>731.0</ele><time>2026-04-18T10:52:34.701Z</time></trkpt><trkpt lat="43.5493393" lon="11.3979537"><ele>731.0</ele><time>2026-04-18T10:52:35.699Z</time></trkpt><trkpt lat="43.5494675" lon="11.3980105"><ele>734.5</ele><time>2026-04-18T10:52:36.701Z</time></trkpt><trkpt lat="43.5495951" lon="11.398074"><ele>738.0</ele><time>2026-04-18T10:52:37.701Z</time></trkpt><trkpt lat="43.5497257" lon="11.3981418"><ele>741.5</ele><time>2026-04-18T10:52:38.701Z</time></trkpt><trkpt lat="43.5498565" lon="11.3982067"><ele>745.0</ele><time>2026-04-18T10:52:39.701Z</time></trkpt><trkpt lat="43.5499762" lon="11.3982695"><ele>745.0</ele><time>2026-04-18T10:52:40.702Z</time></trkpt><trkpt lat="43.5500742" lon="11.3983236"><ele>745.0</ele><time>2026-04-18T10:52:41.701Z</time></trkpt><trkpt lat="43.5501631" lon="11.3983647"><ele>745.0</ele><time>2026-04-18T10:52:42.701Z</time></trkpt><trkpt lat="43.5502407" lon="11.3983804"><ele>745.0</ele><time>2026-04-18T10:52:43.701Z</time></trkpt><trkpt lat="43.5503074" lon="11.3983858"><ele>745.0</ele><time>2026-04-18T10:52:44.701Z</time></trkpt><trkpt lat="43.5503949" lon="11.3983637"><ele>745.0</ele><time>2026-04-18T10:52:46.701Z</time></trkpt><trkpt lat="43.5504111" lon="11.3982785"><ele>745.0</ele><time>2026-04-18T10:52:48.701Z</time></trkpt><trkpt lat="43.5503503" lon="11.3982096"><ele>745.0</ele><time>2026-04-18T10:52:50.701Z</time></trkpt><trkpt lat="43.5502687" lon="11.3981976"><ele>745.0</ele><time>2026-04-18T10:52:53.701Z</time></trkpt><trkpt lat="43.5501831" lon="11.3981876"><ele>745.0</ele><time>2026-04-18T10:59:29.701Z</time></trkpt><trkpt lat="43.5500667" lon="11.398163"><ele>745.0</ele><time>2026-04-18T10:59:31.701Z</time></trkpt><trkpt lat="43.5500072" lon="11.398129"><ele>745.0</ele><time>2026-04-18T10:59:32.701Z</time></trkpt><trkpt lat="43.5499563" lon="11.398073"><ele>745.0</ele><time>2026-04-18T10:59:33.701Z</time></trkpt><trkpt lat="43.5498992" lon="11.3980069"><ele>745.0</ele><time>2026-04-18T10:59:34.701Z</time></trkpt><trkpt lat="43.5498509" lon="11.3979355"><ele>745.0</ele><time>2026-04-18T10:59:35.701Z</time></trkpt><trkpt lat="43.5497765" lon="11.397802"><ele>745.0</ele><time>2026-04-18T10:59:37.701Z</time></trkpt><trkpt lat="43.5497527" lon="11.3977047"><ele>745.0</ele><time>2026-04-18T10:59:38.701Z</time></trkpt><trkpt lat="43.5497407" lon="11.3976048"><ele>745.0</ele><time>2026-04-18T10:59:39.701Z</time></trkpt><trkpt lat="43.549738" lon="11.3975"><ele>746.8</ele><time>2026-04-18T10:59:40.701Z</time></trkpt><trkpt lat="43.5497602" lon="11.3973503"><ele>748.6</ele><time>2026-04-18T10:59:42.701Z</time></trkpt><trkpt lat="43.5498022" lon="11.397183"><ele>750.4000000000001</ele><time>2026-04-18T10:59:44.701Z</time></trkpt><trkpt lat="43.5498277" lon="11.3970935"><ele>752.2</ele><time>2026-04-18T10:59:45.701Z</time></trkpt><trkpt lat="43.5498563" lon="11.3969987"><ele>754.0</ele><time>2026-04-18T10:59:46.701Z</time></trkpt><trkpt lat="43.5498973" lon="11.3969263"><ele>755.8333333333334</ele><time>2026-04-18T10:59:47.701Z</time></trkpt><trkpt lat="43.5499278" lon="11.3968449"><ele>757.6666666666667</ele><time>2026-04-18T10:59:48.702Z</time></trkpt><trkpt lat="43.549957" lon="11.3967656"><ele>759.5</ele><time>2026-04-18T10:59:49.702Z</time></trkpt><trkpt lat="43.5499718" lon="11.3966758"><ele>761.3333333333334</ele><time>2026-04-18T10:59:50.702Z</time></trkpt><trkpt lat="43.5499917" lon="11.396518"><ele>763.1666666666666</ele><time>2026-04-18T10:59:52.701Z</time></trkpt><trkpt lat="43.5499926" lon="11.3964303"><ele>765.0</ele><time>2026-04-18T10:59:53.701Z</time></trkpt><trkpt lat="43.5499743" lon="11.3962737"><ele>765.8333333333334</ele><time>2026-04-18T10:59:55.701Z</time></trkpt><trkpt lat="43.5499994" lon="11.3961654"><ele>766.6666666666667</ele><time>2026-04-18T10:59:57.702Z</time></trkpt><trkpt lat="43.5500751" lon="11.3961132"><ele>767.5</ele><time>2026-04-18T10:59:58.701Z</time></trkpt><trkpt lat="43.5501574" lon="11.3960222"><ele>768.3333333333334</ele><time>2026-04-18T11:00:00.701Z</time></trkpt><trkpt lat="43.5501952" lon="11.3958935"><ele>769.1666666666667</ele><time>2026-04-18T11:00:02.702Z</time></trkpt><trkpt lat="43.5501936" lon="11.3958048"><ele>770.0</ele><time>2026-04-18T11:00:03.702Z</time></trkpt><trkpt lat="43.5501843" lon="11.3957146"><ele>770.0000000000001</ele><time>2026-04-18T11:00:04.702Z</time></trkpt><trkpt lat="43.5501918" lon="11.3956269"><ele>770.0</ele><time>2026-04-18T11:00:05.701Z</time></trkpt><trkpt lat="43.5502001" lon="11.3955207"><ele>770.0</ele><time>2026-04-18T11:00:06.701Z</time></trkpt><trkpt lat="43.5501996" lon="11.3954259"><ele>770.0</ele><time>2026-04-18T11:00:07.701Z</time></trkpt><trkpt lat="43.5501746" lon="11.3953365"><ele>770.0000000000001</ele><time>2026-04-18T11:00:08.701Z</time></trkpt><trkpt lat="43.550151" lon="11.3951764"><ele>770.0</ele><time>2026-04-18T11:00:10.702Z</time></trkpt><trkpt lat="43.5501478" lon="11.3950853"><ele>771.8</ele><time>2026-04-18T11:00:11.701Z</time></trkpt><trkpt lat="43.5501645" lon="11.3948985"><ele>773.6</ele><time>2026-04-18T11:00:13.701Z</time></trkpt><trkpt lat="43.5501923" lon="11.3947437"><ele>775.4000000000001</ele><time>2026-04-18T11:00:15.701Z</time></trkpt><trkpt lat="43.550208" lon="11.3946486"><ele>777.2</ele><time>2026-04-18T11:00:16.701Z</time></trkpt><trkpt lat="43.5502316" lon="11.3945629"><ele>779.0</ele><time>2026-04-18T11:00:17.701Z</time></trkpt><trkpt lat="43.5502403" lon="11.3944567"><ele>782.2</ele><time>2026-04-18T11:00:18.701Z</time></trkpt><trkpt lat="43.5502542" lon="11.3943605"><ele>785.4000000000001</ele><time>2026-04-18T11:00:19.702Z</time></trkpt><trkpt lat="43.55027" lon="11.3942178"><ele>788.6</ele><time>2026-04-18T11:00:21.702Z</time></trkpt><trkpt lat="43.5503489" lon="11.3941833"><ele>791.8</ele><time>2026-04-18T11:00:23.701Z</time></trkpt><trkpt lat="43.5504617" lon="11.3942693"><ele>795.0</ele><time>2026-04-18T11:00:25.701Z</time></trkpt><trkpt lat="43.5505143" lon="11.394343"><ele>795.1666666666666</ele><time>2026-04-18T11:00:26.701Z</time></trkpt><trkpt lat="43.5505451" lon="11.3944355"><ele>795.3333333333333</ele><time>2026-04-18T11:00:27.702Z</time></trkpt><trkpt lat="43.5505929" lon="11.3945372"><ele>795.5</ele><time>2026-04-18T11:00:28.701Z</time></trkpt><trkpt lat="43.5506239" lon="11.3946311"><ele>795.6666666666666</ele><time>2026-04-18T11:00:29.701Z</time></trkpt><trkpt lat="43.5506376" lon="11.394739"><ele>795.8333333333333</ele><time>2026-04-18T11:00:30.701Z</time></trkpt><trkpt lat="43.5506449" lon="11.3948466"><ele>796.0</ele><time>2026-04-18T11:00:31.701Z</time></trkpt><trkpt lat="43.5506786" lon="11.3949487"><ele>796.0</ele><time>2026-04-18T11:00:32.702Z</time></trkpt><trkpt lat="43.5507218" lon="11.3950707"><ele>796.0</ele><time>2026-04-18T11:00:33.702Z</time></trkpt><trkpt lat="43.550747" lon="11.3951912"><ele>796.0</ele><time>2026-04-18T11:00:34.702Z</time></trkpt><trkpt lat="43.5507854" lon="11.3952822"><ele>796.0</ele><time>2026-04-18T11:00:35.702Z</time></trkpt><trkpt lat="43.5508744" lon="11.3953842"><ele>796.0</ele><time>2026-04-18T11:00:37.701Z</time></trkpt><trkpt lat="43.5509457" lon="11.3953867"><ele>795.9999999999999</ele><time>2026-04-18T11:00:38.698Z</time></trkpt><trkpt lat="43.5510286" lon="11.3953751"><ele>796.0</ele><time>2026-04-18T11:00:39.701Z</time></trkpt><trkpt lat="43.551104" lon="11.3953699"><ele>796.0</ele><time>2026-04-18T11:00:40.701Z</time></trkpt><trkpt lat="43.5511865" lon="11.3953616"><ele>796.0</ele><time>2026-04-18T11:00:41.702Z</time></trkpt><trkpt lat="43.5512784" lon="11.3953389"><ele>795.9999999999999</ele><time>2026-04-18T11:00:42.701Z</time></trkpt><trkpt lat="43.5513799" lon="11.3952923"><ele>796.0</ele><time>2026-04-18T11:00:43.702Z</time></trkpt><trkpt lat="43.5514646" lon="11.3952539"><ele>795.1999999999999</ele><time>2026-04-18T11:00:44.702Z</time></trkpt><trkpt lat="43.5515414" lon="11.395213"><ele>794.4</ele><time>2026-04-18T11:00:45.701Z</time></trkpt><trkpt lat="43.5515931" lon="11.3951567"><ele>793.6</ele><time>2026-04-18T11:00:46.701Z</time></trkpt><trkpt lat="43.5515794" lon="11.3950332"><ele>792.8</ele><time>2026-04-18T11:00:48.702Z</time></trkpt><trkpt lat="43.5514956" lon="11.3948934"><ele>792.0</ele><time>2026-04-18T11:00:50.701Z</time></trkpt><trkpt lat="43.5514358" lon="11.3948167"><ele>792.0</ele><time>2026-04-18T11:00:51.701Z</time></trkpt><trkpt lat="43.5513796" lon="11.3947427"><ele>792.0</ele><time>2026-04-18T11:00:52.701Z</time></trkpt><trkpt lat="43.5513366" lon="11.3946656"><ele>792.0</ele><time>2026-04-18T11:00:53.702Z</time></trkpt><trkpt lat="43.5512961" lon="11.3945957"><ele>792.0</ele><time>2026-04-18T11:00:54.701Z</time></trkpt><trkpt lat="43.5512501" lon="11.3945262"><ele>792.0</ele><time>2026-04-18T11:00:55.701Z</time></trkpt><trkpt lat="43.5512081" lon="11.3944379"><ele>792.0</ele><time>2026-04-18T11:00:56.701Z</time></trkpt><trkpt lat="43.5511687" lon="11.3943432"><ele>792.0</ele><time>2026-04-18T11:00:57.702Z</time></trkpt><trkpt lat="43.5511255" lon="11.3942309"><ele>793.5</ele><time>2026-04-18T11:00:58.701Z</time></trkpt><trkpt lat="43.5510753" lon="11.3941274"><ele>795.0</ele><time>2026-04-18T11:00:59.701Z</time></trkpt><trkpt lat="43.5510307" lon="11.3940318"><ele>796.5</ele><time>2026-04-18T11:01:00.701Z</time></trkpt><trkpt lat="43.5509953" lon="11.3939358"><ele>798.0</ele><time>2026-04-18T11:01:01.701Z</time></trkpt><trkpt lat="43.5509733" lon="11.39383"><ele>799.5</ele><time>2026-04-18T11:01:02.701Z</time></trkpt><trkpt lat="43.550958" lon="11.393735"><ele>801.0</ele><time>2026-04-18T11:01:03.702Z</time></trkpt><trkpt lat="43.5509565" lon="11.3936466"><ele>802.1666666666666</ele><time>2026-04-18T11:01:04.701Z</time></trkpt><trkpt lat="43.5510323" lon="11.3935349"><ele>803.3333333333333</ele><time>2026-04-18T11:01:06.701Z</time></trkpt><trkpt lat="43.5510914" lon="11.3934953"><ele>804.5</ele><time>2026-04-18T11:01:07.701Z</time></trkpt><trkpt lat="43.5511951" lon="11.3933973"><ele>805.6666666666666</ele><time>2026-04-18T11:01:09.701Z</time></trkpt><trkpt lat="43.5512254" lon="11.3933122"><ele>806.8333333333333</ele><time>2026-04-18T11:01:10.701Z</time></trkpt><trkpt lat="43.5512553" lon="11.393222"><ele>808.0</ele><time>2026-04-18T11:01:11.702Z</time></trkpt><trkpt lat="43.5512798" lon="11.3931268"><ele>807.9999999999999</ele><time>2026-04-18T11:01:12.701Z</time></trkpt><trkpt lat="43.551276" lon="11.3930286"><ele>808.0</ele><time>2026-04-18T11:01:13.702Z</time></trkpt><trkpt lat="43.5512508" lon="11.3929301"><ele>808.0</ele><time>2026-04-18T11:01:14.701Z</time></trkpt><trkpt lat="43.5511943" lon="11.3928839"><ele>808.0</ele><time>2026-04-18T11:01:15.702Z</time></trkpt><trkpt lat="43.5511224" lon="11.3928906"><ele>807.9999999999999</ele><time>2026-04-18T11:01:16.702Z</time></trkpt><trkpt lat="43.5510526" lon="11.3929394"><ele>808.0</ele><time>2026-04-18T11:01:17.701Z</time></trkpt><trkpt lat="43.5509778" lon="11.393031"><ele>809.4999999999999</ele><time>2026-04-18T11:01:18.701Z</time></trkpt><trkpt lat="43.5509186" lon="11.3931099"><ele>811.0</ele><time>2026-04-18T11:01:19.701Z</time></trkpt><trkpt lat="43.5508569" lon="11.3931448"><ele>812.5</ele><time>2026-04-18T11:01:20.701Z</time></trkpt><trkpt lat="43.5507733" lon="11.3931357"><ele>814.0</ele><time>2026-04-18T11:01:21.701Z</time></trkpt><trkpt lat="43.5506928" lon="11.3931063"><ele>815.4999999999999</ele><time>2026-04-18T11:01:22.701Z</time></trkpt><trkpt lat="43.5506161" lon="11.3930912"><ele>817.0</ele><time>2026-04-18T11:01:23.701Z</time></trkpt><trkpt lat="43.5505478" lon="11.393056"><ele>818.8</ele><time>2026-04-18T11:01:24.701Z</time></trkpt><trkpt lat="43.5504828" lon="11.392988"><ele>820.6</ele><time>2026-04-18T11:01:25.701Z</time></trkpt><trkpt lat="43.550411" lon="11.3929105"><ele>822.4</ele><time>2026-04-18T11:01:26.702Z</time></trkpt><trkpt lat="43.5503397" lon="11.3928154"><ele>824.1999999999999</ele><time>2026-04-18T11:01:27.701Z</time></trkpt><trkpt lat="43.5502783" lon="11.3927007"><ele>826.0</ele><time>2026-04-18T11:01:28.701Z</time></trkpt><trkpt lat="43.5502313" lon="11.3926059"><ele>825.9999999999999</ele><time>2026-04-18T11:01:29.701Z</time></trkpt><trkpt lat="43.5502085" lon="11.3925135"><ele>826.0</ele><time>2026-04-18T11:01:30.701Z</time></trkpt><trkpt lat="43.5501988" lon="11.3924244"><ele>826.0</ele><time>2026-04-18T11:01:31.701Z</time></trkpt><trkpt lat="43.5502136" lon="11.3923258"><ele>826.0</ele><time>2026-04-18T11:01:32.701Z</time></trkpt><trkpt lat="43.5502255" lon="11.3922204"><ele>825.9999999999999</ele><time>2026-04-18T11:01:33.702Z</time></trkpt><trkpt lat="43.5502589" lon="11.3921103"><ele>826.0</ele><time>2026-04-18T11:01:34.701Z</time></trkpt><trkpt lat="43.5502814" lon="11.3919797"><ele>828.8</ele><time>2026-04-18T11:01:35.701Z</time></trkpt><trkpt lat="43.5503106" lon="11.3918513"><ele>831.5999999999999</ele><time>2026-04-18T11:01:36.701Z</time></trkpt><trkpt lat="43.5503318" lon="11.3917071"><ele>834.4</ele><time>2026-04-18T11:01:37.702Z</time></trkpt><trkpt lat="43.5503546" lon="11.3915739"><ele>837.2</ele><time>2026-04-18T11:01:38.701Z</time></trkpt><trkpt lat="43.5503744" lon="11.3914435"><ele>840.0</ele><time>2026-04-18T11:01:39.702Z</time></trkpt><trkpt lat="43.5503998" lon="11.3913104"><ele>843.0</ele><time>2026-04-18T11:01:40.701Z</time></trkpt><trkpt lat="43.5504233" lon="11.3911947"><ele>846.0</ele><time>2026-04-18T11:01:41.701Z</time></trkpt><trkpt lat="43.5504252" lon="11.3910931"><ele>849.0</ele><time>2026-04-18T11:01:42.702Z</time></trkpt><trkpt lat="43.5504051" lon="11.3909829"><ele>852.0</ele><time>2026-04-18T11:01:44.701Z</time></trkpt><trkpt lat="43.5503046" lon="11.3909464"><ele>855.0</ele><time>2026-04-18T11:01:47.701Z</time></trkpt><trkpt lat="43.550241" lon="11.3909678"><ele>858.0</ele><time>2026-04-18T11:01:48.701Z</time></trkpt><trkpt lat="43.5501814" lon="11.3909959"><ele>858.0</ele><time>2026-04-18T11:01:49.701Z</time></trkpt><trkpt lat="43.5501174" lon="11.3910145"><ele>858.0</ele><time>2026-04-18T11:01:50.701Z</time></trkpt><trkpt lat="43.5500247" lon="11.391102"><ele>858.0</ele><time>2026-04-18T11:01:52.702Z</time></trkpt><trkpt lat="43.5499271" lon="11.3910872"><ele>858.0</ele><time>2026-04-18T11:01:54.701Z</time></trkpt><trkpt lat="43.549849" lon="11.3909645"><ele>858.0</ele><time>2026-04-18T11:01:56.701Z</time></trkpt><trkpt lat="43.5497835" lon="11.3908422"><ele>858.0</ele><time>2026-04-18T11:01:57.701Z</time></trkpt><trkpt lat="43.5497202" lon="11.3907321"><ele>858.0</ele><time>2026-04-18T11:01:58.701Z</time></trkpt><trkpt lat="43.5496554" lon="11.3906293"><ele>858.0</ele><time>2026-04-18T11:01:59.701Z</time></trkpt><trkpt lat="43.5496247" lon="11.3905186"><ele>858.0</ele><time>2026-04-18T11:02:00.701Z</time></trkpt><trkpt lat="43.5495922" lon="11.3904088"><ele>858.0</ele><time>2026-04-18T11:02:01.701Z</time></trkpt><trkpt lat="43.5495646" lon="11.3902906"><ele>857.2</ele><time>2026-04-18T11:02:02.701Z</time></trkpt><trkpt lat="43.5495277" lon="11.3901587"><ele>856.4</ele><time>2026-04-18T11:02:03.701Z</time></trkpt><trkpt lat="43.5494874" lon="11.3900108"><ele>855.6000000000001</ele><time>2026-04-18T11:02:04.701Z</time></trkpt><trkpt lat="43.5494598" lon="11.3898878"><ele>854.8000000000001</ele><time>2026-04-18T11:02:05.702Z</time></trkpt><trkpt lat="43.5494329" lon="11.3897756"><ele>854.0</ele><time>2026-04-18T11:02:06.702Z</time></trkpt><trkpt lat="43.5493693" lon="11.3896686"><ele>857.2</ele><time>2026-04-18T11:02:07.701Z</time></trkpt><trkpt lat="43.5492947" lon="11.3895961"><ele>860.4000000000001</ele><time>2026-04-18T11:02:08.701Z</time></trkpt><trkpt lat="43.5492111" lon="11.3895237"><ele>863.6</ele><time>2026-04-18T11:02:09.701Z</time></trkpt><trkpt lat="43.549149" lon="11.3894456"><ele>866.8</ele><time>2026-04-18T11:02:10.701Z</time></trkpt><trkpt lat="43.549095" lon="11.3893852"><ele>870.0</ele><time>2026-04-18T11:02:11.701Z</time></trkpt><trkpt lat="43.5490141" lon="11.3892382"><ele>870.0</ele><time>2026-04-18T11:02:13.702Z</time></trkpt><trkpt lat="43.5489642" lon="11.3891348"><ele>870.0</ele><time>2026-04-18T11:02:14.701Z</time></trkpt><trkpt lat="43.5489175" lon="11.3890227"><ele>870.0</ele><time>2026-04-18T11:02:15.701Z</time></trkpt><trkpt lat="43.5488885" lon="11.3889408"><ele>870.0</ele><time>2026-04-18T11:02:16.701Z</time></trkpt><trkpt lat="43.5488572" lon="11.3888526"><ele>870.0</ele><time>2026-04-18T11:02:17.702Z</time></trkpt><trkpt lat="43.5488413" lon="11.388764"><ele>870.0</ele><time>2026-04-18T11:02:18.702Z</time></trkpt><trkpt lat="43.5488572" lon="11.3885934"><ele>870.2</ele><time>2026-04-18T11:02:20.702Z</time></trkpt><trkpt lat="43.5489231" lon="11.3884851"><ele>870.4</ele><time>2026-04-18T11:02:22.701Z</time></trkpt><trkpt lat="43.5490081" lon="11.3884035"><ele>870.5999999999999</ele><time>2026-04-18T11:02:24.702Z</time></trkpt><trkpt lat="43.5490604" lon="11.3883021"><ele>870.8</ele><time>2026-04-18T11:02:26.701Z</time></trkpt><trkpt lat="43.5490807" lon="11.3881513"><ele>871.0</ele><time>2026-04-18T11:02:28.701Z</time></trkpt><trkpt lat="43.5491193" lon="11.3879697"><ele>870.1666666666666</ele><time>2026-04-18T11:02:30.701Z</time></trkpt><trkpt lat="43.549135" lon="11.3878593"><ele>869.3333333333333</ele><time>2026-04-18T11:02:31.701Z</time></trkpt><trkpt lat="43.5491421" lon="11.3877398"><ele>868.5</ele><time>2026-04-18T11:02:32.701Z</time></trkpt><trkpt lat="43.5491513" lon="11.3876158"><ele>867.6666666666667</ele><time>2026-04-18T11:02:33.701Z</time></trkpt><trkpt lat="43.5491569" lon="11.3874604"><ele>866.8333333333334</ele><time>2026-04-18T11:02:35.701Z</time></trkpt><trkpt lat="43.5491486" lon="11.3873593"><ele>866.0</ele><time>2026-04-18T11:02:37.701Z</time></trkpt><trkpt lat="43.5491573" lon="11.3872462"><ele>864.3333333333334</ele><time>2026-04-18T11:02:40.701Z</time></trkpt><trkpt lat="43.5491846" lon="11.3871602"><ele>862.6666666666667</ele><time>2026-04-18T11:02:42.701Z</time></trkpt><trkpt lat="43.5492867" lon="11.387007"><ele>861.0</ele><time>2026-04-18T11:02:44.701Z</time></trkpt><trkpt lat="43.5493425" lon="11.3869193"><ele>859.3333333333333</ele><time>2026-04-18T11:02:45.701Z</time></trkpt><trkpt lat="43.5493947" lon="11.3868392"><ele>857.6666666666666</ele><time>2026-04-18T11:02:46.701Z</time></trkpt><trkpt lat="43.5494455" lon="11.3867824"><ele>856.0</ele><time>2026-04-18T11:02:47.701Z</time></trkpt><trkpt lat="43.5495172" lon="11.3866732"><ele>856.9999999999999</ele><time>2026-04-18T11:02:49.701Z</time></trkpt><trkpt lat="43.5495904" lon="11.3865717"><ele>858.0</ele><time>2026-04-18T11:02:51.701Z</time></trkpt><trkpt lat="43.5496496" lon="11.38651"><ele>859.0</ele><time>2026-04-18T11:02:52.702Z</time></trkpt><trkpt lat="43.5497059" lon="11.3864605"><ele>860.0</ele><time>2026-04-18T11:02:53.701Z</time></trkpt><trkpt lat="43.5497661" lon="11.3864166"><ele>860.9999999999999</ele><time>2026-04-18T11:02:54.701Z</time></trkpt><trkpt lat="43.5498289" lon="11.3863773"><ele>862.0</ele><time>2026-04-18T11:02:55.701Z</time></trkpt><trkpt lat="43.5499377" lon="11.3863134"><ele>861.9999999999999</ele><time>2026-04-18T11:02:57.701Z</time></trkpt><trkpt lat="43.5500116" lon="11.3862773"><ele>862.0</ele><time>2026-04-18T11:02:58.702Z</time></trkpt><trkpt lat="43.5500715" lon="11.3862212"><ele>862.0</ele><time>2026-04-18T11:02:59.702Z</time></trkpt><trkpt lat="43.5501668" lon="11.3861247"><ele>862.0</ele><time>2026-04-18T11:03:01.701Z</time></trkpt><trkpt lat="43.5502314" lon="11.386053"><ele>861.9999999999999</ele><time>2026-04-18T11:03:03.701Z</time></trkpt><trkpt lat="43.5502102" lon="11.3861747"><ele>862.0</ele><time>2026-04-18T11:03:55.702Z</time></trkpt><trkpt lat="43.5502159" lon="11.386302"><ele>864.2</ele><time>2026-04-18T11:03:57.702Z</time></trkpt><trkpt lat="43.5502356" lon="11.3863856"><ele>866.4000000000001</ele><time>2026-04-18T11:03:58.701Z</time></trkpt><trkpt lat="43.5502537" lon="11.386549"><ele>868.5999999999999</ele><time>2026-04-18T11:04:00.701Z</time></trkpt><trkpt lat="43.5502322" lon="11.3867113"><ele>870.8</ele><time>2026-04-18T11:04:02.702Z</time></trkpt><trkpt lat="43.5502203" lon="11.3868115"><ele>873.0</ele><time>2026-04-18T11:04:03.701Z</time></trkpt><trkpt lat="43.5502024" lon="11.38691"><ele>873.0</ele><time>2026-04-18T11:04:04.701Z</time></trkpt><trkpt lat="43.5501733" lon="11.3870149"><ele>873.0</ele><time>2026-04-18T11:04:05.701Z</time></trkpt><trkpt lat="43.5501555" lon="11.3871262"><ele>873.0</ele><time>2026-04-18T11:04:06.701Z</time></trkpt><trkpt lat="43.5501355" lon="11.3872272"><ele>873.0</ele><time>2026-04-18T11:04:07.701Z</time></trkpt><trkpt lat="43.5501095" lon="11.3873246"><ele>873.0</ele><time>2026-04-18T11:04:08.701Z</time></trkpt><trkpt lat="43.5500846" lon="11.3874188"><ele>873.0</ele><time>2026-04-18T11:04:09.702Z</time></trkpt><trkpt lat="43.5500745" lon="11.387512"><ele>875.1666666666666</ele><time>2026-04-18T11:04:10.701Z</time></trkpt><trkpt lat="43.5501375" lon="11.3876594"><ele>877.3333333333333</ele><time>2026-04-18T11:04:12.701Z</time></trkpt><trkpt lat="43.5501847" lon="11.3877228"><ele>879.5</ele><time>2026-04-18T11:04:13.701Z</time></trkpt><trkpt lat="43.5502381" lon="11.387782"><ele>881.6666666666666</ele><time>2026-04-18T11:04:14.702Z</time></trkpt><trkpt lat="43.5503014" lon="11.3878467"><ele>883.8333333333333</ele><time>2026-04-18T11:04:15.701Z</time></trkpt><trkpt lat="43.5503653" lon="11.3879107"><ele>886.0</ele><time>2026-04-18T11:04:16.701Z</time></trkpt><trkpt lat="43.5504381" lon="11.3879893"><ele>888.1666666666666</ele><time>2026-04-18T11:04:17.701Z</time></trkpt><trkpt lat="43.5505145" lon="11.3880501"><ele>890.3333333333333</ele><time>2026-04-18T11:04:18.701Z</time></trkpt><trkpt lat="43.5505899" lon="11.3880958"><ele>892.5</ele><time>2026-04-18T11:04:19.702Z</time></trkpt><trkpt lat="43.5506596" lon="11.3881383"><ele>894.6666666666667</ele><time>2026-04-18T11:04:20.701Z</time></trkpt><trkpt lat="43.5507433" lon="11.3881936"><ele>896.8333333333334</ele><time>2026-04-18T11:04:21.701Z</time></trkpt><trkpt lat="43.5508167" lon="11.3882428"><ele>899.0</ele><time>2026-04-18T11:04:22.702Z</time></trkpt><trkpt lat="43.5508854" lon="11.3882892"><ele>899.0000000000001</ele><time>2026-04-18T11:04:23.701Z</time></trkpt><trkpt lat="43.5509633" lon="11.3883354"><ele>899.0</ele><time>2026-04-18T11:04:24.701Z</time></trkpt><trkpt lat="43.5510392" lon="11.3883948"><ele>899.0</ele><time>2026-04-18T11:04:25.701Z</time></trkpt><trkpt lat="43.5511238" lon="11.38844"><ele>899.0</ele><time>2026-04-18T11:04:26.701Z</time></trkpt><trkpt lat="43.5512104" lon="11.3884719"><ele>899.0000000000001</ele><time>2026-04-18T11:04:27.702Z</time></trkpt><trkpt lat="43.551293" lon="11.3885057"><ele>899.0</ele><time>2026-04-18T11:04:28.701Z</time></trkpt><trkpt lat="43.5513527" lon="11.3885472"><ele>899.5000000000001</ele><time>2026-04-18T11:04:29.702Z</time></trkpt><trkpt lat="43.5514153" lon="11.3885835"><ele>900.0</ele><time>2026-04-18T11:04:30.701Z</time></trkpt><trkpt lat="43.5515286" lon="11.3886349"><ele>900.5</ele><time>2026-04-18T11:04:32.701Z</time></trkpt><trkpt lat="43.5515942" lon="11.3886395"><ele>901.0</ele><time>2026-04-18T11:04:33.702Z</time></trkpt><trkpt lat="43.5516581" lon="11.3886398"><ele>901.5000000000001</ele><time>2026-04-18T11:04:34.701Z</time></trkpt><trkpt lat="43.5517505" lon="11.3886298"><ele>902.0</ele><time>2026-04-18T11:04:36.702Z</time></trkpt><trkpt lat="43.5518318" lon="11.3886384"><ele>902.0000000000001</ele><time>2026-04-18T11:04:39.701Z</time></trkpt><trkpt lat="43.5518818" lon="11.3887088"><ele>902.0</ele><time>2026-04-18T11:04:41.701Z</time></trkpt><trkpt lat="43.5519452" lon="11.3888404"><ele>902.0</ele><time>2026-04-18T11:04:43.701Z</time></trkpt><trkpt lat="43.5519971" lon="11.388905"><ele>902.0</ele><time>2026-04-18T11:04:44.701Z</time></trkpt><trkpt lat="43.5520594" lon="11.3889381"><ele>902.0000000000001</ele><time>2026-04-18T11:04:45.701Z</time></trkpt><trkpt lat="43.5521367" lon="11.3889371"><ele>902.0</ele><time>2026-04-18T11:04:47.702Z</time></trkpt><trkpt lat="43.5522359" lon="11.3888984"><ele>902.1666666666667</ele><time>2026-04-18T11:04:49.701Z</time></trkpt><trkpt lat="43.5523457" lon="11.3888182"><ele>902.3333333333334</ele><time>2026-04-18T11:04:51.701Z</time></trkpt><trkpt lat="43.5524539" lon="11.3887404"><ele>902.5</ele><time>2026-04-18T11:04:53.701Z</time></trkpt><trkpt lat="43.5525088" lon="11.3886972"><ele>902.6666666666667</ele><time>2026-04-18T11:04:54.702Z</time></trkpt><trkpt lat="43.5525655" lon="11.3886509"><ele>902.8333333333334</ele><time>2026-04-18T11:04:55.702Z</time></trkpt><trkpt lat="43.5526181" lon="11.3885973"><ele>903.0</ele><time>2026-04-18T11:04:56.702Z</time></trkpt><trkpt lat="43.5526698" lon="11.3885393"><ele>903.0</ele><time>2026-04-18T11:04:57.701Z</time></trkpt><trkpt lat="43.5527195" lon="11.3884805"><ele>903.0</ele><time>2026-04-18T11:04:58.701Z</time></trkpt><trkpt lat="43.552772" lon="11.3884192"><ele>903.0</ele><time>2026-04-18T11:04:59.702Z</time></trkpt><trkpt lat="43.5528313" lon="11.3883674"><ele>903.0</ele><time>2026-04-18T11:05:00.701Z</time></trkpt><trkpt lat="43.5528934" lon="11.3883219"><ele>903.0</ele><time>2026-04-18T11:05:01.701Z</time></trkpt><trkpt lat="43.5529528" lon="11.3882759"><ele>903.0</ele><time>2026-04-18T11:05:02.701Z</time></trkpt><trkpt lat="43.553011" lon="11.3882208"><ele>903.0</ele><time>2026-04-18T11:05:03.702Z</time></trkpt><trkpt lat="43.5530639" lon="11.3881649"><ele>900.8</ele><time>2026-04-18T11:05:04.701Z</time></trkpt><trkpt lat="43.5531603" lon="11.388076"><ele>898.5999999999999</ele><time>2026-04-18T11:05:06.701Z</time></trkpt><trkpt lat="43.5532499" lon="11.3880038"><ele>896.4000000000001</ele><time>2026-04-18T11:05:08.701Z</time></trkpt><trkpt lat="43.5533486" lon="11.3879322"><ele>894.2</ele><time>2026-04-18T11:05:10.701Z</time></trkpt><trkpt lat="43.5534302" lon="11.3878497"><ele>892.0</ele><time>2026-04-18T11:05:12.701Z</time></trkpt><trkpt lat="43.5535045" lon="11.3877673"><ele>892.0</ele><time>2026-04-18T11:05:14.701Z</time></trkpt><trkpt lat="43.5536025" lon="11.3876909"><ele>892.0</ele><time>2026-04-18T11:05:16.702Z</time></trkpt><trkpt lat="43.553705" lon="11.3876038"><ele>892.0</ele><time>2026-04-18T11:05:18.701Z</time></trkpt><trkpt lat="43.5537895" lon="11.3874934"><ele>892.0</ele><time>2026-04-18T11:05:20.701Z</time></trkpt><trkpt lat="43.5538478" lon="11.3873447"><ele>890.9999999999999</ele><time>2026-04-18T11:05:22.701Z</time></trkpt><trkpt lat="43.5538889" lon="11.3872627"><ele>890.0</ele><time>2026-04-18T11:05:24.701Z</time></trkpt><trkpt lat="43.5539515" lon="11.3871805"><ele>889.0</ele><time>2026-04-18T11:05:27.701Z</time></trkpt><trkpt lat="43.5540315" lon="11.3871396"><ele>888.0</ele><time>2026-04-18T11:05:29.701Z</time></trkpt><trkpt lat="43.5540962" lon="11.3870968"><ele>886.9999999999999</ele><time>2026-04-18T11:05:30.702Z</time></trkpt><trkpt lat="43.5541595" lon="11.3870621"><ele>886.0</ele><time>2026-04-18T11:05:31.702Z</time></trkpt><trkpt lat="43.554249" lon="11.3870359"><ele>886.0</ele><time>2026-04-18T11:05:33.701Z</time></trkpt><trkpt lat="43.5543468" lon="11.3870294"><ele>885.9999999999999</ele><time>2026-04-18T11:05:35.702Z</time></trkpt><trkpt lat="43.5544183" lon="11.3870203"><ele>885.9999999999999</ele><time>2026-04-18T11:05:48.701Z</time></trkpt><trkpt lat="43.5545342" lon="11.3869818"><ele>886.0</ele><time>2026-04-18T11:05:50.701Z</time></trkpt><trkpt lat="43.5546013" lon="11.3869543"><ele>886.0</ele><time>2026-04-18T11:05:51.701Z</time></trkpt><trkpt lat="43.5547344" lon="11.3869387"><ele>886.0</ele><time>2026-04-18T11:05:53.702Z</time></trkpt><trkpt lat="43.5548188" lon="11.3869341"><ele>885.9999999999999</ele><time>2026-04-18T11:05:54.701Z</time></trkpt><trkpt lat="43.5549128" lon="11.3869435"><ele>885.9999999999999</ele><time>2026-04-18T11:05:55.701Z</time></trkpt><trkpt lat="43.555032" lon="11.3869514"><ele>886.0</ele><time>2026-04-18T11:05:56.701Z</time></trkpt><trkpt lat="43.5551569" lon="11.3869637"><ele>886.0</ele><time>2026-04-18T11:05:57.701Z</time></trkpt><trkpt lat="43.5552823" lon="11.3869657"><ele>883.75</ele><time>2026-04-18T11:05:58.701Z</time></trkpt><trkpt lat="43.5554004" lon="11.3869709"><ele>881.5</ele><time>2026-04-18T11:05:59.702Z</time></trkpt><trkpt lat="43.5555152" lon="11.3869725"><ele>879.25</ele><time>2026-04-18T11:06:00.702Z</time></trkpt><trkpt lat="43.5556253" lon="11.3869605"><ele>877.0</ele><time>2026-04-18T11:06:01.701Z</time></trkpt><trkpt lat="43.5557406" lon="11.3869389"><ele>877.0</ele><time>2026-04-18T11:06:02.701Z</time></trkpt><trkpt lat="43.555862" lon="11.3869323"><ele>877.0</ele><time>2026-04-18T11:06:03.701Z</time></trkpt><trkpt lat="43.5559806" lon="11.3869143"><ele>877.0</ele><time>2026-04-18T11:06:04.702Z</time></trkpt><trkpt lat="43.5560889" lon="11.3868968"><ele>877.0</ele><time>2026-04-18T11:06:05.702Z</time></trkpt><trkpt lat="43.5561841" lon="11.3868803"><ele>877.0</ele><time>2026-04-18T11:06:06.702Z</time></trkpt><trkpt lat="43.5562771" lon="11.3868629"><ele>875.6</ele><time>2026-04-18T11:06:07.701Z</time></trkpt><trkpt lat="43.5563579" lon="11.3868282"><ele>874.2</ele><time>2026-04-18T11:06:08.702Z</time></trkpt><trkpt lat="43.5564432" lon="11.386765"><ele>872.8</ele><time>2026-04-18T11:06:09.702Z</time></trkpt><trkpt lat="43.5565208" lon="11.3867109"><ele>871.4</ele><time>2026-04-18T11:06:10.701Z</time></trkpt><trkpt lat="43.5565996" lon="11.3866636"><ele>870.0</ele><time>2026-04-18T11:06:11.701Z</time></trkpt><trkpt lat="43.5566703" lon="11.38653"><ele>870.0</ele><time>2026-04-18T11:06:13.701Z</time></trkpt><trkpt lat="43.5566983" lon="11.3864341"><ele>870.0</ele><time>2026-04-18T11:06:14.701Z</time></trkpt><trkpt lat="43.5567453" lon="11.3863188"><ele>870.0</ele><time>2026-04-18T11:06:15.701Z</time></trkpt><trkpt lat="43.5567962" lon="11.3862183"><ele>870.0</ele><time>2026-04-18T11:06:16.702Z</time></trkpt><trkpt lat="43.5568488" lon="11.3861304"><ele>870.0</ele><time>2026-04-18T11:06:17.701Z</time></trkpt><trkpt lat="43.5569037" lon="11.386034"><ele>870.0</ele><time>2026-04-18T11:06:18.701Z</time></trkpt><trkpt lat="43.5569526" lon="11.3859297"><ele>870.0</ele><time>2026-04-18T11:06:19.701Z</time></trkpt><trkpt lat="43.5570069" lon="11.3858111"><ele>870.0</ele><time>2026-04-18T11:06:20.701Z</time></trkpt><trkpt lat="43.5570738" lon="11.3856835"><ele>870.0</ele><time>2026-04-18T11:06:21.701Z</time></trkpt><trkpt lat="43.557132" lon="11.3855739"><ele>870.0</ele><time>2026-04-18T11:06:22.701Z</time></trkpt><trkpt lat="43.5571798" lon="11.3854652"><ele>870.0</ele><time>2026-04-18T11:06:23.701Z</time></trkpt><trkpt lat="43.5572319" lon="11.385365"><ele>870.0</ele><time>2026-04-18T11:06:24.701Z</time></trkpt><trkpt lat="43.5572839" lon="11.3852729"><ele>870.0</ele><time>2026-04-18T11:06:25.701Z</time></trkpt><trkpt lat="43.5573455" lon="11.3851811"><ele>870.0</ele><time>2026-04-18T11:06:26.701Z</time></trkpt><trkpt lat="43.5574117" lon="11.3850973"><ele>870.0</ele><time>2026-04-18T11:06:27.702Z</time></trkpt><trkpt lat="43.5574796" lon="11.3850147"><ele>870.0</ele><time>2026-04-18T11:06:28.702Z</time></trkpt><trkpt lat="43.5575452" lon="11.3849237"><ele>870.0</ele><time>2026-04-18T11:06:29.702Z</time></trkpt><trkpt lat="43.5576106" lon="11.3848289"><ele>870.0</ele><time>2026-04-18T11:06:30.701Z</time></trkpt><trkpt lat="43.557681" lon="11.3847227"><ele>870.0</ele><time>2026-04-18T11:06:31.701Z</time></trkpt><trkpt lat="43.5577397" lon="11.3846218"><ele>870.0</ele><time>2026-04-18T11:06:32.701Z</time></trkpt><trkpt lat="43.5577971" lon="11.3845176"><ele>870.0</ele><time>2026-04-18T11:06:33.701Z</time></trkpt><trkpt lat="43.5578493" lon="11.3844254"><ele>870.0</ele><time>2026-04-18T11:06:34.702Z</time></trkpt><trkpt lat="43.5579073" lon="11.3843383"><ele>867.0</ele><time>2026-04-18T11:06:35.701Z</time></trkpt><trkpt lat="43.5579646" lon="11.3842716"><ele>864.0</ele><time>2026-04-18T11:06:36.701Z</time></trkpt><trkpt lat="43.5580225" lon="11.3842163"><ele>861.0</ele><time>2026-04-18T11:06:37.701Z</time></trkpt><trkpt lat="43.5580788" lon="11.3841708"><ele>858.0</ele><time>2026-04-18T11:06:38.702Z</time></trkpt><trkpt lat="43.5581757" lon="11.3840648"><ele>855.0</ele><time>2026-04-18T11:06:40.701Z</time></trkpt><trkpt lat="43.558229" lon="11.3839871"><ele>852.0</ele><time>2026-04-18T11:06:41.702Z</time></trkpt><trkpt lat="43.5582809" lon="11.383904"><ele>852.6666666666666</ele><time>2026-04-18T11:06:42.701Z</time></trkpt><trkpt lat="43.5583389" lon="11.3838304"><ele>853.3333333333333</ele><time>2026-04-18T11:06:43.701Z</time></trkpt><trkpt lat="43.5584083" lon="11.3837518"><ele>854.0</ele><time>2026-04-18T11:06:44.701Z</time></trkpt><trkpt lat="43.5584799" lon="11.3836997"><ele>854.6666666666666</ele><time>2026-04-18T11:06:45.701Z</time></trkpt><trkpt lat="43.5585491" lon="11.3836593"><ele>855.3333333333333</ele><time>2026-04-18T11:06:46.701Z</time></trkpt><trkpt lat="43.5586076" lon="11.3836208"><ele>856.0</ele><time>2026-04-18T11:06:47.701Z</time></trkpt><trkpt lat="43.5586694" lon="11.3835974"><ele>852.1999999999999</ele><time>2026-04-18T11:06:48.701Z</time></trkpt><trkpt lat="43.5587314" lon="11.383564"><ele>848.3999999999999</ele><time>2026-04-18T11:06:49.701Z</time></trkpt><trkpt lat="43.5588488" lon="11.3835292"><ele>844.6</ele><time>2026-04-18T11:06:51.701Z</time></trkpt><trkpt lat="43.5589645" lon="11.3834991"><ele>840.8</ele><time>2026-04-18T11:06:53.701Z</time></trkpt><trkpt lat="43.5590561" lon="11.3833935"><ele>837.0</ele><time>2026-04-18T11:06:55.701Z</time></trkpt><trkpt lat="43.5591561" lon="11.3833034"><ele>837.0</ele><time>2026-04-18T11:06:57.702Z</time></trkpt><trkpt lat="43.5592176" lon="11.3832658"><ele>837.0</ele><time>2026-04-18T11:06:58.701Z</time></trkpt><trkpt lat="43.5592786" lon="11.383239"><ele>837.0</ele><time>2026-04-18T11:06:59.701Z</time></trkpt><trkpt lat="43.5593715" lon="11.3831414"><ele>837.0</ele><time>2026-04-18T11:07:01.701Z</time></trkpt><trkpt lat="43.5594112" lon="11.383051"><ele>837.0</ele><time>2026-04-18T11:07:03.7Z</time></trkpt><trkpt lat="43.5593696" lon="11.3829578"><ele>837.0</ele><time>2026-04-18T11:07:06.701Z</time></trkpt><trkpt lat="43.5593079" lon="11.3828918"><ele>838.1666666666666</ele><time>2026-04-18T11:07:08.701Z</time></trkpt><trkpt lat="43.5592523" lon="11.3828437"><ele>839.3333333333333</ele><time>2026-04-18T11:07:12.701Z</time></trkpt><trkpt lat="43.5592072" lon="11.3827793"><ele>840.5</ele><time>2026-04-18T11:07:15.702Z</time></trkpt><trkpt lat="43.5592148" lon="11.3826894"><ele>841.6666666666666</ele><time>2026-04-18T11:07:18.702Z</time></trkpt><trkpt lat="43.5592727" lon="11.3825704"><ele>842.8333333333333</ele><time>2026-04-18T11:07:20.701Z</time></trkpt><trkpt lat="43.5593211" lon="11.382491"><ele>844.0</ele><time>2026-04-18T11:07:21.701Z</time></trkpt><trkpt lat="43.5593855" lon="11.3824098"><ele>844.0</ele><time>2026-04-18T11:07:22.701Z</time></trkpt><trkpt lat="43.559454" lon="11.3823003"><ele>844.0</ele><time>2026-04-18T11:07:23.701Z</time></trkpt><trkpt lat="43.559539" lon="11.3821772"><ele>844.0</ele><time>2026-04-18T11:07:24.701Z</time></trkpt><trkpt lat="43.5596246" lon="11.3820472"><ele>844.0</ele><time>2026-04-18T11:07:25.701Z</time></trkpt><trkpt lat="43.5597077" lon="11.381905"><ele>844.75</ele><time>2026-04-18T11:07:26.701Z</time></trkpt><trkpt lat="43.5598007" lon="11.381765"><ele>845.5</ele><time>2026-04-18T11:07:27.701Z</time></trkpt><trkpt lat="43.5598858" lon="11.3816136"><ele>846.25</ele><time>2026-04-18T11:07:28.701Z</time></trkpt><trkpt lat="43.5599732" lon="11.3814669"><ele>847.0</ele><time>2026-04-18T11:07:29.702Z</time></trkpt><trkpt lat="43.560058" lon="11.3813161"><ele>847.0</ele><time>2026-04-18T11:07:30.701Z</time></trkpt><trkpt lat="43.5601443" lon="11.3811671"><ele>847.0</ele><time>2026-04-18T11:07:31.701Z</time></trkpt><trkpt lat="43.5602257" lon="11.3810165"><ele>847.0</ele><time>2026-04-18T11:07:32.699Z</time></trkpt><trkpt lat="43.5603017" lon="11.3808798"><ele>847.0</ele><time>2026-04-18T11:07:33.701Z</time></trkpt><trkpt lat="43.5603731" lon="11.3807627"><ele>846.8</ele><time>2026-04-18T11:07:34.702Z</time></trkpt><trkpt lat="43.5604382" lon="11.3806762"><ele>846.6</ele><time>2026-04-18T11:07:35.701Z</time></trkpt><trkpt lat="43.5605317" lon="11.3806203"><ele>846.4</ele><time>2026-04-18T11:07:36.701Z</time></trkpt><trkpt lat="43.5606411" lon="11.3805994"><ele>846.1999999999999</ele><time>2026-04-18T11:07:37.701Z</time></trkpt><trkpt lat="43.5607572" lon="11.3805745"><ele>846.0</ele><time>2026-04-18T11:07:38.701Z</time></trkpt><trkpt lat="43.5608817" lon="11.3805264"><ele>847.75</ele><time>2026-04-18T11:07:39.701Z</time></trkpt><trkpt lat="43.561004" lon="11.3804561"><ele>849.5</ele><time>2026-04-18T11:07:40.701Z</time></trkpt><trkpt lat="43.561133" lon="11.3803894"><ele>851.25</ele><time>2026-04-18T11:07:41.702Z</time></trkpt><trkpt lat="43.5612434" lon="11.3803282"><ele>853.0</ele><time>2026-04-18T11:07:42.701Z</time></trkpt><trkpt lat="43.5613403" lon="11.3802574"><ele>853.0</ele><time>2026-04-18T11:07:43.701Z</time></trkpt><trkpt lat="43.5614318" lon="11.3801708"><ele>853.0</ele><time>2026-04-18T11:07:44.701Z</time></trkpt><trkpt lat="43.5615124" lon="11.3800483"><ele>853.0</ele><time>2026-04-18T11:07:45.701Z</time></trkpt><trkpt lat="43.5615956" lon="11.3799078"><ele>853.0</ele><time>2026-04-18T11:07:46.702Z</time></trkpt><trkpt lat="43.5616813" lon="11.3797631"><ele>856.25</ele><time>2026-04-18T11:07:47.701Z</time></trkpt><trkpt lat="43.5617767" lon="11.3796148"><ele>859.5</ele><time>2026-04-18T11:07:48.701Z</time></trkpt><trkpt lat="43.5618758" lon="11.3794624"><ele>862.75</ele><time>2026-04-18T11:07:49.701Z</time></trkpt><trkpt lat="43.5619659" lon="11.3793077"><ele>866.0</ele><time>2026-04-18T11:07:50.701Z</time></trkpt><trkpt lat="43.5620468" lon="11.3791531"><ele>860.25</ele><time>2026-04-18T11:07:51.701Z</time></trkpt><trkpt lat="43.5621265" lon="11.3789853"><ele>854.5</ele><time>2026-04-18T11:07:52.701Z</time></trkpt><trkpt lat="43.562202" lon="11.3788185"><ele>848.75</ele><time>2026-04-18T11:07:53.702Z</time></trkpt><trkpt lat="43.562283" lon="11.378666"><ele>843.0</ele><time>2026-04-18T11:07:54.701Z</time></trkpt><trkpt lat="43.5623779" lon="11.3785325"><ele>843.0</ele><time>2026-04-18T11:07:55.702Z</time></trkpt><trkpt lat="43.5624798" lon="11.3784199"><ele>843.0</ele><time>2026-04-18T11:07:56.701Z</time></trkpt><trkpt lat="43.562592" lon="11.3783089"><ele>843.0</ele><time>2026-04-18T11:07:57.701Z</time></trkpt><trkpt lat="43.5627257" lon="11.3782221"><ele>843.0</ele><time>2026-04-18T11:07:58.701Z</time></trkpt><trkpt lat="43.5628669" lon="11.3781532"><ele>840.5</ele><time>2026-04-18T11:07:59.701Z</time></trkpt><trkpt lat="43.563008" lon="11.3780929"><ele>838.0</ele><time>2026-04-18T11:08:00.702Z</time></trkpt><trkpt lat="43.5631403" lon="11.3780252"><ele>835.5</ele><time>2026-04-18T11:08:01.701Z</time></trkpt><trkpt lat="43.5632713" lon="11.3779633"><ele>833.0</ele><time>2026-04-18T11:08:02.702Z</time></trkpt><trkpt lat="43.5633851" lon="11.3779111"><ele>832.3333333333334</ele><time>2026-04-18T11:08:03.702Z</time></trkpt><trkpt lat="43.5634849" lon="11.3778636"><ele>831.6666666666667</ele><time>2026-04-18T11:08:04.701Z</time></trkpt><trkpt lat="43.5635715" lon="11.3778233"><ele>831.0</ele><time>2026-04-18T11:08:05.701Z</time></trkpt><trkpt lat="43.5636472" lon="11.3777964"><ele>830.3333333333333</ele><time>2026-04-18T11:08:06.702Z</time></trkpt><trkpt lat="43.5637203" lon="11.3777953"><ele>829.6666666666666</ele><time>2026-04-18T11:08:07.702Z</time></trkpt><trkpt lat="43.5637926" lon="11.3778168"><ele>829.0</ele><time>2026-04-18T11:08:08.702Z</time></trkpt><trkpt lat="43.5638641" lon="11.3778559"><ele>828.1666666666666</ele><time>2026-04-18T11:08:09.701Z</time></trkpt><trkpt lat="43.5639235" lon="11.3779127"><ele>827.3333333333333</ele><time>2026-04-18T11:08:10.701Z</time></trkpt><trkpt lat="43.563957" lon="11.3779943"><ele>826.5</ele><time>2026-04-18T11:08:11.701Z</time></trkpt><trkpt lat="43.5639586" lon="11.3781037"><ele>825.6666666666667</ele><time>2026-04-18T11:08:12.701Z</time></trkpt><trkpt lat="43.563926" lon="11.3782176"><ele>824.8333333333334</ele><time>2026-04-18T11:08:13.701Z</time></trkpt><trkpt lat="43.5638875" lon="11.3783143"><ele>824.0</ele><time>2026-04-18T11:08:14.702Z</time></trkpt><trkpt lat="43.5638643" lon="11.3784206"><ele>823.6666666666667</ele><time>2026-04-18T11:08:15.701Z</time></trkpt><trkpt lat="43.5638571" lon="11.378526"><ele>823.3333333333334</ele><time>2026-04-18T11:08:16.702Z</time></trkpt><trkpt lat="43.5638699" lon="11.3786221"><ele>823.0</ele><time>2026-04-18T11:08:17.701Z</time></trkpt><trkpt lat="43.5638998" lon="11.3787028"><ele>822.6666666666667</ele><time>2026-04-18T11:08:18.701Z</time></trkpt><trkpt lat="43.5639658" lon="11.3787677"><ele>822.3333333333334</ele><time>2026-04-18T11:08:19.701Z</time></trkpt><trkpt lat="43.564043" lon="11.3788118"><ele>822.0</ele><time>2026-04-18T11:08:20.701Z</time></trkpt><trkpt lat="43.5641388" lon="11.3788268"><ele>822.0</ele><time>2026-04-18T11:08:21.701Z</time></trkpt><trkpt lat="43.564244" lon="11.3788065"><ele>822.0</ele><time>2026-04-18T11:08:22.702Z</time></trkpt><trkpt lat="43.564357" lon="11.3787812"><ele>822.0</ele><time>2026-04-18T11:08:23.701Z</time></trkpt><trkpt lat="43.5644643" lon="11.3787478"><ele>822.0</ele><time>2026-04-18T11:08:24.701Z</time></trkpt><trkpt lat="43.5645792" lon="11.3787097"><ele>822.0</ele><time>2026-04-18T11:08:25.701Z</time></trkpt><trkpt lat="43.564693" lon="11.3786707"><ele>818.25</ele><time>2026-04-18T11:08:26.701Z</time></trkpt><trkpt lat="43.5648093" lon="11.3786198"><ele>814.5</ele><time>2026-04-18T11:08:27.701Z</time></trkpt><trkpt lat="43.5649228" lon="11.3785603"><ele>810.75</ele><time>2026-04-18T11:08:28.702Z</time></trkpt><trkpt lat="43.5650329" lon="11.3784823"><ele>807.0</ele><time>2026-04-18T11:08:29.702Z</time></trkpt><trkpt lat="43.5651333" lon="11.3783878"><ele>807.0</ele><time>2026-04-18T11:08:30.702Z</time></trkpt><trkpt lat="43.5652277" lon="11.3782841"><ele>807.0</ele><time>2026-04-18T11:08:31.702Z</time></trkpt><trkpt lat="43.5653156" lon="11.3781783"><ele>807.0</ele><time>2026-04-18T11:08:32.702Z</time></trkpt><trkpt lat="43.5654034" lon="11.3780672"><ele>807.0</ele><time>2026-04-18T11:08:33.701Z</time></trkpt><trkpt lat="43.5654912" lon="11.3779613"><ele>804.4000000000001</ele><time>2026-04-18T11:08:34.701Z</time></trkpt><trkpt lat="43.56557" lon="11.3778701"><ele>801.8000000000001</ele><time>2026-04-18T11:08:35.701Z</time></trkpt><trkpt lat="43.5656541" lon="11.3777824"><ele>799.2</ele><time>2026-04-18T11:08:36.701Z</time></trkpt><trkpt lat="43.5657479" lon="11.3777117"><ele>796.6</ele><time>2026-04-18T11:08:37.701Z</time></trkpt><trkpt lat="43.5658474" lon="11.3776633"><ele>794.0</ele><time>2026-04-18T11:08:38.701Z</time></trkpt><trkpt lat="43.565959" lon="11.3776462"><ele>794.0</ele><time>2026-04-18T11:08:39.701Z</time></trkpt><trkpt lat="43.5660722" lon="11.3776826"><ele>794.0</ele><time>2026-04-18T11:08:40.701Z</time></trkpt><trkpt lat="43.5661952" lon="11.3777368"><ele>794.0</ele><time>2026-04-18T11:08:41.701Z</time></trkpt><trkpt lat="43.5663214" lon="11.37781"><ele>794.0</ele><time>2026-04-18T11:08:42.702Z</time></trkpt><trkpt lat="43.566444" lon="11.3778911"><ele>792.0</ele><time>2026-04-18T11:08:43.702Z</time></trkpt><trkpt lat="43.5665755" lon="11.3779555"><ele>790.0</ele><time>2026-04-18T11:08:44.702Z</time></trkpt><trkpt lat="43.5667136" lon="11.3780182"><ele>788.0</ele><time>2026-04-18T11:08:45.701Z</time></trkpt><trkpt lat="43.5668526" lon="11.3780636"><ele>786.0</ele><time>2026-04-18T11:08:46.701Z</time></trkpt><trkpt lat="43.5669933" lon="11.3780985"><ele>783.5</ele><time>2026-04-18T11:08:47.701Z</time></trkpt><trkpt lat="43.5671235" lon="11.378134"><ele>781.0</ele><time>2026-04-18T11:08:48.701Z</time></trkpt><trkpt lat="43.567245" lon="11.378164"><ele>778.5</ele><time>2026-04-18T11:08:49.702Z</time></trkpt><trkpt lat="43.5673475" lon="11.3781898"><ele>776.0</ele><time>2026-04-18T11:08:50.702Z</time></trkpt><trkpt lat="43.5674401" lon="11.3782078"><ele>776.0</ele><time>2026-04-18T11:08:51.701Z</time></trkpt><trkpt lat="43.5675244" lon="11.3782028"><ele>776.0</ele><time>2026-04-18T11:08:52.702Z</time></trkpt><trkpt lat="43.5676026" lon="11.3781862"><ele>776.0</ele><time>2026-04-18T11:08:53.699Z</time></trkpt><trkpt lat="43.5676862" lon="11.3781367"><ele>776.0</ele><time>2026-04-18T11:08:54.702Z</time></trkpt><trkpt lat="43.5677789" lon="11.3780623"><ele>776.0</ele><time>2026-04-18T11:08:55.701Z</time></trkpt><trkpt lat="43.5678675" lon="11.3779869"><ele>774.1666666666667</ele><time>2026-04-18T11:08:56.702Z</time></trkpt><trkpt lat="43.5679423" lon="11.3779119"><ele>772.3333333333334</ele><time>2026-04-18T11:08:57.701Z</time></trkpt><trkpt lat="43.5680051" lon="11.3778326"><ele>770.5</ele><time>2026-04-18T11:08:58.701Z</time></trkpt><trkpt lat="43.5680598" lon="11.3777508"><ele>768.6666666666667</ele><time>2026-04-18T11:08:59.701Z</time></trkpt><trkpt lat="43.5681034" lon="11.3776503"><ele>766.8333333333334</ele><time>2026-04-18T11:09:00.701Z</time></trkpt><trkpt lat="43.5681311" lon="11.3775441"><ele>765.0</ele><time>2026-04-18T11:09:01.702Z</time></trkpt><trkpt lat="43.5681375" lon="11.3774143"><ele>765.0</ele><time>2026-04-18T11:09:02.702Z</time></trkpt><trkpt lat="43.5681415" lon="11.3773002"><ele>765.0</ele><time>2026-04-18T11:09:03.702Z</time></trkpt><trkpt lat="43.5681577" lon="11.3772106"><ele>765.0</ele><time>2026-04-18T11:09:04.701Z</time></trkpt><trkpt lat="43.5682367" lon="11.3770971"><ele>765.0</ele><time>2026-04-18T11:09:06.701Z</time></trkpt><trkpt lat="43.5683012" lon="11.3770799"><ele>765.0</ele><time>2026-04-18T11:09:07.701Z</time></trkpt><trkpt lat="43.5683686" lon="11.3771229"><ele>765.0</ele><time>2026-04-18T11:09:08.702Z</time></trkpt><trkpt lat="43.5684234" lon="11.3772017"><ele>765.0</ele><time>2026-04-18T11:09:09.702Z</time></trkpt><trkpt lat="43.5684634" lon="11.3773059"><ele>765.0</ele><time>2026-04-18T11:09:10.701Z</time></trkpt><trkpt lat="43.5684938" lon="11.3774406"><ele>765.0</ele><time>2026-04-18T11:09:11.702Z</time></trkpt><trkpt lat="43.5685343" lon="11.3775742"><ele>765.0</ele><time>2026-04-18T11:09:12.701Z</time></trkpt><trkpt lat="43.568571" lon="11.3777036"><ele>765.0</ele><time>2026-04-18T11:09:13.702Z</time></trkpt><trkpt lat="43.5686088" lon="11.3778363"><ele>765.0</ele><time>2026-04-18T11:09:14.701Z</time></trkpt><trkpt lat="43.5686424" lon="11.377961"><ele>765.0</ele><time>2026-04-18T11:09:15.701Z</time></trkpt><trkpt lat="43.56867" lon="11.3780708"><ele>765.0</ele><time>2026-04-18T11:09:16.701Z</time></trkpt><trkpt lat="43.5687011" lon="11.3781504"><ele>765.0</ele><time>2026-04-18T11:09:17.701Z</time></trkpt><trkpt lat="43.5687667" lon="11.3782727"><ele>765.0</ele><time>2026-04-18T11:09:19.701Z</time></trkpt><trkpt lat="43.5688658" lon="11.3783324"><ele>762.7142857142858</ele><time>2026-04-18T11:09:21.701Z</time></trkpt><trkpt lat="43.5689296" lon="11.3783205"><ele>760.4285714285714</ele><time>2026-04-18T11:09:22.701Z</time></trkpt><trkpt lat="43.5689979" lon="11.3782836"><ele>758.1428571428571</ele><time>2026-04-18T11:09:23.702Z</time></trkpt><trkpt lat="43.5690533" lon="11.3782255"><ele>755.8571428571429</ele><time>2026-04-18T11:09:24.701Z</time></trkpt><trkpt lat="43.5691032" lon="11.378157"><ele>753.5714285714286</ele><time>2026-04-18T11:09:25.701Z</time></trkpt><trkpt lat="43.5691554" lon="11.3780809"><ele>751.2857142857143</ele><time>2026-04-18T11:09:26.701Z</time></trkpt><trkpt lat="43.5692255" lon="11.3780158"><ele>749.0</ele><time>2026-04-18T11:09:27.701Z</time></trkpt><trkpt lat="43.5693098" lon="11.3779655"><ele>749.0</ele><time>2026-04-18T11:09:28.701Z</time></trkpt><trkpt lat="43.5694034" lon="11.3779077"><ele>749.0</ele><time>2026-04-18T11:09:29.701Z</time></trkpt><trkpt lat="43.5695123" lon="11.3778553"><ele>749.0</ele><time>2026-04-18T11:09:30.702Z</time></trkpt><trkpt lat="43.5696203" lon="11.3777803"><ele>749.0</ele><time>2026-04-18T11:09:31.701Z</time></trkpt><trkpt lat="43.5697365" lon="11.377697"><ele>748.0</ele><time>2026-04-18T11:09:32.701Z</time></trkpt><trkpt lat="43.5698534" lon="11.3776153"><ele>747.0</ele><time>2026-04-18T11:09:33.701Z</time></trkpt><trkpt lat="43.5699799" lon="11.3775347"><ele>746.0</ele><time>2026-04-18T11:09:34.702Z</time></trkpt><trkpt lat="43.5701122" lon="11.3774491"><ele>745.0</ele><time>2026-04-18T11:09:35.701Z</time></trkpt><trkpt lat="43.5702463" lon="11.3773546"><ele>746.0</ele><time>2026-04-18T11:09:36.701Z</time></trkpt><trkpt lat="43.5703785" lon="11.3772623"><ele>747.0</ele><time>2026-04-18T11:09:37.701Z</time></trkpt><trkpt lat="43.5705153" lon="11.3771722"><ele>748.0</ele><time>2026-04-18T11:09:38.701Z</time></trkpt><trkpt lat="43.5706483" lon="11.3770802"><ele>749.0</ele><time>2026-04-18T11:09:39.701Z</time></trkpt><trkpt lat="43.5707852" lon="11.3770044"><ele>749.0</ele><time>2026-04-18T11:09:40.701Z</time></trkpt><trkpt lat="43.5709336" lon="11.3769557"><ele>749.0</ele><time>2026-04-18T11:09:41.701Z</time></trkpt><trkpt lat="43.5710806" lon="11.3769285"><ele>749.0</ele><time>2026-04-18T11:09:42.7Z</time></trkpt><trkpt lat="43.5712288" lon="11.3769127"><ele>749.0</ele><time>2026-04-18T11:09:43.701Z</time></trkpt><trkpt lat="43.5713822" lon="11.3768863"><ele>749.6666666666666</ele><time>2026-04-18T11:09:44.701Z</time></trkpt><trkpt lat="43.5715406" lon="11.3768345"><ele>750.3333333333334</ele><time>2026-04-18T11:09:45.702Z</time></trkpt><trkpt lat="43.5716943" lon="11.3767706"><ele>751.0</ele><time>2026-04-18T11:09:46.701Z</time></trkpt><trkpt lat="43.5718372" lon="11.3766823"><ele>751.0</ele><time>2026-04-18T11:09:47.701Z</time></trkpt><trkpt lat="43.5719826" lon="11.3765998"><ele>751.0</ele><time>2026-04-18T11:09:48.702Z</time></trkpt><trkpt lat="43.5721259" lon="11.376536"><ele>751.0</ele><time>2026-04-18T11:09:49.701Z</time></trkpt><trkpt lat="43.5722638" lon="11.376484"><ele>750.25</ele><time>2026-04-18T11:09:50.702Z</time></trkpt><trkpt lat="43.5724077" lon="11.3764357"><ele>749.5</ele><time>2026-04-18T11:09:51.701Z</time></trkpt><trkpt lat="43.5725508" lon="11.376369"><ele>748.75</ele><time>2026-04-18T11:09:52.701Z</time></trkpt><trkpt lat="43.5726867" lon="11.3763054"><ele>748.0</ele><time>2026-04-18T11:09:53.701Z</time></trkpt><trkpt lat="43.5728317" lon="11.3762568"><ele>745.6666666666667</ele><time>2026-04-18T11:09:54.701Z</time></trkpt><trkpt lat="43.5729742" lon="11.3762202"><ele>743.3333333333334</ele><time>2026-04-18T11:09:55.701Z</time></trkpt><trkpt lat="43.5731227" lon="11.3761816"><ele>741.0</ele><time>2026-04-18T11:09:56.701Z</time></trkpt><trkpt lat="43.5732672" lon="11.3761023"><ele>741.0</ele><time>2026-04-18T11:09:57.701Z</time></trkpt><trkpt lat="43.5734089" lon="11.3759917"><ele>741.0</ele><time>2026-04-18T11:09:58.701Z</time></trkpt><trkpt lat="43.573553" lon="11.375887"><ele>741.0</ele><time>2026-04-18T11:09:59.701Z</time></trkpt><trkpt lat="43.5737047" lon="11.3758022"><ele>742.6666666666666</ele><time>2026-04-18T11:10:00.701Z</time></trkpt><trkpt lat="43.5738517" lon="11.3757234"><ele>744.3333333333333</ele><time>2026-04-18T11:10:01.701Z</time></trkpt><trkpt lat="43.5739914" lon="11.3756548"><ele>746.0</ele><time>2026-04-18T11:10:02.702Z</time></trkpt><trkpt lat="43.574128" lon="11.3755793"><ele>743.0</ele><time>2026-04-18T11:10:03.701Z</time></trkpt><trkpt lat="43.5742454" lon="11.3755125"><ele>740.0</ele><time>2026-04-18T11:10:04.701Z</time></trkpt><trkpt lat="43.5743464" lon="11.3754396"><ele>737.0</ele><time>2026-04-18T11:10:05.701Z</time></trkpt><trkpt lat="43.574442" lon="11.3753654"><ele>734.0</ele><time>2026-04-18T11:10:06.701Z</time></trkpt><trkpt lat="43.5745298" lon="11.3752712"><ele>734.0</ele><time>2026-04-18T11:10:07.701Z</time></trkpt><trkpt lat="43.5746221" lon="11.3751511"><ele>734.0</ele><time>2026-04-18T11:10:08.701Z</time></trkpt><trkpt lat="43.5747222" lon="11.3750111"><ele>734.0</ele><time>2026-04-18T11:10:09.701Z</time></trkpt><trkpt lat="43.574824" lon="11.3748705"><ele>734.0</ele><time>2026-04-18T11:10:10.702Z</time></trkpt><trkpt lat="43.5749195" lon="11.3747301"><ele>731.75</ele><time>2026-04-18T11:10:11.701Z</time></trkpt><trkpt lat="43.5750102" lon="11.3745939"><ele>729.5</ele><time>2026-04-18T11:10:12.701Z</time></trkpt><trkpt lat="43.5751027" lon="11.3744693"><ele>727.25</ele><time>2026-04-18T11:10:13.702Z</time></trkpt><trkpt lat="43.5751941" lon="11.3743429"><ele>725.0</ele><time>2026-04-18T11:10:14.702Z</time></trkpt><trkpt lat="43.5752876" lon="11.3742207"><ele>724.75</ele><time>2026-04-18T11:10:15.702Z</time></trkpt><trkpt lat="43.5753763" lon="11.374105"><ele>724.5</ele><time>2026-04-18T11:10:16.701Z</time></trkpt><trkpt lat="43.575463" lon="11.3739916"><ele>724.25</ele><time>2026-04-18T11:10:17.702Z</time></trkpt><trkpt lat="43.5755453" lon="11.3738823"><ele>724.0</ele><time>2026-04-18T11:10:18.701Z</time></trkpt><trkpt lat="43.575628" lon="11.3737787"><ele>723.75</ele><time>2026-04-18T11:10:19.701Z</time></trkpt><trkpt lat="43.5757231" lon="11.3736885"><ele>723.5</ele><time>2026-04-18T11:10:20.701Z</time></trkpt><trkpt lat="43.575831" lon="11.3736103"><ele>723.25</ele><time>2026-04-18T11:10:21.702Z</time></trkpt><trkpt lat="43.5759598" lon="11.3735539"><ele>723.0</ele><time>2026-04-18T11:10:22.701Z</time></trkpt><trkpt lat="43.5761065" lon="11.3735269"><ele>724.6666666666666</ele><time>2026-04-18T11:10:23.701Z</time></trkpt><trkpt lat="43.5762586" lon="11.3735361"><ele>726.3333333333333</ele><time>2026-04-18T11:10:24.702Z</time></trkpt><trkpt lat="43.5764041" lon="11.3735699"><ele>728.0</ele><time>2026-04-18T11:10:25.701Z</time></trkpt><trkpt lat="43.5765523" lon="11.3736118"><ele>728.0</ele><time>2026-04-18T11:10:26.702Z</time></trkpt><trkpt lat="43.5766855" lon="11.3736355"><ele>728.0</ele><time>2026-04-18T11:10:27.701Z</time></trkpt><trkpt lat="43.5768022" lon="11.3736431"><ele>728.0</ele><time>2026-04-18T11:10:28.701Z</time></trkpt><trkpt lat="43.5769086" lon="11.373637"><ele>728.0</ele><time>2026-04-18T11:10:29.702Z</time></trkpt><trkpt lat="43.5769908" lon="11.3736074"><ele>728.0</ele><time>2026-04-18T11:10:30.701Z</time></trkpt><trkpt lat="43.5770932" lon="11.3735468"><ele>727.25</ele><time>2026-04-18T11:10:31.701Z</time></trkpt><trkpt lat="43.5771923" lon="11.3734807"><ele>726.5</ele><time>2026-04-18T11:10:32.701Z</time></trkpt><trkpt lat="43.57731" lon="11.3734586"><ele>725.75</ele><time>2026-04-18T11:10:33.702Z</time></trkpt><trkpt lat="43.5774498" lon="11.3734638"><ele>725.0</ele><time>2026-04-18T11:10:34.701Z</time></trkpt><trkpt lat="43.5775725" lon="11.3734684"><ele>725.0</ele><time>2026-04-18T11:10:35.702Z</time></trkpt><trkpt lat="43.5776903" lon="11.3734584"><ele>725.0</ele><time>2026-04-18T11:10:36.701Z</time></trkpt><trkpt lat="43.5777943" lon="11.3734307"><ele>725.0</ele><time>2026-04-18T11:10:37.702Z</time></trkpt><trkpt lat="43.5778735" lon="11.3733635"><ele>725.0</ele><time>2026-04-18T11:10:38.701Z</time></trkpt><trkpt lat="43.5779301" lon="11.3732839"><ele>725.0</ele><time>2026-04-18T11:10:39.701Z</time></trkpt><trkpt lat="43.5779932" lon="11.3731781"><ele>724.6</ele><time>2026-04-18T11:10:40.701Z</time></trkpt><trkpt lat="43.5780471" lon="11.3730537"><ele>724.2</ele><time>2026-04-18T11:10:41.702Z</time></trkpt><trkpt lat="43.5780968" lon="11.3729347"><ele>723.8</ele><time>2026-04-18T11:10:42.701Z</time></trkpt><trkpt lat="43.5781592" lon="11.3728241"><ele>723.4</ele><time>2026-04-18T11:10:43.701Z</time></trkpt><trkpt lat="43.5782277" lon="11.3727106"><ele>723.0</ele><time>2026-04-18T11:10:44.701Z</time></trkpt><trkpt lat="43.5783192" lon="11.3726022"><ele>722.75</ele><time>2026-04-18T11:10:45.701Z</time></trkpt><trkpt lat="43.5784229" lon="11.37249"><ele>722.5</ele><time>2026-04-18T11:10:46.701Z</time></trkpt><trkpt lat="43.5785271" lon="11.3723931"><ele>722.25</ele><time>2026-04-18T11:10:47.702Z</time></trkpt><trkpt lat="43.5786281" lon="11.3723087"><ele>722.0</ele><time>2026-04-18T11:10:48.701Z</time></trkpt><trkpt lat="43.5787252" lon="11.3722338"><ele>719.4000000000001</ele><time>2026-04-18T11:10:49.701Z</time></trkpt><trkpt lat="43.5788291" lon="11.3721748"><ele>716.8000000000001</ele><time>2026-04-18T11:10:50.701Z</time></trkpt><trkpt lat="43.5789233" lon="11.372128"><ele>714.2</ele><time>2026-04-18T11:10:51.701Z</time></trkpt><trkpt lat="43.5790019" lon="11.3720783"><ele>711.6</ele><time>2026-04-18T11:10:52.701Z</time></trkpt><trkpt lat="43.5790741" lon="11.3720087"><ele>709.0</ele><time>2026-04-18T11:10:53.701Z</time></trkpt><trkpt lat="43.5791373" lon="11.3719089"><ele>709.0</ele><time>2026-04-18T11:10:54.702Z</time></trkpt><trkpt lat="43.5791968" lon="11.3718025"><ele>709.0</ele><time>2026-04-18T11:10:55.701Z</time></trkpt><trkpt lat="43.5792565" lon="11.3717"><ele>709.0</ele><time>2026-04-18T11:10:56.701Z</time></trkpt><trkpt lat="43.5793187" lon="11.3716118"><ele>709.0</ele><time>2026-04-18T11:10:57.701Z</time></trkpt><trkpt lat="43.5793987" lon="11.3715383"><ele>709.0</ele><time>2026-04-18T11:10:58.701Z</time></trkpt><trkpt lat="43.5794928" lon="11.3714897"><ele>709.6</ele><time>2026-04-18T11:10:59.702Z</time></trkpt><trkpt lat="43.5796006" lon="11.3714666"><ele>710.2</ele><time>2026-04-18T11:11:00.701Z</time></trkpt><trkpt lat="43.5796927" lon="11.3714573"><ele>710.8000000000001</ele><time>2026-04-18T11:11:01.702Z</time></trkpt><trkpt lat="43.5797977" lon="11.3714578"><ele>711.4000000000001</ele><time>2026-04-18T11:11:02.701Z</time></trkpt><trkpt lat="43.5798922" lon="11.371447"><ele>712.0</ele><time>2026-04-18T11:11:03.701Z</time></trkpt><trkpt lat="43.5799775" lon="11.3713844"><ele>709.0</ele><time>2026-04-18T11:11:04.701Z</time></trkpt><trkpt lat="43.5800613" lon="11.3712866"><ele>706.0</ele><time>2026-04-18T11:11:05.701Z</time></trkpt><trkpt lat="43.5801264" lon="11.3711875"><ele>703.0</ele><time>2026-04-18T11:11:06.701Z</time></trkpt><trkpt lat="43.5801858" lon="11.3710893"><ele>700.0</ele><time>2026-04-18T11:11:07.702Z</time></trkpt><trkpt lat="43.5802391" lon="11.3710228"><ele>697.0</ele><time>2026-04-18T11:11:08.702Z</time></trkpt><trkpt lat="43.5803011" lon="11.3709655"><ele>694.0</ele><time>2026-04-18T11:11:09.702Z</time></trkpt><trkpt lat="43.5803724" lon="11.3709318"><ele>693.0</ele><time>2026-04-18T11:11:10.701Z</time></trkpt><trkpt lat="43.5804535" lon="11.3709516"><ele>692.0</ele><time>2026-04-18T11:11:11.702Z</time></trkpt><trkpt lat="43.5805387" lon="11.3710219"><ele>691.0</ele><time>2026-04-18T11:11:12.701Z</time></trkpt><trkpt lat="43.5806296" lon="11.3710929"><ele>690.0</ele><time>2026-04-18T11:11:13.701Z</time></trkpt><trkpt lat="43.580718" lon="11.3711514"><ele>689.0</ele><time>2026-04-18T11:11:14.701Z</time></trkpt><trkpt lat="43.5808134" lon="11.3712136"><ele>689.0</ele><time>2026-04-18T11:11:15.701Z</time></trkpt><trkpt lat="43.5809005" lon="11.3712648"><ele>689.0</ele><time>2026-04-18T11:11:16.701Z</time></trkpt><trkpt lat="43.5810116" lon="11.3712778"><ele>689.0</ele><time>2026-04-18T11:11:17.701Z</time></trkpt><trkpt lat="43.581127" lon="11.3712697"><ele>689.0</ele><time>2026-04-18T11:11:18.702Z</time></trkpt><trkpt lat="43.5812469" lon="11.3712624"><ele>689.0</ele><time>2026-04-18T11:11:19.702Z</time></trkpt><trkpt lat="43.58137" lon="11.3712509"><ele>686.5</ele><time>2026-04-18T11:11:20.701Z</time></trkpt><trkpt lat="43.5814991" lon="11.3712333"><ele>684.0</ele><time>2026-04-18T11:11:21.701Z</time></trkpt><trkpt lat="43.5816247" lon="11.3712086"><ele>681.5</ele><time>2026-04-18T11:11:22.701Z</time></trkpt><trkpt lat="43.5817442" lon="11.371186"><ele>679.0</ele><time>2026-04-18T11:11:23.701Z</time></trkpt><trkpt lat="43.581866" lon="11.371159"><ele>679.0</ele><time>2026-04-18T11:11:24.702Z</time></trkpt><trkpt lat="43.581988" lon="11.3711201"><ele>679.0</ele><time>2026-04-18T11:11:25.701Z</time></trkpt><trkpt lat="43.5821066" lon="11.3710825"><ele>679.0</ele><time>2026-04-18T11:11:26.701Z</time></trkpt><trkpt lat="43.5822268" lon="11.3710342"><ele>679.0</ele><time>2026-04-18T11:11:27.701Z</time></trkpt><trkpt lat="43.5823455" lon="11.3709931"><ele>676.75</ele><time>2026-04-18T11:11:28.701Z</time></trkpt><trkpt lat="43.5824675" lon="11.3709466"><ele>674.5</ele><time>2026-04-18T11:11:29.702Z</time></trkpt><trkpt lat="43.5825903" lon="11.3708895"><ele>672.25</ele><time>2026-04-18T11:11:30.701Z</time></trkpt><trkpt lat="43.5827141" lon="11.370815"><ele>670.0</ele><time>2026-04-18T11:11:31.702Z</time></trkpt><trkpt lat="43.5828333" lon="11.370729"><ele>668.25</ele><time>2026-04-18T11:11:32.701Z</time></trkpt><trkpt lat="43.5829425" lon="11.3706313"><ele>666.5</ele><time>2026-04-18T11:11:33.702Z</time></trkpt><trkpt lat="43.5830541" lon="11.3705187"><ele>664.75</ele><time>2026-04-18T11:11:34.702Z</time></trkpt><trkpt lat="43.5831629" lon="11.3704005"><ele>663.0</ele><time>2026-04-18T11:11:35.701Z</time></trkpt><trkpt lat="43.5832784" lon="11.370277"><ele>663.0</ele><time>2026-04-18T11:11:36.701Z</time></trkpt><trkpt lat="43.5833925" lon="11.3701522"><ele>663.0</ele><time>2026-04-18T11:11:37.702Z</time></trkpt><trkpt lat="43.5835059" lon="11.3700268"><ele>663.0</ele><time>2026-04-18T11:11:38.701Z</time></trkpt><trkpt lat="43.5836159" lon="11.3698993"><ele>663.0</ele><time>2026-04-18T11:11:39.701Z</time></trkpt><trkpt lat="43.5837322" lon="11.3697755"><ele>662.0</ele><time>2026-04-18T11:11:40.702Z</time></trkpt><trkpt lat="43.5838431" lon="11.3696474"><ele>661.0</ele><time>2026-04-18T11:11:41.701Z</time></trkpt><trkpt lat="43.5839522" lon="11.3695145"><ele>660.0</ele><time>2026-04-18T11:11:42.701Z</time></trkpt><trkpt lat="43.5840569" lon="11.3693822"><ele>659.0</ele><time>2026-04-18T11:11:43.701Z</time></trkpt><trkpt lat="43.5841613" lon="11.3692605"><ele>659.0</ele><time>2026-04-18T11:11:44.702Z</time></trkpt><trkpt lat="43.5842689" lon="11.3691389"><ele>659.0</ele><time>2026-04-18T11:11:45.701Z</time></trkpt><trkpt lat="43.584373" lon="11.3690214"><ele>659.0</ele><time>2026-04-18T11:11:46.701Z</time></trkpt><trkpt lat="43.58448" lon="11.3689183"><ele>659.0</ele><time>2026-04-18T11:11:47.701Z</time></trkpt><trkpt lat="43.5845887" lon="11.3688323"><ele>656.0</ele><time>2026-04-18T11:11:48.701Z</time></trkpt><trkpt lat="43.5846958" lon="11.3687385"><ele>653.0</ele><time>2026-04-18T11:11:49.701Z</time></trkpt><trkpt lat="43.5847847" lon="11.3686515"><ele>650.0</ele><time>2026-04-18T11:11:50.701Z</time></trkpt><trkpt lat="43.5848788" lon="11.3685635"><ele>647.0</ele><time>2026-04-18T11:11:51.701Z</time></trkpt><trkpt lat="43.5849667" lon="11.3684844"><ele>647.0</ele><time>2026-04-18T11:11:52.701Z</time></trkpt><trkpt lat="43.5850555" lon="11.3684026"><ele>647.0</ele><time>2026-04-18T11:11:53.701Z</time></trkpt><trkpt lat="43.5851397" lon="11.3683256"><ele>647.0</ele><time>2026-04-18T11:11:54.701Z</time></trkpt><trkpt lat="43.5852202" lon="11.3682528"><ele>647.0</ele><time>2026-04-18T11:11:55.702Z</time></trkpt><trkpt lat="43.5852852" lon="11.368191"><ele>647.0</ele><time>2026-04-18T11:11:56.701Z</time></trkpt><trkpt lat="43.585343" lon="11.3681244"><ele>644.8333333333333</ele><time>2026-04-18T11:11:57.701Z</time></trkpt><trkpt lat="43.5853872" lon="11.3680423"><ele>642.6666666666666</ele><time>2026-04-18T11:11:58.701Z</time></trkpt><trkpt lat="43.5854142" lon="11.3679395"><ele>640.5</ele><time>2026-04-18T11:11:59.701Z</time></trkpt><trkpt lat="43.5854116" lon="11.3678185"><ele>638.3333333333334</ele><time>2026-04-18T11:12:00.701Z</time></trkpt><trkpt lat="43.585395" lon="11.3676901"><ele>636.1666666666667</ele><time>2026-04-18T11:12:01.701Z</time></trkpt><trkpt lat="43.5853753" lon="11.3675681"><ele>634.0</ele><time>2026-04-18T11:12:02.702Z</time></trkpt><trkpt lat="43.5853593" lon="11.3674371"><ele>633.6</ele><time>2026-04-18T11:12:03.701Z</time></trkpt><trkpt lat="43.585353" lon="11.3672974"><ele>633.2</ele><time>2026-04-18T11:12:04.701Z</time></trkpt><trkpt lat="43.5853629" lon="11.367159"><ele>632.8000000000001</ele><time>2026-04-18T11:12:05.701Z</time></trkpt><trkpt lat="43.5853806" lon="11.3670213"><ele>632.4</ele><time>2026-04-18T11:12:06.7Z</time></trkpt><trkpt lat="43.5854017" lon="11.3668762"><ele>632.0</ele><time>2026-04-18T11:12:07.7Z</time></trkpt><trkpt lat="43.5854114" lon="11.366743"><ele>631.1666666666666</ele><time>2026-04-18T11:12:08.7Z</time></trkpt><trkpt lat="43.5854191" lon="11.3666248"><ele>630.3333333333333</ele><time>2026-04-18T11:12:09.7Z</time></trkpt><trkpt lat="43.5854271" lon="11.3665247"><ele>629.5</ele><time>2026-04-18T11:12:10.7Z</time></trkpt><trkpt lat="43.585447" lon="11.3663855"><ele>628.6666666666666</ele><time>2026-04-18T11:12:12.7Z</time></trkpt><trkpt lat="43.5855248" lon="11.3663127"><ele>627.8333333333334</ele><time>2026-04-18T11:12:14.7Z</time></trkpt><trkpt lat="43.5856115" lon="11.3663103"><ele>627.0</ele><time>2026-04-18T11:12:15.701Z</time></trkpt><trkpt lat="43.5857092" lon="11.366323"><ele>627.0</ele><time>2026-04-18T11:12:16.7Z</time></trkpt><trkpt lat="43.5858283" lon="11.3663471"><ele>627.0</ele><time>2026-04-18T11:12:17.7Z</time></trkpt><trkpt lat="43.58596" lon="11.3663533"><ele>627.0</ele><time>2026-04-18T11:12:18.701Z</time></trkpt><trkpt lat="43.5860946" lon="11.3663692"><ele>627.0</ele><time>2026-04-18T11:12:19.7Z</time></trkpt><trkpt lat="43.5862297" lon="11.3663836"><ele>627.0</ele><time>2026-04-18T11:12:20.701Z</time></trkpt><trkpt lat="43.5863673" lon="11.3663976"><ele>627.0</ele><time>2026-04-18T11:12:21.7Z</time></trkpt><trkpt lat="43.586504" lon="11.3664131"><ele>627.0</ele><time>2026-04-18T11:12:22.7Z</time></trkpt><trkpt lat="43.5866387" lon="11.3664289"><ele>627.0</ele><time>2026-04-18T11:12:23.7Z</time></trkpt><trkpt lat="43.5867782" lon="11.3664313"><ele>627.0</ele><time>2026-04-18T11:12:24.7Z</time></trkpt><trkpt lat="43.5869179" lon="11.3664308"><ele>627.0</ele><time>2026-04-18T11:12:25.701Z</time></trkpt><trkpt lat="43.5870541" lon="11.3664247"><ele>627.0</ele><time>2026-04-18T11:12:26.7Z</time></trkpt><trkpt lat="43.5871841" lon="11.36641"><ele>627.0</ele><time>2026-04-18T11:12:27.7Z</time></trkpt><trkpt lat="43.5873071" lon="11.366405"><ele>626.2</ele><time>2026-04-18T11:12:28.701Z</time></trkpt><trkpt lat="43.5874174" lon="11.3664049"><ele>625.4000000000001</ele><time>2026-04-18T11:12:29.7Z</time></trkpt><trkpt lat="43.5875254" lon="11.366396"><ele>624.5999999999999</ele><time>2026-04-18T11:12:30.7Z</time></trkpt><trkpt lat="43.5876267" lon="11.3664029"><ele>623.8</ele><time>2026-04-18T11:12:31.701Z</time></trkpt><trkpt lat="43.587726" lon="11.3664133"><ele>623.0</ele><time>2026-04-18T11:12:32.701Z</time></trkpt><trkpt lat="43.587826" lon="11.3664223"><ele>622.4</ele><time>2026-04-18T11:12:33.7Z</time></trkpt><trkpt lat="43.5879334" lon="11.3664349"><ele>621.8</ele><time>2026-04-18T11:12:34.701Z</time></trkpt><trkpt lat="43.5880314" lon="11.3664466"><ele>621.2</ele><time>2026-04-18T11:12:35.7Z</time></trkpt><trkpt lat="43.5881256" lon="11.3664732"><ele>620.6</ele><time>2026-04-18T11:12:36.7Z</time></trkpt><trkpt lat="43.5882096" lon="11.366495"><ele>620.0</ele><time>2026-04-18T11:12:37.7Z</time></trkpt><trkpt lat="43.5882988" lon="11.3665266"><ele>620.0</ele><time>2026-04-18T11:12:38.7Z</time></trkpt><trkpt lat="43.5883742" lon="11.3665402"><ele>620.0</ele><time>2026-04-18T11:12:39.701Z</time></trkpt><trkpt lat="43.588445" lon="11.3665515"><ele>620.0</ele><time>2026-04-18T11:12:40.7Z</time></trkpt><trkpt lat="43.5885188" lon="11.3665466"><ele>620.0</ele><time>2026-04-18T11:12:41.7Z</time></trkpt><trkpt lat="43.5885931" lon="11.3665292"><ele>620.0</ele><time>2026-04-18T11:12:42.701Z</time></trkpt><trkpt lat="43.5886677" lon="11.3665043"><ele>620.0</ele><time>2026-04-18T11:12:43.7Z</time></trkpt><trkpt lat="43.5887385" lon="11.3664778"><ele>620.0</ele><time>2026-04-18T11:12:44.7Z</time></trkpt><trkpt lat="43.5888459" lon="11.3664791"><ele>619.6</ele><time>2026-04-18T11:12:46.7Z</time></trkpt><trkpt lat="43.5889439" lon="11.3665517"><ele>619.2</ele><time>2026-04-18T11:12:48.7Z</time></trkpt><trkpt lat="43.5890441" lon="11.3666"><ele>618.8</ele><time>2026-04-18T11:12:50.7Z</time></trkpt><trkpt lat="43.5891493" lon="11.3666481"><ele>618.4</ele><time>2026-04-18T11:12:52.7Z</time></trkpt><trkpt lat="43.5892638" lon="11.3666473"><ele>618.0</ele><time>2026-04-18T11:12:54.701Z</time></trkpt><trkpt lat="43.5893694" lon="11.3666569"><ele>618.0</ele><time>2026-04-18T11:12:56.7Z</time></trkpt><trkpt lat="43.5894298" lon="11.3667292"><ele>618.0</ele><time>2026-04-18T11:12:58.7Z</time></trkpt><trkpt lat="43.5894713" lon="11.3667967"><ele>618.0</ele><time>2026-04-18T11:13:00.7Z</time></trkpt><trkpt lat="43.5895443" lon="11.3668577"><ele>618.0</ele><time>2026-04-18T11:13:02.7Z</time></trkpt><trkpt lat="43.5896463" lon="11.3669084"><ele>618.0</ele><time>2026-04-18T11:13:04.7Z</time></trkpt><trkpt lat="43.5897376" lon="11.3669791"><ele>618.0</ele><time>2026-04-18T11:13:06.7Z</time></trkpt><trkpt lat="43.589848" lon="11.3670383"><ele>616.8333333333334</ele><time>2026-04-18T11:13:08.7Z</time></trkpt><trkpt lat="43.5899159" lon="11.3670446"><ele>615.6666666666666</ele><time>2026-04-18T11:13:11.7Z</time></trkpt><trkpt lat="43.5899955" lon="11.3669973"><ele>614.5</ele><time>2026-04-18T11:13:18.7Z</time></trkpt><trkpt lat="43.590066" lon="11.3669449"><ele>613.3333333333333</ele><time>2026-04-18T11:13:20.7Z</time></trkpt><trkpt lat="43.5901617" lon="11.3668828"><ele>612.1666666666666</ele><time>2026-04-18T11:13:22.7Z</time></trkpt><trkpt lat="43.5902132" lon="11.3668281"><ele>611.0</ele><time>2026-04-18T11:13:23.7Z</time></trkpt><trkpt lat="43.5902766" lon="11.3667846"><ele>608.8333333333333</ele><time>2026-04-18T11:13:24.701Z</time></trkpt><trkpt lat="43.5903662" lon="11.3667074"><ele>606.6666666666666</ele><time>2026-04-18T11:13:26.7Z</time></trkpt><trkpt lat="43.590423" lon="11.366592"><ele>604.5</ele><time>2026-04-18T11:13:28.7Z</time></trkpt><trkpt lat="43.59046" lon="11.3665177"><ele>602.3333333333334</ele><time>2026-04-18T11:13:29.697Z</time></trkpt><trkpt lat="43.5905205" lon="11.366437"><ele>600.1666666666667</ele><time>2026-04-18T11:13:30.7Z</time></trkpt><trkpt lat="43.5905531" lon="11.3663546"><ele>598.0</ele><time>2026-04-18T11:13:31.7Z</time></trkpt><trkpt lat="43.5906297" lon="11.3662467"><ele>598.0</ele><time>2026-04-18T11:13:33.7Z</time></trkpt><trkpt lat="43.5907046" lon="11.3662306"><ele>598.0</ele><time>2026-04-18T11:13:35.701Z</time></trkpt><trkpt lat="43.5907873" lon="11.366313"><ele>598.0</ele><time>2026-04-18T11:13:37.701Z</time></trkpt><trkpt lat="43.5908577" lon="11.3663939"><ele>598.0</ele><time>2026-04-18T11:13:39.7Z</time></trkpt><trkpt lat="43.5909167" lon="11.36648"><ele>598.0</ele><time>2026-04-18T11:13:41.7Z</time></trkpt><trkpt lat="43.5910007" lon="11.3665715"><ele>598.0</ele><time>2026-04-18T11:13:43.701Z</time></trkpt><trkpt lat="43.5910573" lon="11.366661"><ele>598.0</ele><time>2026-04-18T11:13:45.7Z</time></trkpt><trkpt lat="43.5910457" lon="11.3667876"><ele>598.0</ele><time>2026-04-18T11:13:47.7Z</time></trkpt><trkpt lat="43.5910446" lon="11.3669482"><ele>598.0</ele><time>2026-04-18T11:13:49.7Z</time></trkpt><trkpt lat="43.5911172" lon="11.3670509"><ele>598.0</ele><time>2026-04-18T11:13:51.7Z</time></trkpt><trkpt lat="43.5912118" lon="11.3670022"><ele>598.6666666666667</ele><time>2026-04-18T11:13:53.701Z</time></trkpt><trkpt lat="43.5912699" lon="11.3669603"><ele>599.3333333333334</ele><time>2026-04-18T11:13:54.7Z</time></trkpt><trkpt lat="43.5913879" lon="11.366914"><ele>600.0</ele><time>2026-04-18T11:13:56.7Z</time></trkpt><trkpt lat="43.5914488" lon="11.3668775"><ele>600.6666666666666</ele><time>2026-04-18T11:13:57.7Z</time></trkpt><trkpt lat="43.5915084" lon="11.3668391"><ele>601.3333333333333</ele><time>2026-04-18T11:13:58.7Z</time></trkpt><trkpt lat="43.5915879" lon="11.3667319"><ele>602.0</ele><time>2026-04-18T11:14:00.7Z</time></trkpt><trkpt lat="43.5916835" lon="11.3666253"><ele>602.0</ele><time>2026-04-18T11:14:02.7Z</time></trkpt><trkpt lat="43.5917463" lon="11.3665878"><ele>602.0</ele><time>2026-04-18T11:14:04.701Z</time></trkpt><trkpt lat="43.5918109" lon="11.3665043"><ele>602.0</ele><time>2026-04-18T11:14:06.7Z</time></trkpt><trkpt lat="43.5918836" lon="11.3664095"><ele>602.0</ele><time>2026-04-18T11:14:08.701Z</time></trkpt><trkpt lat="43.591961" lon="11.3663474"><ele>602.0</ele><time>2026-04-18T11:14:10.7Z</time></trkpt><trkpt lat="43.5920187" lon="11.3663108"><ele>602.0</ele><time>2026-04-18T11:14:12.7Z</time></trkpt><trkpt lat="43.5920898" lon="11.3662914"><ele>602.3333333333333</ele><time>2026-04-18T11:14:15.7Z</time></trkpt><trkpt lat="43.5921678" lon="11.3662583"><ele>602.6666666666666</ele><time>2026-04-18T11:14:18.7Z</time></trkpt><trkpt lat="43.5922319" lon="11.366263"><ele>603.0</ele><time>2026-04-18T11:14:24.7Z</time></trkpt><trkpt lat="43.5922957" lon="11.3662599"><ele>603.3333333333334</ele><time>2026-04-18T11:14:26.7Z</time></trkpt><trkpt lat="43.5924158" lon="11.3662783"><ele>603.6666666666667</ele><time>2026-04-18T11:14:28.701Z</time></trkpt><trkpt lat="43.5925016" lon="11.3662734"><ele>604.0</ele><time>2026-04-18T11:14:30.7Z</time></trkpt><trkpt lat="43.5926127" lon="11.3662507"><ele>604.0</ele><time>2026-04-18T11:14:32.7Z</time></trkpt><trkpt lat="43.5926786" lon="11.366245"><ele>604.0</ele><time>2026-04-18T11:14:33.7Z</time></trkpt><trkpt lat="43.5928025" lon="11.3662096"><ele>604.0</ele><time>2026-04-18T11:14:35.7Z</time></trkpt><trkpt lat="43.5928722" lon="11.3661893"><ele>604.0</ele><time>2026-04-18T11:14:36.7Z</time></trkpt><trkpt lat="43.5929985" lon="11.3661705"><ele>604.0</ele><time>2026-04-18T11:14:38.701Z</time></trkpt><trkpt lat="43.5930714" lon="11.3662204"><ele>604.1428571428572</ele><time>2026-04-18T11:14:39.7Z</time></trkpt><trkpt lat="43.5931296" lon="11.3662896"><ele>604.2857142857143</ele><time>2026-04-18T11:14:40.7Z</time></trkpt><trkpt lat="43.593194" lon="11.3663486"><ele>604.4285714285714</ele><time>2026-04-18T11:14:41.7Z</time></trkpt><trkpt lat="43.5932501" lon="11.3664082"><ele>604.5714285714287</ele><time>2026-04-18T11:14:42.701Z</time></trkpt><trkpt lat="43.5933029" lon="11.3664786"><ele>604.7142857142858</ele><time>2026-04-18T11:14:43.7Z</time></trkpt><trkpt lat="43.5933412" lon="11.3665572"><ele>604.8571428571429</ele><time>2026-04-18T11:14:44.7Z</time></trkpt><trkpt lat="43.5933844" lon="11.3666279"><ele>605.0</ele><time>2026-04-18T11:14:45.7Z</time></trkpt><trkpt lat="43.5934384" lon="11.3667023"><ele>605.0</ele><time>2026-04-18T11:14:46.701Z</time></trkpt><trkpt lat="43.5935005" lon="11.366735"><ele>605.0</ele><time>2026-04-18T11:14:47.7Z</time></trkpt><trkpt lat="43.5935613" lon="11.3666727"><ele>605.0</ele><time>2026-04-18T11:14:49.701Z</time></trkpt><trkpt lat="43.5936138" lon="11.3665602"><ele>605.0</ele><time>2026-04-18T11:14:51.7Z</time></trkpt><trkpt lat="43.5936816" lon="11.3664401"><ele>605.0</ele><time>2026-04-18T11:14:53.7Z</time></trkpt><trkpt lat="43.5937215" lon="11.3663534"><ele>605.0</ele><time>2026-04-18T11:14:55.701Z</time></trkpt><trkpt lat="43.5937743" lon="11.3662782"><ele>601.8</ele><time>2026-04-18T11:14:57.7Z</time></trkpt><trkpt lat="43.5937995" lon="11.3661334"><ele>598.6</ele><time>2026-04-18T11:14:59.7Z</time></trkpt><trkpt lat="43.5937976" lon="11.3660419"><ele>595.4</ele><time>2026-04-18T11:15:01.698Z</time></trkpt><trkpt lat="43.5938766" lon="11.3660469"><ele>592.2</ele><time>2026-04-18T11:15:04.7Z</time></trkpt><trkpt lat="43.5939941" lon="11.3660837"><ele>589.0</ele><time>2026-04-18T11:15:06.7Z</time></trkpt><trkpt lat="43.5941022" lon="11.3660732"><ele>589.0</ele><time>2026-04-18T11:15:08.7Z</time></trkpt><trkpt lat="43.5941673" lon="11.3660285"><ele>589.0</ele><time>2026-04-18T11:15:09.701Z</time></trkpt><trkpt lat="43.5942354" lon="11.3659683"><ele>589.0</ele><time>2026-04-18T11:15:10.7Z</time></trkpt><trkpt lat="43.5942949" lon="11.3659182"><ele>589.0</ele><time>2026-04-18T11:15:11.701Z</time></trkpt><trkpt lat="43.5943515" lon="11.3658673"><ele>589.0</ele><time>2026-04-18T11:15:12.7Z</time></trkpt><trkpt lat="43.5944642" lon="11.365819"><ele>589.0</ele><time>2026-04-18T11:15:14.7Z</time></trkpt><trkpt lat="43.5945801" lon="11.3658509"><ele>587.1666666666667</ele><time>2026-04-18T11:15:16.7Z</time></trkpt><trkpt lat="43.5946513" lon="11.3658801"><ele>585.3333333333334</ele><time>2026-04-18T11:15:17.701Z</time></trkpt><trkpt lat="43.5947323" lon="11.365927"><ele>583.5</ele><time>2026-04-18T11:15:18.7Z</time></trkpt><trkpt lat="43.5948031" lon="11.3659588"><ele>581.6666666666666</ele><time>2026-04-18T11:15:19.701Z</time></trkpt><trkpt lat="43.5948836" lon="11.3659875"><ele>579.8333333333333</ele><time>2026-04-18T11:15:20.701Z</time></trkpt><trkpt lat="43.5949643" lon="11.3660157"><ele>578.0</ele><time>2026-04-18T11:15:21.7Z</time></trkpt><trkpt lat="43.595043" lon="11.3660218"><ele>578.0</ele><time>2026-04-18T11:15:22.7Z</time></trkpt><trkpt lat="43.5951204" lon="11.366002"><ele>578.0</ele><time>2026-04-18T11:15:23.701Z</time></trkpt><trkpt lat="43.5952078" lon="11.3659555"><ele>578.0</ele><time>2026-04-18T11:15:24.701Z</time></trkpt><trkpt lat="43.5952894" lon="11.3659065"><ele>578.0</ele><time>2026-04-18T11:15:25.701Z</time></trkpt><trkpt lat="43.5953783" lon="11.3658629"><ele>578.0</ele><time>2026-04-18T11:15:26.7Z</time></trkpt><trkpt lat="43.5954666" lon="11.3658104"><ele>578.0</ele><time>2026-04-18T11:15:27.7Z</time></trkpt><trkpt lat="43.595545" lon="11.3657543"><ele>578.0</ele><time>2026-04-18T11:15:28.7Z</time></trkpt><trkpt lat="43.5956168" lon="11.3656802"><ele>578.0</ele><time>2026-04-18T11:15:29.701Z</time></trkpt><trkpt lat="43.595673" lon="11.3655811"><ele>578.0</ele><time>2026-04-18T11:15:30.7Z</time></trkpt><trkpt lat="43.5957115" lon="11.3654642"><ele>578.0</ele><time>2026-04-18T11:15:31.7Z</time></trkpt><trkpt lat="43.5957395" lon="11.3653297"><ele>576.8</ele><time>2026-04-18T11:15:32.7Z</time></trkpt><trkpt lat="43.5957601" lon="11.3651965"><ele>575.5999999999999</ele><time>2026-04-18T11:15:33.7Z</time></trkpt><trkpt lat="43.5957668" lon="11.3650622"><ele>574.4000000000001</ele><time>2026-04-18T11:15:34.701Z</time></trkpt><trkpt lat="43.5957616" lon="11.3649393"><ele>573.2</ele><time>2026-04-18T11:15:35.7Z</time></trkpt><trkpt lat="43.5957511" lon="11.3648155"><ele>572.0</ele><time>2026-04-18T11:15:36.7Z</time></trkpt><trkpt lat="43.5957358" lon="11.3646982"><ele>570.5</ele><time>2026-04-18T11:15:37.7Z</time></trkpt><trkpt lat="43.5957158" lon="11.364586"><ele>569.0</ele><time>2026-04-18T11:15:38.7Z</time></trkpt><trkpt lat="43.5957028" lon="11.3644865"><ele>567.5</ele><time>2026-04-18T11:15:39.7Z</time></trkpt><trkpt lat="43.5956945" lon="11.3643887"><ele>566.0</ele><time>2026-04-18T11:15:40.7Z</time></trkpt><trkpt lat="43.5956886" lon="11.364283"><ele>564.5</ele><time>2026-04-18T11:15:41.7Z</time></trkpt><trkpt lat="43.5956891" lon="11.3641762"><ele>563.0</ele><time>2026-04-18T11:15:42.7Z</time></trkpt><trkpt lat="43.5956932" lon="11.3640747"><ele>563.0</ele><time>2026-04-18T11:15:43.701Z</time></trkpt><trkpt lat="43.5957052" lon="11.3639773"><ele>563.0</ele><time>2026-04-18T11:15:44.7Z</time></trkpt><trkpt lat="43.5957287" lon="11.3638863"><ele>563.0</ele><time>2026-04-18T11:15:45.7Z</time></trkpt><trkpt lat="43.5958054" lon="11.3637511"><ele>563.0</ele><time>2026-04-18T11:15:47.7Z</time></trkpt><trkpt lat="43.5958649" lon="11.36369"><ele>563.0</ele><time>2026-04-18T11:15:48.7Z</time></trkpt><trkpt lat="43.5959332" lon="11.3636394"><ele>563.0</ele><time>2026-04-18T11:15:49.7Z</time></trkpt><trkpt lat="43.5960086" lon="11.3636093"><ele>560.5</ele><time>2026-04-18T11:15:50.701Z</time></trkpt><trkpt lat="43.5960758" lon="11.3635747"><ele>558.0</ele><time>2026-04-18T11:15:51.7Z</time></trkpt><trkpt lat="43.5961396" lon="11.3635561"><ele>555.5</ele><time>2026-04-18T11:15:52.7Z</time></trkpt><trkpt lat="43.5962705" lon="11.3635637"><ele>553.0</ele><time>2026-04-18T11:15:54.701Z</time></trkpt><trkpt lat="43.5963375" lon="11.3635942"><ele>550.5</ele><time>2026-04-18T11:15:55.7Z</time></trkpt><trkpt lat="43.5964038" lon="11.3636307"><ele>548.0</ele><time>2026-04-18T11:15:56.7Z</time></trkpt><trkpt lat="43.5964774" lon="11.363671"><ele>547.1666666666666</ele><time>2026-04-18T11:15:57.701Z</time></trkpt><trkpt lat="43.5965422" lon="11.3637164"><ele>546.3333333333333</ele><time>2026-04-18T11:15:58.701Z</time></trkpt><trkpt lat="43.5966075" lon="11.363778"><ele>545.5</ele><time>2026-04-18T11:15:59.7Z</time></trkpt><trkpt lat="43.5966622" lon="11.3638454"><ele>544.6666666666666</ele><time>2026-04-18T11:16:00.7Z</time></trkpt><trkpt lat="43.5967277" lon="11.363897"><ele>543.8333333333334</ele><time>2026-04-18T11:16:01.7Z</time></trkpt><trkpt lat="43.5967959" lon="11.3639361"><ele>543.0</ele><time>2026-04-18T11:16:02.701Z</time></trkpt><trkpt lat="43.5968701" lon="11.3639603"><ele>542.1999999999999</ele><time>2026-04-18T11:16:03.7Z</time></trkpt><trkpt lat="43.5969443" lon="11.3639645"><ele>541.4</ele><time>2026-04-18T11:16:04.701Z</time></trkpt><trkpt lat="43.5970269" lon="11.3639517"><ele>540.5999999999999</ele><time>2026-04-18T11:16:05.7Z</time></trkpt><trkpt lat="43.5971189" lon="11.3639182"><ele>539.8</ele><time>2026-04-18T11:16:06.701Z</time></trkpt><trkpt lat="43.5972116" lon="11.3638645"><ele>539.0</ele><time>2026-04-18T11:16:07.7Z</time></trkpt><trkpt lat="43.5973067" lon="11.3638138"><ele>537.6</ele><time>2026-04-18T11:16:08.701Z</time></trkpt><trkpt lat="43.5974085" lon="11.3637624"><ele>536.2</ele><time>2026-04-18T11:16:09.7Z</time></trkpt><trkpt lat="43.5974937" lon="11.363721"><ele>534.8000000000001</ele><time>2026-04-18T11:16:10.701Z</time></trkpt><trkpt lat="43.5975738" lon="11.3637"><ele>533.4</ele><time>2026-04-18T11:16:11.701Z</time></trkpt><trkpt lat="43.5976573" lon="11.3637148"><ele>532.0</ele><time>2026-04-18T11:16:12.7Z</time></trkpt><trkpt lat="43.5977445" lon="11.363747"><ele>532.0</ele><time>2026-04-18T11:16:13.7Z</time></trkpt><trkpt lat="43.5978248" lon="11.3637765"><ele>532.0</ele><time>2026-04-18T11:16:14.7Z</time></trkpt><trkpt lat="43.5979043" lon="11.3638013"><ele>532.0</ele><time>2026-04-18T11:16:15.701Z</time></trkpt><trkpt lat="43.5979736" lon="11.3638217"><ele>532.0</ele><time>2026-04-18T11:16:16.7Z</time></trkpt><trkpt lat="43.5980806" lon="11.3638348"><ele>532.0</ele><time>2026-04-18T11:16:18.7Z</time></trkpt><trkpt lat="43.598145" lon="11.3638366"><ele>532.0</ele><time>2026-04-18T11:16:20.701Z</time></trkpt><trkpt lat="43.5982585" lon="11.3638237"><ele>532.0</ele><time>2026-04-18T11:16:56.7Z</time></trkpt><trkpt lat="43.598334" lon="11.3637905"><ele>532.0</ele><time>2026-04-18T11:16:57.7Z</time></trkpt><trkpt lat="43.5984238" lon="11.3637415"><ele>532.0</ele><time>2026-04-18T11:16:58.7Z</time></trkpt><trkpt lat="43.5985131" lon="11.3636858"><ele>532.0</ele><time>2026-04-18T11:16:59.701Z</time></trkpt><trkpt lat="43.5986118" lon="11.3636409"><ele>532.0</ele><time>2026-04-18T11:17:00.701Z</time></trkpt><trkpt lat="43.5987091" lon="11.3635901"><ele>532.6</ele><time>2026-04-18T11:17:01.7Z</time></trkpt><trkpt lat="43.5988146" lon="11.3635406"><ele>533.2</ele><time>2026-04-18T11:17:02.7Z</time></trkpt><trkpt lat="43.5989179" lon="11.3634869"><ele>533.8</ele><time>2026-04-18T11:17:03.701Z</time></trkpt><trkpt lat="43.5990149" lon="11.3634339"><ele>534.4</ele><time>2026-04-18T11:17:04.701Z</time></trkpt><trkpt lat="43.5991047" lon="11.3633758"><ele>535.0</ele><time>2026-04-18T11:17:05.7Z</time></trkpt><trkpt lat="43.5992039" lon="11.3633311"><ele>535.0</ele><time>2026-04-18T11:17:06.701Z</time></trkpt><trkpt lat="43.5992924" lon="11.3632681"><ele>535.0</ele><time>2026-04-18T11:17:07.7Z</time></trkpt><trkpt lat="43.5993707" lon="11.3632028"><ele>535.0</ele><time>2026-04-18T11:17:08.7Z</time></trkpt><trkpt lat="43.599438" lon="11.3631307"><ele>535.0</ele><time>2026-04-18T11:17:09.7Z</time></trkpt><trkpt lat="43.5995022" lon="11.3630454"><ele>535.0</ele><time>2026-04-18T11:17:10.701Z</time></trkpt><trkpt lat="43.599575" lon="11.3629566"><ele>535.6</ele><time>2026-04-18T11:17:11.7Z</time></trkpt><trkpt lat="43.5996484" lon="11.3628574"><ele>536.2</ele><time>2026-04-18T11:17:12.7Z</time></trkpt><trkpt lat="43.5997237" lon="11.3627457"><ele>536.8</ele><time>2026-04-18T11:17:13.7Z</time></trkpt><trkpt lat="43.5998028" lon="11.3626254"><ele>537.4</ele><time>2026-04-18T11:17:14.701Z</time></trkpt><trkpt lat="43.5998847" lon="11.3625078"><ele>538.0</ele><time>2026-04-18T11:17:15.7Z</time></trkpt><trkpt lat="43.5999637" lon="11.3623893"><ele>538.0</ele><time>2026-04-18T11:17:16.7Z</time></trkpt><trkpt lat="43.6000371" lon="11.3622857"><ele>538.0</ele><time>2026-04-18T11:17:17.7Z</time></trkpt><trkpt lat="43.6000889" lon="11.3621934"><ele>538.0</ele><time>2026-04-18T11:17:18.701Z</time></trkpt><trkpt lat="43.6001415" lon="11.3621251"><ele>538.0</ele><time>2026-04-18T11:17:19.7Z</time></trkpt><trkpt lat="43.6002521" lon="11.3620509"><ele>538.0</ele><time>2026-04-18T11:17:21.7Z</time></trkpt><trkpt lat="43.6003129" lon="11.36202"><ele>538.0</ele><time>2026-04-18T11:17:22.7Z</time></trkpt><trkpt lat="43.6003775" lon="11.361975"><ele>538.3333333333334</ele><time>2026-04-18T11:17:23.7Z</time></trkpt><trkpt lat="43.6004398" lon="11.3619256"><ele>538.6666666666667</ele><time>2026-04-18T11:17:24.7Z</time></trkpt><trkpt lat="43.6005116" lon="11.3618755"><ele>539.0</ele><time>2026-04-18T11:17:25.7Z</time></trkpt><trkpt lat="43.6005753" lon="11.3618293"><ele>539.3333333333334</ele><time>2026-04-18T11:17:26.7Z</time></trkpt><trkpt lat="43.6006384" lon="11.3618029"><ele>539.6666666666666</ele><time>2026-04-18T11:17:27.7Z</time></trkpt><trkpt lat="43.6007348" lon="11.3617272"><ele>540.0</ele><time>2026-04-18T11:17:29.7Z</time></trkpt><trkpt lat="43.6008216" lon="11.3616311"><ele>540.0</ele><time>2026-04-18T11:17:31.7Z</time></trkpt><trkpt lat="43.6009158" lon="11.3615711"><ele>540.0</ele><time>2026-04-18T11:17:33.701Z</time></trkpt><trkpt lat="43.6010293" lon="11.361536"><ele>540.0</ele><time>2026-04-18T11:17:35.7Z</time></trkpt><trkpt lat="43.601121" lon="11.3615147"><ele>540.0</ele><time>2026-04-18T11:17:37.7Z</time></trkpt><trkpt lat="43.6012063" lon="11.3614263"><ele>540.0</ele><time>2026-04-18T11:17:39.701Z</time></trkpt><trkpt lat="43.601291" lon="11.3613713"><ele>542.5</ele><time>2026-04-18T11:17:41.7Z</time></trkpt><trkpt lat="43.6013555" lon="11.3613182"><ele>545.0</ele><time>2026-04-18T11:17:44.7Z</time></trkpt><trkpt lat="43.6014253" lon="11.3612619"><ele>547.5</ele><time>2026-04-18T11:17:48.701Z</time></trkpt><trkpt lat="43.6014894" lon="11.3612108"><ele>550.0</ele><time>2026-04-18T11:17:50.7Z</time></trkpt><trkpt lat="43.6015478" lon="11.3611678"><ele>552.5</ele><time>2026-04-18T11:18:02.7Z</time></trkpt><trkpt lat="43.6016258" lon="11.3611052"><ele>555.0</ele><time>2026-04-18T11:18:05.7Z</time></trkpt><trkpt lat="43.6016929" lon="11.3610544"><ele>555.0</ele><time>2026-04-18T11:18:07.7Z</time></trkpt><trkpt lat="43.6017737" lon="11.36099"><ele>555.0</ele><time>2026-04-18T11:18:09.7Z</time></trkpt><trkpt lat="43.6018469" lon="11.3609418"><ele>555.0</ele><time>2026-04-18T11:18:11.701Z</time></trkpt><trkpt lat="43.601929" lon="11.3608875"><ele>555.0</ele><time>2026-04-18T11:18:13.701Z</time></trkpt><trkpt lat="43.6020134" lon="11.3608282"><ele>555.0</ele><time>2026-04-18T11:18:15.701Z</time></trkpt><trkpt lat="43.6020974" lon="11.3607627"><ele>556.3333333333334</ele><time>2026-04-18T11:18:17.701Z</time></trkpt><trkpt lat="43.6021947" lon="11.3607076"><ele>557.6666666666666</ele><time>2026-04-18T11:18:19.7Z</time></trkpt><trkpt lat="43.6022801" lon="11.3606421"><ele>559.0</ele><time>2026-04-18T11:18:21.7Z</time></trkpt><trkpt lat="43.6023428" lon="11.3605643"><ele>560.3333333333333</ele><time>2026-04-18T11:18:23.7Z</time></trkpt><trkpt lat="43.6024102" lon="11.3605281"><ele>561.6666666666666</ele><time>2026-04-18T11:18:25.7Z</time></trkpt><trkpt lat="43.6024887" lon="11.3604793"><ele>563.0</ele><time>2026-04-18T11:18:27.701Z</time></trkpt><trkpt lat="43.6025687" lon="11.3604222"><ele>563.0</ele><time>2026-04-18T11:18:29.7Z</time></trkpt><trkpt lat="43.6026621" lon="11.3603549"><ele>563.0</ele><time>2026-04-18T11:18:31.7Z</time></trkpt><trkpt lat="43.6027558" lon="11.36029"><ele>563.0</ele><time>2026-04-18T11:18:33.701Z</time></trkpt><trkpt lat="43.6028372" lon="11.3602041"><ele>563.0</ele><time>2026-04-18T11:18:35.7Z</time></trkpt><trkpt lat="43.602907" lon="11.3601478"><ele>563.0</ele><time>2026-04-18T11:18:37.7Z</time></trkpt><trkpt lat="43.6029706" lon="11.360097"><ele>563.4</ele><time>2026-04-18T11:18:39.7Z</time></trkpt><trkpt lat="43.6030505" lon="11.3600447"><ele>563.8</ele><time>2026-04-18T11:18:41.701Z</time></trkpt><trkpt lat="43.6031193" lon="11.3600023"><ele>564.2</ele><time>2026-04-18T11:18:43.7Z</time></trkpt><trkpt lat="43.6032041" lon="11.3599567"><ele>564.6</ele><time>2026-04-18T11:18:45.7Z</time></trkpt><trkpt lat="43.6033079" lon="11.3599066"><ele>565.0</ele><time>2026-04-18T11:18:47.7Z</time></trkpt><trkpt lat="43.6034105" lon="11.3598426"><ele>565.0</ele><time>2026-04-18T11:18:49.701Z</time></trkpt><trkpt lat="43.6034895" lon="11.3597318"><ele>565.0</ele><time>2026-04-18T11:18:51.7Z</time></trkpt><trkpt lat="43.6035616" lon="11.3596319"><ele>565.0</ele><time>2026-04-18T11:18:53.7Z</time></trkpt><trkpt lat="43.6036606" lon="11.359591"><ele>565.0</ele><time>2026-04-18T11:18:55.701Z</time></trkpt><trkpt lat="43.6037628" lon="11.35956"><ele>565.0</ele><time>2026-04-18T11:18:57.7Z</time></trkpt><trkpt lat="43.603859" lon="11.3595388"><ele>565.6</ele><time>2026-04-18T11:18:59.7Z</time></trkpt><trkpt lat="43.6039382" lon="11.3595058"><ele>566.2</ele><time>2026-04-18T11:19:01.7Z</time></trkpt><trkpt lat="43.6040248" lon="11.3594364"><ele>566.8</ele><time>2026-04-18T11:19:03.7Z</time></trkpt><trkpt lat="43.6041097" lon="11.3593612"><ele>567.4</ele><time>2026-04-18T11:19:05.701Z</time></trkpt><trkpt lat="43.604175" lon="11.3592496"><ele>568.0</ele><time>2026-04-18T11:19:07.7Z</time></trkpt><trkpt lat="43.6042383" lon="11.3591785"><ele>568.0</ele><time>2026-04-18T11:19:09.7Z</time></trkpt><trkpt lat="43.6043371" lon="11.3591189"><ele>568.0</ele><time>2026-04-18T11:19:11.7Z</time></trkpt><trkpt lat="43.6044576" lon="11.3590785"><ele>568.0</ele><time>2026-04-18T11:19:13.701Z</time></trkpt><trkpt lat="43.6045166" lon="11.3590441"><ele>568.0</ele><time>2026-04-18T11:19:14.7Z</time></trkpt><trkpt lat="43.6046156" lon="11.3589738"><ele>568.0</ele><time>2026-04-18T11:19:16.701Z</time></trkpt><trkpt lat="43.6047304" lon="11.3589055"><ele>568.5</ele><time>2026-04-18T11:19:18.701Z</time></trkpt><trkpt lat="43.6048354" lon="11.3588269"><ele>569.0</ele><time>2026-04-18T11:19:20.7Z</time></trkpt><trkpt lat="43.6049268" lon="11.3587379"><ele>569.5</ele><time>2026-04-18T11:19:22.7Z</time></trkpt><trkpt lat="43.6049811" lon="11.3586726"><ele>570.0</ele><time>2026-04-18T11:19:24.7Z</time></trkpt><trkpt lat="43.6050152" lon="11.3585925"><ele>570.5</ele><time>2026-04-18T11:19:26.701Z</time></trkpt><trkpt lat="43.6050188" lon="11.3585048"><ele>571.0</ele><time>2026-04-18T11:19:28.701Z</time></trkpt><trkpt lat="43.6050715" lon="11.3584177"><ele>571.0</ele><time>2026-04-18T11:19:31.7Z</time></trkpt><trkpt lat="43.6051435" lon="11.3583664"><ele>571.0</ele><time>2026-04-18T11:19:33.7Z</time></trkpt><trkpt lat="43.6052251" lon="11.3583025"><ele>571.0</ele><time>2026-04-18T11:19:35.7Z</time></trkpt><trkpt lat="43.6053066" lon="11.3582431"><ele>571.0</ele><time>2026-04-18T11:19:37.7Z</time></trkpt><trkpt lat="43.6054166" lon="11.3581835"><ele>571.0</ele><time>2026-04-18T11:19:39.701Z</time></trkpt><trkpt lat="43.6054803" lon="11.3581421"><ele>572.5</ele><time>2026-04-18T11:19:40.7Z</time></trkpt><trkpt lat="43.6055503" lon="11.3580975"><ele>574.0</ele><time>2026-04-18T11:19:41.7Z</time></trkpt><trkpt lat="43.6056241" lon="11.3580416"><ele>575.5</ele><time>2026-04-18T11:19:42.701Z</time></trkpt><trkpt lat="43.6056923" lon="11.3579946"><ele>577.0</ele><time>2026-04-18T11:19:43.701Z</time></trkpt><trkpt lat="43.6057612" lon="11.357949"><ele>578.5</ele><time>2026-04-18T11:19:44.701Z</time></trkpt><trkpt lat="43.605828" lon="11.3578969"><ele>580.0</ele><time>2026-04-18T11:19:45.7Z</time></trkpt><trkpt lat="43.6058873" lon="11.3578334"><ele>580.6666666666667</ele><time>2026-04-18T11:19:46.7Z</time></trkpt><trkpt lat="43.6059416" lon="11.3577614"><ele>581.3333333333334</ele><time>2026-04-18T11:19:47.7Z</time></trkpt><trkpt lat="43.6059992" lon="11.3576805"><ele>582.0</ele><time>2026-04-18T11:19:48.7Z</time></trkpt><trkpt lat="43.6060547" lon="11.3575973"><ele>582.6666666666666</ele><time>2026-04-18T11:19:49.7Z</time></trkpt><trkpt lat="43.6061155" lon="11.3575136"><ele>583.3333333333333</ele><time>2026-04-18T11:19:50.7Z</time></trkpt><trkpt lat="43.6061784" lon="11.3574339"><ele>584.0</ele><time>2026-04-18T11:19:51.701Z</time></trkpt><trkpt lat="43.6062479" lon="11.3573339"><ele>586.4</ele><time>2026-04-18T11:19:52.7Z</time></trkpt><trkpt lat="43.606314" lon="11.3572347"><ele>588.8</ele><time>2026-04-18T11:19:53.7Z</time></trkpt><trkpt lat="43.6063833" lon="11.3571504"><ele>591.2</ele><time>2026-04-18T11:19:54.701Z</time></trkpt><trkpt lat="43.6064495" lon="11.3570665"><ele>593.6</ele><time>2026-04-18T11:19:55.701Z</time></trkpt><trkpt lat="43.6065158" lon="11.3569847"><ele>596.0</ele><time>2026-04-18T11:19:56.7Z</time></trkpt><trkpt lat="43.6065902" lon="11.3569157"><ele>596.1666666666666</ele><time>2026-04-18T11:19:57.701Z</time></trkpt><trkpt lat="43.606672" lon="11.356853"><ele>596.3333333333333</ele><time>2026-04-18T11:19:58.7Z</time></trkpt><trkpt lat="43.6067526" lon="11.3568016"><ele>596.5</ele><time>2026-04-18T11:19:59.7Z</time></trkpt><trkpt lat="43.6068318" lon="11.3567432"><ele>596.6666666666666</ele><time>2026-04-18T11:20:00.7Z</time></trkpt><trkpt lat="43.6068957" lon="11.3566599"><ele>596.8333333333334</ele><time>2026-04-18T11:20:01.7Z</time></trkpt><trkpt lat="43.6069384" lon="11.3565748"><ele>597.0</ele><time>2026-04-18T11:20:02.7Z</time></trkpt><trkpt lat="43.6069682" lon="11.356487"><ele>598.8333333333334</ele><time>2026-04-18T11:20:03.7Z</time></trkpt><trkpt lat="43.6069858" lon="11.3563647"><ele>600.6666666666666</ele><time>2026-04-18T11:20:05.7Z</time></trkpt><trkpt lat="43.6070453" lon="11.3562841"><ele>602.5</ele><time>2026-04-18T11:21:17.7Z</time></trkpt><trkpt lat="43.6070913" lon="11.3562214"><ele>604.3333333333333</ele><time>2026-04-18T11:21:24.697Z</time></trkpt><trkpt lat="43.607146" lon="11.3561452"><ele>606.1666666666666</ele><time>2026-04-18T11:21:27.7Z</time></trkpt><trkpt lat="43.6072004" lon="11.3560737"><ele>608.0</ele><time>2026-04-18T11:21:30.7Z</time></trkpt><trkpt lat="43.607257" lon="11.3559999"><ele>608.0</ele><time>2026-04-18T11:21:34.7Z</time></trkpt><trkpt lat="43.6073247" lon="11.3559184"><ele>608.0</ele><time>2026-04-18T11:21:37.701Z</time></trkpt><trkpt lat="43.6073632" lon="11.3558209"><ele>608.0</ele><time>2026-04-18T11:21:47.701Z</time></trkpt><trkpt lat="43.6073175" lon="11.3558857"><ele>608.0</ele><time>2026-04-18T11:23:41.7Z</time></trkpt><trkpt lat="43.6072785" lon="11.3559563"><ele>608.0</ele><time>2026-04-18T11:24:13.7Z</time></trkpt><trkpt lat="43.6072172" lon="11.3560247"><ele>608.0</ele><time>2026-04-18T11:24:21.701Z</time></trkpt><trkpt lat="43.6071465" lon="11.3561141"><ele>608.0</ele><time>2026-04-18T11:24:24.7Z</time></trkpt><trkpt lat="43.6070908" lon="11.356205"><ele>608.0</ele><time>2026-04-18T11:24:26.7Z</time></trkpt><trkpt lat="43.6070245" lon="11.3563182"><ele>608.0</ele><time>2026-04-18T11:24:28.7Z</time></trkpt><trkpt lat="43.6069786" lon="11.3564529"><ele>608.0</ele><time>2026-04-18T11:24:30.7Z</time></trkpt><trkpt lat="43.606928" lon="11.3565999"><ele>608.0</ele><time>2026-04-18T11:24:32.701Z</time></trkpt><trkpt lat="43.6068303" lon="11.3567191"><ele>606.1666666666666</ele><time>2026-04-18T11:24:34.701Z</time></trkpt><trkpt lat="43.6067585" lon="11.3567679"><ele>604.3333333333333</ele><time>2026-04-18T11:24:35.7Z</time></trkpt><trkpt lat="43.6066872" lon="11.3568141"><ele>602.5</ele><time>2026-04-18T11:24:36.701Z</time></trkpt><trkpt lat="43.6066161" lon="11.3568745"><ele>600.6666666666666</ele><time>2026-04-18T11:24:37.701Z</time></trkpt><trkpt lat="43.6065443" lon="11.3569368"><ele>598.8333333333334</ele><time>2026-04-18T11:24:38.7Z</time></trkpt><trkpt lat="43.6064724" lon="11.3570136"><ele>597.0</ele><time>2026-04-18T11:24:39.7Z</time></trkpt><trkpt lat="43.6064034" lon="11.3571101"><ele>596.8000000000001</ele><time>2026-04-18T11:24:40.7Z</time></trkpt><trkpt lat="43.6063289" lon="11.3572094"><ele>596.6</ele><time>2026-04-18T11:24:41.701Z</time></trkpt><trkpt lat="43.6062561" lon="11.3573175"><ele>596.4000000000001</ele><time>2026-04-18T11:24:42.701Z</time></trkpt><trkpt lat="43.6061925" lon="11.357427"><ele>596.2</ele><time>2026-04-18T11:24:43.7Z</time></trkpt><trkpt lat="43.60612" lon="11.3575365"><ele>596.0</ele><time>2026-04-18T11:24:44.7Z</time></trkpt><trkpt lat="43.606046" lon="11.3576458"><ele>593.6</ele><time>2026-04-18T11:24:45.701Z</time></trkpt><trkpt lat="43.6059719" lon="11.3577533"><ele>591.2</ele><time>2026-04-18T11:24:46.7Z</time></trkpt><trkpt lat="43.6058958" lon="11.357851"><ele>588.8</ele><time>2026-04-18T11:24:47.701Z</time></trkpt><trkpt lat="43.6058099" lon="11.35793"><ele>586.4</ele><time>2026-04-18T11:24:48.7Z</time></trkpt><trkpt lat="43.6057231" lon="11.3579965"><ele>584.0</ele><time>2026-04-18T11:24:49.7Z</time></trkpt><trkpt lat="43.6056263" lon="11.3580556"><ele>583.0</ele><time>2026-04-18T11:24:50.7Z</time></trkpt><trkpt lat="43.6055214" lon="11.3581224"><ele>582.0</ele><time>2026-04-18T11:24:51.7Z</time></trkpt><trkpt lat="43.6054252" lon="11.3581946"><ele>581.0</ele><time>2026-04-18T11:24:52.701Z</time></trkpt><trkpt lat="43.6053218" lon="11.3582607"><ele>580.0</ele><time>2026-04-18T11:24:53.701Z</time></trkpt><trkpt lat="43.6052169" lon="11.3583327"><ele>577.75</ele><time>2026-04-18T11:24:54.7Z</time></trkpt><trkpt lat="43.6051063" lon="11.3584114"><ele>575.5</ele><time>2026-04-18T11:24:55.7Z</time></trkpt><trkpt lat="43.6050001" lon="11.358482"><ele>573.25</ele><time>2026-04-18T11:24:56.701Z</time></trkpt><trkpt lat="43.6048893" lon="11.3585483"><ele>571.0</ele><time>2026-04-18T11:24:57.7Z</time></trkpt><trkpt lat="43.6047791" lon="11.3586042"><ele>571.0</ele><time>2026-04-18T11:24:58.7Z</time></trkpt><trkpt lat="43.6046721" lon="11.3586504"><ele>571.0</ele><time>2026-04-18T11:24:59.701Z</time></trkpt><trkpt lat="43.6045575" lon="11.3586925"><ele>571.0</ele><time>2026-04-18T11:25:00.7Z</time></trkpt><trkpt lat="43.6044454" lon="11.3587451"><ele>571.0</ele><time>2026-04-18T11:25:01.7Z</time></trkpt><trkpt lat="43.6043353" lon="11.3587895"><ele>570.25</ele><time>2026-04-18T11:25:02.7Z</time></trkpt><trkpt lat="43.6042167" lon="11.3588331"><ele>569.5</ele><time>2026-04-18T11:25:03.7Z</time></trkpt><trkpt lat="43.6041014" lon="11.3588746"><ele>568.75</ele><time>2026-04-18T11:25:04.701Z</time></trkpt><trkpt lat="43.6039916" lon="11.3589213"><ele>568.0</ele><time>2026-04-18T11:25:05.7Z</time></trkpt><trkpt lat="43.6038882" lon="11.3589671"><ele>568.0</ele><time>2026-04-18T11:25:06.7Z</time></trkpt><trkpt lat="43.603789" lon="11.3590191"><ele>568.0</ele><time>2026-04-18T11:25:07.7Z</time></trkpt><trkpt lat="43.6036829" lon="11.3590736"><ele>568.0</ele><time>2026-04-18T11:25:08.7Z</time></trkpt><trkpt lat="43.6035737" lon="11.3591232"><ele>568.0</ele><time>2026-04-18T11:25:09.7Z</time></trkpt><trkpt lat="43.6034634" lon="11.3591511"><ele>568.0</ele><time>2026-04-18T11:25:10.7Z</time></trkpt><trkpt lat="43.603349" lon="11.3591538"><ele>566.0</ele><time>2026-04-18T11:25:11.7Z</time></trkpt><trkpt lat="43.6032302" lon="11.3591593"><ele>564.0</ele><time>2026-04-18T11:25:12.701Z</time></trkpt><trkpt lat="43.6031114" lon="11.3591638"><ele>562.0</ele><time>2026-04-18T11:25:13.7Z</time></trkpt><trkpt lat="43.6029909" lon="11.3591854"><ele>560.0</ele><time>2026-04-18T11:25:14.7Z</time></trkpt><trkpt lat="43.6028641" lon="11.3592082"><ele>558.25</ele><time>2026-04-18T11:25:15.701Z</time></trkpt><trkpt lat="43.6027317" lon="11.3592341"><ele>556.5</ele><time>2026-04-18T11:25:16.7Z</time></trkpt><trkpt lat="43.6026123" lon="11.3592698"><ele>554.75</ele><time>2026-04-18T11:25:17.7Z</time></trkpt><trkpt lat="43.6024922" lon="11.3592967"><ele>553.0</ele><time>2026-04-18T11:25:18.701Z</time></trkpt><trkpt lat="43.6023836" lon="11.3593184"><ele>553.0</ele><time>2026-04-18T11:25:19.7Z</time></trkpt><trkpt lat="43.6022842" lon="11.3593439"><ele>553.0</ele><time>2026-04-18T11:25:20.701Z</time></trkpt><trkpt lat="43.6022003" lon="11.3593682"><ele>553.0</ele><time>2026-04-18T11:25:21.7Z</time></trkpt><trkpt lat="43.6021257" lon="11.3594197"><ele>553.0</ele><time>2026-04-18T11:25:22.701Z</time></trkpt><trkpt lat="43.6020454" lon="11.3594781"><ele>553.0</ele><time>2026-04-18T11:25:23.7Z</time></trkpt><trkpt lat="43.6019692" lon="11.3595552"><ele>552.4</ele><time>2026-04-18T11:25:24.7Z</time></trkpt><trkpt lat="43.6018942" lon="11.3596414"><ele>551.8</ele><time>2026-04-18T11:25:25.695Z</time></trkpt><trkpt lat="43.6018238" lon="11.3597396"><ele>551.2</ele><time>2026-04-18T11:25:26.7Z</time></trkpt><trkpt lat="43.6017452" lon="11.3598417"><ele>550.6</ele><time>2026-04-18T11:25:27.701Z</time></trkpt><trkpt lat="43.6016556" lon="11.3599471"><ele>550.0</ele><time>2026-04-18T11:25:28.7Z</time></trkpt><trkpt lat="43.6015687" lon="11.3600448"><ele>550.0</ele><time>2026-04-18T11:25:29.7Z</time></trkpt><trkpt lat="43.6014893" lon="11.3601421"><ele>550.0</ele><time>2026-04-18T11:25:30.7Z</time></trkpt><trkpt lat="43.6014114" lon="11.3602582"><ele>550.0</ele><time>2026-04-18T11:25:31.7Z</time></trkpt><trkpt lat="43.6013482" lon="11.3603897"><ele>550.0</ele><time>2026-04-18T11:25:32.7Z</time></trkpt><trkpt lat="43.6012984" lon="11.3605378"><ele>551.25</ele><time>2026-04-18T11:25:33.7Z</time></trkpt><trkpt lat="43.6012443" lon="11.3606974"><ele>552.5</ele><time>2026-04-18T11:25:34.7Z</time></trkpt><trkpt lat="43.6011955" lon="11.3608513"><ele>553.75</ele><time>2026-04-18T11:25:35.7Z</time></trkpt><trkpt lat="43.6011468" lon="11.3609871"><ele>555.0</ele><time>2026-04-18T11:25:36.7Z</time></trkpt><trkpt lat="43.6010909" lon="11.3611178"><ele>552.0</ele><time>2026-04-18T11:25:37.7Z</time></trkpt><trkpt lat="43.6010253" lon="11.3612335"><ele>549.0</ele><time>2026-04-18T11:25:38.701Z</time></trkpt><trkpt lat="43.6009488" lon="11.3613212"><ele>546.0</ele><time>2026-04-18T11:25:39.7Z</time></trkpt><trkpt lat="43.6008641" lon="11.3614107"><ele>543.0</ele><time>2026-04-18T11:25:40.7Z</time></trkpt><trkpt lat="43.6007677" lon="11.3614958"><ele>540.0</ele><time>2026-04-18T11:25:41.7Z</time></trkpt><trkpt lat="43.6006633" lon="11.3615753"><ele>540.0</ele><time>2026-04-18T11:25:42.7Z</time></trkpt><trkpt lat="43.6005475" lon="11.3616563"><ele>540.0</ele><time>2026-04-18T11:25:43.7Z</time></trkpt><trkpt lat="43.6004343" lon="11.3617414"><ele>540.0</ele><time>2026-04-18T11:25:44.7Z</time></trkpt><trkpt lat="43.6003318" lon="11.3618345"><ele>540.0</ele><time>2026-04-18T11:25:45.7Z</time></trkpt><trkpt lat="43.6002378" lon="11.3619425"><ele>539.5</ele><time>2026-04-18T11:25:46.7Z</time></trkpt><trkpt lat="43.6001487" lon="11.3620714"><ele>539.0</ele><time>2026-04-18T11:25:47.7Z</time></trkpt><trkpt lat="43.6000521" lon="11.3622082"><ele>538.5</ele><time>2026-04-18T11:25:48.701Z</time></trkpt><trkpt lat="43.5999633" lon="11.3623509"><ele>538.0</ele><time>2026-04-18T11:25:49.701Z</time></trkpt><trkpt lat="43.5998754" lon="11.3624873"><ele>538.0</ele><time>2026-04-18T11:25:50.701Z</time></trkpt><trkpt lat="43.599784" lon="11.3626166"><ele>538.0</ele><time>2026-04-18T11:25:51.7Z</time></trkpt><trkpt lat="43.5996953" lon="11.3627515"><ele>538.0</ele><time>2026-04-18T11:25:52.7Z</time></trkpt><trkpt lat="43.5996094" lon="11.3628663"><ele>538.0</ele><time>2026-04-18T11:25:53.701Z</time></trkpt><trkpt lat="43.59953" lon="11.362979"><ele>537.4</ele><time>2026-04-18T11:25:54.7Z</time></trkpt><trkpt lat="43.5994613" lon="11.3630891"><ele>536.8</ele><time>2026-04-18T11:25:55.7Z</time></trkpt><trkpt lat="43.599383" lon="11.3631857"><ele>536.2</ele><time>2026-04-18T11:25:56.7Z</time></trkpt><trkpt lat="43.5993008" lon="11.363265"><ele>535.6</ele><time>2026-04-18T11:25:57.7Z</time></trkpt><trkpt lat="43.5992218" lon="11.3633241"><ele>535.0</ele><time>2026-04-18T11:25:58.7Z</time></trkpt><trkpt lat="43.5991507" lon="11.3633781"><ele>535.0</ele><time>2026-04-18T11:25:59.7Z</time></trkpt><trkpt lat="43.5990662" lon="11.3634486"><ele>535.0</ele><time>2026-04-18T11:26:00.7Z</time></trkpt><trkpt lat="43.5989779" lon="11.363497"><ele>535.0</ele><time>2026-04-18T11:26:01.7Z</time></trkpt><trkpt lat="43.5988887" lon="11.3635548"><ele>535.0</ele><time>2026-04-18T11:26:02.7Z</time></trkpt><trkpt lat="43.5987952" lon="11.3636065"><ele>535.0</ele><time>2026-04-18T11:26:03.701Z</time></trkpt><trkpt lat="43.5987081" lon="11.3636528"><ele>534.5</ele><time>2026-04-18T11:26:04.7Z</time></trkpt><trkpt lat="43.5986146" lon="11.3636986"><ele>534.0</ele><time>2026-04-18T11:26:05.7Z</time></trkpt><trkpt lat="43.5985311" lon="11.3637396"><ele>533.5</ele><time>2026-04-18T11:26:06.7Z</time></trkpt><trkpt lat="43.5984543" lon="11.3637634"><ele>533.0</ele><time>2026-04-18T11:26:07.7Z</time></trkpt><trkpt lat="43.5983901" lon="11.3637833"><ele>532.5</ele><time>2026-04-18T11:26:08.7Z</time></trkpt><trkpt lat="43.5983175" lon="11.3638493"><ele>532.0</ele><time>2026-04-18T11:26:10.7Z</time></trkpt><trkpt lat="43.5982939" lon="11.3639525"><ele>531.8000000000001</ele><time>2026-04-18T11:26:12.7Z</time></trkpt><trkpt lat="43.5983018" lon="11.3640576"><ele>531.6</ele><time>2026-04-18T11:26:14.7Z</time></trkpt><trkpt lat="43.5983176" lon="11.3641477"><ele>531.4000000000001</ele><time>2026-04-18T11:26:16.701Z</time></trkpt><trkpt lat="43.5983284" lon="11.3642768"><ele>531.2</ele><time>2026-04-18T11:26:18.7Z</time></trkpt><trkpt lat="43.5983723" lon="11.3644159"><ele>531.0</ele><time>2026-04-18T11:26:20.7Z</time></trkpt><trkpt lat="43.5984401" lon="11.3645339"><ele>531.0</ele><time>2026-04-18T11:26:22.7Z</time></trkpt><trkpt lat="43.5985226" lon="11.3645836"><ele>531.0</ele><time>2026-04-18T11:26:24.7Z</time></trkpt><trkpt lat="43.5986436" lon="11.3646574"><ele>531.0</ele><time>2026-04-18T11:26:26.7Z</time></trkpt><trkpt lat="43.5987065" lon="11.3646985"><ele>531.0</ele><time>2026-04-18T11:26:27.7Z</time></trkpt><trkpt lat="43.5987738" lon="11.3647526"><ele>531.0</ele><time>2026-04-18T11:26:28.7Z</time></trkpt><trkpt lat="43.598831" lon="11.3648037"><ele>531.0</ele><time>2026-04-18T11:26:29.7Z</time></trkpt><trkpt lat="43.5989366" lon="11.3648818"><ele>528.6</ele><time>2026-04-18T11:26:31.7Z</time></trkpt><trkpt lat="43.599027" lon="11.3649753"><ele>526.2</ele><time>2026-04-18T11:26:33.7Z</time></trkpt><trkpt lat="43.5991254" lon="11.3650871"><ele>523.8</ele><time>2026-04-18T11:26:35.7Z</time></trkpt><trkpt lat="43.5991799" lon="11.3651431"><ele>521.4</ele><time>2026-04-18T11:26:36.7Z</time></trkpt><trkpt lat="43.5992304" lon="11.365217"><ele>519.0</ele><time>2026-04-18T11:26:37.7Z</time></trkpt><trkpt lat="43.5992795" lon="11.3652935"><ele>519.0</ele><time>2026-04-18T11:26:38.7Z</time></trkpt><trkpt lat="43.5993303" lon="11.365361"><ele>519.0</ele><time>2026-04-18T11:26:39.7Z</time></trkpt><trkpt lat="43.5993828" lon="11.3654269"><ele>519.0</ele><time>2026-04-18T11:26:40.7Z</time></trkpt><trkpt lat="43.5994357" lon="11.3654901"><ele>519.0</ele><time>2026-04-18T11:26:41.7Z</time></trkpt><trkpt lat="43.5994954" lon="11.3656159"><ele>519.0</ele><time>2026-04-18T11:26:43.7Z</time></trkpt><trkpt lat="43.5994993" lon="11.3657292"><ele>519.0</ele><time>2026-04-18T11:26:45.7Z</time></trkpt><trkpt lat="43.5994899" lon="11.3658835"><ele>519.0</ele><time>2026-04-18T11:26:47.7Z</time></trkpt><trkpt lat="43.5994923" lon="11.3660767"><ele>519.0</ele><time>2026-04-18T11:26:49.701Z</time></trkpt><trkpt lat="43.5994957" lon="11.3661788"><ele>519.0</ele><time>2026-04-18T11:26:50.701Z</time></trkpt><trkpt lat="43.5995138" lon="11.3663606"><ele>519.0</ele><time>2026-04-18T11:26:52.7Z</time></trkpt><trkpt lat="43.5995404" lon="11.3664531"><ele>519.0</ele><time>2026-04-18T11:26:53.701Z</time></trkpt><trkpt lat="43.5995606" lon="11.3665406"><ele>516.0</ele><time>2026-04-18T11:26:54.7Z</time></trkpt><trkpt lat="43.5995761" lon="11.3666309"><ele>513.0</ele><time>2026-04-18T11:26:55.7Z</time></trkpt><trkpt lat="43.5996001" lon="11.3667866"><ele>510.0</ele><time>2026-04-18T11:26:57.701Z</time></trkpt><trkpt lat="43.5996652" lon="11.3669249"><ele>507.0</ele><time>2026-04-18T11:26:59.7Z</time></trkpt><trkpt lat="43.5997197" lon="11.3669757"><ele>504.0</ele><time>2026-04-18T11:27:00.701Z</time></trkpt><trkpt lat="43.5997807" lon="11.3670135"><ele>501.0</ele><time>2026-04-18T11:27:01.7Z</time></trkpt><trkpt lat="43.5999067" lon="11.3670762"><ele>501.0</ele><time>2026-04-18T11:27:03.7Z</time></trkpt><trkpt lat="43.5999905" lon="11.3671078"><ele>501.0</ele><time>2026-04-18T11:27:04.7Z</time></trkpt><trkpt lat="43.6000757" lon="11.3671404"><ele>501.0</ele><time>2026-04-18T11:27:05.7Z</time></trkpt><trkpt lat="43.6001455" lon="11.3671606"><ele>501.0</ele><time>2026-04-18T11:27:06.701Z</time></trkpt><trkpt lat="43.600207" lon="11.3671912"><ele>501.0</ele><time>2026-04-18T11:27:07.7Z</time></trkpt><trkpt lat="43.6002635" lon="11.3672305"><ele>501.0</ele><time>2026-04-18T11:27:08.701Z</time></trkpt><trkpt lat="43.6003565" lon="11.3673306"><ele>498.8333333333333</ele><time>2026-04-18T11:27:10.7Z</time></trkpt><trkpt lat="43.6004363" lon="11.3674709"><ele>496.66666666666663</ele><time>2026-04-18T11:27:12.696Z</time></trkpt><trkpt lat="43.6004786" lon="11.3675604"><ele>494.5</ele><time>2026-04-18T11:27:13.7Z</time></trkpt><trkpt lat="43.6005318" lon="11.3676683"><ele>492.3333333333333</ele><time>2026-04-18T11:27:14.7Z</time></trkpt><trkpt lat="43.6005777" lon="11.367746"><ele>490.16666666666663</ele><time>2026-04-18T11:27:15.7Z</time></trkpt><trkpt lat="43.6006237" lon="11.367824"><ele>488.0</ele><time>2026-04-18T11:27:16.7Z</time></trkpt><trkpt lat="43.6006812" lon="11.3678952"><ele>487.99999999999994</ele><time>2026-04-18T11:27:17.7Z</time></trkpt><trkpt lat="43.6007472" lon="11.3679603"><ele>488.0</ele><time>2026-04-18T11:27:18.701Z</time></trkpt><trkpt lat="43.600818" lon="11.368026"><ele>488.0</ele><time>2026-04-18T11:27:19.701Z</time></trkpt><trkpt lat="43.6008879" lon="11.3680875"><ele>488.0</ele><time>2026-04-18T11:27:20.7Z</time></trkpt><trkpt lat="43.6009517" lon="11.3681462"><ele>487.99999999999994</ele><time>2026-04-18T11:27:21.7Z</time></trkpt><trkpt lat="43.6010153" lon="11.3682055"><ele>488.0</ele><time>2026-04-18T11:27:22.701Z</time></trkpt><trkpt lat="43.6010762" lon="11.3682633"><ele>489.49999999999994</ele><time>2026-04-18T11:27:23.701Z</time></trkpt><trkpt lat="43.6011322" lon="11.3683438"><ele>491.0</ele><time>2026-04-18T11:27:24.701Z</time></trkpt><trkpt lat="43.6011806" lon="11.3684173"><ele>492.5</ele><time>2026-04-18T11:27:25.701Z</time></trkpt><trkpt lat="43.6012218" lon="11.3684919"><ele>494.0</ele><time>2026-04-18T11:27:26.7Z</time></trkpt><trkpt lat="43.60128" lon="11.3685891"><ele>495.49999999999994</ele><time>2026-04-18T11:27:27.7Z</time></trkpt><trkpt lat="43.6013439" lon="11.3686766"><ele>497.0</ele><time>2026-04-18T11:27:28.7Z</time></trkpt><trkpt lat="43.6014011" lon="11.3687655"><ele>495.1428571428571</ele><time>2026-04-18T11:27:29.701Z</time></trkpt><trkpt lat="43.6014584" lon="11.3688456"><ele>493.2857142857143</ele><time>2026-04-18T11:27:30.7Z</time></trkpt><trkpt lat="43.60151" lon="11.3689109"><ele>491.42857142857144</ele><time>2026-04-18T11:27:31.7Z</time></trkpt><trkpt lat="43.6015543" lon="11.3689732"><ele>489.57142857142856</ele><time>2026-04-18T11:27:32.701Z</time></trkpt><trkpt lat="43.6015993" lon="11.3690355"><ele>487.71428571428567</ele><time>2026-04-18T11:27:33.7Z</time></trkpt><trkpt lat="43.6016521" lon="11.3690909"><ele>485.85714285714283</ele><time>2026-04-18T11:27:34.7Z</time></trkpt><trkpt lat="43.6017141" lon="11.3691316"><ele>484.0</ele><time>2026-04-18T11:27:35.701Z</time></trkpt><trkpt lat="43.6017743" lon="11.3691696"><ele>484.0</ele><time>2026-04-18T11:27:36.7Z</time></trkpt><trkpt lat="43.6018809" lon="11.3692493"><ele>484.0</ele><time>2026-04-18T11:27:38.7Z</time></trkpt><trkpt lat="43.6019827" lon="11.3693179"><ele>484.0</ele><time>2026-04-18T11:27:40.7Z</time></trkpt><trkpt lat="43.6020766" lon="11.3693773"><ele>484.0</ele><time>2026-04-18T11:27:42.701Z</time></trkpt><trkpt lat="43.6021496" lon="11.369444"><ele>484.0</ele><time>2026-04-18T11:27:44.7Z</time></trkpt><trkpt lat="43.6022073" lon="11.3695891"><ele>482.0</ele><time>2026-04-18T11:27:46.701Z</time></trkpt><trkpt lat="43.6022426" lon="11.3696731"><ele>479.99999999999994</ele><time>2026-04-18T11:27:47.7Z</time></trkpt><trkpt lat="43.6022916" lon="11.369758"><ele>478.0</ele><time>2026-04-18T11:27:48.7Z</time></trkpt><trkpt lat="43.6023552" lon="11.3698165"><ele>476.0</ele><time>2026-04-18T11:27:49.7Z</time></trkpt><trkpt lat="43.6024106" lon="11.3698771"><ele>473.99999999999994</ele><time>2026-04-18T11:27:50.7Z</time></trkpt><trkpt lat="43.602465" lon="11.369925"><ele>472.0</ele><time>2026-04-18T11:27:51.7Z</time></trkpt><trkpt lat="43.6025249" lon="11.3699777"><ele>470.0</ele><time>2026-04-18T11:27:52.701Z</time></trkpt><trkpt lat="43.6026165" lon="11.3700618"><ele>470.0</ele><time>2026-04-18T11:27:54.7Z</time></trkpt><trkpt lat="43.602694" lon="11.3701663"><ele>470.0</ele><time>2026-04-18T11:27:56.7Z</time></trkpt><trkpt lat="43.6027316" lon="11.3702975"><ele>470.0</ele><time>2026-04-18T11:27:58.701Z</time></trkpt><trkpt lat="43.6027222" lon="11.3704348"><ele>470.0</ele><time>2026-04-18T11:28:00.701Z</time></trkpt><trkpt lat="43.6027225" lon="11.37059"><ele>470.0</ele><time>2026-04-18T11:28:02.701Z</time></trkpt><trkpt lat="43.602712" lon="11.3706771"><ele>468.6</ele><time>2026-04-18T11:28:03.7Z</time></trkpt><trkpt lat="43.6027026" lon="11.370848"><ele>467.2</ele><time>2026-04-18T11:28:05.7Z</time></trkpt><trkpt lat="43.602698" lon="11.3709649"><ele>465.79999999999995</ele><time>2026-04-18T11:28:07.701Z</time></trkpt><trkpt lat="43.6026811" lon="11.3710802"><ele>464.4</ele><time>2026-04-18T11:28:09.7Z</time></trkpt><trkpt lat="43.6026692" lon="11.3712264"><ele>463.0</ele><time>2026-04-18T11:28:11.7Z</time></trkpt><trkpt lat="43.6026867" lon="11.3713415"><ele>460.6666666666667</ele><time>2026-04-18T11:28:13.7Z</time></trkpt><trkpt lat="43.6027417" lon="11.3714094"><ele>458.33333333333337</ele><time>2026-04-18T11:28:15.7Z</time></trkpt><trkpt lat="43.602812" lon="11.3713803"><ele>456.0</ele><time>2026-04-18T11:28:17.701Z</time></trkpt><trkpt lat="43.6028579" lon="11.3712933"><ele>453.66666666666663</ele><time>2026-04-18T11:28:19.701Z</time></trkpt><trkpt lat="43.6028992" lon="11.3711765"><ele>451.3333333333333</ele><time>2026-04-18T11:28:21.7Z</time></trkpt><trkpt lat="43.60295" lon="11.3710295"><ele>449.0</ele><time>2026-04-18T11:28:23.7Z</time></trkpt><trkpt lat="43.6029757" lon="11.3709485"><ele>448.4</ele><time>2026-04-18T11:28:24.701Z</time></trkpt><trkpt lat="43.6030493" lon="11.3708178"><ele>447.79999999999995</ele><time>2026-04-18T11:28:26.7Z</time></trkpt><trkpt lat="43.6031403" lon="11.3708183"><ele>447.20000000000005</ele><time>2026-04-18T11:28:28.7Z</time></trkpt><trkpt lat="43.6032028" lon="11.3709494"><ele>446.6</ele><time>2026-04-18T11:28:30.7Z</time></trkpt><trkpt lat="43.6032026" lon="11.3711012"><ele>446.0</ele><time>2026-04-18T11:28:32.7Z</time></trkpt><trkpt lat="43.6031958" lon="11.3711893"><ele>445.99999999999994</ele><time>2026-04-18T11:28:33.7Z</time></trkpt><trkpt lat="43.6031918" lon="11.3712892"><ele>446.0</ele><time>2026-04-18T11:28:34.701Z</time></trkpt><trkpt lat="43.6031952" lon="11.3713808"><ele>446.0</ele><time>2026-04-18T11:28:35.7Z</time></trkpt><trkpt lat="43.6031982" lon="11.371468"><ele>446.0</ele><time>2026-04-18T11:28:36.7Z</time></trkpt><trkpt lat="43.6032138" lon="11.371623"><ele>445.99999999999994</ele><time>2026-04-18T11:28:38.7Z</time></trkpt><trkpt lat="43.603217" lon="11.3717911"><ele>446.0</ele><time>2026-04-18T11:28:40.7Z</time></trkpt><trkpt lat="43.6031832" lon="11.371947"><ele>443.8333333333333</ele><time>2026-04-18T11:28:42.7Z</time></trkpt><trkpt lat="43.6031502" lon="11.3720213"><ele>441.66666666666663</ele><time>2026-04-18T11:28:43.7Z</time></trkpt><trkpt lat="43.6031124" lon="11.3720944"><ele>439.5</ele><time>2026-04-18T11:28:44.701Z</time></trkpt><trkpt lat="43.6030735" lon="11.3721674"><ele>437.33333333333337</ele><time>2026-04-18T11:28:45.7Z</time></trkpt><trkpt lat="43.6030368" lon="11.3722403"><ele>435.1666666666667</ele><time>2026-04-18T11:28:46.7Z</time></trkpt><trkpt lat="43.6029576" lon="11.3723611"><ele>433.0</ele><time>2026-04-18T11:28:48.701Z</time></trkpt><trkpt lat="43.602888" lon="11.3724618"><ele>433.33333333333337</ele><time>2026-04-18T11:28:50.7Z</time></trkpt><trkpt lat="43.6028198" lon="11.3725258"><ele>433.6666666666667</ele><time>2026-04-18T11:28:52.7Z</time></trkpt><trkpt lat="43.6027558" lon="11.3725997"><ele>434.0</ele><time>2026-04-18T11:28:54.7Z</time></trkpt><trkpt lat="43.6027078" lon="11.3726962"><ele>434.33333333333337</ele><time>2026-04-18T11:28:56.7Z</time></trkpt><trkpt lat="43.6026642" lon="11.3727867"><ele>434.6666666666667</ele><time>2026-04-18T11:28:58.7Z</time></trkpt><trkpt lat="43.6026323" lon="11.3728973"><ele>435.0</ele><time>2026-04-18T11:29:01.701Z</time></trkpt><trkpt lat="43.602657" lon="11.3730139"><ele>432.8</ele><time>2026-04-18T11:29:03.7Z</time></trkpt><trkpt lat="43.6027654" lon="11.3730823"><ele>430.6</ele><time>2026-04-18T11:29:05.7Z</time></trkpt><trkpt lat="43.6028302" lon="11.3730816"><ele>428.4</ele><time>2026-04-18T11:29:06.7Z</time></trkpt><trkpt lat="43.6029403" lon="11.373056"><ele>426.2</ele><time>2026-04-18T11:29:08.7Z</time></trkpt><trkpt lat="43.6030166" lon="11.3729901"><ele>424.0</ele><time>2026-04-18T11:29:09.701Z</time></trkpt><trkpt lat="43.6031143" lon="11.372901"><ele>424.0</ele><time>2026-04-18T11:29:10.7Z</time></trkpt><trkpt lat="43.6032216" lon="11.3727878"><ele>424.0</ele><time>2026-04-18T11:29:11.7Z</time></trkpt><trkpt lat="43.6033323" lon="11.3726895"><ele>424.0</ele><time>2026-04-18T11:29:12.7Z</time></trkpt><trkpt lat="43.6034495" lon="11.3725987"><ele>424.0</ele><time>2026-04-18T11:29:13.7Z</time></trkpt><trkpt lat="43.6035704" lon="11.372523"><ele>421.0</ele><time>2026-04-18T11:29:14.7Z</time></trkpt><trkpt lat="43.6036864" lon="11.3724443"><ele>418.0</ele><time>2026-04-18T11:29:15.7Z</time></trkpt><trkpt lat="43.6037892" lon="11.3723558"><ele>415.0</ele><time>2026-04-18T11:29:16.7Z</time></trkpt><trkpt lat="43.6038647" lon="11.3722145"><ele>412.0</ele><time>2026-04-18T11:29:17.701Z</time></trkpt><trkpt lat="43.6038984" lon="11.3720495"><ele>412.0</ele><time>2026-04-18T11:29:18.7Z</time></trkpt><trkpt lat="43.6038879" lon="11.3718905"><ele>412.0</ele><time>2026-04-18T11:29:19.7Z</time></trkpt><trkpt lat="43.6038937" lon="11.3717616"><ele>412.0</ele><time>2026-04-18T11:29:20.7Z</time></trkpt><trkpt lat="43.6039557" lon="11.371665"><ele>412.0</ele><time>2026-04-18T11:29:21.7Z</time></trkpt><trkpt lat="43.6040677" lon="11.3716189"><ele>412.0</ele><time>2026-04-18T11:29:22.7Z</time></trkpt><trkpt lat="43.6041905" lon="11.3715953"><ele>412.0</ele><time>2026-04-18T11:29:23.7Z</time></trkpt><trkpt lat="43.6043016" lon="11.3715547"><ele>412.0</ele><time>2026-04-18T11:29:24.7Z</time></trkpt><trkpt lat="43.6044169" lon="11.3714706"><ele>412.0</ele><time>2026-04-18T11:29:25.7Z</time></trkpt><trkpt lat="43.6045062" lon="11.371356"><ele>412.0</ele><time>2026-04-18T11:29:26.7Z</time></trkpt><trkpt lat="43.6045707" lon="11.3712173"><ele>408.5</ele><time>2026-04-18T11:29:27.7Z</time></trkpt><trkpt lat="43.6046038" lon="11.3710535"><ele>405.0</ele><time>2026-04-18T11:29:28.701Z</time></trkpt><trkpt lat="43.6045994" lon="11.370867"><ele>401.5</ele><time>2026-04-18T11:29:29.7Z</time></trkpt><trkpt lat="43.6045896" lon="11.3706755"><ele>398.0</ele><time>2026-04-18T11:29:30.701Z</time></trkpt><trkpt lat="43.6045718" lon="11.3704947"><ele>397.25</ele><time>2026-04-18T11:29:31.701Z</time></trkpt><trkpt lat="43.604539" lon="11.370323"><ele>396.5</ele><time>2026-04-18T11:29:32.7Z</time></trkpt><trkpt lat="43.6044783" lon="11.3701666"><ele>395.75</ele><time>2026-04-18T11:29:33.7Z</time></trkpt><trkpt lat="43.6043957" lon="11.3700104"><ele>395.0</ele><time>2026-04-18T11:29:34.701Z</time></trkpt><trkpt lat="43.6043284" lon="11.3698501"><ele>399.25</ele><time>2026-04-18T11:29:35.7Z</time></trkpt><trkpt lat="43.604315" lon="11.3696921"><ele>403.5</ele><time>2026-04-18T11:29:36.7Z</time></trkpt><trkpt lat="43.6043346" lon="11.3695285"><ele>407.75</ele><time>2026-04-18T11:29:37.7Z</time></trkpt><trkpt lat="43.6043678" lon="11.369368"><ele>412.0</ele><time>2026-04-18T11:29:38.7Z</time></trkpt><trkpt lat="43.6043767" lon="11.3692073"><ele>412.0</ele><time>2026-04-18T11:29:39.7Z</time></trkpt><trkpt lat="43.6043436" lon="11.3690612"><ele>412.0</ele><time>2026-04-18T11:29:40.7Z</time></trkpt><trkpt lat="43.6042689" lon="11.368918"><ele>412.0</ele><time>2026-04-18T11:29:41.7Z</time></trkpt><trkpt lat="43.6042108" lon="11.3687903"><ele>412.0</ele><time>2026-04-18T11:29:42.7Z</time></trkpt><trkpt lat="43.6041715" lon="11.3686636"><ele>412.0</ele><time>2026-04-18T11:29:43.7Z</time></trkpt><trkpt lat="43.6041804" lon="11.3685447"><ele>412.25</ele><time>2026-04-18T11:29:44.701Z</time></trkpt><trkpt lat="43.6042364" lon="11.3684176"><ele>412.5</ele><time>2026-04-18T11:29:45.7Z</time></trkpt><trkpt lat="43.6043366" lon="11.3683464"><ele>412.75</ele><time>2026-04-18T11:29:46.7Z</time></trkpt><trkpt lat="43.604449" lon="11.3682792"><ele>413.0</ele><time>2026-04-18T11:29:47.7Z</time></trkpt><trkpt lat="43.6045632" lon="11.3682275"><ele>410.75</ele><time>2026-04-18T11:29:48.7Z</time></trkpt><trkpt lat="43.6046734" lon="11.3681671"><ele>408.5</ele><time>2026-04-18T11:29:49.701Z</time></trkpt><trkpt lat="43.6048082" lon="11.368138"><ele>406.25</ele><time>2026-04-18T11:29:50.7Z</time></trkpt><trkpt lat="43.6049363" lon="11.3681443"><ele>404.0</ele><time>2026-04-18T11:29:51.701Z</time></trkpt><trkpt lat="43.6050595" lon="11.368136"><ele>404.0</ele><time>2026-04-18T11:29:52.7Z</time></trkpt><trkpt lat="43.6051895" lon="11.3680941"><ele>404.0</ele><time>2026-04-18T11:29:53.7Z</time></trkpt><trkpt lat="43.6053229" lon="11.3679988"><ele>404.0</ele><time>2026-04-18T11:29:54.701Z</time></trkpt><trkpt lat="43.6054465" lon="11.3678827"><ele>404.0</ele><time>2026-04-18T11:29:55.701Z</time></trkpt><trkpt lat="43.6055613" lon="11.367735"><ele>404.25</ele><time>2026-04-18T11:29:56.7Z</time></trkpt><trkpt lat="43.6056421" lon="11.3675666"><ele>404.5</ele><time>2026-04-18T11:29:57.7Z</time></trkpt><trkpt lat="43.605689" lon="11.3673834"><ele>404.75</ele><time>2026-04-18T11:29:58.7Z</time></trkpt><trkpt lat="43.605684" lon="11.3671757"><ele>405.0</ele><time>2026-04-18T11:29:59.7Z</time></trkpt><trkpt lat="43.6056616" lon="11.3669761"><ele>407.4</ele><time>2026-04-18T11:30:00.701Z</time></trkpt><trkpt lat="43.6056111" lon="11.3668148"><ele>409.8</ele><time>2026-04-18T11:30:01.7Z</time></trkpt><trkpt lat="43.6055578" lon="11.3666719"><ele>412.20000000000005</ele><time>2026-04-18T11:30:02.701Z</time></trkpt><trkpt lat="43.6055242" lon="11.3665544"><ele>414.6</ele><time>2026-04-18T11:30:03.701Z</time></trkpt><trkpt lat="43.6055441" lon="11.3664405"><ele>417.0</ele><time>2026-04-18T11:30:04.7Z</time></trkpt><trkpt lat="43.6056068" lon="11.3663565"><ele>417.0</ele><time>2026-04-18T11:30:05.7Z</time></trkpt><trkpt lat="43.6057089" lon="11.3663518"><ele>417.0</ele><time>2026-04-18T11:30:06.701Z</time></trkpt><trkpt lat="43.6058184" lon="11.3663945"><ele>417.0</ele><time>2026-04-18T11:30:07.7Z</time></trkpt><trkpt lat="43.6059312" lon="11.3664569"><ele>417.0</ele><time>2026-04-18T11:30:08.7Z</time></trkpt><trkpt lat="43.6060245" lon="11.3664814"><ele>417.0</ele><time>2026-04-18T11:30:09.7Z</time></trkpt><trkpt lat="43.6061268" lon="11.3664606"><ele>418.25</ele><time>2026-04-18T11:30:10.7Z</time></trkpt><trkpt lat="43.6062487" lon="11.3664034"><ele>419.5</ele><time>2026-04-18T11:30:11.7Z</time></trkpt><trkpt lat="43.60637" lon="11.3663148"><ele>420.75</ele><time>2026-04-18T11:30:12.7Z</time></trkpt><trkpt lat="43.6064791" lon="11.3661817"><ele>422.0</ele><time>2026-04-18T11:30:13.7Z</time></trkpt><trkpt lat="43.606592" lon="11.3660422"><ele>422.0</ele><time>2026-04-18T11:30:14.7Z</time></trkpt><trkpt lat="43.6066997" lon="11.3658892"><ele>422.0</ele><time>2026-04-18T11:30:15.7Z</time></trkpt><trkpt lat="43.6067933" lon="11.365739"><ele>422.0</ele><time>2026-04-18T11:30:16.7Z</time></trkpt><trkpt lat="43.6068525" lon="11.3655673"><ele>422.0</ele><time>2026-04-18T11:30:17.701Z</time></trkpt><trkpt lat="43.6068759" lon="11.3653765"><ele>424.40000000000003</ele><time>2026-04-18T11:30:18.7Z</time></trkpt><trkpt lat="43.606874" lon="11.365172"><ele>426.8</ele><time>2026-04-18T11:30:19.7Z</time></trkpt><trkpt lat="43.6068541" lon="11.3650026"><ele>429.2</ele><time>2026-04-18T11:30:20.701Z</time></trkpt><trkpt lat="43.6068384" lon="11.3648616"><ele>431.6</ele><time>2026-04-18T11:30:21.701Z</time></trkpt><trkpt lat="43.6068557" lon="11.3647776"><ele>434.0</ele><time>2026-04-18T11:30:22.7Z</time></trkpt><trkpt lat="43.606932" lon="11.3647493"><ele>432.75</ele><time>2026-04-18T11:30:23.701Z</time></trkpt><trkpt lat="43.6070528" lon="11.3647643"><ele>431.5</ele><time>2026-04-18T11:30:24.7Z</time></trkpt><trkpt lat="43.6071577" lon="11.3647816"><ele>430.25</ele><time>2026-04-18T11:30:25.701Z</time></trkpt><trkpt lat="43.6072798" lon="11.3647586"><ele>429.0</ele><time>2026-04-18T11:30:26.7Z</time></trkpt><trkpt lat="43.607407" lon="11.3646938"><ele>431.5</ele><time>2026-04-18T11:30:27.7Z</time></trkpt><trkpt lat="43.6075222" lon="11.3646123"><ele>434.0</ele><time>2026-04-18T11:30:28.7Z</time></trkpt><trkpt lat="43.6076336" lon="11.3645188"><ele>436.5</ele><time>2026-04-18T11:30:29.7Z</time></trkpt><trkpt lat="43.6077434" lon="11.3644203"><ele>439.0</ele><time>2026-04-18T11:30:30.701Z</time></trkpt><trkpt lat="43.6078663" lon="11.3643357"><ele>439.0</ele><time>2026-04-18T11:30:31.7Z</time></trkpt><trkpt lat="43.6079932" lon="11.3642494"><ele>439.0</ele><time>2026-04-18T11:30:32.7Z</time></trkpt><trkpt lat="43.6081202" lon="11.36415"><ele>439.0</ele><time>2026-04-18T11:30:33.7Z</time></trkpt><trkpt lat="43.6082343" lon="11.3640495"><ele>439.0</ele><time>2026-04-18T11:30:34.7Z</time></trkpt><trkpt lat="43.6083386" lon="11.3639518"><ele>439.0</ele><time>2026-04-18T11:30:35.701Z</time></trkpt><trkpt lat="43.6084379" lon="11.3638862"><ele>439.0</ele><time>2026-04-18T11:30:36.7Z</time></trkpt><trkpt lat="43.6085528" lon="11.363876"><ele>439.0</ele><time>2026-04-18T11:30:37.7Z</time></trkpt><trkpt lat="43.6086875" lon="11.3639361"><ele>439.0</ele><time>2026-04-18T11:30:38.7Z</time></trkpt><trkpt lat="43.6087836" lon="11.3640267"><ele>439.25</ele><time>2026-04-18T11:30:39.7Z</time></trkpt><trkpt lat="43.6088844" lon="11.3640957"><ele>439.5</ele><time>2026-04-18T11:30:40.7Z</time></trkpt><trkpt lat="43.6089948" lon="11.3641207"><ele>439.75</ele><time>2026-04-18T11:30:41.7Z</time></trkpt><trkpt lat="43.6091275" lon="11.3640992"><ele>440.0</ele><time>2026-04-18T11:30:42.7Z</time></trkpt><trkpt lat="43.6092412" lon="11.3640332"><ele>440.0</ele><time>2026-04-18T11:30:43.701Z</time></trkpt><trkpt lat="43.6093542" lon="11.3639214"><ele>440.0</ele><time>2026-04-18T11:30:44.7Z</time></trkpt><trkpt lat="43.6094577" lon="11.3637913"><ele>440.0</ele><time>2026-04-18T11:30:45.7Z</time></trkpt><trkpt lat="43.609511" lon="11.3636246"><ele>440.0</ele><time>2026-04-18T11:30:46.7Z</time></trkpt><trkpt lat="43.6095257" lon="11.36343"><ele>439.25</ele><time>2026-04-18T11:30:47.7Z</time></trkpt><trkpt lat="43.6095269" lon="11.3632363"><ele>438.5</ele><time>2026-04-18T11:30:48.7Z</time></trkpt><trkpt lat="43.6095627" lon="11.3630474"><ele>437.75</ele><time>2026-04-18T11:30:49.7Z</time></trkpt><trkpt lat="43.6096293" lon="11.3628655"><ele>437.0</ele><time>2026-04-18T11:30:50.7Z</time></trkpt><trkpt lat="43.6097121" lon="11.3626718"><ele>439.0</ele><time>2026-04-18T11:30:51.7Z</time></trkpt><trkpt lat="43.6097918" lon="11.3624889"><ele>441.0</ele><time>2026-04-18T11:30:52.701Z</time></trkpt><trkpt lat="43.6098803" lon="11.3623098"><ele>443.0</ele><time>2026-04-18T11:30:53.701Z</time></trkpt><trkpt lat="43.6099719" lon="11.3621412"><ele>445.75</ele><time>2026-04-18T11:30:54.701Z</time></trkpt><trkpt lat="43.6100576" lon="11.3619766"><ele>448.5</ele><time>2026-04-18T11:30:55.7Z</time></trkpt><trkpt lat="43.6101247" lon="11.3618121"><ele>451.25</ele><time>2026-04-18T11:30:56.701Z</time></trkpt><trkpt lat="43.610172" lon="11.3616381"><ele>454.0</ele><time>2026-04-18T11:30:57.7Z</time></trkpt><trkpt lat="43.6102019" lon="11.361477"><ele>454.5</ele><time>2026-04-18T11:30:58.7Z</time></trkpt><trkpt lat="43.6102556" lon="11.3613332"><ele>455.0</ele><time>2026-04-18T11:30:59.7Z</time></trkpt><trkpt lat="43.6103476" lon="11.361258"><ele>455.5</ele><time>2026-04-18T11:31:00.7Z</time></trkpt><trkpt lat="43.6104647" lon="11.3612189"><ele>456.0</ele><time>2026-04-18T11:31:01.7Z</time></trkpt><trkpt lat="43.610589" lon="11.3612084"><ele>456.0</ele><time>2026-04-18T11:31:02.7Z</time></trkpt><trkpt lat="43.6107198" lon="11.3611767"><ele>456.0</ele><time>2026-04-18T11:31:03.7Z</time></trkpt><trkpt lat="43.6108356" lon="11.3611176"><ele>456.0</ele><time>2026-04-18T11:31:04.7Z</time></trkpt><trkpt lat="43.610936" lon="11.3610077"><ele>456.0</ele><time>2026-04-18T11:31:05.7Z</time></trkpt><trkpt lat="43.6110057" lon="11.360865"><ele>456.0</ele><time>2026-04-18T11:31:06.7Z</time></trkpt><trkpt lat="43.6110768" lon="11.3607057"><ele>456.0</ele><time>2026-04-18T11:31:07.7Z</time></trkpt><trkpt lat="43.6111428" lon="11.3605459"><ele>456.0</ele><time>2026-04-18T11:31:08.7Z</time></trkpt><trkpt lat="43.6112319" lon="11.3604087"><ele>456.0</ele><time>2026-04-18T11:31:09.7Z</time></trkpt><trkpt lat="43.6113572" lon="11.3603069"><ele>457.5</ele><time>2026-04-18T11:31:10.701Z</time></trkpt><trkpt lat="43.6114899" lon="11.360224"><ele>459.0</ele><time>2026-04-18T11:31:11.701Z</time></trkpt><trkpt lat="43.6116154" lon="11.3601429"><ele>460.5</ele><time>2026-04-18T11:31:12.7Z</time></trkpt><trkpt lat="43.6117472" lon="11.3600489"><ele>462.0</ele><time>2026-04-18T11:31:13.7Z</time></trkpt><trkpt lat="43.6118809" lon="11.3599512"><ele>459.0</ele><time>2026-04-18T11:31:14.7Z</time></trkpt><trkpt lat="43.6120186" lon="11.3598504"><ele>456.0</ele><time>2026-04-18T11:31:15.7Z</time></trkpt><trkpt lat="43.612157" lon="11.359751"><ele>453.0</ele><time>2026-04-18T11:31:16.7Z</time></trkpt><trkpt lat="43.6122919" lon="11.3596441"><ele>460.66666666666663</ele><time>2026-04-18T11:31:17.7Z</time></trkpt><trkpt lat="43.6124302" lon="11.359545"><ele>468.3333333333333</ele><time>2026-04-18T11:31:18.7Z</time></trkpt><trkpt lat="43.6125792" lon="11.3594661"><ele>476.0</ele><time>2026-04-18T11:31:19.7Z</time></trkpt><trkpt lat="43.6127226" lon="11.359391"><ele>470.3333333333333</ele><time>2026-04-18T11:31:20.7Z</time></trkpt><trkpt lat="43.6128471" lon="11.3592926"><ele>464.66666666666663</ele><time>2026-04-18T11:31:21.701Z</time></trkpt><trkpt lat="43.612976" lon="11.3591636"><ele>459.0</ele><time>2026-04-18T11:31:22.7Z</time></trkpt><trkpt lat="43.6130925" lon="11.3590188"><ele>459.0</ele><time>2026-04-18T11:31:23.7Z</time></trkpt><trkpt lat="43.6132152" lon="11.3588756"><ele>459.0</ele><time>2026-04-18T11:31:24.701Z</time></trkpt><trkpt lat="43.6133367" lon="11.358742"><ele>459.0</ele><time>2026-04-18T11:31:25.701Z</time></trkpt><trkpt lat="43.6134387" lon="11.3586118"><ele>462.5</ele><time>2026-04-18T11:31:26.7Z</time></trkpt><trkpt lat="43.6135221" lon="11.3584769"><ele>466.0</ele><time>2026-04-18T11:31:27.701Z</time></trkpt><trkpt lat="43.6136134" lon="11.3583783"><ele>469.5</ele><time>2026-04-18T11:31:28.701Z</time></trkpt><trkpt lat="43.6137221" lon="11.3583375"><ele>473.0</ele><time>2026-04-18T11:31:29.7Z</time></trkpt><trkpt lat="43.6138692" lon="11.3583224"><ele>473.0</ele><time>2026-04-18T11:31:30.7Z</time></trkpt><trkpt lat="43.6140166" lon="11.3583281"><ele>473.0</ele><time>2026-04-18T11:31:31.701Z</time></trkpt><trkpt lat="43.6141769" lon="11.3583458"><ele>473.0</ele><time>2026-04-18T11:31:32.7Z</time></trkpt><trkpt lat="43.6143248" lon="11.3583555"><ele>473.0</ele><time>2026-04-18T11:31:33.7Z</time></trkpt><trkpt lat="43.6144714" lon="11.3583664"><ele>473.0</ele><time>2026-04-18T11:31:34.699Z</time></trkpt><trkpt lat="43.6146154" lon="11.3583742"><ele>473.0</ele><time>2026-04-18T11:31:35.7Z</time></trkpt><trkpt lat="43.6147589" lon="11.3583952"><ele>473.0</ele><time>2026-04-18T11:31:36.701Z</time></trkpt><trkpt lat="43.6148854" lon="11.3584101"><ele>473.75</ele><time>2026-04-18T11:31:37.7Z</time></trkpt><trkpt lat="43.6150066" lon="11.3583986"><ele>474.5</ele><time>2026-04-18T11:31:38.701Z</time></trkpt><trkpt lat="43.6151276" lon="11.3583447"><ele>475.25</ele><time>2026-04-18T11:31:39.701Z</time></trkpt><trkpt lat="43.6152277" lon="11.3582489"><ele>476.0</ele><time>2026-04-18T11:31:40.7Z</time></trkpt><trkpt lat="43.6153189" lon="11.358172"><ele>475.5</ele><time>2026-04-18T11:31:41.7Z</time></trkpt><trkpt lat="43.615429" lon="11.3581451"><ele>475.0</ele><time>2026-04-18T11:31:42.7Z</time></trkpt><trkpt lat="43.6155422" lon="11.3581484"><ele>474.5</ele><time>2026-04-18T11:31:43.7Z</time></trkpt><trkpt lat="43.615669" lon="11.3581726"><ele>474.0</ele><time>2026-04-18T11:31:44.7Z</time></trkpt><trkpt lat="43.6158009" lon="11.358138"><ele>474.0</ele><time>2026-04-18T11:31:45.7Z</time></trkpt><trkpt lat="43.6159454" lon="11.358068"><ele>474.0</ele><time>2026-04-18T11:31:46.693Z</time></trkpt><trkpt lat="43.6160729" lon="11.3580051"><ele>474.0</ele><time>2026-04-18T11:31:47.7Z</time></trkpt><trkpt lat="43.6162026" lon="11.3579323"><ele>474.0</ele><time>2026-04-18T11:31:48.7Z</time></trkpt><trkpt lat="43.6163164" lon="11.3578687"><ele>478.4</ele><time>2026-04-18T11:31:49.701Z</time></trkpt><trkpt lat="43.6164131" lon="11.357815"><ele>482.79999999999995</ele><time>2026-04-18T11:31:50.7Z</time></trkpt><trkpt lat="43.6165096" lon="11.3577791"><ele>487.20000000000005</ele><time>2026-04-18T11:31:51.701Z</time></trkpt><trkpt lat="43.6165936" lon="11.3577628"><ele>491.6</ele><time>2026-04-18T11:31:52.7Z</time></trkpt><trkpt lat="43.6166774" lon="11.3578178"><ele>496.0</ele><time>2026-04-18T11:31:53.7Z</time></trkpt><trkpt lat="43.6167457" lon="11.3579104"><ele>496.0</ele><time>2026-04-18T11:31:54.701Z</time></trkpt><trkpt lat="43.6168022" lon="11.3580193"><ele>496.0</ele><time>2026-04-18T11:31:55.701Z</time></trkpt><trkpt lat="43.6168581" lon="11.3581268"><ele>496.0</ele><time>2026-04-18T11:31:56.7Z</time></trkpt><trkpt lat="43.616917" lon="11.3582172"><ele>496.0</ele><time>2026-04-18T11:31:57.701Z</time></trkpt><trkpt lat="43.6169699" lon="11.3583001"><ele>496.0</ele><time>2026-04-18T11:31:58.7Z</time></trkpt><trkpt lat="43.6170321" lon="11.3583911"><ele>495.1666666666667</ele><time>2026-04-18T11:31:59.7Z</time></trkpt><trkpt lat="43.6170853" lon="11.3584766"><ele>494.33333333333337</ele><time>2026-04-18T11:32:00.7Z</time></trkpt><trkpt lat="43.6171293" lon="11.3585521"><ele>493.5</ele><time>2026-04-18T11:32:01.7Z</time></trkpt><trkpt lat="43.6171716" lon="11.3586222"><ele>492.66666666666663</ele><time>2026-04-18T11:32:02.701Z</time></trkpt><trkpt lat="43.6172184" lon="11.358687"><ele>491.8333333333333</ele><time>2026-04-18T11:32:03.7Z</time></trkpt><trkpt lat="43.6172901" lon="11.3588182"><ele>491.0</ele><time>2026-04-18T11:32:05.7Z</time></trkpt><trkpt lat="43.6173673" lon="11.3589383"><ele>490.8</ele><time>2026-04-18T11:32:07.7Z</time></trkpt><trkpt lat="43.6174088" lon="11.3590041"><ele>490.6</ele><time>2026-04-18T11:32:08.7Z</time></trkpt><trkpt lat="43.6174787" lon="11.359147"><ele>490.4</ele><time>2026-04-18T11:32:10.701Z</time></trkpt><trkpt lat="43.6175533" lon="11.359259"><ele>490.2</ele><time>2026-04-18T11:32:12.7Z</time></trkpt><trkpt lat="43.6176247" lon="11.3592341"><ele>490.0</ele><time>2026-04-18T11:32:28.7Z</time></trkpt><trkpt lat="43.6175398" lon="11.3591035"><ele>490.00000000000006</ele><time>2026-04-18T11:32:31.701Z</time></trkpt><trkpt lat="43.6174673" lon="11.3590158"><ele>490.0</ele><time>2026-04-18T11:32:32.7Z</time></trkpt><trkpt lat="43.6174113" lon="11.3589418"><ele>490.0</ele><time>2026-04-18T11:32:33.701Z</time></trkpt><trkpt lat="43.6173484" lon="11.3588647"><ele>490.0</ele><time>2026-04-18T11:32:35.7Z</time></trkpt><trkpt lat="43.6172894" lon="11.3587914"><ele>490.00000000000006</ele><time>2026-04-18T11:32:38.7Z</time></trkpt><trkpt lat="43.6172468" lon="11.358719"><ele>490.0</ele><time>2026-04-18T11:32:40.7Z</time></trkpt><trkpt lat="43.6171979" lon="11.3586374"><ele>490.00000000000006</ele><time>2026-04-18T11:32:42.7Z</time></trkpt><trkpt lat="43.6171572" lon="11.3585593"><ele>490.0</ele><time>2026-04-18T11:37:00.699Z</time></trkpt><trkpt lat="43.6171723" lon="11.3586464"><ele>490.0</ele><time>2026-04-18T11:37:03.699Z</time></trkpt><trkpt lat="43.6172324" lon="11.35874"><ele>490.0</ele><time>2026-04-18T11:37:05.699Z</time></trkpt><trkpt lat="43.6173049" lon="11.3588587"><ele>490.00000000000006</ele><time>2026-04-18T11:37:07.699Z</time></trkpt><trkpt lat="43.6173523" lon="11.358931"><ele>490.0</ele><time>2026-04-18T11:37:08.7Z</time></trkpt><trkpt lat="43.6174003" lon="11.3590131"><ele>490.0</ele><time>2026-04-18T11:37:09.7Z</time></trkpt><trkpt lat="43.6174468" lon="11.3590923"><ele>490.0</ele><time>2026-04-18T11:37:10.699Z</time></trkpt><trkpt lat="43.6174983" lon="11.3591688"><ele>490.0</ele><time>2026-04-18T11:37:11.699Z</time></trkpt><trkpt lat="43.6175515" lon="11.3592207"><ele>490.0</ele><time>2026-04-18T11:37:12.699Z</time></trkpt><trkpt lat="43.6176157" lon="11.3592475"><ele>490.0</ele><time>2026-04-18T11:37:13.699Z</time></trkpt><trkpt lat="43.6176852" lon="11.3592448"><ele>490.0</ele><time>2026-04-18T11:37:14.699Z</time></trkpt><trkpt lat="43.6177525" lon="11.3592322"><ele>490.0</ele><time>2026-04-18T11:37:15.7Z</time></trkpt><trkpt lat="43.6178171" lon="11.359203"><ele>489.50000000000006</ele><time>2026-04-18T11:37:16.7Z</time></trkpt><trkpt lat="43.6179094" lon="11.3591437"><ele>489.0</ele><time>2026-04-18T11:37:18.699Z</time></trkpt><trkpt lat="43.6180049" lon="11.3591769"><ele>488.5</ele><time>2026-04-18T11:37:20.699Z</time></trkpt><trkpt lat="43.6180561" lon="11.3592299"><ele>488.0</ele><time>2026-04-18T11:37:21.699Z</time></trkpt><trkpt lat="43.6181007" lon="11.3592951"><ele>487.50000000000006</ele><time>2026-04-18T11:37:22.7Z</time></trkpt><trkpt lat="43.618152" lon="11.3593781"><ele>487.0</ele><time>2026-04-18T11:37:23.699Z</time></trkpt><trkpt lat="43.6182143" lon="11.3594563"><ele>487.0</ele><time>2026-04-18T11:37:24.699Z</time></trkpt><trkpt lat="43.6182855" lon="11.3595367"><ele>487.00000000000006</ele><time>2026-04-18T11:37:25.699Z</time></trkpt><trkpt lat="43.6183567" lon="11.3596205"><ele>487.00000000000006</ele><time>2026-04-18T11:37:26.699Z</time></trkpt><trkpt lat="43.6184342" lon="11.3597121"><ele>487.0</ele><time>2026-04-18T11:37:27.7Z</time></trkpt><trkpt lat="43.6185082" lon="11.3597982"><ele>487.0</ele><time>2026-04-18T11:37:28.699Z</time></trkpt><trkpt lat="43.6185876" lon="11.3598738"><ele>490.6</ele><time>2026-04-18T11:37:29.699Z</time></trkpt><trkpt lat="43.6186603" lon="11.3599368"><ele>494.20000000000005</ele><time>2026-04-18T11:37:30.7Z</time></trkpt><trkpt lat="43.6187341" lon="11.3599824"><ele>497.8</ele><time>2026-04-18T11:37:31.699Z</time></trkpt><trkpt lat="43.6188117" lon="11.3600302"><ele>501.4</ele><time>2026-04-18T11:37:32.699Z</time></trkpt><trkpt lat="43.6189071" lon="11.3600899"><ele>505.0</ele><time>2026-04-18T11:37:33.699Z</time></trkpt><trkpt lat="43.6190178" lon="11.3601582"><ele>505.0</ele><time>2026-04-18T11:37:34.699Z</time></trkpt><trkpt lat="43.6191226" lon="11.3602126"><ele>505.0</ele><time>2026-04-18T11:37:35.699Z</time></trkpt><trkpt lat="43.6192453" lon="11.36028"><ele>505.0</ele><time>2026-04-18T11:37:36.699Z</time></trkpt><trkpt lat="43.6193655" lon="11.3603331"><ele>505.0</ele><time>2026-04-18T11:37:37.699Z</time></trkpt><trkpt lat="43.6194743" lon="11.3603743"><ele>504.0</ele><time>2026-04-18T11:37:38.7Z</time></trkpt><trkpt lat="43.6195745" lon="11.3604252"><ele>503.0</ele><time>2026-04-18T11:37:39.699Z</time></trkpt><trkpt lat="43.6196782" lon="11.3604944"><ele>502.0</ele><time>2026-04-18T11:37:40.7Z</time></trkpt><trkpt lat="43.6197763" lon="11.3605838"><ele>501.0</ele><time>2026-04-18T11:37:41.7Z</time></trkpt><trkpt lat="43.6198754" lon="11.360672"><ele>507.75</ele><time>2026-04-18T11:37:42.699Z</time></trkpt><trkpt lat="43.619987" lon="11.3607305"><ele>514.5</ele><time>2026-04-18T11:37:43.699Z</time></trkpt><trkpt lat="43.6200926" lon="11.3607676"><ele>521.25</ele><time>2026-04-18T11:37:44.699Z</time></trkpt><trkpt lat="43.620205" lon="11.3608032"><ele>528.0</ele><time>2026-04-18T11:37:45.699Z</time></trkpt><trkpt lat="43.6203358" lon="11.3608209"><ele>528.0</ele><time>2026-04-18T11:37:46.699Z</time></trkpt><trkpt lat="43.6204736" lon="11.3608287"><ele>528.0</ele><time>2026-04-18T11:37:47.7Z</time></trkpt><trkpt lat="43.6206295" lon="11.3608197"><ele>528.0</ele><time>2026-04-18T11:37:48.699Z</time></trkpt><trkpt lat="43.620778" lon="11.3608312"><ele>528.0</ele><time>2026-04-18T11:37:49.699Z</time></trkpt><trkpt lat="43.6209118" lon="11.3608485"><ele>528.0</ele><time>2026-04-18T11:37:50.7Z</time></trkpt><trkpt lat="43.6210229" lon="11.3608816"><ele>528.0</ele><time>2026-04-18T11:37:51.699Z</time></trkpt><trkpt lat="43.6211269" lon="11.3609362"><ele>528.0</ele><time>2026-04-18T11:37:52.699Z</time></trkpt><trkpt lat="43.6212182" lon="11.361003"><ele>528.0</ele><time>2026-04-18T11:37:53.699Z</time></trkpt><trkpt lat="43.6213163" lon="11.3610314"><ele>528.0</ele><time>2026-04-18T11:37:54.699Z</time></trkpt><trkpt lat="43.6214165" lon="11.3610392"><ele>528.5</ele><time>2026-04-18T11:37:55.699Z</time></trkpt><trkpt lat="43.621513" lon="11.3610403"><ele>529.0</ele><time>2026-04-18T11:37:56.699Z</time></trkpt><trkpt lat="43.6216034" lon="11.361022"><ele>529.5</ele><time>2026-04-18T11:37:57.699Z</time></trkpt><trkpt lat="43.6216683" lon="11.3609944"><ele>530.0</ele><time>2026-04-18T11:37:58.699Z</time></trkpt><trkpt lat="43.6217215" lon="11.3609373"><ele>530.5</ele><time>2026-04-18T11:37:59.699Z</time></trkpt><trkpt lat="43.6217773" lon="11.360896"><ele>531.0</ele><time>2026-04-18T11:38:00.699Z</time></trkpt><trkpt lat="43.6218274" lon="11.3608351"><ele>531.0</ele><time>2026-04-18T11:38:07.699Z</time></trkpt><trkpt lat="43.6219236" lon="11.3607451"><ele>531.0</ele><time>2026-04-18T11:38:09.699Z</time></trkpt><trkpt lat="43.6220032" lon="11.3606681"><ele>531.0</ele><time>2026-04-18T11:38:10.699Z</time></trkpt><trkpt lat="43.6220947" lon="11.3605865"><ele>531.0</ele><time>2026-04-18T11:38:11.7Z</time></trkpt><trkpt lat="43.6221896" lon="11.360495"><ele>531.0</ele><time>2026-04-18T11:38:12.7Z</time></trkpt><trkpt lat="43.6222749" lon="11.3604055"><ele>533.2</ele><time>2026-04-18T11:38:13.699Z</time></trkpt><trkpt lat="43.6223579" lon="11.3603144"><ele>535.4000000000001</ele><time>2026-04-18T11:38:14.699Z</time></trkpt><trkpt lat="43.6224461" lon="11.3602304"><ele>537.6</ele><time>2026-04-18T11:38:15.699Z</time></trkpt><trkpt lat="43.6225379" lon="11.3601439"><ele>539.8000000000001</ele><time>2026-04-18T11:38:16.7Z</time></trkpt><trkpt lat="43.6226304" lon="11.3600536"><ele>542.0</ele><time>2026-04-18T11:38:17.699Z</time></trkpt><trkpt lat="43.6227174" lon="11.3599681"><ele>542.0</ele><time>2026-04-18T11:38:18.7Z</time></trkpt><trkpt lat="43.6228096" lon="11.3598876"><ele>542.0</ele><time>2026-04-18T11:38:19.7Z</time></trkpt><trkpt lat="43.6228873" lon="11.3598363"><ele>542.0</ele><time>2026-04-18T11:38:20.7Z</time></trkpt><trkpt lat="43.6229504" lon="11.3598382"><ele>542.0</ele><time>2026-04-18T11:38:21.699Z</time></trkpt><trkpt lat="43.6230263" lon="11.3598535"><ele>542.0</ele><time>2026-04-18T11:38:22.7Z</time></trkpt><trkpt lat="43.6231177" lon="11.3598633"><ele>542.0</ele><time>2026-04-18T11:38:23.7Z</time></trkpt><trkpt lat="43.6232173" lon="11.3598503"><ele>542.0</ele><time>2026-04-18T11:38:24.699Z</time></trkpt><trkpt lat="43.6233411" lon="11.359813"><ele>542.0</ele><time>2026-04-18T11:38:25.7Z</time></trkpt><trkpt lat="43.6234475" lon="11.3597449"><ele>542.0</ele><time>2026-04-18T11:38:26.7Z</time></trkpt><trkpt lat="43.6235497" lon="11.359665"><ele>542.0</ele><time>2026-04-18T11:38:27.699Z</time></trkpt><trkpt lat="43.623643" lon="11.3595959"><ele>545.5</ele><time>2026-04-18T11:38:28.699Z</time></trkpt><trkpt lat="43.6237384" lon="11.3595372"><ele>549.0</ele><time>2026-04-18T11:38:29.699Z</time></trkpt><trkpt lat="43.6238294" lon="11.3594733"><ele>552.5</ele><time>2026-04-18T11:38:30.699Z</time></trkpt><trkpt lat="43.6239117" lon="11.3594482"><ele>556.0</ele><time>2026-04-18T11:38:31.699Z</time></trkpt><trkpt lat="43.6239805" lon="11.3594681"><ele>559.5</ele><time>2026-04-18T11:38:32.699Z</time></trkpt><trkpt lat="43.6240386" lon="11.3595067"><ele>563.0</ele><time>2026-04-18T11:38:33.699Z</time></trkpt><trkpt lat="43.624066" lon="11.359674"><ele>564.6666666666666</ele><time>2026-04-18T11:38:35.699Z</time></trkpt><trkpt lat="43.6240751" lon="11.3597668"><ele>566.3333333333333</ele><time>2026-04-18T11:38:36.699Z</time></trkpt><trkpt lat="43.6240655" lon="11.3598722"><ele>568.0</ele><time>2026-04-18T11:38:37.699Z</time></trkpt><trkpt lat="43.6240756" lon="11.3599663"><ele>569.6666666666666</ele><time>2026-04-18T11:38:38.7Z</time></trkpt><trkpt lat="43.624108" lon="11.3600457"><ele>571.3333333333334</ele><time>2026-04-18T11:38:39.699Z</time></trkpt><trkpt lat="43.6242141" lon="11.3601331"><ele>573.0</ele><time>2026-04-18T11:38:41.699Z</time></trkpt><trkpt lat="43.624299" lon="11.3601608"><ele>573.0</ele><time>2026-04-18T11:38:42.699Z</time></trkpt><trkpt lat="43.6243951" lon="11.3601938"><ele>573.0</ele><time>2026-04-18T11:38:43.699Z</time></trkpt><trkpt lat="43.6245088" lon="11.360234"><ele>573.0</ele><time>2026-04-18T11:38:44.7Z</time></trkpt><trkpt lat="43.6246255" lon="11.3602861"><ele>573.0</ele><time>2026-04-18T11:38:45.699Z</time></trkpt><trkpt lat="43.6247314" lon="11.360338"><ele>575.5</ele><time>2026-04-18T11:38:46.699Z</time></trkpt><trkpt lat="43.6248358" lon="11.360412"><ele>578.0</ele><time>2026-04-18T11:38:47.699Z</time></trkpt><trkpt lat="43.6249404" lon="11.3605098"><ele>580.5</ele><time>2026-04-18T11:38:48.699Z</time></trkpt><trkpt lat="43.6250536" lon="11.3606082"><ele>583.0</ele><time>2026-04-18T11:38:49.7Z</time></trkpt><trkpt lat="43.62517" lon="11.360705"><ele>583.5</ele><time>2026-04-18T11:38:50.699Z</time></trkpt><trkpt lat="43.6252804" lon="11.3608145"><ele>584.0</ele><time>2026-04-18T11:38:51.699Z</time></trkpt><trkpt lat="43.6253776" lon="11.3609301"><ele>584.5</ele><time>2026-04-18T11:38:52.699Z</time></trkpt><trkpt lat="43.6254771" lon="11.3610375"><ele>585.0</ele><time>2026-04-18T11:38:53.699Z</time></trkpt><trkpt lat="43.6255798" lon="11.3611467"><ele>589.5</ele><time>2026-04-18T11:38:54.699Z</time></trkpt><trkpt lat="43.6256819" lon="11.3612502"><ele>594.0</ele><time>2026-04-18T11:38:55.699Z</time></trkpt><trkpt lat="43.6257847" lon="11.36136"><ele>598.5</ele><time>2026-04-18T11:38:56.699Z</time></trkpt><trkpt lat="43.6258888" lon="11.3614745"><ele>603.0</ele><time>2026-04-18T11:38:57.699Z</time></trkpt><trkpt lat="43.6259801" lon="11.3615966"><ele>604.4</ele><time>2026-04-18T11:38:58.7Z</time></trkpt><trkpt lat="43.6260461" lon="11.3617237"><ele>605.8</ele><time>2026-04-18T11:38:59.699Z</time></trkpt><trkpt lat="43.626087" lon="11.3618579"><ele>607.2</ele><time>2026-04-18T11:39:00.699Z</time></trkpt><trkpt lat="43.6261022" lon="11.3619759"><ele>608.6</ele><time>2026-04-18T11:39:01.699Z</time></trkpt><trkpt lat="43.6261044" lon="11.3620817"><ele>610.0</ele><time>2026-04-18T11:39:02.699Z</time></trkpt><trkpt lat="43.6260893" lon="11.362212"><ele>610.3333333333334</ele><time>2026-04-18T11:39:03.699Z</time></trkpt><trkpt lat="43.6260764" lon="11.362321"><ele>610.6666666666667</ele><time>2026-04-18T11:39:04.699Z</time></trkpt><trkpt lat="43.6260793" lon="11.3624185"><ele>611.0</ele><time>2026-04-18T11:39:05.7Z</time></trkpt><trkpt lat="43.6261332" lon="11.3624846"><ele>611.3333333333334</ele><time>2026-04-18T11:39:06.699Z</time></trkpt><trkpt lat="43.6262326" lon="11.3624737"><ele>611.6666666666666</ele><time>2026-04-18T11:39:08.699Z</time></trkpt><trkpt lat="43.6263154" lon="11.3623463"><ele>612.0</ele><time>2026-04-18T11:39:10.7Z</time></trkpt><trkpt lat="43.6263321" lon="11.3622484"><ele>616.8000000000001</ele><time>2026-04-18T11:39:11.699Z</time></trkpt><trkpt lat="43.6263349" lon="11.3621215"><ele>621.6</ele><time>2026-04-18T11:39:12.699Z</time></trkpt><trkpt lat="43.6263416" lon="11.3619734"><ele>626.4000000000001</ele><time>2026-04-18T11:39:13.7Z</time></trkpt><trkpt lat="43.6263492" lon="11.3618359"><ele>631.2</ele><time>2026-04-18T11:39:14.699Z</time></trkpt><trkpt lat="43.6263688" lon="11.3617045"><ele>636.0</ele><time>2026-04-18T11:39:15.699Z</time></trkpt><trkpt lat="43.6264023" lon="11.3615946"><ele>636.0</ele><time>2026-04-18T11:39:16.699Z</time></trkpt><trkpt lat="43.6264397" lon="11.3615038"><ele>636.0</ele><time>2026-04-18T11:39:17.7Z</time></trkpt><trkpt lat="43.6265651" lon="11.3614109"><ele>636.0</ele><time>2026-04-18T11:39:19.7Z</time></trkpt><trkpt lat="43.6266502" lon="11.3613873"><ele>636.0</ele><time>2026-04-18T11:39:20.699Z</time></trkpt><trkpt lat="43.6267205" lon="11.3613986"><ele>636.0</ele><time>2026-04-18T11:39:21.699Z</time></trkpt><trkpt lat="43.6267766" lon="11.3614897"><ele>636.0</ele><time>2026-04-18T11:39:23.7Z</time></trkpt><trkpt lat="43.6267557" lon="11.361664"><ele>636.0</ele><time>2026-04-18T11:39:25.699Z</time></trkpt><trkpt lat="43.62671" lon="11.3617879"><ele>636.0</ele><time>2026-04-18T11:39:26.7Z</time></trkpt><trkpt lat="43.6266683" lon="11.3618832"><ele>636.0</ele><time>2026-04-18T11:39:27.699Z</time></trkpt><trkpt lat="43.6266451" lon="11.3619757"><ele>636.0</ele><time>2026-04-18T11:39:28.7Z</time></trkpt><trkpt lat="43.6266467" lon="11.3621432"><ele>637.6</ele><time>2026-04-18T11:39:30.699Z</time></trkpt><trkpt lat="43.6266851" lon="11.3622389"><ele>639.2</ele><time>2026-04-18T11:39:31.699Z</time></trkpt><trkpt lat="43.6267302" lon="11.3623461"><ele>640.8000000000001</ele><time>2026-04-18T11:39:32.7Z</time></trkpt><trkpt lat="43.6267685" lon="11.3624495"><ele>642.4000000000001</ele><time>2026-04-18T11:39:33.699Z</time></trkpt><trkpt lat="43.6267834" lon="11.3625866"><ele>644.0</ele><time>2026-04-18T11:39:34.699Z</time></trkpt><trkpt lat="43.6267651" lon="11.3627229"><ele>644.0</ele><time>2026-04-18T11:39:35.7Z</time></trkpt><trkpt lat="43.6267626" lon="11.3628468"><ele>644.0</ele><time>2026-04-18T11:39:36.699Z</time></trkpt><trkpt lat="43.6267798" lon="11.3629558"><ele>644.0</ele><time>2026-04-18T11:39:37.699Z</time></trkpt><trkpt lat="43.6268099" lon="11.3630571"><ele>644.0</ele><time>2026-04-18T11:39:38.699Z</time></trkpt><trkpt lat="43.6268573" lon="11.3631851"><ele>644.0</ele><time>2026-04-18T11:39:39.7Z</time></trkpt><trkpt lat="43.6269115" lon="11.3633118"><ele>644.8000000000001</ele><time>2026-04-18T11:39:40.699Z</time></trkpt><trkpt lat="43.6269591" lon="11.3634373"><ele>645.6</ele><time>2026-04-18T11:39:41.699Z</time></trkpt><trkpt lat="43.6269993" lon="11.3635528"><ele>646.4</ele><time>2026-04-18T11:39:42.699Z</time></trkpt><trkpt lat="43.6270569" lon="11.3636457"><ele>647.2</ele><time>2026-04-18T11:39:43.699Z</time></trkpt><trkpt lat="43.6271403" lon="11.3637345"><ele>648.0</ele><time>2026-04-18T11:39:44.699Z</time></trkpt><trkpt lat="43.6272323" lon="11.3637865"><ele>653.0</ele><time>2026-04-18T11:39:45.699Z</time></trkpt><trkpt lat="43.6273233" lon="11.3638237"><ele>658.0</ele><time>2026-04-18T11:39:46.699Z</time></trkpt><trkpt lat="43.627419" lon="11.3638526"><ele>663.0</ele><time>2026-04-18T11:39:47.7Z</time></trkpt><trkpt lat="43.6275224" lon="11.363861"><ele>668.0</ele><time>2026-04-18T11:39:48.699Z</time></trkpt><trkpt lat="43.6276219" lon="11.3638728"><ele>673.0</ele><time>2026-04-18T11:39:49.699Z</time></trkpt><trkpt lat="43.6277185" lon="11.3638706"><ele>673.0</ele><time>2026-04-18T11:39:50.699Z</time></trkpt><trkpt lat="43.6277951" lon="11.3638583"><ele>673.0</ele><time>2026-04-18T11:39:51.7Z</time></trkpt><trkpt lat="43.6278692" lon="11.3638726"><ele>673.0</ele><time>2026-04-18T11:39:52.699Z</time></trkpt><trkpt lat="43.6279678" lon="11.3639676"><ele>673.0</ele><time>2026-04-18T11:39:54.699Z</time></trkpt><trkpt lat="43.6280113" lon="11.3640457"><ele>673.0</ele><time>2026-04-18T11:39:55.7Z</time></trkpt><trkpt lat="43.628068" lon="11.364145"><ele>673.0</ele><time>2026-04-18T11:39:56.699Z</time></trkpt><trkpt lat="43.6281271" lon="11.3642624"><ele>676.5</ele><time>2026-04-18T11:39:57.699Z</time></trkpt><trkpt lat="43.628167" lon="11.3643722"><ele>680.0</ele><time>2026-04-18T11:39:58.7Z</time></trkpt><trkpt lat="43.6281886" lon="11.3644826"><ele>683.5</ele><time>2026-04-18T11:39:59.699Z</time></trkpt><trkpt lat="43.6281885" lon="11.364603"><ele>687.0</ele><time>2026-04-18T11:40:00.699Z</time></trkpt><trkpt lat="43.6281704" lon="11.3647151"><ele>690.5</ele><time>2026-04-18T11:40:01.699Z</time></trkpt><trkpt lat="43.6281342" lon="11.3648193"><ele>694.0</ele><time>2026-04-18T11:40:02.7Z</time></trkpt><trkpt lat="43.6281054" lon="11.3649547"><ele>695.1666666666667</ele><time>2026-04-18T11:40:04.699Z</time></trkpt><trkpt lat="43.62808" lon="11.3650483"><ele>696.3333333333334</ele><time>2026-04-18T11:40:07.699Z</time></trkpt><trkpt lat="43.6281356" lon="11.3651066"><ele>697.5</ele><time>2026-04-18T11:40:09.699Z</time></trkpt><trkpt lat="43.6282616" lon="11.3651503"><ele>698.6666666666666</ele><time>2026-04-18T11:40:11.699Z</time></trkpt><trkpt lat="43.6283366" lon="11.3651605"><ele>699.8333333333333</ele><time>2026-04-18T11:40:12.699Z</time></trkpt><trkpt lat="43.6284043" lon="11.3651806"><ele>701.0</ele><time>2026-04-18T11:40:13.699Z</time></trkpt><trkpt lat="43.6284653" lon="11.3652242"><ele>701.0</ele><time>2026-04-18T11:40:14.699Z</time></trkpt><trkpt lat="43.6285416" lon="11.3652829"><ele>701.0</ele><time>2026-04-18T11:40:15.699Z</time></trkpt><trkpt lat="43.6286172" lon="11.3653547"><ele>701.0</ele><time>2026-04-18T11:40:16.7Z</time></trkpt><trkpt lat="43.6287041" lon="11.3654403"><ele>701.0</ele><time>2026-04-18T11:40:17.699Z</time></trkpt><trkpt lat="43.6288002" lon="11.3655212"><ele>701.0</ele><time>2026-04-18T11:40:18.699Z</time></trkpt><trkpt lat="43.6288989" lon="11.3656134"><ele>704.4</ele><time>2026-04-18T11:40:19.7Z</time></trkpt><trkpt lat="43.6289862" lon="11.3656869"><ele>707.8</ele><time>2026-04-18T11:40:20.699Z</time></trkpt><trkpt lat="43.6290764" lon="11.3657836"><ele>711.1999999999999</ele><time>2026-04-18T11:40:21.699Z</time></trkpt><trkpt lat="43.6291576" lon="11.365892"><ele>714.5999999999999</ele><time>2026-04-18T11:40:22.7Z</time></trkpt><trkpt lat="43.6292349" lon="11.3660096"><ele>718.0</ele><time>2026-04-18T11:40:23.699Z</time></trkpt><trkpt lat="43.6293069" lon="11.3661157"><ele>718.0</ele><time>2026-04-18T11:40:24.7Z</time></trkpt><trkpt lat="43.6293779" lon="11.3662047"><ele>718.0</ele><time>2026-04-18T11:40:25.7Z</time></trkpt><trkpt lat="43.6294505" lon="11.3662675"><ele>718.0</ele><time>2026-04-18T11:40:26.699Z</time></trkpt><trkpt lat="43.6295209" lon="11.3663094"><ele>718.0</ele><time>2026-04-18T11:40:27.699Z</time></trkpt><trkpt lat="43.6295973" lon="11.3663591"><ele>718.0</ele><time>2026-04-18T11:40:28.7Z</time></trkpt><trkpt lat="43.6296611" lon="11.3664235"><ele>718.0</ele><time>2026-04-18T11:40:29.7Z</time></trkpt><trkpt lat="43.629718" lon="11.3664995"><ele>718.5999999999999</ele><time>2026-04-18T11:40:30.7Z</time></trkpt><trkpt lat="43.6297775" lon="11.3665877"><ele>719.1999999999999</ele><time>2026-04-18T11:40:31.699Z</time></trkpt><trkpt lat="43.6298531" lon="11.3666675"><ele>719.8</ele><time>2026-04-18T11:40:32.699Z</time></trkpt><trkpt lat="43.629934" lon="11.3667196"><ele>720.4</ele><time>2026-04-18T11:40:33.7Z</time></trkpt><trkpt lat="43.6300398" lon="11.366769"><ele>721.0</ele><time>2026-04-18T11:40:34.699Z</time></trkpt><trkpt lat="43.6301223" lon="11.3668068"><ele>721.0</ele><time>2026-04-18T11:40:35.699Z</time></trkpt><trkpt lat="43.6301936" lon="11.3668132"><ele>721.0</ele><time>2026-04-18T11:40:36.7Z</time></trkpt><trkpt lat="43.6302656" lon="11.3668104"><ele>721.0</ele><time>2026-04-18T11:40:37.699Z</time></trkpt><trkpt lat="43.6303386" lon="11.3667897"><ele>721.0</ele><time>2026-04-18T11:40:38.699Z</time></trkpt><trkpt lat="43.6304132" lon="11.3667861"><ele>721.0</ele><time>2026-04-18T11:40:39.699Z</time></trkpt><trkpt lat="43.6304871" lon="11.3667938"><ele>721.0</ele><time>2026-04-18T11:40:40.699Z</time></trkpt><trkpt lat="43.6305544" lon="11.3668091"><ele>721.0</ele><time>2026-04-18T11:40:41.699Z</time></trkpt><trkpt lat="43.6306153" lon="11.3668381"><ele>719.0</ele><time>2026-04-18T11:40:42.699Z</time></trkpt><trkpt lat="43.6306933" lon="11.3668871"><ele>717.0</ele><time>2026-04-18T11:40:43.699Z</time></trkpt><trkpt lat="43.6307763" lon="11.3669642"><ele>715.0</ele><time>2026-04-18T11:40:44.699Z</time></trkpt><trkpt lat="43.6308575" lon="11.3670477"><ele>713.0</ele><time>2026-04-18T11:40:45.699Z</time></trkpt><trkpt lat="43.6309389" lon="11.3671262"><ele>711.0</ele><time>2026-04-18T11:40:46.699Z</time></trkpt><trkpt lat="43.6310171" lon="11.3671784"><ele>710.4</ele><time>2026-04-18T11:40:47.7Z</time></trkpt><trkpt lat="43.6310967" lon="11.3672185"><ele>709.8</ele><time>2026-04-18T11:40:48.699Z</time></trkpt><trkpt lat="43.6311967" lon="11.3672286"><ele>709.1999999999999</ele><time>2026-04-18T11:40:49.699Z</time></trkpt><trkpt lat="43.6312969" lon="11.3672044"><ele>708.5999999999999</ele><time>2026-04-18T11:40:50.699Z</time></trkpt><trkpt lat="43.6313935" lon="11.3671711"><ele>708.0</ele><time>2026-04-18T11:40:51.699Z</time></trkpt><trkpt lat="43.6314927" lon="11.3671393"><ele>708.0</ele><time>2026-04-18T11:40:52.699Z</time></trkpt><trkpt lat="43.6315916" lon="11.3671014"><ele>708.0</ele><time>2026-04-18T11:40:53.699Z</time></trkpt><trkpt lat="43.6316855" lon="11.3670522"><ele>708.0</ele><time>2026-04-18T11:40:54.699Z</time></trkpt><trkpt lat="43.6317932" lon="11.3669882"><ele>708.0</ele><time>2026-04-18T11:40:55.699Z</time></trkpt><trkpt lat="43.6318938" lon="11.3669305"><ele>708.0</ele><time>2026-04-18T11:40:56.699Z</time></trkpt><trkpt lat="43.6319983" lon="11.36687"><ele>709.2</ele><time>2026-04-18T11:40:57.699Z</time></trkpt><trkpt lat="43.6321062" lon="11.3668177"><ele>710.4</ele><time>2026-04-18T11:40:58.7Z</time></trkpt><trkpt lat="43.6322048" lon="11.3667637"><ele>711.6</ele><time>2026-04-18T11:40:59.7Z</time></trkpt><trkpt lat="43.6322954" lon="11.3667247"><ele>712.8000000000001</ele><time>2026-04-18T11:41:00.699Z</time></trkpt><trkpt lat="43.6323791" lon="11.3666783"><ele>714.0</ele><time>2026-04-18T11:41:01.699Z</time></trkpt><trkpt lat="43.6324624" lon="11.366643"><ele>714.0</ele><time>2026-04-18T11:41:02.699Z</time></trkpt><trkpt lat="43.6325554" lon="11.3666077"><ele>714.0</ele><time>2026-04-18T11:41:03.699Z</time></trkpt><trkpt lat="43.6326409" lon="11.3665828"><ele>714.0</ele><time>2026-04-18T11:41:04.699Z</time></trkpt><trkpt lat="43.6327328" lon="11.3665702"><ele>714.0</ele><time>2026-04-18T11:41:05.699Z</time></trkpt><trkpt lat="43.6328287" lon="11.3665835"><ele>714.0</ele><time>2026-04-18T11:41:06.699Z</time></trkpt><trkpt lat="43.6329187" lon="11.3666098"><ele>714.4000000000001</ele><time>2026-04-18T11:41:07.7Z</time></trkpt><trkpt lat="43.6330021" lon="11.3666775"><ele>714.8</ele><time>2026-04-18T11:41:08.699Z</time></trkpt><trkpt lat="43.633084" lon="11.366766"><ele>715.2</ele><time>2026-04-18T11:41:09.699Z</time></trkpt><trkpt lat="43.6331594" lon="11.3668624"><ele>715.5999999999999</ele><time>2026-04-18T11:41:10.699Z</time></trkpt><trkpt lat="43.6332013" lon="11.3669699"><ele>716.0</ele><time>2026-04-18T11:41:11.699Z</time></trkpt><trkpt lat="43.6332369" lon="11.3670657"><ele>716.0</ele><time>2026-04-18T11:41:12.7Z</time></trkpt><trkpt lat="43.6332673" lon="11.3671747"><ele>716.0</ele><time>2026-04-18T11:41:13.699Z</time></trkpt><trkpt lat="43.6332963" lon="11.3672873"><ele>716.0</ele><time>2026-04-18T11:41:14.699Z</time></trkpt><trkpt lat="43.6333245" lon="11.367402"><ele>716.0</ele><time>2026-04-18T11:41:15.7Z</time></trkpt><trkpt lat="43.6333579" lon="11.3674844"><ele>716.0</ele><time>2026-04-18T11:41:16.699Z</time></trkpt><trkpt lat="43.6333963" lon="11.3675712"><ele>716.0</ele><time>2026-04-18T11:41:17.7Z</time></trkpt><trkpt lat="43.6334486" lon="11.3676609"><ele>716.0</ele><time>2026-04-18T11:41:18.699Z</time></trkpt><trkpt lat="43.6335263" lon="11.3677843"><ele>716.0</ele><time>2026-04-18T11:41:20.699Z</time></trkpt><trkpt lat="43.6335844" lon="11.3679016"><ele>716.0</ele><time>2026-04-18T11:41:22.699Z</time></trkpt><trkpt lat="43.6336148" lon="11.3680178"><ele>716.0</ele><time>2026-04-18T11:41:25.699Z</time></trkpt><trkpt lat="43.633629" lon="11.3681361"><ele>716.0</ele><time>2026-04-18T11:41:27.699Z</time></trkpt><trkpt lat="43.6336029" lon="11.3682801"><ele>714.8</ele><time>2026-04-18T11:41:29.699Z</time></trkpt><trkpt lat="43.6335709" lon="11.3683755"><ele>713.5999999999999</ele><time>2026-04-18T11:41:30.7Z</time></trkpt><trkpt lat="43.6335425" lon="11.368491"><ele>712.4</ele><time>2026-04-18T11:41:31.7Z</time></trkpt><trkpt lat="43.63352" lon="11.3686148"><ele>711.2</ele><time>2026-04-18T11:41:32.699Z</time></trkpt><trkpt lat="43.6334885" lon="11.3687451"><ele>710.0</ele><time>2026-04-18T11:41:33.699Z</time></trkpt><trkpt lat="43.6334665" lon="11.3688755"><ele>709.3333333333333</ele><time>2026-04-18T11:41:34.699Z</time></trkpt><trkpt lat="43.6334391" lon="11.3689962"><ele>708.6666666666666</ele><time>2026-04-18T11:41:35.699Z</time></trkpt><trkpt lat="43.6334" lon="11.3691179"><ele>708.0</ele><time>2026-04-18T11:41:36.7Z</time></trkpt><trkpt lat="43.6333846" lon="11.3692406"><ele>707.3333333333334</ele><time>2026-04-18T11:41:37.7Z</time></trkpt><trkpt lat="43.6333888" lon="11.3693579"><ele>706.6666666666667</ele><time>2026-04-18T11:41:38.699Z</time></trkpt><trkpt lat="43.6333942" lon="11.36945"><ele>706.0</ele><time>2026-04-18T11:41:39.699Z</time></trkpt><trkpt lat="43.6333899" lon="11.369605"><ele>706.0</ele><time>2026-04-18T11:41:41.699Z</time></trkpt><trkpt lat="43.6333197" lon="11.3696809"><ele>706.0</ele><time>2026-04-18T11:41:43.699Z</time></trkpt><trkpt lat="43.6332667" lon="11.3697382"><ele>706.0</ele><time>2026-04-18T11:41:56.699Z</time></trkpt><trkpt lat="43.6332318" lon="11.3698116"><ele>706.0</ele><time>2026-04-18T11:41:59.699Z</time></trkpt><trkpt lat="43.6332088" lon="11.3699834"><ele>706.0</ele><time>2026-04-18T11:42:01.699Z</time></trkpt><trkpt lat="43.6332054" lon="11.3701542"><ele>705.8333333333334</ele><time>2026-04-18T11:42:03.699Z</time></trkpt><trkpt lat="43.63322" lon="11.3702418"><ele>705.6666666666667</ele><time>2026-04-18T11:42:04.7Z</time></trkpt><trkpt lat="43.6332353" lon="11.3703366"><ele>705.5</ele><time>2026-04-18T11:42:05.699Z</time></trkpt><trkpt lat="43.6332467" lon="11.3704273"><ele>705.3333333333334</ele><time>2026-04-18T11:42:06.699Z</time></trkpt><trkpt lat="43.6332667" lon="11.370579"><ele>705.1666666666666</ele><time>2026-04-18T11:42:08.699Z</time></trkpt><trkpt lat="43.6332426" lon="11.3707201"><ele>705.0</ele><time>2026-04-18T11:42:10.699Z</time></trkpt><trkpt lat="43.6332182" lon="11.3708166"><ele>704.8333333333334</ele><time>2026-04-18T11:42:11.7Z</time></trkpt><trkpt lat="43.6332022" lon="11.3709323"><ele>704.6666666666666</ele><time>2026-04-18T11:42:12.699Z</time></trkpt><trkpt lat="43.6332036" lon="11.3710449"><ele>704.5</ele><time>2026-04-18T11:42:13.699Z</time></trkpt><trkpt lat="43.6332432" lon="11.3711531"><ele>704.3333333333333</ele><time>2026-04-18T11:42:14.7Z</time></trkpt><trkpt lat="43.6332942" lon="11.3712364"><ele>704.1666666666666</ele><time>2026-04-18T11:42:15.699Z</time></trkpt><trkpt lat="43.6333557" lon="11.371311"><ele>704.0</ele><time>2026-04-18T11:42:16.699Z</time></trkpt><trkpt lat="43.6334454" lon="11.3713524"><ele>703.8333333333333</ele><time>2026-04-18T11:42:17.699Z</time></trkpt><trkpt lat="43.6335326" lon="11.3713804"><ele>703.6666666666666</ele><time>2026-04-18T11:42:18.699Z</time></trkpt><trkpt lat="43.633607" lon="11.3714063"><ele>703.5</ele><time>2026-04-18T11:42:19.7Z</time></trkpt><trkpt lat="43.6336776" lon="11.3714258"><ele>703.3333333333334</ele><time>2026-04-18T11:42:20.699Z</time></trkpt><trkpt lat="43.6337523" lon="11.3714472"><ele>703.1666666666667</ele><time>2026-04-18T11:42:21.7Z</time></trkpt><trkpt lat="43.6338243" lon="11.3714901"><ele>703.0</ele><time>2026-04-18T11:42:22.699Z</time></trkpt><trkpt lat="43.6338945" lon="11.3715316"><ele>703.0</ele><time>2026-04-18T11:42:23.699Z</time></trkpt><trkpt lat="43.633955" lon="11.3715617"><ele>703.0</ele><time>2026-04-18T11:42:24.7Z</time></trkpt><trkpt lat="43.6340141" lon="11.3716133"><ele>703.0</ele><time>2026-04-18T11:42:25.699Z</time></trkpt><trkpt lat="43.6340657" lon="11.3716875"><ele>703.0</ele><time>2026-04-18T11:42:26.699Z</time></trkpt><trkpt lat="43.6341152" lon="11.3717694"><ele>703.0</ele><time>2026-04-18T11:42:27.699Z</time></trkpt><trkpt lat="43.6341735" lon="11.3718641"><ele>703.0</ele><time>2026-04-18T11:42:28.699Z</time></trkpt><trkpt lat="43.6342275" lon="11.3719468"><ele>703.0</ele><time>2026-04-18T11:42:29.699Z</time></trkpt><trkpt lat="43.6342743" lon="11.3720959"><ele>703.0</ele><time>2026-04-18T11:42:31.699Z</time></trkpt><trkpt lat="43.6342842" lon="11.3722682"><ele>703.0</ele><time>2026-04-18T11:42:33.699Z</time></trkpt><trkpt lat="43.6342911" lon="11.3723604"><ele>703.0</ele><time>2026-04-18T11:42:34.699Z</time></trkpt><trkpt lat="43.6343001" lon="11.3724659"><ele>703.0</ele><time>2026-04-18T11:42:35.699Z</time></trkpt><trkpt lat="43.6343221" lon="11.3725632"><ele>703.1666666666667</ele><time>2026-04-18T11:42:36.699Z</time></trkpt><trkpt lat="43.63435" lon="11.3726617"><ele>703.3333333333334</ele><time>2026-04-18T11:42:37.699Z</time></trkpt><trkpt lat="43.6343749" lon="11.3727517"><ele>703.5</ele><time>2026-04-18T11:42:38.699Z</time></trkpt><trkpt lat="43.6344307" lon="11.3728847"><ele>703.6666666666666</ele><time>2026-04-18T11:42:40.7Z</time></trkpt><trkpt lat="43.6345127" lon="11.3730014"><ele>703.8333333333333</ele><time>2026-04-18T11:42:42.699Z</time></trkpt><trkpt lat="43.6345648" lon="11.3730717"><ele>704.0</ele><time>2026-04-18T11:42:43.7Z</time></trkpt><trkpt lat="43.63462" lon="11.3731781"><ele>699.2</ele><time>2026-04-18T11:42:44.699Z</time></trkpt><trkpt lat="43.6346776" lon="11.3732708"><ele>694.4000000000001</ele><time>2026-04-18T11:42:45.699Z</time></trkpt><trkpt lat="43.6347478" lon="11.3733434"><ele>689.6</ele><time>2026-04-18T11:42:46.699Z</time></trkpt><trkpt lat="43.6348313" lon="11.3734226"><ele>684.8</ele><time>2026-04-18T11:42:47.7Z</time></trkpt><trkpt lat="43.6349076" lon="11.3734934"><ele>680.0</ele><time>2026-04-18T11:42:48.7Z</time></trkpt><trkpt lat="43.6349791" lon="11.3735596"><ele>680.0</ele><time>2026-04-18T11:42:49.7Z</time></trkpt><trkpt lat="43.635042" lon="11.3736375"><ele>680.0</ele><time>2026-04-18T11:42:50.699Z</time></trkpt><trkpt lat="43.6350918" lon="11.3737087"><ele>680.0</ele><time>2026-04-18T11:42:51.699Z</time></trkpt><trkpt lat="43.6351344" lon="11.3737891"><ele>680.0</ele><time>2026-04-18T11:44:04.699Z</time></trkpt><trkpt lat="43.635173" lon="11.3738585"><ele>680.0</ele><time>2026-04-18T11:44:06.696Z</time></trkpt><trkpt lat="43.6351271" lon="11.3739619"><ele>680.0</ele><time>2026-04-18T11:44:08.697Z</time></trkpt><trkpt lat="43.6351046" lon="11.3740436"><ele>680.0</ele><time>2026-04-18T11:44:09.699Z</time></trkpt><trkpt lat="43.6351076" lon="11.3741305"><ele>680.1666666666666</ele><time>2026-04-18T11:44:10.699Z</time></trkpt><trkpt lat="43.6351285" lon="11.3742318"><ele>680.3333333333333</ele><time>2026-04-18T11:44:11.699Z</time></trkpt><trkpt lat="43.6351636" lon="11.3743275"><ele>680.5</ele><time>2026-04-18T11:44:12.7Z</time></trkpt><trkpt lat="43.6352149" lon="11.3744191"><ele>680.6666666666666</ele><time>2026-04-18T11:44:13.699Z</time></trkpt><trkpt lat="43.635267" lon="11.3745114"><ele>680.8333333333334</ele><time>2026-04-18T11:44:14.7Z</time></trkpt><trkpt lat="43.6353107" lon="11.3745933"><ele>681.0</ele><time>2026-04-18T11:44:15.699Z</time></trkpt><trkpt lat="43.6353542" lon="11.3746715"><ele>682.3333333333334</ele><time>2026-04-18T11:44:16.7Z</time></trkpt><trkpt lat="43.6354004" lon="11.3747571"><ele>683.6666666666666</ele><time>2026-04-18T11:44:17.699Z</time></trkpt><trkpt lat="43.6354397" lon="11.3748429"><ele>685.0</ele><time>2026-04-18T11:44:18.7Z</time></trkpt><trkpt lat="43.6354669" lon="11.3749867"><ele>686.3333333333333</ele><time>2026-04-18T11:44:20.699Z</time></trkpt><trkpt lat="43.6354649" lon="11.3751428"><ele>687.6666666666666</ele><time>2026-04-18T11:44:22.699Z</time></trkpt><trkpt lat="43.6354463" lon="11.3752461"><ele>689.0</ele><time>2026-04-18T11:44:23.699Z</time></trkpt><trkpt lat="43.6354279" lon="11.3753653"><ele>689.0</ele><time>2026-04-18T11:44:24.699Z</time></trkpt><trkpt lat="43.6354187" lon="11.3754737"><ele>689.0</ele><time>2026-04-18T11:44:25.699Z</time></trkpt><trkpt lat="43.635412" lon="11.3755635"><ele>689.0</ele><time>2026-04-18T11:44:26.699Z</time></trkpt><trkpt lat="43.6354293" lon="11.3756549"><ele>689.0</ele><time>2026-04-18T11:44:27.699Z</time></trkpt><trkpt lat="43.6354621" lon="11.3757503"><ele>689.0</ele><time>2026-04-18T11:44:28.699Z</time></trkpt><trkpt lat="43.6354962" lon="11.3758482"><ele>689.0</ele><time>2026-04-18T11:44:29.699Z</time></trkpt><trkpt lat="43.6355305" lon="11.3759537"><ele>689.1666666666666</ele><time>2026-04-18T11:44:30.699Z</time></trkpt><trkpt lat="43.6355719" lon="11.3760435"><ele>689.3333333333333</ele><time>2026-04-18T11:44:31.699Z</time></trkpt><trkpt lat="43.635623" lon="11.376122"><ele>689.5</ele><time>2026-04-18T11:44:32.699Z</time></trkpt><trkpt lat="43.6356744" lon="11.3762026"><ele>689.6666666666666</ele><time>2026-04-18T11:44:33.7Z</time></trkpt><trkpt lat="43.635739" lon="11.3762734"><ele>689.8333333333334</ele><time>2026-04-18T11:44:34.7Z</time></trkpt><trkpt lat="43.6358081" lon="11.3763261"><ele>690.0</ele><time>2026-04-18T11:44:35.699Z</time></trkpt><trkpt lat="43.6358627" lon="11.3763718"><ele>690.0</ele><time>2026-04-18T11:44:36.699Z</time></trkpt><trkpt lat="43.6359161" lon="11.3764246"><ele>690.0</ele><time>2026-04-18T11:44:37.7Z</time></trkpt><trkpt lat="43.6359643" lon="11.376483"><ele>690.0</ele><time>2026-04-18T11:44:38.699Z</time></trkpt><trkpt lat="43.6359815" lon="11.3765734"><ele>690.0</ele><time>2026-04-18T11:44:39.7Z</time></trkpt><trkpt lat="43.6359753" lon="11.376679"><ele>690.0</ele><time>2026-04-18T11:44:40.699Z</time></trkpt><trkpt lat="43.6359486" lon="11.3767599"><ele>690.0</ele><time>2026-04-18T11:44:41.7Z</time></trkpt><trkpt lat="43.6359011" lon="11.376835"><ele>690.0</ele><time>2026-04-18T11:44:42.699Z</time></trkpt><trkpt lat="43.6358497" lon="11.3769339"><ele>690.0</ele><time>2026-04-18T11:44:43.699Z</time></trkpt><trkpt lat="43.6358105" lon="11.377021"><ele>690.0</ele><time>2026-04-18T11:44:44.699Z</time></trkpt><trkpt lat="43.6357916" lon="11.3771101"><ele>690.0</ele><time>2026-04-18T11:44:45.699Z</time></trkpt><trkpt lat="43.6357937" lon="11.3771981"><ele>690.0</ele><time>2026-04-18T11:44:46.699Z</time></trkpt><trkpt lat="43.635805" lon="11.377292"><ele>690.0</ele><time>2026-04-18T11:44:47.699Z</time></trkpt><trkpt lat="43.6358188" lon="11.3773832"><ele>690.0</ele><time>2026-04-18T11:44:48.699Z</time></trkpt><trkpt lat="43.6358772" lon="11.3775089"><ele>690.0</ele><time>2026-04-18T11:44:50.699Z</time></trkpt><trkpt lat="43.6359788" lon="11.3775742"><ele>690.0</ele><time>2026-04-18T11:44:52.699Z</time></trkpt><trkpt lat="43.6360415" lon="11.3776075"><ele>690.0</ele><time>2026-04-18T11:44:53.699Z</time></trkpt><trkpt lat="43.6361535" lon="11.3776664"><ele>690.0</ele><time>2026-04-18T11:44:55.699Z</time></trkpt><trkpt lat="43.6362541" lon="11.3777625"><ele>690.0</ele><time>2026-04-18T11:44:57.7Z</time></trkpt><trkpt lat="43.6363213" lon="11.3778071"><ele>692.0</ele><time>2026-04-18T11:44:58.699Z</time></trkpt><trkpt lat="43.6364028" lon="11.3778451"><ele>694.0</ele><time>2026-04-18T11:44:59.699Z</time></trkpt><trkpt lat="43.636464" lon="11.3778876"><ele>696.0</ele><time>2026-04-18T11:45:00.699Z</time></trkpt><trkpt lat="43.6365456" lon="11.3779795"><ele>698.0</ele><time>2026-04-18T11:45:02.699Z</time></trkpt><trkpt lat="43.6366393" lon="11.3780729"><ele>700.0</ele><time>2026-04-18T11:45:04.699Z</time></trkpt><trkpt lat="43.6367173" lon="11.3781808"><ele>700.0</ele><time>2026-04-18T11:45:06.699Z</time></trkpt><trkpt lat="43.6367603" lon="11.3783077"><ele>700.0</ele><time>2026-04-18T11:45:08.699Z</time></trkpt><trkpt lat="43.6367885" lon="11.3784398"><ele>700.0</ele><time>2026-04-18T11:45:10.699Z</time></trkpt><trkpt lat="43.636794" lon="11.3785696"><ele>700.0</ele><time>2026-04-18T11:45:12.699Z</time></trkpt><trkpt lat="43.6367821" lon="11.3786658"><ele>700.0</ele><time>2026-04-18T11:45:14.699Z</time></trkpt><trkpt lat="43.6367632" lon="11.3787511"><ele>700.0</ele><time>2026-04-18T11:45:15.7Z</time></trkpt><trkpt lat="43.6367425" lon="11.3789119"><ele>700.1666666666667</ele><time>2026-04-18T11:45:17.699Z</time></trkpt><trkpt lat="43.6367503" lon="11.3790885"><ele>700.3333333333334</ele><time>2026-04-18T11:45:19.699Z</time></trkpt><trkpt lat="43.6367674" lon="11.3791733"><ele>700.5</ele><time>2026-04-18T11:45:20.699Z</time></trkpt><trkpt lat="43.6367862" lon="11.379272"><ele>700.6666666666666</ele><time>2026-04-18T11:45:21.699Z</time></trkpt><trkpt lat="43.6368021" lon="11.3793623"><ele>700.8333333333333</ele><time>2026-04-18T11:45:22.699Z</time></trkpt><trkpt lat="43.6368225" lon="11.3794575"><ele>701.0</ele><time>2026-04-18T11:45:23.699Z</time></trkpt><trkpt lat="43.6368787" lon="11.3796111"><ele>701.1999999999999</ele><time>2026-04-18T11:45:25.699Z</time></trkpt><trkpt lat="43.6369461" lon="11.3797252"><ele>701.4</ele><time>2026-04-18T11:45:27.699Z</time></trkpt><trkpt lat="43.6370357" lon="11.3798053"><ele>701.6</ele><time>2026-04-18T11:45:29.7Z</time></trkpt><trkpt lat="43.6371054" lon="11.3799106"><ele>701.8</ele><time>2026-04-18T11:45:31.699Z</time></trkpt><trkpt lat="43.6371694" lon="11.3799461"><ele>702.0</ele><time>2026-04-18T11:45:33.699Z</time></trkpt><trkpt lat="43.6372488" lon="11.3799839"><ele>702.1666666666666</ele><time>2026-04-18T11:45:36.699Z</time></trkpt><trkpt lat="43.6373363" lon="11.3800422"><ele>702.3333333333334</ele><time>2026-04-18T11:45:38.699Z</time></trkpt><trkpt lat="43.6374058" lon="11.3801381"><ele>702.5</ele><time>2026-04-18T11:45:40.699Z</time></trkpt><trkpt lat="43.6374416" lon="11.3802191"><ele>702.6666666666667</ele><time>2026-04-18T11:45:42.699Z</time></trkpt><trkpt lat="43.6375014" lon="11.3803438"><ele>702.8333333333334</ele><time>2026-04-18T11:45:44.699Z</time></trkpt><trkpt lat="43.6375269" lon="11.3804294"><ele>703.0</ele><time>2026-04-18T11:45:45.699Z</time></trkpt><trkpt lat="43.6375519" lon="11.3805517"><ele>703.0</ele><time>2026-04-18T11:45:47.699Z</time></trkpt><trkpt lat="43.6375842" lon="11.3806548"><ele>703.0</ele><time>2026-04-18T11:45:49.699Z</time></trkpt><trkpt lat="43.637631" lon="11.3807325"><ele>703.0</ele><time>2026-04-18T11:45:50.699Z</time></trkpt><trkpt lat="43.6376692" lon="11.3808035"><ele>703.0</ele><time>2026-04-18T11:45:51.7Z</time></trkpt><trkpt lat="43.6377074" lon="11.3809063"><ele>703.0</ele><time>2026-04-18T11:45:52.699Z</time></trkpt><trkpt lat="43.6377466" lon="11.3810226"><ele>703.0</ele><time>2026-04-18T11:45:53.699Z</time></trkpt><trkpt lat="43.6377783" lon="11.3811086"><ele>703.0</ele><time>2026-04-18T11:45:54.699Z</time></trkpt><trkpt lat="43.6377966" lon="11.381204"><ele>703.0</ele><time>2026-04-18T11:45:55.699Z</time></trkpt><trkpt lat="43.637804" lon="11.3813018"><ele>703.0</ele><time>2026-04-18T11:45:56.7Z</time></trkpt><trkpt lat="43.637796" lon="11.3813892"><ele>703.0</ele><time>2026-04-18T11:45:57.699Z</time></trkpt><trkpt lat="43.6378095" lon="11.3815391"><ele>703.0</ele><time>2026-04-18T11:45:59.699Z</time></trkpt><trkpt lat="43.6378543" lon="11.3816145"><ele>703.0</ele><time>2026-04-18T11:46:00.699Z</time></trkpt><trkpt lat="43.6379149" lon="11.381674"><ele>703.6666666666667</ele><time>2026-04-18T11:46:01.7Z</time></trkpt><trkpt lat="43.6379674" lon="11.3817246"><ele>704.3333333333334</ele><time>2026-04-18T11:46:02.7Z</time></trkpt><trkpt lat="43.6380461" lon="11.3817743"><ele>705.0</ele><time>2026-04-18T11:46:04.7Z</time></trkpt><trkpt lat="43.6381198" lon="11.3818063"><ele>705.6666666666666</ele><time>2026-04-18T11:46:07.699Z</time></trkpt><trkpt lat="43.638189" lon="11.3818501"><ele>706.3333333333333</ele><time>2026-04-18T11:46:09.7Z</time></trkpt><trkpt lat="43.6382784" lon="11.3819283"><ele>707.0</ele><time>2026-04-18T11:46:11.7Z</time></trkpt><trkpt lat="43.638379" lon="11.3820586"><ele>707.0</ele><time>2026-04-18T11:46:13.699Z</time></trkpt><trkpt lat="43.6384234" lon="11.3821328"><ele>707.0</ele><time>2026-04-18T11:46:14.7Z</time></trkpt><trkpt lat="43.638471" lon="11.3822289"><ele>707.0</ele><time>2026-04-18T11:46:15.699Z</time></trkpt><trkpt lat="43.6385046" lon="11.3823591"><ele>707.0</ele><time>2026-04-18T11:46:16.699Z</time></trkpt><trkpt lat="43.6385365" lon="11.3824865"><ele>707.0</ele><time>2026-04-18T11:46:17.699Z</time></trkpt><trkpt lat="43.6385643" lon="11.3825823"><ele>707.0</ele><time>2026-04-18T11:46:18.7Z</time></trkpt><trkpt lat="43.63861" lon="11.3826687"><ele>707.0</ele><time>2026-04-18T11:46:19.699Z</time></trkpt><trkpt lat="43.6386651" lon="11.3827485"><ele>707.0</ele><time>2026-04-18T11:46:20.699Z</time></trkpt><trkpt lat="43.6387319" lon="11.3828244"><ele>707.0</ele><time>2026-04-18T11:46:21.699Z</time></trkpt><trkpt lat="43.6387999" lon="11.3829164"><ele>707.0</ele><time>2026-04-18T11:46:22.699Z</time></trkpt><trkpt lat="43.6388489" lon="11.3829832"><ele>707.0</ele><time>2026-04-18T11:46:23.699Z</time></trkpt><trkpt lat="43.6388913" lon="11.3830495"><ele>707.0</ele><time>2026-04-18T11:46:24.699Z</time></trkpt><trkpt lat="43.6389425" lon="11.3831191"><ele>707.0</ele><time>2026-04-18T11:46:25.699Z</time></trkpt><trkpt lat="43.6389932" lon="11.3831839"><ele>707.0</ele><time>2026-04-18T11:46:26.7Z</time></trkpt><trkpt lat="43.6390522" lon="11.3833006"><ele>707.0</ele><time>2026-04-18T11:46:28.7Z</time></trkpt><trkpt lat="43.6390298" lon="11.3834116"><ele>707.0</ele><time>2026-04-18T11:46:30.7Z</time></trkpt><trkpt lat="43.6389481" lon="11.3834593"><ele>707.0</ele><time>2026-04-18T11:46:32.699Z</time></trkpt><trkpt lat="43.6388779" lon="11.3834735"><ele>707.0</ele><time>2026-04-18T11:46:33.699Z</time></trkpt><trkpt lat="43.6387972" lon="11.3834724"><ele>707.0</ele><time>2026-04-18T11:46:34.7Z</time></trkpt><trkpt lat="43.6387106" lon="11.3834883"><ele>707.0</ele><time>2026-04-18T11:46:35.7Z</time></trkpt><trkpt lat="43.6386216" lon="11.3835022"><ele>707.0</ele><time>2026-04-18T11:46:36.699Z</time></trkpt><trkpt lat="43.6385451" lon="11.3835161"><ele>707.0</ele><time>2026-04-18T11:46:37.7Z</time></trkpt><trkpt lat="43.6384762" lon="11.3835317"><ele>707.0</ele><time>2026-04-18T11:46:38.699Z</time></trkpt><trkpt lat="43.6383657" lon="11.3836003"><ele>707.0</ele><time>2026-04-18T11:46:40.7Z</time></trkpt><trkpt lat="43.6382725" lon="11.3836333"><ele>706.2</ele><time>2026-04-18T11:46:42.699Z</time></trkpt><trkpt lat="43.6381735" lon="11.3835997"><ele>705.4000000000001</ele><time>2026-04-18T11:46:44.699Z</time></trkpt><trkpt lat="43.6380658" lon="11.3835598"><ele>704.5999999999999</ele><time>2026-04-18T11:46:46.7Z</time></trkpt><trkpt lat="43.6379917" lon="11.38355"><ele>703.8</ele><time>2026-04-18T11:46:47.7Z</time></trkpt><trkpt lat="43.6379026" lon="11.3835469"><ele>703.0</ele><time>2026-04-18T11:46:48.699Z</time></trkpt><trkpt lat="43.6378119" lon="11.3835728"><ele>702.8333333333334</ele><time>2026-04-18T11:46:49.7Z</time></trkpt><trkpt lat="43.6377493" lon="11.3836116"><ele>702.6666666666667</ele><time>2026-04-18T11:46:50.699Z</time></trkpt><trkpt lat="43.6376907" lon="11.3836534"><ele>702.5</ele><time>2026-04-18T11:46:51.699Z</time></trkpt><trkpt lat="43.6375822" lon="11.3837106"><ele>702.3333333333334</ele><time>2026-04-18T11:46:53.7Z</time></trkpt><trkpt lat="43.6374848" lon="11.3837802"><ele>702.1666666666666</ele><time>2026-04-18T11:46:55.7Z</time></trkpt><trkpt lat="43.6374199" lon="11.3838255"><ele>702.0</ele><time>2026-04-18T11:46:56.7Z</time></trkpt><trkpt lat="43.6373508" lon="11.3838701"><ele>705.0000000000001</ele><time>2026-04-18T11:46:57.699Z</time></trkpt><trkpt lat="43.6372776" lon="11.3839055"><ele>708.0</ele><time>2026-04-18T11:46:58.699Z</time></trkpt><trkpt lat="43.6372084" lon="11.3839457"><ele>711.0</ele><time>2026-04-18T11:46:59.699Z</time></trkpt><trkpt lat="43.6371418" lon="11.3839915"><ele>714.0</ele><time>2026-04-18T11:47:00.699Z</time></trkpt><trkpt lat="43.637085" lon="11.3840322"><ele>717.0</ele><time>2026-04-18T11:47:01.699Z</time></trkpt><trkpt lat="43.6370171" lon="11.3840499"><ele>720.0000000000001</ele><time>2026-04-18T11:47:02.699Z</time></trkpt><trkpt lat="43.6369456" lon="11.3840597"><ele>723.0</ele><time>2026-04-18T11:47:03.7Z</time></trkpt><trkpt lat="43.636869" lon="11.3840675"><ele>723.5</ele><time>2026-04-18T11:47:04.7Z</time></trkpt><trkpt lat="43.6368017" lon="11.3840799"><ele>724.0</ele><time>2026-04-18T11:47:05.7Z</time></trkpt><trkpt lat="43.6366864" lon="11.3841155"><ele>724.5</ele><time>2026-04-18T11:47:07.699Z</time></trkpt><trkpt lat="43.6365816" lon="11.3841876"><ele>725.0</ele><time>2026-04-18T11:47:09.699Z</time></trkpt><trkpt lat="43.636517" lon="11.3842176"><ele>725.5</ele><time>2026-04-18T11:47:10.699Z</time></trkpt><trkpt lat="43.6364484" lon="11.384264"><ele>726.0</ele><time>2026-04-18T11:47:11.699Z</time></trkpt><trkpt lat="43.6363829" lon="11.3843078"><ele>726.0</ele><time>2026-04-18T11:47:12.699Z</time></trkpt><trkpt lat="43.6362838" lon="11.3843859"><ele>726.0</ele><time>2026-04-18T11:47:14.699Z</time></trkpt><trkpt lat="43.6361873" lon="11.3844575"><ele>726.0</ele><time>2026-04-18T11:47:16.699Z</time></trkpt><trkpt lat="43.6360914" lon="11.3845341"><ele>726.0</ele><time>2026-04-18T11:47:18.699Z</time></trkpt><trkpt lat="43.6360012" lon="11.3846315"><ele>726.0</ele><time>2026-04-18T11:47:20.699Z</time></trkpt><trkpt lat="43.6359564" lon="11.3847383"><ele>725.0</ele><time>2026-04-18T11:47:22.699Z</time></trkpt><trkpt lat="43.6359419" lon="11.3848842"><ele>724.0</ele><time>2026-04-18T11:47:24.699Z</time></trkpt><trkpt lat="43.6359131" lon="11.3850011"><ele>723.0</ele><time>2026-04-18T11:47:26.699Z</time></trkpt><trkpt lat="43.6358753" lon="11.3851164"><ele>722.0</ele><time>2026-04-18T11:47:28.699Z</time></trkpt><trkpt lat="43.6358471" lon="11.3852023"><ele>721.0</ele><time>2026-04-18T11:47:32.7Z</time></trkpt><trkpt lat="43.635808" lon="11.3852986"><ele>720.0</ele><time>2026-04-18T11:47:34.699Z</time></trkpt><trkpt lat="43.6357449" lon="11.3854465"><ele>722.8</ele><time>2026-04-18T11:47:36.699Z</time></trkpt><trkpt lat="43.6356775" lon="11.3855819"><ele>725.6</ele><time>2026-04-18T11:47:38.699Z</time></trkpt><trkpt lat="43.6356236" lon="11.3856604"><ele>728.4000000000001</ele><time>2026-04-18T11:47:39.699Z</time></trkpt><trkpt lat="43.6355704" lon="11.3857399"><ele>731.2</ele><time>2026-04-18T11:47:40.699Z</time></trkpt><trkpt lat="43.6355078" lon="11.3858409"><ele>734.0</ele><time>2026-04-18T11:47:41.699Z</time></trkpt><trkpt lat="43.6354423" lon="11.3859001"><ele>734.0</ele><time>2026-04-18T11:47:42.699Z</time></trkpt><trkpt lat="43.6353747" lon="11.3860054"><ele>734.0</ele><time>2026-04-18T11:47:44.699Z</time></trkpt><trkpt lat="43.6353273" lon="11.3860993"><ele>734.0</ele><time>2026-04-18T11:47:46.699Z</time></trkpt><trkpt lat="43.6352747" lon="11.3861819"><ele>734.0</ele><time>2026-04-18T11:47:48.7Z</time></trkpt><trkpt lat="43.6352078" lon="11.3863037"><ele>734.0</ele><time>2026-04-18T11:47:50.699Z</time></trkpt><trkpt lat="43.6351287" lon="11.386414"><ele>733.2</ele><time>2026-04-18T11:47:52.7Z</time></trkpt><trkpt lat="43.6350801" lon="11.3864882"><ele>732.4000000000001</ele><time>2026-04-18T11:47:54.7Z</time></trkpt><trkpt lat="43.6350133" lon="11.3866024"><ele>731.6</ele><time>2026-04-18T11:47:56.699Z</time></trkpt><trkpt lat="43.6349388" lon="11.3867082"><ele>730.8</ele><time>2026-04-18T11:47:58.7Z</time></trkpt><trkpt lat="43.6348841" lon="11.3867591"><ele>730.0</ele><time>2026-04-18T11:47:59.699Z</time></trkpt><trkpt lat="43.6347608" lon="11.3867904"><ele>730.0</ele><time>2026-04-18T11:48:01.7Z</time></trkpt><trkpt lat="43.634637" lon="11.3867439"><ele>730.0</ele><time>2026-04-18T11:48:03.7Z</time></trkpt><trkpt lat="43.6345703" lon="11.3867088"><ele>730.0</ele><time>2026-04-18T11:48:04.7Z</time></trkpt><trkpt lat="43.6345148" lon="11.3866394"><ele>730.0</ele><time>2026-04-18T11:48:05.699Z</time></trkpt><trkpt lat="43.634471" lon="11.3865699"><ele>730.0</ele><time>2026-04-18T11:48:06.699Z</time></trkpt><trkpt lat="43.6343869" lon="11.386447"><ele>728.1666666666667</ele><time>2026-04-18T11:48:08.699Z</time></trkpt><trkpt lat="43.6342825" lon="11.3863848"><ele>726.3333333333334</ele><time>2026-04-18T11:48:10.699Z</time></trkpt><trkpt lat="43.6342158" lon="11.3864025"><ele>724.5</ele><time>2026-04-18T11:48:11.699Z</time></trkpt><trkpt lat="43.63413" lon="11.3864549"><ele>722.6666666666666</ele><time>2026-04-18T11:48:12.699Z</time></trkpt><trkpt lat="43.6340504" lon="11.386499"><ele>720.8333333333333</ele><time>2026-04-18T11:48:13.7Z</time></trkpt><trkpt lat="43.6339779" lon="11.3865512"><ele>719.0</ele><time>2026-04-18T11:48:14.699Z</time></trkpt><trkpt lat="43.6339137" lon="11.3866327"><ele>719.0</ele><time>2026-04-18T11:48:15.699Z</time></trkpt><trkpt lat="43.6338452" lon="11.3867082"><ele>719.0</ele><time>2026-04-18T11:48:16.7Z</time></trkpt><trkpt lat="43.6337808" lon="11.3867944"><ele>719.0</ele><time>2026-04-18T11:48:17.699Z</time></trkpt><trkpt lat="43.6337222" lon="11.3868905"><ele>719.0</ele><time>2026-04-18T11:48:18.699Z</time></trkpt><trkpt lat="43.6336631" lon="11.3869647"><ele>719.0</ele><time>2026-04-18T11:48:19.699Z</time></trkpt><trkpt lat="43.6335962" lon="11.3870534"><ele>719.0</ele><time>2026-04-18T11:48:20.7Z</time></trkpt><trkpt lat="43.6335448" lon="11.3871316"><ele>717.1666666666666</ele><time>2026-04-18T11:48:21.7Z</time></trkpt><trkpt lat="43.6334915" lon="11.3872154"><ele>715.3333333333333</ele><time>2026-04-18T11:48:22.699Z</time></trkpt><trkpt lat="43.6334398" lon="11.3873145"><ele>713.5</ele><time>2026-04-18T11:48:23.7Z</time></trkpt><trkpt lat="43.6333886" lon="11.3874104"><ele>711.6666666666666</ele><time>2026-04-18T11:48:24.7Z</time></trkpt><trkpt lat="43.6333434" lon="11.3875091"><ele>709.8333333333334</ele><time>2026-04-18T11:48:25.699Z</time></trkpt><trkpt lat="43.6333068" lon="11.3876096"><ele>708.0</ele><time>2026-04-18T11:48:26.7Z</time></trkpt><trkpt lat="43.6332825" lon="11.387722"><ele>708.0</ele><time>2026-04-18T11:48:27.699Z</time></trkpt><trkpt lat="43.6332697" lon="11.3878449"><ele>708.0</ele><time>2026-04-18T11:48:28.7Z</time></trkpt><trkpt lat="43.633257" lon="11.3879727"><ele>708.0</ele><time>2026-04-18T11:48:29.699Z</time></trkpt><trkpt lat="43.6332545" lon="11.3880805"><ele>708.0</ele><time>2026-04-18T11:48:30.699Z</time></trkpt><trkpt lat="43.6332561" lon="11.3881974"><ele>708.0</ele><time>2026-04-18T11:48:31.699Z</time></trkpt><trkpt lat="43.6332681" lon="11.3883103"><ele>708.0</ele><time>2026-04-18T11:48:32.699Z</time></trkpt><trkpt lat="43.6332787" lon="11.3884294"><ele>709.3333333333334</ele><time>2026-04-18T11:48:33.699Z</time></trkpt><trkpt lat="43.6332911" lon="11.3885231"><ele>710.6666666666666</ele><time>2026-04-18T11:48:34.699Z</time></trkpt><trkpt lat="43.6332812" lon="11.3886136"><ele>712.0</ele><time>2026-04-18T11:48:35.699Z</time></trkpt><trkpt lat="43.6332818" lon="11.3887747"><ele>713.3333333333333</ele><time>2026-04-18T11:48:37.699Z</time></trkpt><trkpt lat="43.6332791" lon="11.3888624"><ele>714.6666666666666</ele><time>2026-04-18T11:48:38.699Z</time></trkpt><trkpt lat="43.6332536" lon="11.388978"><ele>716.0</ele><time>2026-04-18T11:48:40.699Z</time></trkpt><trkpt lat="43.6331552" lon="11.3890038"><ele>716.8333333333333</ele><time>2026-04-18T11:48:42.7Z</time></trkpt><trkpt lat="43.6330897" lon="11.3889953"><ele>717.6666666666666</ele><time>2026-04-18T11:48:43.699Z</time></trkpt><trkpt lat="43.632998" lon="11.3889902"><ele>718.5</ele><time>2026-04-18T11:48:44.699Z</time></trkpt><trkpt lat="43.6329127" lon="11.3889782"><ele>719.3333333333334</ele><time>2026-04-18T11:48:45.699Z</time></trkpt><trkpt lat="43.6328376" lon="11.3889774"><ele>720.1666666666667</ele><time>2026-04-18T11:48:46.699Z</time></trkpt><trkpt lat="43.6327573" lon="11.3890044"><ele>721.0</ele><time>2026-04-18T11:48:47.699Z</time></trkpt><trkpt lat="43.6326702" lon="11.3890385"><ele>718.8333333333334</ele><time>2026-04-18T11:48:48.699Z</time></trkpt><trkpt lat="43.6325894" lon="11.3890784"><ele>716.6666666666667</ele><time>2026-04-18T11:48:49.7Z</time></trkpt><trkpt lat="43.6325177" lon="11.3891379"><ele>714.5</ele><time>2026-04-18T11:48:50.7Z</time></trkpt><trkpt lat="43.6324518" lon="11.3891978"><ele>712.3333333333334</ele><time>2026-04-18T11:48:51.699Z</time></trkpt><trkpt lat="43.6323856" lon="11.389264"><ele>710.1666666666666</ele><time>2026-04-18T11:48:52.699Z</time></trkpt><trkpt lat="43.6323393" lon="11.3893478"><ele>708.0</ele><time>2026-04-18T11:48:53.699Z</time></trkpt><trkpt lat="43.63231" lon="11.3894321"><ele>708.0</ele><time>2026-04-18T11:48:54.7Z</time></trkpt><trkpt lat="43.6322877" lon="11.3895397"><ele>708.0</ele><time>2026-04-18T11:48:55.7Z</time></trkpt><trkpt lat="43.6322438" lon="11.3896655"><ele>708.0</ele><time>2026-04-18T11:48:56.699Z</time></trkpt><trkpt lat="43.6322233" lon="11.3897526"><ele>708.0</ele><time>2026-04-18T11:48:57.7Z</time></trkpt><trkpt lat="43.6322146" lon="11.3898556"><ele>708.0</ele><time>2026-04-18T11:48:58.699Z</time></trkpt><trkpt lat="43.6322282" lon="11.389968"><ele>708.0</ele><time>2026-04-18T11:48:59.699Z</time></trkpt><trkpt lat="43.632312" lon="11.3901191"><ele>708.5</ele><time>2026-04-18T11:49:01.699Z</time></trkpt><trkpt lat="43.6323879" lon="11.3901754"><ele>709.0</ele><time>2026-04-18T11:49:02.7Z</time></trkpt><trkpt lat="43.6324682" lon="11.3902186"><ele>709.5</ele><time>2026-04-18T11:49:03.699Z</time></trkpt><trkpt lat="43.6325403" lon="11.3902757"><ele>710.0</ele><time>2026-04-18T11:49:04.7Z</time></trkpt><trkpt lat="43.6326215" lon="11.3903276"><ele>710.5</ele><time>2026-04-18T11:49:05.7Z</time></trkpt><trkpt lat="43.6326753" lon="11.3903807"><ele>711.0</ele><time>2026-04-18T11:49:06.699Z</time></trkpt><trkpt lat="43.6327275" lon="11.3904343"><ele>711.0</ele><time>2026-04-18T11:49:07.699Z</time></trkpt><trkpt lat="43.6327722" lon="11.3905021"><ele>711.0</ele><time>2026-04-18T11:49:08.699Z</time></trkpt><trkpt lat="43.6328199" lon="11.3905867"><ele>711.0</ele><time>2026-04-18T11:49:09.7Z</time></trkpt><trkpt lat="43.6328696" lon="11.3906819"><ele>711.0</ele><time>2026-04-18T11:49:10.699Z</time></trkpt><trkpt lat="43.6329412" lon="11.3907607"><ele>711.0</ele><time>2026-04-18T11:49:11.699Z</time></trkpt><trkpt lat="43.6330106" lon="11.3908463"><ele>711.0</ele><time>2026-04-18T11:49:12.7Z</time></trkpt><trkpt lat="43.6330757" lon="11.3909299"><ele>713.6666666666666</ele><time>2026-04-18T11:49:13.699Z</time></trkpt><trkpt lat="43.6331585" lon="11.3910067"><ele>716.3333333333334</ele><time>2026-04-18T11:49:14.7Z</time></trkpt><trkpt lat="43.6332412" lon="11.3910525"><ele>719.0</ele><time>2026-04-18T11:49:15.7Z</time></trkpt><trkpt lat="43.6333181" lon="11.391101"><ele>721.6666666666667</ele><time>2026-04-18T11:49:16.7Z</time></trkpt><trkpt lat="43.6333896" lon="11.3911483"><ele>724.3333333333334</ele><time>2026-04-18T11:49:17.7Z</time></trkpt><trkpt lat="43.6334743" lon="11.3911697"><ele>727.0</ele><time>2026-04-18T11:49:18.7Z</time></trkpt><trkpt lat="43.6335583" lon="11.3911878"><ele>730.1666666666667</ele><time>2026-04-18T11:49:19.699Z</time></trkpt><trkpt lat="43.6336416" lon="11.3912117"><ele>733.3333333333334</ele><time>2026-04-18T11:49:20.7Z</time></trkpt><trkpt lat="43.6337287" lon="11.3912163"><ele>736.5</ele><time>2026-04-18T11:49:21.699Z</time></trkpt><trkpt lat="43.6338072" lon="11.3912327"><ele>739.6666666666666</ele><time>2026-04-18T11:49:22.699Z</time></trkpt><trkpt lat="43.6338926" lon="11.3912681"><ele>742.8333333333333</ele><time>2026-04-18T11:49:23.699Z</time></trkpt><trkpt lat="43.6339939" lon="11.3912973"><ele>746.0</ele><time>2026-04-18T11:49:24.699Z</time></trkpt><trkpt lat="43.6340947" lon="11.3913139"><ele>743.3333333333333</ele><time>2026-04-18T11:49:25.7Z</time></trkpt><trkpt lat="43.6341849" lon="11.3913515"><ele>740.6666666666666</ele><time>2026-04-18T11:49:26.7Z</time></trkpt><trkpt lat="43.6342651" lon="11.3913729"><ele>738.0</ele><time>2026-04-18T11:49:27.699Z</time></trkpt><trkpt lat="43.6343545" lon="11.3913819"><ele>735.3333333333334</ele><time>2026-04-18T11:49:28.699Z</time></trkpt><trkpt lat="43.6344413" lon="11.3913959"><ele>732.6666666666667</ele><time>2026-04-18T11:49:29.699Z</time></trkpt><trkpt lat="43.6345125" lon="11.3914052"><ele>730.0</ele><time>2026-04-18T11:49:30.699Z</time></trkpt><trkpt lat="43.634574" lon="11.3914263"><ele>730.0</ele><time>2026-04-18T11:49:31.699Z</time></trkpt><trkpt lat="43.6346448" lon="11.3914146"><ele>730.0</ele><time>2026-04-18T11:49:32.699Z</time></trkpt><trkpt lat="43.6347611" lon="11.3914562"><ele>730.0</ele><time>2026-04-18T11:49:34.699Z</time></trkpt><trkpt lat="43.6348178" lon="11.3915171"><ele>730.0</ele><time>2026-04-18T11:49:35.699Z</time></trkpt><trkpt lat="43.634868" lon="11.3915842"><ele>730.0</ele><time>2026-04-18T11:49:36.699Z</time></trkpt><trkpt lat="43.6349139" lon="11.3916483"><ele>730.0</ele><time>2026-04-18T11:49:37.699Z</time></trkpt><trkpt lat="43.6349664" lon="11.3916983"><ele>730.0</ele><time>2026-04-18T11:49:38.699Z</time></trkpt><trkpt lat="43.6350325" lon="11.3917381"><ele>730.0</ele><time>2026-04-18T11:49:39.7Z</time></trkpt><trkpt lat="43.6350989" lon="11.3917728"><ele>730.0</ele><time>2026-04-18T11:49:40.7Z</time></trkpt><trkpt lat="43.6352092" lon="11.3918016"><ele>730.0</ele><time>2026-04-18T11:49:42.699Z</time></trkpt><trkpt lat="43.6352778" lon="11.3918034"><ele>730.0</ele><time>2026-04-18T11:49:43.699Z</time></trkpt><trkpt lat="43.635377" lon="11.3918109"><ele>730.0</ele><time>2026-04-18T11:49:45.699Z</time></trkpt><trkpt lat="43.63549" lon="11.3918094"><ele>729.5</ele><time>2026-04-18T11:49:47.7Z</time></trkpt><trkpt lat="43.6355792" lon="11.3918045"><ele>729.0</ele><time>2026-04-18T11:49:49.699Z</time></trkpt><trkpt lat="43.6356493" lon="11.3917972"><ele>728.5</ele><time>2026-04-18T11:49:51.699Z</time></trkpt><trkpt lat="43.6357305" lon="11.3917482"><ele>728.0</ele><time>2026-04-18T11:49:53.7Z</time></trkpt><trkpt lat="43.6358347" lon="11.3917148"><ele>727.5</ele><time>2026-04-18T11:49:55.699Z</time></trkpt><trkpt lat="43.6358969" lon="11.3916998"><ele>727.0</ele><time>2026-04-18T11:49:56.699Z</time></trkpt><trkpt lat="43.6360023" lon="11.3916945"><ele>727.0</ele><time>2026-04-18T11:49:58.699Z</time></trkpt><trkpt lat="43.6360758" lon="11.3917044"><ele>727.0</ele><time>2026-04-18T11:50:00.7Z</time></trkpt><trkpt lat="43.6361408" lon="11.391717"><ele>727.0</ele><time>2026-04-18T11:50:02.699Z</time></trkpt><trkpt lat="43.6362071" lon="11.3917423"><ele>727.0</ele><time>2026-04-18T11:50:05.7Z</time></trkpt><trkpt lat="43.6362609" lon="11.3918016"><ele>727.0</ele><time>2026-04-18T11:50:08.699Z</time></trkpt><trkpt lat="43.6362698" lon="11.3919016"><ele>727.0</ele><time>2026-04-18T11:50:12.698Z</time></trkpt><trkpt lat="43.6362393" lon="11.3920251"><ele>727.0</ele><time>2026-04-18T11:50:15.699Z</time></trkpt><trkpt lat="43.6361984" lon="11.3921568"><ele>728.6666666666667</ele><time>2026-04-18T11:50:17.699Z</time></trkpt><trkpt lat="43.6361647" lon="11.3922418"><ele>730.3333333333334</ele><time>2026-04-18T11:50:18.699Z</time></trkpt><trkpt lat="43.6361288" lon="11.3923317"><ele>732.0</ele><time>2026-04-18T11:50:19.699Z</time></trkpt><trkpt lat="43.6360999" lon="11.3924258"><ele>733.6666666666666</ele><time>2026-04-18T11:50:20.699Z</time></trkpt><trkpt lat="43.6360788" lon="11.3925394"><ele>735.3333333333333</ele><time>2026-04-18T11:50:21.7Z</time></trkpt><trkpt lat="43.6360483" lon="11.3926431"><ele>737.0</ele><time>2026-04-18T11:50:22.699Z</time></trkpt><trkpt lat="43.6360224" lon="11.3927281"><ele>732.6</ele><time>2026-04-18T11:50:23.699Z</time></trkpt><trkpt lat="43.6359908" lon="11.3928109"><ele>728.2</ele><time>2026-04-18T11:50:24.699Z</time></trkpt><trkpt lat="43.6359023" lon="11.3929418"><ele>723.8</ele><time>2026-04-18T11:50:26.699Z</time></trkpt><trkpt lat="43.6358347" lon="11.3929963"><ele>719.4</ele><time>2026-04-18T11:50:27.7Z</time></trkpt><trkpt lat="43.6357521" lon="11.3930586"><ele>715.0</ele><time>2026-04-18T11:50:28.699Z</time></trkpt><trkpt lat="43.635671" lon="11.3931206"><ele>715.0</ele><time>2026-04-18T11:50:29.699Z</time></trkpt><trkpt lat="43.6355928" lon="11.3931873"><ele>715.0</ele><time>2026-04-18T11:50:30.7Z</time></trkpt><trkpt lat="43.635524" lon="11.3932692"><ele>715.0</ele><time>2026-04-18T11:50:31.7Z</time></trkpt><trkpt lat="43.6354546" lon="11.3933559"><ele>715.0</ele><time>2026-04-18T11:50:32.699Z</time></trkpt><trkpt lat="43.6353723" lon="11.393434"><ele>715.0</ele><time>2026-04-18T11:50:33.7Z</time></trkpt><trkpt lat="43.6352877" lon="11.3935022"><ele>712.5</ele><time>2026-04-18T11:50:34.699Z</time></trkpt><trkpt lat="43.6352141" lon="11.3935893"><ele>710.0</ele><time>2026-04-18T11:50:35.7Z</time></trkpt><trkpt lat="43.635151" lon="11.3936934"><ele>707.5</ele><time>2026-04-18T11:50:36.699Z</time></trkpt><trkpt lat="43.6350929" lon="11.3937854"><ele>705.0</ele><time>2026-04-18T11:50:37.699Z</time></trkpt><trkpt lat="43.6350216" lon="11.3938532"><ele>702.5</ele><time>2026-04-18T11:50:38.699Z</time></trkpt><trkpt lat="43.6349802" lon="11.3939193"><ele>700.0</ele><time>2026-04-18T11:50:39.7Z</time></trkpt><trkpt lat="43.6349653" lon="11.3940648"><ele>700.0</ele><time>2026-04-18T11:50:41.7Z</time></trkpt><trkpt lat="43.6350054" lon="11.3942082"><ele>700.0</ele><time>2026-04-18T11:50:43.699Z</time></trkpt><trkpt lat="43.6350268" lon="11.3943368"><ele>700.0</ele><time>2026-04-18T11:50:45.699Z</time></trkpt><trkpt lat="43.6350347" lon="11.3944251"><ele>700.0</ele><time>2026-04-18T11:50:46.7Z</time></trkpt><trkpt lat="43.6350823" lon="11.3945788"><ele>700.0</ele><time>2026-04-18T11:50:48.7Z</time></trkpt><trkpt lat="43.6351247" lon="11.3946503"><ele>698.5</ele><time>2026-04-18T11:50:49.699Z</time></trkpt><trkpt lat="43.6351746" lon="11.3947344"><ele>697.0</ele><time>2026-04-18T11:50:50.699Z</time></trkpt><trkpt lat="43.6352282" lon="11.3948105"><ele>695.5</ele><time>2026-04-18T11:50:51.699Z</time></trkpt><trkpt lat="43.635271" lon="11.3948974"><ele>694.0</ele><time>2026-04-18T11:50:52.699Z</time></trkpt><trkpt lat="43.6353156" lon="11.3949825"><ele>692.5</ele><time>2026-04-18T11:50:53.7Z</time></trkpt><trkpt lat="43.6353677" lon="11.3950561"><ele>691.0</ele><time>2026-04-18T11:50:54.699Z</time></trkpt><trkpt lat="43.6354098" lon="11.3951322"><ele>691.7142857142857</ele><time>2026-04-18T11:50:55.699Z</time></trkpt><trkpt lat="43.6354451" lon="11.3952129"><ele>692.4285714285714</ele><time>2026-04-18T11:50:56.699Z</time></trkpt><trkpt lat="43.6354705" lon="11.3953074"><ele>693.1428571428571</ele><time>2026-04-18T11:50:57.7Z</time></trkpt><trkpt lat="43.6354988" lon="11.3954038"><ele>693.8571428571429</ele><time>2026-04-18T11:50:58.699Z</time></trkpt><trkpt lat="43.6355346" lon="11.3955053"><ele>694.5714285714286</ele><time>2026-04-18T11:50:59.7Z</time></trkpt><trkpt lat="43.6355634" lon="11.395595"><ele>695.2857142857142</ele><time>2026-04-18T11:51:00.699Z</time></trkpt><trkpt lat="43.6355808" lon="11.395685"><ele>696.0</ele><time>2026-04-18T11:51:01.699Z</time></trkpt><trkpt lat="43.6355645" lon="11.3958636"><ele>696.0</ele><time>2026-04-18T11:51:03.699Z</time></trkpt><trkpt lat="43.6355036" lon="11.3960343"><ele>696.0</ele><time>2026-04-18T11:51:05.699Z</time></trkpt><trkpt lat="43.6354434" lon="11.3961309"><ele>696.0</ele><time>2026-04-18T11:51:06.7Z</time></trkpt><trkpt lat="43.6353649" lon="11.3962366"><ele>696.0</ele><time>2026-04-18T11:51:07.699Z</time></trkpt><trkpt lat="43.6352812" lon="11.3963298"><ele>696.0</ele><time>2026-04-18T11:51:08.699Z</time></trkpt><trkpt lat="43.6351932" lon="11.3964364"><ele>694.1999999999999</ele><time>2026-04-18T11:51:09.699Z</time></trkpt><trkpt lat="43.635106" lon="11.396547"><ele>692.4</ele><time>2026-04-18T11:51:10.699Z</time></trkpt><trkpt lat="43.6350173" lon="11.39664"><ele>690.6</ele><time>2026-04-18T11:51:11.699Z</time></trkpt><trkpt lat="43.6349383" lon="11.3967134"><ele>688.8</ele><time>2026-04-18T11:51:12.699Z</time></trkpt><trkpt lat="43.6348655" lon="11.3967606"><ele>687.0</ele><time>2026-04-18T11:51:13.7Z</time></trkpt><trkpt lat="43.6347836" lon="11.3967969"><ele>687.0</ele><time>2026-04-18T11:51:14.7Z</time></trkpt><trkpt lat="43.6346959" lon="11.3968131"><ele>687.0</ele><time>2026-04-18T11:51:15.7Z</time></trkpt><trkpt lat="43.6346082" lon="11.396801"><ele>687.0</ele><time>2026-04-18T11:51:16.699Z</time></trkpt><trkpt lat="43.6345149" lon="11.3967701"><ele>687.0</ele><time>2026-04-18T11:51:17.699Z</time></trkpt><trkpt lat="43.6344168" lon="11.3967505"><ele>687.0</ele><time>2026-04-18T11:51:18.699Z</time></trkpt><trkpt lat="43.6343179" lon="11.3967323"><ele>688.0</ele><time>2026-04-18T11:51:19.699Z</time></trkpt><trkpt lat="43.6342334" lon="11.396709"><ele>689.0</ele><time>2026-04-18T11:51:20.699Z</time></trkpt><trkpt lat="43.6341668" lon="11.3966783"><ele>690.0</ele><time>2026-04-18T11:51:21.699Z</time></trkpt><trkpt lat="43.6340696" lon="11.3967164"><ele>691.0</ele><time>2026-04-18T11:51:23.699Z</time></trkpt><trkpt lat="43.6339776" lon="11.3967558"><ele>692.0</ele><time>2026-04-18T11:51:25.699Z</time></trkpt><trkpt lat="43.6338984" lon="11.3967106"><ele>693.0</ele><time>2026-04-18T11:51:27.699Z</time></trkpt><trkpt lat="43.6338205" lon="11.3965704"><ele>693.0</ele><time>2026-04-18T11:51:29.7Z</time></trkpt><trkpt lat="43.6337791" lon="11.396492"><ele>693.0</ele><time>2026-04-18T11:51:30.699Z</time></trkpt><trkpt lat="43.6337108" lon="11.3963913"><ele>693.0</ele><time>2026-04-18T11:51:32.699Z</time></trkpt><trkpt lat="43.633665" lon="11.3963168"><ele>693.0</ele><time>2026-04-18T11:51:34.699Z</time></trkpt><trkpt lat="43.6337199" lon="11.3963792"><ele>693.0</ele><time>2026-04-18T11:52:57.7Z</time></trkpt><trkpt lat="43.6337607" lon="11.3964902"><ele>693.0</ele><time>2026-04-18T11:52:59.699Z</time></trkpt><trkpt lat="43.6338488" lon="11.3966022"><ele>693.0</ele><time>2026-04-18T11:53:01.699Z</time></trkpt><trkpt lat="43.633926" lon="11.3966965"><ele>693.0</ele><time>2026-04-18T11:53:03.7Z</time></trkpt><trkpt lat="43.6340181" lon="11.3967394"><ele>693.0</ele><time>2026-04-18T11:53:05.7Z</time></trkpt><trkpt lat="43.6340783" lon="11.396785"><ele>693.0</ele><time>2026-04-18T11:53:07.7Z</time></trkpt><trkpt lat="43.6341008" lon="11.3969022"><ele>693.0</ele><time>2026-04-18T11:53:09.699Z</time></trkpt><trkpt lat="43.6340728" lon="11.3970283"><ele>693.0</ele><time>2026-04-18T11:53:11.7Z</time></trkpt><trkpt lat="43.6340205" lon="11.3971156"><ele>693.0</ele><time>2026-04-18T11:53:13.699Z</time></trkpt><trkpt lat="43.6339351" lon="11.3972042"><ele>693.0</ele><time>2026-04-18T11:53:15.699Z</time></trkpt><trkpt lat="43.6338781" lon="11.3972488"><ele>693.0</ele><time>2026-04-18T11:53:16.699Z</time></trkpt><trkpt lat="43.6338077" lon="11.3972902"><ele>693.0</ele><time>2026-04-18T11:53:17.699Z</time></trkpt><trkpt lat="43.6337354" lon="11.397313"><ele>693.0</ele><time>2026-04-18T11:53:18.699Z</time></trkpt><trkpt lat="43.6336652" lon="11.3973156"><ele>694.0</ele><time>2026-04-18T11:53:19.699Z</time></trkpt><trkpt lat="43.6335938" lon="11.3973092"><ele>695.0</ele><time>2026-04-18T11:53:20.699Z</time></trkpt><trkpt lat="43.6335288" lon="11.3973044"><ele>696.0</ele><time>2026-04-18T11:53:21.7Z</time></trkpt><trkpt lat="43.6334542" lon="11.3973219"><ele>697.0</ele><time>2026-04-18T11:53:22.699Z</time></trkpt><trkpt lat="43.6333923" lon="11.3973535"><ele>698.0</ele><time>2026-04-18T11:53:23.699Z</time></trkpt><trkpt lat="43.633277" lon="11.397423"><ele>699.0</ele><time>2026-04-18T11:53:25.699Z</time></trkpt><trkpt lat="43.6332034" lon="11.3974394"><ele>699.0</ele><time>2026-04-18T11:53:26.7Z</time></trkpt><trkpt lat="43.6331138" lon="11.3974648"><ele>699.0</ele><time>2026-04-18T11:53:27.7Z</time></trkpt><trkpt lat="43.6330172" lon="11.3974695"><ele>699.0</ele><time>2026-04-18T11:53:28.699Z</time></trkpt><trkpt lat="43.632938" lon="11.3974877"><ele>699.0</ele><time>2026-04-18T11:53:29.7Z</time></trkpt><trkpt lat="43.6328558" lon="11.397508"><ele>699.0</ele><time>2026-04-18T11:53:30.699Z</time></trkpt><trkpt lat="43.6327673" lon="11.3975425"><ele>699.0</ele><time>2026-04-18T11:53:31.7Z</time></trkpt><trkpt lat="43.6326841" lon="11.397577"><ele>698.3333333333334</ele><time>2026-04-18T11:53:32.7Z</time></trkpt><trkpt lat="43.6326087" lon="11.397609"><ele>697.6666666666666</ele><time>2026-04-18T11:53:33.7Z</time></trkpt><trkpt lat="43.6325344" lon="11.3976362"><ele>697.0</ele><time>2026-04-18T11:53:34.699Z</time></trkpt><trkpt lat="43.632462" lon="11.3976681"><ele>696.3333333333333</ele><time>2026-04-18T11:53:35.7Z</time></trkpt><trkpt lat="43.6323967" lon="11.3977281"><ele>695.6666666666666</ele><time>2026-04-18T11:53:36.7Z</time></trkpt><trkpt lat="43.6323303" lon="11.3978081"><ele>695.0</ele><time>2026-04-18T11:53:37.699Z</time></trkpt><trkpt lat="43.6322622" lon="11.3978866"><ele>695.0</ele><time>2026-04-18T11:53:38.699Z</time></trkpt><trkpt lat="43.6321954" lon="11.3979603"><ele>695.0</ele><time>2026-04-18T11:53:39.7Z</time></trkpt><trkpt lat="43.6321268" lon="11.3980283"><ele>695.0</ele><time>2026-04-18T11:53:40.699Z</time></trkpt><trkpt lat="43.6320576" lon="11.3980939"><ele>695.0</ele><time>2026-04-18T11:53:41.7Z</time></trkpt><trkpt lat="43.6320046" lon="11.3981612"><ele>695.0</ele><time>2026-04-18T11:53:42.699Z</time></trkpt><trkpt lat="43.6319552" lon="11.398225"><ele>695.0</ele><time>2026-04-18T11:53:43.7Z</time></trkpt><trkpt lat="43.6318766" lon="11.3983464"><ele>694.8</ele><time>2026-04-18T11:53:45.699Z</time></trkpt><trkpt lat="43.6318085" lon="11.3984739"><ele>694.6</ele><time>2026-04-18T11:53:47.699Z</time></trkpt><trkpt lat="43.6317953" lon="11.3986053"><ele>694.4000000000001</ele><time>2026-04-18T11:53:49.699Z</time></trkpt><trkpt lat="43.6318323" lon="11.3987492"><ele>694.2</ele><time>2026-04-18T11:53:51.7Z</time></trkpt><trkpt lat="43.6319216" lon="11.3988673"><ele>694.0</ele><time>2026-04-18T11:53:53.699Z</time></trkpt><trkpt lat="43.6319968" lon="11.3989719"><ele>694.0</ele><time>2026-04-18T11:53:55.699Z</time></trkpt><trkpt lat="43.632065" lon="11.399083"><ele>694.0</ele><time>2026-04-18T11:53:57.7Z</time></trkpt><trkpt lat="43.6321512" lon="11.3991808"><ele>694.0</ele><time>2026-04-18T11:53:59.699Z</time></trkpt><trkpt lat="43.632206" lon="11.3992285"><ele>694.0</ele><time>2026-04-18T11:54:00.699Z</time></trkpt><trkpt lat="43.6322672" lon="11.3992769"><ele>694.0</ele><time>2026-04-18T11:54:01.699Z</time></trkpt><trkpt lat="43.6323258" lon="11.3993261"><ele>694.0</ele><time>2026-04-18T11:54:02.7Z</time></trkpt><trkpt lat="43.6323756" lon="11.3993892"><ele>694.0</ele><time>2026-04-18T11:54:03.699Z</time></trkpt><trkpt lat="43.6324194" lon="11.3994621"><ele>694.0</ele><time>2026-04-18T11:54:04.699Z</time></trkpt><trkpt lat="43.6324567" lon="11.3995468"><ele>694.0</ele><time>2026-04-18T11:54:05.699Z</time></trkpt><trkpt lat="43.6324922" lon="11.3996327"><ele>694.0</ele><time>2026-04-18T11:54:06.7Z</time></trkpt><trkpt lat="43.6325207" lon="11.3997104"><ele>694.0</ele><time>2026-04-18T11:54:07.699Z</time></trkpt><trkpt lat="43.6325487" lon="11.3997907"><ele>694.0</ele><time>2026-04-18T11:54:08.699Z</time></trkpt><trkpt lat="43.6325842" lon="11.3998657"><ele>694.0</ele><time>2026-04-18T11:54:09.7Z</time></trkpt><trkpt lat="43.6326115" lon="11.3999613"><ele>691.1666666666667</ele><time>2026-04-18T11:54:10.699Z</time></trkpt><trkpt lat="43.6326301" lon="11.4000701"><ele>688.3333333333334</ele><time>2026-04-18T11:54:11.699Z</time></trkpt><trkpt lat="43.6326456" lon="11.4001695"><ele>685.5</ele><time>2026-04-18T11:54:12.7Z</time></trkpt><trkpt lat="43.6326607" lon="11.400263"><ele>682.6666666666666</ele><time>2026-04-18T11:54:13.699Z</time></trkpt><trkpt lat="43.6327142" lon="11.4004085"><ele>679.8333333333333</ele><time>2026-04-18T11:54:15.699Z</time></trkpt><trkpt lat="43.6327486" lon="11.4004936"><ele>677.0</ele><time>2026-04-18T11:54:16.699Z</time></trkpt><trkpt lat="43.6327875" lon="11.400581"><ele>677.1666666666666</ele><time>2026-04-18T11:54:17.699Z</time></trkpt><trkpt lat="43.6328262" lon="11.4006567"><ele>677.3333333333333</ele><time>2026-04-18T11:54:18.699Z</time></trkpt><trkpt lat="43.6328535" lon="11.4007363"><ele>677.5</ele><time>2026-04-18T11:54:19.699Z</time></trkpt><trkpt lat="43.6328533" lon="11.4008838"><ele>677.6666666666666</ele><time>2026-04-18T11:54:21.7Z</time></trkpt><trkpt lat="43.6327993" lon="11.4010407"><ele>677.8333333333334</ele><time>2026-04-18T11:54:23.699Z</time></trkpt><trkpt lat="43.6327675" lon="11.4011365"><ele>678.0</ele><time>2026-04-18T11:54:24.699Z</time></trkpt><trkpt lat="43.6327266" lon="11.4012476"><ele>677.5999999999999</ele><time>2026-04-18T11:54:25.699Z</time></trkpt><trkpt lat="43.6326766" lon="11.4013693"><ele>677.1999999999999</ele><time>2026-04-18T11:54:26.7Z</time></trkpt><trkpt lat="43.6326281" lon="11.4014951"><ele>676.8</ele><time>2026-04-18T11:54:27.699Z</time></trkpt><trkpt lat="43.632587" lon="11.4016117"><ele>676.4</ele><time>2026-04-18T11:54:28.7Z</time></trkpt><trkpt lat="43.6325536" lon="11.401721"><ele>676.0</ele><time>2026-04-18T11:54:29.7Z</time></trkpt><trkpt lat="43.6325181" lon="11.4018042"><ele>676.0</ele><time>2026-04-18T11:54:30.7Z</time></trkpt><trkpt lat="43.6324115" lon="11.4019036"><ele>676.0</ele><time>2026-04-18T11:54:32.699Z</time></trkpt><trkpt lat="43.6323484" lon="11.401917"><ele>676.0</ele><time>2026-04-18T11:54:33.699Z</time></trkpt><trkpt lat="43.6322845" lon="11.40191"><ele>676.0</ele><time>2026-04-18T11:54:34.699Z</time></trkpt><trkpt lat="43.6321669" lon="11.4018958"><ele>676.0</ele><time>2026-04-18T11:54:36.699Z</time></trkpt><trkpt lat="43.6320947" lon="11.4019828"><ele>676.0</ele><time>2026-04-18T11:54:38.695Z</time></trkpt><trkpt lat="43.6321274" lon="11.4020995"><ele>676.0</ele><time>2026-04-18T11:54:40.699Z</time></trkpt><trkpt lat="43.6322572" lon="11.4021268"><ele>676.0</ele><time>2026-04-18T11:54:42.7Z</time></trkpt><trkpt lat="43.632327" lon="11.4021624"><ele>676.0</ele><time>2026-04-18T11:54:43.699Z</time></trkpt><trkpt lat="43.632385" lon="11.4022066"><ele>676.0</ele><time>2026-04-18T11:54:44.699Z</time></trkpt><trkpt lat="43.6324481" lon="11.4022628"><ele>676.0</ele><time>2026-04-18T11:54:45.699Z</time></trkpt><trkpt lat="43.6325132" lon="11.4023233"><ele>677.5</ele><time>2026-04-18T11:54:46.7Z</time></trkpt><trkpt lat="43.6325743" lon="11.402414"><ele>679.0</ele><time>2026-04-18T11:54:47.699Z</time></trkpt><trkpt lat="43.6326174" lon="11.4025055"><ele>680.5</ele><time>2026-04-18T11:54:48.699Z</time></trkpt><trkpt lat="43.6326323" lon="11.4026195"><ele>682.0</ele><time>2026-04-18T11:54:49.699Z</time></trkpt><trkpt lat="43.6326433" lon="11.4027552"><ele>683.5</ele><time>2026-04-18T11:54:50.699Z</time></trkpt><trkpt lat="43.6326493" lon="11.4028863"><ele>685.0</ele><time>2026-04-18T11:54:51.7Z</time></trkpt><trkpt lat="43.6326495" lon="11.4030183"><ele>685.6</ele><time>2026-04-18T11:54:52.7Z</time></trkpt><trkpt lat="43.6326546" lon="11.4031554"><ele>686.2</ele><time>2026-04-18T11:54:53.7Z</time></trkpt><trkpt lat="43.6326612" lon="11.4032862"><ele>686.8</ele><time>2026-04-18T11:54:54.7Z</time></trkpt><trkpt lat="43.6326666" lon="11.403402"><ele>687.4</ele><time>2026-04-18T11:54:55.699Z</time></trkpt><trkpt lat="43.6326735" lon="11.4035169"><ele>688.0</ele><time>2026-04-18T11:54:56.699Z</time></trkpt><trkpt lat="43.6326831" lon="11.403641"><ele>688.0</ele><time>2026-04-18T11:54:57.7Z</time></trkpt><trkpt lat="43.6326832" lon="11.4037594"><ele>688.0</ele><time>2026-04-18T11:54:58.699Z</time></trkpt><trkpt lat="43.6326739" lon="11.4038706"><ele>688.0</ele><time>2026-04-18T11:54:59.699Z</time></trkpt><trkpt lat="43.6326557" lon="11.4039798"><ele>688.0</ele><time>2026-04-18T11:55:00.7Z</time></trkpt><trkpt lat="43.6326357" lon="11.4040704"><ele>688.0</ele><time>2026-04-18T11:55:01.699Z</time></trkpt><trkpt lat="43.632607" lon="11.4041529"><ele>688.0</ele><time>2026-04-18T11:55:02.699Z</time></trkpt><trkpt lat="43.6325847" lon="11.4042425"><ele>688.4</ele><time>2026-04-18T11:55:03.7Z</time></trkpt><trkpt lat="43.6325399" lon="11.4043946"><ele>688.8</ele><time>2026-04-18T11:55:05.7Z</time></trkpt><trkpt lat="43.6325162" lon="11.404541"><ele>689.2</ele><time>2026-04-18T11:55:07.699Z</time></trkpt><trkpt lat="43.6325223" lon="11.4046803"><ele>689.6</ele><time>2026-04-18T11:55:09.699Z</time></trkpt><trkpt lat="43.6325568" lon="11.4048029"><ele>690.0</ele><time>2026-04-18T11:55:11.699Z</time></trkpt><trkpt lat="43.6325947" lon="11.4049091"><ele>688.2</ele><time>2026-04-18T11:55:13.699Z</time></trkpt><trkpt lat="43.6326064" lon="11.4050232"><ele>686.4</ele><time>2026-04-18T11:55:15.7Z</time></trkpt><trkpt lat="43.6326193" lon="11.4051566"><ele>684.5999999999999</ele><time>2026-04-18T11:55:17.699Z</time></trkpt><trkpt lat="43.6326121" lon="11.4052904"><ele>682.8</ele><time>2026-04-18T11:55:19.699Z</time></trkpt><trkpt lat="43.6325447" lon="11.4053615"><ele>681.0</ele><time>2026-04-18T11:55:21.699Z</time></trkpt><trkpt lat="43.6324452" lon="11.4053374"><ele>681.0</ele><time>2026-04-18T11:55:23.699Z</time></trkpt><trkpt lat="43.6323746" lon="11.4053171"><ele>681.0</ele><time>2026-04-18T11:55:24.7Z</time></trkpt><trkpt lat="43.6322502" lon="11.4053504"><ele>681.0</ele><time>2026-04-18T11:55:26.7Z</time></trkpt><trkpt lat="43.6321959" lon="11.405402"><ele>681.0</ele><time>2026-04-18T11:55:27.699Z</time></trkpt><trkpt lat="43.6321608" lon="11.4054805"><ele>681.0</ele><time>2026-04-18T11:55:28.699Z</time></trkpt><trkpt lat="43.6320953" lon="11.4056166"><ele>678.5999999999999</ele><time>2026-04-18T11:55:30.699Z</time></trkpt><trkpt lat="43.6320441" lon="11.4056767"><ele>676.2</ele><time>2026-04-18T11:55:31.699Z</time></trkpt><trkpt lat="43.6319833" lon="11.4057319"><ele>673.8</ele><time>2026-04-18T11:55:32.699Z</time></trkpt><trkpt lat="43.6318958" lon="11.4058209"><ele>671.4000000000001</ele><time>2026-04-18T11:55:34.7Z</time></trkpt><trkpt lat="43.6318686" lon="11.4059446"><ele>669.0</ele><time>2026-04-18T11:55:36.699Z</time></trkpt><trkpt lat="43.6318768" lon="11.4061076"><ele>666.8000000000001</ele><time>2026-04-18T11:55:38.699Z</time></trkpt><trkpt lat="43.6318831" lon="11.4062404"><ele>664.6</ele><time>2026-04-18T11:55:40.699Z</time></trkpt><trkpt lat="43.6319536" lon="11.4063532"><ele>662.4</ele><time>2026-04-18T11:55:42.699Z</time></trkpt><trkpt lat="43.632033" lon="11.4064679"><ele>660.2</ele><time>2026-04-18T11:55:44.699Z</time></trkpt><trkpt lat="43.6321203" lon="11.4065887"><ele>658.0</ele><time>2026-04-18T11:55:46.699Z</time></trkpt><trkpt lat="43.6322298" lon="11.406673"><ele>657.4</ele><time>2026-04-18T11:55:48.699Z</time></trkpt><trkpt lat="43.6323424" lon="11.4067397"><ele>656.8</ele><time>2026-04-18T11:55:50.7Z</time></trkpt><trkpt lat="43.6324556" lon="11.4067698"><ele>656.2</ele><time>2026-04-18T11:55:52.699Z</time></trkpt><trkpt lat="43.6325619" lon="11.406779"><ele>655.6</ele><time>2026-04-18T11:55:54.699Z</time></trkpt><trkpt lat="43.6326192" lon="11.4068488"><ele>655.0</ele><time>2026-04-18T11:55:56.699Z</time></trkpt><trkpt lat="43.632566" lon="11.4068976"><ele>655.0</ele><time>2026-04-18T12:02:00.698Z</time></trkpt><trkpt lat="43.6324855" lon="11.406942"><ele>655.0</ele><time>2026-04-18T12:02:02.699Z</time></trkpt><trkpt lat="43.632388" lon="11.4070122"><ele>655.0</ele><time>2026-04-18T12:02:04.698Z</time></trkpt><trkpt lat="43.6322949" lon="11.4070826"><ele>655.0</ele><time>2026-04-18T12:02:06.698Z</time></trkpt><trkpt lat="43.6321889" lon="11.4071418"><ele>655.0</ele><time>2026-04-18T12:02:08.698Z</time></trkpt><trkpt lat="43.6321091" lon="11.4071602"><ele>655.0</ele><time>2026-04-18T12:02:10.698Z</time></trkpt><trkpt lat="43.6320182" lon="11.4071381"><ele>655.0</ele><time>2026-04-18T12:02:12.698Z</time></trkpt><trkpt lat="43.6319976" lon="11.407236"><ele>655.0</ele><time>2026-04-18T12:02:15.699Z</time></trkpt><trkpt lat="43.6320937" lon="11.4073333"><ele>655.0</ele><time>2026-04-18T12:02:17.699Z</time></trkpt><trkpt lat="43.6321529" lon="11.4073908"><ele>655.0</ele><time>2026-04-18T12:02:18.698Z</time></trkpt><trkpt lat="43.6321993" lon="11.4074585"><ele>655.0</ele><time>2026-04-18T12:02:19.698Z</time></trkpt><trkpt lat="43.63225" lon="11.4075138"><ele>652.0</ele><time>2026-04-18T12:02:20.698Z</time></trkpt><trkpt lat="43.6323121" lon="11.4076229"><ele>649.0</ele><time>2026-04-18T12:02:22.698Z</time></trkpt><trkpt lat="43.6323109" lon="11.4077563"><ele>646.0</ele><time>2026-04-18T12:02:24.699Z</time></trkpt><trkpt lat="43.6322583" lon="11.407898"><ele>643.0</ele><time>2026-04-18T12:02:26.698Z</time></trkpt><trkpt lat="43.6321625" lon="11.4079772"><ele>640.0</ele><time>2026-04-18T12:02:28.698Z</time></trkpt><trkpt lat="43.6320505" lon="11.4080365"><ele>637.6</ele><time>2026-04-18T12:02:30.699Z</time></trkpt><trkpt lat="43.6319381" lon="11.4080369"><ele>635.2</ele><time>2026-04-18T12:02:32.699Z</time></trkpt><trkpt lat="43.6318704" lon="11.408017"><ele>632.8</ele><time>2026-04-18T12:02:33.698Z</time></trkpt><trkpt lat="43.6318124" lon="11.4079798"><ele>630.4</ele><time>2026-04-18T12:02:34.699Z</time></trkpt><trkpt lat="43.6316958" lon="11.4079197"><ele>628.0</ele><time>2026-04-18T12:02:36.699Z</time></trkpt><trkpt lat="43.6315822" lon="11.4078867"><ele>628.0</ele><time>2026-04-18T12:02:38.698Z</time></trkpt><trkpt lat="43.6315081" lon="11.4078892"><ele>628.0</ele><time>2026-04-18T12:02:39.698Z</time></trkpt><trkpt lat="43.6314381" lon="11.4079"><ele>628.0</ele><time>2026-04-18T12:02:40.698Z</time></trkpt><trkpt lat="43.6313698" lon="11.4079232"><ele>628.0</ele><time>2026-04-18T12:02:41.699Z</time></trkpt><trkpt lat="43.6313055" lon="11.4079576"><ele>628.0</ele><time>2026-04-18T12:02:42.699Z</time></trkpt><trkpt lat="43.6312465" lon="11.4080016"><ele>628.0</ele><time>2026-04-18T12:02:43.699Z</time></trkpt><trkpt lat="43.6311508" lon="11.4080757"><ele>622.5</ele><time>2026-04-18T12:02:45.696Z</time></trkpt><trkpt lat="43.6310988" lon="11.4082073"><ele>617.0</ele><time>2026-04-18T12:02:47.698Z</time></trkpt><trkpt lat="43.6310592" lon="11.4083505"><ele>611.5</ele><time>2026-04-18T12:02:49.698Z</time></trkpt><trkpt lat="43.6310061" lon="11.4084859"><ele>606.0</ele><time>2026-04-18T12:02:51.698Z</time></trkpt><trkpt lat="43.630975" lon="11.4086467"><ele>606.0</ele><time>2026-04-18T12:02:53.698Z</time></trkpt><trkpt lat="43.630947" lon="11.4087815"><ele>606.0</ele><time>2026-04-18T12:02:55.698Z</time></trkpt><trkpt lat="43.6308872" lon="11.408922"><ele>606.0</ele><time>2026-04-18T12:02:57.699Z</time></trkpt><trkpt lat="43.6308155" lon="11.4090233"><ele>606.0</ele><time>2026-04-18T12:02:59.698Z</time></trkpt><trkpt lat="43.630701" lon="11.4090428"><ele>606.0</ele><time>2026-04-18T12:03:01.699Z</time></trkpt><trkpt lat="43.6306344" lon="11.409039"><ele>606.0</ele><time>2026-04-18T12:03:02.698Z</time></trkpt><trkpt lat="43.6305293" lon="11.4089998"><ele>606.0</ele><time>2026-04-18T12:03:04.698Z</time></trkpt><trkpt lat="43.6304721" lon="11.40891"><ele>606.0</ele><time>2026-04-18T12:03:06.698Z</time></trkpt><trkpt lat="43.6304307" lon="11.4087941"><ele>606.0</ele><time>2026-04-18T12:03:08.698Z</time></trkpt><trkpt lat="43.6303626" lon="11.408805"><ele>606.0</ele><time>2026-04-18T12:03:10.698Z</time></trkpt><trkpt lat="43.6302895" lon="11.4088922"><ele>605.0</ele><time>2026-04-18T12:03:12.698Z</time></trkpt><trkpt lat="43.6302463" lon="11.4090393"><ele>604.0</ele><time>2026-04-18T12:03:14.698Z</time></trkpt><trkpt lat="43.630278" lon="11.4091855"><ele>603.0</ele><time>2026-04-18T12:03:16.698Z</time></trkpt><trkpt lat="43.6303251" lon="11.4093038"><ele>602.0</ele><time>2026-04-18T12:03:18.698Z</time></trkpt><trkpt lat="43.6303653" lon="11.409462"><ele>601.0</ele><time>2026-04-18T12:03:20.699Z</time></trkpt><trkpt lat="43.6304049" lon="11.4096187"><ele>597.6</ele><time>2026-04-18T12:03:22.698Z</time></trkpt><trkpt lat="43.6304401" lon="11.4097474"><ele>594.2</ele><time>2026-04-18T12:03:24.698Z</time></trkpt><trkpt lat="43.6304721" lon="11.4098675"><ele>590.8</ele><time>2026-04-18T12:03:26.699Z</time></trkpt><trkpt lat="43.6305144" lon="11.409989"><ele>587.4</ele><time>2026-04-18T12:03:28.698Z</time></trkpt><trkpt lat="43.6305399" lon="11.410119"><ele>584.0</ele><time>2026-04-18T12:03:30.699Z</time></trkpt><trkpt lat="43.6305359" lon="11.4102658"><ele>584.0</ele><time>2026-04-18T12:03:32.699Z</time></trkpt><trkpt lat="43.6305025" lon="11.4104265"><ele>584.0</ele><time>2026-04-18T12:03:34.698Z</time></trkpt><trkpt lat="43.6304422" lon="11.4105639"><ele>584.0</ele><time>2026-04-18T12:03:36.699Z</time></trkpt><trkpt lat="43.6303454" lon="11.4106708"><ele>584.0</ele><time>2026-04-18T12:03:38.698Z</time></trkpt><trkpt lat="43.6303131" lon="11.4108066"><ele>580.4</ele><time>2026-04-18T12:03:40.698Z</time></trkpt><trkpt lat="43.6303425" lon="11.4109138"><ele>576.8</ele><time>2026-04-18T12:03:42.698Z</time></trkpt><trkpt lat="43.6303672" lon="11.411047"><ele>573.2</ele><time>2026-04-18T12:03:44.699Z</time></trkpt><trkpt lat="43.630376" lon="11.4111739"><ele>569.6</ele><time>2026-04-18T12:03:46.698Z</time></trkpt><trkpt lat="43.630386" lon="11.4113079"><ele>566.0</ele><time>2026-04-18T12:03:48.699Z</time></trkpt><trkpt lat="43.6303955" lon="11.4114635"><ele>562.6666666666666</ele><time>2026-04-18T12:03:50.699Z</time></trkpt><trkpt lat="43.6303996" lon="11.4115528"><ele>559.3333333333333</ele><time>2026-04-18T12:03:51.699Z</time></trkpt><trkpt lat="43.6304106" lon="11.4116453"><ele>556.0</ele><time>2026-04-18T12:03:52.699Z</time></trkpt><trkpt lat="43.6304166" lon="11.4117404"><ele>552.6666666666666</ele><time>2026-04-18T12:03:53.698Z</time></trkpt><trkpt lat="43.6304257" lon="11.4118368"><ele>549.3333333333334</ele><time>2026-04-18T12:03:54.698Z</time></trkpt><trkpt lat="43.6304447" lon="11.4119239"><ele>546.0</ele><time>2026-04-18T12:03:55.699Z</time></trkpt><trkpt lat="43.6304971" lon="11.4120788"><ele>544.5</ele><time>2026-04-18T12:03:57.698Z</time></trkpt><trkpt lat="43.6305151" lon="11.4121631"><ele>543.0</ele><time>2026-04-18T12:03:58.698Z</time></trkpt><trkpt lat="43.630551" lon="11.4123022"><ele>541.5</ele><time>2026-04-18T12:04:00.698Z</time></trkpt><trkpt lat="43.6306201" lon="11.4123777"><ele>540.0</ele><time>2026-04-18T12:04:02.699Z</time></trkpt><trkpt lat="43.6306913" lon="11.4124455"><ele>538.5</ele><time>2026-04-18T12:04:04.698Z</time></trkpt><trkpt lat="43.6307531" lon="11.4125287"><ele>537.0</ele><time>2026-04-18T12:04:06.698Z</time></trkpt><trkpt lat="43.6307999" lon="11.4126085"><ele>537.0</ele><time>2026-04-18T12:04:08.698Z</time></trkpt><trkpt lat="43.6308298" lon="11.4127112"><ele>537.0</ele><time>2026-04-18T12:04:10.699Z</time></trkpt><trkpt lat="43.6308529" lon="11.4128325"><ele>537.0</ele><time>2026-04-18T12:04:12.698Z</time></trkpt><trkpt lat="43.6308623" lon="11.4129315"><ele>537.0</ele><time>2026-04-18T12:04:14.698Z</time></trkpt><trkpt lat="43.6309567" lon="11.4129547"><ele>537.0</ele><time>2026-04-18T12:04:17.699Z</time></trkpt><trkpt lat="43.6310308" lon="11.4129308"><ele>537.0</ele><time>2026-04-18T12:04:18.699Z</time></trkpt><trkpt lat="43.6311197" lon="11.4129237"><ele>533.8333333333334</ele><time>2026-04-18T12:04:20.699Z</time></trkpt><trkpt lat="43.631191" lon="11.4130042"><ele>530.6666666666666</ele><time>2026-04-18T12:04:22.699Z</time></trkpt><trkpt lat="43.6312658" lon="11.4131"><ele>527.5</ele><time>2026-04-18T12:04:24.698Z</time></trkpt><trkpt lat="43.631326" lon="11.4131394"><ele>524.3333333333333</ele><time>2026-04-18T12:04:25.698Z</time></trkpt><trkpt lat="43.6314026" lon="11.4132017"><ele>521.1666666666666</ele><time>2026-04-18T12:04:26.699Z</time></trkpt><trkpt lat="43.6314615" lon="11.4132756"><ele>518.0</ele><time>2026-04-18T12:04:27.698Z</time></trkpt><trkpt lat="43.6315134" lon="11.4133465"><ele>518.0</ele><time>2026-04-18T12:04:28.698Z</time></trkpt><trkpt lat="43.6315301" lon="11.4134704"><ele>518.0</ele><time>2026-04-18T12:04:30.699Z</time></trkpt><trkpt lat="43.6315422" lon="11.4136099"><ele>518.0</ele><time>2026-04-18T12:04:32.698Z</time></trkpt><trkpt lat="43.6315632" lon="11.4136962"><ele>518.0</ele><time>2026-04-18T12:04:33.698Z</time></trkpt><trkpt lat="43.631587" lon="11.4137847"><ele>518.0</ele><time>2026-04-18T12:04:34.698Z</time></trkpt><trkpt lat="43.6316012" lon="11.4138781"><ele>518.0</ele><time>2026-04-18T12:04:35.698Z</time></trkpt><trkpt lat="43.6316071" lon="11.4139698"><ele>516.6</ele><time>2026-04-18T12:04:36.699Z</time></trkpt><trkpt lat="43.6316047" lon="11.4141188"><ele>515.1999999999999</ele><time>2026-04-18T12:04:38.698Z</time></trkpt><trkpt lat="43.6315314" lon="11.4141885"><ele>513.8</ele><time>2026-04-18T12:04:40.698Z</time></trkpt><trkpt lat="43.6314388" lon="11.4141773"><ele>512.4</ele><time>2026-04-18T12:04:42.699Z</time></trkpt><trkpt lat="43.6313482" lon="11.4141392"><ele>511.0</ele><time>2026-04-18T12:04:44.698Z</time></trkpt><trkpt lat="43.6312596" lon="11.4140911"><ele>511.0</ele><time>2026-04-18T12:04:46.699Z</time></trkpt><trkpt lat="43.6311689" lon="11.4140466"><ele>511.0</ele><time>2026-04-18T12:04:48.698Z</time></trkpt><trkpt lat="43.6310811" lon="11.4140007"><ele>511.0</ele><time>2026-04-18T12:04:50.699Z</time></trkpt><trkpt lat="43.631001" lon="11.4139717"><ele>511.0</ele><time>2026-04-18T12:04:52.698Z</time></trkpt><trkpt lat="43.630894" lon="11.4140157"><ele>511.0</ele><time>2026-04-18T12:04:54.698Z</time></trkpt><trkpt lat="43.6308267" lon="11.4141632"><ele>509.75</ele><time>2026-04-18T12:04:56.698Z</time></trkpt><trkpt lat="43.6307838" lon="11.4143231"><ele>508.5</ele><time>2026-04-18T12:04:58.698Z</time></trkpt><trkpt lat="43.6307581" lon="11.4144804"><ele>507.25</ele><time>2026-04-18T12:05:00.698Z</time></trkpt><trkpt lat="43.6307616" lon="11.4146503"><ele>506.0</ele><time>2026-04-18T12:05:02.698Z</time></trkpt><trkpt lat="43.6307807" lon="11.4147792"><ele>502.20000000000005</ele><time>2026-04-18T12:05:04.698Z</time></trkpt><trkpt lat="43.6308108" lon="11.4149205"><ele>498.40000000000003</ele><time>2026-04-18T12:05:07.698Z</time></trkpt><trkpt lat="43.6307999" lon="11.4150823"><ele>494.6</ele><time>2026-04-18T12:05:09.698Z</time></trkpt><trkpt lat="43.6307861" lon="11.415214"><ele>490.8</ele><time>2026-04-18T12:05:11.698Z</time></trkpt><trkpt lat="43.6307816" lon="11.4153385"><ele>487.0</ele><time>2026-04-18T12:05:13.698Z</time></trkpt><trkpt lat="43.6307507" lon="11.4154754"><ele>483.50000000000006</ele><time>2026-04-18T12:05:15.698Z</time></trkpt><trkpt lat="43.6307028" lon="11.4155659"><ele>480.0</ele><time>2026-04-18T12:05:17.699Z</time></trkpt><trkpt lat="43.6306434" lon="11.4156164"><ele>476.5</ele><time>2026-04-18T12:05:18.698Z</time></trkpt><trkpt lat="43.6305782" lon="11.4156508"><ele>473.0</ele><time>2026-04-18T12:05:19.698Z</time></trkpt><trkpt lat="43.630502" lon="11.4156787"><ele>469.50000000000006</ele><time>2026-04-18T12:05:20.699Z</time></trkpt><trkpt lat="43.6304329" lon="11.4157116"><ele>466.0</ele><time>2026-04-18T12:05:21.698Z</time></trkpt><trkpt lat="43.6303354" lon="11.4157758"><ele>465.0</ele><time>2026-04-18T12:05:23.698Z</time></trkpt><trkpt lat="43.6302455" lon="11.415839"><ele>464.0</ele><time>2026-04-18T12:05:25.698Z</time></trkpt><trkpt lat="43.6301797" lon="11.4159238"><ele>463.0</ele><time>2026-04-18T12:05:27.698Z</time></trkpt><trkpt lat="43.6300858" lon="11.4159596"><ele>462.0</ele><time>2026-04-18T12:05:29.698Z</time></trkpt><trkpt lat="43.629978" lon="11.4159194"><ele>461.0</ele><time>2026-04-18T12:05:31.698Z</time></trkpt><trkpt lat="43.6298747" lon="11.4158251"><ele>461.0</ele><time>2026-04-18T12:05:33.698Z</time></trkpt><trkpt lat="43.6297799" lon="11.4157407"><ele>461.0</ele><time>2026-04-18T12:05:35.698Z</time></trkpt><trkpt lat="43.6296856" lon="11.4157492"><ele>461.0</ele><time>2026-04-18T12:05:37.699Z</time></trkpt><trkpt lat="43.6296551" lon="11.415901"><ele>461.0</ele><time>2026-04-18T12:05:39.698Z</time></trkpt><trkpt lat="43.6296466" lon="11.4160129"><ele>461.0</ele><time>2026-04-18T12:05:40.699Z</time></trkpt><trkpt lat="43.6296198" lon="11.416107"><ele>461.0</ele><time>2026-04-18T12:05:41.698Z</time></trkpt><trkpt lat="43.6295833" lon="11.4162001"><ele>461.0</ele><time>2026-04-18T12:05:42.698Z</time></trkpt><trkpt lat="43.6295021" lon="11.4163173"><ele>461.0</ele><time>2026-04-18T12:05:44.698Z</time></trkpt><trkpt lat="43.6293913" lon="11.4163863"><ele>461.0</ele><time>2026-04-18T12:05:46.698Z</time></trkpt><trkpt lat="43.629335" lon="11.4164291"><ele>461.0</ele><time>2026-04-18T12:05:47.698Z</time></trkpt><trkpt lat="43.6292397" lon="11.4164685"><ele>460.3333333333333</ele><time>2026-04-18T12:05:49.698Z</time></trkpt><trkpt lat="43.6291613" lon="11.416519"><ele>459.66666666666663</ele><time>2026-04-18T12:05:51.698Z</time></trkpt><trkpt lat="43.6290988" lon="11.4165892"><ele>459.0</ele><time>2026-04-18T12:05:53.698Z</time></trkpt><trkpt lat="43.6291495" lon="11.4166782"><ele>458.33333333333337</ele><time>2026-04-18T12:05:55.698Z</time></trkpt><trkpt lat="43.6292136" lon="11.4167166"><ele>457.6666666666667</ele><time>2026-04-18T12:05:56.698Z</time></trkpt><trkpt lat="43.6292729" lon="11.4167736"><ele>457.0</ele><time>2026-04-18T12:05:57.698Z</time></trkpt><trkpt lat="43.6293324" lon="11.4168401"><ele>457.0</ele><time>2026-04-18T12:05:58.699Z</time></trkpt><trkpt lat="43.6293703" lon="11.4169152"><ele>457.00000000000006</ele><time>2026-04-18T12:05:59.698Z</time></trkpt><trkpt lat="43.629387" lon="11.4170717"><ele>457.00000000000006</ele><time>2026-04-18T12:06:01.698Z</time></trkpt><trkpt lat="43.6293635" lon="11.4172404"><ele>457.0</ele><time>2026-04-18T12:06:03.699Z</time></trkpt><trkpt lat="43.6293337" lon="11.4173272"><ele>457.0</ele><time>2026-04-18T12:06:04.698Z</time></trkpt><trkpt lat="43.6292904" lon="11.4174211"><ele>456.6666666666667</ele><time>2026-04-18T12:06:05.699Z</time></trkpt><trkpt lat="43.6292559" lon="11.4175004"><ele>456.33333333333337</ele><time>2026-04-18T12:06:06.699Z</time></trkpt><trkpt lat="43.6292196" lon="11.4175747"><ele>456.0</ele><time>2026-04-18T12:06:07.699Z</time></trkpt><trkpt lat="43.6291775" lon="11.4176545"><ele>455.66666666666663</ele><time>2026-04-18T12:06:08.699Z</time></trkpt><trkpt lat="43.629123" lon="11.4177671"><ele>455.3333333333333</ele><time>2026-04-18T12:06:09.698Z</time></trkpt><trkpt lat="43.6290593" lon="11.4178801"><ele>455.0</ele><time>2026-04-18T12:06:10.698Z</time></trkpt><trkpt lat="43.6289796" lon="11.4179935"><ele>451.6</ele><time>2026-04-18T12:06:11.699Z</time></trkpt><trkpt lat="43.6289006" lon="11.4181171"><ele>448.2</ele><time>2026-04-18T12:06:12.698Z</time></trkpt><trkpt lat="43.6288416" lon="11.4182312"><ele>444.79999999999995</ele><time>2026-04-18T12:06:13.699Z</time></trkpt><trkpt lat="43.6287874" lon="11.4183198"><ele>441.4</ele><time>2026-04-18T12:06:14.698Z</time></trkpt><trkpt lat="43.6287313" lon="11.4184121"><ele>438.0</ele><time>2026-04-18T12:06:15.698Z</time></trkpt><trkpt lat="43.628671" lon="11.4185057"><ele>439.4</ele><time>2026-04-18T12:06:16.698Z</time></trkpt><trkpt lat="43.6286136" lon="11.4186002"><ele>440.79999999999995</ele><time>2026-04-18T12:06:17.698Z</time></trkpt><trkpt lat="43.6285669" lon="11.4187194"><ele>442.2</ele><time>2026-04-18T12:06:18.698Z</time></trkpt><trkpt lat="43.628516" lon="11.4188444"><ele>443.6</ele><time>2026-04-18T12:06:19.698Z</time></trkpt><trkpt lat="43.6284595" lon="11.4189533"><ele>445.0</ele><time>2026-04-18T12:06:20.699Z</time></trkpt><trkpt lat="43.6284036" lon="11.4190479"><ele>445.00000000000006</ele><time>2026-04-18T12:06:21.698Z</time></trkpt><trkpt lat="43.6283437" lon="11.4191261"><ele>445.0</ele><time>2026-04-18T12:06:22.698Z</time></trkpt><trkpt lat="43.6282843" lon="11.4191796"><ele>445.0</ele><time>2026-04-18T12:06:23.698Z</time></trkpt><trkpt lat="43.6282256" lon="11.4192215"><ele>445.0</ele><time>2026-04-18T12:06:24.698Z</time></trkpt><trkpt lat="43.6281163" lon="11.4192306"><ele>445.00000000000006</ele><time>2026-04-18T12:06:26.699Z</time></trkpt><trkpt lat="43.6280416" lon="11.4192753"><ele>445.0</ele><time>2026-04-18T12:06:28.698Z</time></trkpt><trkpt lat="43.6280101" lon="11.4193709"><ele>445.00000000000006</ele><time>2026-04-18T12:06:30.698Z</time></trkpt><trkpt lat="43.6280121" lon="11.419483"><ele>445.0</ele><time>2026-04-18T12:06:32.698Z</time></trkpt><trkpt lat="43.6280178" lon="11.4196374"><ele>445.0</ele><time>2026-04-18T12:06:34.699Z</time></trkpt><trkpt lat="43.6280234" lon="11.4197376"><ele>445.0</ele><time>2026-04-18T12:06:35.698Z</time></trkpt><trkpt lat="43.6280202" lon="11.4198439"><ele>445.00000000000006</ele><time>2026-04-18T12:06:36.698Z</time></trkpt><trkpt lat="43.6280178" lon="11.4199714"><ele>445.0</ele><time>2026-04-18T12:06:37.698Z</time></trkpt><trkpt lat="43.6280239" lon="11.420097"><ele>443.1666666666667</ele><time>2026-04-18T12:06:38.699Z</time></trkpt><trkpt lat="43.6280241" lon="11.4202278"><ele>441.33333333333337</ele><time>2026-04-18T12:06:39.698Z</time></trkpt><trkpt lat="43.6280264" lon="11.4203344"><ele>439.5</ele><time>2026-04-18T12:06:40.698Z</time></trkpt><trkpt lat="43.6280252" lon="11.4204317"><ele>437.66666666666663</ele><time>2026-04-18T12:06:41.698Z</time></trkpt><trkpt lat="43.6280287" lon="11.4205202"><ele>435.8333333333333</ele><time>2026-04-18T12:06:42.698Z</time></trkpt><trkpt lat="43.6280381" lon="11.4206955"><ele>434.0</ele><time>2026-04-18T12:06:44.698Z</time></trkpt><trkpt lat="43.6280838" lon="11.4208441"><ele>432.8333333333333</ele><time>2026-04-18T12:06:46.698Z</time></trkpt><trkpt lat="43.6282036" lon="11.420899"><ele>431.66666666666663</ele><time>2026-04-18T12:06:48.698Z</time></trkpt><trkpt lat="43.628271" lon="11.4208977"><ele>430.5</ele><time>2026-04-18T12:06:49.695Z</time></trkpt><trkpt lat="43.6283353" lon="11.4208736"><ele>429.33333333333337</ele><time>2026-04-18T12:06:50.698Z</time></trkpt><trkpt lat="43.6284008" lon="11.4208414"><ele>428.1666666666667</ele><time>2026-04-18T12:06:51.698Z</time></trkpt><trkpt lat="43.6284712" lon="11.4207902"><ele>427.0</ele><time>2026-04-18T12:06:52.698Z</time></trkpt><trkpt lat="43.6285358" lon="11.4207426"><ele>427.00000000000006</ele><time>2026-04-18T12:06:53.699Z</time></trkpt><trkpt lat="43.6286029" lon="11.4206962"><ele>427.0</ele><time>2026-04-18T12:06:54.698Z</time></trkpt><trkpt lat="43.6286647" lon="11.4206479"><ele>427.0</ele><time>2026-04-18T12:06:55.698Z</time></trkpt><trkpt lat="43.6287229" lon="11.4206101"><ele>427.0</ele><time>2026-04-18T12:06:56.698Z</time></trkpt><trkpt lat="43.6288319" lon="11.4206338"><ele>427.00000000000006</ele><time>2026-04-18T12:06:58.698Z</time></trkpt><trkpt lat="43.6288904" lon="11.4206755"><ele>427.0</ele><time>2026-04-18T12:06:59.698Z</time></trkpt><trkpt lat="43.62894" lon="11.4207617"><ele>424.2857142857143</ele><time>2026-04-18T12:07:00.699Z</time></trkpt><trkpt lat="43.6289793" lon="11.4208507"><ele>421.57142857142856</ele><time>2026-04-18T12:07:01.699Z</time></trkpt><trkpt lat="43.6290212" lon="11.4209358"><ele>418.8571428571429</ele><time>2026-04-18T12:07:02.698Z</time></trkpt><trkpt lat="43.6290402" lon="11.4210209"><ele>416.1428571428571</ele><time>2026-04-18T12:07:03.698Z</time></trkpt><trkpt lat="43.6290373" lon="11.4211272"><ele>413.42857142857144</ele><time>2026-04-18T12:07:04.698Z</time></trkpt><trkpt lat="43.6290127" lon="11.4212273"><ele>410.7142857142857</ele><time>2026-04-18T12:07:05.698Z</time></trkpt><trkpt lat="43.6289722" lon="11.421308"><ele>408.0</ele><time>2026-04-18T12:07:06.699Z</time></trkpt><trkpt lat="43.6289146" lon="11.4213633"><ele>409.0</ele><time>2026-04-18T12:07:07.699Z</time></trkpt><trkpt lat="43.628849" lon="11.42139"><ele>410.0</ele><time>2026-04-18T12:07:08.698Z</time></trkpt><trkpt lat="43.6287684" lon="11.4214106"><ele>411.0</ele><time>2026-04-18T12:07:09.699Z</time></trkpt><trkpt lat="43.6286943" lon="11.4214294"><ele>412.0</ele><time>2026-04-18T12:07:10.699Z</time></trkpt><trkpt lat="43.6286294" lon="11.4214663"><ele>413.0</ele><time>2026-04-18T12:07:11.698Z</time></trkpt><trkpt lat="43.6285724" lon="11.42151"><ele>414.0</ele><time>2026-04-18T12:07:12.698Z</time></trkpt><trkpt lat="43.6285168" lon="11.4215589"><ele>415.0</ele><time>2026-04-18T12:07:13.699Z</time></trkpt><trkpt lat="43.628465" lon="11.42161"><ele>415.0</ele><time>2026-04-18T12:07:14.699Z</time></trkpt><trkpt lat="43.6284409" lon="11.4217781"><ele>415.0</ele><time>2026-04-18T12:07:16.698Z</time></trkpt><trkpt lat="43.6284675" lon="11.42188"><ele>415.0</ele><time>2026-04-18T12:07:17.699Z</time></trkpt><trkpt lat="43.6285048" lon="11.4220013"><ele>415.0</ele><time>2026-04-18T12:07:18.698Z</time></trkpt><trkpt lat="43.6285369" lon="11.4221133"><ele>415.0</ele><time>2026-04-18T12:07:19.698Z</time></trkpt><trkpt lat="43.6285715" lon="11.4221935"><ele>414.33333333333337</ele><time>2026-04-18T12:07:20.698Z</time></trkpt><trkpt lat="43.6286025" lon="11.4222754"><ele>413.6666666666667</ele><time>2026-04-18T12:07:21.698Z</time></trkpt><trkpt lat="43.6286295" lon="11.422432"><ele>413.0</ele><time>2026-04-18T12:07:23.699Z</time></trkpt><trkpt lat="43.6286828" lon="11.4225282"><ele>412.33333333333337</ele><time>2026-04-18T12:07:25.699Z</time></trkpt><trkpt lat="43.6287469" lon="11.4226163"><ele>411.6666666666667</ele><time>2026-04-18T12:07:27.698Z</time></trkpt><trkpt lat="43.628783" lon="11.4226882"><ele>411.0</ele><time>2026-04-18T12:07:29.698Z</time></trkpt><trkpt lat="43.6288274" lon="11.4227577"><ele>407.0</ele><time>2026-04-18T12:07:31.699Z</time></trkpt><trkpt lat="43.6288721" lon="11.4228276"><ele>403.0</ele><time>2026-04-18T12:07:33.699Z</time></trkpt><trkpt lat="43.6288683" lon="11.422957"><ele>399.0</ele><time>2026-04-18T12:07:35.698Z</time></trkpt><trkpt lat="43.6288466" lon="11.4230758"><ele>395.0</ele><time>2026-04-18T12:07:36.698Z</time></trkpt><trkpt lat="43.6288081" lon="11.4231879"><ele>391.0</ele><time>2026-04-18T12:07:37.698Z</time></trkpt><trkpt lat="43.6287721" lon="11.4233087"><ele>387.0</ele><time>2026-04-18T12:07:38.698Z</time></trkpt><trkpt lat="43.6287276" lon="11.4234547"><ele>386.25</ele><time>2026-04-18T12:07:39.698Z</time></trkpt><trkpt lat="43.6286801" lon="11.4236056"><ele>385.5</ele><time>2026-04-18T12:07:40.698Z</time></trkpt><trkpt lat="43.6286331" lon="11.4237532"><ele>384.75</ele><time>2026-04-18T12:07:41.698Z</time></trkpt><trkpt lat="43.6285893" lon="11.423885"><ele>384.0</ele><time>2026-04-18T12:07:42.699Z</time></trkpt><trkpt lat="43.6285419" lon="11.4240299"><ele>382.79999999999995</ele><time>2026-04-18T12:07:43.698Z</time></trkpt><trkpt lat="43.6284941" lon="11.4241656"><ele>381.59999999999997</ele><time>2026-04-18T12:07:44.698Z</time></trkpt><trkpt lat="43.6284488" lon="11.4243088"><ele>380.4</ele><time>2026-04-18T12:07:45.698Z</time></trkpt><trkpt lat="43.6284052" lon="11.4244343"><ele>379.2</ele><time>2026-04-18T12:07:46.699Z</time></trkpt><trkpt lat="43.6283558" lon="11.424553"><ele>378.0</ele><time>2026-04-18T12:07:47.698Z</time></trkpt><trkpt lat="43.6282843" lon="11.4246644"><ele>378.0</ele><time>2026-04-18T12:07:48.699Z</time></trkpt><trkpt lat="43.6281919" lon="11.4248015"><ele>378.0</ele><time>2026-04-18T12:07:49.698Z</time></trkpt><trkpt lat="43.6280959" lon="11.4249245"><ele>378.0</ele><time>2026-04-18T12:07:50.698Z</time></trkpt><trkpt lat="43.6279917" lon="11.4250612"><ele>378.0</ele><time>2026-04-18T12:07:51.698Z</time></trkpt><trkpt lat="43.6278993" lon="11.425198"><ele>378.0</ele><time>2026-04-18T12:07:52.698Z</time></trkpt><trkpt lat="43.6278125" lon="11.425315"><ele>378.0</ele><time>2026-04-18T12:07:53.699Z</time></trkpt><trkpt lat="43.6277304" lon="11.4254356"><ele>378.0</ele><time>2026-04-18T12:07:54.698Z</time></trkpt><trkpt lat="43.6276481" lon="11.4255579"><ele>378.0</ele><time>2026-04-18T12:07:55.698Z</time></trkpt><trkpt lat="43.6275635" lon="11.425678"><ele>376.59999999999997</ele><time>2026-04-18T12:07:56.698Z</time></trkpt><trkpt lat="43.6274818" lon="11.4257939"><ele>375.2</ele><time>2026-04-18T12:07:57.698Z</time></trkpt><trkpt lat="43.6274145" lon="11.4259087"><ele>373.8</ele><time>2026-04-18T12:07:58.698Z</time></trkpt><trkpt lat="43.6273588" lon="11.4260382"><ele>372.4</ele><time>2026-04-18T12:07:59.698Z</time></trkpt><trkpt lat="43.6273204" lon="11.4261829"><ele>371.0</ele><time>2026-04-18T12:08:00.698Z</time></trkpt><trkpt lat="43.6272976" lon="11.4263464"><ele>368.0</ele><time>2026-04-18T12:08:01.698Z</time></trkpt><trkpt lat="43.6272865" lon="11.4265127"><ele>365.0</ele><time>2026-04-18T12:08:02.698Z</time></trkpt><trkpt lat="43.6272728" lon="11.4266699"><ele>362.0</ele><time>2026-04-18T12:08:03.699Z</time></trkpt><trkpt lat="43.6272605" lon="11.4268323"><ele>359.0</ele><time>2026-04-18T12:08:04.699Z</time></trkpt><trkpt lat="43.6272445" lon="11.4269792"><ele>359.0</ele><time>2026-04-18T12:08:05.699Z</time></trkpt><trkpt lat="43.6272244" lon="11.4271248"><ele>359.0</ele><time>2026-04-18T12:08:06.698Z</time></trkpt><trkpt lat="43.6272031" lon="11.4272736"><ele>359.0</ele><time>2026-04-18T12:08:07.698Z</time></trkpt><trkpt lat="43.6271694" lon="11.4274151"><ele>359.0</ele><time>2026-04-18T12:08:08.699Z</time></trkpt><trkpt lat="43.6271227" lon="11.4275348"><ele>359.0</ele><time>2026-04-18T12:08:09.698Z</time></trkpt><trkpt lat="43.6270568" lon="11.4276604"><ele>359.25</ele><time>2026-04-18T12:08:10.698Z</time></trkpt><trkpt lat="43.6269739" lon="11.4277981"><ele>359.5</ele><time>2026-04-18T12:08:11.698Z</time></trkpt><trkpt lat="43.626887" lon="11.427932"><ele>359.75</ele><time>2026-04-18T12:08:12.698Z</time></trkpt><trkpt lat="43.6268032" lon="11.4280526"><ele>360.0</ele><time>2026-04-18T12:08:13.698Z</time></trkpt><trkpt lat="43.6267233" lon="11.4281668"><ele>358.8333333333333</ele><time>2026-04-18T12:08:14.698Z</time></trkpt><trkpt lat="43.6266555" lon="11.4282771"><ele>357.6666666666667</ele><time>2026-04-18T12:08:15.698Z</time></trkpt><trkpt lat="43.6266043" lon="11.4283723"><ele>356.5</ele><time>2026-04-18T12:08:16.698Z</time></trkpt><trkpt lat="43.6265828" lon="11.4284787"><ele>355.33333333333337</ele><time>2026-04-18T12:08:17.698Z</time></trkpt><trkpt lat="43.6265929" lon="11.4285921"><ele>354.1666666666667</ele><time>2026-04-18T12:08:18.698Z</time></trkpt><trkpt lat="43.6266204" lon="11.4286983"><ele>353.0</ele><time>2026-04-18T12:08:19.698Z</time></trkpt><trkpt lat="43.6266518" lon="11.4287977"><ele>352.0</ele><time>2026-04-18T12:08:20.699Z</time></trkpt><trkpt lat="43.6266577" lon="11.4288973"><ele>351.0</ele><time>2026-04-18T12:08:21.698Z</time></trkpt><trkpt lat="43.6266369" lon="11.429023"><ele>350.0</ele><time>2026-04-18T12:08:22.698Z</time></trkpt><trkpt lat="43.6265876" lon="11.4291673"><ele>349.0</ele><time>2026-04-18T12:08:23.699Z</time></trkpt><trkpt lat="43.626536" lon="11.429305"><ele>348.0</ele><time>2026-04-18T12:08:24.699Z</time></trkpt><trkpt lat="43.6264831" lon="11.4294409"><ele>348.0</ele><time>2026-04-18T12:08:25.698Z</time></trkpt><trkpt lat="43.6264339" lon="11.4295925"><ele>348.0</ele><time>2026-04-18T12:08:26.699Z</time></trkpt><trkpt lat="43.6263929" lon="11.4297379"><ele>348.0</ele><time>2026-04-18T12:08:27.698Z</time></trkpt><trkpt lat="43.6263542" lon="11.4298689"><ele>348.0</ele><time>2026-04-18T12:08:28.698Z</time></trkpt><trkpt lat="43.6263126" lon="11.4299746"><ele>348.0</ele><time>2026-04-18T12:08:29.699Z</time></trkpt><trkpt lat="43.6262653" lon="11.4300512"><ele>348.25</ele><time>2026-04-18T12:08:30.699Z</time></trkpt><trkpt lat="43.6261616" lon="11.430159"><ele>348.5</ele><time>2026-04-18T12:08:32.698Z</time></trkpt><trkpt lat="43.6260614" lon="11.4301756"><ele>348.75</ele><time>2026-04-18T12:08:33.698Z</time></trkpt><trkpt lat="43.6259442" lon="11.4301906"><ele>349.0</ele><time>2026-04-18T12:08:34.698Z</time></trkpt><trkpt lat="43.6258162" lon="11.4302194"><ele>349.0</ele><time>2026-04-18T12:08:35.698Z</time></trkpt><trkpt lat="43.6256892" lon="11.4302481"><ele>349.0</ele><time>2026-04-18T12:08:36.699Z</time></trkpt><trkpt lat="43.6255621" lon="11.4302822"><ele>349.0</ele><time>2026-04-18T12:08:37.698Z</time></trkpt><trkpt lat="43.62545" lon="11.4303242"><ele>349.0</ele><time>2026-04-18T12:08:38.698Z</time></trkpt><trkpt lat="43.6253499" lon="11.4304003"><ele>345.5</ele><time>2026-04-18T12:08:39.698Z</time></trkpt><trkpt lat="43.6252469" lon="11.4305115"><ele>342.0</ele><time>2026-04-18T12:08:40.698Z</time></trkpt><trkpt lat="43.6251502" lon="11.4306189"><ele>338.5</ele><time>2026-04-18T12:08:41.698Z</time></trkpt><trkpt lat="43.6250575" lon="11.4307172"><ele>335.0</ele><time>2026-04-18T12:08:42.698Z</time></trkpt><trkpt lat="43.6249782" lon="11.4308085"><ele>335.0</ele><time>2026-04-18T12:08:43.699Z</time></trkpt><trkpt lat="43.6248995" lon="11.4308799"><ele>335.0</ele><time>2026-04-18T12:08:44.698Z</time></trkpt><trkpt lat="43.6248099" lon="11.4309416"><ele>335.0</ele><time>2026-04-18T12:08:45.698Z</time></trkpt><trkpt lat="43.6247103" lon="11.4309933"><ele>335.0</ele><time>2026-04-18T12:08:46.698Z</time></trkpt><trkpt lat="43.6246036" lon="11.4310507"><ele>335.0</ele><time>2026-04-18T12:08:47.698Z</time></trkpt><trkpt lat="43.6245001" lon="11.4311209"><ele>334.75</ele><time>2026-04-18T12:08:48.699Z</time></trkpt><trkpt lat="43.6244056" lon="11.4311976"><ele>334.5</ele><time>2026-04-18T12:08:49.698Z</time></trkpt><trkpt lat="43.6243076" lon="11.4312788"><ele>334.25</ele><time>2026-04-18T12:08:50.698Z</time></trkpt><trkpt lat="43.6242108" lon="11.4313602"><ele>334.0</ele><time>2026-04-18T12:08:51.698Z</time></trkpt><trkpt lat="43.6241125" lon="11.4314441"><ele>333.79999999999995</ele><time>2026-04-18T12:08:52.698Z</time></trkpt><trkpt lat="43.6240172" lon="11.431513"><ele>333.59999999999997</ele><time>2026-04-18T12:08:53.698Z</time></trkpt><trkpt lat="43.6239177" lon="11.4315814"><ele>333.4</ele><time>2026-04-18T12:08:54.698Z</time></trkpt><trkpt lat="43.6238163" lon="11.4316487"><ele>333.2</ele><time>2026-04-18T12:08:55.698Z</time></trkpt><trkpt lat="43.6237174" lon="11.4317151"><ele>333.0</ele><time>2026-04-18T12:08:56.698Z</time></trkpt><trkpt lat="43.6236127" lon="11.4317627"><ele>333.0</ele><time>2026-04-18T12:08:57.698Z</time></trkpt><trkpt lat="43.6235088" lon="11.4318124"><ele>333.0</ele><time>2026-04-18T12:08:58.693Z</time></trkpt><trkpt lat="43.6234144" lon="11.4318676"><ele>333.0</ele><time>2026-04-18T12:08:59.698Z</time></trkpt><trkpt lat="43.6233354" lon="11.4319377"><ele>333.0</ele><time>2026-04-18T12:09:00.698Z</time></trkpt><trkpt lat="43.6232676" lon="11.4320497"><ele>333.0</ele><time>2026-04-18T12:09:01.698Z</time></trkpt><trkpt lat="43.6232186" lon="11.4321843"><ele>331.3333333333333</ele><time>2026-04-18T12:09:02.698Z</time></trkpt><trkpt lat="43.6231883" lon="11.4323109"><ele>329.6666666666667</ele><time>2026-04-18T12:09:03.699Z</time></trkpt><trkpt lat="43.6231644" lon="11.4324374"><ele>328.0</ele><time>2026-04-18T12:09:04.698Z</time></trkpt><trkpt lat="43.6231488" lon="11.4325571"><ele>326.33333333333337</ele><time>2026-04-18T12:09:05.698Z</time></trkpt><trkpt lat="43.6231408" lon="11.4326659"><ele>324.6666666666667</ele><time>2026-04-18T12:09:06.699Z</time></trkpt><trkpt lat="43.6231241" lon="11.4327533"><ele>323.0</ele><time>2026-04-18T12:09:07.699Z</time></trkpt><trkpt lat="43.6230757" lon="11.4328111"><ele>323.0</ele><time>2026-04-18T12:09:08.698Z</time></trkpt><trkpt lat="43.6229814" lon="11.4328184"><ele>323.0</ele><time>2026-04-18T12:09:09.698Z</time></trkpt><trkpt lat="43.6228829" lon="11.4328417"><ele>323.0</ele><time>2026-04-18T12:09:10.698Z</time></trkpt><trkpt lat="43.6228093" lon="11.4328815"><ele>323.0</ele><time>2026-04-18T12:09:11.698Z</time></trkpt><trkpt lat="43.6227449" lon="11.4329411"><ele>323.0</ele><time>2026-04-18T12:09:12.698Z</time></trkpt><trkpt lat="43.6226877" lon="11.4330383"><ele>323.0</ele><time>2026-04-18T12:09:13.699Z</time></trkpt><trkpt lat="43.6226451" lon="11.4331546"><ele>322.6666666666667</ele><time>2026-04-18T12:09:14.698Z</time></trkpt><trkpt lat="43.62261" lon="11.4332721"><ele>322.33333333333337</ele><time>2026-04-18T12:09:15.698Z</time></trkpt><trkpt lat="43.6225526" lon="11.4333657"><ele>322.0</ele><time>2026-04-18T12:09:16.699Z</time></trkpt><trkpt lat="43.6224915" lon="11.4334053"><ele>321.6666666666667</ele><time>2026-04-18T12:09:17.699Z</time></trkpt><trkpt lat="43.6224262" lon="11.4334216"><ele>321.3333333333333</ele><time>2026-04-18T12:09:18.698Z</time></trkpt><trkpt lat="43.6223614" lon="11.4334331"><ele>321.0</ele><time>2026-04-18T12:09:19.698Z</time></trkpt><trkpt lat="43.6222816" lon="11.4334499"><ele>321.0</ele><time>2026-04-18T12:09:20.698Z</time></trkpt><trkpt lat="43.6221919" lon="11.4335224"><ele>321.0</ele><time>2026-04-18T12:09:21.698Z</time></trkpt><trkpt lat="43.6221164" lon="11.4336193"><ele>321.0</ele><time>2026-04-18T12:09:22.698Z</time></trkpt><trkpt lat="43.6220447" lon="11.4337079"><ele>321.0</ele><time>2026-04-18T12:09:23.699Z</time></trkpt><trkpt lat="43.6219723" lon="11.4337655"><ele>321.0</ele><time>2026-04-18T12:09:24.698Z</time></trkpt><trkpt lat="43.6218952" lon="11.4338161"><ele>321.0</ele><time>2026-04-18T12:09:25.698Z</time></trkpt><trkpt lat="43.6218149" lon="11.4338247"><ele>321.0</ele><time>2026-04-18T12:09:26.699Z</time></trkpt><trkpt lat="43.6217276" lon="11.4338125"><ele>321.0</ele><time>2026-04-18T12:09:27.698Z</time></trkpt><trkpt lat="43.6216502" lon="11.4337606"><ele>321.0</ele><time>2026-04-18T12:09:28.698Z</time></trkpt><trkpt lat="43.6215806" lon="11.4336735"><ele>321.0</ele><time>2026-04-18T12:09:29.698Z</time></trkpt><trkpt lat="43.6215224" lon="11.433573"><ele>321.0</ele><time>2026-04-18T12:09:30.698Z</time></trkpt><trkpt lat="43.6214536" lon="11.4335005"><ele>321.0</ele><time>2026-04-18T12:09:31.698Z</time></trkpt><trkpt lat="43.6213928" lon="11.4334613"><ele>321.0</ele><time>2026-04-18T12:09:32.699Z</time></trkpt><trkpt lat="43.6213067" lon="11.4334616"><ele>321.0</ele><time>2026-04-18T12:09:33.698Z</time></trkpt><trkpt lat="43.6212218" lon="11.4335001"><ele>321.0</ele><time>2026-04-18T12:09:34.698Z</time></trkpt><trkpt lat="43.6211295" lon="11.4335509"><ele>321.0</ele><time>2026-04-18T12:09:35.698Z</time></trkpt><trkpt lat="43.6210184" lon="11.4336287"><ele>318.25</ele><time>2026-04-18T12:09:36.699Z</time></trkpt><trkpt lat="43.6208903" lon="11.4337049"><ele>315.5</ele><time>2026-04-18T12:09:37.698Z</time></trkpt><trkpt lat="43.6207637" lon="11.4337989"><ele>312.75</ele><time>2026-04-18T12:09:38.698Z</time></trkpt><trkpt lat="43.6206457" lon="11.4338972"><ele>310.0</ele><time>2026-04-18T12:09:39.698Z</time></trkpt><trkpt lat="43.6205271" lon="11.433995"><ele>306.75</ele><time>2026-04-18T12:09:40.699Z</time></trkpt><trkpt lat="43.6204074" lon="11.4340842"><ele>303.5</ele><time>2026-04-18T12:09:41.699Z</time></trkpt><trkpt lat="43.6202976" lon="11.4341782"><ele>300.25</ele><time>2026-04-18T12:09:42.698Z</time></trkpt><trkpt lat="43.6201997" lon="11.434276"><ele>297.0</ele><time>2026-04-18T12:09:43.698Z</time></trkpt><trkpt lat="43.6201161" lon="11.4343819"><ele>296.2</ele><time>2026-04-18T12:09:44.698Z</time></trkpt><trkpt lat="43.620051" lon="11.4345159"><ele>295.4</ele><time>2026-04-18T12:09:45.698Z</time></trkpt><trkpt lat="43.6200023" lon="11.4346654"><ele>294.6</ele><time>2026-04-18T12:09:46.698Z</time></trkpt><trkpt lat="43.619958" lon="11.4347904"><ele>293.8</ele><time>2026-04-18T12:09:47.699Z</time></trkpt><trkpt lat="43.6199206" lon="11.4349146"><ele>293.0</ele><time>2026-04-18T12:09:48.698Z</time></trkpt><trkpt lat="43.6198778" lon="11.4350428"><ele>292.0</ele><time>2026-04-18T12:09:49.698Z</time></trkpt><trkpt lat="43.6198532" lon="11.4351706"><ele>291.0</ele><time>2026-04-18T12:09:50.698Z</time></trkpt><trkpt lat="43.6198176" lon="11.4352515"><ele>290.0</ele><time>2026-04-18T12:09:51.698Z</time></trkpt><trkpt lat="43.6197738" lon="11.4353457"><ele>289.0</ele><time>2026-04-18T12:09:53.699Z</time></trkpt><trkpt lat="43.6196701" lon="11.4353445"><ele>288.0</ele><time>2026-04-18T12:09:56.698Z</time></trkpt><trkpt lat="43.6196252" lon="11.4352406"><ele>287.0</ele><time>2026-04-18T12:09:57.698Z</time></trkpt><trkpt lat="43.61958" lon="11.4351265"><ele>287.0</ele><time>2026-04-18T12:09:58.698Z</time></trkpt><trkpt lat="43.6195086" lon="11.4350231"><ele>287.0</ele><time>2026-04-18T12:09:59.699Z</time></trkpt><trkpt lat="43.6194088" lon="11.4349257"><ele>287.0</ele><time>2026-04-18T12:10:00.699Z</time></trkpt><trkpt lat="43.619308" lon="11.434878"><ele>287.0</ele><time>2026-04-18T12:10:01.698Z</time></trkpt><trkpt lat="43.6191855" lon="11.4348807"><ele>285.5</ele><time>2026-04-18T12:10:02.699Z</time></trkpt><trkpt lat="43.6190615" lon="11.434924"><ele>284.0</ele><time>2026-04-18T12:10:03.698Z</time></trkpt><trkpt lat="43.6189368" lon="11.434993"><ele>282.5</ele><time>2026-04-18T12:10:04.699Z</time></trkpt><trkpt lat="43.6188201" lon="11.4350711"><ele>281.0</ele><time>2026-04-18T12:10:05.698Z</time></trkpt><trkpt lat="43.6186976" lon="11.4351637"><ele>279.5</ele><time>2026-04-18T12:10:06.698Z</time></trkpt><trkpt lat="43.618566" lon="11.4352515"><ele>278.0</ele><time>2026-04-18T12:10:07.699Z</time></trkpt><trkpt lat="43.6184305" lon="11.4353375"><ele>276.5</ele><time>2026-04-18T12:10:08.698Z</time></trkpt><trkpt lat="43.6183023" lon="11.4354274"><ele>275.0</ele><time>2026-04-18T12:10:09.698Z</time></trkpt><trkpt lat="43.6181733" lon="11.4355242"><ele>274.0</ele><time>2026-04-18T12:10:10.698Z</time></trkpt><trkpt lat="43.6180468" lon="11.4356157"><ele>273.0</ele><time>2026-04-18T12:10:11.698Z</time></trkpt><trkpt lat="43.617929" lon="11.4357069"><ele>272.0</ele><time>2026-04-18T12:10:12.698Z</time></trkpt><trkpt lat="43.6178177" lon="11.4358214"><ele>271.0</ele><time>2026-04-18T12:10:13.698Z</time></trkpt><trkpt lat="43.617731" lon="11.4359748"><ele>269.25</ele><time>2026-04-18T12:10:14.699Z</time></trkpt><trkpt lat="43.6176518" lon="11.4361459"><ele>267.5</ele><time>2026-04-18T12:10:15.699Z</time></trkpt><trkpt lat="43.6175679" lon="11.4362994"><ele>265.75</ele><time>2026-04-18T12:10:16.699Z</time></trkpt><trkpt lat="43.6174689" lon="11.4364287"><ele>264.0</ele><time>2026-04-18T12:10:17.698Z</time></trkpt><trkpt lat="43.6173523" lon="11.4365308"><ele>263.5</ele><time>2026-04-18T12:10:18.699Z</time></trkpt><trkpt lat="43.6172203" lon="11.4365894"><ele>263.0</ele><time>2026-04-18T12:10:19.699Z</time></trkpt><trkpt lat="43.6170835" lon="11.4365719"><ele>262.5</ele><time>2026-04-18T12:10:20.698Z</time></trkpt><trkpt lat="43.6169322" lon="11.4365294"><ele>262.0</ele><time>2026-04-18T12:10:21.698Z</time></trkpt><trkpt lat="43.6167805" lon="11.4364485"><ele>262.0</ele><time>2026-04-18T12:10:22.698Z</time></trkpt><trkpt lat="43.6166234" lon="11.4363719"><ele>262.0</ele><time>2026-04-18T12:10:23.699Z</time></trkpt><trkpt lat="43.6164662" lon="11.4362984"><ele>262.0</ele><time>2026-04-18T12:10:24.699Z</time></trkpt><trkpt lat="43.6163073" lon="11.4362214"><ele>262.0</ele><time>2026-04-18T12:10:25.698Z</time></trkpt><trkpt lat="43.6161545" lon="11.4361458"><ele>262.0</ele><time>2026-04-18T12:10:26.698Z</time></trkpt><trkpt lat="43.6160017" lon="11.4360685"><ele>262.0</ele><time>2026-04-18T12:10:27.698Z</time></trkpt><trkpt lat="43.6158504" lon="11.4359934"><ele>263.0</ele><time>2026-04-18T12:10:28.698Z</time></trkpt><trkpt lat="43.6157133" lon="11.4359208"><ele>264.0</ele><time>2026-04-18T12:10:29.698Z</time></trkpt><trkpt lat="43.6155812" lon="11.4358535"><ele>265.0</ele><time>2026-04-18T12:10:30.698Z</time></trkpt><trkpt lat="43.6154431" lon="11.4358093"><ele>266.0</ele><time>2026-04-18T12:10:31.699Z</time></trkpt><trkpt lat="43.6153012" lon="11.4358043"><ele>267.25</ele><time>2026-04-18T12:10:32.698Z</time></trkpt><trkpt lat="43.615172" lon="11.4358035"><ele>268.5</ele><time>2026-04-18T12:10:33.698Z</time></trkpt><trkpt lat="43.6150497" lon="11.4357978"><ele>269.75</ele><time>2026-04-18T12:10:34.698Z</time></trkpt><trkpt lat="43.6149472" lon="11.4357122"><ele>271.0</ele><time>2026-04-18T12:10:35.698Z</time></trkpt><trkpt lat="43.614856" lon="11.4355775"><ele>273.0</ele><time>2026-04-18T12:10:36.698Z</time></trkpt><trkpt lat="43.6147605" lon="11.4354326"><ele>275.0</ele><time>2026-04-18T12:10:37.698Z</time></trkpt><trkpt lat="43.6146719" lon="11.435281"><ele>277.0</ele><time>2026-04-18T12:10:38.698Z</time></trkpt><trkpt lat="43.6145757" lon="11.4351311"><ele>279.0</ele><time>2026-04-18T12:10:39.699Z</time></trkpt><trkpt lat="43.6144671" lon="11.4349774"><ele>279.0</ele><time>2026-04-18T12:10:40.698Z</time></trkpt><trkpt lat="43.6143371" lon="11.4348588"><ele>279.0</ele><time>2026-04-18T12:10:41.698Z</time></trkpt><trkpt lat="43.6141674" lon="11.434777"><ele>279.0</ele><time>2026-04-18T12:10:42.698Z</time></trkpt><trkpt lat="43.6139969" lon="11.434691"><ele>279.3333333333333</ele><time>2026-04-18T12:10:43.698Z</time></trkpt><trkpt lat="43.6138411" lon="11.4346088"><ele>279.66666666666663</ele><time>2026-04-18T12:10:44.698Z</time></trkpt><trkpt lat="43.6136784" lon="11.4345326"><ele>280.0</ele><time>2026-04-18T12:10:45.699Z</time></trkpt><trkpt lat="43.6135154" lon="11.4344664"><ele>280.0</ele><time>2026-04-18T12:10:46.698Z</time></trkpt><trkpt lat="43.613358" lon="11.4344093"><ele>280.0</ele><time>2026-04-18T12:10:47.698Z</time></trkpt><trkpt lat="43.6132062" lon="11.4343462"><ele>280.0</ele><time>2026-04-18T12:10:48.698Z</time></trkpt><trkpt lat="43.6130699" lon="11.4342614"><ele>280.0</ele><time>2026-04-18T12:10:49.698Z</time></trkpt><trkpt lat="43.6129394" lon="11.4341441"><ele>280.0</ele><time>2026-04-18T12:10:50.698Z</time></trkpt><trkpt lat="43.6127964" lon="11.4340377"><ele>280.0</ele><time>2026-04-18T12:10:51.698Z</time></trkpt><trkpt lat="43.6126589" lon="11.4339187"><ele>281.66666666666663</ele><time>2026-04-18T12:10:52.698Z</time></trkpt><trkpt lat="43.6125162" lon="11.4337861"><ele>283.3333333333333</ele><time>2026-04-18T12:10:53.698Z</time></trkpt><trkpt lat="43.612378" lon="11.4336362"><ele>285.0</ele><time>2026-04-18T12:10:54.698Z</time></trkpt><trkpt lat="43.6122342" lon="11.433502"><ele>285.0</ele><time>2026-04-18T12:10:55.698Z</time></trkpt><trkpt lat="43.612082" lon="11.4333673"><ele>285.0</ele><time>2026-04-18T12:10:56.698Z</time></trkpt><trkpt lat="43.6119272" lon="11.4332358"><ele>285.0</ele><time>2026-04-18T12:10:57.698Z</time></trkpt><trkpt lat="43.6117691" lon="11.4330898"><ele>282.3333333333333</ele><time>2026-04-18T12:10:58.698Z</time></trkpt><trkpt lat="43.6116186" lon="11.4329454"><ele>279.66666666666663</ele><time>2026-04-18T12:10:59.698Z</time></trkpt><trkpt lat="43.6114682" lon="11.4327942"><ele>277.0</ele><time>2026-04-18T12:11:00.699Z</time></trkpt><trkpt lat="43.6113173" lon="11.4326413"><ele>277.0</ele><time>2026-04-18T12:11:01.698Z</time></trkpt><trkpt lat="43.6111611" lon="11.4324925"><ele>277.0</ele><time>2026-04-18T12:11:02.698Z</time></trkpt><trkpt lat="43.6110026" lon="11.4323268"><ele>277.0</ele><time>2026-04-18T12:11:03.699Z</time></trkpt><trkpt lat="43.6108485" lon="11.4321689"><ele>277.3333333333333</ele><time>2026-04-18T12:11:04.698Z</time></trkpt><trkpt lat="43.610693" lon="11.4320184"><ele>277.6666666666667</ele><time>2026-04-18T12:11:05.698Z</time></trkpt><trkpt lat="43.6105432" lon="11.4318746"><ele>278.0</ele><time>2026-04-18T12:11:06.699Z</time></trkpt><trkpt lat="43.6104014" lon="11.4317399"><ele>279.0</ele><time>2026-04-18T12:11:07.698Z</time></trkpt><trkpt lat="43.610271" lon="11.4316108"><ele>280.0</ele><time>2026-04-18T12:11:08.698Z</time></trkpt><trkpt lat="43.6101547" lon="11.4314836"><ele>281.0</ele><time>2026-04-18T12:11:09.699Z</time></trkpt><trkpt lat="43.6100491" lon="11.4313636"><ele>282.0</ele><time>2026-04-18T12:11:10.697Z</time></trkpt><trkpt lat="43.6099554" lon="11.4312159"><ele>282.0</ele><time>2026-04-18T12:11:11.699Z</time></trkpt><trkpt lat="43.6098745" lon="11.4310473"><ele>282.0</ele><time>2026-04-18T12:11:12.698Z</time></trkpt><trkpt lat="43.6098051" lon="11.4308903"><ele>282.0</ele><time>2026-04-18T12:11:13.699Z</time></trkpt><trkpt lat="43.609764" lon="11.4307483"><ele>282.0</ele><time>2026-04-18T12:11:14.699Z</time></trkpt><trkpt lat="43.6097485" lon="11.4305863"><ele>281.75</ele><time>2026-04-18T12:11:15.698Z</time></trkpt><trkpt lat="43.6097601" lon="11.430406"><ele>281.5</ele><time>2026-04-18T12:11:16.698Z</time></trkpt><trkpt lat="43.6097865" lon="11.4302116"><ele>281.25</ele><time>2026-04-18T12:11:17.698Z</time></trkpt><trkpt lat="43.6098175" lon="11.4300035"><ele>281.0</ele><time>2026-04-18T12:11:18.699Z</time></trkpt><trkpt lat="43.6098411" lon="11.4298072"><ele>281.25</ele><time>2026-04-18T12:11:19.699Z</time></trkpt><trkpt lat="43.609871" lon="11.4296053"><ele>281.5</ele><time>2026-04-18T12:11:20.698Z</time></trkpt><trkpt lat="43.6099054" lon="11.429407"><ele>281.75</ele><time>2026-04-18T12:11:21.699Z</time></trkpt><trkpt lat="43.6099389" lon="11.4292144"><ele>282.0</ele><time>2026-04-18T12:11:22.699Z</time></trkpt><trkpt lat="43.6099714" lon="11.4290466"><ele>282.0</ele><time>2026-04-18T12:11:23.698Z</time></trkpt><trkpt lat="43.6099919" lon="11.4288791"><ele>282.0</ele><time>2026-04-18T12:11:24.698Z</time></trkpt><trkpt lat="43.6100161" lon="11.4287323"><ele>282.0</ele><time>2026-04-18T12:11:25.697Z</time></trkpt><trkpt lat="43.6100405" lon="11.428592"><ele>282.0</ele><time>2026-04-18T12:11:26.698Z</time></trkpt><trkpt lat="43.61006" lon="11.4284619"><ele>282.0</ele><time>2026-04-18T12:11:27.699Z</time></trkpt><trkpt lat="43.6100528" lon="11.428352"><ele>282.6</ele><time>2026-04-18T12:11:28.696Z</time></trkpt><trkpt lat="43.6099946" lon="11.4282626"><ele>283.2</ele><time>2026-04-18T12:11:29.698Z</time></trkpt><trkpt lat="43.609905" lon="11.4281889"><ele>283.8</ele><time>2026-04-18T12:11:30.699Z</time></trkpt><trkpt lat="43.6097859" lon="11.4281416"><ele>284.4</ele><time>2026-04-18T12:11:31.698Z</time></trkpt><trkpt lat="43.6096584" lon="11.428118"><ele>285.0</ele><time>2026-04-18T12:11:32.698Z</time></trkpt><trkpt lat="43.6095249" lon="11.428084"><ele>284.0</ele><time>2026-04-18T12:11:33.699Z</time></trkpt><trkpt lat="43.6093918" lon="11.4280506"><ele>283.0</ele><time>2026-04-18T12:11:34.698Z</time></trkpt><trkpt lat="43.6092554" lon="11.4280211"><ele>282.0</ele><time>2026-04-18T12:11:35.698Z</time></trkpt><trkpt lat="43.6091111" lon="11.4279873"><ele>281.0</ele><time>2026-04-18T12:11:36.698Z</time></trkpt><trkpt lat="43.6089588" lon="11.4279445"><ele>281.0</ele><time>2026-04-18T12:11:37.699Z</time></trkpt><trkpt lat="43.6088032" lon="11.4278999"><ele>281.0</ele><time>2026-04-18T12:11:38.698Z</time></trkpt><trkpt lat="43.6086476" lon="11.4278591"><ele>281.0</ele><time>2026-04-18T12:11:39.698Z</time></trkpt><trkpt lat="43.6084874" lon="11.427813"><ele>279.6666666666667</ele><time>2026-04-18T12:11:40.698Z</time></trkpt><trkpt lat="43.6083304" lon="11.4277696"><ele>278.3333333333333</ele><time>2026-04-18T12:11:41.699Z</time></trkpt><trkpt lat="43.6081789" lon="11.4277269"><ele>277.0</ele><time>2026-04-18T12:11:42.699Z</time></trkpt><trkpt lat="43.6080397" lon="11.4276868"><ele>277.0</ele><time>2026-04-18T12:11:43.698Z</time></trkpt><trkpt lat="43.6079078" lon="11.427649"><ele>277.0</ele><time>2026-04-18T12:11:44.698Z</time></trkpt><trkpt lat="43.6077833" lon="11.4276112"><ele>277.0</ele><time>2026-04-18T12:11:45.698Z</time></trkpt><trkpt lat="43.6076788" lon="11.4275931"><ele>277.0</ele><time>2026-04-18T12:11:46.698Z</time></trkpt><trkpt lat="43.6075765" lon="11.4275979"><ele>276.5</ele><time>2026-04-18T12:11:47.698Z</time></trkpt><trkpt lat="43.6074742" lon="11.4276461"><ele>276.0</ele><time>2026-04-18T12:11:48.698Z</time></trkpt><trkpt lat="43.607361" lon="11.4277197"><ele>275.5</ele><time>2026-04-18T12:11:49.699Z</time></trkpt><trkpt lat="43.6072641" lon="11.4278052"><ele>275.0</ele><time>2026-04-18T12:11:50.699Z</time></trkpt><trkpt lat="43.6071697" lon="11.427888"><ele>275.0</ele><time>2026-04-18T12:11:51.698Z</time></trkpt><trkpt lat="43.6070805" lon="11.4279603"><ele>275.0</ele><time>2026-04-18T12:11:52.699Z</time></trkpt><trkpt lat="43.6070116" lon="11.4280215"><ele>275.0</ele><time>2026-04-18T12:11:53.698Z</time></trkpt><trkpt lat="43.6069446" lon="11.4280723"><ele>275.0</ele><time>2026-04-18T12:11:55.698Z</time></trkpt><trkpt lat="43.6068812" lon="11.4279436"><ele>275.0</ele><time>2026-04-18T12:11:58.699Z</time></trkpt><trkpt lat="43.6068848" lon="11.427809"><ele>273.25</ele><time>2026-04-18T12:11:59.698Z</time></trkpt><trkpt lat="43.6068847" lon="11.4276631"><ele>271.5</ele><time>2026-04-18T12:12:00.698Z</time></trkpt><trkpt lat="43.6068707" lon="11.4275005"><ele>269.75</ele><time>2026-04-18T12:12:01.698Z</time></trkpt><trkpt lat="43.6068573" lon="11.4273206"><ele>268.0</ele><time>2026-04-18T12:12:02.699Z</time></trkpt><trkpt lat="43.6068418" lon="11.4271071"><ele>267.66666666666663</ele><time>2026-04-18T12:12:03.699Z</time></trkpt><trkpt lat="43.6068253" lon="11.4268717"><ele>267.3333333333333</ele><time>2026-04-18T12:12:04.698Z</time></trkpt><trkpt lat="43.6068041" lon="11.4266344"><ele>267.0</ele><time>2026-04-18T12:12:05.698Z</time></trkpt><trkpt lat="43.6067676" lon="11.4263906"><ele>267.0</ele><time>2026-04-18T12:12:06.698Z</time></trkpt><trkpt lat="43.6067044" lon="11.426152"><ele>267.0</ele><time>2026-04-18T12:12:07.698Z</time></trkpt><trkpt lat="43.6066305" lon="11.4259232"><ele>267.0</ele><time>2026-04-18T12:12:08.698Z</time></trkpt><trkpt lat="43.6065228" lon="11.4256993"><ele>267.0</ele><time>2026-04-18T12:12:09.698Z</time></trkpt><trkpt lat="43.606413" lon="11.4254863"><ele>267.0</ele><time>2026-04-18T12:12:10.698Z</time></trkpt><trkpt lat="43.6063054" lon="11.4252648"><ele>267.0</ele><time>2026-04-18T12:12:11.698Z</time></trkpt><trkpt lat="43.6061907" lon="11.4250358"><ele>267.0</ele><time>2026-04-18T12:12:12.698Z</time></trkpt><trkpt lat="43.6060838" lon="11.4248107"><ele>267.0</ele><time>2026-04-18T12:12:13.698Z</time></trkpt><trkpt lat="43.6059774" lon="11.4245816"><ele>267.0</ele><time>2026-04-18T12:12:14.699Z</time></trkpt><trkpt lat="43.6058694" lon="11.4243464"><ele>265.0</ele><time>2026-04-18T12:12:15.698Z</time></trkpt><trkpt lat="43.6057665" lon="11.424116"><ele>263.0</ele><time>2026-04-18T12:12:16.698Z</time></trkpt><trkpt lat="43.6056505" lon="11.4238884"><ele>261.0</ele><time>2026-04-18T12:12:17.698Z</time></trkpt><trkpt lat="43.6055212" lon="11.4236699"><ele>260.6666666666667</ele><time>2026-04-18T12:12:18.698Z</time></trkpt><trkpt lat="43.605386" lon="11.4234676"><ele>260.33333333333337</ele><time>2026-04-18T12:12:19.698Z</time></trkpt><trkpt lat="43.6052715" lon="11.4232561"><ele>260.0</ele><time>2026-04-18T12:12:20.694Z</time></trkpt><trkpt lat="43.6051796" lon="11.4230192"><ele>262.33333333333337</ele><time>2026-04-18T12:12:21.699Z</time></trkpt><trkpt lat="43.6050965" lon="11.4227695"><ele>264.6666666666667</ele><time>2026-04-18T12:12:22.698Z</time></trkpt><trkpt lat="43.6050148" lon="11.4225225"><ele>267.0</ele><time>2026-04-18T12:12:23.698Z</time></trkpt><trkpt lat="43.6049398" lon="11.4222764"><ele>267.6666666666667</ele><time>2026-04-18T12:12:24.698Z</time></trkpt><trkpt lat="43.6048996" lon="11.422035"><ele>268.33333333333337</ele><time>2026-04-18T12:12:25.698Z</time></trkpt><trkpt lat="43.6048665" lon="11.421791"><ele>269.0</ele><time>2026-04-18T12:12:26.699Z</time></trkpt><trkpt lat="43.604841" lon="11.4215472"><ele>269.0</ele><time>2026-04-18T12:12:27.698Z</time></trkpt><trkpt lat="43.6047951" lon="11.421322"><ele>269.0</ele><time>2026-04-18T12:12:28.698Z</time></trkpt><trkpt lat="43.6047233" lon="11.4211046"><ele>269.0</ele><time>2026-04-18T12:12:29.698Z</time></trkpt><trkpt lat="43.6046364" lon="11.4208911"><ele>268.6666666666667</ele><time>2026-04-18T12:12:30.698Z</time></trkpt><trkpt lat="43.6045412" lon="11.4206792"><ele>268.3333333333333</ele><time>2026-04-18T12:12:31.698Z</time></trkpt><trkpt lat="43.604455" lon="11.4204803"><ele>268.0</ele><time>2026-04-18T12:12:32.698Z</time></trkpt><trkpt lat="43.6043755" lon="11.420277"><ele>273.3333333333333</ele><time>2026-04-18T12:12:33.698Z</time></trkpt><trkpt lat="43.6043173" lon="11.4200683"><ele>278.6666666666667</ele><time>2026-04-18T12:12:34.698Z</time></trkpt><trkpt lat="43.6042645" lon="11.4198414"><ele>284.0</ele><time>2026-04-18T12:12:35.699Z</time></trkpt><trkpt lat="43.6042227" lon="11.4196131"><ele>284.33333333333337</ele><time>2026-04-18T12:12:36.698Z</time></trkpt><trkpt lat="43.6041922" lon="11.4193714"><ele>284.6666666666667</ele><time>2026-04-18T12:12:37.698Z</time></trkpt><trkpt lat="43.60416" lon="11.4191304"><ele>285.0</ele><time>2026-04-18T12:12:38.698Z</time></trkpt><trkpt lat="43.6041265" lon="11.4188932"><ele>286.3333333333333</ele><time>2026-04-18T12:12:39.698Z</time></trkpt><trkpt lat="43.6040846" lon="11.4186627"><ele>287.66666666666663</ele><time>2026-04-18T12:12:40.698Z</time></trkpt><trkpt lat="43.6040416" lon="11.4184372"><ele>289.0</ele><time>2026-04-18T12:12:41.699Z</time></trkpt><trkpt lat="43.6039985" lon="11.4182178"><ele>289.0</ele><time>2026-04-18T12:12:42.698Z</time></trkpt><trkpt lat="43.6039485" lon="11.4180105"><ele>289.0</ele><time>2026-04-18T12:12:43.698Z</time></trkpt><trkpt lat="43.6038702" lon="11.4178165"><ele>289.0</ele><time>2026-04-18T12:12:44.699Z</time></trkpt><trkpt lat="43.6037762" lon="11.4176635"><ele>291.25</ele><time>2026-04-18T12:12:45.698Z</time></trkpt><trkpt lat="43.6036583" lon="11.4175389"><ele>293.5</ele><time>2026-04-18T12:12:46.698Z</time></trkpt><trkpt lat="43.6035267" lon="11.4174538"><ele>295.75</ele><time>2026-04-18T12:12:47.699Z</time></trkpt><trkpt lat="43.6033843" lon="11.4173983"><ele>298.0</ele><time>2026-04-18T12:12:48.698Z</time></trkpt><trkpt lat="43.603232" lon="11.4173657"><ele>298.0</ele><time>2026-04-18T12:12:49.698Z</time></trkpt><trkpt lat="43.6030786" lon="11.4173745"><ele>298.0</ele><time>2026-04-18T12:12:50.696Z</time></trkpt><trkpt lat="43.6029165" lon="11.4173857"><ele>298.0</ele><time>2026-04-18T12:12:51.699Z</time></trkpt><trkpt lat="43.602758" lon="11.4173956"><ele>299.5</ele><time>2026-04-18T12:12:52.699Z</time></trkpt><trkpt lat="43.6026079" lon="11.4174036"><ele>301.0</ele><time>2026-04-18T12:12:53.699Z</time></trkpt><trkpt lat="43.6024773" lon="11.4174022"><ele>302.5</ele><time>2026-04-18T12:12:54.698Z</time></trkpt><trkpt lat="43.6023626" lon="11.417403"><ele>304.0</ele><time>2026-04-18T12:12:55.699Z</time></trkpt><trkpt lat="43.6022713" lon="11.4173964"><ele>304.0</ele><time>2026-04-18T12:12:56.693Z</time></trkpt><trkpt lat="43.6022036" lon="11.4174125"><ele>304.0</ele><time>2026-04-18T12:12:57.698Z</time></trkpt><trkpt lat="43.602123" lon="11.417442"><ele>304.0</ele><time>2026-04-18T12:12:59.698Z</time></trkpt><trkpt lat="43.6020586" lon="11.4176281"><ele>304.0</ele><time>2026-04-18T12:13:01.699Z</time></trkpt><trkpt lat="43.6020154" lon="11.4177766"><ele>304.0</ele><time>2026-04-18T12:13:02.698Z</time></trkpt><trkpt lat="43.601955" lon="11.4179232"><ele>304.25</ele><time>2026-04-18T12:13:03.698Z</time></trkpt><trkpt lat="43.6018925" lon="11.4180691"><ele>304.5</ele><time>2026-04-18T12:13:04.698Z</time></trkpt><trkpt lat="43.601813" lon="11.4182053"><ele>304.75</ele><time>2026-04-18T12:13:05.698Z</time></trkpt><trkpt lat="43.601728" lon="11.4183406"><ele>305.0</ele><time>2026-04-18T12:13:06.698Z</time></trkpt><trkpt lat="43.6016475" lon="11.4184697"><ele>305.0</ele><time>2026-04-18T12:13:07.698Z</time></trkpt><trkpt lat="43.6015668" lon="11.4186003"><ele>305.0</ele><time>2026-04-18T12:13:08.699Z</time></trkpt><trkpt lat="43.6014925" lon="11.4187416"><ele>305.0</ele><time>2026-04-18T12:13:09.698Z</time></trkpt><trkpt lat="43.6014286" lon="11.4188838"><ele>305.0</ele><time>2026-04-18T12:13:10.699Z</time></trkpt><trkpt lat="43.6013705" lon="11.4190168"><ele>305.33333333333337</ele><time>2026-04-18T12:13:11.698Z</time></trkpt><trkpt lat="43.6013217" lon="11.4191486"><ele>305.6666666666667</ele><time>2026-04-18T12:13:12.699Z</time></trkpt><trkpt lat="43.6012789" lon="11.4192763"><ele>306.0</ele><time>2026-04-18T12:13:13.699Z</time></trkpt><trkpt lat="43.6012439" lon="11.4193928"><ele>306.3333333333333</ele><time>2026-04-18T12:13:14.699Z</time></trkpt><trkpt lat="43.6012229" lon="11.4194928"><ele>306.66666666666663</ele><time>2026-04-18T12:13:15.698Z</time></trkpt><trkpt lat="43.6011824" lon="11.4195594"><ele>307.0</ele><time>2026-04-18T12:13:16.698Z</time></trkpt><trkpt lat="43.6011123" lon="11.419592"><ele>306.0</ele><time>2026-04-18T12:13:17.698Z</time></trkpt><trkpt lat="43.6010274" lon="11.4195885"><ele>305.0</ele><time>2026-04-18T12:13:18.699Z</time></trkpt><trkpt lat="43.6009279" lon="11.419553"><ele>304.0</ele><time>2026-04-18T12:13:19.698Z</time></trkpt><trkpt lat="43.6008458" lon="11.4195243"><ele>303.0</ele><time>2026-04-18T12:13:20.695Z</time></trkpt><trkpt lat="43.6007626" lon="11.4194993"><ele>302.0</ele><time>2026-04-18T12:13:21.698Z</time></trkpt><trkpt lat="43.6006902" lon="11.419479"><ele>301.0</ele><time>2026-04-18T12:13:22.699Z</time></trkpt><trkpt lat="43.6005719" lon="11.4194731"><ele>301.0</ele><time>2026-04-18T12:13:24.698Z</time></trkpt><trkpt lat="43.6004912" lon="11.4195998"><ele>301.0</ele><time>2026-04-18T12:13:26.699Z</time></trkpt><trkpt lat="43.600457" lon="11.4197293"><ele>301.0</ele><time>2026-04-18T12:13:27.699Z</time></trkpt><trkpt lat="43.6004161" lon="11.4198841"><ele>301.0</ele><time>2026-04-18T12:13:28.698Z</time></trkpt><trkpt lat="43.6003717" lon="11.4200399"><ele>301.0</ele><time>2026-04-18T12:13:29.699Z</time></trkpt><trkpt lat="43.6003415" lon="11.420166"><ele>301.0</ele><time>2026-04-18T12:13:30.698Z</time></trkpt><trkpt lat="43.6003166" lon="11.4202893"><ele>301.0</ele><time>2026-04-18T12:13:31.699Z</time></trkpt><trkpt lat="43.6002913" lon="11.4204048"><ele>301.0</ele><time>2026-04-18T12:13:32.698Z</time></trkpt><trkpt lat="43.6002693" lon="11.4205101"><ele>301.0</ele><time>2026-04-18T12:13:33.698Z</time></trkpt><trkpt lat="43.6002471" lon="11.4206081"><ele>301.0</ele><time>2026-04-18T12:13:34.699Z</time></trkpt><trkpt lat="43.6002269" lon="11.4206996"><ele>299.7142857142857</ele><time>2026-04-18T12:13:35.698Z</time></trkpt><trkpt lat="43.6002081" lon="11.420792"><ele>298.42857142857144</ele><time>2026-04-18T12:13:36.699Z</time></trkpt><trkpt lat="43.6001867" lon="11.4208869"><ele>297.1428571428571</ele><time>2026-04-18T12:13:37.698Z</time></trkpt><trkpt lat="43.6001625" lon="11.4209723"><ele>295.8571428571429</ele><time>2026-04-18T12:13:38.698Z</time></trkpt><trkpt lat="43.6001424" lon="11.4210637"><ele>294.57142857142856</ele><time>2026-04-18T12:13:39.698Z</time></trkpt><trkpt lat="43.6001175" lon="11.4211569"><ele>293.2857142857143</ele><time>2026-04-18T12:13:40.698Z</time></trkpt><trkpt lat="43.6000951" lon="11.4212549"><ele>292.0</ele><time>2026-04-18T12:13:41.698Z</time></trkpt><trkpt lat="43.6000717" lon="11.421357"><ele>291.8333333333333</ele><time>2026-04-18T12:13:42.698Z</time></trkpt><trkpt lat="43.6000439" lon="11.4214481"><ele>291.66666666666663</ele><time>2026-04-18T12:13:43.699Z</time></trkpt><trkpt lat="43.6000181" lon="11.4215356"><ele>291.5</ele><time>2026-04-18T12:13:44.698Z</time></trkpt><trkpt lat="43.5999947" lon="11.4216238"><ele>291.3333333333333</ele><time>2026-04-18T12:13:45.698Z</time></trkpt><trkpt lat="43.5999745" lon="11.42171"><ele>291.1666666666667</ele><time>2026-04-18T12:13:46.698Z</time></trkpt><trkpt lat="43.599953" lon="11.421793"><ele>291.0</ele><time>2026-04-18T12:13:47.698Z</time></trkpt><trkpt lat="43.599917" lon="11.4219423"><ele>291.0</ele><time>2026-04-18T12:13:49.699Z</time></trkpt><trkpt lat="43.5998901" lon="11.4220868"><ele>291.0</ele><time>2026-04-18T12:13:51.698Z</time></trkpt><trkpt lat="43.5998586" lon="11.4222348"><ele>291.0</ele><time>2026-04-18T12:13:53.698Z</time></trkpt><trkpt lat="43.5998234" lon="11.422392"><ele>291.0</ele><time>2026-04-18T12:13:55.698Z</time></trkpt><trkpt lat="43.5997983" lon="11.4224746"><ele>291.0</ele><time>2026-04-18T12:13:56.699Z</time></trkpt><trkpt lat="43.5997724" lon="11.4225592"><ele>290.6</ele><time>2026-04-18T12:13:57.699Z</time></trkpt><trkpt lat="43.599747" lon="11.4226535"><ele>290.20000000000005</ele><time>2026-04-18T12:13:58.698Z</time></trkpt><trkpt lat="43.5997141" lon="11.4227602"><ele>289.79999999999995</ele><time>2026-04-18T12:13:59.698Z</time></trkpt><trkpt lat="43.5996832" lon="11.4228816"><ele>289.4</ele><time>2026-04-18T12:14:00.698Z</time></trkpt><trkpt lat="43.5996453" lon="11.4230233"><ele>289.0</ele><time>2026-04-18T12:14:01.699Z</time></trkpt><trkpt lat="43.5996042" lon="11.4231711"><ele>288.75</ele><time>2026-04-18T12:14:02.698Z</time></trkpt><trkpt lat="43.5995633" lon="11.4233305"><ele>288.5</ele><time>2026-04-18T12:14:03.699Z</time></trkpt><trkpt lat="43.5995198" lon="11.423477"><ele>288.25</ele><time>2026-04-18T12:14:04.699Z</time></trkpt><trkpt lat="43.599474" lon="11.423616"><ele>288.0</ele><time>2026-04-18T12:14:05.698Z</time></trkpt><trkpt lat="43.5994324" lon="11.4237532"><ele>287.75</ele><time>2026-04-18T12:14:06.698Z</time></trkpt><trkpt lat="43.5994028" lon="11.4239048"><ele>287.5</ele><time>2026-04-18T12:14:07.699Z</time></trkpt><trkpt lat="43.5993919" lon="11.4240773"><ele>287.25</ele><time>2026-04-18T12:14:08.698Z</time></trkpt><trkpt lat="43.5994063" lon="11.4242844"><ele>287.0</ele><time>2026-04-18T12:14:09.698Z</time></trkpt><trkpt lat="43.5994348" lon="11.4244992"><ele>285.0</ele><time>2026-04-18T12:14:10.699Z</time></trkpt><trkpt lat="43.5994571" lon="11.4247189"><ele>283.0</ele><time>2026-04-18T12:14:11.698Z</time></trkpt><trkpt lat="43.5994751" lon="11.4249525"><ele>281.0</ele><time>2026-04-18T12:14:12.698Z</time></trkpt><trkpt lat="43.5994954" lon="11.4251917"><ele>281.0</ele><time>2026-04-18T12:14:13.698Z</time></trkpt><trkpt lat="43.5994961" lon="11.4254387"><ele>281.0</ele><time>2026-04-18T12:14:14.698Z</time></trkpt><trkpt lat="43.5994804" lon="11.425691"><ele>281.0</ele><time>2026-04-18T12:14:15.698Z</time></trkpt><trkpt lat="43.5994442" lon="11.4259391"><ele>280.6666666666667</ele><time>2026-04-18T12:14:16.699Z</time></trkpt><trkpt lat="43.5994" lon="11.4261903"><ele>280.3333333333333</ele><time>2026-04-18T12:14:17.698Z</time></trkpt><trkpt lat="43.5993512" lon="11.4264334"><ele>280.0</ele><time>2026-04-18T12:14:18.698Z</time></trkpt><trkpt lat="43.5993089" lon="11.4266852"><ele>281.3333333333333</ele><time>2026-04-18T12:14:19.698Z</time></trkpt><trkpt lat="43.5992737" lon="11.4269307"><ele>282.6666666666667</ele><time>2026-04-18T12:14:20.698Z</time></trkpt><trkpt lat="43.5992489" lon="11.4271765"><ele>284.0</ele><time>2026-04-18T12:14:21.698Z</time></trkpt><trkpt lat="43.5992449" lon="11.4274373"><ele>284.6666666666667</ele><time>2026-04-18T12:14:22.698Z</time></trkpt><trkpt lat="43.5992651" lon="11.4277046"><ele>285.3333333333333</ele><time>2026-04-18T12:14:23.699Z</time></trkpt><trkpt lat="43.5992896" lon="11.427979"><ele>286.0</ele><time>2026-04-18T12:14:24.698Z</time></trkpt><trkpt lat="43.5993056" lon="11.4282698"><ele>286.66666666666663</ele><time>2026-04-18T12:14:25.698Z</time></trkpt><trkpt lat="43.5993177" lon="11.4285502"><ele>287.3333333333333</ele><time>2026-04-18T12:14:26.698Z</time></trkpt><trkpt lat="43.5993124" lon="11.4288252"><ele>288.0</ele><time>2026-04-18T12:14:27.698Z</time></trkpt><trkpt lat="43.599278" lon="11.4290758"><ele>288.3333333333333</ele><time>2026-04-18T12:14:28.698Z</time></trkpt><trkpt lat="43.5992241" lon="11.4293252"><ele>288.66666666666663</ele><time>2026-04-18T12:14:29.699Z</time></trkpt><trkpt lat="43.5991595" lon="11.4295574"><ele>289.0</ele><time>2026-04-18T12:14:30.698Z</time></trkpt><trkpt lat="43.5990883" lon="11.4298009"><ele>289.3333333333333</ele><time>2026-04-18T12:14:31.698Z</time></trkpt><trkpt lat="43.5990221" lon="11.4300313"><ele>289.6666666666667</ele><time>2026-04-18T12:14:32.699Z</time></trkpt><trkpt lat="43.598956" lon="11.4302472"><ele>290.0</ele><time>2026-04-18T12:14:33.699Z</time></trkpt><trkpt lat="43.5988858" lon="11.4304693"><ele>289.6666666666667</ele><time>2026-04-18T12:14:34.699Z</time></trkpt><trkpt lat="43.5988146" lon="11.4307114"><ele>289.3333333333333</ele><time>2026-04-18T12:14:35.698Z</time></trkpt><trkpt lat="43.5987565" lon="11.4309644"><ele>289.0</ele><time>2026-04-18T12:14:36.698Z</time></trkpt><trkpt lat="43.5986983" lon="11.4312195"><ele>286.0</ele><time>2026-04-18T12:14:37.698Z</time></trkpt><trkpt lat="43.5986473" lon="11.4314867"><ele>283.0</ele><time>2026-04-18T12:14:38.698Z</time></trkpt><trkpt lat="43.5986081" lon="11.4317492"><ele>280.0</ele><time>2026-04-18T12:14:39.699Z</time></trkpt><trkpt lat="43.5985646" lon="11.4320266"><ele>280.0</ele><time>2026-04-18T12:14:40.698Z</time></trkpt><trkpt lat="43.59852" lon="11.4323093"><ele>280.0</ele><time>2026-04-18T12:14:41.698Z</time></trkpt><trkpt lat="43.5984611" lon="11.4325964"><ele>280.0</ele><time>2026-04-18T12:14:42.698Z</time></trkpt><trkpt lat="43.5984049" lon="11.4328743"><ele>279.66666666666663</ele><time>2026-04-18T12:14:43.698Z</time></trkpt><trkpt lat="43.5983522" lon="11.4331439"><ele>279.3333333333333</ele><time>2026-04-18T12:14:44.698Z</time></trkpt><trkpt lat="43.5982964" lon="11.4334063"><ele>279.0</ele><time>2026-04-18T12:14:45.699Z</time></trkpt><trkpt lat="43.598246" lon="11.4336609"><ele>280.0</ele><time>2026-04-18T12:14:46.698Z</time></trkpt><trkpt lat="43.5982051" lon="11.4339115"><ele>281.0</ele><time>2026-04-18T12:14:47.698Z</time></trkpt><trkpt lat="43.5981618" lon="11.4341544"><ele>282.0</ele><time>2026-04-18T12:14:48.698Z</time></trkpt><trkpt lat="43.5981163" lon="11.4343844"><ele>282.0</ele><time>2026-04-18T12:14:49.698Z</time></trkpt><trkpt lat="43.5980678" lon="11.4346151"><ele>282.0</ele><time>2026-04-18T12:14:50.699Z</time></trkpt><trkpt lat="43.5980218" lon="11.4348504"><ele>282.0</ele><time>2026-04-18T12:14:51.699Z</time></trkpt><trkpt lat="43.5979788" lon="11.4351015"><ele>282.0</ele><time>2026-04-18T12:14:52.699Z</time></trkpt><trkpt lat="43.5979391" lon="11.4353603"><ele>282.0</ele><time>2026-04-18T12:14:53.698Z</time></trkpt><trkpt lat="43.5979052" lon="11.4356256"><ele>282.0</ele><time>2026-04-18T12:14:54.699Z</time></trkpt><trkpt lat="43.5978692" lon="11.4358809"><ele>282.0</ele><time>2026-04-18T12:14:55.698Z</time></trkpt><trkpt lat="43.5978456" lon="11.4361428"><ele>282.0</ele><time>2026-04-18T12:14:56.698Z</time></trkpt><trkpt lat="43.59784" lon="11.4364128"><ele>282.0</ele><time>2026-04-18T12:14:57.698Z</time></trkpt><trkpt lat="43.5978477" lon="11.4367034"><ele>282.0</ele><time>2026-04-18T12:14:58.698Z</time></trkpt><trkpt lat="43.5978551" lon="11.4369837"><ele>282.0</ele><time>2026-04-18T12:14:59.699Z</time></trkpt><trkpt lat="43.5978553" lon="11.4372571"><ele>282.0</ele><time>2026-04-18T12:15:00.698Z</time></trkpt><trkpt lat="43.597847" lon="11.4374982"><ele>281.3333333333333</ele><time>2026-04-18T12:15:01.698Z</time></trkpt><trkpt lat="43.5978253" lon="11.4377291"><ele>280.66666666666663</ele><time>2026-04-18T12:15:02.698Z</time></trkpt><trkpt lat="43.5977976" lon="11.4379648"><ele>280.0</ele><time>2026-04-18T12:15:03.699Z</time></trkpt><trkpt lat="43.597762" lon="11.4382264"><ele>279.66666666666663</ele><time>2026-04-18T12:15:04.698Z</time></trkpt><trkpt lat="43.5977154" lon="11.4384996"><ele>279.3333333333333</ele><time>2026-04-18T12:15:05.696Z</time></trkpt><trkpt lat="43.5976748" lon="11.4387684"><ele>279.0</ele><time>2026-04-18T12:15:06.698Z</time></trkpt><trkpt lat="43.5976302" lon="11.4390266"><ele>278.3333333333333</ele><time>2026-04-18T12:15:07.698Z</time></trkpt><trkpt lat="43.5975927" lon="11.4392811"><ele>277.66666666666663</ele><time>2026-04-18T12:15:08.698Z</time></trkpt><trkpt lat="43.5975506" lon="11.4395296"><ele>277.0</ele><time>2026-04-18T12:15:09.699Z</time></trkpt><trkpt lat="43.5975164" lon="11.4397714"><ele>276.0</ele><time>2026-04-18T12:15:10.699Z</time></trkpt><trkpt lat="43.5974778" lon="11.4399989"><ele>275.0</ele><time>2026-04-18T12:15:11.698Z</time></trkpt><trkpt lat="43.5974377" lon="11.4402188"><ele>274.0</ele><time>2026-04-18T12:15:12.698Z</time></trkpt><trkpt lat="43.5974008" lon="11.4404266"><ele>274.0</ele><time>2026-04-18T12:15:13.698Z</time></trkpt><trkpt lat="43.5973706" lon="11.4406166"><ele>274.0</ele><time>2026-04-18T12:15:14.698Z</time></trkpt><trkpt lat="43.5973471" lon="11.4407993"><ele>274.0</ele><time>2026-04-18T12:15:15.698Z</time></trkpt><trkpt lat="43.5973196" lon="11.4409619"><ele>274.0</ele><time>2026-04-18T12:15:16.698Z</time></trkpt><trkpt lat="43.5972922" lon="11.4411268"><ele>274.0</ele><time>2026-04-18T12:15:17.698Z</time></trkpt><trkpt lat="43.5972669" lon="11.4412766"><ele>274.0</ele><time>2026-04-18T12:15:18.699Z</time></trkpt><trkpt lat="43.5972447" lon="11.4414214"><ele>274.0</ele><time>2026-04-18T12:15:19.699Z</time></trkpt><trkpt lat="43.5972455" lon="11.4415788"><ele>274.0</ele><time>2026-04-18T12:15:20.698Z</time></trkpt><trkpt lat="43.5972581" lon="11.4417467"><ele>274.0</ele><time>2026-04-18T12:15:21.698Z</time></trkpt><trkpt lat="43.5972901" lon="11.441928"><ele>274.0</ele><time>2026-04-18T12:15:22.698Z</time></trkpt><trkpt lat="43.5973239" lon="11.442108"><ele>274.0</ele><time>2026-04-18T12:15:23.698Z</time></trkpt><trkpt lat="43.5973527" lon="11.4422905"><ele>274.0</ele><time>2026-04-18T12:15:24.698Z</time></trkpt><trkpt lat="43.5973795" lon="11.4424707"><ele>273.5</ele><time>2026-04-18T12:15:25.698Z</time></trkpt><trkpt lat="43.5974062" lon="11.442638"><ele>273.0</ele><time>2026-04-18T12:15:26.698Z</time></trkpt><trkpt lat="43.5974264" lon="11.4427672"><ele>272.5</ele><time>2026-04-18T12:15:27.699Z</time></trkpt><trkpt lat="43.597431" lon="11.4428669"><ele>272.0</ele><time>2026-04-18T12:15:28.698Z</time></trkpt><trkpt lat="43.5974209" lon="11.4429532"><ele>271.5</ele><time>2026-04-18T12:15:29.698Z</time></trkpt><trkpt lat="43.5973807" lon="11.4430217"><ele>271.0</ele><time>2026-04-18T12:15:31.699Z</time></trkpt><trkpt lat="43.5972952" lon="11.4430965"><ele>270.16666666666663</ele><time>2026-04-18T12:15:33.698Z</time></trkpt><trkpt lat="43.5972316" lon="11.4431445"><ele>269.3333333333333</ele><time>2026-04-18T12:15:34.698Z</time></trkpt><trkpt lat="43.5971602" lon="11.4431969"><ele>268.5</ele><time>2026-04-18T12:15:35.699Z</time></trkpt><trkpt lat="43.5970932" lon="11.4432535"><ele>267.6666666666667</ele><time>2026-04-18T12:15:36.698Z</time></trkpt><trkpt lat="43.597021" lon="11.4433064"><ele>266.83333333333337</ele><time>2026-04-18T12:15:37.698Z</time></trkpt><trkpt lat="43.5969481" lon="11.4433491"><ele>266.0</ele><time>2026-04-18T12:15:38.698Z</time></trkpt><trkpt lat="43.5968705" lon="11.4433773"><ele>265.0</ele><time>2026-04-18T12:15:39.698Z</time></trkpt><trkpt lat="43.5967969" lon="11.443389"><ele>264.0</ele><time>2026-04-18T12:15:40.698Z</time></trkpt><trkpt lat="43.5967239" lon="11.4433921"><ele>263.0</ele><time>2026-04-18T12:15:41.699Z</time></trkpt><trkpt lat="43.596649" lon="11.4433609"><ele>262.0</ele><time>2026-04-18T12:15:42.699Z</time></trkpt><trkpt lat="43.5965776" lon="11.4432946"><ele>261.0</ele><time>2026-04-18T12:15:43.699Z</time></trkpt><trkpt lat="43.5965272" lon="11.4431883"><ele>260.0</ele><time>2026-04-18T12:15:44.698Z</time></trkpt><trkpt lat="43.5964704" lon="11.4430719"><ele>260.0</ele><time>2026-04-18T12:15:45.698Z</time></trkpt><trkpt lat="43.5964066" lon="11.4429844"><ele>260.0</ele><time>2026-04-18T12:15:46.698Z</time></trkpt><trkpt lat="43.5963324" lon="11.4429541"><ele>260.0</ele><time>2026-04-18T12:15:47.698Z</time></trkpt><trkpt lat="43.5962682" lon="11.4430149"><ele>260.0</ele><time>2026-04-18T12:15:48.698Z</time></trkpt><trkpt lat="43.5962176" lon="11.4431255"><ele>260.0</ele><time>2026-04-18T12:15:49.698Z</time></trkpt><trkpt lat="43.5961815" lon="11.4432542"><ele>260.0</ele><time>2026-04-18T12:15:50.699Z</time></trkpt><trkpt lat="43.5961493" lon="11.4433971"><ele>259.8</ele><time>2026-04-18T12:15:51.698Z</time></trkpt><trkpt lat="43.5961002" lon="11.4435141"><ele>259.6</ele><time>2026-04-18T12:15:52.699Z</time></trkpt><trkpt lat="43.5960181" lon="11.4436201"><ele>259.4</ele><time>2026-04-18T12:15:53.698Z</time></trkpt><trkpt lat="43.5959356" lon="11.4436982"><ele>259.2</ele><time>2026-04-18T12:15:54.698Z</time></trkpt><trkpt lat="43.5958563" lon="11.4437778"><ele>259.0</ele><time>2026-04-18T12:15:55.698Z</time></trkpt><trkpt lat="43.5957913" lon="11.4438471"><ele>259.0</ele><time>2026-04-18T12:15:56.698Z</time></trkpt><trkpt lat="43.5957424" lon="11.4439051"><ele>259.0</ele><time>2026-04-18T12:15:57.698Z</time></trkpt><trkpt lat="43.5956742" lon="11.44406"><ele>259.0</ele><time>2026-04-18T12:15:59.698Z</time></trkpt><trkpt lat="43.595653" lon="11.4441639"><ele>259.0</ele><time>2026-04-18T12:16:00.698Z</time></trkpt><trkpt lat="43.5956624" lon="11.4442804"><ele>259.0</ele><time>2026-04-18T12:16:01.698Z</time></trkpt><trkpt lat="43.5956928" lon="11.4444131"><ele>259.0</ele><time>2026-04-18T12:16:02.698Z</time></trkpt><trkpt lat="43.5957305" lon="11.4445425"><ele>259.0</ele><time>2026-04-18T12:16:03.698Z</time></trkpt><trkpt lat="43.5957433" lon="11.444671"><ele>259.0</ele><time>2026-04-18T12:16:04.698Z</time></trkpt><trkpt lat="43.5957453" lon="11.4448151"><ele>259.0</ele><time>2026-04-18T12:16:05.698Z</time></trkpt><trkpt lat="43.5957698" lon="11.4449601"><ele>259.0</ele><time>2026-04-18T12:16:06.698Z</time></trkpt><trkpt lat="43.5957975" lon="11.4450999"><ele>258.5</ele><time>2026-04-18T12:16:07.698Z</time></trkpt><trkpt lat="43.5958112" lon="11.4452414"><ele>258.0</ele><time>2026-04-18T12:16:08.699Z</time></trkpt><trkpt lat="43.5958068" lon="11.4454034"><ele>257.5</ele><time>2026-04-18T12:16:09.698Z</time></trkpt><trkpt lat="43.5957682" lon="11.4455653"><ele>257.0</ele><time>2026-04-18T12:16:10.698Z</time></trkpt><trkpt lat="43.5957055" lon="11.4457212"><ele>257.0</ele><time>2026-04-18T12:16:11.698Z</time></trkpt><trkpt lat="43.5956443" lon="11.4458746"><ele>257.0</ele><time>2026-04-18T12:16:12.698Z</time></trkpt><trkpt lat="43.5955713" lon="11.4460195"><ele>257.0</ele><time>2026-04-18T12:16:13.698Z</time></trkpt><trkpt lat="43.5955129" lon="11.4461536"><ele>257.0</ele><time>2026-04-18T12:16:14.699Z</time></trkpt><trkpt lat="43.5954591" lon="11.4462799"><ele>257.0</ele><time>2026-04-18T12:16:15.698Z</time></trkpt><trkpt lat="43.595405" lon="11.4464038"><ele>257.0</ele><time>2026-04-18T12:16:16.698Z</time></trkpt><trkpt lat="43.5953514" lon="11.4465348"><ele>257.0</ele><time>2026-04-18T12:16:17.699Z</time></trkpt><trkpt lat="43.5952965" lon="11.4466721"><ele>257.0</ele><time>2026-04-18T12:16:18.698Z</time></trkpt><trkpt lat="43.59525" lon="11.446805"><ele>257.0</ele><time>2026-04-18T12:16:19.699Z</time></trkpt><trkpt lat="43.5952069" lon="11.4469459"><ele>254.75</ele><time>2026-04-18T12:16:20.698Z</time></trkpt><trkpt lat="43.5951778" lon="11.4471026"><ele>252.5</ele><time>2026-04-18T12:16:21.699Z</time></trkpt><trkpt lat="43.5951645" lon="11.4472834"><ele>250.25</ele><time>2026-04-18T12:16:22.698Z</time></trkpt><trkpt lat="43.595153" lon="11.4474718"><ele>248.0</ele><time>2026-04-18T12:16:23.699Z</time></trkpt><trkpt lat="43.5951366" lon="11.4476685"><ele>248.0</ele><time>2026-04-18T12:16:24.698Z</time></trkpt><trkpt lat="43.5951271" lon="11.4478633"><ele>248.0</ele><time>2026-04-18T12:16:25.698Z</time></trkpt><trkpt lat="43.5951242" lon="11.4480457"><ele>248.0</ele><time>2026-04-18T12:16:26.698Z</time></trkpt><trkpt lat="43.5951307" lon="11.4481945"><ele>248.0</ele><time>2026-04-18T12:16:27.699Z</time></trkpt><trkpt lat="43.595139" lon="11.4483249"><ele>247.66666666666669</ele><time>2026-04-18T12:16:28.698Z</time></trkpt><trkpt lat="43.5951489" lon="11.4484498"><ele>247.33333333333334</ele><time>2026-04-18T12:16:29.698Z</time></trkpt><trkpt lat="43.5951667" lon="11.4485589"><ele>247.0</ele><time>2026-04-18T12:16:30.698Z</time></trkpt><trkpt lat="43.5951653" lon="11.4486663"><ele>246.66666666666669</ele><time>2026-04-18T12:16:31.698Z</time></trkpt><trkpt lat="43.5951974" lon="11.4487763"><ele>246.33333333333334</ele><time>2026-04-18T12:16:32.698Z</time></trkpt><trkpt lat="43.5952679" lon="11.4488592"><ele>246.0</ele><time>2026-04-18T12:16:33.698Z</time></trkpt><trkpt lat="43.5953284" lon="11.448921"><ele>244.66666666666666</ele><time>2026-04-18T12:16:34.699Z</time></trkpt><trkpt lat="43.5953602" lon="11.4490855"><ele>243.33333333333331</ele><time>2026-04-18T12:16:36.698Z</time></trkpt><trkpt lat="43.5953098" lon="11.4491502"><ele>242.0</ele><time>2026-04-18T12:16:37.698Z</time></trkpt><trkpt lat="43.5952365" lon="11.449209"><ele>240.66666666666666</ele><time>2026-04-18T12:16:38.699Z</time></trkpt><trkpt lat="43.595173" lon="11.4492689"><ele>239.33333333333331</ele><time>2026-04-18T12:16:39.698Z</time></trkpt><trkpt lat="43.5951343" lon="11.4493508"><ele>238.0</ele><time>2026-04-18T12:16:40.699Z</time></trkpt><trkpt lat="43.5951085" lon="11.4494889"><ele>236.4</ele><time>2026-04-18T12:16:41.698Z</time></trkpt><trkpt lat="43.5951064" lon="11.4496391"><ele>234.8</ele><time>2026-04-18T12:16:42.698Z</time></trkpt><trkpt lat="43.595103" lon="11.449804"><ele>233.2</ele><time>2026-04-18T12:16:43.699Z</time></trkpt><trkpt lat="43.5951003" lon="11.449962"><ele>231.6</ele><time>2026-04-18T12:16:44.698Z</time></trkpt><trkpt lat="43.5950937" lon="11.4501075"><ele>230.0</ele><time>2026-04-18T12:16:45.698Z</time></trkpt><trkpt lat="43.5950858" lon="11.4502241"><ele>230.00000000000003</ele><time>2026-04-18T12:16:46.698Z</time></trkpt><trkpt lat="43.5950677" lon="11.4503077"><ele>230.0</ele><time>2026-04-18T12:16:47.698Z</time></trkpt><trkpt lat="43.5949756" lon="11.4504233"><ele>230.0</ele><time>2026-04-18T12:16:49.698Z</time></trkpt><trkpt lat="43.5949041" lon="11.450449"><ele>230.0</ele><time>2026-04-18T12:16:50.698Z</time></trkpt><trkpt lat="43.5948183" lon="11.4504724"><ele>230.00000000000003</ele><time>2026-04-18T12:16:51.699Z</time></trkpt><trkpt lat="43.594741" lon="11.4504922"><ele>230.0</ele><time>2026-04-18T12:16:52.698Z</time></trkpt><trkpt lat="43.5946709" lon="11.450522"><ele>229.50000000000003</ele><time>2026-04-18T12:16:53.698Z</time></trkpt><trkpt lat="43.5946019" lon="11.4505823"><ele>229.0</ele><time>2026-04-18T12:16:54.698Z</time></trkpt><trkpt lat="43.5945445" lon="11.4506783"><ele>228.5</ele><time>2026-04-18T12:16:55.698Z</time></trkpt><trkpt lat="43.5945228" lon="11.4508158"><ele>228.0</ele><time>2026-04-18T12:16:56.698Z</time></trkpt><trkpt lat="43.5945117" lon="11.4509544"><ele>227.50000000000003</ele><time>2026-04-18T12:16:57.698Z</time></trkpt><trkpt lat="43.5945086" lon="11.4510496"><ele>227.0</ele><time>2026-04-18T12:16:58.699Z</time></trkpt><trkpt lat="43.5944923" lon="11.4511482"><ele>223.39999999999998</ele><time>2026-04-18T12:16:59.698Z</time></trkpt><trkpt lat="43.5944032" lon="11.4511726"><ele>219.79999999999998</ele><time>2026-04-18T12:17:01.698Z</time></trkpt><trkpt lat="43.5943379" lon="11.4511365"><ele>216.2</ele><time>2026-04-18T12:17:02.698Z</time></trkpt><trkpt lat="43.5942695" lon="11.4510779"><ele>212.6</ele><time>2026-04-18T12:17:03.698Z</time></trkpt><trkpt lat="43.594197" lon="11.4509662"><ele>209.0</ele><time>2026-04-18T12:17:04.699Z</time></trkpt><trkpt lat="43.5941398" lon="11.45083"><ele>209.0</ele><time>2026-04-18T12:17:05.699Z</time></trkpt><trkpt lat="43.5940967" lon="11.4506768"><ele>209.0</ele><time>2026-04-18T12:17:06.699Z</time></trkpt><trkpt lat="43.5940648" lon="11.4505291"><ele>209.0</ele><time>2026-04-18T12:17:07.698Z</time></trkpt><trkpt lat="43.5940377" lon="11.4504084"><ele>209.0</ele><time>2026-04-18T12:17:08.699Z</time></trkpt><trkpt lat="43.5940293" lon="11.4503075"><ele>209.0</ele><time>2026-04-18T12:17:09.699Z</time></trkpt><trkpt lat="43.5940194" lon="11.4502168"><ele>209.0</ele><time>2026-04-18T12:17:10.699Z</time></trkpt><trkpt lat="43.5939318" lon="11.4501616"><ele>209.0</ele><time>2026-04-18T12:17:12.698Z</time></trkpt><trkpt lat="43.5938797" lon="11.4502288"><ele>209.0</ele><time>2026-04-18T12:17:13.698Z</time></trkpt><trkpt lat="43.5938733" lon="11.4503504"><ele>209.0</ele><time>2026-04-18T12:17:14.698Z</time></trkpt><trkpt lat="43.5938849" lon="11.4505076"><ele>209.0</ele><time>2026-04-18T12:17:15.698Z</time></trkpt><trkpt lat="43.5938648" lon="11.4506551"><ele>209.0</ele><time>2026-04-18T12:17:16.698Z</time></trkpt><trkpt lat="43.5938348" lon="11.4508092"><ele>209.0</ele><time>2026-04-18T12:17:17.698Z</time></trkpt><trkpt lat="43.5938023" lon="11.4509571"><ele>209.0</ele><time>2026-04-18T12:17:18.698Z</time></trkpt><trkpt lat="43.5937659" lon="11.4510854"><ele>209.0</ele><time>2026-04-18T12:17:19.698Z</time></trkpt><trkpt lat="43.5937522" lon="11.4511809"><ele>209.0</ele><time>2026-04-18T12:17:20.698Z</time></trkpt><trkpt lat="43.5937637" lon="11.4512715"><ele>206.66666666666669</ele><time>2026-04-18T12:17:21.698Z</time></trkpt><trkpt lat="43.5937897" lon="11.4513623"><ele>204.33333333333334</ele><time>2026-04-18T12:17:23.699Z</time></trkpt><trkpt lat="43.5936858" lon="11.4513561"><ele>202.0</ele><time>2026-04-18T12:17:27.699Z</time></trkpt><trkpt lat="43.5936232" lon="11.4513077"><ele>199.66666666666669</ele><time>2026-04-18T12:17:28.699Z</time></trkpt><trkpt lat="43.5935785" lon="11.4512316"><ele>197.33333333333334</ele><time>2026-04-18T12:17:29.698Z</time></trkpt><trkpt lat="43.593512" lon="11.4511529"><ele>195.0</ele><time>2026-04-18T12:17:30.698Z</time></trkpt><trkpt lat="43.593417" lon="11.4511153"><ele>194.6</ele><time>2026-04-18T12:17:31.699Z</time></trkpt><trkpt lat="43.5933255" lon="11.451114"><ele>194.2</ele><time>2026-04-18T12:17:32.698Z</time></trkpt><trkpt lat="43.5932262" lon="11.4511378"><ele>193.8</ele><time>2026-04-18T12:17:33.698Z</time></trkpt><trkpt lat="43.5931286" lon="11.4511577"><ele>193.4</ele><time>2026-04-18T12:17:34.698Z</time></trkpt><trkpt lat="43.5930218" lon="11.4512072"><ele>193.0</ele><time>2026-04-18T12:17:35.698Z</time></trkpt><trkpt lat="43.5929173" lon="11.4512293"><ele>188.75</ele><time>2026-04-18T12:17:36.698Z</time></trkpt><trkpt lat="43.5928199" lon="11.4512096"><ele>184.5</ele><time>2026-04-18T12:17:37.698Z</time></trkpt><trkpt lat="43.592719" lon="11.4511278"><ele>180.25</ele><time>2026-04-18T12:17:38.699Z</time></trkpt><trkpt lat="43.5926359" lon="11.4509973"><ele>176.0</ele><time>2026-04-18T12:17:39.698Z</time></trkpt><trkpt lat="43.5925651" lon="11.4508619"><ele>176.0</ele><time>2026-04-18T12:17:40.698Z</time></trkpt><trkpt lat="43.5924626" lon="11.4507341"><ele>176.0</ele><time>2026-04-18T12:17:41.698Z</time></trkpt><trkpt lat="43.5923421" lon="11.4506344"><ele>176.0</ele><time>2026-04-18T12:17:42.698Z</time></trkpt><trkpt lat="43.5922117" lon="11.4505548"><ele>176.0</ele><time>2026-04-18T12:17:43.698Z</time></trkpt><trkpt lat="43.592084" lon="11.4504853"><ele>172.75</ele><time>2026-04-18T12:17:44.698Z</time></trkpt><trkpt lat="43.591967" lon="11.4504235"><ele>169.5</ele><time>2026-04-18T12:17:45.698Z</time></trkpt><trkpt lat="43.5918668" lon="11.450322"><ele>166.25</ele><time>2026-04-18T12:17:46.699Z</time></trkpt><trkpt lat="43.5918008" lon="11.450187"><ele>163.0</ele><time>2026-04-18T12:17:47.698Z</time></trkpt><trkpt lat="43.5917714" lon="11.4500292"><ele>163.0</ele><time>2026-04-18T12:17:48.699Z</time></trkpt><trkpt lat="43.5917676" lon="11.4498381"><ele>163.0</ele><time>2026-04-18T12:17:49.698Z</time></trkpt><trkpt lat="43.5917729" lon="11.4496255"><ele>163.0</ele><time>2026-04-18T12:17:50.698Z</time></trkpt><trkpt lat="43.5918001" lon="11.4494207"><ele>163.0</ele><time>2026-04-18T12:17:51.699Z</time></trkpt><trkpt lat="43.5918304" lon="11.4492165"><ele>163.0</ele><time>2026-04-18T12:17:52.699Z</time></trkpt><trkpt lat="43.5918666" lon="11.4490044"><ele>163.0</ele><time>2026-04-18T12:17:53.698Z</time></trkpt><trkpt lat="43.5919072" lon="11.4487911"><ele>163.0</ele><time>2026-04-18T12:17:54.698Z</time></trkpt><trkpt lat="43.5919422" lon="11.4485809"><ele>163.33333333333334</ele><time>2026-04-18T12:17:55.698Z</time></trkpt><trkpt lat="43.5919786" lon="11.4483636"><ele>163.66666666666666</ele><time>2026-04-18T12:17:56.699Z</time></trkpt><trkpt lat="43.5920124" lon="11.4481471"><ele>164.0</ele><time>2026-04-18T12:17:57.698Z</time></trkpt><trkpt lat="43.5920447" lon="11.4479322"><ele>168.33333333333331</ele><time>2026-04-18T12:17:58.696Z</time></trkpt><trkpt lat="43.592072" lon="11.4477165"><ele>172.66666666666666</ele><time>2026-04-18T12:17:59.698Z</time></trkpt><trkpt lat="43.5921006" lon="11.4475016"><ele>177.0</ele><time>2026-04-18T12:18:00.698Z</time></trkpt><trkpt lat="43.592114" lon="11.4472872"><ele>178.0</ele><time>2026-04-18T12:18:01.698Z</time></trkpt><trkpt lat="43.592109" lon="11.4470756"><ele>179.0</ele><time>2026-04-18T12:18:02.698Z</time></trkpt><trkpt lat="43.5920909" lon="11.4468556"><ele>180.0</ele><time>2026-04-18T12:18:03.699Z</time></trkpt><trkpt lat="43.5920703" lon="11.4466384"><ele>180.0</ele><time>2026-04-18T12:18:04.698Z</time></trkpt><trkpt lat="43.5920485" lon="11.4464156"><ele>180.0</ele><time>2026-04-18T12:18:05.699Z</time></trkpt><trkpt lat="43.5920246" lon="11.4461978"><ele>180.0</ele><time>2026-04-18T12:18:06.699Z</time></trkpt><trkpt lat="43.5919901" lon="11.4459866"><ele>178.66666666666666</ele><time>2026-04-18T12:18:07.698Z</time></trkpt><trkpt lat="43.5919518" lon="11.4457748"><ele>177.33333333333331</ele><time>2026-04-18T12:18:08.699Z</time></trkpt><trkpt lat="43.5919163" lon="11.4455559"><ele>176.0</ele><time>2026-04-18T12:18:09.699Z</time></trkpt><trkpt lat="43.5918743" lon="11.4453388"><ele>176.0</ele><time>2026-04-18T12:18:10.698Z</time></trkpt><trkpt lat="43.5918282" lon="11.4451236"><ele>176.0</ele><time>2026-04-18T12:18:11.699Z</time></trkpt><trkpt lat="43.5917875" lon="11.4449095"><ele>176.0</ele><time>2026-04-18T12:18:12.698Z</time></trkpt><trkpt lat="43.5917447" lon="11.4447098"><ele>177.0</ele><time>2026-04-18T12:18:13.698Z</time></trkpt><trkpt lat="43.5916842" lon="11.4445194"><ele>178.0</ele><time>2026-04-18T12:18:14.698Z</time></trkpt><trkpt lat="43.5916104" lon="11.4443361"><ele>179.0</ele><time>2026-04-18T12:18:15.698Z</time></trkpt><trkpt lat="43.5915202" lon="11.4441561"><ele>179.0</ele><time>2026-04-18T12:18:16.698Z</time></trkpt><trkpt lat="43.5914246" lon="11.4439868"><ele>179.0</ele><time>2026-04-18T12:18:17.698Z</time></trkpt><trkpt lat="43.5913442" lon="11.4438272"><ele>179.0</ele><time>2026-04-18T12:18:18.698Z</time></trkpt><trkpt lat="43.5912675" lon="11.4436778"><ele>179.0</ele><time>2026-04-18T12:18:19.698Z</time></trkpt><trkpt lat="43.5912005" lon="11.443537"><ele>179.6</ele><time>2026-04-18T12:18:20.699Z</time></trkpt><trkpt lat="43.591167" lon="11.4433729"><ele>180.2</ele><time>2026-04-18T12:18:21.695Z</time></trkpt><trkpt lat="43.5911466" lon="11.4432164"><ele>180.79999999999998</ele><time>2026-04-18T12:18:22.699Z</time></trkpt><trkpt lat="43.5911514" lon="11.4430762"><ele>181.39999999999998</ele><time>2026-04-18T12:18:23.699Z</time></trkpt><trkpt lat="43.5911445" lon="11.4429524"><ele>182.0</ele><time>2026-04-18T12:18:24.698Z</time></trkpt><trkpt lat="43.591117" lon="11.4428264"><ele>182.0</ele><time>2026-04-18T12:18:25.698Z</time></trkpt><trkpt lat="43.591068" lon="11.4426989"><ele>182.0</ele><time>2026-04-18T12:18:26.699Z</time></trkpt><trkpt lat="43.5909935" lon="11.4426565"><ele>182.0</ele><time>2026-04-18T12:18:27.699Z</time></trkpt><trkpt lat="43.5908815" lon="11.4426473"><ele>182.0</ele><time>2026-04-18T12:18:28.698Z</time></trkpt><trkpt lat="43.5907758" lon="11.4426226"><ele>182.0</ele><time>2026-04-18T12:18:29.698Z</time></trkpt><trkpt lat="43.5906711" lon="11.4425963"><ele>182.0</ele><time>2026-04-18T12:18:30.699Z</time></trkpt><trkpt lat="43.5905684" lon="11.4425894"><ele>182.0</ele><time>2026-04-18T12:18:31.699Z</time></trkpt><trkpt lat="43.5904731" lon="11.4425777"><ele>182.0</ele><time>2026-04-18T12:18:32.699Z</time></trkpt><trkpt lat="43.5903733" lon="11.442567"><ele>182.0</ele><time>2026-04-18T12:18:33.698Z</time></trkpt><trkpt lat="43.59027" lon="11.4425656"><ele>182.0</ele><time>2026-04-18T12:18:34.698Z</time></trkpt><trkpt lat="43.5901611" lon="11.442534"><ele>182.5</ele><time>2026-04-18T12:18:35.698Z</time></trkpt><trkpt lat="43.5900478" lon="11.4424752"><ele>183.0</ele><time>2026-04-18T12:18:36.699Z</time></trkpt><trkpt lat="43.5899403" lon="11.4423886"><ele>183.5</ele><time>2026-04-18T12:18:37.698Z</time></trkpt><trkpt lat="43.5898442" lon="11.4422768"><ele>184.0</ele><time>2026-04-18T12:18:38.699Z</time></trkpt><trkpt lat="43.5897588" lon="11.4421585"><ele>182.75</ele><time>2026-04-18T12:18:39.698Z</time></trkpt><trkpt lat="43.5896827" lon="11.4420388"><ele>181.5</ele><time>2026-04-18T12:18:40.698Z</time></trkpt><trkpt lat="43.5896217" lon="11.4418989"><ele>180.25</ele><time>2026-04-18T12:18:41.698Z</time></trkpt><trkpt lat="43.5895617" lon="11.4417517"><ele>179.0</ele><time>2026-04-18T12:18:42.698Z</time></trkpt><trkpt lat="43.5894743" lon="11.4416249"><ele>181.25</ele><time>2026-04-18T12:18:43.699Z</time></trkpt><trkpt lat="43.5893578" lon="11.4415215"><ele>183.5</ele><time>2026-04-18T12:18:44.699Z</time></trkpt><trkpt lat="43.5892438" lon="11.441422"><ele>185.75</ele><time>2026-04-18T12:18:45.698Z</time></trkpt><trkpt lat="43.5891288" lon="11.4413194"><ele>188.0</ele><time>2026-04-18T12:18:46.698Z</time></trkpt><trkpt lat="43.5890118" lon="11.4412282"><ele>188.0</ele><time>2026-04-18T12:18:47.698Z</time></trkpt><trkpt lat="43.5889111" lon="11.4411303"><ele>188.0</ele><time>2026-04-18T12:18:48.698Z</time></trkpt><trkpt lat="43.5888319" lon="11.4410015"><ele>188.0</ele><time>2026-04-18T12:18:49.698Z</time></trkpt><trkpt lat="43.5887651" lon="11.4408484"><ele>188.0</ele><time>2026-04-18T12:18:50.697Z</time></trkpt><trkpt lat="43.5887167" lon="11.4406823"><ele>188.0</ele><time>2026-04-18T12:18:51.698Z</time></trkpt><trkpt lat="43.5887068" lon="11.4405099"><ele>188.0</ele><time>2026-04-18T12:18:52.698Z</time></trkpt><trkpt lat="43.5887163" lon="11.4403358"><ele>188.0</ele><time>2026-04-18T12:18:53.697Z</time></trkpt><trkpt lat="43.588738" lon="11.4401777"><ele>188.0</ele><time>2026-04-18T12:18:54.698Z</time></trkpt><trkpt lat="43.5887619" lon="11.4400215"><ele>189.0</ele><time>2026-04-18T12:18:55.697Z</time></trkpt><trkpt lat="43.5887742" lon="11.4398653"><ele>190.0</ele><time>2026-04-18T12:18:56.697Z</time></trkpt><trkpt lat="43.5887707" lon="11.4396985"><ele>191.0</ele><time>2026-04-18T12:18:57.697Z</time></trkpt><trkpt lat="43.5887561" lon="11.4395332"><ele>192.0</ele><time>2026-04-18T12:18:58.697Z</time></trkpt><trkpt lat="43.5887362" lon="11.4393617"><ele>193.0</ele><time>2026-04-18T12:18:59.697Z</time></trkpt><trkpt lat="43.5887139" lon="11.4391857"><ele>194.0</ele><time>2026-04-18T12:19:00.696Z</time></trkpt><trkpt lat="43.5886946" lon="11.4390207"><ele>195.0</ele><time>2026-04-18T12:19:01.697Z</time></trkpt><trkpt lat="43.5886745" lon="11.4388571"><ele>196.0</ele><time>2026-04-18T12:19:02.698Z</time></trkpt><trkpt lat="43.5886534" lon="11.4386988"><ele>199.25</ele><time>2026-04-18T12:19:03.698Z</time></trkpt><trkpt lat="43.5886365" lon="11.4385434"><ele>202.5</ele><time>2026-04-18T12:19:04.698Z</time></trkpt><trkpt lat="43.5886336" lon="11.4383848"><ele>205.75</ele><time>2026-04-18T12:19:05.697Z</time></trkpt><trkpt lat="43.588636" lon="11.438227"><ele>209.0</ele><time>2026-04-18T12:19:06.697Z</time></trkpt><trkpt lat="43.5886688" lon="11.4380717"><ele>211.75</ele><time>2026-04-18T12:19:07.698Z</time></trkpt><trkpt lat="43.5887419" lon="11.4379356"><ele>214.5</ele><time>2026-04-18T12:19:08.697Z</time></trkpt><trkpt lat="43.5888322" lon="11.437836"><ele>217.25</ele><time>2026-04-18T12:19:09.698Z</time></trkpt><trkpt lat="43.5889299" lon="11.4377223"><ele>220.0</ele><time>2026-04-18T12:19:10.697Z</time></trkpt><trkpt lat="43.5890224" lon="11.4376157"><ele>220.0</ele><time>2026-04-18T12:19:11.697Z</time></trkpt><trkpt lat="43.5891143" lon="11.4375168"><ele>220.0</ele><time>2026-04-18T12:19:12.698Z</time></trkpt><trkpt lat="43.589204" lon="11.4374223"><ele>220.0</ele><time>2026-04-18T12:19:13.698Z</time></trkpt><trkpt lat="43.5892893" lon="11.4373213"><ele>220.0</ele><time>2026-04-18T12:19:14.697Z</time></trkpt><trkpt lat="43.589348" lon="11.4372084"><ele>220.0</ele><time>2026-04-18T12:19:15.697Z</time></trkpt><trkpt lat="43.5893827" lon="11.4370733"><ele>222.5</ele><time>2026-04-18T12:19:16.697Z</time></trkpt><trkpt lat="43.5893847" lon="11.4369205"><ele>225.0</ele><time>2026-04-18T12:19:17.698Z</time></trkpt><trkpt lat="43.5893928" lon="11.4367609"><ele>227.5</ele><time>2026-04-18T12:19:18.697Z</time></trkpt><trkpt lat="43.5893979" lon="11.4366016"><ele>230.0</ele><time>2026-04-18T12:19:19.697Z</time></trkpt><trkpt lat="43.589406" lon="11.436452"><ele>231.4</ele><time>2026-04-18T12:19:20.698Z</time></trkpt><trkpt lat="43.5894181" lon="11.4362892"><ele>232.8</ele><time>2026-04-18T12:19:21.698Z</time></trkpt><trkpt lat="43.5894253" lon="11.4361339"><ele>234.2</ele><time>2026-04-18T12:19:22.697Z</time></trkpt><trkpt lat="43.5894365" lon="11.4359834"><ele>235.6</ele><time>2026-04-18T12:19:23.697Z</time></trkpt><trkpt lat="43.5894436" lon="11.4358394"><ele>237.0</ele><time>2026-04-18T12:19:24.697Z</time></trkpt><trkpt lat="43.5894368" lon="11.4357011"><ele>237.0</ele><time>2026-04-18T12:19:25.698Z</time></trkpt><trkpt lat="43.5894163" lon="11.43556"><ele>237.0</ele><time>2026-04-18T12:19:26.697Z</time></trkpt><trkpt lat="43.589385" lon="11.4354216"><ele>237.0</ele><time>2026-04-18T12:19:27.697Z</time></trkpt><trkpt lat="43.5893495" lon="11.4352911"><ele>237.0</ele><time>2026-04-18T12:19:28.697Z</time></trkpt><trkpt lat="43.5893117" lon="11.4351681"><ele>237.0</ele><time>2026-04-18T12:19:29.697Z</time></trkpt><trkpt lat="43.5892772" lon="11.4350411"><ele>238.39999999999998</ele><time>2026-04-18T12:19:30.697Z</time></trkpt><trkpt lat="43.58924" lon="11.4349064"><ele>239.79999999999998</ele><time>2026-04-18T12:19:31.698Z</time></trkpt><trkpt lat="43.5892134" lon="11.4347582"><ele>241.2</ele><time>2026-04-18T12:19:32.697Z</time></trkpt><trkpt lat="43.589199" lon="11.4346167"><ele>242.6</ele><time>2026-04-18T12:19:33.698Z</time></trkpt><trkpt lat="43.5891869" lon="11.4344802"><ele>244.0</ele><time>2026-04-18T12:19:34.698Z</time></trkpt><trkpt lat="43.5891718" lon="11.4343492"><ele>244.33333333333331</ele><time>2026-04-18T12:19:35.697Z</time></trkpt><trkpt lat="43.5891541" lon="11.4342187"><ele>244.66666666666666</ele><time>2026-04-18T12:19:36.697Z</time></trkpt><trkpt lat="43.5891455" lon="11.4341009"><ele>245.0</ele><time>2026-04-18T12:19:37.697Z</time></trkpt><trkpt lat="43.5891509" lon="11.433985"><ele>245.33333333333331</ele><time>2026-04-18T12:19:38.697Z</time></trkpt><trkpt lat="43.5891687" lon="11.4338901"><ele>245.66666666666666</ele><time>2026-04-18T12:19:39.697Z</time></trkpt><trkpt lat="43.5891999" lon="11.4338038"><ele>246.0</ele><time>2026-04-18T12:19:40.697Z</time></trkpt><trkpt lat="43.5892192" lon="11.4337163"><ele>246.0</ele><time>2026-04-18T12:19:41.697Z</time></trkpt><trkpt lat="43.5891982" lon="11.4335562"><ele>246.00000000000003</ele><time>2026-04-18T12:19:43.697Z</time></trkpt><trkpt lat="43.5891525" lon="11.4334747"><ele>246.00000000000003</ele><time>2026-04-18T12:19:44.697Z</time></trkpt><trkpt lat="43.5890868" lon="11.4334046"><ele>246.0</ele><time>2026-04-18T12:19:45.697Z</time></trkpt><trkpt lat="43.5890003" lon="11.4333626"><ele>246.0</ele><time>2026-04-18T12:19:46.698Z</time></trkpt><trkpt lat="43.5889151" lon="11.4333859"><ele>246.0</ele><time>2026-04-18T12:19:47.697Z</time></trkpt><trkpt lat="43.5888181" lon="11.4334306"><ele>246.0</ele><time>2026-04-18T12:19:48.697Z</time></trkpt><trkpt lat="43.588709" lon="11.4334937"><ele>246.0</ele><time>2026-04-18T12:19:49.698Z</time></trkpt><trkpt lat="43.5885922" lon="11.4335527"><ele>246.0</ele><time>2026-04-18T12:19:50.697Z</time></trkpt><trkpt lat="43.5884635" lon="11.433599"><ele>247.4</ele><time>2026-04-18T12:19:51.697Z</time></trkpt><trkpt lat="43.5883467" lon="11.4336659"><ele>248.8</ele><time>2026-04-18T12:19:52.697Z</time></trkpt><trkpt lat="43.5882452" lon="11.4337439"><ele>250.20000000000002</ele><time>2026-04-18T12:19:53.697Z</time></trkpt><trkpt lat="43.5881404" lon="11.4338063"><ele>251.60000000000002</ele><time>2026-04-18T12:19:54.697Z</time></trkpt><trkpt lat="43.5880524" lon="11.4338382"><ele>253.0</ele><time>2026-04-18T12:19:55.698Z</time></trkpt><trkpt lat="43.5879549" lon="11.4338118"><ele>253.0</ele><time>2026-04-18T12:19:56.698Z</time></trkpt><trkpt lat="43.5878485" lon="11.4337923"><ele>253.0</ele><time>2026-04-18T12:19:57.697Z</time></trkpt><trkpt lat="43.5877354" lon="11.4337912"><ele>253.0</ele><time>2026-04-18T12:19:58.697Z</time></trkpt><trkpt lat="43.5876139" lon="11.4338441"><ele>253.0</ele><time>2026-04-18T12:19:59.698Z</time></trkpt><trkpt lat="43.5875027" lon="11.4339482"><ele>247.0</ele><time>2026-04-18T12:20:00.697Z</time></trkpt><trkpt lat="43.5873636" lon="11.4340547"><ele>241.0</ele><time>2026-04-18T12:20:01.697Z</time></trkpt><trkpt lat="43.58722" lon="11.4341537"><ele>235.0</ele><time>2026-04-18T12:20:02.697Z</time></trkpt><trkpt lat="43.5870926" lon="11.4342508"><ele>238.33333333333331</ele><time>2026-04-18T12:20:03.697Z</time></trkpt><trkpt lat="43.586956" lon="11.4343703"><ele>241.66666666666669</ele><time>2026-04-18T12:20:04.697Z</time></trkpt><trkpt lat="43.5868255" lon="11.4344782"><ele>245.0</ele><time>2026-04-18T12:20:05.697Z</time></trkpt><trkpt lat="43.5866856" lon="11.4345843"><ele>238.0</ele><time>2026-04-18T12:20:06.697Z</time></trkpt><trkpt lat="43.5865388" lon="11.4346816"><ele>231.0</ele><time>2026-04-18T12:20:07.697Z</time></trkpt><trkpt lat="43.5863952" lon="11.4347814"><ele>224.0</ele><time>2026-04-18T12:20:08.698Z</time></trkpt><trkpt lat="43.5862573" lon="11.434877"><ele>225.0</ele><time>2026-04-18T12:20:09.697Z</time></trkpt><trkpt lat="43.586123" lon="11.4349707"><ele>226.0</ele><time>2026-04-18T12:20:10.697Z</time></trkpt><trkpt lat="43.5859905" lon="11.4350547"><ele>227.0</ele><time>2026-04-18T12:20:11.698Z</time></trkpt><trkpt lat="43.5858515" lon="11.4351053"><ele>228.0</ele><time>2026-04-18T12:20:12.697Z</time></trkpt><trkpt lat="43.5857132" lon="11.4351497"><ele>228.0</ele><time>2026-04-18T12:20:13.697Z</time></trkpt><trkpt lat="43.5855778" lon="11.4351879"><ele>228.0</ele><time>2026-04-18T12:20:14.697Z</time></trkpt><trkpt lat="43.5854444" lon="11.4352163"><ele>228.0</ele><time>2026-04-18T12:20:15.697Z</time></trkpt><trkpt lat="43.5853283" lon="11.4352385"><ele>228.0</ele><time>2026-04-18T12:20:16.697Z</time></trkpt><trkpt lat="43.5852406" lon="11.4352653"><ele>227.75</ele><time>2026-04-18T12:20:17.697Z</time></trkpt><trkpt lat="43.5851618" lon="11.4353583"><ele>227.5</ele><time>2026-04-18T12:20:18.698Z</time></trkpt><trkpt lat="43.5851072" lon="11.4355011"><ele>227.25</ele><time>2026-04-18T12:20:19.697Z</time></trkpt><trkpt lat="43.585099" lon="11.4356743"><ele>227.0</ele><time>2026-04-18T12:20:20.697Z</time></trkpt><trkpt lat="43.5850988" lon="11.4358789"><ele>222.25</ele><time>2026-04-18T12:20:21.697Z</time></trkpt><trkpt lat="43.5851016" lon="11.4360601"><ele>217.5</ele><time>2026-04-18T12:20:22.698Z</time></trkpt><trkpt lat="43.585114" lon="11.4362401"><ele>212.75</ele><time>2026-04-18T12:20:23.697Z</time></trkpt><trkpt lat="43.58515" lon="11.4364246"><ele>208.0</ele><time>2026-04-18T12:20:24.698Z</time></trkpt><trkpt lat="43.585207" lon="11.4365859"><ele>206.25</ele><time>2026-04-18T12:20:25.698Z</time></trkpt><trkpt lat="43.5852492" lon="11.4367594"><ele>204.5</ele><time>2026-04-18T12:20:26.697Z</time></trkpt><trkpt lat="43.5852386" lon="11.4369461"><ele>202.75</ele><time>2026-04-18T12:20:27.697Z</time></trkpt><trkpt lat="43.5851785" lon="11.4371292"><ele>201.0</ele><time>2026-04-18T12:20:28.697Z</time></trkpt><trkpt lat="43.585086" lon="11.4372948"><ele>199.33333333333331</ele><time>2026-04-18T12:20:29.697Z</time></trkpt><trkpt lat="43.5849986" lon="11.437479"><ele>197.66666666666666</ele><time>2026-04-18T12:20:30.697Z</time></trkpt><trkpt lat="43.5849345" lon="11.4377012"><ele>196.0</ele><time>2026-04-18T12:20:31.697Z</time></trkpt><trkpt lat="43.5848704" lon="11.4379272"><ele>193.66666666666666</ele><time>2026-04-18T12:20:32.697Z</time></trkpt><trkpt lat="43.5848125" lon="11.4381618"><ele>191.33333333333331</ele><time>2026-04-18T12:20:33.697Z</time></trkpt><trkpt lat="43.5847553" lon="11.4384118"><ele>189.0</ele><time>2026-04-18T12:20:34.697Z</time></trkpt><trkpt lat="43.5846994" lon="11.4386671"><ele>187.0</ele><time>2026-04-18T12:20:35.698Z</time></trkpt><trkpt lat="43.5846323" lon="11.4389346"><ele>185.0</ele><time>2026-04-18T12:20:36.698Z</time></trkpt><trkpt lat="43.5845688" lon="11.4391972"><ele>183.0</ele><time>2026-04-18T12:20:37.697Z</time></trkpt><trkpt lat="43.5845005" lon="11.4394609"><ele>182.33333333333334</ele><time>2026-04-18T12:20:38.697Z</time></trkpt><trkpt lat="43.5844215" lon="11.4397247"><ele>181.66666666666669</ele><time>2026-04-18T12:20:39.697Z</time></trkpt><trkpt lat="43.5843195" lon="11.4399722"><ele>181.0</ele><time>2026-04-18T12:20:40.698Z</time></trkpt><trkpt lat="43.5841964" lon="11.4401985"><ele>181.0</ele><time>2026-04-18T12:20:41.697Z</time></trkpt><trkpt lat="43.5840522" lon="11.440405"><ele>181.0</ele><time>2026-04-18T12:20:42.698Z</time></trkpt><trkpt lat="43.5839006" lon="11.4405927"><ele>181.0</ele><time>2026-04-18T12:20:43.697Z</time></trkpt><trkpt lat="43.5837403" lon="11.4407901"><ele>180.33333333333334</ele><time>2026-04-18T12:20:44.698Z</time></trkpt><trkpt lat="43.5835768" lon="11.4409947"><ele>179.66666666666666</ele><time>2026-04-18T12:20:45.698Z</time></trkpt><trkpt lat="43.583421" lon="11.4411955"><ele>179.0</ele><time>2026-04-18T12:20:46.697Z</time></trkpt><trkpt lat="43.5832641" lon="11.4413992"><ele>179.0</ele><time>2026-04-18T12:20:47.697Z</time></trkpt><trkpt lat="43.5831039" lon="11.4415966"><ele>179.0</ele><time>2026-04-18T12:20:48.697Z</time></trkpt><trkpt lat="43.5829477" lon="11.4418084"><ele>179.0</ele><time>2026-04-18T12:20:49.697Z</time></trkpt><trkpt lat="43.582793" lon="11.4420164"><ele>178.0</ele><time>2026-04-18T12:20:50.697Z</time></trkpt><trkpt lat="43.5826336" lon="11.4422242"><ele>177.0</ele><time>2026-04-18T12:20:51.698Z</time></trkpt><trkpt lat="43.5824749" lon="11.4424266"><ele>176.0</ele><time>2026-04-18T12:20:52.698Z</time></trkpt><trkpt lat="43.5823121" lon="11.4426333"><ele>176.0</ele><time>2026-04-18T12:20:53.697Z</time></trkpt><trkpt lat="43.5821534" lon="11.4428389"><ele>176.0</ele><time>2026-04-18T12:20:54.697Z</time></trkpt><trkpt lat="43.5819964" lon="11.4430507"><ele>176.0</ele><time>2026-04-18T12:20:55.697Z</time></trkpt><trkpt lat="43.5818412" lon="11.4432496"><ele>176.0</ele><time>2026-04-18T12:20:56.697Z</time></trkpt><trkpt lat="43.5816858" lon="11.4434489"><ele>176.0</ele><time>2026-04-18T12:20:57.698Z</time></trkpt><trkpt lat="43.5815353" lon="11.4436521"><ele>176.0</ele><time>2026-04-18T12:20:58.697Z</time></trkpt><trkpt lat="43.5813899" lon="11.4438666"><ele>176.33333333333331</ele><time>2026-04-18T12:20:59.697Z</time></trkpt><trkpt lat="43.5812478" lon="11.4440877"><ele>176.66666666666666</ele><time>2026-04-18T12:21:00.697Z</time></trkpt><trkpt lat="43.5811111" lon="11.4443123"><ele>177.0</ele><time>2026-04-18T12:21:01.697Z</time></trkpt><trkpt lat="43.5809802" lon="11.4445452"><ele>175.33333333333334</ele><time>2026-04-18T12:21:02.697Z</time></trkpt><trkpt lat="43.5808487" lon="11.4447742"><ele>173.66666666666669</ele><time>2026-04-18T12:21:03.697Z</time></trkpt><trkpt lat="43.5807099" lon="11.4450025"><ele>172.0</ele><time>2026-04-18T12:21:04.697Z</time></trkpt><trkpt lat="43.5805702" lon="11.4452336"><ele>172.33333333333334</ele><time>2026-04-18T12:21:05.697Z</time></trkpt><trkpt lat="43.5804281" lon="11.4454641"><ele>172.66666666666666</ele><time>2026-04-18T12:21:06.697Z</time></trkpt><trkpt lat="43.5802958" lon="11.445707"><ele>173.0</ele><time>2026-04-18T12:21:07.698Z</time></trkpt><trkpt lat="43.5801723" lon="11.4459529"><ele>172.0</ele><time>2026-04-18T12:21:08.698Z</time></trkpt><trkpt lat="43.580062" lon="11.446209"><ele>171.0</ele><time>2026-04-18T12:21:09.697Z</time></trkpt><trkpt lat="43.5799479" lon="11.4464657"><ele>170.0</ele><time>2026-04-18T12:21:10.697Z</time></trkpt><trkpt lat="43.5798514" lon="11.4467231"><ele>170.0</ele><time>2026-04-18T12:21:11.697Z</time></trkpt><trkpt lat="43.5797602" lon="11.4469761"><ele>170.0</ele><time>2026-04-18T12:21:12.698Z</time></trkpt><trkpt lat="43.5796758" lon="11.4472354"><ele>170.0</ele><time>2026-04-18T12:21:13.698Z</time></trkpt><trkpt lat="43.5795978" lon="11.4474925"><ele>169.66666666666666</ele><time>2026-04-18T12:21:14.698Z</time></trkpt><trkpt lat="43.5795245" lon="11.4477426"><ele>169.33333333333334</ele><time>2026-04-18T12:21:15.697Z</time></trkpt><trkpt lat="43.5794506" lon="11.4479827"><ele>169.0</ele><time>2026-04-18T12:21:16.698Z</time></trkpt><trkpt lat="43.5793799" lon="11.4482035"><ele>168.66666666666669</ele><time>2026-04-18T12:21:17.697Z</time></trkpt><trkpt lat="43.5793079" lon="11.4484164"><ele>168.33333333333334</ele><time>2026-04-18T12:21:18.697Z</time></trkpt><trkpt lat="43.5792174" lon="11.4486147"><ele>168.0</ele><time>2026-04-18T12:21:19.697Z</time></trkpt><trkpt lat="43.579115" lon="11.4487983"><ele>168.0</ele><time>2026-04-18T12:21:20.697Z</time></trkpt><trkpt lat="43.5790046" lon="11.4489638"><ele>168.0</ele><time>2026-04-18T12:21:21.698Z</time></trkpt><trkpt lat="43.5788777" lon="11.4491242"><ele>168.0</ele><time>2026-04-18T12:21:22.698Z</time></trkpt><trkpt lat="43.5787528" lon="11.4492777"><ele>167.33333333333334</ele><time>2026-04-18T12:21:23.697Z</time></trkpt><trkpt lat="43.5786262" lon="11.4494149"><ele>166.66666666666669</ele><time>2026-04-18T12:21:24.698Z</time></trkpt><trkpt lat="43.5785094" lon="11.4495624"><ele>166.0</ele><time>2026-04-18T12:21:25.697Z</time></trkpt><trkpt lat="43.5783971" lon="11.4497028"><ele>166.0</ele><time>2026-04-18T12:21:26.697Z</time></trkpt><trkpt lat="43.5782985" lon="11.4498576"><ele>166.0</ele><time>2026-04-18T12:21:27.698Z</time></trkpt><trkpt lat="43.5782113" lon="11.450005"><ele>166.0</ele><time>2026-04-18T12:21:28.697Z</time></trkpt><trkpt lat="43.5781354" lon="11.4501439"><ele>166.0</ele><time>2026-04-18T12:21:29.697Z</time></trkpt><trkpt lat="43.5780685" lon="11.4502904"><ele>166.0</ele><time>2026-04-18T12:21:30.697Z</time></trkpt><trkpt lat="43.5780008" lon="11.4504386"><ele>166.0</ele><time>2026-04-18T12:21:31.697Z</time></trkpt><trkpt lat="43.5779517" lon="11.4505977"><ele>166.0</ele><time>2026-04-18T12:21:32.698Z</time></trkpt><trkpt lat="43.5779035" lon="11.4507571"><ele>166.0</ele><time>2026-04-18T12:21:33.697Z</time></trkpt><trkpt lat="43.5778603" lon="11.4509133"><ele>165.5</ele><time>2026-04-18T12:21:34.698Z</time></trkpt><trkpt lat="43.5778207" lon="11.4510736"><ele>165.0</ele><time>2026-04-18T12:21:35.697Z</time></trkpt><trkpt lat="43.5777908" lon="11.4512234"><ele>164.5</ele><time>2026-04-18T12:21:36.697Z</time></trkpt><trkpt lat="43.5777706" lon="11.451373"><ele>164.0</ele><time>2026-04-18T12:21:37.698Z</time></trkpt><trkpt lat="43.5777702" lon="11.4515341"><ele>164.0</ele><time>2026-04-18T12:21:38.697Z</time></trkpt><trkpt lat="43.5777923" lon="11.4516894"><ele>164.0</ele><time>2026-04-18T12:21:39.697Z</time></trkpt><trkpt lat="43.5778261" lon="11.4518466"><ele>164.0</ele><time>2026-04-18T12:21:40.697Z</time></trkpt><trkpt lat="43.5778731" lon="11.4520163"><ele>164.0</ele><time>2026-04-18T12:21:41.697Z</time></trkpt><trkpt lat="43.5779405" lon="11.4521635"><ele>164.0</ele><time>2026-04-18T12:21:42.697Z</time></trkpt><trkpt lat="43.5780061" lon="11.4523298"><ele>164.0</ele><time>2026-04-18T12:21:43.697Z</time></trkpt><trkpt lat="43.578059" lon="11.4524878"><ele>164.0</ele><time>2026-04-18T12:21:44.697Z</time></trkpt><trkpt lat="43.5781077" lon="11.4526514"><ele>164.0</ele><time>2026-04-18T12:21:45.695Z</time></trkpt><trkpt lat="43.5781584" lon="11.4528071"><ele>164.0</ele><time>2026-04-18T12:21:46.697Z</time></trkpt><trkpt lat="43.5782019" lon="11.4529857"><ele>164.0</ele><time>2026-04-18T12:21:47.698Z</time></trkpt><trkpt lat="43.5782441" lon="11.4531622"><ele>164.0</ele><time>2026-04-18T12:21:48.692Z</time></trkpt><trkpt lat="43.5782892" lon="11.4533392"><ele>164.0</ele><time>2026-04-18T12:21:49.698Z</time></trkpt><trkpt lat="43.5783388" lon="11.4535176"><ele>164.0</ele><time>2026-04-18T12:21:50.697Z</time></trkpt><trkpt lat="43.5783883" lon="11.4536962"><ele>164.0</ele><time>2026-04-18T12:21:51.698Z</time></trkpt><trkpt lat="43.5784397" lon="11.4538752"><ele>164.0</ele><time>2026-04-18T12:21:52.697Z</time></trkpt><trkpt lat="43.5784862" lon="11.4540685"><ele>164.0</ele><time>2026-04-18T12:21:53.697Z</time></trkpt><trkpt lat="43.578536" lon="11.4542668"><ele>163.33333333333331</ele><time>2026-04-18T12:21:54.697Z</time></trkpt><trkpt lat="43.5785888" lon="11.4544602"><ele>162.66666666666666</ele><time>2026-04-18T12:21:55.697Z</time></trkpt><trkpt lat="43.5786518" lon="11.454667"><ele>162.0</ele><time>2026-04-18T12:21:56.697Z</time></trkpt><trkpt lat="43.5787106" lon="11.4548599"><ele>162.33333333333334</ele><time>2026-04-18T12:21:57.697Z</time></trkpt><trkpt lat="43.5787657" lon="11.4550582"><ele>162.66666666666669</ele><time>2026-04-18T12:21:58.697Z</time></trkpt><trkpt lat="43.5788165" lon="11.455253"><ele>163.0</ele><time>2026-04-18T12:21:59.698Z</time></trkpt><trkpt lat="43.5788628" lon="11.4554722"><ele>163.0</ele><time>2026-04-18T12:22:00.697Z</time></trkpt><trkpt lat="43.5789072" lon="11.4556904"><ele>163.0</ele><time>2026-04-18T12:22:01.697Z</time></trkpt><trkpt lat="43.5789547" lon="11.4559111"><ele>163.0</ele><time>2026-04-18T12:22:02.698Z</time></trkpt><trkpt lat="43.5790056" lon="11.4561397"><ele>162.33333333333334</ele><time>2026-04-18T12:22:03.698Z</time></trkpt><trkpt lat="43.5790549" lon="11.45637"><ele>161.66666666666666</ele><time>2026-04-18T12:22:04.697Z</time></trkpt><trkpt lat="43.5791083" lon="11.456605"><ele>161.0</ele><time>2026-04-18T12:22:05.697Z</time></trkpt><trkpt lat="43.5791573" lon="11.4568338"><ele>161.0</ele><time>2026-04-18T12:22:06.698Z</time></trkpt><trkpt lat="43.579205" lon="11.4570745"><ele>161.0</ele><time>2026-04-18T12:22:07.698Z</time></trkpt><trkpt lat="43.5792576" lon="11.4573208"><ele>161.0</ele><time>2026-04-18T12:22:08.698Z</time></trkpt><trkpt lat="43.5793085" lon="11.4575643"><ele>160.66666666666666</ele><time>2026-04-18T12:22:09.697Z</time></trkpt><trkpt lat="43.579359" lon="11.4578046"><ele>160.33333333333334</ele><time>2026-04-18T12:22:10.697Z</time></trkpt><trkpt lat="43.5794084" lon="11.4580305"><ele>160.0</ele><time>2026-04-18T12:22:11.697Z</time></trkpt><trkpt lat="43.579448" lon="11.4582544"><ele>159.33333333333334</ele><time>2026-04-18T12:22:12.697Z</time></trkpt><trkpt lat="43.5794747" lon="11.4584863"><ele>158.66666666666666</ele><time>2026-04-18T12:22:13.697Z</time></trkpt><trkpt lat="43.5794876" lon="11.4587118"><ele>158.0</ele><time>2026-04-18T12:22:14.697Z</time></trkpt><trkpt lat="43.5795073" lon="11.4589231"><ele>158.0</ele><time>2026-04-18T12:22:15.697Z</time></trkpt><trkpt lat="43.5795363" lon="11.4591378"><ele>158.0</ele><time>2026-04-18T12:22:16.697Z</time></trkpt><trkpt lat="43.5795897" lon="11.4593506"><ele>158.0</ele><time>2026-04-18T12:22:17.697Z</time></trkpt><trkpt lat="43.5796679" lon="11.4595498"><ele>157.33333333333331</ele><time>2026-04-18T12:22:18.697Z</time></trkpt><trkpt lat="43.5797824" lon="11.4597272"><ele>156.66666666666666</ele><time>2026-04-18T12:22:19.697Z</time></trkpt><trkpt lat="43.5799051" lon="11.4599106"><ele>156.0</ele><time>2026-04-18T12:22:20.698Z</time></trkpt><trkpt lat="43.5800196" lon="11.4601109"><ele>156.0</ele><time>2026-04-18T12:22:21.697Z</time></trkpt><trkpt lat="43.5801349" lon="11.4603125"><ele>156.0</ele><time>2026-04-18T12:22:22.697Z</time></trkpt><trkpt lat="43.5802512" lon="11.4605221"><ele>156.0</ele><time>2026-04-18T12:22:23.698Z</time></trkpt><trkpt lat="43.5803707" lon="11.4607326"><ele>155.66666666666666</ele><time>2026-04-18T12:22:24.698Z</time></trkpt><trkpt lat="43.5804852" lon="11.4609416"><ele>155.33333333333331</ele><time>2026-04-18T12:22:25.698Z</time></trkpt><trkpt lat="43.5805931" lon="11.4611506"><ele>155.0</ele><time>2026-04-18T12:22:26.697Z</time></trkpt><trkpt lat="43.5807155" lon="11.4613561"><ele>154.33333333333331</ele><time>2026-04-18T12:22:27.697Z</time></trkpt><trkpt lat="43.5808322" lon="11.4615723"><ele>153.66666666666666</ele><time>2026-04-18T12:22:28.698Z</time></trkpt><trkpt lat="43.5809466" lon="11.4617851"><ele>153.0</ele><time>2026-04-18T12:22:29.697Z</time></trkpt><trkpt lat="43.5810619" lon="11.4619927"><ele>153.0</ele><time>2026-04-18T12:22:30.698Z</time></trkpt><trkpt lat="43.5811744" lon="11.462186"><ele>153.0</ele><time>2026-04-18T12:22:31.697Z</time></trkpt><trkpt lat="43.5812785" lon="11.4623804"><ele>153.0</ele><time>2026-04-18T12:22:32.697Z</time></trkpt><trkpt lat="43.581375" lon="11.4625708"><ele>153.0</ele><time>2026-04-18T12:22:33.698Z</time></trkpt><trkpt lat="43.5814745" lon="11.4627736"><ele>153.0</ele><time>2026-04-18T12:22:34.698Z</time></trkpt><trkpt lat="43.5815668" lon="11.4629919"><ele>153.0</ele><time>2026-04-18T12:22:35.698Z</time></trkpt><trkpt lat="43.5816461" lon="11.4631991"><ele>153.0</ele><time>2026-04-18T12:22:36.698Z</time></trkpt><trkpt lat="43.5817267" lon="11.4633957"><ele>153.0</ele><time>2026-04-18T12:22:37.697Z</time></trkpt><trkpt lat="43.5817982" lon="11.4635773"><ele>153.0</ele><time>2026-04-18T12:22:38.697Z</time></trkpt><trkpt lat="43.5818572" lon="11.4637596"><ele>153.0</ele><time>2026-04-18T12:22:39.697Z</time></trkpt><trkpt lat="43.5818924" lon="11.4639547"><ele>153.0</ele><time>2026-04-18T12:22:40.698Z</time></trkpt><trkpt lat="43.5818829" lon="11.4641691"><ele>153.0</ele><time>2026-04-18T12:22:41.697Z</time></trkpt><trkpt lat="43.5818319" lon="11.4643913"><ele>153.66666666666666</ele><time>2026-04-18T12:22:42.698Z</time></trkpt><trkpt lat="43.5817649" lon="11.4646329"><ele>154.33333333333331</ele><time>2026-04-18T12:22:43.698Z</time></trkpt><trkpt lat="43.5817037" lon="11.4648731"><ele>155.0</ele><time>2026-04-18T12:22:44.697Z</time></trkpt><trkpt lat="43.5816464" lon="11.4651211"><ele>155.0</ele><time>2026-04-18T12:22:45.697Z</time></trkpt><trkpt lat="43.5815869" lon="11.4653784"><ele>155.0</ele><time>2026-04-18T12:22:46.698Z</time></trkpt><trkpt lat="43.5815226" lon="11.4656401"><ele>155.0</ele><time>2026-04-18T12:22:47.698Z</time></trkpt><trkpt lat="43.5814595" lon="11.4659002"><ele>155.33333333333331</ele><time>2026-04-18T12:22:48.697Z</time></trkpt><trkpt lat="43.5813982" lon="11.4661622"><ele>155.66666666666666</ele><time>2026-04-18T12:22:49.697Z</time></trkpt><trkpt lat="43.5813346" lon="11.4664259"><ele>156.0</ele><time>2026-04-18T12:22:50.697Z</time></trkpt><trkpt lat="43.581273" lon="11.4666883"><ele>156.33333333333334</ele><time>2026-04-18T12:22:51.697Z</time></trkpt><trkpt lat="43.5812073" lon="11.4669583"><ele>156.66666666666669</ele><time>2026-04-18T12:22:52.697Z</time></trkpt><trkpt lat="43.5811496" lon="11.467221"><ele>157.0</ele><time>2026-04-18T12:22:53.697Z</time></trkpt><trkpt lat="43.5810992" lon="11.4674834"><ele>157.0</ele><time>2026-04-18T12:22:54.697Z</time></trkpt><trkpt lat="43.5810577" lon="11.4677416"><ele>157.0</ele><time>2026-04-18T12:22:55.697Z</time></trkpt><trkpt lat="43.5810127" lon="11.4679919"><ele>157.0</ele><time>2026-04-18T12:22:56.698Z</time></trkpt><trkpt lat="43.5809762" lon="11.4682377"><ele>157.66666666666669</ele><time>2026-04-18T12:22:57.697Z</time></trkpt><trkpt lat="43.5809355" lon="11.4684901"><ele>158.33333333333334</ele><time>2026-04-18T12:22:58.698Z</time></trkpt><trkpt lat="43.5808924" lon="11.468744"><ele>159.0</ele><time>2026-04-18T12:22:59.697Z</time></trkpt><trkpt lat="43.5808533" lon="11.4689923"><ele>160.0</ele><time>2026-04-18T12:23:00.698Z</time></trkpt><trkpt lat="43.5808141" lon="11.469245"><ele>161.0</ele><time>2026-04-18T12:23:01.697Z</time></trkpt><trkpt lat="43.5807723" lon="11.4694918"><ele>162.0</ele><time>2026-04-18T12:23:02.697Z</time></trkpt><trkpt lat="43.5807299" lon="11.469748"><ele>163.33333333333334</ele><time>2026-04-18T12:23:03.697Z</time></trkpt><trkpt lat="43.580689" lon="11.4700042"><ele>164.66666666666669</ele><time>2026-04-18T12:23:04.698Z</time></trkpt><trkpt lat="43.5806501" lon="11.4702523"><ele>166.0</ele><time>2026-04-18T12:23:05.697Z</time></trkpt><trkpt lat="43.5806065" lon="11.4705072"><ele>167.66666666666669</ele><time>2026-04-18T12:23:06.697Z</time></trkpt><trkpt lat="43.5805695" lon="11.4707601"><ele>169.33333333333334</ele><time>2026-04-18T12:23:07.697Z</time></trkpt><trkpt lat="43.5805329" lon="11.47101"><ele>171.0</ele><time>2026-04-18T12:23:08.697Z</time></trkpt><trkpt lat="43.5805032" lon="11.471258"><ele>172.66666666666666</ele><time>2026-04-18T12:23:09.697Z</time></trkpt><trkpt lat="43.5804722" lon="11.471508"><ele>174.33333333333331</ele><time>2026-04-18T12:23:10.697Z</time></trkpt><trkpt lat="43.5804408" lon="11.4717581"><ele>176.0</ele><time>2026-04-18T12:23:11.697Z</time></trkpt><trkpt lat="43.5804089" lon="11.4720127"><ele>177.33333333333331</ele><time>2026-04-18T12:23:12.697Z</time></trkpt><trkpt lat="43.5803775" lon="11.4722656"><ele>178.66666666666666</ele><time>2026-04-18T12:23:13.698Z</time></trkpt><trkpt lat="43.580354" lon="11.4725077"><ele>180.0</ele><time>2026-04-18T12:23:14.697Z</time></trkpt><trkpt lat="43.5803258" lon="11.4727544"><ele>172.0</ele><time>2026-04-18T12:23:15.697Z</time></trkpt><trkpt lat="43.5802998" lon="11.4729943"><ele>164.0</ele><time>2026-04-18T12:23:16.697Z</time></trkpt><trkpt lat="43.5802681" lon="11.4732222"><ele>156.0</ele><time>2026-04-18T12:23:17.697Z</time></trkpt><trkpt lat="43.5802389" lon="11.4734408"><ele>156.0</ele><time>2026-04-18T12:23:18.698Z</time></trkpt><trkpt lat="43.5802046" lon="11.473652"><ele>156.0</ele><time>2026-04-18T12:23:19.697Z</time></trkpt><trkpt lat="43.580145" lon="11.4738364"><ele>156.0</ele><time>2026-04-18T12:23:20.698Z</time></trkpt><trkpt lat="43.5800477" lon="11.4739966"><ele>156.0</ele><time>2026-04-18T12:23:21.698Z</time></trkpt><trkpt lat="43.5799544" lon="11.4741428"><ele>156.0</ele><time>2026-04-18T12:23:22.697Z</time></trkpt><trkpt lat="43.5799006" lon="11.474291"><ele>156.0</ele><time>2026-04-18T12:23:23.697Z</time></trkpt><trkpt lat="43.579877" lon="11.4744659"><ele>156.0</ele><time>2026-04-18T12:23:24.696Z</time></trkpt><trkpt lat="43.5799015" lon="11.474653"><ele>156.0</ele><time>2026-04-18T12:23:25.697Z</time></trkpt><trkpt lat="43.5799505" lon="11.4748435"><ele>156.0</ele><time>2026-04-18T12:23:26.698Z</time></trkpt><trkpt lat="43.5800062" lon="11.4750362"><ele>156.0</ele><time>2026-04-18T12:23:27.697Z</time></trkpt><trkpt lat="43.5800484" lon="11.4752264"><ele>156.0</ele><time>2026-04-18T12:23:28.695Z</time></trkpt><trkpt lat="43.5800733" lon="11.4754077"><ele>156.25</ele><time>2026-04-18T12:23:29.697Z</time></trkpt><trkpt lat="43.5800693" lon="11.4755914"><ele>156.5</ele><time>2026-04-18T12:23:30.697Z</time></trkpt><trkpt lat="43.5800142" lon="11.4757823"><ele>156.75</ele><time>2026-04-18T12:23:31.697Z</time></trkpt><trkpt lat="43.5799566" lon="11.4759702"><ele>157.0</ele><time>2026-04-18T12:23:32.697Z</time></trkpt><trkpt lat="43.5798921" lon="11.476147"><ele>160.0</ele><time>2026-04-18T12:23:33.698Z</time></trkpt><trkpt lat="43.5798125" lon="11.4763121"><ele>163.0</ele><time>2026-04-18T12:23:34.698Z</time></trkpt><trkpt lat="43.5797112" lon="11.47646"><ele>166.0</ele><time>2026-04-18T12:23:35.697Z</time></trkpt><trkpt lat="43.5796101" lon="11.4765964"><ele>169.0</ele><time>2026-04-18T12:23:36.697Z</time></trkpt><trkpt lat="43.5795201" lon="11.4767363"><ele>167.0</ele><time>2026-04-18T12:23:37.697Z</time></trkpt><trkpt lat="43.5794535" lon="11.4768879"><ele>165.0</ele><time>2026-04-18T12:23:38.698Z</time></trkpt><trkpt lat="43.5794054" lon="11.4770316"><ele>163.0</ele><time>2026-04-18T12:23:39.697Z</time></trkpt><trkpt lat="43.5793703" lon="11.4771798"><ele>161.0</ele><time>2026-04-18T12:23:40.698Z</time></trkpt><trkpt lat="43.5793317" lon="11.4773162"><ele>161.0</ele><time>2026-04-18T12:23:41.697Z</time></trkpt><trkpt lat="43.5793028" lon="11.4774466"><ele>161.0</ele><time>2026-04-18T12:23:42.697Z</time></trkpt><trkpt lat="43.5792824" lon="11.4775776"><ele>161.0</ele><time>2026-04-18T12:23:43.697Z</time></trkpt><trkpt lat="43.579267" lon="11.4777165"><ele>161.0</ele><time>2026-04-18T12:23:44.697Z</time></trkpt><trkpt lat="43.5792727" lon="11.4778619"><ele>161.0</ele><time>2026-04-18T12:23:45.697Z</time></trkpt><trkpt lat="43.5792971" lon="11.4780119"><ele>160.25</ele><time>2026-04-18T12:23:46.697Z</time></trkpt><trkpt lat="43.5793315" lon="11.4781683"><ele>159.5</ele><time>2026-04-18T12:23:47.697Z</time></trkpt><trkpt lat="43.5793667" lon="11.4783207"><ele>158.75</ele><time>2026-04-18T12:23:48.698Z</time></trkpt><trkpt lat="43.5794006" lon="11.4784841"><ele>158.0</ele><time>2026-04-18T12:23:49.697Z</time></trkpt><trkpt lat="43.5794323" lon="11.4786544"><ele>158.0</ele><time>2026-04-18T12:23:50.697Z</time></trkpt><trkpt lat="43.5794562" lon="11.4788567"><ele>158.0</ele><time>2026-04-18T12:23:51.697Z</time></trkpt><trkpt lat="43.5794561" lon="11.4790503"><ele>158.0</ele><time>2026-04-18T12:23:52.698Z</time></trkpt><trkpt lat="43.579442" lon="11.4792492"><ele>158.0</ele><time>2026-04-18T12:23:53.697Z</time></trkpt><trkpt lat="43.5794224" lon="11.4794605"><ele>158.0</ele><time>2026-04-18T12:23:54.697Z</time></trkpt><trkpt lat="43.5794006" lon="11.4796653"><ele>158.0</ele><time>2026-04-18T12:23:55.698Z</time></trkpt><trkpt lat="43.5793972" lon="11.4798843"><ele>158.0</ele><time>2026-04-18T12:23:56.698Z</time></trkpt><trkpt lat="43.5794221" lon="11.4800978"><ele>158.0</ele><time>2026-04-18T12:23:57.697Z</time></trkpt><trkpt lat="43.5794712" lon="11.4803057"><ele>158.0</ele><time>2026-04-18T12:23:58.697Z</time></trkpt><trkpt lat="43.5795329" lon="11.4805167"><ele>158.0</ele><time>2026-04-18T12:23:59.697Z</time></trkpt><trkpt lat="43.5795923" lon="11.4807344"><ele>159.0</ele><time>2026-04-18T12:24:00.697Z</time></trkpt><trkpt lat="43.5796667" lon="11.4809662"><ele>160.0</ele><time>2026-04-18T12:24:01.698Z</time></trkpt><trkpt lat="43.5797386" lon="11.4811801"><ele>161.0</ele><time>2026-04-18T12:24:02.698Z</time></trkpt><trkpt lat="43.579822" lon="11.4813798"><ele>161.0</ele><time>2026-04-18T12:24:03.697Z</time></trkpt><trkpt lat="43.579913" lon="11.4815846"><ele>161.0</ele><time>2026-04-18T12:24:04.697Z</time></trkpt><trkpt lat="43.5799976" lon="11.4817967"><ele>161.0</ele><time>2026-04-18T12:24:05.697Z</time></trkpt><trkpt lat="43.5800749" lon="11.4820108"><ele>161.66666666666666</ele><time>2026-04-18T12:24:06.697Z</time></trkpt><trkpt lat="43.5801548" lon="11.4822159"><ele>162.33333333333334</ele><time>2026-04-18T12:24:07.697Z</time></trkpt><trkpt lat="43.5802358" lon="11.4824027"><ele>163.0</ele><time>2026-04-18T12:24:08.697Z</time></trkpt><trkpt lat="43.5803115" lon="11.4825809"><ele>164.25</ele><time>2026-04-18T12:24:09.697Z</time></trkpt><trkpt lat="43.580383" lon="11.482748"><ele>165.5</ele><time>2026-04-18T12:24:10.698Z</time></trkpt><trkpt lat="43.5804351" lon="11.4829087"><ele>166.75</ele><time>2026-04-18T12:24:11.698Z</time></trkpt><trkpt lat="43.5804733" lon="11.4830742"><ele>168.0</ele><time>2026-04-18T12:24:12.698Z</time></trkpt><trkpt lat="43.5804827" lon="11.4832488"><ele>168.0</ele><time>2026-04-18T12:24:13.697Z</time></trkpt><trkpt lat="43.5804512" lon="11.4834419"><ele>168.0</ele><time>2026-04-18T12:24:14.697Z</time></trkpt><trkpt lat="43.5803867" lon="11.483657"><ele>168.0</ele><time>2026-04-18T12:24:15.697Z</time></trkpt><trkpt lat="43.580323" lon="11.4838582"><ele>166.0</ele><time>2026-04-18T12:24:16.697Z</time></trkpt><trkpt lat="43.5802759" lon="11.4840463"><ele>164.0</ele><time>2026-04-18T12:24:17.698Z</time></trkpt><trkpt lat="43.5802387" lon="11.4842368"><ele>162.0</ele><time>2026-04-18T12:24:18.697Z</time></trkpt><trkpt lat="43.5802092" lon="11.4844398"><ele>160.0</ele><time>2026-04-18T12:24:19.697Z</time></trkpt><trkpt lat="43.5802021" lon="11.4846505"><ele>160.0</ele><time>2026-04-18T12:24:20.697Z</time></trkpt><trkpt lat="43.5802035" lon="11.4848526"><ele>160.0</ele><time>2026-04-18T12:24:21.697Z</time></trkpt><trkpt lat="43.5802041" lon="11.4850404"><ele>160.0</ele><time>2026-04-18T12:24:22.697Z</time></trkpt><trkpt lat="43.5801911" lon="11.4852372"><ele>160.0</ele><time>2026-04-18T12:24:23.697Z</time></trkpt><trkpt lat="43.5801495" lon="11.4854213"><ele>161.5</ele><time>2026-04-18T12:24:24.697Z</time></trkpt><trkpt lat="43.5800377" lon="11.4855503"><ele>163.0</ele><time>2026-04-18T12:24:25.697Z</time></trkpt><trkpt lat="43.579903" lon="11.4856543"><ele>164.5</ele><time>2026-04-18T12:24:26.697Z</time></trkpt><trkpt lat="43.5797676" lon="11.4857262"><ele>166.0</ele><time>2026-04-18T12:24:27.697Z</time></trkpt><trkpt lat="43.5796097" lon="11.4858222"><ele>164.33333333333334</ele><time>2026-04-18T12:24:28.694Z</time></trkpt><trkpt lat="43.579476" lon="11.4859773"><ele>162.66666666666666</ele><time>2026-04-18T12:24:29.697Z</time></trkpt><trkpt lat="43.5793463" lon="11.4861447"><ele>161.0</ele><time>2026-04-18T12:24:30.697Z</time></trkpt><trkpt lat="43.5792164" lon="11.4863157"><ele>161.0</ele><time>2026-04-18T12:24:31.698Z</time></trkpt><trkpt lat="43.5790833" lon="11.4864864"><ele>161.0</ele><time>2026-04-18T12:24:32.697Z</time></trkpt><trkpt lat="43.5789559" lon="11.4866482"><ele>161.0</ele><time>2026-04-18T12:24:33.698Z</time></trkpt><trkpt lat="43.5788315" lon="11.4868197"><ele>161.0</ele><time>2026-04-18T12:24:34.698Z</time></trkpt><trkpt lat="43.5787099" lon="11.486983"><ele>161.0</ele><time>2026-04-18T12:24:35.698Z</time></trkpt><trkpt lat="43.578594" lon="11.4871473"><ele>161.0</ele><time>2026-04-18T12:24:36.697Z</time></trkpt><trkpt lat="43.5784862" lon="11.4873188"><ele>159.33333333333331</ele><time>2026-04-18T12:24:37.697Z</time></trkpt><trkpt lat="43.5783786" lon="11.487493"><ele>157.66666666666666</ele><time>2026-04-18T12:24:38.698Z</time></trkpt><trkpt lat="43.5782758" lon="11.4876713"><ele>156.0</ele><time>2026-04-18T12:24:39.698Z</time></trkpt><trkpt lat="43.5781708" lon="11.4878518"><ele>161.0</ele><time>2026-04-18T12:24:40.697Z</time></trkpt><trkpt lat="43.5780709" lon="11.4880416"><ele>166.0</ele><time>2026-04-18T12:24:41.697Z</time></trkpt><trkpt lat="43.5779804" lon="11.4882177"><ele>171.0</ele><time>2026-04-18T12:24:42.697Z</time></trkpt><trkpt lat="43.577888" lon="11.4883666"><ele>167.75</ele><time>2026-04-18T12:24:43.697Z</time></trkpt><trkpt lat="43.5778015" lon="11.488519"><ele>164.5</ele><time>2026-04-18T12:24:44.697Z</time></trkpt><trkpt lat="43.5777066" lon="11.4886571"><ele>161.25</ele><time>2026-04-18T12:24:45.698Z</time></trkpt><trkpt lat="43.5776184" lon="11.4887961"><ele>158.0</ele><time>2026-04-18T12:24:46.697Z</time></trkpt><trkpt lat="43.5775353" lon="11.4889219"><ele>158.0</ele><time>2026-04-18T12:24:47.698Z</time></trkpt><trkpt lat="43.5774476" lon="11.489025"><ele>158.0</ele><time>2026-04-18T12:24:48.695Z</time></trkpt><trkpt lat="43.5773489" lon="11.4891341"><ele>158.0</ele><time>2026-04-18T12:24:49.698Z</time></trkpt><trkpt lat="43.5772537" lon="11.4892489"><ele>158.0</ele><time>2026-04-18T12:24:50.698Z</time></trkpt><trkpt lat="43.5771729" lon="11.4893582"><ele>158.0</ele><time>2026-04-18T12:24:51.697Z</time></trkpt><trkpt lat="43.5770909" lon="11.4894649"><ele>158.0</ele><time>2026-04-18T12:24:52.697Z</time></trkpt><trkpt lat="43.5770026" lon="11.4895695"><ele>158.0</ele><time>2026-04-18T12:24:53.697Z</time></trkpt><trkpt lat="43.5769308" lon="11.4896812"><ele>158.0</ele><time>2026-04-18T12:24:54.697Z</time></trkpt><trkpt lat="43.5768743" lon="11.4898142"><ele>158.0</ele><time>2026-04-18T12:24:55.697Z</time></trkpt><trkpt lat="43.5768331" lon="11.4899555"><ele>158.0</ele><time>2026-04-18T12:24:56.698Z</time></trkpt><trkpt lat="43.5767853" lon="11.4901099"><ele>158.0</ele><time>2026-04-18T12:24:57.698Z</time></trkpt><trkpt lat="43.5767198" lon="11.4902438"><ele>158.0</ele><time>2026-04-18T12:24:58.697Z</time></trkpt><trkpt lat="43.5766483" lon="11.4903591"><ele>158.0</ele><time>2026-04-18T12:24:59.697Z</time></trkpt><trkpt lat="43.5765655" lon="11.4904587"><ele>158.25</ele><time>2026-04-18T12:25:00.697Z</time></trkpt><trkpt lat="43.5764686" lon="11.4905612"><ele>158.5</ele><time>2026-04-18T12:25:01.698Z</time></trkpt><trkpt lat="43.5763791" lon="11.4906588"><ele>158.75</ele><time>2026-04-18T12:25:02.697Z</time></trkpt><trkpt lat="43.576282" lon="11.4907525"><ele>159.0</ele><time>2026-04-18T12:25:03.697Z</time></trkpt><trkpt lat="43.5761833" lon="11.4908284"><ele>158.5</ele><time>2026-04-18T12:25:04.697Z</time></trkpt><trkpt lat="43.5760691" lon="11.4908839"><ele>158.0</ele><time>2026-04-18T12:25:05.697Z</time></trkpt><trkpt lat="43.5759558" lon="11.490927"><ele>157.5</ele><time>2026-04-18T12:25:06.698Z</time></trkpt><trkpt lat="43.5758408" lon="11.4909659"><ele>157.0</ele><time>2026-04-18T12:25:07.697Z</time></trkpt><trkpt lat="43.5757181" lon="11.4910106"><ele>157.0</ele><time>2026-04-18T12:25:08.697Z</time></trkpt><trkpt lat="43.5755929" lon="11.491047"><ele>157.0</ele><time>2026-04-18T12:25:09.697Z</time></trkpt><trkpt lat="43.5754712" lon="11.491089"><ele>157.0</ele><time>2026-04-18T12:25:10.698Z</time></trkpt><trkpt lat="43.5753489" lon="11.4911391"><ele>157.0</ele><time>2026-04-18T12:25:11.698Z</time></trkpt><trkpt lat="43.5752268" lon="11.4912018"><ele>157.25</ele><time>2026-04-18T12:25:12.698Z</time></trkpt><trkpt lat="43.5751046" lon="11.4912804"><ele>157.5</ele><time>2026-04-18T12:25:13.697Z</time></trkpt><trkpt lat="43.5749824" lon="11.4913836"><ele>157.75</ele><time>2026-04-18T12:25:14.697Z</time></trkpt><trkpt lat="43.5748695" lon="11.4914813"><ele>158.0</ele><time>2026-04-18T12:25:15.697Z</time></trkpt><trkpt lat="43.5747536" lon="11.4915748"><ele>158.0</ele><time>2026-04-18T12:25:16.697Z</time></trkpt><trkpt lat="43.5746474" lon="11.4916712"><ele>158.0</ele><time>2026-04-18T12:25:17.697Z</time></trkpt><trkpt lat="43.5745514" lon="11.4917701"><ele>158.0</ele><time>2026-04-18T12:25:18.698Z</time></trkpt><trkpt lat="43.5744627" lon="11.4918788"><ele>158.0</ele><time>2026-04-18T12:25:19.698Z</time></trkpt><trkpt lat="43.5743845" lon="11.4919939"><ele>155.25</ele><time>2026-04-18T12:25:20.698Z</time></trkpt><trkpt lat="43.5743144" lon="11.4921203"><ele>152.5</ele><time>2026-04-18T12:25:21.697Z</time></trkpt><trkpt lat="43.5742527" lon="11.4922632"><ele>149.75</ele><time>2026-04-18T12:25:22.698Z</time></trkpt><trkpt lat="43.5742023" lon="11.4924149"><ele>147.0</ele><time>2026-04-18T12:25:23.698Z</time></trkpt><trkpt lat="43.5741463" lon="11.4925713"><ele>147.0</ele><time>2026-04-18T12:25:24.697Z</time></trkpt><trkpt lat="43.5740919" lon="11.4927292"><ele>147.0</ele><time>2026-04-18T12:25:25.697Z</time></trkpt><trkpt lat="43.5740426" lon="11.4928682"><ele>147.0</ele><time>2026-04-18T12:25:26.697Z</time></trkpt><trkpt lat="43.5740009" lon="11.4930008"><ele>147.0</ele><time>2026-04-18T12:25:27.698Z</time></trkpt><trkpt lat="43.5739609" lon="11.4931215"><ele>147.0</ele><time>2026-04-18T12:25:28.697Z</time></trkpt><trkpt lat="43.573926" lon="11.4932298"><ele>147.16666666666666</ele><time>2026-04-18T12:25:29.697Z</time></trkpt><trkpt lat="43.5738904" lon="11.4933382"><ele>147.33333333333334</ele><time>2026-04-18T12:25:30.697Z</time></trkpt><trkpt lat="43.5738564" lon="11.493449"><ele>147.5</ele><time>2026-04-18T12:25:31.697Z</time></trkpt><trkpt lat="43.5738236" lon="11.4935484"><ele>147.66666666666669</ele><time>2026-04-18T12:25:32.698Z</time></trkpt><trkpt lat="43.5737898" lon="11.4936338"><ele>147.83333333333334</ele><time>2026-04-18T12:25:33.698Z</time></trkpt><trkpt lat="43.5737576" lon="11.4937167"><ele>148.0</ele><time>2026-04-18T12:25:34.698Z</time></trkpt><trkpt lat="43.5737137" lon="11.4937878"><ele>146.4</ele><time>2026-04-18T12:25:35.698Z</time></trkpt><trkpt lat="43.5736016" lon="11.4938204"><ele>144.8</ele><time>2026-04-18T12:25:37.697Z</time></trkpt><trkpt lat="43.5735053" lon="11.4937439"><ele>143.2</ele><time>2026-04-18T12:25:39.698Z</time></trkpt><trkpt lat="43.5734617" lon="11.4936633"><ele>141.6</ele><time>2026-04-18T12:25:40.697Z</time></trkpt><trkpt lat="43.5734261" lon="11.4935248"><ele>140.0</ele><time>2026-04-18T12:25:41.697Z</time></trkpt><trkpt lat="43.5734018" lon="11.493358"><ele>140.0</ele><time>2026-04-18T12:25:42.697Z</time></trkpt><trkpt lat="43.5733649" lon="11.4931857"><ele>140.0</ele><time>2026-04-18T12:25:43.698Z</time></trkpt><trkpt lat="43.5733053" lon="11.4929903"><ele>140.0</ele><time>2026-04-18T12:25:44.697Z</time></trkpt><trkpt lat="43.5732479" lon="11.492805"><ele>140.0</ele><time>2026-04-18T12:25:45.697Z</time></trkpt><trkpt lat="43.5731793" lon="11.4926084"><ele>140.0</ele><time>2026-04-18T12:25:46.698Z</time></trkpt><trkpt lat="43.5731256" lon="11.4924092"><ele>140.0</ele><time>2026-04-18T12:25:47.698Z</time></trkpt><trkpt lat="43.5730735" lon="11.4922031"><ele>140.0</ele><time>2026-04-18T12:25:48.697Z</time></trkpt><trkpt lat="43.5730127" lon="11.4920015"><ele>140.0</ele><time>2026-04-18T12:25:49.697Z</time></trkpt><trkpt lat="43.572951" lon="11.4918012"><ele>140.0</ele><time>2026-04-18T12:25:50.698Z</time></trkpt><trkpt lat="43.5728848" lon="11.4916075"><ele>140.0</ele><time>2026-04-18T12:25:51.697Z</time></trkpt><trkpt lat="43.572824" lon="11.4914199"><ele>139.75</ele><time>2026-04-18T12:25:52.697Z</time></trkpt><trkpt lat="43.5727741" lon="11.491247"><ele>139.5</ele><time>2026-04-18T12:25:53.698Z</time></trkpt><trkpt lat="43.5727123" lon="11.4910744"><ele>139.25</ele><time>2026-04-18T12:25:54.697Z</time></trkpt><trkpt lat="43.572616" lon="11.4909448"><ele>139.0</ele><time>2026-04-18T12:25:55.697Z</time></trkpt><trkpt lat="43.5724827" lon="11.4908651"><ele>139.0</ele><time>2026-04-18T12:25:56.697Z</time></trkpt><trkpt lat="43.5723321" lon="11.4908304"><ele>139.0</ele><time>2026-04-18T12:25:57.698Z</time></trkpt><trkpt lat="43.5721802" lon="11.4908128"><ele>139.0</ele><time>2026-04-18T12:25:58.697Z</time></trkpt><trkpt lat="43.5720366" lon="11.4907941"><ele>139.0</ele><time>2026-04-18T12:25:59.697Z</time></trkpt><trkpt lat="43.5718962" lon="11.4907265"><ele>139.0</ele><time>2026-04-18T12:26:00.698Z</time></trkpt><trkpt lat="43.5717686" lon="11.4906186"><ele>139.0</ele><time>2026-04-18T12:26:01.697Z</time></trkpt><trkpt lat="43.5716614" lon="11.4904632"><ele>139.0</ele><time>2026-04-18T12:26:02.698Z</time></trkpt><trkpt lat="43.5715753" lon="11.4902894"><ele>139.0</ele><time>2026-04-18T12:26:03.697Z</time></trkpt><trkpt lat="43.5714927" lon="11.4900989"><ele>139.0</ele><time>2026-04-18T12:26:04.697Z</time></trkpt><trkpt lat="43.5714033" lon="11.4899067"><ele>139.0</ele><time>2026-04-18T12:26:05.697Z</time></trkpt><trkpt lat="43.5713128" lon="11.4897078"><ele>139.33333333333334</ele><time>2026-04-18T12:26:06.697Z</time></trkpt><trkpt lat="43.5712228" lon="11.4895147"><ele>139.66666666666666</ele><time>2026-04-18T12:26:07.697Z</time></trkpt><trkpt lat="43.5711178" lon="11.4893415"><ele>140.0</ele><time>2026-04-18T12:26:08.697Z</time></trkpt><trkpt lat="43.5709899" lon="11.4891838"><ele>140.0</ele><time>2026-04-18T12:26:09.698Z</time></trkpt><trkpt lat="43.5708456" lon="11.4890463"><ele>140.0</ele><time>2026-04-18T12:26:10.697Z</time></trkpt><trkpt lat="43.5706939" lon="11.4889267"><ele>140.0</ele><time>2026-04-18T12:26:11.698Z</time></trkpt><trkpt lat="43.5705345" lon="11.4888102"><ele>140.0</ele><time>2026-04-18T12:26:12.697Z</time></trkpt><trkpt lat="43.5703737" lon="11.4887104"><ele>140.0</ele><time>2026-04-18T12:26:13.697Z</time></trkpt><trkpt lat="43.5702118" lon="11.4886177"><ele>140.0</ele><time>2026-04-18T12:26:14.697Z</time></trkpt><trkpt lat="43.5700484" lon="11.4885252"><ele>140.0</ele><time>2026-04-18T12:26:15.698Z</time></trkpt><trkpt lat="43.5698859" lon="11.4884234"><ele>140.0</ele><time>2026-04-18T12:26:16.697Z</time></trkpt><trkpt lat="43.5697247" lon="11.488312"><ele>140.0</ele><time>2026-04-18T12:26:17.697Z</time></trkpt><trkpt lat="43.5695843" lon="11.4881665"><ele>140.0</ele><time>2026-04-18T12:26:18.698Z</time></trkpt><trkpt lat="43.569451" lon="11.4880129"><ele>140.0</ele><time>2026-04-18T12:26:19.697Z</time></trkpt><trkpt lat="43.5693268" lon="11.4878375"><ele>140.0</ele><time>2026-04-18T12:26:20.697Z</time></trkpt><trkpt lat="43.569215" lon="11.4876533"><ele>140.33333333333331</ele><time>2026-04-18T12:26:21.697Z</time></trkpt><trkpt lat="43.5691161" lon="11.4874598"><ele>140.66666666666666</ele><time>2026-04-18T12:26:22.698Z</time></trkpt><trkpt lat="43.569023" lon="11.4872645"><ele>141.0</ele><time>2026-04-18T12:26:23.697Z</time></trkpt><trkpt lat="43.56894" lon="11.4870591"><ele>141.0</ele><time>2026-04-18T12:26:24.697Z</time></trkpt><trkpt lat="43.5688562" lon="11.4868538"><ele>141.0</ele><time>2026-04-18T12:26:25.697Z</time></trkpt><trkpt lat="43.5687729" lon="11.4866492"><ele>141.0</ele><time>2026-04-18T12:26:26.697Z</time></trkpt><trkpt lat="43.5686749" lon="11.4864493"><ele>141.0</ele><time>2026-04-18T12:26:27.697Z</time></trkpt><trkpt lat="43.5685636" lon="11.4862716"><ele>141.0</ele><time>2026-04-18T12:26:28.697Z</time></trkpt><trkpt lat="43.5684371" lon="11.4861053"><ele>141.0</ele><time>2026-04-18T12:26:29.698Z</time></trkpt><trkpt lat="43.5682958" lon="11.4859605"><ele>141.33333333333334</ele><time>2026-04-18T12:26:30.697Z</time></trkpt><trkpt lat="43.568137" lon="11.4858338"><ele>141.66666666666669</ele><time>2026-04-18T12:26:31.697Z</time></trkpt><trkpt lat="43.5679727" lon="11.4857499"><ele>142.0</ele><time>2026-04-18T12:26:32.697Z</time></trkpt><trkpt lat="43.5678036" lon="11.4856724"><ele>142.0</ele><time>2026-04-18T12:26:33.697Z</time></trkpt><trkpt lat="43.567631" lon="11.4856295"><ele>142.0</ele><time>2026-04-18T12:26:34.697Z</time></trkpt><trkpt lat="43.5674569" lon="11.4855981"><ele>142.0</ele><time>2026-04-18T12:26:35.697Z</time></trkpt><trkpt lat="43.5672867" lon="11.4855557"><ele>142.0</ele><time>2026-04-18T12:26:36.697Z</time></trkpt><trkpt lat="43.5671229" lon="11.4854825"><ele>142.0</ele><time>2026-04-18T12:26:37.697Z</time></trkpt><trkpt lat="43.5669752" lon="11.4853594"><ele>142.0</ele><time>2026-04-18T12:26:38.698Z</time></trkpt><trkpt lat="43.5668439" lon="11.4851801"><ele>142.66666666666669</ele><time>2026-04-18T12:26:39.697Z</time></trkpt><trkpt lat="43.5667386" lon="11.4849848"><ele>143.33333333333334</ele><time>2026-04-18T12:26:40.698Z</time></trkpt><trkpt lat="43.5666536" lon="11.48478"><ele>144.0</ele><time>2026-04-18T12:26:41.697Z</time></trkpt><trkpt lat="43.5665746" lon="11.4845617"><ele>144.0</ele><time>2026-04-18T12:26:42.697Z</time></trkpt><trkpt lat="43.5664866" lon="11.4843508"><ele>144.0</ele><time>2026-04-18T12:26:43.698Z</time></trkpt><trkpt lat="43.5664024" lon="11.4841527"><ele>144.0</ele><time>2026-04-18T12:26:44.698Z</time></trkpt><trkpt lat="43.5663228" lon="11.4839657"><ele>144.0</ele><time>2026-04-18T12:26:45.698Z</time></trkpt><trkpt lat="43.5662474" lon="11.4837888"><ele>144.0</ele><time>2026-04-18T12:26:46.697Z</time></trkpt><trkpt lat="43.5661758" lon="11.4836182"><ele>144.0</ele><time>2026-04-18T12:26:47.697Z</time></trkpt><trkpt lat="43.5661027" lon="11.4834473"><ele>144.0</ele><time>2026-04-18T12:26:48.697Z</time></trkpt><trkpt lat="43.5660255" lon="11.483266"><ele>144.0</ele><time>2026-04-18T12:26:49.697Z</time></trkpt><trkpt lat="43.5659483" lon="11.483076"><ele>144.0</ele><time>2026-04-18T12:26:50.697Z</time></trkpt><trkpt lat="43.5658644" lon="11.4828879"><ele>144.0</ele><time>2026-04-18T12:26:51.697Z</time></trkpt><trkpt lat="43.565766" lon="11.4827235"><ele>144.0</ele><time>2026-04-18T12:26:52.697Z</time></trkpt><trkpt lat="43.5656333" lon="11.4825966"><ele>144.0</ele><time>2026-04-18T12:26:53.697Z</time></trkpt><trkpt lat="43.5654826" lon="11.4824896"><ele>144.0</ele><time>2026-04-18T12:26:54.697Z</time></trkpt><trkpt lat="43.5653373" lon="11.4823787"><ele>144.33333333333334</ele><time>2026-04-18T12:26:55.697Z</time></trkpt><trkpt lat="43.565184" lon="11.4822771"><ele>144.66666666666669</ele><time>2026-04-18T12:26:56.697Z</time></trkpt><trkpt lat="43.5650417" lon="11.4821806"><ele>145.0</ele><time>2026-04-18T12:26:57.697Z</time></trkpt><trkpt lat="43.5649018" lon="11.4820829"><ele>145.0</ele><time>2026-04-18T12:26:58.697Z</time></trkpt><trkpt lat="43.5647787" lon="11.481981"><ele>145.0</ele><time>2026-04-18T12:26:59.698Z</time></trkpt><trkpt lat="43.5646788" lon="11.4818833"><ele>145.0</ele><time>2026-04-18T12:27:00.697Z</time></trkpt><trkpt lat="43.5645891" lon="11.4817952"><ele>145.0</ele><time>2026-04-18T12:27:01.697Z</time></trkpt><trkpt lat="43.5645097" lon="11.4817107"><ele>145.16666666666669</ele><time>2026-04-18T12:27:02.698Z</time></trkpt><trkpt lat="43.5644382" lon="11.481626"><ele>145.33333333333334</ele><time>2026-04-18T12:27:03.697Z</time></trkpt><trkpt lat="43.5643922" lon="11.481536"><ele>145.5</ele><time>2026-04-18T12:27:04.698Z</time></trkpt><trkpt lat="43.5643427" lon="11.4814597"><ele>145.66666666666666</ele><time>2026-04-18T12:27:05.697Z</time></trkpt><trkpt lat="43.5642822" lon="11.481413"><ele>145.83333333333331</ele><time>2026-04-18T12:27:06.697Z</time></trkpt><trkpt lat="43.5642147" lon="11.4813912"><ele>146.0</ele><time>2026-04-18T12:27:07.697Z</time></trkpt><trkpt lat="43.5641482" lon="11.4814207"><ele>146.0</ele><time>2026-04-18T12:27:08.697Z</time></trkpt><trkpt lat="43.5640849" lon="11.4814903"><ele>146.0</ele><time>2026-04-18T12:27:09.698Z</time></trkpt><trkpt lat="43.5640487" lon="11.4816076"><ele>146.0</ele><time>2026-04-18T12:27:10.697Z</time></trkpt><trkpt lat="43.5640522" lon="11.4817274"><ele>146.0</ele><time>2026-04-18T12:27:11.697Z</time></trkpt><trkpt lat="43.5640991" lon="11.4818398"><ele>146.0</ele><time>2026-04-18T12:27:12.698Z</time></trkpt><trkpt lat="43.5641425" lon="11.4819669"><ele>146.75</ele><time>2026-04-18T12:27:13.697Z</time></trkpt><trkpt lat="43.5641634" lon="11.4821236"><ele>147.5</ele><time>2026-04-18T12:27:14.697Z</time></trkpt><trkpt lat="43.5641616" lon="11.4823005"><ele>148.25</ele><time>2026-04-18T12:27:15.697Z</time></trkpt><trkpt lat="43.5641577" lon="11.4824788"><ele>149.0</ele><time>2026-04-18T12:27:16.697Z</time></trkpt><trkpt lat="43.5641571" lon="11.4826717"><ele>149.0</ele><time>2026-04-18T12:27:17.697Z</time></trkpt><trkpt lat="43.5641551" lon="11.4828647"><ele>149.0</ele><time>2026-04-18T12:27:18.698Z</time></trkpt><trkpt lat="43.5641523" lon="11.4830665"><ele>149.0</ele><time>2026-04-18T12:27:19.698Z</time></trkpt><trkpt lat="43.5641513" lon="11.4832698"><ele>149.0</ele><time>2026-04-18T12:27:20.698Z</time></trkpt><trkpt lat="43.564153" lon="11.4834533"><ele>150.2</ele><time>2026-04-18T12:27:21.697Z</time></trkpt><trkpt lat="43.5641618" lon="11.4836096"><ele>151.4</ele><time>2026-04-18T12:27:22.697Z</time></trkpt><trkpt lat="43.5641642" lon="11.4837362"><ele>152.6</ele><time>2026-04-18T12:27:23.697Z</time></trkpt><trkpt lat="43.5641671" lon="11.4838346"><ele>153.8</ele><time>2026-04-18T12:27:24.697Z</time></trkpt><trkpt lat="43.564154" lon="11.4839683"><ele>155.0</ele><time>2026-04-18T12:27:26.697Z</time></trkpt><trkpt lat="43.5640943" lon="11.484056"><ele>155.33333333333331</ele><time>2026-04-18T12:27:28.698Z</time></trkpt><trkpt lat="43.564042" lon="11.4842149"><ele>155.66666666666666</ele><time>2026-04-18T12:27:30.697Z</time></trkpt><trkpt lat="43.5640259" lon="11.4843184"><ele>156.0</ele><time>2026-04-18T12:27:31.697Z</time></trkpt><trkpt lat="43.564018" lon="11.4844133"><ele>156.33333333333334</ele><time>2026-04-18T12:27:32.697Z</time></trkpt><trkpt lat="43.5640175" lon="11.4845057"><ele>156.66666666666669</ele><time>2026-04-18T12:27:33.697Z</time></trkpt><trkpt lat="43.5640204" lon="11.484598"><ele>157.0</ele><time>2026-04-18T12:27:34.697Z</time></trkpt><trkpt lat="43.564037" lon="11.4847155"><ele>157.5</ele><time>2026-04-18T12:27:35.697Z</time></trkpt><trkpt lat="43.564063" lon="11.4848399"><ele>158.0</ele><time>2026-04-18T12:27:36.698Z</time></trkpt><trkpt lat="43.5640919" lon="11.4849609"><ele>158.5</ele><time>2026-04-18T12:27:37.697Z</time></trkpt><trkpt lat="43.5641159" lon="11.4850825"><ele>159.0</ele><time>2026-04-18T12:27:38.697Z</time></trkpt><trkpt lat="43.5641365" lon="11.4852018"><ele>159.5</ele><time>2026-04-18T12:27:39.698Z</time></trkpt><trkpt lat="43.5641529" lon="11.4853045"><ele>160.0</ele><time>2026-04-18T12:27:40.697Z</time></trkpt><trkpt lat="43.564167" lon="11.4854091"><ele>162.16666666666669</ele><time>2026-04-18T12:27:41.698Z</time></trkpt><trkpt lat="43.5641819" lon="11.4855026"><ele>164.33333333333334</ele><time>2026-04-18T12:27:42.697Z</time></trkpt><trkpt lat="43.564192" lon="11.4856026"><ele>166.5</ele><time>2026-04-18T12:27:43.698Z</time></trkpt><trkpt lat="43.564201" lon="11.4856924"><ele>168.66666666666666</ele><time>2026-04-18T12:27:44.697Z</time></trkpt><trkpt lat="43.5642151" lon="11.4858582"><ele>170.83333333333331</ele><time>2026-04-18T12:27:46.698Z</time></trkpt><trkpt lat="43.5642175" lon="11.4859881"><ele>173.0</ele><time>2026-04-18T12:27:48.697Z</time></trkpt><trkpt lat="43.5642357" lon="11.4860745"><ele>173.0</ele><time>2026-04-18T12:27:51.697Z</time></trkpt><trkpt lat="43.5643227" lon="11.486087"><ele>173.0</ele><time>2026-04-18T12:27:54.698Z</time></trkpt><trkpt lat="43.5644087" lon="11.4860186"><ele>173.0</ele><time>2026-04-18T12:27:55.697Z</time></trkpt><trkpt lat="43.564507" lon="11.4859486"><ele>173.0</ele><time>2026-04-18T12:27:56.697Z</time></trkpt><trkpt lat="43.564608" lon="11.4859149"><ele>173.0</ele><time>2026-04-18T12:27:57.697Z</time></trkpt><trkpt lat="43.5647176" lon="11.485917"><ele>172.14285714285714</ele><time>2026-04-18T12:27:58.698Z</time></trkpt><trkpt lat="43.5648013" lon="11.4859575"><ele>171.2857142857143</ele><time>2026-04-18T12:27:59.697Z</time></trkpt><trkpt lat="43.5648572" lon="11.4860045"><ele>170.42857142857144</ele><time>2026-04-18T12:28:00.698Z</time></trkpt><trkpt lat="43.5648994" lon="11.4860828"><ele>169.57142857142856</ele><time>2026-04-18T12:28:01.698Z</time></trkpt><trkpt lat="43.5649099" lon="11.4861791"><ele>168.71428571428572</ele><time>2026-04-18T12:28:02.698Z</time></trkpt><trkpt lat="43.5648969" lon="11.4862784"><ele>167.85714285714286</ele><time>2026-04-18T12:28:03.697Z</time></trkpt><trkpt lat="43.5648671" lon="11.4863793"><ele>167.0</ele><time>2026-04-18T12:28:04.697Z</time></trkpt><trkpt lat="43.5648393" lon="11.4864943"><ele>169.5</ele><time>2026-04-18T12:28:05.697Z</time></trkpt><trkpt lat="43.5648179" lon="11.4866119"><ele>172.0</ele><time>2026-04-18T12:28:06.697Z</time></trkpt><trkpt lat="43.5648288" lon="11.4867094"><ele>174.5</ele><time>2026-04-18T12:28:07.697Z</time></trkpt><trkpt lat="43.5648674" lon="11.4868146"><ele>177.0</ele><time>2026-04-18T12:28:08.697Z</time></trkpt><trkpt lat="43.5649049" lon="11.4869313"><ele>179.5</ele><time>2026-04-18T12:28:09.697Z</time></trkpt><trkpt lat="43.5649287" lon="11.4870504"><ele>182.0</ele><time>2026-04-18T12:28:10.698Z</time></trkpt><trkpt lat="43.5649325" lon="11.4871664"><ele>183.5</ele><time>2026-04-18T12:28:11.697Z</time></trkpt><trkpt lat="43.5649323" lon="11.4872882"><ele>185.0</ele><time>2026-04-18T12:28:12.697Z</time></trkpt><trkpt lat="43.5649264" lon="11.4874048"><ele>186.5</ele><time>2026-04-18T12:28:13.697Z</time></trkpt><trkpt lat="43.5648946" lon="11.4875068"><ele>188.0</ele><time>2026-04-18T12:28:14.697Z</time></trkpt><trkpt lat="43.5648428" lon="11.4875998"><ele>189.5</ele><time>2026-04-18T12:28:15.697Z</time></trkpt><trkpt lat="43.5647873" lon="11.4876874"><ele>191.0</ele><time>2026-04-18T12:28:16.698Z</time></trkpt><trkpt lat="43.5647163" lon="11.4877749"><ele>191.0</ele><time>2026-04-18T12:28:17.698Z</time></trkpt><trkpt lat="43.5646247" lon="11.4878376"><ele>191.0</ele><time>2026-04-18T12:28:18.698Z</time></trkpt><trkpt lat="43.5645451" lon="11.4879213"><ele>191.0</ele><time>2026-04-18T12:28:19.697Z</time></trkpt><trkpt lat="43.5645065" lon="11.488012"><ele>191.0</ele><time>2026-04-18T12:28:20.697Z</time></trkpt><trkpt lat="43.5645036" lon="11.4881109"><ele>191.0</ele><time>2026-04-18T12:28:21.698Z</time></trkpt><trkpt lat="43.5645407" lon="11.4882225"><ele>191.0</ele><time>2026-04-18T12:28:22.697Z</time></trkpt><trkpt lat="43.5645822" lon="11.4883637"><ele>192.60000000000002</ele><time>2026-04-18T12:28:23.698Z</time></trkpt><trkpt lat="43.5646043" lon="11.4885241"><ele>194.2</ele><time>2026-04-18T12:28:24.697Z</time></trkpt><trkpt lat="43.5646239" lon="11.4886672"><ele>195.8</ele><time>2026-04-18T12:28:25.697Z</time></trkpt><trkpt lat="43.5646527" lon="11.4888106"><ele>197.39999999999998</ele><time>2026-04-18T12:28:26.697Z</time></trkpt><trkpt lat="43.5646839" lon="11.4889399"><ele>199.0</ele><time>2026-04-18T12:28:27.697Z</time></trkpt><trkpt lat="43.5646977" lon="11.4890585"><ele>201.66666666666666</ele><time>2026-04-18T12:28:28.697Z</time></trkpt><trkpt lat="43.5646889" lon="11.4891841"><ele>204.33333333333331</ele><time>2026-04-18T12:28:29.698Z</time></trkpt><trkpt lat="43.5646615" lon="11.48931"><ele>207.0</ele><time>2026-04-18T12:28:30.698Z</time></trkpt><trkpt lat="43.5646334" lon="11.4894333"><ele>209.66666666666669</ele><time>2026-04-18T12:28:31.697Z</time></trkpt><trkpt lat="43.5646104" lon="11.4895486"><ele>212.33333333333334</ele><time>2026-04-18T12:28:32.697Z</time></trkpt><trkpt lat="43.5646158" lon="11.4896441"><ele>215.0</ele><time>2026-04-18T12:28:33.698Z</time></trkpt><trkpt lat="43.5646382" lon="11.4897273"><ele>215.0</ele><time>2026-04-18T12:28:34.697Z</time></trkpt><trkpt lat="43.5646803" lon="11.4898163"><ele>215.0</ele><time>2026-04-18T12:28:35.697Z</time></trkpt><trkpt lat="43.5647245" lon="11.4899013"><ele>215.0</ele><time>2026-04-18T12:28:36.698Z</time></trkpt><trkpt lat="43.5647622" lon="11.489985"><ele>215.0</ele><time>2026-04-18T12:28:37.698Z</time></trkpt><trkpt lat="43.5648054" lon="11.4900669"><ele>215.0</ele><time>2026-04-18T12:28:38.698Z</time></trkpt><trkpt lat="43.5648471" lon="11.4901466"><ele>215.0</ele><time>2026-04-18T12:28:39.697Z</time></trkpt><trkpt lat="43.5648843" lon="11.4902237"><ele>215.0</ele><time>2026-04-18T12:28:40.697Z</time></trkpt><trkpt lat="43.5649167" lon="11.4903655"><ele>215.00000000000003</ele><time>2026-04-18T12:28:42.697Z</time></trkpt><trkpt lat="43.5648685" lon="11.4904444"><ele>215.0</ele><time>2026-04-18T12:28:44.698Z</time></trkpt><trkpt lat="43.5647814" lon="11.4904437"><ele>215.0</ele><time>2026-04-18T12:28:46.698Z</time></trkpt><trkpt lat="43.5646703" lon="11.4904237"><ele>215.0</ele><time>2026-04-18T12:28:48.697Z</time></trkpt><trkpt lat="43.5646079" lon="11.4904403"><ele>215.00000000000003</ele><time>2026-04-18T12:28:49.697Z</time></trkpt><trkpt lat="43.5645506" lon="11.4904769"><ele>215.0</ele><time>2026-04-18T12:28:50.697Z</time></trkpt><trkpt lat="43.5645039" lon="11.490538"><ele>208.6</ele><time>2026-04-18T12:28:51.697Z</time></trkpt><trkpt lat="43.5644341" lon="11.4906817"><ele>202.2</ele><time>2026-04-18T12:28:53.697Z</time></trkpt><trkpt lat="43.5644084" lon="11.4908551"><ele>195.8</ele><time>2026-04-18T12:28:55.698Z</time></trkpt><trkpt lat="43.5644076" lon="11.4909732"><ele>189.4</ele><time>2026-04-18T12:28:56.697Z</time></trkpt><trkpt lat="43.564408" lon="11.4910884"><ele>183.0</ele><time>2026-04-18T12:28:57.698Z</time></trkpt><trkpt lat="43.5644093" lon="11.4911929"><ele>182.16666666666666</ele><time>2026-04-18T12:28:58.697Z</time></trkpt><trkpt lat="43.5644078" lon="11.491302"><ele>181.33333333333334</ele><time>2026-04-18T12:28:59.698Z</time></trkpt><trkpt lat="43.5644155" lon="11.4914017"><ele>180.5</ele><time>2026-04-18T12:29:00.697Z</time></trkpt><trkpt lat="43.5644251" lon="11.4915105"><ele>179.66666666666669</ele><time>2026-04-18T12:29:01.697Z</time></trkpt><trkpt lat="43.5644275" lon="11.4916265"><ele>178.83333333333334</ele><time>2026-04-18T12:29:02.697Z</time></trkpt><trkpt lat="43.5644302" lon="11.4917396"><ele>178.0</ele><time>2026-04-18T12:29:03.697Z</time></trkpt><trkpt lat="43.5644363" lon="11.4918653"><ele>178.0</ele><time>2026-04-18T12:29:04.698Z</time></trkpt><trkpt lat="43.5644327" lon="11.4919801"><ele>178.0</ele><time>2026-04-18T12:29:05.698Z</time></trkpt><trkpt lat="43.5644332" lon="11.4921035"><ele>178.0</ele><time>2026-04-18T12:29:06.698Z</time></trkpt><trkpt lat="43.5644426" lon="11.4922331"><ele>178.0</ele><time>2026-04-18T12:29:07.698Z</time></trkpt><trkpt lat="43.5644564" lon="11.4923586"><ele>178.0</ele><time>2026-04-18T12:29:08.697Z</time></trkpt><trkpt lat="43.5644563" lon="11.4924695"><ele>178.0</ele><time>2026-04-18T12:29:09.697Z</time></trkpt><trkpt lat="43.5644555" lon="11.4925795"><ele>178.16666666666669</ele><time>2026-04-18T12:29:10.697Z</time></trkpt><trkpt lat="43.5644643" lon="11.4926748"><ele>178.33333333333334</ele><time>2026-04-18T12:29:11.697Z</time></trkpt><trkpt lat="43.5644774" lon="11.4927641"><ele>178.5</ele><time>2026-04-18T12:29:12.697Z</time></trkpt><trkpt lat="43.5645339" lon="11.4929066"><ele>178.66666666666666</ele><time>2026-04-18T12:29:14.698Z</time></trkpt><trkpt lat="43.5645862" lon="11.4930037"><ele>178.83333333333331</ele><time>2026-04-18T12:29:16.698Z</time></trkpt><trkpt lat="43.564648" lon="11.4930317"><ele>179.0</ele><time>2026-04-18T12:29:20.697Z</time></trkpt><trkpt lat="43.5647351" lon="11.4931338"><ele>177.0</ele><time>2026-04-18T12:29:23.697Z</time></trkpt><trkpt lat="43.5647808" lon="11.4931953"><ele>175.0</ele><time>2026-04-18T12:29:24.697Z</time></trkpt><trkpt lat="43.5648389" lon="11.4932614"><ele>173.0</ele><time>2026-04-18T12:29:25.698Z</time></trkpt><trkpt lat="43.564893" lon="11.4933334"><ele>171.0</ele><time>2026-04-18T12:29:26.697Z</time></trkpt><trkpt lat="43.5649308" lon="11.4934165"><ele>169.0</ele><time>2026-04-18T12:29:27.697Z</time></trkpt><trkpt lat="43.5649537" lon="11.4935193"><ele>167.0</ele><time>2026-04-18T12:29:28.697Z</time></trkpt><trkpt lat="43.5649528" lon="11.4936473"><ele>167.2</ele><time>2026-04-18T12:29:29.697Z</time></trkpt><trkpt lat="43.564942" lon="11.4937877"><ele>167.39999999999998</ele><time>2026-04-18T12:29:30.697Z</time></trkpt><trkpt lat="43.5649359" lon="11.4939279"><ele>167.60000000000002</ele><time>2026-04-18T12:29:31.697Z</time></trkpt><trkpt lat="43.5649351" lon="11.4940788"><ele>167.8</ele><time>2026-04-18T12:29:32.697Z</time></trkpt><trkpt lat="43.5649424" lon="11.4942275"><ele>168.0</ele><time>2026-04-18T12:29:33.697Z</time></trkpt><trkpt lat="43.5649511" lon="11.4943771"><ele>168.0</ele><time>2026-04-18T12:29:34.697Z</time></trkpt><trkpt lat="43.5649578" lon="11.4945248"><ele>168.0</ele><time>2026-04-18T12:29:35.697Z</time></trkpt><trkpt lat="43.5649612" lon="11.4946756"><ele>168.0</ele><time>2026-04-18T12:29:36.697Z</time></trkpt><trkpt lat="43.5649826" lon="11.494808"><ele>168.0</ele><time>2026-04-18T12:29:37.697Z</time></trkpt><trkpt lat="43.5649964" lon="11.4949397"><ele>168.0</ele><time>2026-04-18T12:29:38.697Z</time></trkpt><trkpt lat="43.5650002" lon="11.4950713"><ele>167.8</ele><time>2026-04-18T12:29:39.697Z</time></trkpt><trkpt lat="43.5649855" lon="11.4951974"><ele>167.60000000000002</ele><time>2026-04-18T12:29:40.697Z</time></trkpt><trkpt lat="43.5649635" lon="11.4953422"><ele>167.39999999999998</ele><time>2026-04-18T12:29:41.697Z</time></trkpt><trkpt lat="43.5649347" lon="11.4954735"><ele>167.2</ele><time>2026-04-18T12:29:42.697Z</time></trkpt><trkpt lat="43.5648911" lon="11.4956143"><ele>167.0</ele><time>2026-04-18T12:29:43.697Z</time></trkpt><trkpt lat="43.5648456" lon="11.4957563"><ele>167.0</ele><time>2026-04-18T12:29:44.698Z</time></trkpt><trkpt lat="43.5647825" lon="11.4959077"><ele>167.0</ele><time>2026-04-18T12:29:45.697Z</time></trkpt><trkpt lat="43.5647253" lon="11.4960648"><ele>167.0</ele><time>2026-04-18T12:29:46.698Z</time></trkpt><trkpt lat="43.5646637" lon="11.4962352"><ele>167.0</ele><time>2026-04-18T12:29:47.697Z</time></trkpt><trkpt lat="43.5646009" lon="11.4964016"><ele>165.5</ele><time>2026-04-18T12:29:48.697Z</time></trkpt><trkpt lat="43.5645338" lon="11.4965808"><ele>164.0</ele><time>2026-04-18T12:29:49.698Z</time></trkpt><trkpt lat="43.5644712" lon="11.4967525"><ele>162.5</ele><time>2026-04-18T12:29:50.697Z</time></trkpt><trkpt lat="43.5644055" lon="11.4969283"><ele>161.0</ele><time>2026-04-18T12:29:51.697Z</time></trkpt><trkpt lat="43.564339" lon="11.4971035"><ele>161.0</ele><time>2026-04-18T12:29:52.697Z</time></trkpt><trkpt lat="43.564266" lon="11.4972687"><ele>161.0</ele><time>2026-04-18T12:29:53.697Z</time></trkpt><trkpt lat="43.5641825" lon="11.4974291"><ele>161.0</ele><time>2026-04-18T12:29:54.697Z</time></trkpt><trkpt lat="43.564097" lon="11.4975821"><ele>161.0</ele><time>2026-04-18T12:29:55.693Z</time></trkpt><trkpt lat="43.5640144" lon="11.4977422"><ele>161.0</ele><time>2026-04-18T12:29:56.697Z</time></trkpt><trkpt lat="43.5639438" lon="11.4979091"><ele>161.0</ele><time>2026-04-18T12:29:57.697Z</time></trkpt><trkpt lat="43.5638835" lon="11.4980568"><ele>161.0</ele><time>2026-04-18T12:29:58.697Z</time></trkpt><trkpt lat="43.5638396" lon="11.4981913"><ele>161.0</ele><time>2026-04-18T12:29:59.698Z</time></trkpt><trkpt lat="43.5638014" lon="11.4982937"><ele>161.66666666666666</ele><time>2026-04-18T12:30:00.697Z</time></trkpt><trkpt lat="43.5637658" lon="11.4984358"><ele>162.33333333333331</ele><time>2026-04-18T12:30:02.697Z</time></trkpt><trkpt lat="43.5637347" lon="11.4985187"><ele>163.0</ele><time>2026-04-18T12:30:04.697Z</time></trkpt><trkpt lat="43.5637154" lon="11.4986338"><ele>163.66666666666666</ele><time>2026-04-18T12:30:09.697Z</time></trkpt><trkpt lat="43.563679" lon="11.4987732"><ele>164.33333333333334</ele><time>2026-04-18T12:30:11.698Z</time></trkpt><trkpt lat="43.5636513" lon="11.498872"><ele>165.0</ele><time>2026-04-18T12:30:12.697Z</time></trkpt><trkpt lat="43.5636153" lon="11.4989789"><ele>161.8</ele><time>2026-04-18T12:30:13.697Z</time></trkpt><trkpt lat="43.5635757" lon="11.4990908"><ele>158.6</ele><time>2026-04-18T12:30:14.698Z</time></trkpt><trkpt lat="43.5635286" lon="11.4992106"><ele>155.4</ele><time>2026-04-18T12:30:15.698Z</time></trkpt><trkpt lat="43.5634749" lon="11.4993454"><ele>152.2</ele><time>2026-04-18T12:30:16.698Z</time></trkpt><trkpt lat="43.5634203" lon="11.4994922"><ele>149.0</ele><time>2026-04-18T12:30:17.697Z</time></trkpt><trkpt lat="43.5633688" lon="11.499653"><ele>148.5</ele><time>2026-04-18T12:30:18.697Z</time></trkpt><trkpt lat="43.5633157" lon="11.4998197"><ele>148.0</ele><time>2026-04-18T12:30:19.697Z</time></trkpt><trkpt lat="43.5632663" lon="11.4999699"><ele>147.5</ele><time>2026-04-18T12:30:20.697Z</time></trkpt><trkpt lat="43.5632267" lon="11.5001142"><ele>147.0</ele><time>2026-04-18T12:30:21.698Z</time></trkpt><trkpt lat="43.5631841" lon="11.5002519"><ele>147.0</ele><time>2026-04-18T12:30:22.698Z</time></trkpt><trkpt lat="43.5631369" lon="11.5003933"><ele>147.0</ele><time>2026-04-18T12:30:23.697Z</time></trkpt><trkpt lat="43.5630845" lon="11.5005196"><ele>147.0</ele><time>2026-04-18T12:30:24.697Z</time></trkpt><trkpt lat="43.5630294" lon="11.500616"><ele>147.0</ele><time>2026-04-18T12:30:25.698Z</time></trkpt><trkpt lat="43.5629825" lon="11.5006993"><ele>147.0</ele><time>2026-04-18T12:30:26.697Z</time></trkpt><trkpt lat="43.5629222" lon="11.5007693"><ele>146.33333333333334</ele><time>2026-04-18T12:30:27.698Z</time></trkpt><trkpt lat="43.5628655" lon="11.5008209"><ele>145.66666666666666</ele><time>2026-04-18T12:30:28.698Z</time></trkpt><trkpt lat="43.5627977" lon="11.5008779"><ele>145.0</ele><time>2026-04-18T12:30:30.697Z</time></trkpt><trkpt lat="43.5627977" lon="11.501001"><ele>144.33333333333331</ele><time>2026-04-18T12:30:32.698Z</time></trkpt><trkpt lat="43.5628323" lon="11.5010844"><ele>143.66666666666666</ele><time>2026-04-18T12:30:33.697Z</time></trkpt><trkpt lat="43.5628885" lon="11.501179"><ele>143.0</ele><time>2026-04-18T12:30:34.697Z</time></trkpt><trkpt lat="43.5629484" lon="11.5012825"><ele>142.75</ele><time>2026-04-18T12:30:35.697Z</time></trkpt><trkpt lat="43.5630284" lon="11.5014033"><ele>142.5</ele><time>2026-04-18T12:30:36.697Z</time></trkpt><trkpt lat="43.563103" lon="11.5015394"><ele>142.25</ele><time>2026-04-18T12:30:37.698Z</time></trkpt><trkpt lat="43.5631888" lon="11.5016885"><ele>142.0</ele><time>2026-04-18T12:30:38.697Z</time></trkpt><trkpt lat="43.5632794" lon="11.5018447"><ele>142.0</ele><time>2026-04-18T12:30:39.698Z</time></trkpt><trkpt lat="43.5633674" lon="11.5020112"><ele>142.0</ele><time>2026-04-18T12:30:40.698Z</time></trkpt><trkpt lat="43.5634668" lon="11.5021861"><ele>142.0</ele><time>2026-04-18T12:30:41.697Z</time></trkpt><trkpt lat="43.5635679" lon="11.5023623"><ele>142.0</ele><time>2026-04-18T12:30:42.698Z</time></trkpt><trkpt lat="43.5636734" lon="11.5025358"><ele>142.0</ele><time>2026-04-18T12:30:43.698Z</time></trkpt><trkpt lat="43.5637889" lon="11.5027174"><ele>142.0</ele><time>2026-04-18T12:30:44.697Z</time></trkpt><trkpt lat="43.563903" lon="11.5029013"><ele>141.66666666666669</ele><time>2026-04-18T12:30:45.698Z</time></trkpt><trkpt lat="43.5640147" lon="11.5030856"><ele>141.33333333333334</ele><time>2026-04-18T12:30:46.697Z</time></trkpt><trkpt lat="43.5641413" lon="11.5032652"><ele>141.0</ele><time>2026-04-18T12:30:47.697Z</time></trkpt><trkpt lat="43.564278" lon="11.5034323"><ele>141.0</ele><time>2026-04-18T12:30:48.697Z</time></trkpt><trkpt lat="43.5644236" lon="11.5035977"><ele>141.0</ele><time>2026-04-18T12:30:49.698Z</time></trkpt><trkpt lat="43.5645755" lon="11.503762"><ele>141.0</ele><time>2026-04-18T12:30:50.697Z</time></trkpt><trkpt lat="43.5647289" lon="11.5039247"><ele>140.66666666666666</ele><time>2026-04-18T12:30:51.697Z</time></trkpt><trkpt lat="43.5648841" lon="11.5040913"><ele>140.33333333333331</ele><time>2026-04-18T12:30:52.698Z</time></trkpt><trkpt lat="43.5650357" lon="11.5042599"><ele>140.0</ele><time>2026-04-18T12:30:53.697Z</time></trkpt><trkpt lat="43.5651939" lon="11.5044358"><ele>140.0</ele><time>2026-04-18T12:30:54.697Z</time></trkpt><trkpt lat="43.5653556" lon="11.5046122"><ele>140.0</ele><time>2026-04-18T12:30:55.698Z</time></trkpt><trkpt lat="43.5655222" lon="11.5047923"><ele>140.0</ele><time>2026-04-18T12:30:56.697Z</time></trkpt><trkpt lat="43.5656926" lon="11.5049772"><ele>139.66666666666666</ele><time>2026-04-18T12:30:57.697Z</time></trkpt><trkpt lat="43.5658675" lon="11.5051672"><ele>139.33333333333334</ele><time>2026-04-18T12:30:58.697Z</time></trkpt><trkpt lat="43.5660427" lon="11.5053496"><ele>139.0</ele><time>2026-04-18T12:30:59.697Z</time></trkpt><trkpt lat="43.5662147" lon="11.5055341"><ele>139.0</ele><time>2026-04-18T12:31:00.697Z</time></trkpt><trkpt lat="43.5663865" lon="11.5057207"><ele>139.0</ele><time>2026-04-18T12:31:01.698Z</time></trkpt><trkpt lat="43.5665648" lon="11.5059009"><ele>139.0</ele><time>2026-04-18T12:31:02.697Z</time></trkpt><trkpt lat="43.5667373" lon="11.5060811"><ele>139.0</ele><time>2026-04-18T12:31:03.697Z</time></trkpt><trkpt lat="43.5669136" lon="11.506251"><ele>139.0</ele><time>2026-04-18T12:31:04.697Z</time></trkpt><trkpt lat="43.5670921" lon="11.5064187"><ele>139.0</ele><time>2026-04-18T12:31:05.697Z</time></trkpt><trkpt lat="43.5672646" lon="11.5065941"><ele>138.66666666666669</ele><time>2026-04-18T12:31:06.697Z</time></trkpt><trkpt lat="43.5674378" lon="11.5067584"><ele>138.33333333333334</ele><time>2026-04-18T12:31:07.697Z</time></trkpt><trkpt lat="43.567613" lon="11.5069176"><ele>138.0</ele><time>2026-04-18T12:31:08.697Z</time></trkpt><trkpt lat="43.5677896" lon="11.5070812"><ele>138.0</ele><time>2026-04-18T12:31:09.697Z</time></trkpt><trkpt lat="43.5679632" lon="11.5072442"><ele>138.0</ele><time>2026-04-18T12:31:10.697Z</time></trkpt><trkpt lat="43.5681409" lon="11.5074082"><ele>138.0</ele><time>2026-04-18T12:31:11.697Z</time></trkpt><trkpt lat="43.5683111" lon="11.5075776"><ele>138.0</ele><time>2026-04-18T12:31:12.698Z</time></trkpt><trkpt lat="43.5684636" lon="11.5077659"><ele>138.0</ele><time>2026-04-18T12:31:13.698Z</time></trkpt><trkpt lat="43.5686162" lon="11.5079749"><ele>138.0</ele><time>2026-04-18T12:31:14.697Z</time></trkpt><trkpt lat="43.5687609" lon="11.5082024"><ele>138.0</ele><time>2026-04-18T12:31:15.697Z</time></trkpt><trkpt lat="43.5688837" lon="11.5084363"><ele>138.0</ele><time>2026-04-18T12:31:16.697Z</time></trkpt><trkpt lat="43.568997" lon="11.5086751"><ele>138.0</ele><time>2026-04-18T12:31:17.698Z</time></trkpt><trkpt lat="43.5691139" lon="11.5089203"><ele>138.0</ele><time>2026-04-18T12:31:18.698Z</time></trkpt><trkpt lat="43.5692287" lon="11.5091643"><ele>138.0</ele><time>2026-04-18T12:31:19.698Z</time></trkpt><trkpt lat="43.5693388" lon="11.5094115"><ele>138.0</ele><time>2026-04-18T12:31:20.697Z</time></trkpt><trkpt lat="43.5694439" lon="11.5096623"><ele>137.66666666666666</ele><time>2026-04-18T12:31:21.698Z</time></trkpt><trkpt lat="43.5695538" lon="11.509909"><ele>137.33333333333331</ele><time>2026-04-18T12:31:22.697Z</time></trkpt><trkpt lat="43.5696651" lon="11.5101503"><ele>137.0</ele><time>2026-04-18T12:31:23.697Z</time></trkpt><trkpt lat="43.5697822" lon="11.5103904"><ele>137.0</ele><time>2026-04-18T12:31:24.698Z</time></trkpt><trkpt lat="43.5699077" lon="11.5106178"><ele>137.0</ele><time>2026-04-18T12:31:25.697Z</time></trkpt><trkpt lat="43.570036" lon="11.5108334"><ele>137.0</ele><time>2026-04-18T12:31:26.697Z</time></trkpt><trkpt lat="43.5701717" lon="11.5110462"><ele>137.33333333333331</ele><time>2026-04-18T12:31:27.697Z</time></trkpt><trkpt lat="43.5703126" lon="11.5112568"><ele>137.66666666666666</ele><time>2026-04-18T12:31:28.697Z</time></trkpt><trkpt lat="43.5704507" lon="11.5114585"><ele>138.0</ele><time>2026-04-18T12:31:29.697Z</time></trkpt><trkpt lat="43.5705842" lon="11.511676"><ele>137.66666666666666</ele><time>2026-04-18T12:31:30.697Z</time></trkpt><trkpt lat="43.5707108" lon="11.5119014"><ele>137.33333333333331</ele><time>2026-04-18T12:31:31.697Z</time></trkpt><trkpt lat="43.5708267" lon="11.5121398"><ele>137.0</ele><time>2026-04-18T12:31:32.697Z</time></trkpt><trkpt lat="43.5709524" lon="11.5123638"><ele>137.0</ele><time>2026-04-18T12:31:33.697Z</time></trkpt><trkpt lat="43.5711024" lon="11.5125721"><ele>137.0</ele><time>2026-04-18T12:31:34.697Z</time></trkpt><trkpt lat="43.5712684" lon="11.5127645"><ele>137.0</ele><time>2026-04-18T12:31:35.697Z</time></trkpt><trkpt lat="43.5714409" lon="11.5129515"><ele>136.33333333333331</ele><time>2026-04-18T12:31:36.697Z</time></trkpt><trkpt lat="43.571611" lon="11.5131339"><ele>135.66666666666666</ele><time>2026-04-18T12:31:37.697Z</time></trkpt><trkpt lat="43.5717696" lon="11.5133035"><ele>135.0</ele><time>2026-04-18T12:31:38.698Z</time></trkpt><trkpt lat="43.5719181" lon="11.5134695"><ele>134.66666666666666</ele><time>2026-04-18T12:31:39.698Z</time></trkpt><trkpt lat="43.5720699" lon="11.5136362"><ele>134.33333333333331</ele><time>2026-04-18T12:31:40.697Z</time></trkpt><trkpt lat="43.5722166" lon="11.5138067"><ele>134.0</ele><time>2026-04-18T12:31:41.698Z</time></trkpt><trkpt lat="43.5723399" lon="11.514"><ele>133.66666666666666</ele><time>2026-04-18T12:31:42.697Z</time></trkpt><trkpt lat="43.5724386" lon="11.5142017"><ele>133.33333333333334</ele><time>2026-04-18T12:31:43.697Z</time></trkpt><trkpt lat="43.5725243" lon="11.5144082"><ele>133.0</ele><time>2026-04-18T12:31:44.697Z</time></trkpt><trkpt lat="43.5725893" lon="11.5146124"><ele>133.0</ele><time>2026-04-18T12:31:45.697Z</time></trkpt><trkpt lat="43.5726313" lon="11.5148254"><ele>133.0</ele><time>2026-04-18T12:31:46.697Z</time></trkpt><trkpt lat="43.572676" lon="11.5150142"><ele>133.0</ele><time>2026-04-18T12:31:47.698Z</time></trkpt><trkpt lat="43.5727302" lon="11.5151846"><ele>133.0</ele><time>2026-04-18T12:31:48.697Z</time></trkpt><trkpt lat="43.5727892" lon="11.5153457"><ele>133.0</ele><time>2026-04-18T12:31:49.697Z</time></trkpt><trkpt lat="43.5728413" lon="11.5154948"><ele>133.0</ele><time>2026-04-18T12:31:50.697Z</time></trkpt><trkpt lat="43.5728999" lon="11.5156404"><ele>133.0</ele><time>2026-04-18T12:31:51.697Z</time></trkpt><trkpt lat="43.5729516" lon="11.5157747"><ele>133.0</ele><time>2026-04-18T12:31:52.698Z</time></trkpt><trkpt lat="43.5730085" lon="11.5158943"><ele>133.0</ele><time>2026-04-18T12:31:53.697Z</time></trkpt><trkpt lat="43.5730736" lon="11.516003"><ele>133.0</ele><time>2026-04-18T12:31:54.697Z</time></trkpt><trkpt lat="43.5731454" lon="11.5160945"><ele>133.0</ele><time>2026-04-18T12:31:55.697Z</time></trkpt><trkpt lat="43.573215" lon="11.5161733"><ele>133.0</ele><time>2026-04-18T12:31:56.697Z</time></trkpt><trkpt lat="43.5732863" lon="11.516229"><ele>133.0</ele><time>2026-04-18T12:31:57.698Z</time></trkpt><trkpt lat="43.5733434" lon="11.5162715"><ele>133.0</ele><time>2026-04-18T12:31:58.697Z</time></trkpt><trkpt lat="43.573381" lon="11.516359"><ele>133.20000000000002</ele><time>2026-04-18T12:32:34.697Z</time></trkpt><trkpt lat="43.5733288" lon="11.5165053"><ele>133.4</ele><time>2026-04-18T12:32:36.697Z</time></trkpt><trkpt lat="43.5732657" lon="11.5166468"><ele>133.60000000000002</ele><time>2026-04-18T12:32:38.697Z</time></trkpt><trkpt lat="43.57329" lon="11.5167319"><ele>133.8</ele><time>2026-04-18T12:32:39.698Z</time></trkpt><trkpt lat="43.5733436" lon="11.5168137"><ele>134.0</ele><time>2026-04-18T12:32:40.697Z</time></trkpt><trkpt lat="43.5734077" lon="11.5168707"><ele>134.0</ele><time>2026-04-18T12:32:41.697Z</time></trkpt><trkpt lat="43.5734645" lon="11.5169235"><ele>134.0</ele><time>2026-04-18T12:32:42.697Z</time></trkpt><trkpt lat="43.5735795" lon="11.5169401"><ele>134.0</ele><time>2026-04-18T12:32:44.697Z</time></trkpt><trkpt lat="43.5736351" lon="11.5168609"><ele>134.0</ele><time>2026-04-18T12:32:45.697Z</time></trkpt><trkpt lat="43.573683" lon="11.5167363"><ele>134.0</ele><time>2026-04-18T12:32:46.697Z</time></trkpt><trkpt lat="43.5737069" lon="11.5165848"><ele>133.75</ele><time>2026-04-18T12:32:47.698Z</time></trkpt><trkpt lat="43.5737343" lon="11.5164102"><ele>133.5</ele><time>2026-04-18T12:32:48.697Z</time></trkpt><trkpt lat="43.5737821" lon="11.5162241"><ele>133.25</ele><time>2026-04-18T12:32:49.697Z</time></trkpt><trkpt lat="43.5738273" lon="11.5160154"><ele>133.0</ele><time>2026-04-18T12:32:50.697Z</time></trkpt><trkpt lat="43.5738862" lon="11.515799"><ele>133.66666666666669</ele><time>2026-04-18T12:32:51.697Z</time></trkpt><trkpt lat="43.5739425" lon="11.5155717"><ele>134.33333333333334</ele><time>2026-04-18T12:32:52.698Z</time></trkpt><trkpt lat="43.5740025" lon="11.5153495"><ele>135.0</ele><time>2026-04-18T12:32:53.697Z</time></trkpt><trkpt lat="43.5740728" lon="11.5151286"><ele>135.0</ele><time>2026-04-18T12:32:54.697Z</time></trkpt><trkpt lat="43.5741529" lon="11.5149237"><ele>135.0</ele><time>2026-04-18T12:32:55.697Z</time></trkpt><trkpt lat="43.574247" lon="11.5147248"><ele>135.0</ele><time>2026-04-18T12:32:56.697Z</time></trkpt><trkpt lat="43.5743451" lon="11.5145469"><ele>135.33333333333334</ele><time>2026-04-18T12:32:57.697Z</time></trkpt><trkpt lat="43.5744537" lon="11.5143755"><ele>135.66666666666669</ele><time>2026-04-18T12:32:58.697Z</time></trkpt><trkpt lat="43.574574" lon="11.5142059"><ele>136.0</ele><time>2026-04-18T12:32:59.697Z</time></trkpt><trkpt lat="43.5746935" lon="11.5140372"><ele>135.66666666666669</ele><time>2026-04-18T12:33:00.697Z</time></trkpt><trkpt lat="43.5748204" lon="11.5138718"><ele>135.33333333333334</ele><time>2026-04-18T12:33:01.697Z</time></trkpt><trkpt lat="43.5749566" lon="11.5137084"><ele>135.0</ele><time>2026-04-18T12:33:02.698Z</time></trkpt><trkpt lat="43.5750955" lon="11.5135498"><ele>135.0</ele><time>2026-04-18T12:33:03.698Z</time></trkpt><trkpt lat="43.5752365" lon="11.5133859"><ele>135.0</ele><time>2026-04-18T12:33:04.698Z</time></trkpt><trkpt lat="43.5753733" lon="11.5132182"><ele>135.0</ele><time>2026-04-18T12:33:05.698Z</time></trkpt><trkpt lat="43.5755058" lon="11.5130566"><ele>134.33333333333334</ele><time>2026-04-18T12:33:06.697Z</time></trkpt><trkpt lat="43.5756304" lon="11.5129115"><ele>133.66666666666669</ele><time>2026-04-18T12:33:07.697Z</time></trkpt><trkpt lat="43.5757413" lon="11.5127685"><ele>133.0</ele><time>2026-04-18T12:33:08.698Z</time></trkpt><trkpt lat="43.5758459" lon="11.5126361"><ele>133.0</ele><time>2026-04-18T12:33:09.697Z</time></trkpt><trkpt lat="43.5759283" lon="11.5125003"><ele>133.0</ele><time>2026-04-18T12:33:10.697Z</time></trkpt><trkpt lat="43.5760182" lon="11.5123554"><ele>133.0</ele><time>2026-04-18T12:33:11.697Z</time></trkpt><trkpt lat="43.5761087" lon="11.5122195"><ele>133.0</ele><time>2026-04-18T12:33:12.698Z</time></trkpt><trkpt lat="43.5762013" lon="11.5120941"><ele>132.75</ele><time>2026-04-18T12:33:13.697Z</time></trkpt><trkpt lat="43.5762911" lon="11.5119706"><ele>132.5</ele><time>2026-04-18T12:33:14.697Z</time></trkpt><trkpt lat="43.5763848" lon="11.5118698"><ele>132.25</ele><time>2026-04-18T12:33:15.697Z</time></trkpt><trkpt lat="43.5764728" lon="11.5117774"><ele>132.0</ele><time>2026-04-18T12:33:16.698Z</time></trkpt><trkpt lat="43.5765518" lon="11.5116802"><ele>132.0</ele><time>2026-04-18T12:33:17.697Z</time></trkpt><trkpt lat="43.5766364" lon="11.511586"><ele>132.0</ele><time>2026-04-18T12:33:18.698Z</time></trkpt><trkpt lat="43.5767262" lon="11.5115069"><ele>132.0</ele><time>2026-04-18T12:33:19.697Z</time></trkpt><trkpt lat="43.5768163" lon="11.5114252"><ele>132.0</ele><time>2026-04-18T12:33:20.698Z</time></trkpt><trkpt lat="43.5769135" lon="11.5113452"><ele>132.0</ele><time>2026-04-18T12:33:21.697Z</time></trkpt><trkpt lat="43.577003" lon="11.5112696"><ele>131.79999999999998</ele><time>2026-04-18T12:33:22.697Z</time></trkpt><trkpt lat="43.5770889" lon="11.5112037"><ele>131.6</ele><time>2026-04-18T12:33:23.698Z</time></trkpt><trkpt lat="43.5771644" lon="11.5111431"><ele>131.39999999999998</ele><time>2026-04-18T12:33:24.697Z</time></trkpt><trkpt lat="43.5772438" lon="11.5110799"><ele>131.2</ele><time>2026-04-18T12:33:25.697Z</time></trkpt><trkpt lat="43.5773273" lon="11.5110101"><ele>131.0</ele><time>2026-04-18T12:33:26.697Z</time></trkpt><trkpt lat="43.5774223" lon="11.5109519"><ele>131.0</ele><time>2026-04-18T12:33:27.698Z</time></trkpt><trkpt lat="43.5775279" lon="11.5108991"><ele>131.0</ele><time>2026-04-18T12:33:28.698Z</time></trkpt><trkpt lat="43.5776324" lon="11.5108569"><ele>131.0</ele><time>2026-04-18T12:33:29.698Z</time></trkpt><trkpt lat="43.5777381" lon="11.5108204"><ele>131.0</ele><time>2026-04-18T12:33:30.697Z</time></trkpt><trkpt lat="43.5778411" lon="11.5107882"><ele>131.0</ele><time>2026-04-18T12:33:31.697Z</time></trkpt><trkpt lat="43.57794" lon="11.5107594"><ele>131.16666666666666</ele><time>2026-04-18T12:33:32.697Z</time></trkpt><trkpt lat="43.578031" lon="11.5107359"><ele>131.33333333333331</ele><time>2026-04-18T12:33:33.698Z</time></trkpt><trkpt lat="43.5781176" lon="11.5107189"><ele>131.5</ele><time>2026-04-18T12:33:34.697Z</time></trkpt><trkpt lat="43.5781946" lon="11.5107124"><ele>131.66666666666666</ele><time>2026-04-18T12:33:35.697Z</time></trkpt><trkpt lat="43.5782672" lon="11.510701"><ele>131.83333333333334</ele><time>2026-04-18T12:33:36.697Z</time></trkpt><trkpt lat="43.5783379" lon="11.5106799"><ele>132.0</ele><time>2026-04-18T12:33:37.697Z</time></trkpt><trkpt lat="43.5784064" lon="11.5106552"><ele>132.0</ele><time>2026-04-18T12:33:38.698Z</time></trkpt><trkpt lat="43.5784772" lon="11.5106373"><ele>132.0</ele><time>2026-04-18T12:33:39.697Z</time></trkpt><trkpt lat="43.5785433" lon="11.5106242"><ele>132.0</ele><time>2026-04-18T12:33:40.698Z</time></trkpt><trkpt lat="43.5786066" lon="11.5106073"><ele>132.0</ele><time>2026-04-18T12:33:41.698Z</time></trkpt><trkpt lat="43.5787276" lon="11.5105702"><ele>132.0</ele><time>2026-04-18T12:33:43.697Z</time></trkpt><trkpt lat="43.5788175" lon="11.5105545"><ele>132.0</ele><time>2026-04-18T12:33:45.698Z</time></trkpt><trkpt lat="43.5789057" lon="11.5105941"><ele>132.0</ele><time>2026-04-18T12:33:48.697Z</time></trkpt><trkpt lat="43.578995" lon="11.5106016"><ele>132.0</ele><time>2026-04-18T12:33:50.697Z</time></trkpt><trkpt lat="43.5790636" lon="11.5106201"><ele>132.0</ele><time>2026-04-18T12:34:09.697Z</time></trkpt><trkpt lat="43.5791372" lon="11.5106256"><ele>132.0</ele><time>2026-04-18T12:34:10.698Z</time></trkpt><trkpt lat="43.5792317" lon="11.5106167"><ele>132.0</ele><time>2026-04-18T12:34:11.698Z</time></trkpt><trkpt lat="43.5793799" lon="11.5106196"><ele>131.33333333333334</ele><time>2026-04-18T12:34:12.698Z</time></trkpt><trkpt lat="43.5795256" lon="11.5106284"><ele>130.66666666666669</ele><time>2026-04-18T12:34:13.698Z</time></trkpt><trkpt lat="43.5796837" lon="11.5105945"><ele>130.0</ele><time>2026-04-18T12:34:14.697Z</time></trkpt><trkpt lat="43.5798346" lon="11.5104803"><ele>131.33333333333334</ele><time>2026-04-18T12:34:15.698Z</time></trkpt><trkpt lat="43.5799904" lon="11.5103339"><ele>132.66666666666666</ele><time>2026-04-18T12:34:16.697Z</time></trkpt><trkpt lat="43.5801554" lon="11.5101817"><ele>134.0</ele><time>2026-04-18T12:34:17.697Z</time></trkpt><trkpt lat="43.5803222" lon="11.5100375"><ele>132.66666666666666</ele><time>2026-04-18T12:34:18.697Z</time></trkpt><trkpt lat="43.580501" lon="11.5098807"><ele>131.33333333333334</ele><time>2026-04-18T12:34:19.698Z</time></trkpt><trkpt lat="43.5806933" lon="11.5097441"><ele>130.0</ele><time>2026-04-18T12:34:20.697Z</time></trkpt><trkpt lat="43.5808812" lon="11.509616"><ele>130.66666666666669</ele><time>2026-04-18T12:34:21.697Z</time></trkpt><trkpt lat="43.5810737" lon="11.5094915"><ele>131.33333333333334</ele><time>2026-04-18T12:34:22.697Z</time></trkpt><trkpt lat="43.5812696" lon="11.5093872"><ele>132.0</ele><time>2026-04-18T12:34:23.697Z</time></trkpt><trkpt lat="43.5814658" lon="11.509294"><ele>132.0</ele><time>2026-04-18T12:34:24.698Z</time></trkpt><trkpt lat="43.5816595" lon="11.5091994"><ele>132.0</ele><time>2026-04-18T12:34:25.697Z</time></trkpt><trkpt lat="43.5818377" lon="11.5091002"><ele>132.0</ele><time>2026-04-18T12:34:26.697Z</time></trkpt><trkpt lat="43.5819861" lon="11.5089818"><ele>131.66666666666666</ele><time>2026-04-18T12:34:27.698Z</time></trkpt><trkpt lat="43.5821237" lon="11.5088767"><ele>131.33333333333331</ele><time>2026-04-18T12:34:28.697Z</time></trkpt><trkpt lat="43.5822541" lon="11.5087748"><ele>131.0</ele><time>2026-04-18T12:34:29.697Z</time></trkpt><trkpt lat="43.5823839" lon="11.5086649"><ele>130.75</ele><time>2026-04-18T12:34:30.697Z</time></trkpt><trkpt lat="43.5825153" lon="11.5085611"><ele>130.5</ele><time>2026-04-18T12:34:31.697Z</time></trkpt><trkpt lat="43.5826383" lon="11.5084647"><ele>130.25</ele><time>2026-04-18T12:34:32.697Z</time></trkpt><trkpt lat="43.5827523" lon="11.5083768"><ele>130.0</ele><time>2026-04-18T12:34:33.698Z</time></trkpt><trkpt lat="43.5828664" lon="11.5083091"><ele>130.0</ele><time>2026-04-18T12:34:34.697Z</time></trkpt><trkpt lat="43.5829777" lon="11.5082904"><ele>130.0</ele><time>2026-04-18T12:34:35.697Z</time></trkpt><trkpt lat="43.5830858" lon="11.5083038"><ele>130.0</ele><time>2026-04-18T12:34:36.697Z</time></trkpt><trkpt lat="43.583183" lon="11.5083442"><ele>130.0</ele><time>2026-04-18T12:34:37.697Z</time></trkpt><trkpt lat="43.5832701" lon="11.5083716"><ele>130.0</ele><time>2026-04-18T12:34:38.698Z</time></trkpt><trkpt lat="43.5833394" lon="11.5083664"><ele>130.0</ele><time>2026-04-18T12:34:39.697Z</time></trkpt><trkpt lat="43.5834601" lon="11.50831"><ele>130.0</ele><time>2026-04-18T12:34:41.697Z</time></trkpt><trkpt lat="43.5835165" lon="11.5082281"><ele>130.0</ele><time>2026-04-18T12:34:42.697Z</time></trkpt><trkpt lat="43.5835746" lon="11.5081049"><ele>130.0</ele><time>2026-04-18T12:34:43.698Z</time></trkpt><trkpt lat="43.583634" lon="11.5079366"><ele>129.33333333333334</ele><time>2026-04-18T12:34:44.698Z</time></trkpt><trkpt lat="43.5836947" lon="11.5077573"><ele>128.66666666666666</ele><time>2026-04-18T12:34:45.697Z</time></trkpt><trkpt lat="43.5837707" lon="11.5075696"><ele>128.0</ele><time>2026-04-18T12:34:46.697Z</time></trkpt><trkpt lat="43.5838657" lon="11.5073682"><ele>128.0</ele><time>2026-04-18T12:34:47.698Z</time></trkpt><trkpt lat="43.5839744" lon="11.5071487"><ele>128.0</ele><time>2026-04-18T12:34:48.698Z</time></trkpt><trkpt lat="43.5840865" lon="11.5069199"><ele>128.0</ele><time>2026-04-18T12:34:49.697Z</time></trkpt><trkpt lat="43.5841981" lon="11.5066945"><ele>128.0</ele><time>2026-04-18T12:34:50.697Z</time></trkpt><trkpt lat="43.5843068" lon="11.5064604"><ele>128.0</ele><time>2026-04-18T12:34:51.697Z</time></trkpt><trkpt lat="43.5844171" lon="11.5062202"><ele>128.0</ele><time>2026-04-18T12:34:52.697Z</time></trkpt><trkpt lat="43.5845479" lon="11.505967"><ele>128.0</ele><time>2026-04-18T12:34:53.697Z</time></trkpt><trkpt lat="43.5846794" lon="11.5057206"><ele>128.0</ele><time>2026-04-18T12:34:54.697Z</time></trkpt><trkpt lat="43.5848234" lon="11.5054753"><ele>129.0</ele><time>2026-04-18T12:34:55.697Z</time></trkpt><trkpt lat="43.5849801" lon="11.5052595"><ele>130.0</ele><time>2026-04-18T12:34:56.698Z</time></trkpt><trkpt lat="43.5851468" lon="11.5050424"><ele>130.0</ele><time>2026-04-18T12:34:57.697Z</time></trkpt><trkpt lat="43.5853266" lon="11.504843"><ele>130.0</ele><time>2026-04-18T12:34:58.697Z</time></trkpt><trkpt lat="43.5855199" lon="11.5046662"><ele>130.0</ele><time>2026-04-18T12:34:59.697Z</time></trkpt><trkpt lat="43.5857284" lon="11.5045043"><ele>130.0</ele><time>2026-04-18T12:35:00.697Z</time></trkpt><trkpt lat="43.5859337" lon="11.5043774"><ele>130.0</ele><time>2026-04-18T12:35:01.697Z</time></trkpt><trkpt lat="43.5861507" lon="11.5042798"><ele>130.0</ele><time>2026-04-18T12:35:02.697Z</time></trkpt><trkpt lat="43.5863738" lon="11.5042033"><ele>129.66666666666669</ele><time>2026-04-18T12:35:03.698Z</time></trkpt><trkpt lat="43.5865863" lon="11.5041143"><ele>129.33333333333334</ele><time>2026-04-18T12:35:04.697Z</time></trkpt><trkpt lat="43.5867878" lon="11.503993"><ele>129.0</ele><time>2026-04-18T12:35:05.697Z</time></trkpt><trkpt lat="43.5869772" lon="11.5038264"><ele>129.33333333333334</ele><time>2026-04-18T12:35:06.697Z</time></trkpt><trkpt lat="43.5871484" lon="11.5036261"><ele>129.66666666666669</ele><time>2026-04-18T12:35:07.698Z</time></trkpt><trkpt lat="43.5873137" lon="11.5034393"><ele>130.0</ele><time>2026-04-18T12:35:08.698Z</time></trkpt><trkpt lat="43.5874798" lon="11.5032639"><ele>130.0</ele><time>2026-04-18T12:35:09.697Z</time></trkpt><trkpt lat="43.5876347" lon="11.5030891"><ele>130.0</ele><time>2026-04-18T12:35:10.698Z</time></trkpt><trkpt lat="43.5877961" lon="11.502926"><ele>130.0</ele><time>2026-04-18T12:35:11.697Z</time></trkpt><trkpt lat="43.5879696" lon="11.502754"><ele>130.33333333333334</ele><time>2026-04-18T12:35:12.698Z</time></trkpt><trkpt lat="43.5881423" lon="11.5025794"><ele>130.66666666666666</ele><time>2026-04-18T12:35:13.697Z</time></trkpt><trkpt lat="43.5883153" lon="11.5024104"><ele>131.0</ele><time>2026-04-18T12:35:14.697Z</time></trkpt><trkpt lat="43.58851" lon="11.5023059"><ele>130.33333333333331</ele><time>2026-04-18T12:35:15.697Z</time></trkpt><trkpt lat="43.5887211" lon="11.5022374"><ele>129.66666666666666</ele><time>2026-04-18T12:35:16.698Z</time></trkpt><trkpt lat="43.5889402" lon="11.5022026"><ele>129.0</ele><time>2026-04-18T12:35:17.697Z</time></trkpt><trkpt lat="43.5891737" lon="11.5021934"><ele>129.0</ele><time>2026-04-18T12:35:18.697Z</time></trkpt><trkpt lat="43.5894094" lon="11.5021787"><ele>129.0</ele><time>2026-04-18T12:35:19.697Z</time></trkpt><trkpt lat="43.5896417" lon="11.5021773"><ele>128.5</ele><time>2026-04-18T12:35:20.697Z</time></trkpt><trkpt lat="43.5898779" lon="11.5021656"><ele>128.0</ele><time>2026-04-18T12:35:21.697Z</time></trkpt><trkpt lat="43.5901056" lon="11.5021484"><ele>128.0</ele><time>2026-04-18T12:35:22.697Z</time></trkpt><trkpt lat="43.5903365" lon="11.5021464"><ele>128.0</ele><time>2026-04-18T12:35:23.698Z</time></trkpt><trkpt lat="43.590579" lon="11.5021464"><ele>127.5</ele><time>2026-04-18T12:35:24.697Z</time></trkpt><trkpt lat="43.5908173" lon="11.5021463"><ele>127.0</ele><time>2026-04-18T12:35:25.697Z</time></trkpt><trkpt lat="43.5910526" lon="11.5021485"><ele>127.0</ele><time>2026-04-18T12:35:26.697Z</time></trkpt><trkpt lat="43.5912883" lon="11.5021608"><ele>127.0</ele><time>2026-04-18T12:35:27.698Z</time></trkpt><trkpt lat="43.5915214" lon="11.5021649"><ele>127.0</ele><time>2026-04-18T12:35:28.698Z</time></trkpt><trkpt lat="43.5917507" lon="11.5021299"><ele>127.0</ele><time>2026-04-18T12:35:29.698Z</time></trkpt><trkpt lat="43.5919743" lon="11.5020225"><ele>129.0</ele><time>2026-04-18T12:35:30.697Z</time></trkpt><trkpt lat="43.59217" lon="11.5018643"><ele>131.0</ele><time>2026-04-18T12:35:31.697Z</time></trkpt><trkpt lat="43.5923514" lon="11.5016619"><ele>131.0</ele><time>2026-04-18T12:35:32.698Z</time></trkpt><trkpt lat="43.5925404" lon="11.501466"><ele>131.0</ele><time>2026-04-18T12:35:33.698Z</time></trkpt><trkpt lat="43.5927388" lon="11.5012753"><ele>129.5</ele><time>2026-04-18T12:35:34.697Z</time></trkpt><trkpt lat="43.5929409" lon="11.5011014"><ele>128.0</ele><time>2026-04-18T12:35:35.697Z</time></trkpt><trkpt lat="43.5931397" lon="11.5009264"><ele>128.0</ele><time>2026-04-18T12:35:36.698Z</time></trkpt><trkpt lat="43.5933247" lon="11.5007596"><ele>128.0</ele><time>2026-04-18T12:35:37.697Z</time></trkpt><trkpt lat="43.5935134" lon="11.5005854"><ele>128.0</ele><time>2026-04-18T12:35:38.697Z</time></trkpt><trkpt lat="43.5936995" lon="11.5003944"><ele>128.0</ele><time>2026-04-18T12:35:39.697Z</time></trkpt><trkpt lat="43.5938714" lon="11.5001799"><ele>128.0</ele><time>2026-04-18T12:35:40.697Z</time></trkpt><trkpt lat="43.5940048" lon="11.4999535"><ele>128.0</ele><time>2026-04-18T12:35:41.697Z</time></trkpt><trkpt lat="43.5941064" lon="11.4997066"><ele>128.66666666666666</ele><time>2026-04-18T12:35:42.697Z</time></trkpt><trkpt lat="43.5942061" lon="11.499493"><ele>129.33333333333334</ele><time>2026-04-18T12:35:43.697Z</time></trkpt><trkpt lat="43.594305" lon="11.4992672"><ele>130.0</ele><time>2026-04-18T12:35:44.697Z</time></trkpt><trkpt lat="43.5944137" lon="11.4990321"><ele>130.0</ele><time>2026-04-18T12:35:45.697Z</time></trkpt><trkpt lat="43.5945271" lon="11.4987873"><ele>130.0</ele><time>2026-04-18T12:35:46.697Z</time></trkpt><trkpt lat="43.5946366" lon="11.4985528"><ele>130.0</ele><time>2026-04-18T12:35:47.697Z</time></trkpt><trkpt lat="43.59474" lon="11.4983336"><ele>130.0</ele><time>2026-04-18T12:35:48.697Z</time></trkpt><trkpt lat="43.5948323" lon="11.4981276"><ele>130.0</ele><time>2026-04-18T12:35:49.698Z</time></trkpt><trkpt lat="43.594903" lon="11.497925"><ele>130.0</ele><time>2026-04-18T12:35:50.697Z</time></trkpt><trkpt lat="43.5949892" lon="11.4977281"><ele>130.0</ele><time>2026-04-18T12:35:51.698Z</time></trkpt><trkpt lat="43.5950954" lon="11.4975165"><ele>130.0</ele><time>2026-04-18T12:35:52.697Z</time></trkpt><trkpt lat="43.595231" lon="11.4973147"><ele>130.0</ele><time>2026-04-18T12:35:53.697Z</time></trkpt><trkpt lat="43.5953683" lon="11.4971647"><ele>130.66666666666669</ele><time>2026-04-18T12:35:54.697Z</time></trkpt><trkpt lat="43.5955024" lon="11.4970135"><ele>131.33333333333334</ele><time>2026-04-18T12:35:55.697Z</time></trkpt><trkpt lat="43.5956549" lon="11.4968421"><ele>132.0</ele><time>2026-04-18T12:35:56.697Z</time></trkpt><trkpt lat="43.5958242" lon="11.4966648"><ele>132.0</ele><time>2026-04-18T12:35:57.697Z</time></trkpt><trkpt lat="43.5959708" lon="11.4964803"><ele>132.0</ele><time>2026-04-18T12:35:58.697Z</time></trkpt><trkpt lat="43.5960946" lon="11.4962629"><ele>132.0</ele><time>2026-04-18T12:35:59.697Z</time></trkpt><trkpt lat="43.5962098" lon="11.4960027"><ele>130.5</ele><time>2026-04-18T12:36:00.697Z</time></trkpt><trkpt lat="43.5963356" lon="11.4957356"><ele>129.0</ele><time>2026-04-18T12:36:01.697Z</time></trkpt><trkpt lat="43.5964727" lon="11.4954586"><ele>129.5</ele><time>2026-04-18T12:36:02.698Z</time></trkpt><trkpt lat="43.5966002" lon="11.495178"><ele>130.0</ele><time>2026-04-18T12:36:03.697Z</time></trkpt><trkpt lat="43.5967213" lon="11.4949009"><ele>130.0</ele><time>2026-04-18T12:36:04.697Z</time></trkpt><trkpt lat="43.5968382" lon="11.4946149"><ele>130.0</ele><time>2026-04-18T12:36:05.697Z</time></trkpt><trkpt lat="43.5969632" lon="11.4943388"><ele>129.0</ele><time>2026-04-18T12:36:06.697Z</time></trkpt><trkpt lat="43.5971195" lon="11.4940999"><ele>128.0</ele><time>2026-04-18T12:36:07.697Z</time></trkpt><trkpt lat="43.5973092" lon="11.4939003"><ele>130.0</ele><time>2026-04-18T12:36:08.697Z</time></trkpt><trkpt lat="43.5975222" lon="11.4937019"><ele>132.0</ele><time>2026-04-18T12:36:09.697Z</time></trkpt><trkpt lat="43.597738" lon="11.4934991"><ele>130.0</ele><time>2026-04-18T12:36:10.697Z</time></trkpt><trkpt lat="43.59794" lon="11.4932861"><ele>128.0</ele><time>2026-04-18T12:36:11.698Z</time></trkpt><trkpt lat="43.5981405" lon="11.4930666"><ele>128.5</ele><time>2026-04-18T12:36:12.697Z</time></trkpt><trkpt lat="43.5983344" lon="11.4928441"><ele>129.0</ele><time>2026-04-18T12:36:13.697Z</time></trkpt><trkpt lat="43.5985247" lon="11.4926256"><ele>126.5</ele><time>2026-04-18T12:36:14.697Z</time></trkpt><trkpt lat="43.5987155" lon="11.4924181"><ele>124.0</ele><time>2026-04-18T12:36:15.697Z</time></trkpt><trkpt lat="43.5989138" lon="11.4922307"><ele>125.66666666666667</ele><time>2026-04-18T12:36:16.698Z</time></trkpt><trkpt lat="43.5991042" lon="11.4920586"><ele>127.33333333333334</ele><time>2026-04-18T12:36:17.697Z</time></trkpt><trkpt lat="43.5992907" lon="11.4919002"><ele>129.0</ele><time>2026-04-18T12:36:18.697Z</time></trkpt><trkpt lat="43.5994714" lon="11.4917527"><ele>128.66666666666666</ele><time>2026-04-18T12:36:19.697Z</time></trkpt><trkpt lat="43.5996408" lon="11.4916242"><ele>128.33333333333331</ele><time>2026-04-18T12:36:20.697Z</time></trkpt><trkpt lat="43.5998047" lon="11.4915004"><ele>128.0</ele><time>2026-04-18T12:36:21.697Z</time></trkpt><trkpt lat="43.599955" lon="11.4913697"><ele>128.25</ele><time>2026-04-18T12:36:22.697Z</time></trkpt><trkpt lat="43.6000955" lon="11.4912425"><ele>128.5</ele><time>2026-04-18T12:36:23.697Z</time></trkpt><trkpt lat="43.6002098" lon="11.4911356"><ele>128.75</ele><time>2026-04-18T12:36:24.697Z</time></trkpt><trkpt lat="43.6003091" lon="11.4910367"><ele>129.0</ele><time>2026-04-18T12:36:25.697Z</time></trkpt><trkpt lat="43.6003795" lon="11.4909259"><ele>128.75</ele><time>2026-04-18T12:36:26.697Z</time></trkpt><trkpt lat="43.6004572" lon="11.4908091"><ele>128.5</ele><time>2026-04-18T12:36:27.697Z</time></trkpt><trkpt lat="43.600543" lon="11.4906791"><ele>128.25</ele><time>2026-04-18T12:36:28.697Z</time></trkpt><trkpt lat="43.6006312" lon="11.4905391"><ele>128.0</ele><time>2026-04-18T12:36:29.697Z</time></trkpt><trkpt lat="43.6007296" lon="11.4904008"><ele>128.0</ele><time>2026-04-18T12:36:30.697Z</time></trkpt><trkpt lat="43.6008234" lon="11.4902471"><ele>128.0</ele><time>2026-04-18T12:36:31.698Z</time></trkpt><trkpt lat="43.6009277" lon="11.4900982"><ele>128.0</ele><time>2026-04-18T12:36:32.698Z</time></trkpt><trkpt lat="43.6010441" lon="11.4899549"><ele>128.0</ele><time>2026-04-18T12:36:33.697Z</time></trkpt><trkpt lat="43.6011566" lon="11.4898035"><ele>128.0</ele><time>2026-04-18T12:36:34.698Z</time></trkpt><trkpt lat="43.6012764" lon="11.4896493"><ele>128.0</ele><time>2026-04-18T12:36:35.698Z</time></trkpt><trkpt lat="43.6014047" lon="11.4895029"><ele>130.33333333333331</ele><time>2026-04-18T12:36:36.697Z</time></trkpt><trkpt lat="43.6015541" lon="11.4893744"><ele>132.66666666666666</ele><time>2026-04-18T12:36:37.697Z</time></trkpt><trkpt lat="43.6017263" lon="11.4893193"><ele>135.0</ele><time>2026-04-18T12:36:38.697Z</time></trkpt><trkpt lat="43.6019047" lon="11.4893061"><ele>135.66666666666666</ele><time>2026-04-18T12:36:39.697Z</time></trkpt><trkpt lat="43.6020871" lon="11.4893165"><ele>136.33333333333331</ele><time>2026-04-18T12:36:40.697Z</time></trkpt><trkpt lat="43.6022722" lon="11.4893376"><ele>137.0</ele><time>2026-04-18T12:36:41.698Z</time></trkpt><trkpt lat="43.6024585" lon="11.4893582"><ele>137.0</ele><time>2026-04-18T12:36:42.697Z</time></trkpt><trkpt lat="43.6026496" lon="11.4893679"><ele>137.0</ele><time>2026-04-18T12:36:43.697Z</time></trkpt><trkpt lat="43.6028408" lon="11.4893688"><ele>137.0</ele><time>2026-04-18T12:36:44.697Z</time></trkpt><trkpt lat="43.6030345" lon="11.4893703"><ele>137.33333333333331</ele><time>2026-04-18T12:36:45.697Z</time></trkpt><trkpt lat="43.6032245" lon="11.4893654"><ele>137.66666666666666</ele><time>2026-04-18T12:36:46.698Z</time></trkpt><trkpt lat="43.6034063" lon="11.4893287"><ele>138.0</ele><time>2026-04-18T12:36:47.697Z</time></trkpt><trkpt lat="43.6035813" lon="11.4892701"><ele>135.0</ele><time>2026-04-18T12:36:48.697Z</time></trkpt><trkpt lat="43.6037476" lon="11.4891429"><ele>132.0</ele><time>2026-04-18T12:36:49.697Z</time></trkpt><trkpt lat="43.6039001" lon="11.4889886"><ele>129.0</ele><time>2026-04-18T12:36:50.698Z</time></trkpt><trkpt lat="43.6040411" lon="11.4888374"><ele>130.66666666666666</ele><time>2026-04-18T12:36:51.697Z</time></trkpt><trkpt lat="43.6041869" lon="11.4887031"><ele>132.33333333333331</ele><time>2026-04-18T12:36:52.697Z</time></trkpt><trkpt lat="43.6043283" lon="11.4885617"><ele>134.0</ele><time>2026-04-18T12:36:53.697Z</time></trkpt><trkpt lat="43.6044651" lon="11.4884147"><ele>132.33333333333331</ele><time>2026-04-18T12:36:54.698Z</time></trkpt><trkpt lat="43.6046124" lon="11.4882522"><ele>130.66666666666666</ele><time>2026-04-18T12:36:55.697Z</time></trkpt><trkpt lat="43.6047624" lon="11.4881155"><ele>129.0</ele><time>2026-04-18T12:36:56.697Z</time></trkpt><trkpt lat="43.6049056" lon="11.4879977"><ele>130.75</ele><time>2026-04-18T12:36:57.697Z</time></trkpt><trkpt lat="43.6050412" lon="11.4878958"><ele>132.5</ele><time>2026-04-18T12:36:58.697Z</time></trkpt><trkpt lat="43.6051584" lon="11.4877957"><ele>134.25</ele><time>2026-04-18T12:36:59.697Z</time></trkpt><trkpt lat="43.6052509" lon="11.4876963"><ele>136.0</ele><time>2026-04-18T12:37:00.697Z</time></trkpt><trkpt lat="43.6053588" lon="11.4875975"><ele>136.0</ele><time>2026-04-18T12:37:01.697Z</time></trkpt><trkpt lat="43.6054965" lon="11.4875097"><ele>136.0</ele><time>2026-04-18T12:37:02.698Z</time></trkpt><trkpt lat="43.6056522" lon="11.4874363"><ele>136.0</ele><time>2026-04-18T12:37:03.698Z</time></trkpt><trkpt lat="43.6058191" lon="11.4873701"><ele>136.0</ele><time>2026-04-18T12:37:04.697Z</time></trkpt><trkpt lat="43.6059816" lon="11.4873038"><ele>136.0</ele><time>2026-04-18T12:37:05.698Z</time></trkpt><trkpt lat="43.6061224" lon="11.4872317"><ele>136.0</ele><time>2026-04-18T12:37:06.698Z</time></trkpt><trkpt lat="43.606248" lon="11.4871571"><ele>136.25</ele><time>2026-04-18T12:37:07.697Z</time></trkpt><trkpt lat="43.6063624" lon="11.4870915"><ele>136.5</ele><time>2026-04-18T12:37:08.697Z</time></trkpt><trkpt lat="43.6064858" lon="11.4870297"><ele>136.75</ele><time>2026-04-18T12:37:09.697Z</time></trkpt><trkpt lat="43.6066073" lon="11.486966"><ele>137.0</ele><time>2026-04-18T12:37:10.698Z</time></trkpt><trkpt lat="43.6067311" lon="11.4868977"><ele>137.0</ele><time>2026-04-18T12:37:11.697Z</time></trkpt><trkpt lat="43.6068655" lon="11.486827"><ele>137.0</ele><time>2026-04-18T12:37:12.698Z</time></trkpt><trkpt lat="43.6070059" lon="11.486756"><ele>137.0</ele><time>2026-04-18T12:37:13.698Z</time></trkpt><trkpt lat="43.6071542" lon="11.4866883"><ele>135.0</ele><time>2026-04-18T12:37:14.698Z</time></trkpt><trkpt lat="43.6072892" lon="11.486563"><ele>133.0</ele><time>2026-04-18T12:37:15.697Z</time></trkpt><trkpt lat="43.6074148" lon="11.4864325"><ele>131.0</ele><time>2026-04-18T12:37:16.698Z</time></trkpt><trkpt lat="43.6075514" lon="11.4862967"><ele>131.66666666666666</ele><time>2026-04-18T12:37:17.698Z</time></trkpt><trkpt lat="43.6076922" lon="11.486159"><ele>132.33333333333334</ele><time>2026-04-18T12:37:18.697Z</time></trkpt><trkpt lat="43.60784" lon="11.4860041"><ele>133.0</ele><time>2026-04-18T12:37:19.697Z</time></trkpt><trkpt lat="43.6079926" lon="11.4858351"><ele>131.33333333333334</ele><time>2026-04-18T12:37:20.698Z</time></trkpt><trkpt lat="43.6081533" lon="11.4856606"><ele>129.66666666666666</ele><time>2026-04-18T12:37:21.697Z</time></trkpt><trkpt lat="43.608324" lon="11.4854941"><ele>128.0</ele><time>2026-04-18T12:37:22.698Z</time></trkpt><trkpt lat="43.6085004" lon="11.4853229"><ele>127.33333333333333</ele><time>2026-04-18T12:37:23.697Z</time></trkpt><trkpt lat="43.6086768" lon="11.4851449"><ele>126.66666666666666</ele><time>2026-04-18T12:37:24.697Z</time></trkpt><trkpt lat="43.6088462" lon="11.4849815"><ele>126.0</ele><time>2026-04-18T12:37:25.697Z</time></trkpt><trkpt lat="43.6090022" lon="11.4848408"><ele>126.0</ele><time>2026-04-18T12:37:26.698Z</time></trkpt><trkpt lat="43.6091526" lon="11.4847018"><ele>126.0</ele><time>2026-04-18T12:37:27.697Z</time></trkpt><trkpt lat="43.6092825" lon="11.4845738"><ele>126.0</ele><time>2026-04-18T12:37:28.697Z</time></trkpt><trkpt lat="43.6094052" lon="11.4844469"><ele>126.0</ele><time>2026-04-18T12:37:29.697Z</time></trkpt><trkpt lat="43.6095329" lon="11.4843303"><ele>126.0</ele><time>2026-04-18T12:37:30.698Z</time></trkpt><trkpt lat="43.6096494" lon="11.484214"><ele>126.0</ele><time>2026-04-18T12:37:31.697Z</time></trkpt><trkpt lat="43.6097601" lon="11.4841"><ele>126.0</ele><time>2026-04-18T12:37:32.697Z</time></trkpt><trkpt lat="43.6098739" lon="11.4839853"><ele>126.0</ele><time>2026-04-18T12:37:33.697Z</time></trkpt><trkpt lat="43.6099877" lon="11.4838733"><ele>126.0</ele><time>2026-04-18T12:37:34.697Z</time></trkpt><trkpt lat="43.610101" lon="11.4837655"><ele>126.0</ele><time>2026-04-18T12:37:35.698Z</time></trkpt><trkpt lat="43.6102093" lon="11.4836574"><ele>126.0</ele><time>2026-04-18T12:37:36.697Z</time></trkpt><trkpt lat="43.6103153" lon="11.4835591"><ele>126.25</ele><time>2026-04-18T12:37:37.698Z</time></trkpt><trkpt lat="43.6104169" lon="11.4834518"><ele>126.5</ele><time>2026-04-18T12:37:38.697Z</time></trkpt><trkpt lat="43.6105287" lon="11.4833309"><ele>126.75</ele><time>2026-04-18T12:37:39.697Z</time></trkpt><trkpt lat="43.6106537" lon="11.4832006"><ele>127.0</ele><time>2026-04-18T12:37:40.697Z</time></trkpt><trkpt lat="43.6107898" lon="11.4830649"><ele>127.0</ele><time>2026-04-18T12:37:41.697Z</time></trkpt><trkpt lat="43.6109233" lon="11.4829375"><ele>127.0</ele><time>2026-04-18T12:37:42.697Z</time></trkpt><trkpt lat="43.6110689" lon="11.4828028"><ele>127.0</ele><time>2026-04-18T12:37:43.698Z</time></trkpt><trkpt lat="43.6111989" lon="11.4826719"><ele>126.33333333333334</ele><time>2026-04-18T12:37:44.698Z</time></trkpt><trkpt lat="43.6113288" lon="11.4825448"><ele>125.66666666666666</ele><time>2026-04-18T12:37:45.698Z</time></trkpt><trkpt lat="43.6114481" lon="11.4824187"><ele>125.0</ele><time>2026-04-18T12:37:46.697Z</time></trkpt><trkpt lat="43.6115639" lon="11.4823023"><ele>125.0</ele><time>2026-04-18T12:37:47.697Z</time></trkpt><trkpt lat="43.6116765" lon="11.4821826"><ele>125.0</ele><time>2026-04-18T12:37:48.697Z</time></trkpt><trkpt lat="43.611775" lon="11.4820854"><ele>125.0</ele><time>2026-04-18T12:37:49.697Z</time></trkpt><trkpt lat="43.6118661" lon="11.4819867"><ele>125.0</ele><time>2026-04-18T12:37:50.698Z</time></trkpt><trkpt lat="43.6119462" lon="11.4819006"><ele>124.6</ele><time>2026-04-18T12:37:51.698Z</time></trkpt><trkpt lat="43.612031" lon="11.4818165"><ele>124.2</ele><time>2026-04-18T12:37:52.698Z</time></trkpt><trkpt lat="43.6121107" lon="11.4817296"><ele>123.80000000000001</ele><time>2026-04-18T12:37:53.697Z</time></trkpt><trkpt lat="43.6121967" lon="11.4816397"><ele>123.4</ele><time>2026-04-18T12:37:54.698Z</time></trkpt><trkpt lat="43.6122868" lon="11.4815447"><ele>123.0</ele><time>2026-04-18T12:37:55.697Z</time></trkpt><trkpt lat="43.6123836" lon="11.4814328"><ele>123.0</ele><time>2026-04-18T12:37:56.698Z</time></trkpt><trkpt lat="43.6124927" lon="11.4813219"><ele>123.0</ele><time>2026-04-18T12:37:57.697Z</time></trkpt><trkpt lat="43.6126177" lon="11.481212"><ele>123.0</ele><time>2026-04-18T12:37:58.698Z</time></trkpt><trkpt lat="43.6127402" lon="11.4810999"><ele>123.0</ele><time>2026-04-18T12:37:59.697Z</time></trkpt><trkpt lat="43.612876" lon="11.4809761"><ele>123.66666666666666</ele><time>2026-04-18T12:38:00.697Z</time></trkpt><trkpt lat="43.6130169" lon="11.4808493"><ele>124.33333333333333</ele><time>2026-04-18T12:38:01.698Z</time></trkpt><trkpt lat="43.6131621" lon="11.4807084"><ele>125.0</ele><time>2026-04-18T12:38:02.697Z</time></trkpt><trkpt lat="43.6133087" lon="11.4805632"><ele>125.0</ele><time>2026-04-18T12:38:03.698Z</time></trkpt><trkpt lat="43.6134578" lon="11.4804194"><ele>125.0</ele><time>2026-04-18T12:38:04.697Z</time></trkpt><trkpt lat="43.6136043" lon="11.4802821"><ele>125.0</ele><time>2026-04-18T12:38:05.698Z</time></trkpt><trkpt lat="43.613739" lon="11.4801438"><ele>125.0</ele><time>2026-04-18T12:38:06.697Z</time></trkpt><trkpt lat="43.6138546" lon="11.4800122"><ele>125.0</ele><time>2026-04-18T12:38:07.698Z</time></trkpt><trkpt lat="43.6139634" lon="11.479887"><ele>125.0</ele><time>2026-04-18T12:38:08.698Z</time></trkpt><trkpt lat="43.614082" lon="11.4797733"><ele>125.0</ele><time>2026-04-18T12:38:09.697Z</time></trkpt><trkpt lat="43.6142042" lon="11.4796403"><ele>125.0</ele><time>2026-04-18T12:38:10.697Z</time></trkpt><trkpt lat="43.6143468" lon="11.4795217"><ele>125.0</ele><time>2026-04-18T12:38:11.697Z</time></trkpt><trkpt lat="43.614475" lon="11.4793976"><ele>125.0</ele><time>2026-04-18T12:38:12.697Z</time></trkpt><trkpt lat="43.6145881" lon="11.4792876"><ele>124.75</ele><time>2026-04-18T12:38:13.697Z</time></trkpt><trkpt lat="43.6146957" lon="11.4791813"><ele>124.5</ele><time>2026-04-18T12:38:14.697Z</time></trkpt><trkpt lat="43.6148003" lon="11.4790819"><ele>124.25</ele><time>2026-04-18T12:38:15.697Z</time></trkpt><trkpt lat="43.6149017" lon="11.478984"><ele>124.0</ele><time>2026-04-18T12:38:16.698Z</time></trkpt><trkpt lat="43.6150029" lon="11.4788764"><ele>124.25</ele><time>2026-04-18T12:38:17.698Z</time></trkpt><trkpt lat="43.615103" lon="11.4787643"><ele>124.5</ele><time>2026-04-18T12:38:18.697Z</time></trkpt><trkpt lat="43.6152135" lon="11.4786395"><ele>124.75</ele><time>2026-04-18T12:38:19.698Z</time></trkpt><trkpt lat="43.6153264" lon="11.4785112"><ele>125.0</ele><time>2026-04-18T12:38:20.697Z</time></trkpt><trkpt lat="43.6154447" lon="11.4783791"><ele>124.5</ele><time>2026-04-18T12:38:21.697Z</time></trkpt><trkpt lat="43.6155615" lon="11.4782614"><ele>124.0</ele><time>2026-04-18T12:38:22.698Z</time></trkpt><trkpt lat="43.6156671" lon="11.4781295"><ele>123.5</ele><time>2026-04-18T12:38:23.697Z</time></trkpt><trkpt lat="43.6157796" lon="11.4779971"><ele>123.0</ele><time>2026-04-18T12:38:24.697Z</time></trkpt><trkpt lat="43.6158861" lon="11.4778556"><ele>122.75</ele><time>2026-04-18T12:38:25.698Z</time></trkpt><trkpt lat="43.615989" lon="11.4777251"><ele>122.5</ele><time>2026-04-18T12:38:26.697Z</time></trkpt><trkpt lat="43.6160881" lon="11.4776015"><ele>122.25</ele><time>2026-04-18T12:38:27.697Z</time></trkpt><trkpt lat="43.6161781" lon="11.4774935"><ele>122.0</ele><time>2026-04-18T12:38:28.697Z</time></trkpt><trkpt lat="43.6162553" lon="11.4773791"><ele>122.39999999999999</ele><time>2026-04-18T12:38:29.697Z</time></trkpt><trkpt lat="43.6163308" lon="11.4772816"><ele>122.79999999999998</ele><time>2026-04-18T12:38:30.697Z</time></trkpt><trkpt lat="43.6164087" lon="11.4771868"><ele>123.2</ele><time>2026-04-18T12:38:31.697Z</time></trkpt><trkpt lat="43.6164777" lon="11.4770934"><ele>123.6</ele><time>2026-04-18T12:38:32.697Z</time></trkpt><trkpt lat="43.6165353" lon="11.4770103"><ele>124.0</ele><time>2026-04-18T12:38:33.698Z</time></trkpt><trkpt lat="43.6165932" lon="11.4769406"><ele>124.0</ele><time>2026-04-18T12:38:34.697Z</time></trkpt><trkpt lat="43.6166642" lon="11.4768845"><ele>124.0</ele><time>2026-04-18T12:38:36.697Z</time></trkpt><trkpt lat="43.6167428" lon="11.4768534"><ele>124.0</ele><time>2026-04-18T12:38:39.697Z</time></trkpt><trkpt lat="43.6168383" lon="11.4768427"><ele>124.0</ele><time>2026-04-18T12:38:41.697Z</time></trkpt><trkpt lat="43.6169088" lon="11.4767077"><ele>124.0</ele><time>2026-04-18T12:38:43.697Z</time></trkpt><trkpt lat="43.6169371" lon="11.4766104"><ele>124.0</ele><time>2026-04-18T12:38:44.697Z</time></trkpt><trkpt lat="43.6169845" lon="11.4764982"><ele>124.0</ele><time>2026-04-18T12:38:45.697Z</time></trkpt><trkpt lat="43.6170395" lon="11.4763862"><ele>124.0</ele><time>2026-04-18T12:38:46.698Z</time></trkpt><trkpt lat="43.6171109" lon="11.4762621"><ele>124.0</ele><time>2026-04-18T12:38:47.697Z</time></trkpt><trkpt lat="43.6172042" lon="11.4761382"><ele>124.0</ele><time>2026-04-18T12:38:48.697Z</time></trkpt><trkpt lat="43.6173113" lon="11.4760185"><ele>124.5</ele><time>2026-04-18T12:38:49.698Z</time></trkpt><trkpt lat="43.6174165" lon="11.4758963"><ele>125.0</ele><time>2026-04-18T12:38:50.697Z</time></trkpt><trkpt lat="43.6175226" lon="11.4757665"><ele>125.5</ele><time>2026-04-18T12:38:51.697Z</time></trkpt><trkpt lat="43.6176282" lon="11.475633"><ele>126.0</ele><time>2026-04-18T12:38:52.698Z</time></trkpt><trkpt lat="43.6177316" lon="11.4755021"><ele>125.75</ele><time>2026-04-18T12:38:53.697Z</time></trkpt><trkpt lat="43.6178316" lon="11.4753879"><ele>125.5</ele><time>2026-04-18T12:38:54.697Z</time></trkpt><trkpt lat="43.6179291" lon="11.4752748"><ele>125.25</ele><time>2026-04-18T12:38:55.697Z</time></trkpt><trkpt lat="43.6180125" lon="11.4751784"><ele>125.0</ele><time>2026-04-18T12:38:56.697Z</time></trkpt><trkpt lat="43.6180955" lon="11.4751015"><ele>124.99999999999999</ele><time>2026-04-18T12:38:57.698Z</time></trkpt><trkpt lat="43.6181833" lon="11.4750747"><ele>125.0</ele><time>2026-04-18T12:38:58.698Z</time></trkpt><trkpt lat="43.6182729" lon="11.4750906"><ele>125.0</ele><time>2026-04-18T12:38:59.698Z</time></trkpt><trkpt lat="43.6183523" lon="11.4751345"><ele>125.0</ele><time>2026-04-18T12:39:00.698Z</time></trkpt><trkpt lat="43.6184359" lon="11.4751081"><ele>124.99999999999999</ele><time>2026-04-18T12:39:01.698Z</time></trkpt><trkpt lat="43.6185009" lon="11.4750197"><ele>125.0</ele><time>2026-04-18T12:39:02.697Z</time></trkpt><trkpt lat="43.618525" lon="11.4748986"><ele>125.0</ele><time>2026-04-18T12:39:03.697Z</time></trkpt><trkpt lat="43.6185455" lon="11.4747353"><ele>125.0</ele><time>2026-04-18T12:39:04.697Z</time></trkpt><trkpt lat="43.6185927" lon="11.4745801"><ele>125.0</ele><time>2026-04-18T12:39:05.697Z</time></trkpt><trkpt lat="43.618674" lon="11.4744492"><ele>125.0</ele><time>2026-04-18T12:39:06.697Z</time></trkpt><trkpt lat="43.6187657" lon="11.4743429"><ele>125.0</ele><time>2026-04-18T12:39:07.698Z</time></trkpt><trkpt lat="43.6188781" lon="11.4742334"><ele>125.0</ele><time>2026-04-18T12:39:08.698Z</time></trkpt><trkpt lat="43.6189932" lon="11.4741173"><ele>125.0</ele><time>2026-04-18T12:39:09.697Z</time></trkpt><trkpt lat="43.6191099" lon="11.4739891"><ele>125.0</ele><time>2026-04-18T12:39:10.697Z</time></trkpt><trkpt lat="43.6192318" lon="11.4738572"><ele>125.0</ele><time>2026-04-18T12:39:11.698Z</time></trkpt><trkpt lat="43.6193477" lon="11.4737294"><ele>125.0</ele><time>2026-04-18T12:39:12.698Z</time></trkpt><trkpt lat="43.6194632" lon="11.4736009"><ele>125.0</ele><time>2026-04-18T12:39:13.697Z</time></trkpt><trkpt lat="43.6195817" lon="11.4734716"><ele>125.0</ele><time>2026-04-18T12:39:14.697Z</time></trkpt><trkpt lat="43.6196986" lon="11.4733385"><ele>125.0</ele><time>2026-04-18T12:39:15.696Z</time></trkpt><trkpt lat="43.6198192" lon="11.4732025"><ele>125.0</ele><time>2026-04-18T12:39:16.696Z</time></trkpt><trkpt lat="43.6199431" lon="11.4730703"><ele>125.0</ele><time>2026-04-18T12:39:17.696Z</time></trkpt><trkpt lat="43.6200594" lon="11.4729352"><ele>125.0</ele><time>2026-04-18T12:39:18.696Z</time></trkpt><trkpt lat="43.6201806" lon="11.472797"><ele>125.0</ele><time>2026-04-18T12:39:19.697Z</time></trkpt><trkpt lat="43.6202953" lon="11.472672"><ele>125.0</ele><time>2026-04-18T12:39:20.697Z</time></trkpt><trkpt lat="43.6204081" lon="11.4725489"><ele>125.0</ele><time>2026-04-18T12:39:21.696Z</time></trkpt><trkpt lat="43.6205081" lon="11.4724316"><ele>125.0</ele><time>2026-04-18T12:39:22.697Z</time></trkpt><trkpt lat="43.6206063" lon="11.472322"><ele>125.0</ele><time>2026-04-18T12:39:23.697Z</time></trkpt><trkpt lat="43.6207016" lon="11.4722182"><ele>125.0</ele><time>2026-04-18T12:39:24.696Z</time></trkpt><trkpt lat="43.620783" lon="11.4721234"><ele>125.0</ele><time>2026-04-18T12:39:25.696Z</time></trkpt><trkpt lat="43.6208551" lon="11.4720559"><ele>125.0</ele><time>2026-04-18T12:39:26.696Z</time></trkpt><trkpt lat="43.6209231" lon="11.4719712"><ele>124.99999999999999</ele><time>2026-04-18T12:39:28.696Z</time></trkpt><trkpt lat="43.6209718" lon="11.4718508"><ele>125.0</ele><time>2026-04-18T12:39:31.696Z</time></trkpt><trkpt lat="43.6210624" lon="11.4717465"><ele>125.0</ele><time>2026-04-18T12:39:33.696Z</time></trkpt><trkpt lat="43.6211115" lon="11.4716785"><ele>125.0</ele><time>2026-04-18T12:39:34.697Z</time></trkpt><trkpt lat="43.6211708" lon="11.4716179"><ele>124.99999999999999</ele><time>2026-04-18T12:39:35.696Z</time></trkpt><trkpt lat="43.621224" lon="11.4715521"><ele>125.0</ele><time>2026-04-18T12:39:36.697Z</time></trkpt><trkpt lat="43.621273" lon="11.4714922"><ele>124.8</ele><time>2026-04-18T12:39:37.696Z</time></trkpt><trkpt lat="43.6213511" lon="11.4713955"><ele>124.6</ele><time>2026-04-18T12:39:39.696Z</time></trkpt><trkpt lat="43.6214111" lon="11.4713325"><ele>124.4</ele><time>2026-04-18T12:39:40.696Z</time></trkpt><trkpt lat="43.6214966" lon="11.4712372"><ele>124.2</ele><time>2026-04-18T12:39:41.696Z</time></trkpt><trkpt lat="43.6216011" lon="11.4711325"><ele>124.0</ele><time>2026-04-18T12:39:42.696Z</time></trkpt><trkpt lat="43.6217069" lon="11.4710448"><ele>124.0</ele><time>2026-04-18T12:39:43.696Z</time></trkpt><trkpt lat="43.6218089" lon="11.4709429"><ele>124.0</ele><time>2026-04-18T12:39:44.697Z</time></trkpt><trkpt lat="43.6218981" lon="11.4708519"><ele>124.0</ele><time>2026-04-18T12:39:45.696Z</time></trkpt><trkpt lat="43.6219787" lon="11.4707626"><ele>124.0</ele><time>2026-04-18T12:39:46.696Z</time></trkpt><trkpt lat="43.6220501" lon="11.4706712"><ele>124.0</ele><time>2026-04-18T12:39:47.696Z</time></trkpt><trkpt lat="43.6221173" lon="11.4705855"><ele>124.0</ele><time>2026-04-18T12:39:48.696Z</time></trkpt><trkpt lat="43.6221818" lon="11.4705108"><ele>124.0</ele><time>2026-04-18T12:39:49.696Z</time></trkpt><trkpt lat="43.6222441" lon="11.4704168"><ele>124.0</ele><time>2026-04-18T12:39:50.696Z</time></trkpt><trkpt lat="43.6223307" lon="11.4703175"><ele>124.0</ele><time>2026-04-18T12:39:51.696Z</time></trkpt><trkpt lat="43.6224175" lon="11.4702112"><ele>124.0</ele><time>2026-04-18T12:39:52.696Z</time></trkpt><trkpt lat="43.6225138" lon="11.470111"><ele>123.75</ele><time>2026-04-18T12:39:53.697Z</time></trkpt><trkpt lat="43.6226122" lon="11.4700198"><ele>123.5</ele><time>2026-04-18T12:39:54.696Z</time></trkpt><trkpt lat="43.6227111" lon="11.469924"><ele>123.25</ele><time>2026-04-18T12:39:55.696Z</time></trkpt><trkpt lat="43.6228062" lon="11.4698118"><ele>123.0</ele><time>2026-04-18T12:39:56.697Z</time></trkpt><trkpt lat="43.6228954" lon="11.4696863"><ele>123.0</ele><time>2026-04-18T12:39:57.696Z</time></trkpt><trkpt lat="43.622987" lon="11.469579"><ele>123.0</ele><time>2026-04-18T12:39:58.697Z</time></trkpt><trkpt lat="43.6230784" lon="11.469479"><ele>123.0</ele><time>2026-04-18T12:39:59.697Z</time></trkpt><trkpt lat="43.6231633" lon="11.4693832"><ele>123.0</ele><time>2026-04-18T12:40:00.697Z</time></trkpt><trkpt lat="43.6232365" lon="11.4692624"><ele>123.0</ele><time>2026-04-18T12:40:01.696Z</time></trkpt><trkpt lat="43.6233176" lon="11.4691428"><ele>123.0</ele><time>2026-04-18T12:40:02.696Z</time></trkpt><trkpt lat="43.6234052" lon="11.4690088"><ele>123.0</ele><time>2026-04-18T12:40:03.696Z</time></trkpt><trkpt lat="43.6234912" lon="11.4688665"><ele>123.0</ele><time>2026-04-18T12:40:04.696Z</time></trkpt><trkpt lat="43.6235876" lon="11.4687198"><ele>123.25</ele><time>2026-04-18T12:40:05.696Z</time></trkpt><trkpt lat="43.6236796" lon="11.4685698"><ele>123.5</ele><time>2026-04-18T12:40:06.697Z</time></trkpt><trkpt lat="43.6237791" lon="11.4684063"><ele>123.75</ele><time>2026-04-18T12:40:07.697Z</time></trkpt><trkpt lat="43.623865" lon="11.4682396"><ele>124.0</ele><time>2026-04-18T12:40:08.696Z</time></trkpt><trkpt lat="43.6239416" lon="11.4680611"><ele>123.5</ele><time>2026-04-18T12:40:09.696Z</time></trkpt><trkpt lat="43.6240194" lon="11.4678878"><ele>123.0</ele><time>2026-04-18T12:40:10.696Z</time></trkpt><trkpt lat="43.6240868" lon="11.4677142"><ele>122.5</ele><time>2026-04-18T12:40:11.696Z</time></trkpt><trkpt lat="43.6241543" lon="11.4675596"><ele>122.0</ele><time>2026-04-18T12:40:12.696Z</time></trkpt><trkpt lat="43.6242184" lon="11.4674042"><ele>122.0</ele><time>2026-04-18T12:40:13.697Z</time></trkpt><trkpt lat="43.6242575" lon="11.4672536"><ele>121.99999999999999</ele><time>2026-04-18T12:40:14.696Z</time></trkpt><trkpt lat="43.6243028" lon="11.4671269"><ele>121.99999999999999</ele><time>2026-04-18T12:40:15.696Z</time></trkpt><trkpt lat="43.6243563" lon="11.467012"><ele>122.0</ele><time>2026-04-18T12:40:16.697Z</time></trkpt><trkpt lat="43.6244069" lon="11.466903"><ele>122.0</ele><time>2026-04-18T12:40:17.696Z</time></trkpt><trkpt lat="43.6244433" lon="11.4667781"><ele>122.0</ele><time>2026-04-18T12:40:18.696Z</time></trkpt><trkpt lat="43.6244699" lon="11.4666471"><ele>121.99999999999999</ele><time>2026-04-18T12:40:19.696Z</time></trkpt><trkpt lat="43.6245141" lon="11.466507"><ele>121.99999999999999</ele><time>2026-04-18T12:40:20.696Z</time></trkpt><trkpt lat="43.6245612" lon="11.4663694"><ele>122.0</ele><time>2026-04-18T12:40:21.697Z</time></trkpt><trkpt lat="43.6246135" lon="11.4662099"><ele>122.0</ele><time>2026-04-18T12:40:22.696Z</time></trkpt><trkpt lat="43.6246758" lon="11.4660276"><ele>122.66666666666666</ele><time>2026-04-18T12:40:23.697Z</time></trkpt><trkpt lat="43.6247488" lon="11.4658387"><ele>123.33333333333334</ele><time>2026-04-18T12:40:24.697Z</time></trkpt><trkpt lat="43.6248168" lon="11.4656578"><ele>124.0</ele><time>2026-04-18T12:40:25.696Z</time></trkpt><trkpt lat="43.6248813" lon="11.4654734"><ele>124.33333333333334</ele><time>2026-04-18T12:40:26.696Z</time></trkpt><trkpt lat="43.6249519" lon="11.4652783"><ele>124.66666666666666</ele><time>2026-04-18T12:40:27.696Z</time></trkpt><trkpt lat="43.6250186" lon="11.4650771"><ele>125.0</ele><time>2026-04-18T12:40:28.697Z</time></trkpt><trkpt lat="43.6250908" lon="11.4648828"><ele>125.0</ele><time>2026-04-18T12:40:29.696Z</time></trkpt><trkpt lat="43.6251574" lon="11.4647007"><ele>125.0</ele><time>2026-04-18T12:40:30.696Z</time></trkpt><trkpt lat="43.6252264" lon="11.464517"><ele>125.0</ele><time>2026-04-18T12:40:31.696Z</time></trkpt><trkpt lat="43.6253008" lon="11.4643313"><ele>124.5</ele><time>2026-04-18T12:40:32.697Z</time></trkpt><trkpt lat="43.6253695" lon="11.4641474"><ele>124.0</ele><time>2026-04-18T12:40:33.696Z</time></trkpt><trkpt lat="43.6254391" lon="11.4639774"><ele>123.5</ele><time>2026-04-18T12:40:34.697Z</time></trkpt><trkpt lat="43.6255073" lon="11.4638237"><ele>123.0</ele><time>2026-04-18T12:40:35.696Z</time></trkpt><trkpt lat="43.6255746" lon="11.4636948"><ele>123.0</ele><time>2026-04-18T12:40:36.697Z</time></trkpt><trkpt lat="43.6256306" lon="11.4635869"><ele>123.0</ele><time>2026-04-18T12:40:37.696Z</time></trkpt><trkpt lat="43.6256841" lon="11.4635152"><ele>123.0</ele><time>2026-04-18T12:40:38.696Z</time></trkpt><trkpt lat="43.625751" lon="11.4634452"><ele>123.0</ele><time>2026-04-18T12:40:39.696Z</time></trkpt><trkpt lat="43.6258097" lon="11.463385"><ele>123.0</ele><time>2026-04-18T12:40:40.696Z</time></trkpt><trkpt lat="43.6258578" lon="11.4632897"><ele>123.0</ele><time>2026-04-18T12:40:41.696Z</time></trkpt><trkpt lat="43.6258971" lon="11.4631717"><ele>123.0</ele><time>2026-04-18T12:40:42.697Z</time></trkpt><trkpt lat="43.6259437" lon="11.4630438"><ele>123.0</ele><time>2026-04-18T12:40:43.697Z</time></trkpt><trkpt lat="43.6260096" lon="11.462907"><ele>123.0</ele><time>2026-04-18T12:40:44.696Z</time></trkpt><trkpt lat="43.626099" lon="11.4627719"><ele>123.0</ele><time>2026-04-18T12:40:45.696Z</time></trkpt><trkpt lat="43.6261913" lon="11.4626317"><ele>122.75</ele><time>2026-04-18T12:40:46.696Z</time></trkpt><trkpt lat="43.6262902" lon="11.4624953"><ele>122.5</ele><time>2026-04-18T12:40:47.696Z</time></trkpt><trkpt lat="43.6264018" lon="11.4623614"><ele>122.25</ele><time>2026-04-18T12:40:48.696Z</time></trkpt><trkpt lat="43.6265105" lon="11.462229"><ele>122.0</ele><time>2026-04-18T12:40:49.696Z</time></trkpt><trkpt lat="43.6266277" lon="11.462084"><ele>122.0</ele><time>2026-04-18T12:40:50.696Z</time></trkpt><trkpt lat="43.6267451" lon="11.4619355"><ele>122.0</ele><time>2026-04-18T12:40:51.696Z</time></trkpt><trkpt lat="43.626863" lon="11.461774"><ele>122.0</ele><time>2026-04-18T12:40:52.696Z</time></trkpt><trkpt lat="43.6269784" lon="11.4616229"><ele>121.75</ele><time>2026-04-18T12:40:53.696Z</time></trkpt><trkpt lat="43.6270887" lon="11.4614903"><ele>121.5</ele><time>2026-04-18T12:40:54.696Z</time></trkpt><trkpt lat="43.6271918" lon="11.4613712"><ele>121.25</ele><time>2026-04-18T12:40:55.696Z</time></trkpt><trkpt lat="43.6272977" lon="11.4612573"><ele>121.0</ele><time>2026-04-18T12:40:56.697Z</time></trkpt><trkpt lat="43.627402" lon="11.4611515"><ele>121.0</ele><time>2026-04-18T12:40:57.696Z</time></trkpt><trkpt lat="43.6275021" lon="11.4610704"><ele>121.0</ele><time>2026-04-18T12:40:58.696Z</time></trkpt><trkpt lat="43.6276025" lon="11.4610209"><ele>121.0</ele><time>2026-04-18T12:40:59.697Z</time></trkpt><trkpt lat="43.6276872" lon="11.4609769"><ele>121.0</ele><time>2026-04-18T12:41:00.696Z</time></trkpt><trkpt lat="43.6277554" lon="11.4608951"><ele>121.0</ele><time>2026-04-18T12:41:01.696Z</time></trkpt><trkpt lat="43.6278238" lon="11.4607679"><ele>120.75</ele><time>2026-04-18T12:41:02.696Z</time></trkpt><trkpt lat="43.6279086" lon="11.460623"><ele>120.5</ele><time>2026-04-18T12:41:03.696Z</time></trkpt><trkpt lat="43.6280225" lon="11.4604782"><ele>120.25</ele><time>2026-04-18T12:41:04.696Z</time></trkpt><trkpt lat="43.6281465" lon="11.4603449"><ele>120.0</ele><time>2026-04-18T12:41:05.697Z</time></trkpt><trkpt lat="43.6282794" lon="11.4602094"><ele>120.33333333333334</ele><time>2026-04-18T12:41:06.696Z</time></trkpt><trkpt lat="43.628413" lon="11.4600765"><ele>120.66666666666667</ele><time>2026-04-18T12:41:07.697Z</time></trkpt><trkpt lat="43.6285701" lon="11.4599408"><ele>121.0</ele><time>2026-04-18T12:41:08.696Z</time></trkpt><trkpt lat="43.6287327" lon="11.4598148"><ele>121.0</ele><time>2026-04-18T12:41:09.696Z</time></trkpt><trkpt lat="43.6288835" lon="11.4596999"><ele>121.0</ele><time>2026-04-18T12:41:10.696Z</time></trkpt><trkpt lat="43.6290192" lon="11.4596226"><ele>121.0</ele><time>2026-04-18T12:41:11.696Z</time></trkpt><trkpt lat="43.6291472" lon="11.4595987"><ele>121.0</ele><time>2026-04-18T12:41:12.697Z</time></trkpt><trkpt lat="43.6292571" lon="11.4596224"><ele>121.0</ele><time>2026-04-18T12:41:13.697Z</time></trkpt><trkpt lat="43.6293721" lon="11.4596245"><ele>121.0</ele><time>2026-04-18T12:41:14.696Z</time></trkpt><trkpt lat="43.6294373" lon="11.4595848"><ele>121.0</ele><time>2026-04-18T12:41:15.696Z</time></trkpt><trkpt lat="43.6295045" lon="11.4595"><ele>121.0</ele><time>2026-04-18T12:41:16.696Z</time></trkpt><trkpt lat="43.6295763" lon="11.4593827"><ele>121.0</ele><time>2026-04-18T12:41:17.696Z</time></trkpt><trkpt lat="43.6296722" lon="11.4592981"><ele>121.25</ele><time>2026-04-18T12:41:18.696Z</time></trkpt><trkpt lat="43.6298112" lon="11.4592659"><ele>121.5</ele><time>2026-04-18T12:41:19.696Z</time></trkpt><trkpt lat="43.6299617" lon="11.4592656"><ele>121.75</ele><time>2026-04-18T12:41:20.696Z</time></trkpt><trkpt lat="43.6301175" lon="11.4592488"><ele>122.0</ele><time>2026-04-18T12:41:21.696Z</time></trkpt><trkpt lat="43.6302793" lon="11.4592172"><ele>122.0</ele><time>2026-04-18T12:41:22.696Z</time></trkpt><trkpt lat="43.6304497" lon="11.4591955"><ele>122.0</ele><time>2026-04-18T12:41:23.697Z</time></trkpt><trkpt lat="43.630623" lon="11.459182"><ele>122.0</ele><time>2026-04-18T12:41:24.696Z</time></trkpt><trkpt lat="43.6308103" lon="11.4591732"><ele>122.0</ele><time>2026-04-18T12:41:25.696Z</time></trkpt><trkpt lat="43.6309996" lon="11.4591544"><ele>122.0</ele><time>2026-04-18T12:41:26.696Z</time></trkpt><trkpt lat="43.6311921" lon="11.4591152"><ele>122.0</ele><time>2026-04-18T12:41:27.697Z</time></trkpt><trkpt lat="43.6313879" lon="11.459046"><ele>122.0</ele><time>2026-04-18T12:41:28.697Z</time></trkpt><trkpt lat="43.6315746" lon="11.4589183"><ele>122.0</ele><time>2026-04-18T12:41:29.697Z</time></trkpt><trkpt lat="43.6317548" lon="11.4587661"><ele>122.0</ele><time>2026-04-18T12:41:30.697Z</time></trkpt><trkpt lat="43.631935" lon="11.4586001"><ele>121.33333333333333</ele><time>2026-04-18T12:41:31.696Z</time></trkpt><trkpt lat="43.6321169" lon="11.4584294"><ele>120.66666666666666</ele><time>2026-04-18T12:41:32.696Z</time></trkpt><trkpt lat="43.6323092" lon="11.4582604"><ele>120.0</ele><time>2026-04-18T12:41:33.697Z</time></trkpt><trkpt lat="43.6325027" lon="11.4580948"><ele>120.0</ele><time>2026-04-18T12:41:34.697Z</time></trkpt><trkpt lat="43.6326895" lon="11.4579362"><ele>120.0</ele><time>2026-04-18T12:41:35.696Z</time></trkpt><trkpt lat="43.6328794" lon="11.4577704"><ele>120.0</ele><time>2026-04-18T12:41:36.696Z</time></trkpt><trkpt lat="43.6330674" lon="11.4576021"><ele>120.0</ele><time>2026-04-18T12:41:37.696Z</time></trkpt><trkpt lat="43.6332553" lon="11.4574354"><ele>120.0</ele><time>2026-04-18T12:41:38.696Z</time></trkpt><trkpt lat="43.6334446" lon="11.4572715"><ele>120.0</ele><time>2026-04-18T12:41:39.696Z</time></trkpt><trkpt lat="43.6336351" lon="11.4571066"><ele>120.33333333333334</ele><time>2026-04-18T12:41:40.696Z</time></trkpt><trkpt lat="43.633823" lon="11.4569423"><ele>120.66666666666667</ele><time>2026-04-18T12:41:41.696Z</time></trkpt><trkpt lat="43.6340086" lon="11.4567795"><ele>121.0</ele><time>2026-04-18T12:41:42.696Z</time></trkpt><trkpt lat="43.634176" lon="11.4566318"><ele>121.0</ele><time>2026-04-18T12:41:43.697Z</time></trkpt><trkpt lat="43.6343321" lon="11.4564888"><ele>121.0</ele><time>2026-04-18T12:41:44.697Z</time></trkpt><trkpt lat="43.6344902" lon="11.4563484"><ele>121.0</ele><time>2026-04-18T12:41:45.696Z</time></trkpt><trkpt lat="43.634638" lon="11.4562089"><ele>121.33333333333334</ele><time>2026-04-18T12:41:46.696Z</time></trkpt><trkpt lat="43.6347899" lon="11.4560843"><ele>121.66666666666666</ele><time>2026-04-18T12:41:47.697Z</time></trkpt><trkpt lat="43.6349288" lon="11.455966"><ele>122.0</ele><time>2026-04-18T12:41:48.696Z</time></trkpt><trkpt lat="43.6350581" lon="11.455853"><ele>122.0</ele><time>2026-04-18T12:41:49.697Z</time></trkpt><trkpt lat="43.6351775" lon="11.4557564"><ele>121.99999999999999</ele><time>2026-04-18T12:41:50.697Z</time></trkpt><trkpt lat="43.6352671" lon="11.4556811"><ele>121.99999999999999</ele><time>2026-04-18T12:41:51.696Z</time></trkpt><trkpt lat="43.6353441" lon="11.4556348"><ele>122.0</ele><time>2026-04-18T12:41:52.697Z</time></trkpt><trkpt lat="43.6354079" lon="11.4555949"><ele>122.0</ele><time>2026-04-18T12:41:53.696Z</time></trkpt><trkpt lat="43.6354745" lon="11.4555823"><ele>121.5</ele><time>2026-04-18T12:41:54.696Z</time></trkpt><trkpt lat="43.6355881" lon="11.4554945"><ele>121.0</ele><time>2026-04-18T12:41:56.696Z</time></trkpt><trkpt lat="43.635651" lon="11.4553819"><ele>120.5</ele><time>2026-04-18T12:41:57.696Z</time></trkpt><trkpt lat="43.635728" lon="11.4552547"><ele>120.0</ele><time>2026-04-18T12:41:58.697Z</time></trkpt><trkpt lat="43.6358329" lon="11.4551364"><ele>120.0</ele><time>2026-04-18T12:41:59.696Z</time></trkpt><trkpt lat="43.6359525" lon="11.4550198"><ele>120.0</ele><time>2026-04-18T12:42:00.696Z</time></trkpt><trkpt lat="43.6360845" lon="11.4548937"><ele>120.0</ele><time>2026-04-18T12:42:01.697Z</time></trkpt><trkpt lat="43.6362395" lon="11.4547655"><ele>120.0</ele><time>2026-04-18T12:42:02.697Z</time></trkpt><trkpt lat="43.6364119" lon="11.4546324"><ele>120.0</ele><time>2026-04-18T12:42:03.696Z</time></trkpt><trkpt lat="43.6365869" lon="11.4544853"><ele>120.0</ele><time>2026-04-18T12:42:04.697Z</time></trkpt><trkpt lat="43.636763" lon="11.4543339"><ele>119.66666666666666</ele><time>2026-04-18T12:42:05.696Z</time></trkpt><trkpt lat="43.6369418" lon="11.4541727"><ele>119.33333333333333</ele><time>2026-04-18T12:42:06.697Z</time></trkpt><trkpt lat="43.6371264" lon="11.4540098"><ele>119.0</ele><time>2026-04-18T12:42:07.696Z</time></trkpt><trkpt lat="43.6373124" lon="11.4538558"><ele>118.66666666666666</ele><time>2026-04-18T12:42:08.697Z</time></trkpt><trkpt lat="43.6374964" lon="11.4536949"><ele>118.33333333333334</ele><time>2026-04-18T12:42:09.696Z</time></trkpt><trkpt lat="43.6376888" lon="11.4535208"><ele>118.0</ele><time>2026-04-18T12:42:10.697Z</time></trkpt><trkpt lat="43.6378808" lon="11.4533594"><ele>119.5</ele><time>2026-04-18T12:42:11.697Z</time></trkpt><trkpt lat="43.6380697" lon="11.4531881"><ele>121.0</ele><time>2026-04-18T12:42:12.696Z</time></trkpt><trkpt lat="43.638263" lon="11.453013"><ele>121.0</ele><time>2026-04-18T12:42:13.696Z</time></trkpt><trkpt lat="43.6384582" lon="11.4528354"><ele>121.0</ele><time>2026-04-18T12:42:14.697Z</time></trkpt><trkpt lat="43.6386555" lon="11.4526608"><ele>121.0</ele><time>2026-04-18T12:42:15.696Z</time></trkpt><trkpt lat="43.6388513" lon="11.4524887"><ele>121.0</ele><time>2026-04-18T12:42:16.696Z</time></trkpt><trkpt lat="43.6390462" lon="11.4523204"><ele>121.0</ele><time>2026-04-18T12:42:17.696Z</time></trkpt><trkpt lat="43.6392445" lon="11.4521551"><ele>121.0</ele><time>2026-04-18T12:42:18.697Z</time></trkpt><trkpt lat="43.6394394" lon="11.4519891"><ele>122.33333333333334</ele><time>2026-04-18T12:42:19.697Z</time></trkpt><trkpt lat="43.6396283" lon="11.4518335"><ele>123.66666666666666</ele><time>2026-04-18T12:42:20.697Z</time></trkpt><trkpt lat="43.6398102" lon="11.451718"><ele>125.0</ele><time>2026-04-18T12:42:21.696Z</time></trkpt><trkpt lat="43.6399899" lon="11.4516813"><ele>125.0</ele><time>2026-04-18T12:42:22.697Z</time></trkpt><trkpt lat="43.6401806" lon="11.4516839"><ele>125.0</ele><time>2026-04-18T12:42:23.696Z</time></trkpt><trkpt lat="43.640366" lon="11.4517248"><ele>125.0</ele><time>2026-04-18T12:42:24.694Z</time></trkpt><trkpt lat="43.6405356" lon="11.4517656"><ele>124.0</ele><time>2026-04-18T12:42:25.696Z</time></trkpt><trkpt lat="43.6407056" lon="11.4518036"><ele>123.0</ele><time>2026-04-18T12:42:26.696Z</time></trkpt><trkpt lat="43.6408683" lon="11.451842"><ele>122.0</ele><time>2026-04-18T12:42:27.696Z</time></trkpt><trkpt lat="43.641027" lon="11.451899"><ele>121.75</ele><time>2026-04-18T12:42:28.697Z</time></trkpt><trkpt lat="43.6411624" lon="11.4519609"><ele>121.5</ele><time>2026-04-18T12:42:29.696Z</time></trkpt><trkpt lat="43.6412863" lon="11.4520485"><ele>121.25</ele><time>2026-04-18T12:42:30.696Z</time></trkpt><trkpt lat="43.6413931" lon="11.4521457"><ele>121.0</ele><time>2026-04-18T12:42:31.696Z</time></trkpt><trkpt lat="43.6414533" lon="11.4522365"><ele>121.00000000000001</ele><time>2026-04-18T12:42:32.696Z</time></trkpt><trkpt lat="43.6414952" lon="11.452327"><ele>121.0</ele><time>2026-04-18T12:42:33.697Z</time></trkpt><trkpt lat="43.6415293" lon="11.4524541"><ele>121.0</ele><time>2026-04-18T12:42:34.696Z</time></trkpt><trkpt lat="43.6415394" lon="11.4525775"><ele>121.0</ele><time>2026-04-18T12:42:35.696Z</time></trkpt><trkpt lat="43.6415574" lon="11.4526961"><ele>121.00000000000001</ele><time>2026-04-18T12:42:36.696Z</time></trkpt><trkpt lat="43.6416045" lon="11.4527857"><ele>121.0</ele><time>2026-04-18T12:42:37.697Z</time></trkpt><trkpt lat="43.641696" lon="11.4528209"><ele>121.0</ele><time>2026-04-18T12:42:38.697Z</time></trkpt><trkpt lat="43.6417864" lon="11.4527826"><ele>121.0</ele><time>2026-04-18T12:42:39.696Z</time></trkpt><trkpt lat="43.6418558" lon="11.4526965"><ele>121.0</ele><time>2026-04-18T12:42:40.697Z</time></trkpt><trkpt lat="43.6418842" lon="11.4525643"><ele>121.0</ele><time>2026-04-18T12:42:41.696Z</time></trkpt><trkpt lat="43.6418932" lon="11.4524097"><ele>121.0</ele><time>2026-04-18T12:42:42.696Z</time></trkpt><trkpt lat="43.6419238" lon="11.4522642"><ele>121.75</ele><time>2026-04-18T12:42:43.696Z</time></trkpt><trkpt lat="43.6419908" lon="11.4521194"><ele>122.5</ele><time>2026-04-18T12:42:44.696Z</time></trkpt><trkpt lat="43.6420851" lon="11.4519918"><ele>123.25</ele><time>2026-04-18T12:42:45.696Z</time></trkpt><trkpt lat="43.6421654" lon="11.4518451"><ele>124.0</ele><time>2026-04-18T12:42:46.696Z</time></trkpt><trkpt lat="43.6422278" lon="11.4516924"><ele>124.0</ele><time>2026-04-18T12:42:47.696Z</time></trkpt><trkpt lat="43.642286" lon="11.4515476"><ele>124.0</ele><time>2026-04-18T12:42:48.696Z</time></trkpt><trkpt lat="43.6423625" lon="11.4514553"><ele>124.0</ele><time>2026-04-18T12:42:49.696Z</time></trkpt><trkpt lat="43.6424636" lon="11.45141"><ele>124.0</ele><time>2026-04-18T12:42:50.697Z</time></trkpt><trkpt lat="43.6425663" lon="11.4514136"><ele>124.0</ele><time>2026-04-18T12:42:51.696Z</time></trkpt><trkpt lat="43.642646" lon="11.451377"><ele>124.2</ele><time>2026-04-18T12:42:52.696Z</time></trkpt><trkpt lat="43.6426865" lon="11.4512822"><ele>124.4</ele><time>2026-04-18T12:42:53.696Z</time></trkpt><trkpt lat="43.6426974" lon="11.4511555"><ele>124.6</ele><time>2026-04-18T12:42:54.696Z</time></trkpt><trkpt lat="43.6426651" lon="11.4510089"><ele>124.8</ele><time>2026-04-18T12:42:55.696Z</time></trkpt><trkpt lat="43.6426576" lon="11.45085"><ele>125.0</ele><time>2026-04-18T12:42:56.696Z</time></trkpt><trkpt lat="43.6426476" lon="11.4506949"><ele>125.0</ele><time>2026-04-18T12:42:57.696Z</time></trkpt><trkpt lat="43.6426404" lon="11.4505548"><ele>125.0</ele><time>2026-04-18T12:42:58.697Z</time></trkpt><trkpt lat="43.6426782" lon="11.4504499"><ele>125.0</ele><time>2026-04-18T12:42:59.696Z</time></trkpt><trkpt lat="43.6427468" lon="11.4503579"><ele>125.0</ele><time>2026-04-18T12:43:00.696Z</time></trkpt><trkpt lat="43.6428335" lon="11.4503439"><ele>125.0</ele><time>2026-04-18T12:43:01.696Z</time></trkpt><trkpt lat="43.6429413" lon="11.4503454"><ele>125.16666666666666</ele><time>2026-04-18T12:43:02.696Z</time></trkpt><trkpt lat="43.6430522" lon="11.4503489"><ele>125.33333333333333</ele><time>2026-04-18T12:43:03.696Z</time></trkpt><trkpt lat="43.643152" lon="11.4503513"><ele>125.5</ele><time>2026-04-18T12:43:04.696Z</time></trkpt><trkpt lat="43.6432256" lon="11.450349"><ele>125.66666666666666</ele><time>2026-04-18T12:43:05.696Z</time></trkpt><trkpt lat="43.643292" lon="11.4503373"><ele>125.83333333333333</ele><time>2026-04-18T12:43:07.696Z</time></trkpt><trkpt lat="43.6433347" lon="11.4502657"><ele>126.0</ele><time>2026-04-18T12:43:09.696Z</time></trkpt><trkpt lat="43.6433627" lon="11.4501248"><ele>126.0</ele><time>2026-04-18T12:43:11.696Z</time></trkpt><trkpt lat="43.6434244" lon="11.4500683"><ele>126.0</ele><time>2026-04-18T12:43:12.696Z</time></trkpt><trkpt lat="43.6435023" lon="11.4500517"><ele>126.0</ele><time>2026-04-18T12:43:13.697Z</time></trkpt><trkpt lat="43.6435789" lon="11.4500613"><ele>126.0</ele><time>2026-04-18T12:43:14.696Z</time></trkpt><trkpt lat="43.6436465" lon="11.4500636"><ele>126.0</ele><time>2026-04-18T12:43:15.696Z</time></trkpt><trkpt lat="43.6437406" lon="11.4499776"><ele>126.0</ele><time>2026-04-18T12:43:17.696Z</time></trkpt><trkpt lat="43.6437609" lon="11.4498946"><ele>126.19999999999999</ele><time>2026-04-18T12:43:18.696Z</time></trkpt><trkpt lat="43.643866" lon="11.4497994"><ele>126.39999999999999</ele><time>2026-04-18T12:43:20.697Z</time></trkpt><trkpt lat="43.6439613" lon="11.4498158"><ele>126.6</ele><time>2026-04-18T12:43:21.697Z</time></trkpt><trkpt lat="43.644033" lon="11.449815"><ele>126.8</ele><time>2026-04-18T12:43:22.696Z</time></trkpt><trkpt lat="43.6441469" lon="11.4497848"><ele>127.0</ele><time>2026-04-18T12:43:24.696Z</time></trkpt><trkpt lat="43.6442229" lon="11.4497724"><ele>127.0</ele><time>2026-04-18T12:43:26.696Z</time></trkpt><trkpt lat="43.6442884" lon="11.449762"><ele>127.0</ele><time>2026-04-18T12:43:29.696Z</time></trkpt></trkseg></trk></gpx>